<?xml version="1.0" encoding="UTF-8" standalone="no" ?>
<gpx xmlns="http://www.topografix.com/GPX/1/1" xmlns:xsi="http://www.w3.org/2001/XMLSchema-instance" xsi:schemaLocation="http://www.topografix.com/GPX/1/1 http://www.topografix.com/GPX/1/1/gpx.xsd" version="1.1" creator="VisuGPX - https://www.visugpx.com">
  <metadata>
    <name>L\'Hivernale de larchant 2014</name>
    <desc><![CDATA[Circuit ouvert uniquement le jour de cette rando. Sinon, singles privés et interdits.
Parcours endurisant technique et assez physique]]></desc>
  </metadata>
  <trk>
    <name><![CDATA[rando l'hivernale de larchand]]></name>
    <cmt><![CDATA[bien collant avec la boue]]></cmt>
    <trkseg>
      <trkpt lat="48.28304" lon="2.59796">
        <ele>88.199996948242</ele>
        <time>2014-02-02T08:10:41Z</time>
      </trkpt>
      <trkpt lat="48.28303" lon="2.59798">
        <ele>88.400001525879</ele>
        <time>2014-02-02T08:10:46Z</time>
      </trkpt>
      <trkpt lat="48.28297" lon="2.59803">
        <ele>88.400001525879</ele>
        <time>2014-02-02T08:10:50Z</time>
      </trkpt>
      <trkpt lat="48.28277" lon="2.5982">
        <ele>88.400001525879</ele>
        <time>2014-02-02T08:10:58Z</time>
      </trkpt>
      <trkpt lat="48.28251" lon="2.59838">
        <ele>88.400001525879</ele>
        <time>2014-02-02T08:11:07Z</time>
      </trkpt>
      <trkpt lat="48.28245" lon="2.59842">
        <ele>89</ele>
        <time>2014-02-02T08:11:09Z</time>
      </trkpt>
      <trkpt lat="48.28242" lon="2.59844">
        <ele>89.400001525879</ele>
        <time>2014-02-02T08:11:10Z</time>
      </trkpt>
      <trkpt lat="48.28239" lon="2.59846">
        <ele>89.800003051758</ele>
        <time>2014-02-02T08:11:11Z</time>
      </trkpt>
      <trkpt lat="48.28237" lon="2.59848">
        <ele>90.199996948242</ele>
        <time>2014-02-02T08:11:12Z</time>
      </trkpt>
      <trkpt lat="48.28234" lon="2.5985">
        <ele>90.599998474121</ele>
        <time>2014-02-02T08:11:13Z</time>
      </trkpt>
      <trkpt lat="48.2823" lon="2.59854">
        <ele>90.599998474121</ele>
        <time>2014-02-02T08:11:15Z</time>
      </trkpt>
      <trkpt lat="48.28211" lon="2.59867">
        <ele>90.599998474121</ele>
        <time>2014-02-02T08:11:22Z</time>
      </trkpt>
      <trkpt lat="48.28196" lon="2.59867">
        <ele>90.599998474121</ele>
        <time>2014-02-02T08:11:27Z</time>
      </trkpt>
      <trkpt lat="48.28185" lon="2.5986">
        <ele>91.199996948242</ele>
        <time>2014-02-02T08:11:31Z</time>
      </trkpt>
      <trkpt lat="48.28183" lon="2.59858">
        <ele>91.599998474121</ele>
        <time>2014-02-02T08:11:32Z</time>
      </trkpt>
      <trkpt lat="48.2818" lon="2.59857">
        <ele>92</ele>
        <time>2014-02-02T08:11:33Z</time>
      </trkpt>
      <trkpt lat="48.28176" lon="2.59855">
        <ele>92.400001525879</ele>
        <time>2014-02-02T08:11:34Z</time>
      </trkpt>
      <trkpt lat="48.28173" lon="2.59853">
        <ele>92.800003051758</ele>
        <time>2014-02-02T08:11:35Z</time>
      </trkpt>
      <trkpt lat="48.28168" lon="2.59851">
        <ele>92.800003051758</ele>
        <time>2014-02-02T08:11:37Z</time>
      </trkpt>
      <trkpt lat="48.28156" lon="2.59845">
        <ele>92.800003051758</ele>
        <time>2014-02-02T08:11:42Z</time>
      </trkpt>
      <trkpt lat="48.28151" lon="2.59844">
        <ele>93.400001525879</ele>
        <time>2014-02-02T08:11:44Z</time>
      </trkpt>
      <trkpt lat="48.28147" lon="2.59841">
        <ele>93.800003051758</ele>
        <time>2014-02-02T08:11:45Z</time>
      </trkpt>
      <trkpt lat="48.28143" lon="2.59839">
        <ele>94.199996948242</ele>
        <time>2014-02-02T08:11:46Z</time>
      </trkpt>
      <trkpt lat="48.2814" lon="2.59837">
        <ele>94.599998474121</ele>
        <time>2014-02-02T08:11:47Z</time>
      </trkpt>
      <trkpt lat="48.28137" lon="2.59836">
        <ele>95</ele>
        <time>2014-02-02T08:11:48Z</time>
      </trkpt>
      <trkpt lat="48.28125" lon="2.59833">
        <ele>95</ele>
        <time>2014-02-02T08:11:52Z</time>
      </trkpt>
      <trkpt lat="48.28104" lon="2.59826">
        <ele>95</ele>
        <time>2014-02-02T08:11:58Z</time>
      </trkpt>
      <trkpt lat="48.28089" lon="2.59822">
        <ele>95.400001525879</ele>
        <time>2014-02-02T08:12:03Z</time>
      </trkpt>
      <trkpt lat="48.28086" lon="2.59822">
        <ele>96</ele>
        <time>2014-02-02T08:12:04Z</time>
      </trkpt>
      <trkpt lat="48.28085" lon="2.59825">
        <ele>96.400001525879</ele>
        <time>2014-02-02T08:12:05Z</time>
      </trkpt>
      <trkpt lat="48.28082" lon="2.59825">
        <ele>96.800003051758</ele>
        <time>2014-02-02T08:12:06Z</time>
      </trkpt>
      <trkpt lat="48.28078" lon="2.59825">
        <ele>97.199996948242</ele>
        <time>2014-02-02T08:12:07Z</time>
      </trkpt>
      <trkpt lat="48.28076" lon="2.59824">
        <ele>97.199996948242</ele>
        <time>2014-02-02T08:12:08Z</time>
      </trkpt>
      <trkpt lat="48.28064" lon="2.59817">
        <ele>97.199996948242</ele>
        <time>2014-02-02T08:12:13Z</time>
      </trkpt>
      <trkpt lat="48.2806" lon="2.5981">
        <ele>97.599998474121</ele>
        <time>2014-02-02T08:12:16Z</time>
      </trkpt>
      <trkpt lat="48.28058" lon="2.59806">
        <ele>98</ele>
        <time>2014-02-02T08:12:17Z</time>
      </trkpt>
      <trkpt lat="48.28056" lon="2.59804">
        <ele>98.400001525879</ele>
        <time>2014-02-02T08:12:18Z</time>
      </trkpt>
      <trkpt lat="48.28056" lon="2.59801">
        <ele>98.800003051758</ele>
        <time>2014-02-02T08:12:19Z</time>
      </trkpt>
      <trkpt lat="48.28055" lon="2.59798">
        <ele>99.400001525879</ele>
        <time>2014-02-02T08:12:20Z</time>
      </trkpt>
      <trkpt lat="48.2805" lon="2.59791">
        <ele>99.400001525879</ele>
        <time>2014-02-02T08:12:23Z</time>
      </trkpt>
      <trkpt lat="48.28045" lon="2.59779">
        <ele>99.400001525879</ele>
        <time>2014-02-02T08:12:27Z</time>
      </trkpt>
      <trkpt lat="48.28041" lon="2.59771">
        <ele>99.400001525879</ele>
        <time>2014-02-02T08:12:30Z</time>
      </trkpt>
      <trkpt lat="48.28038" lon="2.59766">
        <ele>99.800003051758</ele>
        <time>2014-02-02T08:12:32Z</time>
      </trkpt>
      <trkpt lat="48.28036" lon="2.59763">
        <ele>100.19999694824</ele>
        <time>2014-02-02T08:12:33Z</time>
      </trkpt>
      <trkpt lat="48.28033" lon="2.59759">
        <ele>100.59999847412</ele>
        <time>2014-02-02T08:12:34Z</time>
      </trkpt>
      <trkpt lat="48.28031" lon="2.59756">
        <ele>101</ele>
        <time>2014-02-02T08:12:35Z</time>
      </trkpt>
      <trkpt lat="48.2803" lon="2.59754">
        <ele>101.40000152588</ele>
        <time>2014-02-02T08:12:36Z</time>
      </trkpt>
      <trkpt lat="48.28026" lon="2.59746">
        <ele>101.40000152588</ele>
        <time>2014-02-02T08:12:39Z</time>
      </trkpt>
      <trkpt lat="48.28017" lon="2.59731">
        <ele>101.40000152588</ele>
        <time>2014-02-02T08:12:45Z</time>
      </trkpt>
      <trkpt lat="48.28011" lon="2.59716">
        <ele>101.80000305176</ele>
        <time>2014-02-02T08:12:50Z</time>
      </trkpt>
      <trkpt lat="48.28008" lon="2.59711">
        <ele>102.19999694824</ele>
        <time>2014-02-02T08:12:51Z</time>
      </trkpt>
      <trkpt lat="48.28006" lon="2.59708">
        <ele>102.59999847412</ele>
        <time>2014-02-02T08:12:52Z</time>
      </trkpt>
      <trkpt lat="48.28004" lon="2.59705">
        <ele>103</ele>
        <time>2014-02-02T08:12:53Z</time>
      </trkpt>
      <trkpt lat="48.28001" lon="2.59702">
        <ele>103.40000152588</ele>
        <time>2014-02-02T08:12:54Z</time>
      </trkpt>
      <trkpt lat="48.27993" lon="2.59693">
        <ele>103.40000152588</ele>
        <time>2014-02-02T08:12:57Z</time>
      </trkpt>
      <trkpt lat="48.27982" lon="2.5968">
        <ele>103.80000305176</ele>
        <time>2014-02-02T08:13:02Z</time>
      </trkpt>
      <trkpt lat="48.27979" lon="2.59678">
        <ele>104.40000152588</ele>
        <time>2014-02-02T08:13:03Z</time>
      </trkpt>
      <trkpt lat="48.27976" lon="2.59676">
        <ele>104.80000305176</ele>
        <time>2014-02-02T08:13:04Z</time>
      </trkpt>
      <trkpt lat="48.27974" lon="2.59672">
        <ele>105.19999694824</ele>
        <time>2014-02-02T08:13:05Z</time>
      </trkpt>
      <trkpt lat="48.27971" lon="2.59669">
        <ele>105.59999847412</ele>
        <time>2014-02-02T08:13:06Z</time>
      </trkpt>
      <trkpt lat="48.27967" lon="2.59661">
        <ele>105.59999847412</ele>
        <time>2014-02-02T08:13:09Z</time>
      </trkpt>
      <trkpt lat="48.2796" lon="2.59656">
        <ele>106</ele>
        <time>2014-02-02T08:13:12Z</time>
      </trkpt>
      <trkpt lat="48.27958" lon="2.59654">
        <ele>106.40000152588</ele>
        <time>2014-02-02T08:13:13Z</time>
      </trkpt>
      <trkpt lat="48.27957" lon="2.59652">
        <ele>106.80000305176</ele>
        <time>2014-02-02T08:13:14Z</time>
      </trkpt>
      <trkpt lat="48.27956" lon="2.5965">
        <ele>107.19999694824</ele>
        <time>2014-02-02T08:13:15Z</time>
      </trkpt>
      <trkpt lat="48.27959" lon="2.59652">
        <ele>107.59999847412</ele>
        <time>2014-02-02T08:13:16Z</time>
      </trkpt>
      <trkpt lat="48.27961" lon="2.59652">
        <ele>107.59999847412</ele>
        <time>2014-02-02T08:13:17Z</time>
      </trkpt>
      <trkpt lat="48.2796" lon="2.59649">
        <ele>107.59999847412</ele>
        <time>2014-02-02T08:13:18Z</time>
      </trkpt>
      <trkpt lat="48.27958" lon="2.59644">
        <ele>107.59999847412</ele>
        <time>2014-02-02T08:13:21Z</time>
      </trkpt>
      <trkpt lat="48.27954" lon="2.59638">
        <ele>108.19999694824</ele>
        <time>2014-02-02T08:13:25Z</time>
      </trkpt>
      <trkpt lat="48.27953" lon="2.59637">
        <ele>108.59999847412</ele>
        <time>2014-02-02T08:13:26Z</time>
      </trkpt>
      <trkpt lat="48.27951" lon="2.59634">
        <ele>109</ele>
        <time>2014-02-02T08:13:27Z</time>
      </trkpt>
      <trkpt lat="48.27948" lon="2.59633">
        <ele>109.59999847412</ele>
        <time>2014-02-02T08:13:28Z</time>
      </trkpt>
      <trkpt lat="48.27947" lon="2.59631">
        <ele>110</ele>
        <time>2014-02-02T08:13:29Z</time>
      </trkpt>
      <trkpt lat="48.27934" lon="2.59615">
        <ele>110</ele>
        <time>2014-02-02T08:13:36Z</time>
      </trkpt>
      <trkpt lat="48.27932" lon="2.5961">
        <ele>110.40000152588</ele>
        <time>2014-02-02T08:13:37Z</time>
      </trkpt>
      <trkpt lat="48.2793" lon="2.59606">
        <ele>110.80000305176</ele>
        <time>2014-02-02T08:13:38Z</time>
      </trkpt>
      <trkpt lat="48.27929" lon="2.59604">
        <ele>111.19999694824</ele>
        <time>2014-02-02T08:13:39Z</time>
      </trkpt>
      <trkpt lat="48.27928" lon="2.59602">
        <ele>111.59999847412</ele>
        <time>2014-02-02T08:13:40Z</time>
      </trkpt>
      <trkpt lat="48.27926" lon="2.59599">
        <ele>112</ele>
        <time>2014-02-02T08:13:41Z</time>
      </trkpt>
      <trkpt lat="48.27925" lon="2.59596">
        <ele>112</ele>
        <time>2014-02-02T08:13:42Z</time>
      </trkpt>
      <trkpt lat="48.27925" lon="2.59594">
        <ele>112.59999847412</ele>
        <time>2014-02-02T08:13:44Z</time>
      </trkpt>
      <trkpt lat="48.27924" lon="2.59592">
        <ele>113</ele>
        <time>2014-02-02T08:13:45Z</time>
      </trkpt>
      <trkpt lat="48.27923" lon="2.59589">
        <ele>113.40000152588</ele>
        <time>2014-02-02T08:13:46Z</time>
      </trkpt>
      <trkpt lat="48.27923" lon="2.59588">
        <ele>113.80000305176</ele>
        <time>2014-02-02T08:13:47Z</time>
      </trkpt>
      <trkpt lat="48.27922" lon="2.59586">
        <ele>114.19999694824</ele>
        <time>2014-02-02T08:13:48Z</time>
      </trkpt>
      <trkpt lat="48.27923" lon="2.59585">
        <ele>114.80000305176</ele>
        <time>2014-02-02T08:13:51Z</time>
      </trkpt>
      <trkpt lat="48.27922" lon="2.59585">
        <ele>115.19999694824</ele>
        <time>2014-02-02T08:13:52Z</time>
      </trkpt>
      <trkpt lat="48.27923" lon="2.59583">
        <ele>115.59999847412</ele>
        <time>2014-02-02T08:13:53Z</time>
      </trkpt>
      <trkpt lat="48.27923" lon="2.59581">
        <ele>116</ele>
        <time>2014-02-02T08:13:54Z</time>
      </trkpt>
      <trkpt lat="48.27923" lon="2.5958">
        <ele>116.40000152588</ele>
        <time>2014-02-02T08:13:55Z</time>
      </trkpt>
      <trkpt lat="48.27921" lon="2.59576">
        <ele>116.80000305176</ele>
        <time>2014-02-02T08:13:58Z</time>
      </trkpt>
      <trkpt lat="48.27921" lon="2.59574">
        <ele>117.40000152588</ele>
        <time>2014-02-02T08:13:59Z</time>
      </trkpt>
      <trkpt lat="48.27921" lon="2.59573">
        <ele>117.80000305176</ele>
        <time>2014-02-02T08:14:00Z</time>
      </trkpt>
      <trkpt lat="48.27921" lon="2.59571">
        <ele>118.19999694824</ele>
        <time>2014-02-02T08:14:01Z</time>
      </trkpt>
      <trkpt lat="48.2792" lon="2.59569">
        <ele>118.59999847412</ele>
        <time>2014-02-02T08:14:02Z</time>
      </trkpt>
      <trkpt lat="48.2792" lon="2.59567">
        <ele>118.59999847412</ele>
        <time>2014-02-02T08:14:03Z</time>
      </trkpt>
      <trkpt lat="48.27915" lon="2.59555">
        <ele>119</ele>
        <time>2014-02-02T08:14:09Z</time>
      </trkpt>
      <trkpt lat="48.27914" lon="2.59552">
        <ele>119.40000152588</ele>
        <time>2014-02-02T08:14:10Z</time>
      </trkpt>
      <trkpt lat="48.27914" lon="2.5955">
        <ele>119.80000305176</ele>
        <time>2014-02-02T08:14:11Z</time>
      </trkpt>
      <trkpt lat="48.27914" lon="2.59548">
        <ele>120.19999694824</ele>
        <time>2014-02-02T08:14:12Z</time>
      </trkpt>
      <trkpt lat="48.27913" lon="2.59546">
        <ele>120.59999847412</ele>
        <time>2014-02-02T08:14:13Z</time>
      </trkpt>
      <trkpt lat="48.27912" lon="2.59545">
        <ele>120.59999847412</ele>
        <time>2014-02-02T08:14:16Z</time>
      </trkpt>
      <trkpt lat="48.27903" lon="2.59546">
        <ele>121</ele>
        <time>2014-02-02T08:14:23Z</time>
      </trkpt>
      <trkpt lat="48.27902" lon="2.59545">
        <ele>121.40000152588</ele>
        <time>2014-02-02T08:14:24Z</time>
      </trkpt>
      <trkpt lat="48.27901" lon="2.59542">
        <ele>121.80000305176</ele>
        <time>2014-02-02T08:14:25Z</time>
      </trkpt>
      <trkpt lat="48.279" lon="2.59539">
        <ele>122.19999694824</ele>
        <time>2014-02-02T08:14:26Z</time>
      </trkpt>
      <trkpt lat="48.27898" lon="2.59537">
        <ele>122.59999847412</ele>
        <time>2014-02-02T08:14:27Z</time>
      </trkpt>
      <trkpt lat="48.27893" lon="2.5953">
        <ele>122.59999847412</ele>
        <time>2014-02-02T08:14:31Z</time>
      </trkpt>
      <trkpt lat="48.27894" lon="2.59538">
        <ele>122.59999847412</ele>
        <time>2014-02-02T08:14:37Z</time>
      </trkpt>
      <trkpt lat="48.27894" lon="2.5954">
        <ele>123.19999694824</ele>
        <time>2014-02-02T08:14:38Z</time>
      </trkpt>
      <trkpt lat="48.27894" lon="2.5954">
        <ele>123.59999847412</ele>
        <time>2014-02-02T08:14:39Z</time>
      </trkpt>
      <trkpt lat="48.27893" lon="2.5954">
        <ele>124</ele>
        <time>2014-02-02T08:14:40Z</time>
      </trkpt>
      <trkpt lat="48.27894" lon="2.59543">
        <ele>124.40000152588</ele>
        <time>2014-02-02T08:14:41Z</time>
      </trkpt>
      <trkpt lat="48.27893" lon="2.59546">
        <ele>125</ele>
        <time>2014-02-02T08:14:42Z</time>
      </trkpt>
      <trkpt lat="48.27892" lon="2.59556">
        <ele>125</ele>
        <time>2014-02-02T08:14:45Z</time>
      </trkpt>
      <trkpt lat="48.27888" lon="2.59573">
        <ele>125</ele>
        <time>2014-02-02T08:14:51Z</time>
      </trkpt>
      <trkpt lat="48.27891" lon="2.59582">
        <ele>125</ele>
        <time>2014-02-02T08:14:55Z</time>
      </trkpt>
      <trkpt lat="48.27893" lon="2.59582">
        <ele>125</ele>
        <time>2014-02-02T08:15:31Z</time>
      </trkpt>
      <trkpt lat="48.27892" lon="2.59582">
        <ele>124.59999847412</ele>
        <time>2014-02-02T08:15:37Z</time>
      </trkpt>
      <trkpt lat="48.2789" lon="2.59585">
        <ele>124.19999694824</ele>
        <time>2014-02-02T08:15:38Z</time>
      </trkpt>
      <trkpt lat="48.27888" lon="2.59587">
        <ele>123.40000152588</ele>
        <time>2014-02-02T08:15:39Z</time>
      </trkpt>
      <trkpt lat="48.27883" lon="2.59595">
        <ele>122.80000305176</ele>
        <time>2014-02-02T08:15:40Z</time>
      </trkpt>
      <trkpt lat="48.27882" lon="2.59601">
        <ele>122.19999694824</ele>
        <time>2014-02-02T08:15:41Z</time>
      </trkpt>
      <trkpt lat="48.2788" lon="2.59606">
        <ele>121.40000152588</ele>
        <time>2014-02-02T08:15:42Z</time>
      </trkpt>
      <trkpt lat="48.27879" lon="2.5961">
        <ele>120.80000305176</ele>
        <time>2014-02-02T08:15:43Z</time>
      </trkpt>
      <trkpt lat="48.27877" lon="2.59613">
        <ele>120.80000305176</ele>
        <time>2014-02-02T08:15:44Z</time>
      </trkpt>
      <trkpt lat="48.27868" lon="2.5963">
        <ele>120.40000152588</ele>
        <time>2014-02-02T08:15:49Z</time>
      </trkpt>
      <trkpt lat="48.27868" lon="2.59635">
        <ele>120</ele>
        <time>2014-02-02T08:15:50Z</time>
      </trkpt>
      <trkpt lat="48.27868" lon="2.59638">
        <ele>119.59999847412</ele>
        <time>2014-02-02T08:15:51Z</time>
      </trkpt>
      <trkpt lat="48.27868" lon="2.59641">
        <ele>119.19999694824</ele>
        <time>2014-02-02T08:15:52Z</time>
      </trkpt>
      <trkpt lat="48.27866" lon="2.59644">
        <ele>118.80000305176</ele>
        <time>2014-02-02T08:15:53Z</time>
      </trkpt>
      <trkpt lat="48.27863" lon="2.59657">
        <ele>118.80000305176</ele>
        <time>2014-02-02T08:15:57Z</time>
      </trkpt>
      <trkpt lat="48.27855" lon="2.59672">
        <ele>118.80000305176</ele>
        <time>2014-02-02T08:16:03Z</time>
      </trkpt>
      <trkpt lat="48.2785" lon="2.59684">
        <ele>118.80000305176</ele>
        <time>2014-02-02T08:16:08Z</time>
      </trkpt>
      <trkpt lat="48.27848" lon="2.59684">
        <ele>119.19999694824</ele>
        <time>2014-02-02T08:16:09Z</time>
      </trkpt>
      <trkpt lat="48.27847" lon="2.59683">
        <ele>119.80000305176</ele>
        <time>2014-02-02T08:16:10Z</time>
      </trkpt>
      <trkpt lat="48.27846" lon="2.59685">
        <ele>120.19999694824</ele>
        <time>2014-02-02T08:16:11Z</time>
      </trkpt>
      <trkpt lat="48.27845" lon="2.59685">
        <ele>120.59999847412</ele>
        <time>2014-02-02T08:16:12Z</time>
      </trkpt>
      <trkpt lat="48.27843" lon="2.59685">
        <ele>121.19999694824</ele>
        <time>2014-02-02T08:16:13Z</time>
      </trkpt>
      <trkpt lat="48.27837" lon="2.59684">
        <ele>121.19999694824</ele>
        <time>2014-02-02T08:16:23Z</time>
      </trkpt>
      <trkpt lat="48.27831" lon="2.59679">
        <ele>120.59999847412</ele>
        <time>2014-02-02T08:16:27Z</time>
      </trkpt>
      <trkpt lat="48.27827" lon="2.59677">
        <ele>120</ele>
        <time>2014-02-02T08:16:28Z</time>
      </trkpt>
      <trkpt lat="48.27823" lon="2.59676">
        <ele>119.40000152588</ele>
        <time>2014-02-02T08:16:29Z</time>
      </trkpt>
      <trkpt lat="48.27823" lon="2.59676">
        <ele>119</ele>
        <time>2014-02-02T08:16:30Z</time>
      </trkpt>
      <trkpt lat="48.27822" lon="2.59677">
        <ele>118.40000152588</ele>
        <time>2014-02-02T08:16:31Z</time>
      </trkpt>
      <trkpt lat="48.27822" lon="2.59678">
        <ele>118.40000152588</ele>
        <time>2014-02-02T08:16:32Z</time>
      </trkpt>
      <trkpt lat="48.27818" lon="2.59681">
        <ele>118.40000152588</ele>
        <time>2014-02-02T08:16:45Z</time>
      </trkpt>
      <trkpt lat="48.27819" lon="2.59684">
        <ele>118.40000152588</ele>
        <time>2014-02-02T08:16:46Z</time>
      </trkpt>
      <trkpt lat="48.27818" lon="2.59692">
        <ele>118.40000152588</ele>
        <time>2014-02-02T08:16:52Z</time>
      </trkpt>
      <trkpt lat="48.27818" lon="2.59706">
        <ele>118.40000152588</ele>
        <time>2014-02-02T08:17:00Z</time>
      </trkpt>
      <trkpt lat="48.27818" lon="2.59727">
        <ele>118.40000152588</ele>
        <time>2014-02-02T08:17:05Z</time>
      </trkpt>
      <trkpt lat="48.27822" lon="2.59743">
        <ele>118.40000152588</ele>
        <time>2014-02-02T08:17:09Z</time>
      </trkpt>
      <trkpt lat="48.27825" lon="2.59748">
        <ele>118.40000152588</ele>
        <time>2014-02-02T08:17:11Z</time>
      </trkpt>
      <trkpt lat="48.27834" lon="2.59756">
        <ele>118.40000152588</ele>
        <time>2014-02-02T08:17:15Z</time>
      </trkpt>
      <trkpt lat="48.27828" lon="2.59766">
        <ele>118.40000152588</ele>
        <time>2014-02-02T08:17:19Z</time>
      </trkpt>
      <trkpt lat="48.27826" lon="2.59767">
        <ele>118.40000152588</ele>
        <time>2014-02-02T08:17:20Z</time>
      </trkpt>
      <trkpt lat="48.27821" lon="2.59778">
        <ele>118.40000152588</ele>
        <time>2014-02-02T08:17:25Z</time>
      </trkpt>
      <trkpt lat="48.27821" lon="2.59784">
        <ele>118.40000152588</ele>
        <time>2014-02-02T08:17:30Z</time>
      </trkpt>
      <trkpt lat="48.27818" lon="2.59795">
        <ele>118.40000152588</ele>
        <time>2014-02-02T08:17:36Z</time>
      </trkpt>
      <trkpt lat="48.27818" lon="2.59796">
        <ele>118.40000152588</ele>
        <time>2014-02-02T08:17:37Z</time>
      </trkpt>
      <trkpt lat="48.27821" lon="2.59795">
        <ele>118.40000152588</ele>
        <time>2014-02-02T08:17:40Z</time>
      </trkpt>
      <trkpt lat="48.27826" lon="2.59793">
        <ele>118.40000152588</ele>
        <time>2014-02-02T08:17:43Z</time>
      </trkpt>
      <trkpt lat="48.27827" lon="2.59794">
        <ele>118.40000152588</ele>
        <time>2014-02-02T08:17:44Z</time>
      </trkpt>
      <trkpt lat="48.27831" lon="2.59802">
        <ele>118.40000152588</ele>
        <time>2014-02-02T08:17:48Z</time>
      </trkpt>
      <trkpt lat="48.27829" lon="2.59804">
        <ele>118.80000305176</ele>
        <time>2014-02-02T08:17:49Z</time>
      </trkpt>
      <trkpt lat="48.27828" lon="2.59808">
        <ele>119.19999694824</ele>
        <time>2014-02-02T08:17:50Z</time>
      </trkpt>
      <trkpt lat="48.27827" lon="2.5981">
        <ele>119.59999847412</ele>
        <time>2014-02-02T08:17:51Z</time>
      </trkpt>
      <trkpt lat="48.27826" lon="2.59812">
        <ele>120</ele>
        <time>2014-02-02T08:17:52Z</time>
      </trkpt>
      <trkpt lat="48.27826" lon="2.59814">
        <ele>120.40000152588</ele>
        <time>2014-02-02T08:17:53Z</time>
      </trkpt>
      <trkpt lat="48.27821" lon="2.59827">
        <ele>120.80000305176</ele>
        <time>2014-02-02T08:17:59Z</time>
      </trkpt>
      <trkpt lat="48.27821" lon="2.59828">
        <ele>121.40000152588</ele>
        <time>2014-02-02T08:18:00Z</time>
      </trkpt>
      <trkpt lat="48.27821" lon="2.5983">
        <ele>121.80000305176</ele>
        <time>2014-02-02T08:18:01Z</time>
      </trkpt>
      <trkpt lat="48.27822" lon="2.59832">
        <ele>122.19999694824</ele>
        <time>2014-02-02T08:18:02Z</time>
      </trkpt>
      <trkpt lat="48.27822" lon="2.59832">
        <ele>122.80000305176</ele>
        <time>2014-02-02T08:18:03Z</time>
      </trkpt>
      <trkpt lat="48.27821" lon="2.59834">
        <ele>123.19999694824</ele>
        <time>2014-02-02T08:18:06Z</time>
      </trkpt>
      <trkpt lat="48.27821" lon="2.59835">
        <ele>123.59999847412</ele>
        <time>2014-02-02T08:18:07Z</time>
      </trkpt>
      <trkpt lat="48.27821" lon="2.59836">
        <ele>124</ele>
        <time>2014-02-02T08:18:08Z</time>
      </trkpt>
      <trkpt lat="48.27821" lon="2.59837">
        <ele>124.40000152588</ele>
        <time>2014-02-02T08:18:09Z</time>
      </trkpt>
      <trkpt lat="48.27821" lon="2.59838">
        <ele>124.80000305176</ele>
        <time>2014-02-02T08:18:10Z</time>
      </trkpt>
      <trkpt lat="48.27822" lon="2.59841">
        <ele>124.80000305176</ele>
        <time>2014-02-02T08:18:16Z</time>
      </trkpt>
      <trkpt lat="48.27828" lon="2.59843">
        <ele>124.80000305176</ele>
        <time>2014-02-02T08:18:23Z</time>
      </trkpt>
      <trkpt lat="48.27834" lon="2.59827">
        <ele>124.80000305176</ele>
        <time>2014-02-02T08:18:30Z</time>
      </trkpt>
      <trkpt lat="48.27844" lon="2.59808">
        <ele>124.80000305176</ele>
        <time>2014-02-02T08:18:38Z</time>
      </trkpt>
      <trkpt lat="48.27857" lon="2.59805">
        <ele>124.80000305176</ele>
        <time>2014-02-02T08:18:43Z</time>
      </trkpt>
      <trkpt lat="48.27864" lon="2.59813">
        <ele>124.80000305176</ele>
        <time>2014-02-02T08:18:47Z</time>
      </trkpt>
      <trkpt lat="48.27868" lon="2.5982">
        <ele>124.80000305176</ele>
        <time>2014-02-02T08:18:49Z</time>
      </trkpt>
      <trkpt lat="48.27869" lon="2.59826">
        <ele>124.80000305176</ele>
        <time>2014-02-02T08:18:52Z</time>
      </trkpt>
      <trkpt lat="48.27877" lon="2.59848">
        <ele>124.80000305176</ele>
        <time>2014-02-02T08:18:58Z</time>
      </trkpt>
      <trkpt lat="48.27879" lon="2.59856">
        <ele>125.19999694824</ele>
        <time>2014-02-02T08:19:01Z</time>
      </trkpt>
      <trkpt lat="48.27879" lon="2.59859">
        <ele>125.80000305176</ele>
        <time>2014-02-02T08:19:02Z</time>
      </trkpt>
      <trkpt lat="48.27879" lon="2.5986">
        <ele>126.19999694824</ele>
        <time>2014-02-02T08:19:03Z</time>
      </trkpt>
      <trkpt lat="48.27878" lon="2.59862">
        <ele>126.59999847412</ele>
        <time>2014-02-02T08:19:04Z</time>
      </trkpt>
      <trkpt lat="48.27878" lon="2.59864">
        <ele>127.19999694824</ele>
        <time>2014-02-02T08:19:05Z</time>
      </trkpt>
      <trkpt lat="48.27879" lon="2.59871">
        <ele>127.59999847412</ele>
        <time>2014-02-02T08:19:08Z</time>
      </trkpt>
      <trkpt lat="48.27878" lon="2.59872">
        <ele>128</ele>
        <time>2014-02-02T08:19:09Z</time>
      </trkpt>
      <trkpt lat="48.27877" lon="2.59872">
        <ele>128.60000610352</ele>
        <time>2014-02-02T08:19:10Z</time>
      </trkpt>
      <trkpt lat="48.27876" lon="2.59872">
        <ele>129</ele>
        <time>2014-02-02T08:19:11Z</time>
      </trkpt>
      <trkpt lat="48.27873" lon="2.59868">
        <ele>129.39999389648</ele>
        <time>2014-02-02T08:19:12Z</time>
      </trkpt>
      <trkpt lat="48.27865" lon="2.59867">
        <ele>129.39999389648</ele>
        <time>2014-02-02T08:19:20Z</time>
      </trkpt>
      <trkpt lat="48.27865" lon="2.59875">
        <ele>129.39999389648</ele>
        <time>2014-02-02T08:19:24Z</time>
      </trkpt>
      <trkpt lat="48.27867" lon="2.59882">
        <ele>129.39999389648</ele>
        <time>2014-02-02T08:19:26Z</time>
      </trkpt>
      <trkpt lat="48.27868" lon="2.59884">
        <ele>129.39999389648</ele>
        <time>2014-02-02T08:19:27Z</time>
      </trkpt>
      <trkpt lat="48.27869" lon="2.59908">
        <ele>129.39999389648</ele>
        <time>2014-02-02T08:19:35Z</time>
      </trkpt>
      <trkpt lat="48.2787" lon="2.59931">
        <ele>129.39999389648</ele>
        <time>2014-02-02T08:19:42Z</time>
      </trkpt>
      <trkpt lat="48.27874" lon="2.59933">
        <ele>129.39999389648</ele>
        <time>2014-02-02T08:19:44Z</time>
      </trkpt>
      <trkpt lat="48.27877" lon="2.59934">
        <ele>129.39999389648</ele>
        <time>2014-02-02T08:19:46Z</time>
      </trkpt>
      <trkpt lat="48.27892" lon="2.59943">
        <ele>129.39999389648</ele>
        <time>2014-02-02T08:19:52Z</time>
      </trkpt>
      <trkpt lat="48.27893" lon="2.59937">
        <ele>129.39999389648</ele>
        <time>2014-02-02T08:19:55Z</time>
      </trkpt>
      <trkpt lat="48.27892" lon="2.59933">
        <ele>129.39999389648</ele>
        <time>2014-02-02T08:19:56Z</time>
      </trkpt>
      <trkpt lat="48.27892" lon="2.59927">
        <ele>129</ele>
        <time>2014-02-02T08:19:59Z</time>
      </trkpt>
      <trkpt lat="48.27893" lon="2.59927">
        <ele>128.60000610352</ele>
        <time>2014-02-02T08:20:00Z</time>
      </trkpt>
      <trkpt lat="48.27894" lon="2.59923">
        <ele>128.19999694824</ele>
        <time>2014-02-02T08:20:01Z</time>
      </trkpt>
      <trkpt lat="48.27894" lon="2.59921">
        <ele>127.59999847412</ele>
        <time>2014-02-02T08:20:02Z</time>
      </trkpt>
      <trkpt lat="48.27895" lon="2.59919">
        <ele>127</ele>
        <time>2014-02-02T08:20:03Z</time>
      </trkpt>
      <trkpt lat="48.27895" lon="2.59918">
        <ele>126.40000152588</ele>
        <time>2014-02-02T08:20:04Z</time>
      </trkpt>
      <trkpt lat="48.27895" lon="2.59914">
        <ele>125.59999847412</ele>
        <time>2014-02-02T08:20:05Z</time>
      </trkpt>
      <trkpt lat="48.27896" lon="2.59911">
        <ele>124.80000305176</ele>
        <time>2014-02-02T08:20:06Z</time>
      </trkpt>
      <trkpt lat="48.27896" lon="2.59905">
        <ele>123.59999847412</ele>
        <time>2014-02-02T08:20:07Z</time>
      </trkpt>
      <trkpt lat="48.27896" lon="2.59898">
        <ele>122.40000152588</ele>
        <time>2014-02-02T08:20:08Z</time>
      </trkpt>
      <trkpt lat="48.27896" lon="2.59893">
        <ele>121</ele>
        <time>2014-02-02T08:20:09Z</time>
      </trkpt>
      <trkpt lat="48.27896" lon="2.59888">
        <ele>119.80000305176</ele>
        <time>2014-02-02T08:20:10Z</time>
      </trkpt>
      <trkpt lat="48.27897" lon="2.59885">
        <ele>118.40000152588</ele>
        <time>2014-02-02T08:20:11Z</time>
      </trkpt>
      <trkpt lat="48.27899" lon="2.59883">
        <ele>117</ele>
        <time>2014-02-02T08:20:12Z</time>
      </trkpt>
      <trkpt lat="48.27901" lon="2.59881">
        <ele>116.19999694824</ele>
        <time>2014-02-02T08:20:13Z</time>
      </trkpt>
      <trkpt lat="48.27903" lon="2.5988">
        <ele>115.40000152588</ele>
        <time>2014-02-02T08:20:14Z</time>
      </trkpt>
      <trkpt lat="48.27906" lon="2.59884">
        <ele>114.59999847412</ele>
        <time>2014-02-02T08:20:15Z</time>
      </trkpt>
      <trkpt lat="48.27909" lon="2.59887">
        <ele>113.80000305176</ele>
        <time>2014-02-02T08:20:16Z</time>
      </trkpt>
      <trkpt lat="48.27913" lon="2.59888">
        <ele>113</ele>
        <time>2014-02-02T08:20:17Z</time>
      </trkpt>
      <trkpt lat="48.27917" lon="2.59891">
        <ele>112</ele>
        <time>2014-02-02T08:20:18Z</time>
      </trkpt>
      <trkpt lat="48.2792" lon="2.59892">
        <ele>111</ele>
        <time>2014-02-02T08:20:19Z</time>
      </trkpt>
      <trkpt lat="48.27922" lon="2.59891">
        <ele>110.19999694824</ele>
        <time>2014-02-02T08:20:20Z</time>
      </trkpt>
      <trkpt lat="48.27925" lon="2.5989">
        <ele>109.19999694824</ele>
        <time>2014-02-02T08:20:21Z</time>
      </trkpt>
      <trkpt lat="48.27929" lon="2.59889">
        <ele>108.40000152588</ele>
        <time>2014-02-02T08:20:22Z</time>
      </trkpt>
      <trkpt lat="48.27936" lon="2.59886">
        <ele>107.59999847412</ele>
        <time>2014-02-02T08:20:23Z</time>
      </trkpt>
      <trkpt lat="48.27943" lon="2.59885">
        <ele>106.59999847412</ele>
        <time>2014-02-02T08:20:24Z</time>
      </trkpt>
      <trkpt lat="48.27948" lon="2.59886">
        <ele>105.80000305176</ele>
        <time>2014-02-02T08:20:25Z</time>
      </trkpt>
      <trkpt lat="48.27953" lon="2.59885">
        <ele>104.80000305176</ele>
        <time>2014-02-02T08:20:26Z</time>
      </trkpt>
      <trkpt lat="48.27958" lon="2.59886">
        <ele>103.80000305176</ele>
        <time>2014-02-02T08:20:27Z</time>
      </trkpt>
      <trkpt lat="48.27962" lon="2.59885">
        <ele>102.80000305176</ele>
        <time>2014-02-02T08:20:28Z</time>
      </trkpt>
      <trkpt lat="48.27969" lon="2.59886">
        <ele>102</ele>
        <time>2014-02-02T08:20:29Z</time>
      </trkpt>
      <trkpt lat="48.27975" lon="2.59886">
        <ele>101.19999694824</ele>
        <time>2014-02-02T08:20:30Z</time>
      </trkpt>
      <trkpt lat="48.27982" lon="2.59885">
        <ele>100.19999694824</ele>
        <time>2014-02-02T08:20:31Z</time>
      </trkpt>
      <trkpt lat="48.27987" lon="2.59882">
        <ele>99.400001525879</ele>
        <time>2014-02-02T08:20:32Z</time>
      </trkpt>
      <trkpt lat="48.27992" lon="2.59882">
        <ele>98.599998474121</ele>
        <time>2014-02-02T08:20:33Z</time>
      </trkpt>
      <trkpt lat="48.28007" lon="2.59884">
        <ele>98.599998474121</ele>
        <time>2014-02-02T08:20:36Z</time>
      </trkpt>
      <trkpt lat="48.28022" lon="2.59887">
        <ele>98.199996948242</ele>
        <time>2014-02-02T08:20:39Z</time>
      </trkpt>
      <trkpt lat="48.28028" lon="2.59889">
        <ele>97.599998474121</ele>
        <time>2014-02-02T08:20:40Z</time>
      </trkpt>
      <trkpt lat="48.28034" lon="2.5989">
        <ele>97.199996948242</ele>
        <time>2014-02-02T08:20:41Z</time>
      </trkpt>
      <trkpt lat="48.28039" lon="2.59893">
        <ele>96.599998474121</ele>
        <time>2014-02-02T08:20:42Z</time>
      </trkpt>
      <trkpt lat="48.28046" lon="2.59894">
        <ele>96.199996948242</ele>
        <time>2014-02-02T08:20:43Z</time>
      </trkpt>
      <trkpt lat="48.2807" lon="2.59909">
        <ele>96.199996948242</ele>
        <time>2014-02-02T08:20:48Z</time>
      </trkpt>
      <trkpt lat="48.28074" lon="2.59913">
        <ele>95.800003051758</ele>
        <time>2014-02-02T08:20:49Z</time>
      </trkpt>
      <trkpt lat="48.28078" lon="2.59916">
        <ele>95.400001525879</ele>
        <time>2014-02-02T08:20:50Z</time>
      </trkpt>
      <trkpt lat="48.2808" lon="2.5992">
        <ele>95</ele>
        <time>2014-02-02T08:20:51Z</time>
      </trkpt>
      <trkpt lat="48.28083" lon="2.59925">
        <ele>94.599998474121</ele>
        <time>2014-02-02T08:20:52Z</time>
      </trkpt>
      <trkpt lat="48.28084" lon="2.59932">
        <ele>94.199996948242</ele>
        <time>2014-02-02T08:20:53Z</time>
      </trkpt>
      <trkpt lat="48.28082" lon="2.59969">
        <ele>94.199996948242</ele>
        <time>2014-02-02T08:20:58Z</time>
      </trkpt>
      <trkpt lat="48.2808" lon="2.59983">
        <ele>94.199996948242</ele>
        <time>2014-02-02T08:21:01Z</time>
      </trkpt>
      <trkpt lat="48.28066" lon="2.60005">
        <ele>94.199996948242</ele>
        <time>2014-02-02T08:21:06Z</time>
      </trkpt>
      <trkpt lat="48.28059" lon="2.60011">
        <ele>94.199996948242</ele>
        <time>2014-02-02T08:21:08Z</time>
      </trkpt>
      <trkpt lat="48.28052" lon="2.60018">
        <ele>94.199996948242</ele>
        <time>2014-02-02T08:21:10Z</time>
      </trkpt>
      <trkpt lat="48.28038" lon="2.60035">
        <ele>94.199996948242</ele>
        <time>2014-02-02T08:21:16Z</time>
      </trkpt>
      <trkpt lat="48.28018" lon="2.60059">
        <ele>94.199996948242</ele>
        <time>2014-02-02T08:21:24Z</time>
      </trkpt>
      <trkpt lat="48.28001" lon="2.60082">
        <ele>94.199996948242</ele>
        <time>2014-02-02T08:21:31Z</time>
      </trkpt>
      <trkpt lat="48.27994" lon="2.60089">
        <ele>94.599998474121</ele>
        <time>2014-02-02T08:21:33Z</time>
      </trkpt>
      <trkpt lat="48.27991" lon="2.60093">
        <ele>95</ele>
        <time>2014-02-02T08:21:34Z</time>
      </trkpt>
      <trkpt lat="48.27989" lon="2.60097">
        <ele>95.400001525879</ele>
        <time>2014-02-02T08:21:35Z</time>
      </trkpt>
      <trkpt lat="48.27986" lon="2.601">
        <ele>95.800003051758</ele>
        <time>2014-02-02T08:21:36Z</time>
      </trkpt>
      <trkpt lat="48.27983" lon="2.60104">
        <ele>96.199996948242</ele>
        <time>2014-02-02T08:21:37Z</time>
      </trkpt>
      <trkpt lat="48.27978" lon="2.6011">
        <ele>96.199996948242</ele>
        <time>2014-02-02T08:21:39Z</time>
      </trkpt>
      <trkpt lat="48.27972" lon="2.60115">
        <ele>96.199996948242</ele>
        <time>2014-02-02T08:21:41Z</time>
      </trkpt>
      <trkpt lat="48.2796" lon="2.60128">
        <ele>96.199996948242</ele>
        <time>2014-02-02T08:21:46Z</time>
      </trkpt>
      <trkpt lat="48.27954" lon="2.60132">
        <ele>96.800003051758</ele>
        <time>2014-02-02T08:21:48Z</time>
      </trkpt>
      <trkpt lat="48.27953" lon="2.60133">
        <ele>97.199996948242</ele>
        <time>2014-02-02T08:21:49Z</time>
      </trkpt>
      <trkpt lat="48.27951" lon="2.60135">
        <ele>97.599998474121</ele>
        <time>2014-02-02T08:21:50Z</time>
      </trkpt>
      <trkpt lat="48.27948" lon="2.60138">
        <ele>98</ele>
        <time>2014-02-02T08:21:51Z</time>
      </trkpt>
      <trkpt lat="48.27947" lon="2.60142">
        <ele>98.599998474121</ele>
        <time>2014-02-02T08:21:52Z</time>
      </trkpt>
      <trkpt lat="48.27937" lon="2.60152">
        <ele>98.599998474121</ele>
        <time>2014-02-02T08:21:57Z</time>
      </trkpt>
      <trkpt lat="48.27923" lon="2.60163">
        <ele>98.599998474121</ele>
        <time>2014-02-02T08:22:03Z</time>
      </trkpt>
      <trkpt lat="48.27921" lon="2.60164">
        <ele>99</ele>
        <time>2014-02-02T08:22:04Z</time>
      </trkpt>
      <trkpt lat="48.27919" lon="2.60166">
        <ele>99.400001525879</ele>
        <time>2014-02-02T08:22:05Z</time>
      </trkpt>
      <trkpt lat="48.27917" lon="2.60166">
        <ele>99.800003051758</ele>
        <time>2014-02-02T08:22:06Z</time>
      </trkpt>
      <trkpt lat="48.27915" lon="2.60167">
        <ele>100.19999694824</ele>
        <time>2014-02-02T08:22:07Z</time>
      </trkpt>
      <trkpt lat="48.27913" lon="2.60167">
        <ele>100.80000305176</ele>
        <time>2014-02-02T08:22:08Z</time>
      </trkpt>
      <trkpt lat="48.27911" lon="2.60167">
        <ele>100.80000305176</ele>
        <time>2014-02-02T08:22:09Z</time>
      </trkpt>
      <trkpt lat="48.27903" lon="2.60167">
        <ele>101.19999694824</ele>
        <time>2014-02-02T08:22:13Z</time>
      </trkpt>
      <trkpt lat="48.279" lon="2.60168">
        <ele>101.59999847412</ele>
        <time>2014-02-02T08:22:14Z</time>
      </trkpt>
      <trkpt lat="48.27898" lon="2.60168">
        <ele>102</ele>
        <time>2014-02-02T08:22:15Z</time>
      </trkpt>
      <trkpt lat="48.27897" lon="2.60168">
        <ele>102.40000152588</ele>
        <time>2014-02-02T08:22:16Z</time>
      </trkpt>
      <trkpt lat="48.27895" lon="2.60169">
        <ele>103</ele>
        <time>2014-02-02T08:22:17Z</time>
      </trkpt>
      <trkpt lat="48.2788" lon="2.60171">
        <ele>103</ele>
        <time>2014-02-02T08:22:24Z</time>
      </trkpt>
      <trkpt lat="48.27867" lon="2.60173">
        <ele>103</ele>
        <time>2014-02-02T08:22:30Z</time>
      </trkpt>
      <trkpt lat="48.27863" lon="2.60173">
        <ele>103.40000152588</ele>
        <time>2014-02-02T08:22:32Z</time>
      </trkpt>
      <trkpt lat="48.27859" lon="2.60172">
        <ele>103.80000305176</ele>
        <time>2014-02-02T08:22:33Z</time>
      </trkpt>
      <trkpt lat="48.27857" lon="2.60171">
        <ele>104.19999694824</ele>
        <time>2014-02-02T08:22:34Z</time>
      </trkpt>
      <trkpt lat="48.27855" lon="2.60172">
        <ele>104.59999847412</ele>
        <time>2014-02-02T08:22:35Z</time>
      </trkpt>
      <trkpt lat="48.27853" lon="2.60173">
        <ele>105</ele>
        <time>2014-02-02T08:22:36Z</time>
      </trkpt>
      <trkpt lat="48.27848" lon="2.60174">
        <ele>105</ele>
        <time>2014-02-02T08:22:38Z</time>
      </trkpt>
      <trkpt lat="48.27833" lon="2.60178">
        <ele>105.40000152588</ele>
        <time>2014-02-02T08:22:44Z</time>
      </trkpt>
      <trkpt lat="48.27831" lon="2.60178">
        <ele>105.80000305176</ele>
        <time>2014-02-02T08:22:45Z</time>
      </trkpt>
      <trkpt lat="48.27828" lon="2.60179">
        <ele>106.19999694824</ele>
        <time>2014-02-02T08:22:46Z</time>
      </trkpt>
      <trkpt lat="48.27826" lon="2.6018">
        <ele>106.80000305176</ele>
        <time>2014-02-02T08:22:47Z</time>
      </trkpt>
      <trkpt lat="48.27823" lon="2.60181">
        <ele>107.19999694824</ele>
        <time>2014-02-02T08:22:48Z</time>
      </trkpt>
      <trkpt lat="48.27808" lon="2.60188">
        <ele>107.59999847412</ele>
        <time>2014-02-02T08:22:55Z</time>
      </trkpt>
      <trkpt lat="48.27806" lon="2.60189">
        <ele>108</ele>
        <time>2014-02-02T08:22:56Z</time>
      </trkpt>
      <trkpt lat="48.27804" lon="2.6019">
        <ele>108.40000152588</ele>
        <time>2014-02-02T08:22:57Z</time>
      </trkpt>
      <trkpt lat="48.27803" lon="2.60191">
        <ele>109</ele>
        <time>2014-02-02T08:22:58Z</time>
      </trkpt>
      <trkpt lat="48.27801" lon="2.60192">
        <ele>109.40000152588</ele>
        <time>2014-02-02T08:22:59Z</time>
      </trkpt>
      <trkpt lat="48.27797" lon="2.60195">
        <ele>109.40000152588</ele>
        <time>2014-02-02T08:23:02Z</time>
      </trkpt>
      <trkpt lat="48.27795" lon="2.60197">
        <ele>109.80000305176</ele>
        <time>2014-02-02T08:23:04Z</time>
      </trkpt>
      <trkpt lat="48.27794" lon="2.60197">
        <ele>110.19999694824</ele>
        <time>2014-02-02T08:23:05Z</time>
      </trkpt>
      <trkpt lat="48.27793" lon="2.60197">
        <ele>110.59999847412</ele>
        <time>2014-02-02T08:23:06Z</time>
      </trkpt>
      <trkpt lat="48.27792" lon="2.60197">
        <ele>111</ele>
        <time>2014-02-02T08:23:07Z</time>
      </trkpt>
      <trkpt lat="48.2779" lon="2.60196">
        <ele>111.59999847412</ele>
        <time>2014-02-02T08:23:08Z</time>
      </trkpt>
      <trkpt lat="48.27782" lon="2.602">
        <ele>112</ele>
        <time>2014-02-02T08:23:13Z</time>
      </trkpt>
      <trkpt lat="48.27781" lon="2.602">
        <ele>112.40000152588</ele>
        <time>2014-02-02T08:23:14Z</time>
      </trkpt>
      <trkpt lat="48.27779" lon="2.602">
        <ele>112.80000305176</ele>
        <time>2014-02-02T08:23:15Z</time>
      </trkpt>
      <trkpt lat="48.27776" lon="2.60201">
        <ele>113.19999694824</ele>
        <time>2014-02-02T08:23:16Z</time>
      </trkpt>
      <trkpt lat="48.27774" lon="2.60201">
        <ele>113.59999847412</ele>
        <time>2014-02-02T08:23:17Z</time>
      </trkpt>
      <trkpt lat="48.27773" lon="2.60201">
        <ele>113.59999847412</ele>
        <time>2014-02-02T08:23:18Z</time>
      </trkpt>
      <trkpt lat="48.27767" lon="2.60203">
        <ele>114.19999694824</ele>
        <time>2014-02-02T08:23:23Z</time>
      </trkpt>
      <trkpt lat="48.27766" lon="2.60203">
        <ele>114.59999847412</ele>
        <time>2014-02-02T08:23:24Z</time>
      </trkpt>
      <trkpt lat="48.27765" lon="2.60203">
        <ele>115</ele>
        <time>2014-02-02T08:23:25Z</time>
      </trkpt>
      <trkpt lat="48.27763" lon="2.60203">
        <ele>115.40000152588</ele>
        <time>2014-02-02T08:23:26Z</time>
      </trkpt>
      <trkpt lat="48.27761" lon="2.60203">
        <ele>116</ele>
        <time>2014-02-02T08:23:28Z</time>
      </trkpt>
      <trkpt lat="48.27756" lon="2.60204">
        <ele>116</ele>
        <time>2014-02-02T08:23:31Z</time>
      </trkpt>
      <trkpt lat="48.27754" lon="2.60205">
        <ele>116.40000152588</ele>
        <time>2014-02-02T08:23:32Z</time>
      </trkpt>
      <trkpt lat="48.27753" lon="2.60205">
        <ele>116.80000305176</ele>
        <time>2014-02-02T08:23:33Z</time>
      </trkpt>
      <trkpt lat="48.27751" lon="2.60205">
        <ele>117.19999694824</ele>
        <time>2014-02-02T08:23:34Z</time>
      </trkpt>
      <trkpt lat="48.27749" lon="2.60206">
        <ele>117.59999847412</ele>
        <time>2014-02-02T08:23:35Z</time>
      </trkpt>
      <trkpt lat="48.27748" lon="2.60206">
        <ele>118</ele>
        <time>2014-02-02T08:23:36Z</time>
      </trkpt>
      <trkpt lat="48.27744" lon="2.60204">
        <ele>118</ele>
        <time>2014-02-02T08:23:39Z</time>
      </trkpt>
      <trkpt lat="48.27739" lon="2.60204">
        <ele>118.40000152588</ele>
        <time>2014-02-02T08:23:42Z</time>
      </trkpt>
      <trkpt lat="48.27739" lon="2.60203">
        <ele>118.80000305176</ele>
        <time>2014-02-02T08:23:43Z</time>
      </trkpt>
      <trkpt lat="48.27737" lon="2.60204">
        <ele>119.19999694824</ele>
        <time>2014-02-02T08:23:44Z</time>
      </trkpt>
      <trkpt lat="48.27736" lon="2.60203">
        <ele>119.59999847412</ele>
        <time>2014-02-02T08:23:45Z</time>
      </trkpt>
      <trkpt lat="48.27735" lon="2.60203">
        <ele>120</ele>
        <time>2014-02-02T08:23:46Z</time>
      </trkpt>
      <trkpt lat="48.27735" lon="2.60202">
        <ele>120</ele>
        <time>2014-02-02T08:23:47Z</time>
      </trkpt>
      <trkpt lat="48.27735" lon="2.60202">
        <ele>120.40000152588</ele>
        <time>2014-02-02T08:23:55Z</time>
      </trkpt>
      <trkpt lat="48.27735" lon="2.60202">
        <ele>120.80000305176</ele>
        <time>2014-02-02T08:23:56Z</time>
      </trkpt>
      <trkpt lat="48.27734" lon="2.60202">
        <ele>121.40000152588</ele>
        <time>2014-02-02T08:23:57Z</time>
      </trkpt>
      <trkpt lat="48.27734" lon="2.60202">
        <ele>121.80000305176</ele>
        <time>2014-02-02T08:23:58Z</time>
      </trkpt>
      <trkpt lat="48.27734" lon="2.60202">
        <ele>122.19999694824</ele>
        <time>2014-02-02T08:23:59Z</time>
      </trkpt>
      <trkpt lat="48.27734" lon="2.60202">
        <ele>122.59999847412</ele>
        <time>2014-02-02T08:24:07Z</time>
      </trkpt>
      <trkpt lat="48.27734" lon="2.60202">
        <ele>123</ele>
        <time>2014-02-02T08:24:08Z</time>
      </trkpt>
      <trkpt lat="48.27734" lon="2.60202">
        <ele>123.59999847412</ele>
        <time>2014-02-02T08:24:09Z</time>
      </trkpt>
      <trkpt lat="48.27734" lon="2.60202">
        <ele>124</ele>
        <time>2014-02-02T08:24:10Z</time>
      </trkpt>
      <trkpt lat="48.27734" lon="2.60202">
        <ele>124.40000152588</ele>
        <time>2014-02-02T08:24:11Z</time>
      </trkpt>
      <trkpt lat="48.27734" lon="2.60202">
        <ele>124.40000152588</ele>
        <time>2014-02-02T08:24:14Z</time>
      </trkpt>
      <trkpt lat="48.27733" lon="2.60202">
        <ele>124.80000305176</ele>
        <time>2014-02-02T08:24:16Z</time>
      </trkpt>
      <trkpt lat="48.27732" lon="2.60202">
        <ele>125.19999694824</ele>
        <time>2014-02-02T08:24:17Z</time>
      </trkpt>
      <trkpt lat="48.27732" lon="2.60202">
        <ele>125.80000305176</ele>
        <time>2014-02-02T08:24:18Z</time>
      </trkpt>
      <trkpt lat="48.27732" lon="2.60202">
        <ele>126.19999694824</ele>
        <time>2014-02-02T08:24:19Z</time>
      </trkpt>
      <trkpt lat="48.27732" lon="2.60202">
        <ele>126.59999847412</ele>
        <time>2014-02-02T08:24:20Z</time>
      </trkpt>
      <trkpt lat="48.27709" lon="2.60216">
        <ele>126.59999847412</ele>
        <time>2014-02-02T08:24:30Z</time>
      </trkpt>
      <trkpt lat="48.27678" lon="2.60233">
        <ele>127</ele>
        <time>2014-02-02T08:24:37Z</time>
      </trkpt>
      <trkpt lat="48.2767" lon="2.60234">
        <ele>127.40000152588</ele>
        <time>2014-02-02T08:24:38Z</time>
      </trkpt>
      <trkpt lat="48.27665" lon="2.60235">
        <ele>127.80000305176</ele>
        <time>2014-02-02T08:24:39Z</time>
      </trkpt>
      <trkpt lat="48.27661" lon="2.60236">
        <ele>128.19999694824</ele>
        <time>2014-02-02T08:24:40Z</time>
      </trkpt>
      <trkpt lat="48.27657" lon="2.60238">
        <ele>128.60000610352</ele>
        <time>2014-02-02T08:24:41Z</time>
      </trkpt>
      <trkpt lat="48.27645" lon="2.60245">
        <ele>128.60000610352</ele>
        <time>2014-02-02T08:24:46Z</time>
      </trkpt>
      <trkpt lat="48.27633" lon="2.60256">
        <ele>128.60000610352</ele>
        <time>2014-02-02T08:24:52Z</time>
      </trkpt>
      <trkpt lat="48.2762" lon="2.60262">
        <ele>128.60000610352</ele>
        <time>2014-02-02T08:24:58Z</time>
      </trkpt>
      <trkpt lat="48.27597" lon="2.60277">
        <ele>128.60000610352</ele>
        <time>2014-02-02T08:25:07Z</time>
      </trkpt>
      <trkpt lat="48.27579" lon="2.60291">
        <ele>128.60000610352</ele>
        <time>2014-02-02T08:25:15Z</time>
      </trkpt>
      <trkpt lat="48.27565" lon="2.603">
        <ele>128.60000610352</ele>
        <time>2014-02-02T08:25:21Z</time>
      </trkpt>
      <trkpt lat="48.27546" lon="2.60314">
        <ele>128.60000610352</ele>
        <time>2014-02-02T08:25:29Z</time>
      </trkpt>
      <trkpt lat="48.27533" lon="2.60322">
        <ele>128.60000610352</ele>
        <time>2014-02-02T08:25:34Z</time>
      </trkpt>
      <trkpt lat="48.27518" lon="2.60335">
        <ele>128.60000610352</ele>
        <time>2014-02-02T08:25:41Z</time>
      </trkpt>
      <trkpt lat="48.275" lon="2.60351">
        <ele>128.60000610352</ele>
        <time>2014-02-02T08:25:49Z</time>
      </trkpt>
      <trkpt lat="48.27487" lon="2.6036">
        <ele>128.60000610352</ele>
        <time>2014-02-02T08:25:54Z</time>
      </trkpt>
      <trkpt lat="48.27473" lon="2.60372">
        <ele>128.60000610352</ele>
        <time>2014-02-02T08:26:00Z</time>
      </trkpt>
      <trkpt lat="48.27454" lon="2.60384">
        <ele>128.60000610352</ele>
        <time>2014-02-02T08:26:07Z</time>
      </trkpt>
      <trkpt lat="48.27431" lon="2.60398">
        <ele>128.60000610352</ele>
        <time>2014-02-02T08:26:15Z</time>
      </trkpt>
      <trkpt lat="48.27409" lon="2.60417">
        <ele>128.60000610352</ele>
        <time>2014-02-02T08:26:23Z</time>
      </trkpt>
      <trkpt lat="48.27385" lon="2.60435">
        <ele>128.60000610352</ele>
        <time>2014-02-02T08:26:32Z</time>
      </trkpt>
      <trkpt lat="48.27359" lon="2.60455">
        <ele>128.60000610352</ele>
        <time>2014-02-02T08:26:41Z</time>
      </trkpt>
      <trkpt lat="48.27331" lon="2.60476">
        <ele>128.60000610352</ele>
        <time>2014-02-02T08:26:50Z</time>
      </trkpt>
      <trkpt lat="48.27323" lon="2.60483">
        <ele>128.19999694824</ele>
        <time>2014-02-02T08:26:53Z</time>
      </trkpt>
      <trkpt lat="48.2732" lon="2.60485">
        <ele>127.80000305176</ele>
        <time>2014-02-02T08:26:54Z</time>
      </trkpt>
      <trkpt lat="48.27317" lon="2.60487">
        <ele>127.40000152588</ele>
        <time>2014-02-02T08:26:55Z</time>
      </trkpt>
      <trkpt lat="48.27314" lon="2.60489">
        <ele>127</ele>
        <time>2014-02-02T08:26:56Z</time>
      </trkpt>
      <trkpt lat="48.27311" lon="2.60492">
        <ele>126.59999847412</ele>
        <time>2014-02-02T08:26:57Z</time>
      </trkpt>
      <trkpt lat="48.27308" lon="2.60494">
        <ele>126.59999847412</ele>
        <time>2014-02-02T08:26:58Z</time>
      </trkpt>
      <trkpt lat="48.2728" lon="2.60514">
        <ele>126.59999847412</ele>
        <time>2014-02-02T08:27:06Z</time>
      </trkpt>
      <trkpt lat="48.27256" lon="2.60529">
        <ele>126.59999847412</ele>
        <time>2014-02-02T08:27:13Z</time>
      </trkpt>
      <trkpt lat="48.27238" lon="2.60543">
        <ele>126.19999694824</ele>
        <time>2014-02-02T08:27:19Z</time>
      </trkpt>
      <trkpt lat="48.27235" lon="2.60546">
        <ele>125.80000305176</ele>
        <time>2014-02-02T08:27:20Z</time>
      </trkpt>
      <trkpt lat="48.27231" lon="2.6055">
        <ele>125.19999694824</ele>
        <time>2014-02-02T08:27:21Z</time>
      </trkpt>
      <trkpt lat="48.27228" lon="2.60554">
        <ele>124.80000305176</ele>
        <time>2014-02-02T08:27:22Z</time>
      </trkpt>
      <trkpt lat="48.27225" lon="2.6056">
        <ele>124.40000152588</ele>
        <time>2014-02-02T08:27:23Z</time>
      </trkpt>
      <trkpt lat="48.27217" lon="2.60571">
        <ele>124.40000152588</ele>
        <time>2014-02-02T08:27:25Z</time>
      </trkpt>
      <trkpt lat="48.2721" lon="2.60582">
        <ele>124.40000152588</ele>
        <time>2014-02-02T08:27:27Z</time>
      </trkpt>
      <trkpt lat="48.27196" lon="2.60594">
        <ele>124</ele>
        <time>2014-02-02T08:27:30Z</time>
      </trkpt>
      <trkpt lat="48.2719" lon="2.60598">
        <ele>123.40000152588</ele>
        <time>2014-02-02T08:27:31Z</time>
      </trkpt>
      <trkpt lat="48.27184" lon="2.60601">
        <ele>122.80000305176</ele>
        <time>2014-02-02T08:27:32Z</time>
      </trkpt>
      <trkpt lat="48.27177" lon="2.60604">
        <ele>122</ele>
        <time>2014-02-02T08:27:33Z</time>
      </trkpt>
      <trkpt lat="48.2717" lon="2.60606">
        <ele>121.19999694824</ele>
        <time>2014-02-02T08:27:34Z</time>
      </trkpt>
      <trkpt lat="48.27163" lon="2.6061">
        <ele>120.19999694824</ele>
        <time>2014-02-02T08:27:35Z</time>
      </trkpt>
      <trkpt lat="48.27156" lon="2.60613">
        <ele>119.19999694824</ele>
        <time>2014-02-02T08:27:36Z</time>
      </trkpt>
      <trkpt lat="48.27149" lon="2.60617">
        <ele>118.19999694824</ele>
        <time>2014-02-02T08:27:37Z</time>
      </trkpt>
      <trkpt lat="48.27143" lon="2.60621">
        <ele>117</ele>
        <time>2014-02-02T08:27:38Z</time>
      </trkpt>
      <trkpt lat="48.27138" lon="2.60625">
        <ele>115.80000305176</ele>
        <time>2014-02-02T08:27:39Z</time>
      </trkpt>
      <trkpt lat="48.27133" lon="2.60631">
        <ele>114.59999847412</ele>
        <time>2014-02-02T08:27:40Z</time>
      </trkpt>
      <trkpt lat="48.27129" lon="2.60638">
        <ele>113.59999847412</ele>
        <time>2014-02-02T08:27:41Z</time>
      </trkpt>
      <trkpt lat="48.27124" lon="2.60646">
        <ele>112.40000152588</ele>
        <time>2014-02-02T08:27:42Z</time>
      </trkpt>
      <trkpt lat="48.27121" lon="2.60651">
        <ele>111.80000305176</ele>
        <time>2014-02-02T08:27:43Z</time>
      </trkpt>
      <trkpt lat="48.27117" lon="2.60656">
        <ele>111</ele>
        <time>2014-02-02T08:27:44Z</time>
      </trkpt>
      <trkpt lat="48.27114" lon="2.60661">
        <ele>110.40000152588</ele>
        <time>2014-02-02T08:27:45Z</time>
      </trkpt>
      <trkpt lat="48.2711" lon="2.60665">
        <ele>109.59999847412</ele>
        <time>2014-02-02T08:27:46Z</time>
      </trkpt>
      <trkpt lat="48.27106" lon="2.6067">
        <ele>109</ele>
        <time>2014-02-02T08:27:47Z</time>
      </trkpt>
      <trkpt lat="48.27102" lon="2.60677">
        <ele>108.59999847412</ele>
        <time>2014-02-02T08:27:48Z</time>
      </trkpt>
      <trkpt lat="48.27098" lon="2.60683">
        <ele>108.19999694824</ele>
        <time>2014-02-02T08:27:49Z</time>
      </trkpt>
      <trkpt lat="48.27094" lon="2.60689">
        <ele>107.80000305176</ele>
        <time>2014-02-02T08:27:50Z</time>
      </trkpt>
      <trkpt lat="48.27091" lon="2.60695">
        <ele>107.40000152588</ele>
        <time>2014-02-02T08:27:51Z</time>
      </trkpt>
      <trkpt lat="48.27087" lon="2.607">
        <ele>106.80000305176</ele>
        <time>2014-02-02T08:27:52Z</time>
      </trkpt>
      <trkpt lat="48.27083" lon="2.60706">
        <ele>106.19999694824</ele>
        <time>2014-02-02T08:27:53Z</time>
      </trkpt>
      <trkpt lat="48.27079" lon="2.60712">
        <ele>105.80000305176</ele>
        <time>2014-02-02T08:27:54Z</time>
      </trkpt>
      <trkpt lat="48.27074" lon="2.60718">
        <ele>105.19999694824</ele>
        <time>2014-02-02T08:27:55Z</time>
      </trkpt>
      <trkpt lat="48.27071" lon="2.60723">
        <ele>104.59999847412</ele>
        <time>2014-02-02T08:27:56Z</time>
      </trkpt>
      <trkpt lat="48.27068" lon="2.60727">
        <ele>104</ele>
        <time>2014-02-02T08:27:57Z</time>
      </trkpt>
      <trkpt lat="48.27066" lon="2.60729">
        <ele>103.40000152588</ele>
        <time>2014-02-02T08:27:58Z</time>
      </trkpt>
      <trkpt lat="48.27065" lon="2.60731">
        <ele>102.80000305176</ele>
        <time>2014-02-02T08:27:59Z</time>
      </trkpt>
      <trkpt lat="48.27064" lon="2.60731">
        <ele>102.19999694824</ele>
        <time>2014-02-02T08:28:00Z</time>
      </trkpt>
      <trkpt lat="48.27062" lon="2.60735">
        <ele>102.19999694824</ele>
        <time>2014-02-02T08:28:03Z</time>
      </trkpt>
      <trkpt lat="48.27053" lon="2.60745">
        <ele>101.80000305176</ele>
        <time>2014-02-02T08:28:08Z</time>
      </trkpt>
      <trkpt lat="48.2705" lon="2.60747">
        <ele>101.40000152588</ele>
        <time>2014-02-02T08:28:09Z</time>
      </trkpt>
      <trkpt lat="48.27047" lon="2.6075">
        <ele>100.80000305176</ele>
        <time>2014-02-02T08:28:10Z</time>
      </trkpt>
      <trkpt lat="48.27044" lon="2.60754">
        <ele>100.40000152588</ele>
        <time>2014-02-02T08:28:11Z</time>
      </trkpt>
      <trkpt lat="48.2704" lon="2.60759">
        <ele>100</ele>
        <time>2014-02-02T08:28:12Z</time>
      </trkpt>
      <trkpt lat="48.27036" lon="2.60764">
        <ele>100</ele>
        <time>2014-02-02T08:28:13Z</time>
      </trkpt>
      <trkpt lat="48.27022" lon="2.60775">
        <ele>99.599998474121</ele>
        <time>2014-02-02T08:28:16Z</time>
      </trkpt>
      <trkpt lat="48.27017" lon="2.60778">
        <ele>99.199996948242</ele>
        <time>2014-02-02T08:28:17Z</time>
      </trkpt>
      <trkpt lat="48.27011" lon="2.6078">
        <ele>98.599998474121</ele>
        <time>2014-02-02T08:28:18Z</time>
      </trkpt>
      <trkpt lat="48.27005" lon="2.60782">
        <ele>98.199996948242</ele>
        <time>2014-02-02T08:28:19Z</time>
      </trkpt>
      <trkpt lat="48.27" lon="2.60783">
        <ele>97.599998474121</ele>
        <time>2014-02-02T08:28:20Z</time>
      </trkpt>
      <trkpt lat="48.26994" lon="2.60785">
        <ele>97.199996948242</ele>
        <time>2014-02-02T08:28:21Z</time>
      </trkpt>
      <trkpt lat="48.26988" lon="2.60786">
        <ele>96.599998474121</ele>
        <time>2014-02-02T08:28:22Z</time>
      </trkpt>
      <trkpt lat="48.26981" lon="2.60789">
        <ele>96.199996948242</ele>
        <time>2014-02-02T08:28:23Z</time>
      </trkpt>
      <trkpt lat="48.26974" lon="2.60795">
        <ele>95.599998474121</ele>
        <time>2014-02-02T08:28:24Z</time>
      </trkpt>
      <trkpt lat="48.26968" lon="2.608">
        <ele>95</ele>
        <time>2014-02-02T08:28:25Z</time>
      </trkpt>
      <trkpt lat="48.26962" lon="2.60805">
        <ele>94.400001525879</ele>
        <time>2014-02-02T08:28:26Z</time>
      </trkpt>
      <trkpt lat="48.26955" lon="2.60809">
        <ele>93.800003051758</ele>
        <time>2014-02-02T08:28:27Z</time>
      </trkpt>
      <trkpt lat="48.26948" lon="2.60814">
        <ele>93.199996948242</ele>
        <time>2014-02-02T08:28:28Z</time>
      </trkpt>
      <trkpt lat="48.26942" lon="2.60819">
        <ele>92.400001525879</ele>
        <time>2014-02-02T08:28:29Z</time>
      </trkpt>
      <trkpt lat="48.26925" lon="2.60833">
        <ele>92</ele>
        <time>2014-02-02T08:28:32Z</time>
      </trkpt>
      <trkpt lat="48.2692" lon="2.60839">
        <ele>91.599998474121</ele>
        <time>2014-02-02T08:28:33Z</time>
      </trkpt>
      <trkpt lat="48.26914" lon="2.60845">
        <ele>91.199996948242</ele>
        <time>2014-02-02T08:28:34Z</time>
      </trkpt>
      <trkpt lat="48.26908" lon="2.60852">
        <ele>90.599998474121</ele>
        <time>2014-02-02T08:28:35Z</time>
      </trkpt>
      <trkpt lat="48.26903" lon="2.60859">
        <ele>90.199996948242</ele>
        <time>2014-02-02T08:28:36Z</time>
      </trkpt>
      <trkpt lat="48.26892" lon="2.60875">
        <ele>90.199996948242</ele>
        <time>2014-02-02T08:28:39Z</time>
      </trkpt>
      <trkpt lat="48.2689" lon="2.6088">
        <ele>89.800003051758</ele>
        <time>2014-02-02T08:28:40Z</time>
      </trkpt>
      <trkpt lat="48.26888" lon="2.60886">
        <ele>89.400001525879</ele>
        <time>2014-02-02T08:28:41Z</time>
      </trkpt>
      <trkpt lat="48.26886" lon="2.60893">
        <ele>88.800003051758</ele>
        <time>2014-02-02T08:28:42Z</time>
      </trkpt>
      <trkpt lat="48.26885" lon="2.60901">
        <ele>88.400001525879</ele>
        <time>2014-02-02T08:28:43Z</time>
      </trkpt>
      <trkpt lat="48.26884" lon="2.60908">
        <ele>88</ele>
        <time>2014-02-02T08:28:44Z</time>
      </trkpt>
      <trkpt lat="48.26884" lon="2.60925">
        <ele>88</ele>
        <time>2014-02-02T08:28:46Z</time>
      </trkpt>
      <trkpt lat="48.26883" lon="2.60931">
        <ele>88</ele>
        <time>2014-02-02T08:28:47Z</time>
      </trkpt>
      <trkpt lat="48.26876" lon="2.60934">
        <ele>88</ele>
        <time>2014-02-02T08:28:50Z</time>
      </trkpt>
      <trkpt lat="48.26869" lon="2.6092">
        <ele>87.599998474121</ele>
        <time>2014-02-02T08:28:53Z</time>
      </trkpt>
      <trkpt lat="48.26868" lon="2.60914">
        <ele>87.199996948242</ele>
        <time>2014-02-02T08:28:54Z</time>
      </trkpt>
      <trkpt lat="48.26866" lon="2.60908">
        <ele>86.800003051758</ele>
        <time>2014-02-02T08:28:55Z</time>
      </trkpt>
      <trkpt lat="48.26864" lon="2.60902">
        <ele>86.400001525879</ele>
        <time>2014-02-02T08:28:56Z</time>
      </trkpt>
      <trkpt lat="48.26862" lon="2.60896">
        <ele>86</ele>
        <time>2014-02-02T08:28:57Z</time>
      </trkpt>
      <trkpt lat="48.26851" lon="2.60864">
        <ele>86</ele>
        <time>2014-02-02T08:29:02Z</time>
      </trkpt>
      <trkpt lat="48.26844" lon="2.60844">
        <ele>86</ele>
        <time>2014-02-02T08:29:05Z</time>
      </trkpt>
      <trkpt lat="48.26834" lon="2.60819">
        <ele>86</ele>
        <time>2014-02-02T08:29:09Z</time>
      </trkpt>
      <trkpt lat="48.26817" lon="2.60765">
        <ele>86</ele>
        <time>2014-02-02T08:29:17Z</time>
      </trkpt>
      <trkpt lat="48.268" lon="2.60717">
        <ele>86</ele>
        <time>2014-02-02T08:29:25Z</time>
      </trkpt>
      <trkpt lat="48.26783" lon="2.60671">
        <ele>86</ele>
        <time>2014-02-02T08:29:33Z</time>
      </trkpt>
      <trkpt lat="48.26769" lon="2.60612">
        <ele>86</ele>
        <time>2014-02-02T08:29:43Z</time>
      </trkpt>
      <trkpt lat="48.26762" lon="2.60581">
        <ele>86.400001525879</ele>
        <time>2014-02-02T08:29:48Z</time>
      </trkpt>
      <trkpt lat="48.2676" lon="2.60575">
        <ele>86.800003051758</ele>
        <time>2014-02-02T08:29:49Z</time>
      </trkpt>
      <trkpt lat="48.26759" lon="2.6057">
        <ele>87.400001525879</ele>
        <time>2014-02-02T08:29:50Z</time>
      </trkpt>
      <trkpt lat="48.26758" lon="2.60563">
        <ele>87.800003051758</ele>
        <time>2014-02-02T08:29:51Z</time>
      </trkpt>
      <trkpt lat="48.26757" lon="2.60557">
        <ele>88.199996948242</ele>
        <time>2014-02-02T08:29:52Z</time>
      </trkpt>
      <trkpt lat="48.26757" lon="2.60551">
        <ele>88.199996948242</ele>
        <time>2014-02-02T08:29:53Z</time>
      </trkpt>
      <trkpt lat="48.26759" lon="2.60523">
        <ele>88.199996948242</ele>
        <time>2014-02-02T08:29:58Z</time>
      </trkpt>
      <trkpt lat="48.26762" lon="2.605">
        <ele>88.599998474121</ele>
        <time>2014-02-02T08:30:03Z</time>
      </trkpt>
      <trkpt lat="48.26763" lon="2.60496">
        <ele>89</ele>
        <time>2014-02-02T08:30:04Z</time>
      </trkpt>
      <trkpt lat="48.26764" lon="2.60492">
        <ele>89.400001525879</ele>
        <time>2014-02-02T08:30:05Z</time>
      </trkpt>
      <trkpt lat="48.26765" lon="2.60488">
        <ele>89.800003051758</ele>
        <time>2014-02-02T08:30:06Z</time>
      </trkpt>
      <trkpt lat="48.26766" lon="2.60483">
        <ele>90.199996948242</ele>
        <time>2014-02-02T08:30:07Z</time>
      </trkpt>
      <trkpt lat="48.26768" lon="2.60469">
        <ele>90.599998474121</ele>
        <time>2014-02-02T08:30:11Z</time>
      </trkpt>
      <trkpt lat="48.26768" lon="2.60465">
        <ele>91</ele>
        <time>2014-02-02T08:30:12Z</time>
      </trkpt>
      <trkpt lat="48.26769" lon="2.60461">
        <ele>91.599998474121</ele>
        <time>2014-02-02T08:30:13Z</time>
      </trkpt>
      <trkpt lat="48.26769" lon="2.60458">
        <ele>92</ele>
        <time>2014-02-02T08:30:14Z</time>
      </trkpt>
      <trkpt lat="48.2677" lon="2.60454">
        <ele>92.400001525879</ele>
        <time>2014-02-02T08:30:15Z</time>
      </trkpt>
      <trkpt lat="48.26771" lon="2.60439">
        <ele>92.400001525879</ele>
        <time>2014-02-02T08:30:20Z</time>
      </trkpt>
      <trkpt lat="48.26774" lon="2.60422">
        <ele>92.800003051758</ele>
        <time>2014-02-02T08:30:26Z</time>
      </trkpt>
      <trkpt lat="48.26775" lon="2.60419">
        <ele>93.199996948242</ele>
        <time>2014-02-02T08:30:27Z</time>
      </trkpt>
      <trkpt lat="48.26776" lon="2.60417">
        <ele>93.599998474121</ele>
        <time>2014-02-02T08:30:28Z</time>
      </trkpt>
      <trkpt lat="48.26777" lon="2.60414">
        <ele>94</ele>
        <time>2014-02-02T08:30:29Z</time>
      </trkpt>
      <trkpt lat="48.26777" lon="2.60411">
        <ele>94.400001525879</ele>
        <time>2014-02-02T08:30:30Z</time>
      </trkpt>
      <trkpt lat="48.26777" lon="2.604">
        <ele>94.400001525879</ele>
        <time>2014-02-02T08:30:34Z</time>
      </trkpt>
      <trkpt lat="48.26777" lon="2.60396">
        <ele>94.800003051758</ele>
        <time>2014-02-02T08:30:36Z</time>
      </trkpt>
      <trkpt lat="48.26776" lon="2.60395">
        <ele>95.400001525879</ele>
        <time>2014-02-02T08:30:37Z</time>
      </trkpt>
      <trkpt lat="48.26776" lon="2.60393">
        <ele>95.800003051758</ele>
        <time>2014-02-02T08:30:38Z</time>
      </trkpt>
      <trkpt lat="48.26776" lon="2.60391">
        <ele>96.199996948242</ele>
        <time>2014-02-02T08:30:39Z</time>
      </trkpt>
      <trkpt lat="48.26775" lon="2.60389">
        <ele>96.599998474121</ele>
        <time>2014-02-02T08:30:40Z</time>
      </trkpt>
      <trkpt lat="48.2677" lon="2.60381">
        <ele>97</ele>
        <time>2014-02-02T08:30:46Z</time>
      </trkpt>
      <trkpt lat="48.2677" lon="2.60379">
        <ele>97.599998474121</ele>
        <time>2014-02-02T08:30:47Z</time>
      </trkpt>
      <trkpt lat="48.26769" lon="2.60377">
        <ele>98</ele>
        <time>2014-02-02T08:30:48Z</time>
      </trkpt>
      <trkpt lat="48.26768" lon="2.60376">
        <ele>98.400001525879</ele>
        <time>2014-02-02T08:30:49Z</time>
      </trkpt>
      <trkpt lat="48.26767" lon="2.60375">
        <ele>98.800003051758</ele>
        <time>2014-02-02T08:30:50Z</time>
      </trkpt>
      <trkpt lat="48.26767" lon="2.60372">
        <ele>98.800003051758</ele>
        <time>2014-02-02T08:30:55Z</time>
      </trkpt>
      <trkpt lat="48.26767" lon="2.60369">
        <ele>99.199996948242</ele>
        <time>2014-02-02T08:31:02Z</time>
      </trkpt>
      <trkpt lat="48.26767" lon="2.60369">
        <ele>99.599998474121</ele>
        <time>2014-02-02T08:31:03Z</time>
      </trkpt>
      <trkpt lat="48.26767" lon="2.60369">
        <ele>100</ele>
        <time>2014-02-02T08:31:04Z</time>
      </trkpt>
      <trkpt lat="48.26767" lon="2.60369">
        <ele>100.40000152588</ele>
        <time>2014-02-02T08:31:05Z</time>
      </trkpt>
      <trkpt lat="48.26767" lon="2.60369">
        <ele>100.80000305176</ele>
        <time>2014-02-02T08:31:06Z</time>
      </trkpt>
      <trkpt lat="48.26767" lon="2.60369">
        <ele>101.19999694824</ele>
        <time>2014-02-02T08:31:19Z</time>
      </trkpt>
      <trkpt lat="48.26767" lon="2.60369">
        <ele>101.80000305176</ele>
        <time>2014-02-02T08:31:20Z</time>
      </trkpt>
      <trkpt lat="48.26767" lon="2.60369">
        <ele>102.19999694824</ele>
        <time>2014-02-02T08:31:21Z</time>
      </trkpt>
      <trkpt lat="48.26767" lon="2.60369">
        <ele>102.59999847412</ele>
        <time>2014-02-02T08:31:22Z</time>
      </trkpt>
      <trkpt lat="48.26767" lon="2.60369">
        <ele>103</ele>
        <time>2014-02-02T08:31:23Z</time>
      </trkpt>
      <trkpt lat="48.26767" lon="2.60369">
        <ele>103.40000152588</ele>
        <time>2014-02-02T08:31:29Z</time>
      </trkpt>
      <trkpt lat="48.26767" lon="2.60369">
        <ele>103.80000305176</ele>
        <time>2014-02-02T08:31:30Z</time>
      </trkpt>
      <trkpt lat="48.26767" lon="2.60369">
        <ele>104.19999694824</ele>
        <time>2014-02-02T08:31:31Z</time>
      </trkpt>
      <trkpt lat="48.26767" lon="2.60369">
        <ele>104.59999847412</ele>
        <time>2014-02-02T08:31:32Z</time>
      </trkpt>
      <trkpt lat="48.26767" lon="2.60369">
        <ele>105</ele>
        <time>2014-02-02T08:31:33Z</time>
      </trkpt>
      <trkpt lat="48.26766" lon="2.60368">
        <ele>105.40000152588</ele>
        <time>2014-02-02T08:31:49Z</time>
      </trkpt>
      <trkpt lat="48.26766" lon="2.60368">
        <ele>105.80000305176</ele>
        <time>2014-02-02T08:31:50Z</time>
      </trkpt>
      <trkpt lat="48.26766" lon="2.60368">
        <ele>106.19999694824</ele>
        <time>2014-02-02T08:31:51Z</time>
      </trkpt>
      <trkpt lat="48.26766" lon="2.60368">
        <ele>106.59999847412</ele>
        <time>2014-02-02T08:31:52Z</time>
      </trkpt>
      <trkpt lat="48.26766" lon="2.60368">
        <ele>107</ele>
        <time>2014-02-02T08:31:53Z</time>
      </trkpt>
      <trkpt lat="48.26766" lon="2.60368">
        <ele>107.40000152588</ele>
        <time>2014-02-02T08:32:09Z</time>
      </trkpt>
      <trkpt lat="48.26766" lon="2.60368">
        <ele>107.80000305176</ele>
        <time>2014-02-02T08:32:10Z</time>
      </trkpt>
      <trkpt lat="48.26766" lon="2.60368">
        <ele>108.19999694824</ele>
        <time>2014-02-02T08:32:11Z</time>
      </trkpt>
      <trkpt lat="48.26765" lon="2.60368">
        <ele>108.80000305176</ele>
        <time>2014-02-02T08:32:12Z</time>
      </trkpt>
      <trkpt lat="48.26765" lon="2.60369">
        <ele>109.19999694824</ele>
        <time>2014-02-02T08:32:13Z</time>
      </trkpt>
      <trkpt lat="48.26763" lon="2.60368">
        <ele>109.19999694824</ele>
        <time>2014-02-02T08:32:15Z</time>
      </trkpt>
      <trkpt lat="48.26748" lon="2.60347">
        <ele>109.19999694824</ele>
        <time>2014-02-02T08:32:23Z</time>
      </trkpt>
      <trkpt lat="48.26734" lon="2.60313">
        <ele>109.19999694824</ele>
        <time>2014-02-02T08:32:34Z</time>
      </trkpt>
      <trkpt lat="48.26717" lon="2.60293">
        <ele>109.19999694824</ele>
        <time>2014-02-02T08:32:45Z</time>
      </trkpt>
      <trkpt lat="48.26715" lon="2.60291">
        <ele>109.59999847412</ele>
        <time>2014-02-02T08:32:46Z</time>
      </trkpt>
      <trkpt lat="48.26714" lon="2.60289">
        <ele>110</ele>
        <time>2014-02-02T08:32:47Z</time>
      </trkpt>
      <trkpt lat="48.26713" lon="2.60289">
        <ele>110.40000152588</ele>
        <time>2014-02-02T08:32:48Z</time>
      </trkpt>
      <trkpt lat="48.26712" lon="2.60289">
        <ele>110.80000305176</ele>
        <time>2014-02-02T08:32:49Z</time>
      </trkpt>
      <trkpt lat="48.26711" lon="2.60287">
        <ele>111.19999694824</ele>
        <time>2014-02-02T08:32:50Z</time>
      </trkpt>
      <trkpt lat="48.26707" lon="2.60279">
        <ele>111.19999694824</ele>
        <time>2014-02-02T08:32:55Z</time>
      </trkpt>
      <trkpt lat="48.26704" lon="2.60271">
        <ele>111.59999847412</ele>
        <time>2014-02-02T08:32:59Z</time>
      </trkpt>
      <trkpt lat="48.26701" lon="2.60267">
        <ele>112</ele>
        <time>2014-02-02T08:33:00Z</time>
      </trkpt>
      <trkpt lat="48.26701" lon="2.60266">
        <ele>112.40000152588</ele>
        <time>2014-02-02T08:33:01Z</time>
      </trkpt>
      <trkpt lat="48.26699" lon="2.60264">
        <ele>113</ele>
        <time>2014-02-02T08:33:02Z</time>
      </trkpt>
      <trkpt lat="48.267" lon="2.60263">
        <ele>113.40000152588</ele>
        <time>2014-02-02T08:33:03Z</time>
      </trkpt>
      <trkpt lat="48.26699" lon="2.60262">
        <ele>113.40000152588</ele>
        <time>2014-02-02T08:33:05Z</time>
      </trkpt>
      <trkpt lat="48.26698" lon="2.60261">
        <ele>113.80000305176</ele>
        <time>2014-02-02T08:33:12Z</time>
      </trkpt>
      <trkpt lat="48.26698" lon="2.60262">
        <ele>114.19999694824</ele>
        <time>2014-02-02T08:33:13Z</time>
      </trkpt>
      <trkpt lat="48.26698" lon="2.60262">
        <ele>114.59999847412</ele>
        <time>2014-02-02T08:33:14Z</time>
      </trkpt>
      <trkpt lat="48.26698" lon="2.60262">
        <ele>115</ele>
        <time>2014-02-02T08:33:15Z</time>
      </trkpt>
      <trkpt lat="48.26698" lon="2.60262">
        <ele>115.40000152588</ele>
        <time>2014-02-02T08:33:16Z</time>
      </trkpt>
      <trkpt lat="48.267" lon="2.60261">
        <ele>115.80000305176</ele>
        <time>2014-02-02T08:33:25Z</time>
      </trkpt>
      <trkpt lat="48.267" lon="2.60261">
        <ele>116.19999694824</ele>
        <time>2014-02-02T08:33:26Z</time>
      </trkpt>
      <trkpt lat="48.267" lon="2.60261">
        <ele>116.59999847412</ele>
        <time>2014-02-02T08:33:27Z</time>
      </trkpt>
      <trkpt lat="48.267" lon="2.60261">
        <ele>117</ele>
        <time>2014-02-02T08:33:28Z</time>
      </trkpt>
      <trkpt lat="48.26701" lon="2.60261">
        <ele>117.59999847412</ele>
        <time>2014-02-02T08:33:29Z</time>
      </trkpt>
      <trkpt lat="48.26709" lon="2.6026">
        <ele>118</ele>
        <time>2014-02-02T08:33:40Z</time>
      </trkpt>
      <trkpt lat="48.26711" lon="2.60259">
        <ele>118.40000152588</ele>
        <time>2014-02-02T08:33:41Z</time>
      </trkpt>
      <trkpt lat="48.26712" lon="2.60258">
        <ele>118.80000305176</ele>
        <time>2014-02-02T08:33:42Z</time>
      </trkpt>
      <trkpt lat="48.26712" lon="2.60258">
        <ele>119.19999694824</ele>
        <time>2014-02-02T08:33:43Z</time>
      </trkpt>
      <trkpt lat="48.26713" lon="2.60258">
        <ele>119.80000305176</ele>
        <time>2014-02-02T08:33:44Z</time>
      </trkpt>
      <trkpt lat="48.26723" lon="2.60257">
        <ele>119.80000305176</ele>
        <time>2014-02-02T08:33:56Z</time>
      </trkpt>
      <trkpt lat="48.26733" lon="2.60262">
        <ele>119.80000305176</ele>
        <time>2014-02-02T08:34:04Z</time>
      </trkpt>
      <trkpt lat="48.26745" lon="2.60259">
        <ele>120.19999694824</ele>
        <time>2014-02-02T08:34:15Z</time>
      </trkpt>
      <trkpt lat="48.26746" lon="2.60259">
        <ele>120.59999847412</ele>
        <time>2014-02-02T08:34:16Z</time>
      </trkpt>
      <trkpt lat="48.26746" lon="2.60259">
        <ele>121</ele>
        <time>2014-02-02T08:34:17Z</time>
      </trkpt>
      <trkpt lat="48.26747" lon="2.60259">
        <ele>121.40000152588</ele>
        <time>2014-02-02T08:34:18Z</time>
      </trkpt>
      <trkpt lat="48.26748" lon="2.60259">
        <ele>122</ele>
        <time>2014-02-02T08:34:19Z</time>
      </trkpt>
      <trkpt lat="48.26754" lon="2.60259">
        <ele>122</ele>
        <time>2014-02-02T08:34:27Z</time>
      </trkpt>
      <trkpt lat="48.26759" lon="2.60264">
        <ele>122</ele>
        <time>2014-02-02T08:34:35Z</time>
      </trkpt>
      <trkpt lat="48.2677" lon="2.60281">
        <ele>122</ele>
        <time>2014-02-02T08:34:45Z</time>
      </trkpt>
      <trkpt lat="48.26777" lon="2.60291">
        <ele>122</ele>
        <time>2014-02-02T08:34:50Z</time>
      </trkpt>
      <trkpt lat="48.26781" lon="2.60298">
        <ele>122</ele>
        <time>2014-02-02T08:34:56Z</time>
      </trkpt>
      <trkpt lat="48.26783" lon="2.603">
        <ele>122</ele>
        <time>2014-02-02T08:34:58Z</time>
      </trkpt>
      <trkpt lat="48.26787" lon="2.60308">
        <ele>122</ele>
        <time>2014-02-02T08:35:02Z</time>
      </trkpt>
      <trkpt lat="48.26792" lon="2.60318">
        <ele>122</ele>
        <time>2014-02-02T08:35:08Z</time>
      </trkpt>
      <trkpt lat="48.26795" lon="2.60321">
        <ele>122</ele>
        <time>2014-02-02T08:35:13Z</time>
      </trkpt>
      <trkpt lat="48.26797" lon="2.60324">
        <ele>122</ele>
        <time>2014-02-02T08:35:19Z</time>
      </trkpt>
      <trkpt lat="48.268" lon="2.6033">
        <ele>122</ele>
        <time>2014-02-02T08:35:26Z</time>
      </trkpt>
      <trkpt lat="48.26805" lon="2.60342">
        <ele>122</ele>
        <time>2014-02-02T08:35:31Z</time>
      </trkpt>
      <trkpt lat="48.2681" lon="2.60356">
        <ele>121.40000152588</ele>
        <time>2014-02-02T08:35:36Z</time>
      </trkpt>
      <trkpt lat="48.2681" lon="2.60359">
        <ele>121</ele>
        <time>2014-02-02T08:35:37Z</time>
      </trkpt>
      <trkpt lat="48.26811" lon="2.60361">
        <ele>120.59999847412</ele>
        <time>2014-02-02T08:35:38Z</time>
      </trkpt>
      <trkpt lat="48.26812" lon="2.60364">
        <ele>120.19999694824</ele>
        <time>2014-02-02T08:35:39Z</time>
      </trkpt>
      <trkpt lat="48.26814" lon="2.60367">
        <ele>119.80000305176</ele>
        <time>2014-02-02T08:35:40Z</time>
      </trkpt>
      <trkpt lat="48.26819" lon="2.60376">
        <ele>119.80000305176</ele>
        <time>2014-02-02T08:35:44Z</time>
      </trkpt>
      <trkpt lat="48.2682" lon="2.60378">
        <ele>119.80000305176</ele>
        <time>2014-02-02T08:35:45Z</time>
      </trkpt>
      <trkpt lat="48.26825" lon="2.60396">
        <ele>119.80000305176</ele>
        <time>2014-02-02T08:35:52Z</time>
      </trkpt>
      <trkpt lat="48.26827" lon="2.60406">
        <ele>119.80000305176</ele>
        <time>2014-02-02T08:35:57Z</time>
      </trkpt>
      <trkpt lat="48.26832" lon="2.60419">
        <ele>119.80000305176</ele>
        <time>2014-02-02T08:36:02Z</time>
      </trkpt>
      <trkpt lat="48.26838" lon="2.60436">
        <ele>119.80000305176</ele>
        <time>2014-02-02T08:36:09Z</time>
      </trkpt>
      <trkpt lat="48.2684" lon="2.60444">
        <ele>119.19999694824</ele>
        <time>2014-02-02T08:36:14Z</time>
      </trkpt>
      <trkpt lat="48.2684" lon="2.60446">
        <ele>118.80000305176</ele>
        <time>2014-02-02T08:36:15Z</time>
      </trkpt>
      <trkpt lat="48.26841" lon="2.60448">
        <ele>118.40000152588</ele>
        <time>2014-02-02T08:36:16Z</time>
      </trkpt>
      <trkpt lat="48.26841" lon="2.6045">
        <ele>118</ele>
        <time>2014-02-02T08:36:17Z</time>
      </trkpt>
      <trkpt lat="48.26842" lon="2.60453">
        <ele>117.59999847412</ele>
        <time>2014-02-02T08:36:18Z</time>
      </trkpt>
      <trkpt lat="48.26845" lon="2.60467">
        <ele>117.59999847412</ele>
        <time>2014-02-02T08:36:23Z</time>
      </trkpt>
      <trkpt lat="48.2684" lon="2.60487">
        <ele>117.59999847412</ele>
        <time>2014-02-02T08:36:30Z</time>
      </trkpt>
      <trkpt lat="48.26841" lon="2.60514">
        <ele>117.59999847412</ele>
        <time>2014-02-02T08:36:36Z</time>
      </trkpt>
      <trkpt lat="48.26846" lon="2.60523">
        <ele>117.59999847412</ele>
        <time>2014-02-02T08:36:40Z</time>
      </trkpt>
      <trkpt lat="48.26845" lon="2.60523">
        <ele>117.59999847412</ele>
        <time>2014-02-02T08:36:42Z</time>
      </trkpt>
      <trkpt lat="48.26848" lon="2.60526">
        <ele>117.59999847412</ele>
        <time>2014-02-02T08:36:48Z</time>
      </trkpt>
      <trkpt lat="48.26854" lon="2.60535">
        <ele>117.59999847412</ele>
        <time>2014-02-02T08:37:02Z</time>
      </trkpt>
      <trkpt lat="48.26863" lon="2.60539">
        <ele>118</ele>
        <time>2014-02-02T08:37:08Z</time>
      </trkpt>
      <trkpt lat="48.26864" lon="2.60539">
        <ele>118.40000152588</ele>
        <time>2014-02-02T08:37:09Z</time>
      </trkpt>
      <trkpt lat="48.26865" lon="2.60539">
        <ele>118.80000305176</ele>
        <time>2014-02-02T08:37:10Z</time>
      </trkpt>
      <trkpt lat="48.26866" lon="2.60539">
        <ele>119.19999694824</ele>
        <time>2014-02-02T08:37:11Z</time>
      </trkpt>
      <trkpt lat="48.26866" lon="2.60541">
        <ele>119.59999847412</ele>
        <time>2014-02-02T08:37:12Z</time>
      </trkpt>
      <trkpt lat="48.26866" lon="2.60541">
        <ele>119.59999847412</ele>
        <time>2014-02-02T08:37:13Z</time>
      </trkpt>
      <trkpt lat="48.2687" lon="2.60542">
        <ele>120</ele>
        <time>2014-02-02T08:37:18Z</time>
      </trkpt>
      <trkpt lat="48.26871" lon="2.60541">
        <ele>120.40000152588</ele>
        <time>2014-02-02T08:37:19Z</time>
      </trkpt>
      <trkpt lat="48.26871" lon="2.60541">
        <ele>120.80000305176</ele>
        <time>2014-02-02T08:37:20Z</time>
      </trkpt>
      <trkpt lat="48.26872" lon="2.60542">
        <ele>121.40000152588</ele>
        <time>2014-02-02T08:37:21Z</time>
      </trkpt>
      <trkpt lat="48.26873" lon="2.60542">
        <ele>121.80000305176</ele>
        <time>2014-02-02T08:37:22Z</time>
      </trkpt>
      <trkpt lat="48.26875" lon="2.60542">
        <ele>121.80000305176</ele>
        <time>2014-02-02T08:37:26Z</time>
      </trkpt>
      <trkpt lat="48.26887" lon="2.6055">
        <ele>121.80000305176</ele>
        <time>2014-02-02T08:37:35Z</time>
      </trkpt>
      <trkpt lat="48.26902" lon="2.60551">
        <ele>121.80000305176</ele>
        <time>2014-02-02T08:37:45Z</time>
      </trkpt>
      <trkpt lat="48.26917" lon="2.6053">
        <ele>121.80000305176</ele>
        <time>2014-02-02T08:37:57Z</time>
      </trkpt>
      <trkpt lat="48.26926" lon="2.60512">
        <ele>121.80000305176</ele>
        <time>2014-02-02T08:38:04Z</time>
      </trkpt>
      <trkpt lat="48.26926" lon="2.6051">
        <ele>121.80000305176</ele>
        <time>2014-02-02T08:38:05Z</time>
      </trkpt>
      <trkpt lat="48.26935" lon="2.60492">
        <ele>121.80000305176</ele>
        <time>2014-02-02T08:38:12Z</time>
      </trkpt>
      <trkpt lat="48.26936" lon="2.60487">
        <ele>122.19999694824</ele>
        <time>2014-02-02T08:38:14Z</time>
      </trkpt>
      <trkpt lat="48.26937" lon="2.60484">
        <ele>122.59999847412</ele>
        <time>2014-02-02T08:38:15Z</time>
      </trkpt>
      <trkpt lat="48.26937" lon="2.60482">
        <ele>123</ele>
        <time>2014-02-02T08:38:16Z</time>
      </trkpt>
      <trkpt lat="48.26939" lon="2.60479">
        <ele>123.40000152588</ele>
        <time>2014-02-02T08:38:17Z</time>
      </trkpt>
      <trkpt lat="48.26939" lon="2.60477">
        <ele>123.80000305176</ele>
        <time>2014-02-02T08:38:18Z</time>
      </trkpt>
      <trkpt lat="48.26947" lon="2.60467">
        <ele>123.80000305176</ele>
        <time>2014-02-02T08:38:25Z</time>
      </trkpt>
      <trkpt lat="48.26953" lon="2.60463">
        <ele>123.80000305176</ele>
        <time>2014-02-02T08:38:31Z</time>
      </trkpt>
      <trkpt lat="48.26965" lon="2.60447">
        <ele>123.80000305176</ele>
        <time>2014-02-02T08:38:39Z</time>
      </trkpt>
      <trkpt lat="48.26972" lon="2.60438">
        <ele>123.80000305176</ele>
        <time>2014-02-02T08:38:46Z</time>
      </trkpt>
      <trkpt lat="48.26988" lon="2.60423">
        <ele>123.80000305176</ele>
        <time>2014-02-02T08:39:11Z</time>
      </trkpt>
      <trkpt lat="48.26997" lon="2.60415">
        <ele>123.80000305176</ele>
        <time>2014-02-02T08:39:22Z</time>
      </trkpt>
      <trkpt lat="48.27003" lon="2.60412">
        <ele>123.80000305176</ele>
        <time>2014-02-02T08:39:30Z</time>
      </trkpt>
      <trkpt lat="48.27013" lon="2.60403">
        <ele>123.80000305176</ele>
        <time>2014-02-02T08:39:38Z</time>
      </trkpt>
      <trkpt lat="48.27023" lon="2.60396">
        <ele>123.80000305176</ele>
        <time>2014-02-02T08:39:44Z</time>
      </trkpt>
      <trkpt lat="48.27033" lon="2.60388">
        <ele>123.80000305176</ele>
        <time>2014-02-02T08:39:50Z</time>
      </trkpt>
      <trkpt lat="48.27041" lon="2.60383">
        <ele>123.80000305176</ele>
        <time>2014-02-02T08:39:56Z</time>
      </trkpt>
      <trkpt lat="48.27048" lon="2.60383">
        <ele>123.80000305176</ele>
        <time>2014-02-02T08:40:02Z</time>
      </trkpt>
      <trkpt lat="48.27052" lon="2.60384">
        <ele>123.80000305176</ele>
        <time>2014-02-02T08:40:05Z</time>
      </trkpt>
      <trkpt lat="48.27055" lon="2.60387">
        <ele>123.80000305176</ele>
        <time>2014-02-02T08:40:08Z</time>
      </trkpt>
      <trkpt lat="48.27063" lon="2.60392">
        <ele>123.80000305176</ele>
        <time>2014-02-02T08:40:13Z</time>
      </trkpt>
      <trkpt lat="48.27066" lon="2.60391">
        <ele>123.80000305176</ele>
        <time>2014-02-02T08:40:15Z</time>
      </trkpt>
      <trkpt lat="48.27078" lon="2.60384">
        <ele>123.80000305176</ele>
        <time>2014-02-02T08:40:21Z</time>
      </trkpt>
      <trkpt lat="48.27081" lon="2.60381">
        <ele>123.40000152588</ele>
        <time>2014-02-02T08:40:23Z</time>
      </trkpt>
      <trkpt lat="48.27082" lon="2.60379">
        <ele>123</ele>
        <time>2014-02-02T08:40:24Z</time>
      </trkpt>
      <trkpt lat="48.27082" lon="2.60378">
        <ele>122.59999847412</ele>
        <time>2014-02-02T08:40:25Z</time>
      </trkpt>
      <trkpt lat="48.27082" lon="2.60377">
        <ele>122.19999694824</ele>
        <time>2014-02-02T08:40:26Z</time>
      </trkpt>
      <trkpt lat="48.27083" lon="2.60377">
        <ele>121.80000305176</ele>
        <time>2014-02-02T08:40:27Z</time>
      </trkpt>
      <trkpt lat="48.27087" lon="2.60369">
        <ele>121.80000305176</ele>
        <time>2014-02-02T08:40:33Z</time>
      </trkpt>
      <trkpt lat="48.27089" lon="2.60359">
        <ele>121.80000305176</ele>
        <time>2014-02-02T08:40:37Z</time>
      </trkpt>
      <trkpt lat="48.27089" lon="2.60352">
        <ele>121.80000305176</ele>
        <time>2014-02-02T08:40:40Z</time>
      </trkpt>
      <trkpt lat="48.27092" lon="2.60335">
        <ele>121.80000305176</ele>
        <time>2014-02-02T08:40:47Z</time>
      </trkpt>
      <trkpt lat="48.27092" lon="2.60314">
        <ele>121.80000305176</ele>
        <time>2014-02-02T08:40:54Z</time>
      </trkpt>
      <trkpt lat="48.27094" lon="2.60302">
        <ele>121.80000305176</ele>
        <time>2014-02-02T08:41:00Z</time>
      </trkpt>
      <trkpt lat="48.27093" lon="2.60282">
        <ele>121.80000305176</ele>
        <time>2014-02-02T08:41:07Z</time>
      </trkpt>
      <trkpt lat="48.27093" lon="2.60274">
        <ele>121.80000305176</ele>
        <time>2014-02-02T08:41:10Z</time>
      </trkpt>
      <trkpt lat="48.27092" lon="2.60268">
        <ele>121.80000305176</ele>
        <time>2014-02-02T08:41:13Z</time>
      </trkpt>
      <trkpt lat="48.2709" lon="2.60247">
        <ele>121.80000305176</ele>
        <time>2014-02-02T08:41:20Z</time>
      </trkpt>
      <trkpt lat="48.27085" lon="2.60231">
        <ele>121.80000305176</ele>
        <time>2014-02-02T08:41:27Z</time>
      </trkpt>
      <trkpt lat="48.27081" lon="2.6022">
        <ele>121.80000305176</ele>
        <time>2014-02-02T08:41:33Z</time>
      </trkpt>
      <trkpt lat="48.27077" lon="2.60212">
        <ele>121.80000305176</ele>
        <time>2014-02-02T08:41:40Z</time>
      </trkpt>
      <trkpt lat="48.27073" lon="2.60205">
        <ele>121.80000305176</ele>
        <time>2014-02-02T08:41:49Z</time>
      </trkpt>
      <trkpt lat="48.27068" lon="2.60195">
        <ele>121.80000305176</ele>
        <time>2014-02-02T08:41:57Z</time>
      </trkpt>
      <trkpt lat="48.27066" lon="2.60194">
        <ele>121.80000305176</ele>
        <time>2014-02-02T08:41:58Z</time>
      </trkpt>
      <trkpt lat="48.27063" lon="2.60187">
        <ele>121.80000305176</ele>
        <time>2014-02-02T08:42:06Z</time>
      </trkpt>
      <trkpt lat="48.27055" lon="2.60176">
        <ele>121.80000305176</ele>
        <time>2014-02-02T08:42:14Z</time>
      </trkpt>
      <trkpt lat="48.27047" lon="2.60159">
        <ele>121.80000305176</ele>
        <time>2014-02-02T08:42:21Z</time>
      </trkpt>
      <trkpt lat="48.27037" lon="2.60141">
        <ele>121.80000305176</ele>
        <time>2014-02-02T08:42:29Z</time>
      </trkpt>
      <trkpt lat="48.27027" lon="2.60136">
        <ele>121.80000305176</ele>
        <time>2014-02-02T08:42:35Z</time>
      </trkpt>
      <trkpt lat="48.27021" lon="2.60132">
        <ele>121.80000305176</ele>
        <time>2014-02-02T08:42:40Z</time>
      </trkpt>
      <trkpt lat="48.27019" lon="2.60129">
        <ele>122.19999694824</ele>
        <time>2014-02-02T08:42:42Z</time>
      </trkpt>
      <trkpt lat="48.27018" lon="2.60128">
        <ele>122.59999847412</ele>
        <time>2014-02-02T08:42:43Z</time>
      </trkpt>
      <trkpt lat="48.27017" lon="2.60127">
        <ele>123</ele>
        <time>2014-02-02T08:42:44Z</time>
      </trkpt>
      <trkpt lat="48.27016" lon="2.60126">
        <ele>123.40000152588</ele>
        <time>2014-02-02T08:42:45Z</time>
      </trkpt>
      <trkpt lat="48.27014" lon="2.60125">
        <ele>123.80000305176</ele>
        <time>2014-02-02T08:42:46Z</time>
      </trkpt>
      <trkpt lat="48.27013" lon="2.60123">
        <ele>123.80000305176</ele>
        <time>2014-02-02T08:42:48Z</time>
      </trkpt>
      <trkpt lat="48.27008" lon="2.60119">
        <ele>123.80000305176</ele>
        <time>2014-02-02T08:42:55Z</time>
      </trkpt>
      <trkpt lat="48.27003" lon="2.60114">
        <ele>123.80000305176</ele>
        <time>2014-02-02T08:43:03Z</time>
      </trkpt>
      <trkpt lat="48.26987" lon="2.60107">
        <ele>124.19999694824</ele>
        <time>2014-02-02T08:43:13Z</time>
      </trkpt>
      <trkpt lat="48.26986" lon="2.60107">
        <ele>124.59999847412</ele>
        <time>2014-02-02T08:43:14Z</time>
      </trkpt>
      <trkpt lat="48.26985" lon="2.60107">
        <ele>125</ele>
        <time>2014-02-02T08:43:15Z</time>
      </trkpt>
      <trkpt lat="48.26983" lon="2.60106">
        <ele>125.40000152588</ele>
        <time>2014-02-02T08:43:16Z</time>
      </trkpt>
      <trkpt lat="48.26982" lon="2.60106">
        <ele>125.80000305176</ele>
        <time>2014-02-02T08:43:17Z</time>
      </trkpt>
      <trkpt lat="48.26978" lon="2.60107">
        <ele>125.80000305176</ele>
        <time>2014-02-02T08:43:22Z</time>
      </trkpt>
      <trkpt lat="48.26976" lon="2.60108">
        <ele>125.80000305176</ele>
        <time>2014-02-02T08:43:27Z</time>
      </trkpt>
      <trkpt lat="48.26974" lon="2.60108">
        <ele>126.40000152588</ele>
        <time>2014-02-02T08:43:29Z</time>
      </trkpt>
      <trkpt lat="48.26973" lon="2.60109">
        <ele>126.80000305176</ele>
        <time>2014-02-02T08:43:30Z</time>
      </trkpt>
      <trkpt lat="48.26972" lon="2.60108">
        <ele>127.19999694824</ele>
        <time>2014-02-02T08:43:31Z</time>
      </trkpt>
      <trkpt lat="48.26971" lon="2.60108">
        <ele>127.59999847412</ele>
        <time>2014-02-02T08:43:32Z</time>
      </trkpt>
      <trkpt lat="48.2697" lon="2.60108">
        <ele>128.19999694824</ele>
        <time>2014-02-02T08:43:33Z</time>
      </trkpt>
      <trkpt lat="48.26969" lon="2.60107">
        <ele>128.19999694824</ele>
        <time>2014-02-02T08:43:34Z</time>
      </trkpt>
      <trkpt lat="48.26964" lon="2.60106">
        <ele>128.19999694824</ele>
        <time>2014-02-02T08:43:38Z</time>
      </trkpt>
      <trkpt lat="48.26963" lon="2.60104">
        <ele>128.19999694824</ele>
        <time>2014-02-02T08:43:44Z</time>
      </trkpt>
      <trkpt lat="48.26958" lon="2.60101">
        <ele>128.19999694824</ele>
        <time>2014-02-02T08:43:51Z</time>
      </trkpt>
      <trkpt lat="48.26942" lon="2.60099">
        <ele>128.19999694824</ele>
        <time>2014-02-02T08:43:59Z</time>
      </trkpt>
      <trkpt lat="48.26928" lon="2.60098">
        <ele>128.19999694824</ele>
        <time>2014-02-02T08:44:07Z</time>
      </trkpt>
      <trkpt lat="48.26911" lon="2.60098">
        <ele>128.19999694824</ele>
        <time>2014-02-02T08:44:15Z</time>
      </trkpt>
      <trkpt lat="48.26894" lon="2.60098">
        <ele>128.19999694824</ele>
        <time>2014-02-02T08:44:22Z</time>
      </trkpt>
      <trkpt lat="48.26889" lon="2.60099">
        <ele>127.80000305176</ele>
        <time>2014-02-02T08:44:24Z</time>
      </trkpt>
      <trkpt lat="48.26886" lon="2.60099">
        <ele>127.40000152588</ele>
        <time>2014-02-02T08:44:25Z</time>
      </trkpt>
      <trkpt lat="48.26884" lon="2.60098">
        <ele>126.80000305176</ele>
        <time>2014-02-02T08:44:26Z</time>
      </trkpt>
      <trkpt lat="48.26882" lon="2.60098">
        <ele>126.40000152588</ele>
        <time>2014-02-02T08:44:27Z</time>
      </trkpt>
      <trkpt lat="48.2688" lon="2.60097">
        <ele>126</ele>
        <time>2014-02-02T08:44:28Z</time>
      </trkpt>
      <trkpt lat="48.2686" lon="2.60095">
        <ele>126</ele>
        <time>2014-02-02T08:44:37Z</time>
      </trkpt>
      <trkpt lat="48.26843" lon="2.60097">
        <ele>126</ele>
        <time>2014-02-02T08:44:45Z</time>
      </trkpt>
      <trkpt lat="48.26834" lon="2.60094">
        <ele>126</ele>
        <time>2014-02-02T08:44:50Z</time>
      </trkpt>
      <trkpt lat="48.2682" lon="2.60093">
        <ele>126</ele>
        <time>2014-02-02T08:44:57Z</time>
      </trkpt>
      <trkpt lat="48.2681" lon="2.60087">
        <ele>126</ele>
        <time>2014-02-02T08:45:02Z</time>
      </trkpt>
      <trkpt lat="48.26793" lon="2.60088">
        <ele>126</ele>
        <time>2014-02-02T08:45:08Z</time>
      </trkpt>
      <trkpt lat="48.26791" lon="2.60089">
        <ele>126</ele>
        <time>2014-02-02T08:45:09Z</time>
      </trkpt>
      <trkpt lat="48.26783" lon="2.60092">
        <ele>126</ele>
        <time>2014-02-02T08:45:12Z</time>
      </trkpt>
      <trkpt lat="48.2677" lon="2.60094">
        <ele>126</ele>
        <time>2014-02-02T08:45:17Z</time>
      </trkpt>
      <trkpt lat="48.26751" lon="2.60101">
        <ele>126</ele>
        <time>2014-02-02T08:45:24Z</time>
      </trkpt>
      <trkpt lat="48.26721" lon="2.60105">
        <ele>125.59999847412</ele>
        <time>2014-02-02T08:45:33Z</time>
      </trkpt>
      <trkpt lat="48.26717" lon="2.60106">
        <ele>125.19999694824</ele>
        <time>2014-02-02T08:45:34Z</time>
      </trkpt>
      <trkpt lat="48.26713" lon="2.60107">
        <ele>124.80000305176</ele>
        <time>2014-02-02T08:45:35Z</time>
      </trkpt>
      <trkpt lat="48.26709" lon="2.60108">
        <ele>124.40000152588</ele>
        <time>2014-02-02T08:45:36Z</time>
      </trkpt>
      <trkpt lat="48.26705" lon="2.60109">
        <ele>124</ele>
        <time>2014-02-02T08:45:37Z</time>
      </trkpt>
      <trkpt lat="48.26689" lon="2.60109">
        <ele>124</ele>
        <time>2014-02-02T08:45:41Z</time>
      </trkpt>
      <trkpt lat="48.26674" lon="2.60109">
        <ele>123.59999847412</ele>
        <time>2014-02-02T08:45:45Z</time>
      </trkpt>
      <trkpt lat="48.2667" lon="2.60108">
        <ele>123.19999694824</ele>
        <time>2014-02-02T08:45:46Z</time>
      </trkpt>
      <trkpt lat="48.26667" lon="2.60106">
        <ele>122.80000305176</ele>
        <time>2014-02-02T08:45:47Z</time>
      </trkpt>
      <trkpt lat="48.26664" lon="2.60105">
        <ele>122.40000152588</ele>
        <time>2014-02-02T08:45:48Z</time>
      </trkpt>
      <trkpt lat="48.2666" lon="2.60104">
        <ele>122</ele>
        <time>2014-02-02T08:45:49Z</time>
      </trkpt>
      <trkpt lat="48.26641" lon="2.60099">
        <ele>122</ele>
        <time>2014-02-02T08:45:55Z</time>
      </trkpt>
      <trkpt lat="48.26612" lon="2.60094">
        <ele>122</ele>
        <time>2014-02-02T08:46:05Z</time>
      </trkpt>
      <trkpt lat="48.26589" lon="2.60085">
        <ele>122</ele>
        <time>2014-02-02T08:46:13Z</time>
      </trkpt>
      <trkpt lat="48.26575" lon="2.60074">
        <ele>122</ele>
        <time>2014-02-02T08:46:20Z</time>
      </trkpt>
      <trkpt lat="48.26574" lon="2.60071">
        <ele>122</ele>
        <time>2014-02-02T08:46:21Z</time>
      </trkpt>
      <trkpt lat="48.26571" lon="2.60061">
        <ele>122</ele>
        <time>2014-02-02T08:46:24Z</time>
      </trkpt>
      <trkpt lat="48.26562" lon="2.60037">
        <ele>122</ele>
        <time>2014-02-02T08:46:30Z</time>
      </trkpt>
      <trkpt lat="48.26546" lon="2.60014">
        <ele>122</ele>
        <time>2014-02-02T08:46:37Z</time>
      </trkpt>
      <trkpt lat="48.26542" lon="2.6001">
        <ele>122</ele>
        <time>2014-02-02T08:46:39Z</time>
      </trkpt>
      <trkpt lat="48.26535" lon="2.60011">
        <ele>122</ele>
        <time>2014-02-02T08:46:41Z</time>
      </trkpt>
      <trkpt lat="48.26529" lon="2.60018">
        <ele>122</ele>
        <time>2014-02-02T08:46:43Z</time>
      </trkpt>
      <trkpt lat="48.26522" lon="2.60022">
        <ele>122</ele>
        <time>2014-02-02T08:46:45Z</time>
      </trkpt>
      <trkpt lat="48.2651" lon="2.60031">
        <ele>122</ele>
        <time>2014-02-02T08:46:50Z</time>
      </trkpt>
      <trkpt lat="48.26506" lon="2.60063">
        <ele>122</ele>
        <time>2014-02-02T08:46:56Z</time>
      </trkpt>
      <trkpt lat="48.26497" lon="2.60106">
        <ele>122</ele>
        <time>2014-02-02T08:47:03Z</time>
      </trkpt>
      <trkpt lat="48.26496" lon="2.60112">
        <ele>121.59999847412</ele>
        <time>2014-02-02T08:47:04Z</time>
      </trkpt>
      <trkpt lat="48.26494" lon="2.60118">
        <ele>121.19999694824</ele>
        <time>2014-02-02T08:47:05Z</time>
      </trkpt>
      <trkpt lat="48.26493" lon="2.60124">
        <ele>120.80000305176</ele>
        <time>2014-02-02T08:47:06Z</time>
      </trkpt>
      <trkpt lat="48.26491" lon="2.6013">
        <ele>120.19999694824</ele>
        <time>2014-02-02T08:47:07Z</time>
      </trkpt>
      <trkpt lat="48.2649" lon="2.60136">
        <ele>119.80000305176</ele>
        <time>2014-02-02T08:47:08Z</time>
      </trkpt>
      <trkpt lat="48.26483" lon="2.60161">
        <ele>119.80000305176</ele>
        <time>2014-02-02T08:47:12Z</time>
      </trkpt>
      <trkpt lat="48.26476" lon="2.60187">
        <ele>119.40000152588</ele>
        <time>2014-02-02T08:47:16Z</time>
      </trkpt>
      <trkpt lat="48.26475" lon="2.60193">
        <ele>119</ele>
        <time>2014-02-02T08:47:17Z</time>
      </trkpt>
      <trkpt lat="48.26473" lon="2.60199">
        <ele>118.59999847412</ele>
        <time>2014-02-02T08:47:18Z</time>
      </trkpt>
      <trkpt lat="48.26471" lon="2.60206">
        <ele>118</ele>
        <time>2014-02-02T08:47:19Z</time>
      </trkpt>
      <trkpt lat="48.26469" lon="2.60212">
        <ele>117.59999847412</ele>
        <time>2014-02-02T08:47:20Z</time>
      </trkpt>
      <trkpt lat="48.26466" lon="2.60226">
        <ele>117.59999847412</ele>
        <time>2014-02-02T08:47:22Z</time>
      </trkpt>
      <trkpt lat="48.26455" lon="2.60283">
        <ele>117.59999847412</ele>
        <time>2014-02-02T08:47:30Z</time>
      </trkpt>
      <trkpt lat="48.26453" lon="2.6029">
        <ele>117.19999694824</ele>
        <time>2014-02-02T08:47:31Z</time>
      </trkpt>
      <trkpt lat="48.26452" lon="2.60296">
        <ele>116.80000305176</ele>
        <time>2014-02-02T08:47:32Z</time>
      </trkpt>
      <trkpt lat="48.26451" lon="2.60303">
        <ele>116.40000152588</ele>
        <time>2014-02-02T08:47:33Z</time>
      </trkpt>
      <trkpt lat="48.2645" lon="2.60309">
        <ele>116</ele>
        <time>2014-02-02T08:47:34Z</time>
      </trkpt>
      <trkpt lat="48.26449" lon="2.60315">
        <ele>115.59999847412</ele>
        <time>2014-02-02T08:47:35Z</time>
      </trkpt>
      <trkpt lat="48.26447" lon="2.60326">
        <ele>115.59999847412</ele>
        <time>2014-02-02T08:47:37Z</time>
      </trkpt>
      <trkpt lat="48.26439" lon="2.6037">
        <ele>115.59999847412</ele>
        <time>2014-02-02T08:47:45Z</time>
      </trkpt>
      <trkpt lat="48.2643" lon="2.60406">
        <ele>115.59999847412</ele>
        <time>2014-02-02T08:47:52Z</time>
      </trkpt>
      <trkpt lat="48.26425" lon="2.6044">
        <ele>115.59999847412</ele>
        <time>2014-02-02T08:47:59Z</time>
      </trkpt>
      <trkpt lat="48.26423" lon="2.60488">
        <ele>115.59999847412</ele>
        <time>2014-02-02T08:48:07Z</time>
      </trkpt>
      <trkpt lat="48.26424" lon="2.60508">
        <ele>115.19999694824</ele>
        <time>2014-02-02T08:48:10Z</time>
      </trkpt>
      <trkpt lat="48.26425" lon="2.60515">
        <ele>114.80000305176</ele>
        <time>2014-02-02T08:48:11Z</time>
      </trkpt>
      <trkpt lat="48.26426" lon="2.60522">
        <ele>114.19999694824</ele>
        <time>2014-02-02T08:48:12Z</time>
      </trkpt>
      <trkpt lat="48.26428" lon="2.60529">
        <ele>113.80000305176</ele>
        <time>2014-02-02T08:48:13Z</time>
      </trkpt>
      <trkpt lat="48.2643" lon="2.60536">
        <ele>113.40000152588</ele>
        <time>2014-02-02T08:48:14Z</time>
      </trkpt>
      <trkpt lat="48.26439" lon="2.60561">
        <ele>113</ele>
        <time>2014-02-02T08:48:18Z</time>
      </trkpt>
      <trkpt lat="48.2644" lon="2.60568">
        <ele>112.59999847412</ele>
        <time>2014-02-02T08:48:19Z</time>
      </trkpt>
      <trkpt lat="48.26443" lon="2.60574">
        <ele>112.19999694824</ele>
        <time>2014-02-02T08:48:20Z</time>
      </trkpt>
      <trkpt lat="48.26445" lon="2.6058">
        <ele>111.80000305176</ele>
        <time>2014-02-02T08:48:21Z</time>
      </trkpt>
      <trkpt lat="48.26447" lon="2.60586">
        <ele>111.40000152588</ele>
        <time>2014-02-02T08:48:22Z</time>
      </trkpt>
      <trkpt lat="48.26451" lon="2.60599">
        <ele>111.40000152588</ele>
        <time>2014-02-02T08:48:24Z</time>
      </trkpt>
      <trkpt lat="48.26451" lon="2.60605">
        <ele>111.40000152588</ele>
        <time>2014-02-02T08:48:25Z</time>
      </trkpt>
      <trkpt lat="48.26452" lon="2.60645">
        <ele>111.40000152588</ele>
        <time>2014-02-02T08:48:32Z</time>
      </trkpt>
      <trkpt lat="48.26453" lon="2.60692">
        <ele>111.40000152588</ele>
        <time>2014-02-02T08:48:42Z</time>
      </trkpt>
      <trkpt lat="48.2645" lon="2.60716">
        <ele>111.40000152588</ele>
        <time>2014-02-02T08:48:47Z</time>
      </trkpt>
      <trkpt lat="48.26451" lon="2.60732">
        <ele>111.40000152588</ele>
        <time>2014-02-02T08:48:52Z</time>
      </trkpt>
      <trkpt lat="48.26451" lon="2.60759">
        <ele>111.40000152588</ele>
        <time>2014-02-02T08:49:00Z</time>
      </trkpt>
      <trkpt lat="48.26455" lon="2.60769">
        <ele>111.40000152588</ele>
        <time>2014-02-02T08:49:04Z</time>
      </trkpt>
      <trkpt lat="48.26456" lon="2.60773">
        <ele>111.40000152588</ele>
        <time>2014-02-02T08:49:06Z</time>
      </trkpt>
      <trkpt lat="48.26461" lon="2.60784">
        <ele>111.40000152588</ele>
        <time>2014-02-02T08:49:11Z</time>
      </trkpt>
      <trkpt lat="48.26465" lon="2.60798">
        <ele>111.80000305176</ele>
        <time>2014-02-02T08:49:16Z</time>
      </trkpt>
      <trkpt lat="48.26465" lon="2.60801">
        <ele>112.19999694824</ele>
        <time>2014-02-02T08:49:17Z</time>
      </trkpt>
      <trkpt lat="48.26466" lon="2.60803">
        <ele>112.59999847412</ele>
        <time>2014-02-02T08:49:18Z</time>
      </trkpt>
      <trkpt lat="48.26466" lon="2.60807">
        <ele>113</ele>
        <time>2014-02-02T08:49:19Z</time>
      </trkpt>
      <trkpt lat="48.26467" lon="2.6081">
        <ele>113.59999847412</ele>
        <time>2014-02-02T08:49:20Z</time>
      </trkpt>
      <trkpt lat="48.2647" lon="2.60818">
        <ele>113.59999847412</ele>
        <time>2014-02-02T08:49:23Z</time>
      </trkpt>
      <trkpt lat="48.26472" lon="2.60822">
        <ele>114</ele>
        <time>2014-02-02T08:49:25Z</time>
      </trkpt>
      <trkpt lat="48.26472" lon="2.60825">
        <ele>114.40000152588</ele>
        <time>2014-02-02T08:49:26Z</time>
      </trkpt>
      <trkpt lat="48.26472" lon="2.60829">
        <ele>114.80000305176</ele>
        <time>2014-02-02T08:49:27Z</time>
      </trkpt>
      <trkpt lat="48.26473" lon="2.60832">
        <ele>115.19999694824</ele>
        <time>2014-02-02T08:49:28Z</time>
      </trkpt>
      <trkpt lat="48.26474" lon="2.60835">
        <ele>115.59999847412</ele>
        <time>2014-02-02T08:49:29Z</time>
      </trkpt>
      <trkpt lat="48.26474" lon="2.60838">
        <ele>115.59999847412</ele>
        <time>2014-02-02T08:49:30Z</time>
      </trkpt>
      <trkpt lat="48.2648" lon="2.60868">
        <ele>115.59999847412</ele>
        <time>2014-02-02T08:49:38Z</time>
      </trkpt>
      <trkpt lat="48.26485" lon="2.60891">
        <ele>116</ele>
        <time>2014-02-02T08:49:45Z</time>
      </trkpt>
      <trkpt lat="48.26486" lon="2.60897">
        <ele>116.59999847412</ele>
        <time>2014-02-02T08:49:46Z</time>
      </trkpt>
      <trkpt lat="48.26487" lon="2.60902">
        <ele>117</ele>
        <time>2014-02-02T08:49:47Z</time>
      </trkpt>
      <trkpt lat="48.26488" lon="2.60907">
        <ele>117.40000152588</ele>
        <time>2014-02-02T08:49:48Z</time>
      </trkpt>
      <trkpt lat="48.2649" lon="2.60911">
        <ele>118</ele>
        <time>2014-02-02T08:49:49Z</time>
      </trkpt>
      <trkpt lat="48.26493" lon="2.60923">
        <ele>118</ele>
        <time>2014-02-02T08:49:52Z</time>
      </trkpt>
      <trkpt lat="48.26503" lon="2.60953">
        <ele>118</ele>
        <time>2014-02-02T08:49:59Z</time>
      </trkpt>
      <trkpt lat="48.26513" lon="2.60987">
        <ele>118</ele>
        <time>2014-02-02T08:50:06Z</time>
      </trkpt>
      <trkpt lat="48.2652" lon="2.6102">
        <ele>118</ele>
        <time>2014-02-02T08:50:12Z</time>
      </trkpt>
      <trkpt lat="48.2653" lon="2.61063">
        <ele>118</ele>
        <time>2014-02-02T08:50:19Z</time>
      </trkpt>
      <trkpt lat="48.26545" lon="2.61117">
        <ele>118</ele>
        <time>2014-02-02T08:50:29Z</time>
      </trkpt>
      <trkpt lat="48.26553" lon="2.61125">
        <ele>117.40000152588</ele>
        <time>2014-02-02T08:50:31Z</time>
      </trkpt>
      <trkpt lat="48.26558" lon="2.61127">
        <ele>117</ele>
        <time>2014-02-02T08:50:32Z</time>
      </trkpt>
      <trkpt lat="48.26564" lon="2.61128">
        <ele>116.59999847412</ele>
        <time>2014-02-02T08:50:33Z</time>
      </trkpt>
      <trkpt lat="48.26569" lon="2.61128">
        <ele>116.19999694824</ele>
        <time>2014-02-02T08:50:34Z</time>
      </trkpt>
      <trkpt lat="48.26574" lon="2.61127">
        <ele>115.59999847412</ele>
        <time>2014-02-02T08:50:35Z</time>
      </trkpt>
      <trkpt lat="48.26579" lon="2.61125">
        <ele>115</ele>
        <time>2014-02-02T08:50:36Z</time>
      </trkpt>
      <trkpt lat="48.26584" lon="2.61123">
        <ele>114.19999694824</ele>
        <time>2014-02-02T08:50:37Z</time>
      </trkpt>
      <trkpt lat="48.2659" lon="2.6112">
        <ele>113.59999847412</ele>
        <time>2014-02-02T08:50:38Z</time>
      </trkpt>
      <trkpt lat="48.26596" lon="2.61118">
        <ele>113</ele>
        <time>2014-02-02T08:50:39Z</time>
      </trkpt>
      <trkpt lat="48.26601" lon="2.61116">
        <ele>112.19999694824</ele>
        <time>2014-02-02T08:50:40Z</time>
      </trkpt>
      <trkpt lat="48.26605" lon="2.61114">
        <ele>111.40000152588</ele>
        <time>2014-02-02T08:50:41Z</time>
      </trkpt>
      <trkpt lat="48.26609" lon="2.61112">
        <ele>110.80000305176</ele>
        <time>2014-02-02T08:50:42Z</time>
      </trkpt>
      <trkpt lat="48.26613" lon="2.61111">
        <ele>110</ele>
        <time>2014-02-02T08:50:43Z</time>
      </trkpt>
      <trkpt lat="48.26616" lon="2.61111">
        <ele>109.19999694824</ele>
        <time>2014-02-02T08:50:44Z</time>
      </trkpt>
      <trkpt lat="48.26618" lon="2.61112">
        <ele>108.59999847412</ele>
        <time>2014-02-02T08:50:45Z</time>
      </trkpt>
      <trkpt lat="48.26619" lon="2.61114">
        <ele>108</ele>
        <time>2014-02-02T08:50:46Z</time>
      </trkpt>
      <trkpt lat="48.26621" lon="2.61118">
        <ele>107.59999847412</ele>
        <time>2014-02-02T08:50:47Z</time>
      </trkpt>
      <trkpt lat="48.26622" lon="2.61122">
        <ele>107</ele>
        <time>2014-02-02T08:50:48Z</time>
      </trkpt>
      <trkpt lat="48.26622" lon="2.61124">
        <ele>106.40000152588</ele>
        <time>2014-02-02T08:50:49Z</time>
      </trkpt>
      <trkpt lat="48.26623" lon="2.6113">
        <ele>106.40000152588</ele>
        <time>2014-02-02T08:50:51Z</time>
      </trkpt>
      <trkpt lat="48.26624" lon="2.61142">
        <ele>106.40000152588</ele>
        <time>2014-02-02T08:50:53Z</time>
      </trkpt>
      <trkpt lat="48.26625" lon="2.61158">
        <ele>106.40000152588</ele>
        <time>2014-02-02T08:50:57Z</time>
      </trkpt>
      <trkpt lat="48.26622" lon="2.61161">
        <ele>106.40000152588</ele>
        <time>2014-02-02T08:51:02Z</time>
      </trkpt>
      <trkpt lat="48.26612" lon="2.61174">
        <ele>106.40000152588</ele>
        <time>2014-02-02T08:51:09Z</time>
      </trkpt>
      <trkpt lat="48.26604" lon="2.612">
        <ele>106.40000152588</ele>
        <time>2014-02-02T08:51:16Z</time>
      </trkpt>
      <trkpt lat="48.26603" lon="2.61208">
        <ele>106.80000305176</ele>
        <time>2014-02-02T08:51:18Z</time>
      </trkpt>
      <trkpt lat="48.26602" lon="2.61211">
        <ele>107.19999694824</ele>
        <time>2014-02-02T08:51:19Z</time>
      </trkpt>
      <trkpt lat="48.26601" lon="2.61214">
        <ele>107.59999847412</ele>
        <time>2014-02-02T08:51:20Z</time>
      </trkpt>
      <trkpt lat="48.266" lon="2.61218">
        <ele>108</ele>
        <time>2014-02-02T08:51:21Z</time>
      </trkpt>
      <trkpt lat="48.266" lon="2.61221">
        <ele>108.40000152588</ele>
        <time>2014-02-02T08:51:22Z</time>
      </trkpt>
      <trkpt lat="48.266" lon="2.61225">
        <ele>108.40000152588</ele>
        <time>2014-02-02T08:51:23Z</time>
      </trkpt>
      <trkpt lat="48.266" lon="2.61243">
        <ele>108.80000305176</ele>
        <time>2014-02-02T08:51:29Z</time>
      </trkpt>
      <trkpt lat="48.266" lon="2.61246">
        <ele>109.40000152588</ele>
        <time>2014-02-02T08:51:30Z</time>
      </trkpt>
      <trkpt lat="48.266" lon="2.6125">
        <ele>109.80000305176</ele>
        <time>2014-02-02T08:51:31Z</time>
      </trkpt>
      <trkpt lat="48.266" lon="2.61254">
        <ele>110.19999694824</ele>
        <time>2014-02-02T08:51:32Z</time>
      </trkpt>
      <trkpt lat="48.266" lon="2.61257">
        <ele>110.59999847412</ele>
        <time>2014-02-02T08:51:33Z</time>
      </trkpt>
      <trkpt lat="48.26601" lon="2.61275">
        <ele>110.59999847412</ele>
        <time>2014-02-02T08:51:38Z</time>
      </trkpt>
      <trkpt lat="48.26603" lon="2.61296">
        <ele>110.59999847412</ele>
        <time>2014-02-02T08:51:44Z</time>
      </trkpt>
      <trkpt lat="48.26604" lon="2.613">
        <ele>111</ele>
        <time>2014-02-02T08:51:45Z</time>
      </trkpt>
      <trkpt lat="48.26605" lon="2.61304">
        <ele>111.40000152588</ele>
        <time>2014-02-02T08:51:46Z</time>
      </trkpt>
      <trkpt lat="48.26606" lon="2.61308">
        <ele>112</ele>
        <time>2014-02-02T08:51:47Z</time>
      </trkpt>
      <trkpt lat="48.26607" lon="2.61312">
        <ele>112.40000152588</ele>
        <time>2014-02-02T08:51:48Z</time>
      </trkpt>
      <trkpt lat="48.26608" lon="2.61316">
        <ele>112.80000305176</ele>
        <time>2014-02-02T08:51:49Z</time>
      </trkpt>
      <trkpt lat="48.26611" lon="2.61325">
        <ele>112.80000305176</ele>
        <time>2014-02-02T08:51:51Z</time>
      </trkpt>
      <trkpt lat="48.26621" lon="2.61341">
        <ele>112.80000305176</ele>
        <time>2014-02-02T08:51:56Z</time>
      </trkpt>
      <trkpt lat="48.2664" lon="2.61365">
        <ele>112.80000305176</ele>
        <time>2014-02-02T08:52:03Z</time>
      </trkpt>
      <trkpt lat="48.2666" lon="2.61385">
        <ele>112.80000305176</ele>
        <time>2014-02-02T08:52:09Z</time>
      </trkpt>
      <trkpt lat="48.26683" lon="2.61409">
        <ele>112.80000305176</ele>
        <time>2014-02-02T08:52:16Z</time>
      </trkpt>
      <trkpt lat="48.26691" lon="2.61442">
        <ele>112.80000305176</ele>
        <time>2014-02-02T08:52:21Z</time>
      </trkpt>
      <trkpt lat="48.26693" lon="2.61449">
        <ele>112.19999694824</ele>
        <time>2014-02-02T08:52:22Z</time>
      </trkpt>
      <trkpt lat="48.26695" lon="2.61457">
        <ele>111.80000305176</ele>
        <time>2014-02-02T08:52:23Z</time>
      </trkpt>
      <trkpt lat="48.26697" lon="2.61466">
        <ele>111.40000152588</ele>
        <time>2014-02-02T08:52:24Z</time>
      </trkpt>
      <trkpt lat="48.26699" lon="2.61476">
        <ele>111</ele>
        <time>2014-02-02T08:52:25Z</time>
      </trkpt>
      <trkpt lat="48.267" lon="2.61485">
        <ele>110.40000152588</ele>
        <time>2014-02-02T08:52:26Z</time>
      </trkpt>
      <trkpt lat="48.26701" lon="2.61494">
        <ele>110</ele>
        <time>2014-02-02T08:52:27Z</time>
      </trkpt>
      <trkpt lat="48.26701" lon="2.61504">
        <ele>109.40000152588</ele>
        <time>2014-02-02T08:52:28Z</time>
      </trkpt>
      <trkpt lat="48.267" lon="2.61515">
        <ele>109</ele>
        <time>2014-02-02T08:52:29Z</time>
      </trkpt>
      <trkpt lat="48.26699" lon="2.61526">
        <ele>108.40000152588</ele>
        <time>2014-02-02T08:52:30Z</time>
      </trkpt>
      <trkpt lat="48.26696" lon="2.61536">
        <ele>108</ele>
        <time>2014-02-02T08:52:31Z</time>
      </trkpt>
      <trkpt lat="48.26693" lon="2.61546">
        <ele>107.40000152588</ele>
        <time>2014-02-02T08:52:32Z</time>
      </trkpt>
      <trkpt lat="48.2669" lon="2.61556">
        <ele>107</ele>
        <time>2014-02-02T08:52:33Z</time>
      </trkpt>
      <trkpt lat="48.26688" lon="2.61567">
        <ele>106.40000152588</ele>
        <time>2014-02-02T08:52:34Z</time>
      </trkpt>
      <trkpt lat="48.26685" lon="2.61576">
        <ele>106</ele>
        <time>2014-02-02T08:52:35Z</time>
      </trkpt>
      <trkpt lat="48.26683" lon="2.61584">
        <ele>105.40000152588</ele>
        <time>2014-02-02T08:52:36Z</time>
      </trkpt>
      <trkpt lat="48.26682" lon="2.61589">
        <ele>104.80000305176</ele>
        <time>2014-02-02T08:52:37Z</time>
      </trkpt>
      <trkpt lat="48.26681" lon="2.61593">
        <ele>104.40000152588</ele>
        <time>2014-02-02T08:52:38Z</time>
      </trkpt>
      <trkpt lat="48.2668" lon="2.61596">
        <ele>103.80000305176</ele>
        <time>2014-02-02T08:52:39Z</time>
      </trkpt>
      <trkpt lat="48.2668" lon="2.61599">
        <ele>104.19999694824</ele>
        <time>2014-02-02T08:52:40Z</time>
      </trkpt>
      <trkpt lat="48.26679" lon="2.61601">
        <ele>104.80000305176</ele>
        <time>2014-02-02T08:52:41Z</time>
      </trkpt>
      <trkpt lat="48.26678" lon="2.61603">
        <ele>105.19999694824</ele>
        <time>2014-02-02T08:52:42Z</time>
      </trkpt>
      <trkpt lat="48.26677" lon="2.61606">
        <ele>105.59999847412</ele>
        <time>2014-02-02T08:52:43Z</time>
      </trkpt>
      <trkpt lat="48.26676" lon="2.61608">
        <ele>106.19999694824</ele>
        <time>2014-02-02T08:52:44Z</time>
      </trkpt>
      <trkpt lat="48.26675" lon="2.61612">
        <ele>106.59999847412</ele>
        <time>2014-02-02T08:52:46Z</time>
      </trkpt>
      <trkpt lat="48.26674" lon="2.61615">
        <ele>107</ele>
        <time>2014-02-02T08:52:47Z</time>
      </trkpt>
      <trkpt lat="48.26673" lon="2.61617">
        <ele>107.40000152588</ele>
        <time>2014-02-02T08:52:48Z</time>
      </trkpt>
      <trkpt lat="48.26672" lon="2.61619">
        <ele>107.80000305176</ele>
        <time>2014-02-02T08:52:49Z</time>
      </trkpt>
      <trkpt lat="48.26671" lon="2.61621">
        <ele>108.19999694824</ele>
        <time>2014-02-02T08:52:50Z</time>
      </trkpt>
      <trkpt lat="48.26669" lon="2.61627">
        <ele>108.19999694824</ele>
        <time>2014-02-02T08:52:52Z</time>
      </trkpt>
      <trkpt lat="48.26667" lon="2.61633">
        <ele>108.59999847412</ele>
        <time>2014-02-02T08:52:54Z</time>
      </trkpt>
      <trkpt lat="48.26665" lon="2.61635">
        <ele>109</ele>
        <time>2014-02-02T08:52:55Z</time>
      </trkpt>
      <trkpt lat="48.26664" lon="2.61638">
        <ele>109.40000152588</ele>
        <time>2014-02-02T08:52:56Z</time>
      </trkpt>
      <trkpt lat="48.26663" lon="2.61641">
        <ele>109.80000305176</ele>
        <time>2014-02-02T08:52:57Z</time>
      </trkpt>
      <trkpt lat="48.26662" lon="2.61644">
        <ele>110.19999694824</ele>
        <time>2014-02-02T08:52:58Z</time>
      </trkpt>
      <trkpt lat="48.26662" lon="2.61646">
        <ele>110.19999694824</ele>
        <time>2014-02-02T08:52:59Z</time>
      </trkpt>
      <trkpt lat="48.26657" lon="2.61668">
        <ele>110.59999847412</ele>
        <time>2014-02-02T08:53:06Z</time>
      </trkpt>
      <trkpt lat="48.26657" lon="2.61672">
        <ele>111</ele>
        <time>2014-02-02T08:53:07Z</time>
      </trkpt>
      <trkpt lat="48.26657" lon="2.61677">
        <ele>111.59999847412</ele>
        <time>2014-02-02T08:53:08Z</time>
      </trkpt>
      <trkpt lat="48.26656" lon="2.61683">
        <ele>112</ele>
        <time>2014-02-02T08:53:09Z</time>
      </trkpt>
      <trkpt lat="48.26656" lon="2.61687">
        <ele>112.40000152588</ele>
        <time>2014-02-02T08:53:10Z</time>
      </trkpt>
      <trkpt lat="48.26654" lon="2.61712">
        <ele>112.40000152588</ele>
        <time>2014-02-02T08:53:15Z</time>
      </trkpt>
      <trkpt lat="48.26651" lon="2.61742">
        <ele>112.40000152588</ele>
        <time>2014-02-02T08:53:21Z</time>
      </trkpt>
      <trkpt lat="48.26644" lon="2.61785">
        <ele>112.40000152588</ele>
        <time>2014-02-02T08:53:29Z</time>
      </trkpt>
      <trkpt lat="48.26648" lon="2.6182">
        <ele>112.40000152588</ele>
        <time>2014-02-02T08:53:36Z</time>
      </trkpt>
      <trkpt lat="48.26667" lon="2.61848">
        <ele>112.40000152588</ele>
        <time>2014-02-02T08:53:43Z</time>
      </trkpt>
      <trkpt lat="48.26688" lon="2.61863">
        <ele>112.40000152588</ele>
        <time>2014-02-02T08:53:49Z</time>
      </trkpt>
      <trkpt lat="48.26714" lon="2.61887">
        <ele>112.40000152588</ele>
        <time>2014-02-02T08:53:56Z</time>
      </trkpt>
      <trkpt lat="48.26727" lon="2.61906">
        <ele>111.80000305176</ele>
        <time>2014-02-02T08:54:00Z</time>
      </trkpt>
      <trkpt lat="48.26731" lon="2.61911">
        <ele>111.40000152588</ele>
        <time>2014-02-02T08:54:01Z</time>
      </trkpt>
      <trkpt lat="48.26736" lon="2.61915">
        <ele>111</ele>
        <time>2014-02-02T08:54:02Z</time>
      </trkpt>
      <trkpt lat="48.26741" lon="2.61921">
        <ele>110.19999694824</ele>
        <time>2014-02-02T08:54:03Z</time>
      </trkpt>
      <trkpt lat="48.26746" lon="2.61926">
        <ele>109.59999847412</ele>
        <time>2014-02-02T08:54:04Z</time>
      </trkpt>
      <trkpt lat="48.26751" lon="2.61933">
        <ele>109</ele>
        <time>2014-02-02T08:54:05Z</time>
      </trkpt>
      <trkpt lat="48.26757" lon="2.61937">
        <ele>108.40000152588</ele>
        <time>2014-02-02T08:54:06Z</time>
      </trkpt>
      <trkpt lat="48.26763" lon="2.61942">
        <ele>107.80000305176</ele>
        <time>2014-02-02T08:54:07Z</time>
      </trkpt>
      <trkpt lat="48.26768" lon="2.61946">
        <ele>107.19999694824</ele>
        <time>2014-02-02T08:54:08Z</time>
      </trkpt>
      <trkpt lat="48.26773" lon="2.6195">
        <ele>106.59999847412</ele>
        <time>2014-02-02T08:54:09Z</time>
      </trkpt>
      <trkpt lat="48.26777" lon="2.61951">
        <ele>106</ele>
        <time>2014-02-02T08:54:10Z</time>
      </trkpt>
      <trkpt lat="48.26781" lon="2.61954">
        <ele>105.19999694824</ele>
        <time>2014-02-02T08:54:11Z</time>
      </trkpt>
      <trkpt lat="48.26786" lon="2.61957">
        <ele>105.19999694824</ele>
        <time>2014-02-02T08:54:13Z</time>
      </trkpt>
      <trkpt lat="48.26801" lon="2.61977">
        <ele>105.19999694824</ele>
        <time>2014-02-02T08:54:19Z</time>
      </trkpt>
      <trkpt lat="48.26809" lon="2.61987">
        <ele>105.19999694824</ele>
        <time>2014-02-02T08:54:24Z</time>
      </trkpt>
      <trkpt lat="48.2681" lon="2.61988">
        <ele>105.80000305176</ele>
        <time>2014-02-02T08:54:25Z</time>
      </trkpt>
      <trkpt lat="48.26812" lon="2.61989">
        <ele>106.19999694824</ele>
        <time>2014-02-02T08:54:26Z</time>
      </trkpt>
      <trkpt lat="48.26814" lon="2.61992">
        <ele>106.59999847412</ele>
        <time>2014-02-02T08:54:27Z</time>
      </trkpt>
      <trkpt lat="48.26816" lon="2.61995">
        <ele>107</ele>
        <time>2014-02-02T08:54:28Z</time>
      </trkpt>
      <trkpt lat="48.26817" lon="2.61998">
        <ele>107.40000152588</ele>
        <time>2014-02-02T08:54:29Z</time>
      </trkpt>
      <trkpt lat="48.26818" lon="2.62001">
        <ele>107.40000152588</ele>
        <time>2014-02-02T08:54:30Z</time>
      </trkpt>
      <trkpt lat="48.26825" lon="2.62018">
        <ele>107.40000152588</ele>
        <time>2014-02-02T08:54:37Z</time>
      </trkpt>
      <trkpt lat="48.2683" lon="2.62027">
        <ele>107.80000305176</ele>
        <time>2014-02-02T08:54:42Z</time>
      </trkpt>
      <trkpt lat="48.2683" lon="2.62028">
        <ele>108.19999694824</ele>
        <time>2014-02-02T08:54:43Z</time>
      </trkpt>
      <trkpt lat="48.26831" lon="2.6203">
        <ele>108.59999847412</ele>
        <time>2014-02-02T08:54:44Z</time>
      </trkpt>
      <trkpt lat="48.26832" lon="2.62031">
        <ele>109</ele>
        <time>2014-02-02T08:54:45Z</time>
      </trkpt>
      <trkpt lat="48.26833" lon="2.62033">
        <ele>109.59999847412</ele>
        <time>2014-02-02T08:54:46Z</time>
      </trkpt>
      <trkpt lat="48.26834" lon="2.62035">
        <ele>110</ele>
        <time>2014-02-02T08:54:47Z</time>
      </trkpt>
      <trkpt lat="48.26834" lon="2.62038">
        <ele>110.40000152588</ele>
        <time>2014-02-02T08:54:48Z</time>
      </trkpt>
      <trkpt lat="48.26835" lon="2.62041">
        <ele>110.80000305176</ele>
        <time>2014-02-02T08:54:49Z</time>
      </trkpt>
      <trkpt lat="48.26836" lon="2.62043">
        <ele>111.19999694824</ele>
        <time>2014-02-02T08:54:50Z</time>
      </trkpt>
      <trkpt lat="48.26836" lon="2.62046">
        <ele>111.80000305176</ele>
        <time>2014-02-02T08:54:51Z</time>
      </trkpt>
      <trkpt lat="48.26841" lon="2.62055">
        <ele>111.80000305176</ele>
        <time>2014-02-02T08:54:56Z</time>
      </trkpt>
      <trkpt lat="48.26854" lon="2.62084">
        <ele>111.80000305176</ele>
        <time>2014-02-02T08:55:07Z</time>
      </trkpt>
      <trkpt lat="48.26861" lon="2.62099">
        <ele>111.80000305176</ele>
        <time>2014-02-02T08:55:14Z</time>
      </trkpt>
      <trkpt lat="48.26868" lon="2.62119">
        <ele>111.80000305176</ele>
        <time>2014-02-02T08:55:22Z</time>
      </trkpt>
      <trkpt lat="48.26875" lon="2.6214">
        <ele>111.80000305176</ele>
        <time>2014-02-02T08:55:30Z</time>
      </trkpt>
      <trkpt lat="48.26883" lon="2.6216">
        <ele>111.80000305176</ele>
        <time>2014-02-02T08:55:36Z</time>
      </trkpt>
      <trkpt lat="48.26884" lon="2.62176">
        <ele>111.80000305176</ele>
        <time>2014-02-02T08:55:41Z</time>
      </trkpt>
      <trkpt lat="48.26881" lon="2.62187">
        <ele>111.80000305176</ele>
        <time>2014-02-02T08:55:46Z</time>
      </trkpt>
      <trkpt lat="48.26875" lon="2.62192">
        <ele>111.80000305176</ele>
        <time>2014-02-02T08:55:49Z</time>
      </trkpt>
      <trkpt lat="48.26873" lon="2.62197">
        <ele>111.80000305176</ele>
        <time>2014-02-02T08:55:51Z</time>
      </trkpt>
      <trkpt lat="48.26873" lon="2.6221">
        <ele>111.80000305176</ele>
        <time>2014-02-02T08:55:56Z</time>
      </trkpt>
      <trkpt lat="48.26874" lon="2.62212">
        <ele>111.80000305176</ele>
        <time>2014-02-02T08:55:57Z</time>
      </trkpt>
      <trkpt lat="48.26877" lon="2.62229">
        <ele>111.80000305176</ele>
        <time>2014-02-02T08:56:03Z</time>
      </trkpt>
      <trkpt lat="48.26883" lon="2.62245">
        <ele>111.80000305176</ele>
        <time>2014-02-02T08:56:08Z</time>
      </trkpt>
      <trkpt lat="48.26885" lon="2.62245">
        <ele>111.80000305176</ele>
        <time>2014-02-02T08:56:09Z</time>
      </trkpt>
      <trkpt lat="48.26891" lon="2.62246">
        <ele>111.80000305176</ele>
        <time>2014-02-02T08:56:14Z</time>
      </trkpt>
      <trkpt lat="48.26889" lon="2.62257">
        <ele>111.80000305176</ele>
        <time>2014-02-02T08:56:20Z</time>
      </trkpt>
      <trkpt lat="48.2689" lon="2.62263">
        <ele>111.80000305176</ele>
        <time>2014-02-02T08:56:22Z</time>
      </trkpt>
      <trkpt lat="48.26892" lon="2.6228">
        <ele>111.80000305176</ele>
        <time>2014-02-02T08:56:26Z</time>
      </trkpt>
      <trkpt lat="48.26893" lon="2.62302">
        <ele>111.80000305176</ele>
        <time>2014-02-02T08:56:32Z</time>
      </trkpt>
      <trkpt lat="48.26902" lon="2.62329">
        <ele>111.80000305176</ele>
        <time>2014-02-02T08:56:38Z</time>
      </trkpt>
      <trkpt lat="48.2691" lon="2.62332">
        <ele>111.80000305176</ele>
        <time>2014-02-02T08:56:41Z</time>
      </trkpt>
      <trkpt lat="48.26912" lon="2.62332">
        <ele>111.80000305176</ele>
        <time>2014-02-02T08:56:42Z</time>
      </trkpt>
      <trkpt lat="48.26918" lon="2.62314">
        <ele>111.80000305176</ele>
        <time>2014-02-02T08:56:48Z</time>
      </trkpt>
      <trkpt lat="48.26916" lon="2.62301">
        <ele>111.80000305176</ele>
        <time>2014-02-02T08:56:53Z</time>
      </trkpt>
      <trkpt lat="48.26918" lon="2.62292">
        <ele>111.80000305176</ele>
        <time>2014-02-02T08:57:00Z</time>
      </trkpt>
      <trkpt lat="48.26926" lon="2.6228">
        <ele>111.80000305176</ele>
        <time>2014-02-02T08:57:07Z</time>
      </trkpt>
      <trkpt lat="48.26935" lon="2.62266">
        <ele>111.80000305176</ele>
        <time>2014-02-02T08:57:14Z</time>
      </trkpt>
      <trkpt lat="48.26934" lon="2.62249">
        <ele>111.80000305176</ele>
        <time>2014-02-02T08:57:20Z</time>
      </trkpt>
      <trkpt lat="48.26931" lon="2.6223">
        <ele>111.80000305176</ele>
        <time>2014-02-02T08:57:26Z</time>
      </trkpt>
      <trkpt lat="48.26929" lon="2.62215">
        <ele>111.19999694824</ele>
        <time>2014-02-02T08:57:30Z</time>
      </trkpt>
      <trkpt lat="48.26929" lon="2.62213">
        <ele>110.80000305176</ele>
        <time>2014-02-02T08:57:31Z</time>
      </trkpt>
      <trkpt lat="48.26929" lon="2.62209">
        <ele>110.40000152588</ele>
        <time>2014-02-02T08:57:32Z</time>
      </trkpt>
      <trkpt lat="48.26929" lon="2.62206">
        <ele>110</ele>
        <time>2014-02-02T08:57:33Z</time>
      </trkpt>
      <trkpt lat="48.26928" lon="2.62203">
        <ele>109.59999847412</ele>
        <time>2014-02-02T08:57:34Z</time>
      </trkpt>
      <trkpt lat="48.26928" lon="2.6219">
        <ele>109.59999847412</ele>
        <time>2014-02-02T08:57:37Z</time>
      </trkpt>
      <trkpt lat="48.26917" lon="2.62175">
        <ele>109.59999847412</ele>
        <time>2014-02-02T08:57:43Z</time>
      </trkpt>
      <trkpt lat="48.2691" lon="2.62155">
        <ele>109.59999847412</ele>
        <time>2014-02-02T08:57:50Z</time>
      </trkpt>
      <trkpt lat="48.26915" lon="2.62148">
        <ele>109.59999847412</ele>
        <time>2014-02-02T08:57:53Z</time>
      </trkpt>
      <trkpt lat="48.26916" lon="2.62147">
        <ele>109.59999847412</ele>
        <time>2014-02-02T08:57:54Z</time>
      </trkpt>
      <trkpt lat="48.26923" lon="2.62136">
        <ele>109.19999694824</ele>
        <time>2014-02-02T08:57:59Z</time>
      </trkpt>
      <trkpt lat="48.26924" lon="2.62135">
        <ele>108.80000305176</ele>
        <time>2014-02-02T08:58:00Z</time>
      </trkpt>
      <trkpt lat="48.26923" lon="2.62134">
        <ele>108.19999694824</ele>
        <time>2014-02-02T08:58:01Z</time>
      </trkpt>
      <trkpt lat="48.26923" lon="2.62132">
        <ele>107.80000305176</ele>
        <time>2014-02-02T08:58:02Z</time>
      </trkpt>
      <trkpt lat="48.26921" lon="2.6213">
        <ele>107.40000152588</ele>
        <time>2014-02-02T08:58:03Z</time>
      </trkpt>
      <trkpt lat="48.26919" lon="2.62107">
        <ele>107.40000152588</ele>
        <time>2014-02-02T08:58:08Z</time>
      </trkpt>
      <trkpt lat="48.26915" lon="2.62091">
        <ele>107.40000152588</ele>
        <time>2014-02-02T08:58:13Z</time>
      </trkpt>
      <trkpt lat="48.26913" lon="2.62064">
        <ele>107.40000152588</ele>
        <time>2014-02-02T08:58:21Z</time>
      </trkpt>
      <trkpt lat="48.26911" lon="2.62056">
        <ele>107.40000152588</ele>
        <time>2014-02-02T08:58:27Z</time>
      </trkpt>
      <trkpt lat="48.26905" lon="2.62049">
        <ele>108</ele>
        <time>2014-02-02T08:59:00Z</time>
      </trkpt>
      <trkpt lat="48.26904" lon="2.62049">
        <ele>108.59999847412</ele>
        <time>2014-02-02T08:59:01Z</time>
      </trkpt>
      <trkpt lat="48.26904" lon="2.62049">
        <ele>109</ele>
        <time>2014-02-02T08:59:02Z</time>
      </trkpt>
      <trkpt lat="48.26903" lon="2.62049">
        <ele>109.59999847412</ele>
        <time>2014-02-02T08:59:03Z</time>
      </trkpt>
      <trkpt lat="48.26902" lon="2.62049">
        <ele>110.19999694824</ele>
        <time>2014-02-02T08:59:04Z</time>
      </trkpt>
      <trkpt lat="48.269" lon="2.62044">
        <ele>110.19999694824</ele>
        <time>2014-02-02T08:59:12Z</time>
      </trkpt>
      <trkpt lat="48.26897" lon="2.62039">
        <ele>110.19999694824</ele>
        <time>2014-02-02T08:59:15Z</time>
      </trkpt>
      <trkpt lat="48.26892" lon="2.62038">
        <ele>110.19999694824</ele>
        <time>2014-02-02T08:59:17Z</time>
      </trkpt>
      <trkpt lat="48.26872" lon="2.62021">
        <ele>110.19999694824</ele>
        <time>2014-02-02T08:59:26Z</time>
      </trkpt>
      <trkpt lat="48.26872" lon="2.62011">
        <ele>110.19999694824</ele>
        <time>2014-02-02T08:59:31Z</time>
      </trkpt>
      <trkpt lat="48.26873" lon="2.62011">
        <ele>110.19999694824</ele>
        <time>2014-02-02T08:59:32Z</time>
      </trkpt>
      <trkpt lat="48.26875" lon="2.6201">
        <ele>110.19999694824</ele>
        <time>2014-02-02T08:59:34Z</time>
      </trkpt>
      <trkpt lat="48.26876" lon="2.6201">
        <ele>110.19999694824</ele>
        <time>2014-02-02T08:59:36Z</time>
      </trkpt>
      <trkpt lat="48.26881" lon="2.6202">
        <ele>110.19999694824</ele>
        <time>2014-02-02T08:59:42Z</time>
      </trkpt>
      <trkpt lat="48.26882" lon="2.62021">
        <ele>110.19999694824</ele>
        <time>2014-02-02T08:59:43Z</time>
      </trkpt>
      <trkpt lat="48.26887" lon="2.62021">
        <ele>110.19999694824</ele>
        <time>2014-02-02T08:59:48Z</time>
      </trkpt>
      <trkpt lat="48.2689" lon="2.62018">
        <ele>109.80000305176</ele>
        <time>2014-02-02T08:59:52Z</time>
      </trkpt>
      <trkpt lat="48.26889" lon="2.62016">
        <ele>109.40000152588</ele>
        <time>2014-02-02T08:59:53Z</time>
      </trkpt>
      <trkpt lat="48.2689" lon="2.62015">
        <ele>109</ele>
        <time>2014-02-02T08:59:54Z</time>
      </trkpt>
      <trkpt lat="48.2689" lon="2.62013">
        <ele>108.59999847412</ele>
        <time>2014-02-02T08:59:55Z</time>
      </trkpt>
      <trkpt lat="48.26891" lon="2.62012">
        <ele>108.19999694824</ele>
        <time>2014-02-02T08:59:56Z</time>
      </trkpt>
      <trkpt lat="48.26896" lon="2.62">
        <ele>108.19999694824</ele>
        <time>2014-02-02T09:00:03Z</time>
      </trkpt>
      <trkpt lat="48.26897" lon="2.62002">
        <ele>108.59999847412</ele>
        <time>2014-02-02T09:00:10Z</time>
      </trkpt>
      <trkpt lat="48.26897" lon="2.62002">
        <ele>109</ele>
        <time>2014-02-02T09:00:11Z</time>
      </trkpt>
      <trkpt lat="48.26897" lon="2.62002">
        <ele>109.40000152588</ele>
        <time>2014-02-02T09:00:12Z</time>
      </trkpt>
      <trkpt lat="48.26897" lon="2.62002">
        <ele>110</ele>
        <time>2014-02-02T09:00:13Z</time>
      </trkpt>
      <trkpt lat="48.26897" lon="2.62002">
        <ele>110.40000152588</ele>
        <time>2014-02-02T09:00:14Z</time>
      </trkpt>
      <trkpt lat="48.26899" lon="2.6199">
        <ele>110.40000152588</ele>
        <time>2014-02-02T09:00:38Z</time>
      </trkpt>
      <trkpt lat="48.26902" lon="2.61979">
        <ele>110.40000152588</ele>
        <time>2014-02-02T09:00:45Z</time>
      </trkpt>
      <trkpt lat="48.269" lon="2.61975">
        <ele>110.40000152588</ele>
        <time>2014-02-02T09:00:51Z</time>
      </trkpt>
      <trkpt lat="48.26896" lon="2.61972">
        <ele>110.40000152588</ele>
        <time>2014-02-02T09:01:03Z</time>
      </trkpt>
      <trkpt lat="48.26891" lon="2.61963">
        <ele>110.40000152588</ele>
        <time>2014-02-02T09:01:09Z</time>
      </trkpt>
      <trkpt lat="48.26889" lon="2.6196">
        <ele>110.40000152588</ele>
        <time>2014-02-02T09:01:11Z</time>
      </trkpt>
      <trkpt lat="48.26886" lon="2.61938">
        <ele>110.40000152588</ele>
        <time>2014-02-02T09:01:19Z</time>
      </trkpt>
      <trkpt lat="48.26893" lon="2.61928">
        <ele>110.40000152588</ele>
        <time>2014-02-02T09:01:24Z</time>
      </trkpt>
      <trkpt lat="48.26891" lon="2.61911">
        <ele>110.40000152588</ele>
        <time>2014-02-02T09:01:30Z</time>
      </trkpt>
      <trkpt lat="48.2689" lon="2.61909">
        <ele>110.40000152588</ele>
        <time>2014-02-02T09:01:31Z</time>
      </trkpt>
      <trkpt lat="48.26887" lon="2.61892">
        <ele>110.80000305176</ele>
        <time>2014-02-02T09:01:38Z</time>
      </trkpt>
      <trkpt lat="48.26886" lon="2.6189">
        <ele>111.19999694824</ele>
        <time>2014-02-02T09:01:39Z</time>
      </trkpt>
      <trkpt lat="48.26885" lon="2.61886">
        <ele>111.59999847412</ele>
        <time>2014-02-02T09:01:40Z</time>
      </trkpt>
      <trkpt lat="48.26884" lon="2.61883">
        <ele>112</ele>
        <time>2014-02-02T09:01:41Z</time>
      </trkpt>
      <trkpt lat="48.26883" lon="2.6188">
        <ele>112.40000152588</ele>
        <time>2014-02-02T09:01:42Z</time>
      </trkpt>
      <trkpt lat="48.2688" lon="2.61864">
        <ele>112.40000152588</ele>
        <time>2014-02-02T09:01:47Z</time>
      </trkpt>
      <trkpt lat="48.26878" lon="2.61849">
        <ele>112.40000152588</ele>
        <time>2014-02-02T09:01:53Z</time>
      </trkpt>
      <trkpt lat="48.26878" lon="2.61832">
        <ele>113</ele>
        <time>2014-02-02T09:01:58Z</time>
      </trkpt>
      <trkpt lat="48.26879" lon="2.61828">
        <ele>113.40000152588</ele>
        <time>2014-02-02T09:01:59Z</time>
      </trkpt>
      <trkpt lat="48.2688" lon="2.61825">
        <ele>113.80000305176</ele>
        <time>2014-02-02T09:02:00Z</time>
      </trkpt>
      <trkpt lat="48.26881" lon="2.61822">
        <ele>114.19999694824</ele>
        <time>2014-02-02T09:02:01Z</time>
      </trkpt>
      <trkpt lat="48.26881" lon="2.61818">
        <ele>114.59999847412</ele>
        <time>2014-02-02T09:02:02Z</time>
      </trkpt>
      <trkpt lat="48.26888" lon="2.61792">
        <ele>114.59999847412</ele>
        <time>2014-02-02T09:02:10Z</time>
      </trkpt>
      <trkpt lat="48.26891" lon="2.61767">
        <ele>114.59999847412</ele>
        <time>2014-02-02T09:02:16Z</time>
      </trkpt>
      <trkpt lat="48.2689" lon="2.61762">
        <ele>114.59999847412</ele>
        <time>2014-02-02T09:02:17Z</time>
      </trkpt>
      <trkpt lat="48.26881" lon="2.61728">
        <ele>114.59999847412</ele>
        <time>2014-02-02T09:02:24Z</time>
      </trkpt>
      <trkpt lat="48.26872" lon="2.61702">
        <ele>114.59999847412</ele>
        <time>2014-02-02T09:02:29Z</time>
      </trkpt>
      <trkpt lat="48.2686" lon="2.61659">
        <ele>114.59999847412</ele>
        <time>2014-02-02T09:02:36Z</time>
      </trkpt>
      <trkpt lat="48.26859" lon="2.61652">
        <ele>114.59999847412</ele>
        <time>2014-02-02T09:02:37Z</time>
      </trkpt>
      <trkpt lat="48.26858" lon="2.61645">
        <ele>114.19999694824</ele>
        <time>2014-02-02T09:02:38Z</time>
      </trkpt>
      <trkpt lat="48.26857" lon="2.61637">
        <ele>113.80000305176</ele>
        <time>2014-02-02T09:02:39Z</time>
      </trkpt>
      <trkpt lat="48.26855" lon="2.6163">
        <ele>113.40000152588</ele>
        <time>2014-02-02T09:02:40Z</time>
      </trkpt>
      <trkpt lat="48.26854" lon="2.61624">
        <ele>113</ele>
        <time>2014-02-02T09:02:41Z</time>
      </trkpt>
      <trkpt lat="48.26851" lon="2.61617">
        <ele>112.59999847412</ele>
        <time>2014-02-02T09:02:42Z</time>
      </trkpt>
      <trkpt lat="48.26844" lon="2.61586">
        <ele>112.59999847412</ele>
        <time>2014-02-02T09:02:47Z</time>
      </trkpt>
      <trkpt lat="48.26838" lon="2.61548">
        <ele>112.59999847412</ele>
        <time>2014-02-02T09:02:54Z</time>
      </trkpt>
      <trkpt lat="48.26836" lon="2.61542">
        <ele>112</ele>
        <time>2014-02-02T09:02:55Z</time>
      </trkpt>
      <trkpt lat="48.26835" lon="2.61537">
        <ele>111.59999847412</ele>
        <time>2014-02-02T09:02:56Z</time>
      </trkpt>
      <trkpt lat="48.26833" lon="2.61534">
        <ele>111.19999694824</ele>
        <time>2014-02-02T09:02:57Z</time>
      </trkpt>
      <trkpt lat="48.26831" lon="2.61532">
        <ele>110.59999847412</ele>
        <time>2014-02-02T09:02:58Z</time>
      </trkpt>
      <trkpt lat="48.2683" lon="2.6153">
        <ele>110.19999694824</ele>
        <time>2014-02-02T09:02:59Z</time>
      </trkpt>
      <trkpt lat="48.26828" lon="2.61527">
        <ele>110.19999694824</ele>
        <time>2014-02-02T09:03:00Z</time>
      </trkpt>
      <trkpt lat="48.26825" lon="2.61508">
        <ele>110.59999847412</ele>
        <time>2014-02-02T09:03:07Z</time>
      </trkpt>
      <trkpt lat="48.26824" lon="2.61505">
        <ele>111</ele>
        <time>2014-02-02T09:03:08Z</time>
      </trkpt>
      <trkpt lat="48.26824" lon="2.61502">
        <ele>111.40000152588</ele>
        <time>2014-02-02T09:03:09Z</time>
      </trkpt>
      <trkpt lat="48.26823" lon="2.61498">
        <ele>111.80000305176</ele>
        <time>2014-02-02T09:03:10Z</time>
      </trkpt>
      <trkpt lat="48.26823" lon="2.61495">
        <ele>112.19999694824</ele>
        <time>2014-02-02T09:03:11Z</time>
      </trkpt>
      <trkpt lat="48.26819" lon="2.61481">
        <ele>112.19999694824</ele>
        <time>2014-02-02T09:03:15Z</time>
      </trkpt>
      <trkpt lat="48.26813" lon="2.61455">
        <ele>112.19999694824</ele>
        <time>2014-02-02T09:03:22Z</time>
      </trkpt>
      <trkpt lat="48.26809" lon="2.61434">
        <ele>112.19999694824</ele>
        <time>2014-02-02T09:03:27Z</time>
      </trkpt>
      <trkpt lat="48.26803" lon="2.61403">
        <ele>112.19999694824</ele>
        <time>2014-02-02T09:03:35Z</time>
      </trkpt>
      <trkpt lat="48.26801" lon="2.61374">
        <ele>112.19999694824</ele>
        <time>2014-02-02T09:03:44Z</time>
      </trkpt>
      <trkpt lat="48.26801" lon="2.6137">
        <ele>112.59999847412</ele>
        <time>2014-02-02T09:03:45Z</time>
      </trkpt>
      <trkpt lat="48.26801" lon="2.61366">
        <ele>113</ele>
        <time>2014-02-02T09:03:46Z</time>
      </trkpt>
      <trkpt lat="48.268" lon="2.61363">
        <ele>113.40000152588</ele>
        <time>2014-02-02T09:03:47Z</time>
      </trkpt>
      <trkpt lat="48.26799" lon="2.6136">
        <ele>113.80000305176</ele>
        <time>2014-02-02T09:03:48Z</time>
      </trkpt>
      <trkpt lat="48.26798" lon="2.61359">
        <ele>114.40000152588</ele>
        <time>2014-02-02T09:03:49Z</time>
      </trkpt>
      <trkpt lat="48.26797" lon="2.61356">
        <ele>114.80000305176</ele>
        <time>2014-02-02T09:04:03Z</time>
      </trkpt>
      <trkpt lat="48.26797" lon="2.61356">
        <ele>115.19999694824</ele>
        <time>2014-02-02T09:04:04Z</time>
      </trkpt>
      <trkpt lat="48.26797" lon="2.61356">
        <ele>115.59999847412</ele>
        <time>2014-02-02T09:04:05Z</time>
      </trkpt>
      <trkpt lat="48.26797" lon="2.61356">
        <ele>116</ele>
        <time>2014-02-02T09:04:06Z</time>
      </trkpt>
      <trkpt lat="48.26797" lon="2.61356">
        <ele>116.40000152588</ele>
        <time>2014-02-02T09:04:07Z</time>
      </trkpt>
      <trkpt lat="48.26797" lon="2.61356">
        <ele>116.40000152588</ele>
        <time>2014-02-02T09:04:23Z</time>
      </trkpt>
      <trkpt lat="48.26797" lon="2.61354">
        <ele>115.80000305176</ele>
        <time>2014-02-02T09:04:31Z</time>
      </trkpt>
      <trkpt lat="48.26797" lon="2.61354">
        <ele>115.40000152588</ele>
        <time>2014-02-02T09:04:32Z</time>
      </trkpt>
      <trkpt lat="48.26797" lon="2.61354">
        <ele>115</ele>
        <time>2014-02-02T09:04:33Z</time>
      </trkpt>
      <trkpt lat="48.26797" lon="2.61354">
        <ele>114.59999847412</ele>
        <time>2014-02-02T09:04:34Z</time>
      </trkpt>
      <trkpt lat="48.26797" lon="2.61354">
        <ele>114.19999694824</ele>
        <time>2014-02-02T09:04:35Z</time>
      </trkpt>
      <trkpt lat="48.26797" lon="2.61354">
        <ele>114.59999847412</ele>
        <time>2014-02-02T09:04:54Z</time>
      </trkpt>
      <trkpt lat="48.26797" lon="2.61354">
        <ele>115</ele>
        <time>2014-02-02T09:04:55Z</time>
      </trkpt>
      <trkpt lat="48.26797" lon="2.61354">
        <ele>115.40000152588</ele>
        <time>2014-02-02T09:04:56Z</time>
      </trkpt>
      <trkpt lat="48.26797" lon="2.61354">
        <ele>115.80000305176</ele>
        <time>2014-02-02T09:04:57Z</time>
      </trkpt>
      <trkpt lat="48.26797" lon="2.61354">
        <ele>116.19999694824</ele>
        <time>2014-02-02T09:04:58Z</time>
      </trkpt>
      <trkpt lat="48.26797" lon="2.61354">
        <ele>116.59999847412</ele>
        <time>2014-02-02T09:05:10Z</time>
      </trkpt>
      <trkpt lat="48.26797" lon="2.61354">
        <ele>117.19999694824</ele>
        <time>2014-02-02T09:05:11Z</time>
      </trkpt>
      <trkpt lat="48.26797" lon="2.61354">
        <ele>117.59999847412</ele>
        <time>2014-02-02T09:05:12Z</time>
      </trkpt>
      <trkpt lat="48.26797" lon="2.61354">
        <ele>118</ele>
        <time>2014-02-02T09:05:13Z</time>
      </trkpt>
      <trkpt lat="48.26797" lon="2.61354">
        <ele>118.40000152588</ele>
        <time>2014-02-02T09:05:14Z</time>
      </trkpt>
      <trkpt lat="48.26797" lon="2.61354">
        <ele>118.80000305176</ele>
        <time>2014-02-02T09:05:28Z</time>
      </trkpt>
      <trkpt lat="48.26797" lon="2.61354">
        <ele>119.19999694824</ele>
        <time>2014-02-02T09:05:29Z</time>
      </trkpt>
      <trkpt lat="48.26797" lon="2.61354">
        <ele>119.59999847412</ele>
        <time>2014-02-02T09:05:30Z</time>
      </trkpt>
      <trkpt lat="48.26797" lon="2.61354">
        <ele>120</ele>
        <time>2014-02-02T09:05:31Z</time>
      </trkpt>
      <trkpt lat="48.26797" lon="2.61354">
        <ele>120.59999847412</ele>
        <time>2014-02-02T09:05:32Z</time>
      </trkpt>
      <trkpt lat="48.26797" lon="2.61354">
        <ele>121</ele>
        <time>2014-02-02T09:05:37Z</time>
      </trkpt>
      <trkpt lat="48.26797" lon="2.61354">
        <ele>121.40000152588</ele>
        <time>2014-02-02T09:05:38Z</time>
      </trkpt>
      <trkpt lat="48.26797" lon="2.61354">
        <ele>121.80000305176</ele>
        <time>2014-02-02T09:05:39Z</time>
      </trkpt>
      <trkpt lat="48.26797" lon="2.61354">
        <ele>122.19999694824</ele>
        <time>2014-02-02T09:05:40Z</time>
      </trkpt>
      <trkpt lat="48.26797" lon="2.61354">
        <ele>122.59999847412</ele>
        <time>2014-02-02T09:05:41Z</time>
      </trkpt>
      <trkpt lat="48.26797" lon="2.61353">
        <ele>122.59999847412</ele>
        <time>2014-02-02T09:05:57Z</time>
      </trkpt>
      <trkpt lat="48.26798" lon="2.6135">
        <ele>123</ele>
        <time>2014-02-02T09:06:05Z</time>
      </trkpt>
      <trkpt lat="48.26806" lon="2.61311">
        <ele>123.40000152588</ele>
        <time>2014-02-02T09:06:06Z</time>
      </trkpt>
      <trkpt lat="48.2681" lon="2.61283">
        <ele>123.80000305176</ele>
        <time>2014-02-02T09:06:07Z</time>
      </trkpt>
      <trkpt lat="48.26812" lon="2.61264">
        <ele>124.19999694824</ele>
        <time>2014-02-02T09:06:08Z</time>
      </trkpt>
      <trkpt lat="48.26816" lon="2.61251">
        <ele>124.59999847412</ele>
        <time>2014-02-02T09:06:09Z</time>
      </trkpt>
      <trkpt lat="48.26828" lon="2.61207">
        <ele>124.59999847412</ele>
        <time>2014-02-02T09:06:15Z</time>
      </trkpt>
      <trkpt lat="48.26833" lon="2.61183">
        <ele>124.59999847412</ele>
        <time>2014-02-02T09:06:23Z</time>
      </trkpt>
      <trkpt lat="48.26836" lon="2.61177">
        <ele>124.59999847412</ele>
        <time>2014-02-02T09:06:28Z</time>
      </trkpt>
      <trkpt lat="48.26837" lon="2.61177">
        <ele>124.59999847412</ele>
        <time>2014-02-02T09:06:29Z</time>
      </trkpt>
      <trkpt lat="48.26841" lon="2.61182">
        <ele>124.19999694824</ele>
        <time>2014-02-02T09:06:33Z</time>
      </trkpt>
      <trkpt lat="48.26841" lon="2.61183">
        <ele>123.80000305176</ele>
        <time>2014-02-02T09:06:34Z</time>
      </trkpt>
      <trkpt lat="48.26841" lon="2.61184">
        <ele>123.40000152588</ele>
        <time>2014-02-02T09:06:35Z</time>
      </trkpt>
      <trkpt lat="48.26841" lon="2.61184">
        <ele>123</ele>
        <time>2014-02-02T09:06:36Z</time>
      </trkpt>
      <trkpt lat="48.26841" lon="2.61185">
        <ele>122.59999847412</ele>
        <time>2014-02-02T09:06:37Z</time>
      </trkpt>
      <trkpt lat="48.26841" lon="2.61184">
        <ele>122.59999847412</ele>
        <time>2014-02-02T09:06:44Z</time>
      </trkpt>
      <trkpt lat="48.26842" lon="2.61186">
        <ele>122.19999694824</ele>
        <time>2014-02-02T09:07:05Z</time>
      </trkpt>
      <trkpt lat="48.26842" lon="2.61186">
        <ele>121.80000305176</ele>
        <time>2014-02-02T09:07:06Z</time>
      </trkpt>
      <trkpt lat="48.26841" lon="2.61187">
        <ele>121.40000152588</ele>
        <time>2014-02-02T09:07:07Z</time>
      </trkpt>
      <trkpt lat="48.26841" lon="2.61187">
        <ele>121</ele>
        <time>2014-02-02T09:07:08Z</time>
      </trkpt>
      <trkpt lat="48.26841" lon="2.61187">
        <ele>120.59999847412</ele>
        <time>2014-02-02T09:07:09Z</time>
      </trkpt>
      <trkpt lat="48.2684" lon="2.61192">
        <ele>120.59999847412</ele>
        <time>2014-02-02T09:07:26Z</time>
      </trkpt>
      <trkpt lat="48.26838" lon="2.61194">
        <ele>120.59999847412</ele>
        <time>2014-02-02T09:07:29Z</time>
      </trkpt>
      <trkpt lat="48.26837" lon="2.61196">
        <ele>120</ele>
        <time>2014-02-02T09:07:30Z</time>
      </trkpt>
      <trkpt lat="48.26837" lon="2.61198">
        <ele>119.59999847412</ele>
        <time>2014-02-02T09:07:31Z</time>
      </trkpt>
      <trkpt lat="48.26837" lon="2.612">
        <ele>119.19999694824</ele>
        <time>2014-02-02T09:07:32Z</time>
      </trkpt>
      <trkpt lat="48.26837" lon="2.612">
        <ele>118.59999847412</ele>
        <time>2014-02-02T09:07:33Z</time>
      </trkpt>
      <trkpt lat="48.26837" lon="2.61201">
        <ele>118.19999694824</ele>
        <time>2014-02-02T09:07:34Z</time>
      </trkpt>
      <trkpt lat="48.26836" lon="2.61204">
        <ele>118.19999694824</ele>
        <time>2014-02-02T09:07:37Z</time>
      </trkpt>
      <trkpt lat="48.26834" lon="2.6121">
        <ele>117.80000305176</ele>
        <time>2014-02-02T09:07:40Z</time>
      </trkpt>
      <trkpt lat="48.26833" lon="2.61211">
        <ele>117.40000152588</ele>
        <time>2014-02-02T09:07:41Z</time>
      </trkpt>
      <trkpt lat="48.26833" lon="2.61211">
        <ele>117</ele>
        <time>2014-02-02T09:07:42Z</time>
      </trkpt>
      <trkpt lat="48.26833" lon="2.61211">
        <ele>116.59999847412</ele>
        <time>2014-02-02T09:07:43Z</time>
      </trkpt>
      <trkpt lat="48.26833" lon="2.61211">
        <ele>116.19999694824</ele>
        <time>2014-02-02T09:07:44Z</time>
      </trkpt>
      <trkpt lat="48.26826" lon="2.61231">
        <ele>116.19999694824</ele>
        <time>2014-02-02T09:08:32Z</time>
      </trkpt>
      <trkpt lat="48.26822" lon="2.61243">
        <ele>116.19999694824</ele>
        <time>2014-02-02T09:08:40Z</time>
      </trkpt>
      <trkpt lat="48.26821" lon="2.61245">
        <ele>115.80000305176</ele>
        <time>2014-02-02T09:08:43Z</time>
      </trkpt>
      <trkpt lat="48.26821" lon="2.61245">
        <ele>115.40000152588</ele>
        <time>2014-02-02T09:08:44Z</time>
      </trkpt>
      <trkpt lat="48.26821" lon="2.61245">
        <ele>114.80000305176</ele>
        <time>2014-02-02T09:08:45Z</time>
      </trkpt>
      <trkpt lat="48.26821" lon="2.61245">
        <ele>114.40000152588</ele>
        <time>2014-02-02T09:08:46Z</time>
      </trkpt>
      <trkpt lat="48.26821" lon="2.61245">
        <ele>114</ele>
        <time>2014-02-02T09:08:47Z</time>
      </trkpt>
      <trkpt lat="48.26817" lon="2.61248">
        <ele>113.59999847412</ele>
        <time>2014-02-02T09:09:51Z</time>
      </trkpt>
      <trkpt lat="48.26816" lon="2.61249">
        <ele>113.19999694824</ele>
        <time>2014-02-02T09:09:52Z</time>
      </trkpt>
      <trkpt lat="48.26816" lon="2.61249">
        <ele>112.80000305176</ele>
        <time>2014-02-02T09:09:53Z</time>
      </trkpt>
      <trkpt lat="48.26816" lon="2.61249">
        <ele>112.40000152588</ele>
        <time>2014-02-02T09:09:54Z</time>
      </trkpt>
      <trkpt lat="48.26816" lon="2.61249">
        <ele>112</ele>
        <time>2014-02-02T09:09:55Z</time>
      </trkpt>
      <trkpt lat="48.26813" lon="2.61258">
        <ele>111.59999847412</ele>
        <time>2014-02-02T09:10:28Z</time>
      </trkpt>
      <trkpt lat="48.26812" lon="2.61258">
        <ele>111.19999694824</ele>
        <time>2014-02-02T09:10:29Z</time>
      </trkpt>
      <trkpt lat="48.26812" lon="2.61258">
        <ele>110.59999847412</ele>
        <time>2014-02-02T09:10:30Z</time>
      </trkpt>
      <trkpt lat="48.26812" lon="2.61259">
        <ele>110.19999694824</ele>
        <time>2014-02-02T09:10:31Z</time>
      </trkpt>
      <trkpt lat="48.26812" lon="2.61259">
        <ele>109.80000305176</ele>
        <time>2014-02-02T09:10:32Z</time>
      </trkpt>
      <trkpt lat="48.26812" lon="2.61262">
        <ele>109.40000152588</ele>
        <time>2014-02-02T09:10:44Z</time>
      </trkpt>
      <trkpt lat="48.26811" lon="2.61262">
        <ele>109</ele>
        <time>2014-02-02T09:10:45Z</time>
      </trkpt>
      <trkpt lat="48.26811" lon="2.61263">
        <ele>108.59999847412</ele>
        <time>2014-02-02T09:10:46Z</time>
      </trkpt>
      <trkpt lat="48.26811" lon="2.61263">
        <ele>108.19999694824</ele>
        <time>2014-02-02T09:10:47Z</time>
      </trkpt>
      <trkpt lat="48.26811" lon="2.61263">
        <ele>107.80000305176</ele>
        <time>2014-02-02T09:10:48Z</time>
      </trkpt>
      <trkpt lat="48.26818" lon="2.61267">
        <ele>107.19999694824</ele>
        <time>2014-02-02T09:12:04Z</time>
      </trkpt>
      <trkpt lat="48.2682" lon="2.61267">
        <ele>106.80000305176</ele>
        <time>2014-02-02T09:12:05Z</time>
      </trkpt>
      <trkpt lat="48.2682" lon="2.61267">
        <ele>106.40000152588</ele>
        <time>2014-02-02T09:12:06Z</time>
      </trkpt>
      <trkpt lat="48.26821" lon="2.61267">
        <ele>106</ele>
        <time>2014-02-02T09:12:07Z</time>
      </trkpt>
      <trkpt lat="48.26822" lon="2.61267">
        <ele>105.40000152588</ele>
        <time>2014-02-02T09:12:08Z</time>
      </trkpt>
      <trkpt lat="48.26822" lon="2.61267">
        <ele>105</ele>
        <time>2014-02-02T09:12:09Z</time>
      </trkpt>
      <trkpt lat="48.26823" lon="2.61267">
        <ele>104.59999847412</ele>
        <time>2014-02-02T09:12:10Z</time>
      </trkpt>
      <trkpt lat="48.26824" lon="2.61267">
        <ele>104.19999694824</ele>
        <time>2014-02-02T09:12:11Z</time>
      </trkpt>
      <trkpt lat="48.26824" lon="2.61268">
        <ele>103.80000305176</ele>
        <time>2014-02-02T09:12:12Z</time>
      </trkpt>
      <trkpt lat="48.26825" lon="2.61269">
        <ele>103.40000152588</ele>
        <time>2014-02-02T09:12:13Z</time>
      </trkpt>
      <trkpt lat="48.26829" lon="2.61271">
        <ele>103</ele>
        <time>2014-02-02T09:12:17Z</time>
      </trkpt>
      <trkpt lat="48.2683" lon="2.61271">
        <ele>102.59999847412</ele>
        <time>2014-02-02T09:12:18Z</time>
      </trkpt>
      <trkpt lat="48.26832" lon="2.61272">
        <ele>102</ele>
        <time>2014-02-02T09:12:19Z</time>
      </trkpt>
      <trkpt lat="48.26833" lon="2.61273">
        <ele>101.40000152588</ele>
        <time>2014-02-02T09:12:20Z</time>
      </trkpt>
      <trkpt lat="48.26834" lon="2.61273">
        <ele>100.80000305176</ele>
        <time>2014-02-02T09:12:21Z</time>
      </trkpt>
      <trkpt lat="48.26835" lon="2.61273">
        <ele>100</ele>
        <time>2014-02-02T09:12:22Z</time>
      </trkpt>
      <trkpt lat="48.26836" lon="2.61273">
        <ele>99.400001525879</ele>
        <time>2014-02-02T09:12:23Z</time>
      </trkpt>
      <trkpt lat="48.26836" lon="2.61273">
        <ele>98.800003051758</ele>
        <time>2014-02-02T09:12:24Z</time>
      </trkpt>
      <trkpt lat="48.26837" lon="2.61273">
        <ele>98.800003051758</ele>
        <time>2014-02-02T09:12:26Z</time>
      </trkpt>
      <trkpt lat="48.26841" lon="2.61277">
        <ele>98.199996948242</ele>
        <time>2014-02-02T09:12:31Z</time>
      </trkpt>
      <trkpt lat="48.26842" lon="2.61278">
        <ele>97.599998474121</ele>
        <time>2014-02-02T09:12:32Z</time>
      </trkpt>
      <trkpt lat="48.26843" lon="2.6128">
        <ele>97</ele>
        <time>2014-02-02T09:12:33Z</time>
      </trkpt>
      <trkpt lat="48.26843" lon="2.61281">
        <ele>96.400001525879</ele>
        <time>2014-02-02T09:12:34Z</time>
      </trkpt>
      <trkpt lat="48.26842" lon="2.61281">
        <ele>95.599998474121</ele>
        <time>2014-02-02T09:12:35Z</time>
      </trkpt>
      <trkpt lat="48.26841" lon="2.61281">
        <ele>95</ele>
        <time>2014-02-02T09:12:36Z</time>
      </trkpt>
      <trkpt lat="48.26841" lon="2.61281">
        <ele>94.400001525879</ele>
        <time>2014-02-02T09:12:37Z</time>
      </trkpt>
      <trkpt lat="48.2684" lon="2.61281">
        <ele>93.800003051758</ele>
        <time>2014-02-02T09:12:38Z</time>
      </trkpt>
      <trkpt lat="48.26839" lon="2.61282">
        <ele>93.800003051758</ele>
        <time>2014-02-02T09:12:41Z</time>
      </trkpt>
      <trkpt lat="48.26835" lon="2.61292">
        <ele>93.800003051758</ele>
        <time>2014-02-02T09:12:49Z</time>
      </trkpt>
      <trkpt lat="48.26838" lon="2.61305">
        <ele>93.199996948242</ele>
        <time>2014-02-02T09:12:56Z</time>
      </trkpt>
      <trkpt lat="48.26839" lon="2.61309">
        <ele>92.800003051758</ele>
        <time>2014-02-02T09:12:57Z</time>
      </trkpt>
      <trkpt lat="48.26839" lon="2.61312">
        <ele>92.400001525879</ele>
        <time>2014-02-02T09:12:58Z</time>
      </trkpt>
      <trkpt lat="48.2684" lon="2.61316">
        <ele>92</ele>
        <time>2014-02-02T09:12:59Z</time>
      </trkpt>
      <trkpt lat="48.2684" lon="2.6132">
        <ele>91.400001525879</ele>
        <time>2014-02-02T09:13:00Z</time>
      </trkpt>
      <trkpt lat="48.2684" lon="2.61323">
        <ele>91</ele>
        <time>2014-02-02T09:13:01Z</time>
      </trkpt>
      <trkpt lat="48.26841" lon="2.61325">
        <ele>90.400001525879</ele>
        <time>2014-02-02T09:13:02Z</time>
      </trkpt>
      <trkpt lat="48.26841" lon="2.61328">
        <ele>89.800003051758</ele>
        <time>2014-02-02T09:13:03Z</time>
      </trkpt>
      <trkpt lat="48.2684" lon="2.61329">
        <ele>89.400001525879</ele>
        <time>2014-02-02T09:13:04Z</time>
      </trkpt>
      <trkpt lat="48.26841" lon="2.61331">
        <ele>89.400001525879</ele>
        <time>2014-02-02T09:13:05Z</time>
      </trkpt>
      <trkpt lat="48.26841" lon="2.61333">
        <ele>89.400001525879</ele>
        <time>2014-02-02T09:13:10Z</time>
      </trkpt>
      <trkpt lat="48.26839" lon="2.61341">
        <ele>89.400001525879</ele>
        <time>2014-02-02T09:13:21Z</time>
      </trkpt>
      <trkpt lat="48.26837" lon="2.61345">
        <ele>89.400001525879</ele>
        <time>2014-02-02T09:13:26Z</time>
      </trkpt>
      <trkpt lat="48.26836" lon="2.61348">
        <ele>89.400001525879</ele>
        <time>2014-02-02T09:13:28Z</time>
      </trkpt>
      <trkpt lat="48.26834" lon="2.61351">
        <ele>89.400001525879</ele>
        <time>2014-02-02T09:13:32Z</time>
      </trkpt>
      <trkpt lat="48.26837" lon="2.6136">
        <ele>89.400001525879</ele>
        <time>2014-02-02T09:13:37Z</time>
      </trkpt>
      <trkpt lat="48.26837" lon="2.61362">
        <ele>89.800003051758</ele>
        <time>2014-02-02T09:13:38Z</time>
      </trkpt>
      <trkpt lat="48.26837" lon="2.61364">
        <ele>90.199996948242</ele>
        <time>2014-02-02T09:13:39Z</time>
      </trkpt>
      <trkpt lat="48.26838" lon="2.61366">
        <ele>90.599998474121</ele>
        <time>2014-02-02T09:13:40Z</time>
      </trkpt>
      <trkpt lat="48.26839" lon="2.61368">
        <ele>91</ele>
        <time>2014-02-02T09:13:41Z</time>
      </trkpt>
      <trkpt lat="48.2684" lon="2.61369">
        <ele>91.599998474121</ele>
        <time>2014-02-02T09:13:42Z</time>
      </trkpt>
      <trkpt lat="48.26841" lon="2.6137">
        <ele>91.599998474121</ele>
        <time>2014-02-02T09:13:43Z</time>
      </trkpt>
      <trkpt lat="48.26844" lon="2.61375">
        <ele>91.599998474121</ele>
        <time>2014-02-02T09:13:47Z</time>
      </trkpt>
      <trkpt lat="48.26847" lon="2.61384">
        <ele>91.599998474121</ele>
        <time>2014-02-02T09:13:53Z</time>
      </trkpt>
      <trkpt lat="48.26848" lon="2.61386">
        <ele>92</ele>
        <time>2014-02-02T09:13:55Z</time>
      </trkpt>
      <trkpt lat="48.26849" lon="2.61387">
        <ele>92.400001525879</ele>
        <time>2014-02-02T09:13:56Z</time>
      </trkpt>
      <trkpt lat="48.26849" lon="2.61389">
        <ele>92.800003051758</ele>
        <time>2014-02-02T09:13:57Z</time>
      </trkpt>
      <trkpt lat="48.26851" lon="2.61391">
        <ele>93.199996948242</ele>
        <time>2014-02-02T09:13:58Z</time>
      </trkpt>
      <trkpt lat="48.26851" lon="2.61393">
        <ele>93.599998474121</ele>
        <time>2014-02-02T09:13:59Z</time>
      </trkpt>
      <trkpt lat="48.26854" lon="2.61402">
        <ele>94</ele>
        <time>2014-02-02T09:14:04Z</time>
      </trkpt>
      <trkpt lat="48.26854" lon="2.61403">
        <ele>94.400001525879</ele>
        <time>2014-02-02T09:14:05Z</time>
      </trkpt>
      <trkpt lat="48.26855" lon="2.61404">
        <ele>94.800003051758</ele>
        <time>2014-02-02T09:14:06Z</time>
      </trkpt>
      <trkpt lat="48.26855" lon="2.61405">
        <ele>95.199996948242</ele>
        <time>2014-02-02T09:14:07Z</time>
      </trkpt>
      <trkpt lat="48.26855" lon="2.61407">
        <ele>95.599998474121</ele>
        <time>2014-02-02T09:14:08Z</time>
      </trkpt>
      <trkpt lat="48.26859" lon="2.61416">
        <ele>95.599998474121</ele>
        <time>2014-02-02T09:14:12Z</time>
      </trkpt>
      <trkpt lat="48.26872" lon="2.61432">
        <ele>95.599998474121</ele>
        <time>2014-02-02T09:14:21Z</time>
      </trkpt>
      <trkpt lat="48.26875" lon="2.61435">
        <ele>95.199996948242</ele>
        <time>2014-02-02T09:14:22Z</time>
      </trkpt>
      <trkpt lat="48.26878" lon="2.61437">
        <ele>94.599998474121</ele>
        <time>2014-02-02T09:14:23Z</time>
      </trkpt>
      <trkpt lat="48.2688" lon="2.6144">
        <ele>94</ele>
        <time>2014-02-02T09:14:24Z</time>
      </trkpt>
      <trkpt lat="48.26881" lon="2.61443">
        <ele>93.599998474121</ele>
        <time>2014-02-02T09:14:25Z</time>
      </trkpt>
      <trkpt lat="48.26884" lon="2.61445">
        <ele>93</ele>
        <time>2014-02-02T09:14:26Z</time>
      </trkpt>
      <trkpt lat="48.26886" lon="2.61448">
        <ele>92.599998474121</ele>
        <time>2014-02-02T09:14:27Z</time>
      </trkpt>
      <trkpt lat="48.26888" lon="2.61451">
        <ele>92.199996948242</ele>
        <time>2014-02-02T09:14:28Z</time>
      </trkpt>
      <trkpt lat="48.2689" lon="2.61455">
        <ele>91.599998474121</ele>
        <time>2014-02-02T09:14:29Z</time>
      </trkpt>
      <trkpt lat="48.26891" lon="2.61457">
        <ele>91.199996948242</ele>
        <time>2014-02-02T09:14:30Z</time>
      </trkpt>
      <trkpt lat="48.26892" lon="2.6146">
        <ele>90.800003051758</ele>
        <time>2014-02-02T09:14:31Z</time>
      </trkpt>
      <trkpt lat="48.26895" lon="2.61466">
        <ele>90.800003051758</ele>
        <time>2014-02-02T09:14:33Z</time>
      </trkpt>
      <trkpt lat="48.269" lon="2.61481">
        <ele>90.800003051758</ele>
        <time>2014-02-02T09:14:38Z</time>
      </trkpt>
      <trkpt lat="48.26909" lon="2.61496">
        <ele>90.800003051758</ele>
        <time>2014-02-02T09:14:44Z</time>
      </trkpt>
      <trkpt lat="48.26918" lon="2.61513">
        <ele>90.800003051758</ele>
        <time>2014-02-02T09:14:50Z</time>
      </trkpt>
      <trkpt lat="48.26923" lon="2.61533">
        <ele>90.800003051758</ele>
        <time>2014-02-02T09:14:55Z</time>
      </trkpt>
      <trkpt lat="48.26915" lon="2.61546">
        <ele>90.800003051758</ele>
        <time>2014-02-02T09:15:01Z</time>
      </trkpt>
      <trkpt lat="48.26907" lon="2.61549">
        <ele>90.800003051758</ele>
        <time>2014-02-02T09:15:07Z</time>
      </trkpt>
      <trkpt lat="48.26905" lon="2.61552">
        <ele>91.199996948242</ele>
        <time>2014-02-02T09:15:10Z</time>
      </trkpt>
      <trkpt lat="48.26904" lon="2.61552">
        <ele>91.800003051758</ele>
        <time>2014-02-02T09:15:11Z</time>
      </trkpt>
      <trkpt lat="48.26904" lon="2.61553">
        <ele>92.199996948242</ele>
        <time>2014-02-02T09:15:12Z</time>
      </trkpt>
      <trkpt lat="48.26903" lon="2.61554">
        <ele>92.599998474121</ele>
        <time>2014-02-02T09:15:13Z</time>
      </trkpt>
      <trkpt lat="48.26902" lon="2.61555">
        <ele>93.199996948242</ele>
        <time>2014-02-02T09:15:14Z</time>
      </trkpt>
      <trkpt lat="48.26899" lon="2.61557">
        <ele>93.199996948242</ele>
        <time>2014-02-02T09:15:18Z</time>
      </trkpt>
      <trkpt lat="48.26898" lon="2.61559">
        <ele>93.199996948242</ele>
        <time>2014-02-02T09:15:19Z</time>
      </trkpt>
      <trkpt lat="48.26894" lon="2.61562">
        <ele>93.599998474121</ele>
        <time>2014-02-02T09:15:23Z</time>
      </trkpt>
      <trkpt lat="48.26894" lon="2.61562">
        <ele>94</ele>
        <time>2014-02-02T09:15:24Z</time>
      </trkpt>
      <trkpt lat="48.26893" lon="2.61563">
        <ele>94.400001525879</ele>
        <time>2014-02-02T09:15:25Z</time>
      </trkpt>
      <trkpt lat="48.26892" lon="2.61564">
        <ele>94.800003051758</ele>
        <time>2014-02-02T09:15:26Z</time>
      </trkpt>
      <trkpt lat="48.26891" lon="2.61564">
        <ele>95.400001525879</ele>
        <time>2014-02-02T09:15:27Z</time>
      </trkpt>
      <trkpt lat="48.26886" lon="2.61571">
        <ele>95.800003051758</ele>
        <time>2014-02-02T09:15:32Z</time>
      </trkpt>
      <trkpt lat="48.26886" lon="2.61573">
        <ele>96.199996948242</ele>
        <time>2014-02-02T09:15:33Z</time>
      </trkpt>
      <trkpt lat="48.26885" lon="2.61575">
        <ele>96.599998474121</ele>
        <time>2014-02-02T09:15:34Z</time>
      </trkpt>
      <trkpt lat="48.26883" lon="2.61578">
        <ele>97</ele>
        <time>2014-02-02T09:15:35Z</time>
      </trkpt>
      <trkpt lat="48.26882" lon="2.61582">
        <ele>97.400001525879</ele>
        <time>2014-02-02T09:15:36Z</time>
      </trkpt>
      <trkpt lat="48.26879" lon="2.61599">
        <ele>97.400001525879</ele>
        <time>2014-02-02T09:15:42Z</time>
      </trkpt>
      <trkpt lat="48.2688" lon="2.61614">
        <ele>97.400001525879</ele>
        <time>2014-02-02T09:15:49Z</time>
      </trkpt>
      <trkpt lat="48.26881" lon="2.61625">
        <ele>97.800003051758</ele>
        <time>2014-02-02T09:15:52Z</time>
      </trkpt>
      <trkpt lat="48.26882" lon="2.61627">
        <ele>98.199996948242</ele>
        <time>2014-02-02T09:15:53Z</time>
      </trkpt>
      <trkpt lat="48.26882" lon="2.6163">
        <ele>98.800003051758</ele>
        <time>2014-02-02T09:15:54Z</time>
      </trkpt>
      <trkpt lat="48.26882" lon="2.61631">
        <ele>99.199996948242</ele>
        <time>2014-02-02T09:15:55Z</time>
      </trkpt>
      <trkpt lat="48.26882" lon="2.61633">
        <ele>99.599998474121</ele>
        <time>2014-02-02T09:15:56Z</time>
      </trkpt>
      <trkpt lat="48.26882" lon="2.61639">
        <ele>99.599998474121</ele>
        <time>2014-02-02T09:15:59Z</time>
      </trkpt>
      <trkpt lat="48.26887" lon="2.61654">
        <ele>99.599998474121</ele>
        <time>2014-02-02T09:16:06Z</time>
      </trkpt>
      <trkpt lat="48.26886" lon="2.61666">
        <ele>100</ele>
        <time>2014-02-02T09:16:11Z</time>
      </trkpt>
      <trkpt lat="48.26886" lon="2.61668">
        <ele>100.59999847412</ele>
        <time>2014-02-02T09:16:12Z</time>
      </trkpt>
      <trkpt lat="48.26887" lon="2.6167">
        <ele>101</ele>
        <time>2014-02-02T09:16:13Z</time>
      </trkpt>
      <trkpt lat="48.26887" lon="2.61671">
        <ele>101.40000152588</ele>
        <time>2014-02-02T09:16:14Z</time>
      </trkpt>
      <trkpt lat="48.26888" lon="2.61673">
        <ele>101.80000305176</ele>
        <time>2014-02-02T09:16:15Z</time>
      </trkpt>
      <trkpt lat="48.2689" lon="2.61681">
        <ele>101.80000305176</ele>
        <time>2014-02-02T09:16:19Z</time>
      </trkpt>
      <trkpt lat="48.269" lon="2.61695">
        <ele>101.80000305176</ele>
        <time>2014-02-02T09:16:26Z</time>
      </trkpt>
      <trkpt lat="48.26908" lon="2.61711">
        <ele>101.80000305176</ele>
        <time>2014-02-02T09:16:31Z</time>
      </trkpt>
      <trkpt lat="48.26915" lon="2.61739">
        <ele>101.80000305176</ele>
        <time>2014-02-02T09:16:38Z</time>
      </trkpt>
      <trkpt lat="48.26911" lon="2.61752">
        <ele>101.80000305176</ele>
        <time>2014-02-02T09:16:43Z</time>
      </trkpt>
      <trkpt lat="48.26911" lon="2.61754">
        <ele>101.80000305176</ele>
        <time>2014-02-02T09:16:44Z</time>
      </trkpt>
      <trkpt lat="48.2691" lon="2.6176">
        <ele>102.19999694824</ele>
        <time>2014-02-02T09:16:47Z</time>
      </trkpt>
      <trkpt lat="48.2691" lon="2.61762">
        <ele>102.59999847412</ele>
        <time>2014-02-02T09:16:48Z</time>
      </trkpt>
      <trkpt lat="48.2691" lon="2.61764">
        <ele>103</ele>
        <time>2014-02-02T09:16:49Z</time>
      </trkpt>
      <trkpt lat="48.2691" lon="2.61767">
        <ele>103.40000152588</ele>
        <time>2014-02-02T09:16:50Z</time>
      </trkpt>
      <trkpt lat="48.2691" lon="2.6177">
        <ele>103.80000305176</ele>
        <time>2014-02-02T09:16:51Z</time>
      </trkpt>
      <trkpt lat="48.2691" lon="2.61774">
        <ele>103.80000305176</ele>
        <time>2014-02-02T09:16:52Z</time>
      </trkpt>
      <trkpt lat="48.26904" lon="2.61791">
        <ele>104.19999694824</ele>
        <time>2014-02-02T09:16:58Z</time>
      </trkpt>
      <trkpt lat="48.26903" lon="2.61793">
        <ele>104.59999847412</ele>
        <time>2014-02-02T09:16:59Z</time>
      </trkpt>
      <trkpt lat="48.26901" lon="2.61795">
        <ele>105</ele>
        <time>2014-02-02T09:17:00Z</time>
      </trkpt>
      <trkpt lat="48.26901" lon="2.61797">
        <ele>105.40000152588</ele>
        <time>2014-02-02T09:17:01Z</time>
      </trkpt>
      <trkpt lat="48.26902" lon="2.61799">
        <ele>105.80000305176</ele>
        <time>2014-02-02T09:17:02Z</time>
      </trkpt>
      <trkpt lat="48.26903" lon="2.61799">
        <ele>105.80000305176</ele>
        <time>2014-02-02T09:17:03Z</time>
      </trkpt>
      <trkpt lat="48.26904" lon="2.61798">
        <ele>105.80000305176</ele>
        <time>2014-02-02T09:17:04Z</time>
      </trkpt>
      <trkpt lat="48.26913" lon="2.61804">
        <ele>105.80000305176</ele>
        <time>2014-02-02T09:17:10Z</time>
      </trkpt>
      <trkpt lat="48.26911" lon="2.61814">
        <ele>106.40000152588</ele>
        <time>2014-02-02T09:17:14Z</time>
      </trkpt>
      <trkpt lat="48.2691" lon="2.61815">
        <ele>106.80000305176</ele>
        <time>2014-02-02T09:17:15Z</time>
      </trkpt>
      <trkpt lat="48.26909" lon="2.61816">
        <ele>107.19999694824</ele>
        <time>2014-02-02T09:17:16Z</time>
      </trkpt>
      <trkpt lat="48.26907" lon="2.61817">
        <ele>107.80000305176</ele>
        <time>2014-02-02T09:17:17Z</time>
      </trkpt>
      <trkpt lat="48.26907" lon="2.61819">
        <ele>108.19999694824</ele>
        <time>2014-02-02T09:17:18Z</time>
      </trkpt>
      <trkpt lat="48.26907" lon="2.61836">
        <ele>108.19999694824</ele>
        <time>2014-02-02T09:17:23Z</time>
      </trkpt>
      <trkpt lat="48.26907" lon="2.61838">
        <ele>108.19999694824</ele>
        <time>2014-02-02T09:17:24Z</time>
      </trkpt>
      <trkpt lat="48.26906" lon="2.61847">
        <ele>108.19999694824</ele>
        <time>2014-02-02T09:17:27Z</time>
      </trkpt>
      <trkpt lat="48.26905" lon="2.61847">
        <ele>108.19999694824</ele>
        <time>2014-02-02T09:17:32Z</time>
      </trkpt>
      <trkpt lat="48.26903" lon="2.61861">
        <ele>108.19999694824</ele>
        <time>2014-02-02T09:17:58Z</time>
      </trkpt>
      <trkpt lat="48.26899" lon="2.61872">
        <ele>108.19999694824</ele>
        <time>2014-02-02T09:18:02Z</time>
      </trkpt>
      <trkpt lat="48.26895" lon="2.61872">
        <ele>108.59999847412</ele>
        <time>2014-02-02T09:18:06Z</time>
      </trkpt>
      <trkpt lat="48.26895" lon="2.61874">
        <ele>109</ele>
        <time>2014-02-02T09:18:07Z</time>
      </trkpt>
      <trkpt lat="48.26895" lon="2.61875">
        <ele>109.40000152588</ele>
        <time>2014-02-02T09:18:08Z</time>
      </trkpt>
      <trkpt lat="48.26895" lon="2.61877">
        <ele>110</ele>
        <time>2014-02-02T09:18:09Z</time>
      </trkpt>
      <trkpt lat="48.26895" lon="2.61879">
        <ele>110.40000152588</ele>
        <time>2014-02-02T09:18:10Z</time>
      </trkpt>
      <trkpt lat="48.26896" lon="2.61882">
        <ele>110.40000152588</ele>
        <time>2014-02-02T09:18:11Z</time>
      </trkpt>
      <trkpt lat="48.269" lon="2.61888">
        <ele>110.40000152588</ele>
        <time>2014-02-02T09:18:15Z</time>
      </trkpt>
      <trkpt lat="48.26908" lon="2.61888">
        <ele>110.40000152588</ele>
        <time>2014-02-02T09:18:22Z</time>
      </trkpt>
      <trkpt lat="48.26929" lon="2.61877">
        <ele>110.40000152588</ele>
        <time>2014-02-02T09:18:34Z</time>
      </trkpt>
      <trkpt lat="48.2695" lon="2.61871">
        <ele>110.40000152588</ele>
        <time>2014-02-02T09:18:47Z</time>
      </trkpt>
      <trkpt lat="48.26961" lon="2.61866">
        <ele>110.40000152588</ele>
        <time>2014-02-02T09:18:52Z</time>
      </trkpt>
      <trkpt lat="48.26973" lon="2.61858">
        <ele>110.40000152588</ele>
        <time>2014-02-02T09:18:58Z</time>
      </trkpt>
      <trkpt lat="48.26978" lon="2.61856">
        <ele>110.40000152588</ele>
        <time>2014-02-02T09:19:00Z</time>
      </trkpt>
      <trkpt lat="48.26986" lon="2.61854">
        <ele>110.40000152588</ele>
        <time>2014-02-02T09:19:02Z</time>
      </trkpt>
      <trkpt lat="48.26999" lon="2.61845">
        <ele>110.40000152588</ele>
        <time>2014-02-02T09:19:08Z</time>
      </trkpt>
      <trkpt lat="48.27005" lon="2.61843">
        <ele>110.40000152588</ele>
        <time>2014-02-02T09:19:12Z</time>
      </trkpt>
      <trkpt lat="48.27007" lon="2.61846">
        <ele>110.40000152588</ele>
        <time>2014-02-02T09:19:13Z</time>
      </trkpt>
      <trkpt lat="48.2701" lon="2.61855">
        <ele>110.40000152588</ele>
        <time>2014-02-02T09:19:16Z</time>
      </trkpt>
      <trkpt lat="48.27013" lon="2.61862">
        <ele>110.40000152588</ele>
        <time>2014-02-02T09:19:19Z</time>
      </trkpt>
      <trkpt lat="48.27021" lon="2.6188">
        <ele>110.40000152588</ele>
        <time>2014-02-02T09:19:26Z</time>
      </trkpt>
      <trkpt lat="48.27024" lon="2.61901">
        <ele>110.40000152588</ele>
        <time>2014-02-02T09:19:31Z</time>
      </trkpt>
      <trkpt lat="48.27031" lon="2.6192">
        <ele>110.40000152588</ele>
        <time>2014-02-02T09:19:36Z</time>
      </trkpt>
      <trkpt lat="48.27035" lon="2.61921">
        <ele>110.40000152588</ele>
        <time>2014-02-02T09:19:38Z</time>
      </trkpt>
      <trkpt lat="48.27039" lon="2.6192">
        <ele>110.40000152588</ele>
        <time>2014-02-02T09:19:40Z</time>
      </trkpt>
      <trkpt lat="48.27041" lon="2.6192">
        <ele>110.40000152588</ele>
        <time>2014-02-02T09:19:42Z</time>
      </trkpt>
      <trkpt lat="48.27044" lon="2.61923">
        <ele>110.40000152588</ele>
        <time>2014-02-02T09:19:45Z</time>
      </trkpt>
      <trkpt lat="48.2705" lon="2.61926">
        <ele>110.40000152588</ele>
        <time>2014-02-02T09:19:49Z</time>
      </trkpt>
      <trkpt lat="48.27052" lon="2.61925">
        <ele>109.80000305176</ele>
        <time>2014-02-02T09:19:51Z</time>
      </trkpt>
      <trkpt lat="48.27053" lon="2.61924">
        <ele>109.40000152588</ele>
        <time>2014-02-02T09:19:52Z</time>
      </trkpt>
      <trkpt lat="48.27054" lon="2.61921">
        <ele>108.40000152588</ele>
        <time>2014-02-02T09:19:54Z</time>
      </trkpt>
      <trkpt lat="48.27055" lon="2.61918">
        <ele>107.59999847412</ele>
        <time>2014-02-02T09:19:56Z</time>
      </trkpt>
      <trkpt lat="48.27056" lon="2.61917">
        <ele>107</ele>
        <time>2014-02-02T09:19:57Z</time>
      </trkpt>
      <trkpt lat="48.27057" lon="2.61916">
        <ele>106.59999847412</ele>
        <time>2014-02-02T09:19:58Z</time>
      </trkpt>
      <trkpt lat="48.27057" lon="2.61914">
        <ele>106.19999694824</ele>
        <time>2014-02-02T09:19:59Z</time>
      </trkpt>
      <trkpt lat="48.27057" lon="2.61913">
        <ele>105.80000305176</ele>
        <time>2014-02-02T09:20:00Z</time>
      </trkpt>
      <trkpt lat="48.27058" lon="2.61912">
        <ele>105.19999694824</ele>
        <time>2014-02-02T09:20:01Z</time>
      </trkpt>
      <trkpt lat="48.27058" lon="2.6191">
        <ele>104.80000305176</ele>
        <time>2014-02-02T09:20:02Z</time>
      </trkpt>
      <trkpt lat="48.2706" lon="2.61908">
        <ele>104.40000152588</ele>
        <time>2014-02-02T09:20:03Z</time>
      </trkpt>
      <trkpt lat="48.27061" lon="2.61905">
        <ele>103.59999847412</ele>
        <time>2014-02-02T09:20:04Z</time>
      </trkpt>
      <trkpt lat="48.27062" lon="2.61903">
        <ele>103</ele>
        <time>2014-02-02T09:20:05Z</time>
      </trkpt>
      <trkpt lat="48.27063" lon="2.61901">
        <ele>102.40000152588</ele>
        <time>2014-02-02T09:20:06Z</time>
      </trkpt>
      <trkpt lat="48.27063" lon="2.61899">
        <ele>101.59999847412</ele>
        <time>2014-02-02T09:20:07Z</time>
      </trkpt>
      <trkpt lat="48.27063" lon="2.61898">
        <ele>101</ele>
        <time>2014-02-02T09:20:08Z</time>
      </trkpt>
      <trkpt lat="48.27063" lon="2.61896">
        <ele>100.19999694824</ele>
        <time>2014-02-02T09:20:09Z</time>
      </trkpt>
      <trkpt lat="48.27063" lon="2.61894">
        <ele>99.599998474121</ele>
        <time>2014-02-02T09:20:10Z</time>
      </trkpt>
      <trkpt lat="48.27064" lon="2.61893">
        <ele>99</ele>
        <time>2014-02-02T09:20:11Z</time>
      </trkpt>
      <trkpt lat="48.27064" lon="2.61891">
        <ele>98.400001525879</ele>
        <time>2014-02-02T09:20:12Z</time>
      </trkpt>
      <trkpt lat="48.27064" lon="2.6189">
        <ele>97.800003051758</ele>
        <time>2014-02-02T09:20:13Z</time>
      </trkpt>
      <trkpt lat="48.27064" lon="2.61888">
        <ele>97.199996948242</ele>
        <time>2014-02-02T09:20:14Z</time>
      </trkpt>
      <trkpt lat="48.27065" lon="2.61886">
        <ele>96.599998474121</ele>
        <time>2014-02-02T09:20:15Z</time>
      </trkpt>
      <trkpt lat="48.27066" lon="2.61869">
        <ele>96.199996948242</ele>
        <time>2014-02-02T09:20:20Z</time>
      </trkpt>
      <trkpt lat="48.27066" lon="2.61866">
        <ele>95.800003051758</ele>
        <time>2014-02-02T09:20:21Z</time>
      </trkpt>
      <trkpt lat="48.27065" lon="2.61863">
        <ele>95.400001525879</ele>
        <time>2014-02-02T09:20:22Z</time>
      </trkpt>
      <trkpt lat="48.27064" lon="2.6186">
        <ele>94.800003051758</ele>
        <time>2014-02-02T09:20:23Z</time>
      </trkpt>
      <trkpt lat="48.27063" lon="2.61858">
        <ele>94.400001525879</ele>
        <time>2014-02-02T09:20:24Z</time>
      </trkpt>
      <trkpt lat="48.27063" lon="2.61853">
        <ele>94.400001525879</ele>
        <time>2014-02-02T09:20:26Z</time>
      </trkpt>
      <trkpt lat="48.27063" lon="2.61849">
        <ele>93.800003051758</ele>
        <time>2014-02-02T09:20:27Z</time>
      </trkpt>
      <trkpt lat="48.27063" lon="2.61845">
        <ele>93.199996948242</ele>
        <time>2014-02-02T09:20:28Z</time>
      </trkpt>
      <trkpt lat="48.27063" lon="2.61841">
        <ele>92.400001525879</ele>
        <time>2014-02-02T09:20:29Z</time>
      </trkpt>
      <trkpt lat="48.27062" lon="2.61837">
        <ele>91.599998474121</ele>
        <time>2014-02-02T09:20:30Z</time>
      </trkpt>
      <trkpt lat="48.27061" lon="2.61832">
        <ele>90.599998474121</ele>
        <time>2014-02-02T09:20:31Z</time>
      </trkpt>
      <trkpt lat="48.27059" lon="2.61828">
        <ele>89.800003051758</ele>
        <time>2014-02-02T09:20:32Z</time>
      </trkpt>
      <trkpt lat="48.27058" lon="2.61824">
        <ele>89</ele>
        <time>2014-02-02T09:20:33Z</time>
      </trkpt>
      <trkpt lat="48.27057" lon="2.61819">
        <ele>88.599998474121</ele>
        <time>2014-02-02T09:20:35Z</time>
      </trkpt>
      <trkpt lat="48.27057" lon="2.61817">
        <ele>88.199996948242</ele>
        <time>2014-02-02T09:20:36Z</time>
      </trkpt>
      <trkpt lat="48.27057" lon="2.61814">
        <ele>87.800003051758</ele>
        <time>2014-02-02T09:20:38Z</time>
      </trkpt>
      <trkpt lat="48.27058" lon="2.61815">
        <ele>87.400001525879</ele>
        <time>2014-02-02T09:20:39Z</time>
      </trkpt>
      <trkpt lat="48.2706" lon="2.61815">
        <ele>87</ele>
        <time>2014-02-02T09:20:40Z</time>
      </trkpt>
      <trkpt lat="48.27065" lon="2.61815">
        <ele>87</ele>
        <time>2014-02-02T09:20:43Z</time>
      </trkpt>
      <trkpt lat="48.27067" lon="2.61815">
        <ele>86.599998474121</ele>
        <time>2014-02-02T09:20:44Z</time>
      </trkpt>
      <trkpt lat="48.27069" lon="2.61816">
        <ele>86.199996948242</ele>
        <time>2014-02-02T09:20:45Z</time>
      </trkpt>
      <trkpt lat="48.27071" lon="2.61818">
        <ele>85.800003051758</ele>
        <time>2014-02-02T09:20:46Z</time>
      </trkpt>
      <trkpt lat="48.27072" lon="2.61821">
        <ele>85.199996948242</ele>
        <time>2014-02-02T09:20:47Z</time>
      </trkpt>
      <trkpt lat="48.27074" lon="2.61823">
        <ele>84.800003051758</ele>
        <time>2014-02-02T09:20:48Z</time>
      </trkpt>
      <trkpt lat="48.27076" lon="2.61827">
        <ele>84.800003051758</ele>
        <time>2014-02-02T09:20:50Z</time>
      </trkpt>
      <trkpt lat="48.27087" lon="2.61844">
        <ele>84.800003051758</ele>
        <time>2014-02-02T09:20:57Z</time>
      </trkpt>
      <trkpt lat="48.27094" lon="2.61856">
        <ele>84.800003051758</ele>
        <time>2014-02-02T09:21:03Z</time>
      </trkpt>
      <trkpt lat="48.27094" lon="2.61864">
        <ele>84.800003051758</ele>
        <time>2014-02-02T09:21:08Z</time>
      </trkpt>
      <trkpt lat="48.2709" lon="2.61887">
        <ele>84.800003051758</ele>
        <time>2014-02-02T09:21:17Z</time>
      </trkpt>
      <trkpt lat="48.27087" lon="2.61897">
        <ele>84.800003051758</ele>
        <time>2014-02-02T09:21:26Z</time>
      </trkpt>
      <trkpt lat="48.27085" lon="2.61905">
        <ele>84.800003051758</ele>
        <time>2014-02-02T09:21:32Z</time>
      </trkpt>
      <trkpt lat="48.27085" lon="2.61908">
        <ele>85.199996948242</ele>
        <time>2014-02-02T09:21:34Z</time>
      </trkpt>
      <trkpt lat="48.27085" lon="2.61909">
        <ele>85.800003051758</ele>
        <time>2014-02-02T09:21:35Z</time>
      </trkpt>
      <trkpt lat="48.27086" lon="2.61911">
        <ele>86.199996948242</ele>
        <time>2014-02-02T09:21:36Z</time>
      </trkpt>
      <trkpt lat="48.27086" lon="2.61912">
        <ele>86.599998474121</ele>
        <time>2014-02-02T09:21:37Z</time>
      </trkpt>
      <trkpt lat="48.27087" lon="2.61914">
        <ele>87</ele>
        <time>2014-02-02T09:21:39Z</time>
      </trkpt>
      <trkpt lat="48.27087" lon="2.61915">
        <ele>87</ele>
        <time>2014-02-02T09:21:42Z</time>
      </trkpt>
      <trkpt lat="48.27095" lon="2.61924">
        <ele>87</ele>
        <time>2014-02-02T09:21:50Z</time>
      </trkpt>
      <trkpt lat="48.27098" lon="2.61927">
        <ele>86.599998474121</ele>
        <time>2014-02-02T09:21:51Z</time>
      </trkpt>
      <trkpt lat="48.27099" lon="2.61929">
        <ele>86</ele>
        <time>2014-02-02T09:21:52Z</time>
      </trkpt>
      <trkpt lat="48.27101" lon="2.6193">
        <ele>85.599998474121</ele>
        <time>2014-02-02T09:21:53Z</time>
      </trkpt>
      <trkpt lat="48.27103" lon="2.61931">
        <ele>85</ele>
        <time>2014-02-02T09:21:54Z</time>
      </trkpt>
      <trkpt lat="48.27105" lon="2.61931">
        <ele>84.599998474121</ele>
        <time>2014-02-02T09:21:55Z</time>
      </trkpt>
      <trkpt lat="48.27108" lon="2.6193">
        <ele>84.599998474121</ele>
        <time>2014-02-02T09:21:56Z</time>
      </trkpt>
      <trkpt lat="48.27109" lon="2.6193">
        <ele>84.599998474121</ele>
        <time>2014-02-02T09:21:57Z</time>
      </trkpt>
      <trkpt lat="48.27111" lon="2.61929">
        <ele>84.199996948242</ele>
        <time>2014-02-02T09:21:58Z</time>
      </trkpt>
      <trkpt lat="48.27113" lon="2.61926">
        <ele>83.599998474121</ele>
        <time>2014-02-02T09:21:59Z</time>
      </trkpt>
      <trkpt lat="48.27116" lon="2.61925">
        <ele>83.199996948242</ele>
        <time>2014-02-02T09:22:00Z</time>
      </trkpt>
      <trkpt lat="48.27119" lon="2.61924">
        <ele>82.599998474121</ele>
        <time>2014-02-02T09:22:01Z</time>
      </trkpt>
      <trkpt lat="48.27121" lon="2.61924">
        <ele>82.199996948242</ele>
        <time>2014-02-02T09:22:02Z</time>
      </trkpt>
      <trkpt lat="48.27125" lon="2.61924">
        <ele>82.199996948242</ele>
        <time>2014-02-02T09:22:06Z</time>
      </trkpt>
      <trkpt lat="48.27131" lon="2.61928">
        <ele>82.199996948242</ele>
        <time>2014-02-02T09:22:13Z</time>
      </trkpt>
      <trkpt lat="48.27132" lon="2.61932">
        <ele>82.599998474121</ele>
        <time>2014-02-02T09:22:17Z</time>
      </trkpt>
      <trkpt lat="48.27133" lon="2.61933">
        <ele>83</ele>
        <time>2014-02-02T09:22:18Z</time>
      </trkpt>
      <trkpt lat="48.27133" lon="2.61933">
        <ele>83.400001525879</ele>
        <time>2014-02-02T09:22:19Z</time>
      </trkpt>
      <trkpt lat="48.27134" lon="2.61933">
        <ele>83.800003051758</ele>
        <time>2014-02-02T09:22:20Z</time>
      </trkpt>
      <trkpt lat="48.27134" lon="2.61933">
        <ele>84.199996948242</ele>
        <time>2014-02-02T09:22:21Z</time>
      </trkpt>
      <trkpt lat="48.27132" lon="2.6194">
        <ele>84.599998474121</ele>
        <time>2014-02-02T09:22:36Z</time>
      </trkpt>
      <trkpt lat="48.27131" lon="2.61942">
        <ele>85.199996948242</ele>
        <time>2014-02-02T09:22:37Z</time>
      </trkpt>
      <trkpt lat="48.27131" lon="2.61944">
        <ele>85.599998474121</ele>
        <time>2014-02-02T09:22:39Z</time>
      </trkpt>
      <trkpt lat="48.27131" lon="2.61944">
        <ele>86</ele>
        <time>2014-02-02T09:22:40Z</time>
      </trkpt>
      <trkpt lat="48.2713" lon="2.61946">
        <ele>86.599998474121</ele>
        <time>2014-02-02T09:22:41Z</time>
      </trkpt>
      <trkpt lat="48.27128" lon="2.61951">
        <ele>87</ele>
        <time>2014-02-02T09:22:49Z</time>
      </trkpt>
      <trkpt lat="48.27128" lon="2.61951">
        <ele>87.400001525879</ele>
        <time>2014-02-02T09:22:50Z</time>
      </trkpt>
      <trkpt lat="48.27128" lon="2.61953">
        <ele>88</ele>
        <time>2014-02-02T09:22:51Z</time>
      </trkpt>
      <trkpt lat="48.27128" lon="2.61954">
        <ele>88.400001525879</ele>
        <time>2014-02-02T09:22:52Z</time>
      </trkpt>
      <trkpt lat="48.27128" lon="2.61954">
        <ele>88.800003051758</ele>
        <time>2014-02-02T09:22:53Z</time>
      </trkpt>
      <trkpt lat="48.27127" lon="2.61957">
        <ele>88.800003051758</ele>
        <time>2014-02-02T09:23:00Z</time>
      </trkpt>
      <trkpt lat="48.27127" lon="2.6196">
        <ele>89.199996948242</ele>
        <time>2014-02-02T09:23:05Z</time>
      </trkpt>
      <trkpt lat="48.27127" lon="2.6196">
        <ele>89.599998474121</ele>
        <time>2014-02-02T09:23:06Z</time>
      </trkpt>
      <trkpt lat="48.27127" lon="2.61961">
        <ele>90.199996948242</ele>
        <time>2014-02-02T09:23:07Z</time>
      </trkpt>
      <trkpt lat="48.27127" lon="2.61961">
        <ele>90.599998474121</ele>
        <time>2014-02-02T09:23:08Z</time>
      </trkpt>
      <trkpt lat="48.27127" lon="2.61962">
        <ele>91</ele>
        <time>2014-02-02T09:23:09Z</time>
      </trkpt>
      <trkpt lat="48.27125" lon="2.61964">
        <ele>91.400001525879</ele>
        <time>2014-02-02T09:23:16Z</time>
      </trkpt>
      <trkpt lat="48.27126" lon="2.61964">
        <ele>91.800003051758</ele>
        <time>2014-02-02T09:23:17Z</time>
      </trkpt>
      <trkpt lat="48.27125" lon="2.61965">
        <ele>92.199996948242</ele>
        <time>2014-02-02T09:23:18Z</time>
      </trkpt>
      <trkpt lat="48.27125" lon="2.61965">
        <ele>92.599998474121</ele>
        <time>2014-02-02T09:23:19Z</time>
      </trkpt>
      <trkpt lat="48.27125" lon="2.61965">
        <ele>93</ele>
        <time>2014-02-02T09:23:20Z</time>
      </trkpt>
      <trkpt lat="48.2712" lon="2.61967">
        <ele>93.400001525879</ele>
        <time>2014-02-02T09:23:30Z</time>
      </trkpt>
      <trkpt lat="48.2712" lon="2.61967">
        <ele>93.800003051758</ele>
        <time>2014-02-02T09:23:31Z</time>
      </trkpt>
      <trkpt lat="48.27119" lon="2.61968">
        <ele>94.199996948242</ele>
        <time>2014-02-02T09:23:32Z</time>
      </trkpt>
      <trkpt lat="48.27119" lon="2.61968">
        <ele>94.599998474121</ele>
        <time>2014-02-02T09:23:33Z</time>
      </trkpt>
      <trkpt lat="48.27118" lon="2.61968">
        <ele>95</ele>
        <time>2014-02-02T09:23:34Z</time>
      </trkpt>
      <trkpt lat="48.27115" lon="2.6197">
        <ele>95.599998474121</ele>
        <time>2014-02-02T09:23:42Z</time>
      </trkpt>
      <trkpt lat="48.27115" lon="2.61971">
        <ele>96</ele>
        <time>2014-02-02T09:23:43Z</time>
      </trkpt>
      <trkpt lat="48.27115" lon="2.61972">
        <ele>96.400001525879</ele>
        <time>2014-02-02T09:23:44Z</time>
      </trkpt>
      <trkpt lat="48.27115" lon="2.61972">
        <ele>96.800003051758</ele>
        <time>2014-02-02T09:23:45Z</time>
      </trkpt>
      <trkpt lat="48.27115" lon="2.61973">
        <ele>97.199996948242</ele>
        <time>2014-02-02T09:23:46Z</time>
      </trkpt>
      <trkpt lat="48.27112" lon="2.61977">
        <ele>97.599998474121</ele>
        <time>2014-02-02T09:23:57Z</time>
      </trkpt>
      <trkpt lat="48.27111" lon="2.61978">
        <ele>98.199996948242</ele>
        <time>2014-02-02T09:23:58Z</time>
      </trkpt>
      <trkpt lat="48.2711" lon="2.61978">
        <ele>98.599998474121</ele>
        <time>2014-02-02T09:23:59Z</time>
      </trkpt>
      <trkpt lat="48.2711" lon="2.61979">
        <ele>99</ele>
        <time>2014-02-02T09:24:00Z</time>
      </trkpt>
      <trkpt lat="48.27109" lon="2.61979">
        <ele>99.400001525879</ele>
        <time>2014-02-02T09:24:01Z</time>
      </trkpt>
      <trkpt lat="48.27105" lon="2.6198">
        <ele>100</ele>
        <time>2014-02-02T09:24:10Z</time>
      </trkpt>
      <trkpt lat="48.27104" lon="2.6198">
        <ele>100.40000152588</ele>
        <time>2014-02-02T09:24:11Z</time>
      </trkpt>
      <trkpt lat="48.27103" lon="2.6198">
        <ele>100.80000305176</ele>
        <time>2014-02-02T09:24:12Z</time>
      </trkpt>
      <trkpt lat="48.27102" lon="2.6198">
        <ele>101.19999694824</ele>
        <time>2014-02-02T09:24:13Z</time>
      </trkpt>
      <trkpt lat="48.27102" lon="2.6198">
        <ele>101.80000305176</ele>
        <time>2014-02-02T09:24:14Z</time>
      </trkpt>
      <trkpt lat="48.27096" lon="2.61981">
        <ele>101.80000305176</ele>
        <time>2014-02-02T09:24:22Z</time>
      </trkpt>
      <trkpt lat="48.2709" lon="2.61978">
        <ele>102.19999694824</ele>
        <time>2014-02-02T09:24:28Z</time>
      </trkpt>
      <trkpt lat="48.2709" lon="2.61977">
        <ele>102.59999847412</ele>
        <time>2014-02-02T09:24:29Z</time>
      </trkpt>
      <trkpt lat="48.27089" lon="2.61977">
        <ele>103</ele>
        <time>2014-02-02T09:24:30Z</time>
      </trkpt>
      <trkpt lat="48.27088" lon="2.61976">
        <ele>103.59999847412</ele>
        <time>2014-02-02T09:24:31Z</time>
      </trkpt>
      <trkpt lat="48.27088" lon="2.61977">
        <ele>104</ele>
        <time>2014-02-02T09:24:32Z</time>
      </trkpt>
      <trkpt lat="48.27087" lon="2.61977">
        <ele>104</ele>
        <time>2014-02-02T09:24:34Z</time>
      </trkpt>
      <trkpt lat="48.27084" lon="2.61976">
        <ele>104</ele>
        <time>2014-02-02T09:24:40Z</time>
      </trkpt>
      <trkpt lat="48.27076" lon="2.61973">
        <ele>104</ele>
        <time>2014-02-02T09:24:50Z</time>
      </trkpt>
      <trkpt lat="48.27069" lon="2.61974">
        <ele>104.40000152588</ele>
        <time>2014-02-02T09:24:57Z</time>
      </trkpt>
      <trkpt lat="48.27069" lon="2.61974">
        <ele>104.80000305176</ele>
        <time>2014-02-02T09:24:58Z</time>
      </trkpt>
      <trkpt lat="48.27068" lon="2.61974">
        <ele>105.40000152588</ele>
        <time>2014-02-02T09:24:59Z</time>
      </trkpt>
      <trkpt lat="48.27068" lon="2.61973">
        <ele>105.80000305176</ele>
        <time>2014-02-02T09:25:00Z</time>
      </trkpt>
      <trkpt lat="48.27068" lon="2.61973">
        <ele>106.19999694824</ele>
        <time>2014-02-02T09:25:01Z</time>
      </trkpt>
      <trkpt lat="48.27065" lon="2.61968">
        <ele>106.19999694824</ele>
        <time>2014-02-02T09:25:20Z</time>
      </trkpt>
      <trkpt lat="48.27057" lon="2.61959">
        <ele>106.19999694824</ele>
        <time>2014-02-02T09:25:27Z</time>
      </trkpt>
      <trkpt lat="48.27053" lon="2.61959">
        <ele>106.19999694824</ele>
        <time>2014-02-02T09:25:29Z</time>
      </trkpt>
      <trkpt lat="48.27046" lon="2.61964">
        <ele>106.19999694824</ele>
        <time>2014-02-02T09:25:33Z</time>
      </trkpt>
      <trkpt lat="48.27039" lon="2.61984">
        <ele>106.19999694824</ele>
        <time>2014-02-02T09:25:41Z</time>
      </trkpt>
      <trkpt lat="48.27032" lon="2.61983">
        <ele>106.19999694824</ele>
        <time>2014-02-02T09:25:46Z</time>
      </trkpt>
      <trkpt lat="48.27031" lon="2.61981">
        <ele>106.19999694824</ele>
        <time>2014-02-02T09:25:47Z</time>
      </trkpt>
      <trkpt lat="48.27024" lon="2.61965">
        <ele>106.19999694824</ele>
        <time>2014-02-02T09:25:53Z</time>
      </trkpt>
      <trkpt lat="48.27011" lon="2.61957">
        <ele>106.19999694824</ele>
        <time>2014-02-02T09:25:59Z</time>
      </trkpt>
      <trkpt lat="48.27001" lon="2.61946">
        <ele>106.19999694824</ele>
        <time>2014-02-02T09:26:05Z</time>
      </trkpt>
      <trkpt lat="48.26993" lon="2.61945">
        <ele>106.19999694824</ele>
        <time>2014-02-02T09:26:10Z</time>
      </trkpt>
      <trkpt lat="48.26992" lon="2.61944">
        <ele>106.19999694824</ele>
        <time>2014-02-02T09:26:11Z</time>
      </trkpt>
      <trkpt lat="48.26989" lon="2.61941">
        <ele>106.19999694824</ele>
        <time>2014-02-02T09:26:14Z</time>
      </trkpt>
      <trkpt lat="48.26989" lon="2.6194">
        <ele>106.59999847412</ele>
        <time>2014-02-02T09:26:15Z</time>
      </trkpt>
      <trkpt lat="48.26988" lon="2.61939">
        <ele>107</ele>
        <time>2014-02-02T09:26:16Z</time>
      </trkpt>
      <trkpt lat="48.26987" lon="2.61938">
        <ele>107.40000152588</ele>
        <time>2014-02-02T09:26:17Z</time>
      </trkpt>
      <trkpt lat="48.26986" lon="2.61936">
        <ele>107.80000305176</ele>
        <time>2014-02-02T09:26:18Z</time>
      </trkpt>
      <trkpt lat="48.26984" lon="2.61935">
        <ele>108.19999694824</ele>
        <time>2014-02-02T09:26:19Z</time>
      </trkpt>
      <trkpt lat="48.26979" lon="2.61932">
        <ele>108.59999847412</ele>
        <time>2014-02-02T09:26:23Z</time>
      </trkpt>
      <trkpt lat="48.26978" lon="2.61931">
        <ele>109</ele>
        <time>2014-02-02T09:26:24Z</time>
      </trkpt>
      <trkpt lat="48.26976" lon="2.6193">
        <ele>109.40000152588</ele>
        <time>2014-02-02T09:26:25Z</time>
      </trkpt>
      <trkpt lat="48.26975" lon="2.6193">
        <ele>109.80000305176</ele>
        <time>2014-02-02T09:26:26Z</time>
      </trkpt>
      <trkpt lat="48.26973" lon="2.61929">
        <ele>110.19999694824</ele>
        <time>2014-02-02T09:26:27Z</time>
      </trkpt>
      <trkpt lat="48.26965" lon="2.61925">
        <ele>110.19999694824</ele>
        <time>2014-02-02T09:26:31Z</time>
      </trkpt>
      <trkpt lat="48.26954" lon="2.6192">
        <ele>110.19999694824</ele>
        <time>2014-02-02T09:26:37Z</time>
      </trkpt>
      <trkpt lat="48.26945" lon="2.6193">
        <ele>110.19999694824</ele>
        <time>2014-02-02T09:26:43Z</time>
      </trkpt>
      <trkpt lat="48.26945" lon="2.61933">
        <ele>109.80000305176</ele>
        <time>2014-02-02T09:26:44Z</time>
      </trkpt>
      <trkpt lat="48.26945" lon="2.61936">
        <ele>109.40000152588</ele>
        <time>2014-02-02T09:26:45Z</time>
      </trkpt>
      <trkpt lat="48.26944" lon="2.6194">
        <ele>109</ele>
        <time>2014-02-02T09:26:46Z</time>
      </trkpt>
      <trkpt lat="48.26942" lon="2.61943">
        <ele>108.59999847412</ele>
        <time>2014-02-02T09:26:47Z</time>
      </trkpt>
      <trkpt lat="48.2694" lon="2.61945">
        <ele>108.19999694824</ele>
        <time>2014-02-02T09:26:48Z</time>
      </trkpt>
      <trkpt lat="48.26928" lon="2.61946">
        <ele>108.19999694824</ele>
        <time>2014-02-02T09:26:54Z</time>
      </trkpt>
      <trkpt lat="48.26926" lon="2.61957">
        <ele>108.19999694824</ele>
        <time>2014-02-02T09:26:58Z</time>
      </trkpt>
      <trkpt lat="48.26928" lon="2.61959">
        <ele>108.19999694824</ele>
        <time>2014-02-02T09:26:59Z</time>
      </trkpt>
      <trkpt lat="48.26937" lon="2.61976">
        <ele>108.19999694824</ele>
        <time>2014-02-02T09:27:06Z</time>
      </trkpt>
      <trkpt lat="48.26941" lon="2.61993">
        <ele>108.19999694824</ele>
        <time>2014-02-02T09:27:12Z</time>
      </trkpt>
      <trkpt lat="48.2695" lon="2.62013">
        <ele>108.19999694824</ele>
        <time>2014-02-02T09:27:19Z</time>
      </trkpt>
      <trkpt lat="48.26952" lon="2.62017">
        <ele>107.80000305176</ele>
        <time>2014-02-02T09:27:20Z</time>
      </trkpt>
      <trkpt lat="48.26954" lon="2.62019">
        <ele>107.40000152588</ele>
        <time>2014-02-02T09:27:21Z</time>
      </trkpt>
      <trkpt lat="48.26956" lon="2.62022">
        <ele>107</ele>
        <time>2014-02-02T09:27:22Z</time>
      </trkpt>
      <trkpt lat="48.26958" lon="2.62026">
        <ele>106.59999847412</ele>
        <time>2014-02-02T09:27:23Z</time>
      </trkpt>
      <trkpt lat="48.2696" lon="2.62029">
        <ele>106</ele>
        <time>2014-02-02T09:27:24Z</time>
      </trkpt>
      <trkpt lat="48.2696" lon="2.62037">
        <ele>106</ele>
        <time>2014-02-02T09:27:26Z</time>
      </trkpt>
      <trkpt lat="48.26959" lon="2.62052">
        <ele>106</ele>
        <time>2014-02-02T09:27:30Z</time>
      </trkpt>
      <trkpt lat="48.26958" lon="2.62059">
        <ele>106</ele>
        <time>2014-02-02T09:27:31Z</time>
      </trkpt>
      <trkpt lat="48.26958" lon="2.62079">
        <ele>106</ele>
        <time>2014-02-02T09:27:36Z</time>
      </trkpt>
      <trkpt lat="48.26957" lon="2.621">
        <ele>106</ele>
        <time>2014-02-02T09:27:41Z</time>
      </trkpt>
      <trkpt lat="48.26957" lon="2.62104">
        <ele>105.59999847412</ele>
        <time>2014-02-02T09:27:42Z</time>
      </trkpt>
      <trkpt lat="48.26958" lon="2.62109">
        <ele>105.19999694824</ele>
        <time>2014-02-02T09:27:43Z</time>
      </trkpt>
      <trkpt lat="48.26958" lon="2.62113">
        <ele>104.59999847412</ele>
        <time>2014-02-02T09:27:44Z</time>
      </trkpt>
      <trkpt lat="48.26961" lon="2.62118">
        <ele>104.19999694824</ele>
        <time>2014-02-02T09:27:45Z</time>
      </trkpt>
      <trkpt lat="48.26963" lon="2.6212">
        <ele>103.80000305176</ele>
        <time>2014-02-02T09:27:46Z</time>
      </trkpt>
      <trkpt lat="48.26969" lon="2.62128">
        <ele>103.80000305176</ele>
        <time>2014-02-02T09:27:50Z</time>
      </trkpt>
      <trkpt lat="48.26971" lon="2.6213">
        <ele>103.80000305176</ele>
        <time>2014-02-02T09:27:55Z</time>
      </trkpt>
      <trkpt lat="48.26972" lon="2.62126">
        <ele>104.19999694824</ele>
        <time>2014-02-02T09:27:58Z</time>
      </trkpt>
      <trkpt lat="48.26973" lon="2.62124">
        <ele>104.59999847412</ele>
        <time>2014-02-02T09:27:59Z</time>
      </trkpt>
      <trkpt lat="48.26973" lon="2.62122">
        <ele>105</ele>
        <time>2014-02-02T09:28:00Z</time>
      </trkpt>
      <trkpt lat="48.26974" lon="2.6212">
        <ele>105.40000152588</ele>
        <time>2014-02-02T09:28:01Z</time>
      </trkpt>
      <trkpt lat="48.26975" lon="2.62119">
        <ele>105.80000305176</ele>
        <time>2014-02-02T09:28:02Z</time>
      </trkpt>
      <trkpt lat="48.26979" lon="2.62115">
        <ele>105.80000305176</ele>
        <time>2014-02-02T09:28:04Z</time>
      </trkpt>
      <trkpt lat="48.26988" lon="2.621">
        <ele>105.80000305176</ele>
        <time>2014-02-02T09:28:11Z</time>
      </trkpt>
      <trkpt lat="48.26994" lon="2.62086">
        <ele>105.80000305176</ele>
        <time>2014-02-02T09:28:18Z</time>
      </trkpt>
      <trkpt lat="48.26997" lon="2.62067">
        <ele>105.80000305176</ele>
        <time>2014-02-02T09:28:25Z</time>
      </trkpt>
      <trkpt lat="48.26989" lon="2.6205">
        <ele>105.80000305176</ele>
        <time>2014-02-02T09:28:31Z</time>
      </trkpt>
      <trkpt lat="48.26984" lon="2.62033">
        <ele>105.80000305176</ele>
        <time>2014-02-02T09:28:36Z</time>
      </trkpt>
      <trkpt lat="48.26979" lon="2.62012">
        <ele>105.80000305176</ele>
        <time>2014-02-02T09:28:43Z</time>
      </trkpt>
      <trkpt lat="48.26971" lon="2.61998">
        <ele>105.80000305176</ele>
        <time>2014-02-02T09:28:49Z</time>
      </trkpt>
      <trkpt lat="48.26974" lon="2.61994">
        <ele>105.80000305176</ele>
        <time>2014-02-02T09:28:52Z</time>
      </trkpt>
      <trkpt lat="48.26976" lon="2.61994">
        <ele>105.80000305176</ele>
        <time>2014-02-02T09:28:53Z</time>
      </trkpt>
      <trkpt lat="48.26982" lon="2.61996">
        <ele>105.80000305176</ele>
        <time>2014-02-02T09:28:58Z</time>
      </trkpt>
      <trkpt lat="48.26983" lon="2.61996">
        <ele>105.80000305176</ele>
        <time>2014-02-02T09:28:59Z</time>
      </trkpt>
      <trkpt lat="48.26989" lon="2.62">
        <ele>105.80000305176</ele>
        <time>2014-02-02T09:29:03Z</time>
      </trkpt>
      <trkpt lat="48.27005" lon="2.62005">
        <ele>105.80000305176</ele>
        <time>2014-02-02T09:29:11Z</time>
      </trkpt>
      <trkpt lat="48.27011" lon="2.62021">
        <ele>105.80000305176</ele>
        <time>2014-02-02T09:29:17Z</time>
      </trkpt>
      <trkpt lat="48.27017" lon="2.62042">
        <ele>105.80000305176</ele>
        <time>2014-02-02T09:29:23Z</time>
      </trkpt>
      <trkpt lat="48.27021" lon="2.62058">
        <ele>105.80000305176</ele>
        <time>2014-02-02T09:29:28Z</time>
      </trkpt>
      <trkpt lat="48.27031" lon="2.62068">
        <ele>105.80000305176</ele>
        <time>2014-02-02T09:29:33Z</time>
      </trkpt>
      <trkpt lat="48.27034" lon="2.62066">
        <ele>105.80000305176</ele>
        <time>2014-02-02T09:29:34Z</time>
      </trkpt>
      <trkpt lat="48.2704" lon="2.62062">
        <ele>105.80000305176</ele>
        <time>2014-02-02T09:29:36Z</time>
      </trkpt>
      <trkpt lat="48.27053" lon="2.62053">
        <ele>105.80000305176</ele>
        <time>2014-02-02T09:29:41Z</time>
      </trkpt>
      <trkpt lat="48.27055" lon="2.62054">
        <ele>105.80000305176</ele>
        <time>2014-02-02T09:29:42Z</time>
      </trkpt>
      <trkpt lat="48.27061" lon="2.62054">
        <ele>105.80000305176</ele>
        <time>2014-02-02T09:29:45Z</time>
      </trkpt>
      <trkpt lat="48.27078" lon="2.62059">
        <ele>105.80000305176</ele>
        <time>2014-02-02T09:29:52Z</time>
      </trkpt>
      <trkpt lat="48.27079" lon="2.62059">
        <ele>105.80000305176</ele>
        <time>2014-02-02T09:29:53Z</time>
      </trkpt>
      <trkpt lat="48.27083" lon="2.62062">
        <ele>105.80000305176</ele>
        <time>2014-02-02T09:29:55Z</time>
      </trkpt>
      <trkpt lat="48.27092" lon="2.62072">
        <ele>105.80000305176</ele>
        <time>2014-02-02T09:30:00Z</time>
      </trkpt>
      <trkpt lat="48.27102" lon="2.62088">
        <ele>105.80000305176</ele>
        <time>2014-02-02T09:30:06Z</time>
      </trkpt>
      <trkpt lat="48.27107" lon="2.6211">
        <ele>105.80000305176</ele>
        <time>2014-02-02T09:30:13Z</time>
      </trkpt>
      <trkpt lat="48.27108" lon="2.62145">
        <ele>105.80000305176</ele>
        <time>2014-02-02T09:30:21Z</time>
      </trkpt>
      <trkpt lat="48.27103" lon="2.6218">
        <ele>105.80000305176</ele>
        <time>2014-02-02T09:30:29Z</time>
      </trkpt>
      <trkpt lat="48.27098" lon="2.62197">
        <ele>105.80000305176</ele>
        <time>2014-02-02T09:30:34Z</time>
      </trkpt>
      <trkpt lat="48.27093" lon="2.62217">
        <ele>105.80000305176</ele>
        <time>2014-02-02T09:30:40Z</time>
      </trkpt>
      <trkpt lat="48.27086" lon="2.62235">
        <ele>105.80000305176</ele>
        <time>2014-02-02T09:30:47Z</time>
      </trkpt>
      <trkpt lat="48.27077" lon="2.62241">
        <ele>105.80000305176</ele>
        <time>2014-02-02T09:30:54Z</time>
      </trkpt>
      <trkpt lat="48.27065" lon="2.62263">
        <ele>105.80000305176</ele>
        <time>2014-02-02T09:31:07Z</time>
      </trkpt>
      <trkpt lat="48.27058" lon="2.62272">
        <ele>105.80000305176</ele>
        <time>2014-02-02T09:31:10Z</time>
      </trkpt>
      <trkpt lat="48.27053" lon="2.62275">
        <ele>105.80000305176</ele>
        <time>2014-02-02T09:31:12Z</time>
      </trkpt>
      <trkpt lat="48.27045" lon="2.62284">
        <ele>105.80000305176</ele>
        <time>2014-02-02T09:31:17Z</time>
      </trkpt>
      <trkpt lat="48.2704" lon="2.62295">
        <ele>105.80000305176</ele>
        <time>2014-02-02T09:31:21Z</time>
      </trkpt>
      <trkpt lat="48.2704" lon="2.62298">
        <ele>105.80000305176</ele>
        <time>2014-02-02T09:31:22Z</time>
      </trkpt>
      <trkpt lat="48.27038" lon="2.62305">
        <ele>105.80000305176</ele>
        <time>2014-02-02T09:31:25Z</time>
      </trkpt>
      <trkpt lat="48.27036" lon="2.62308">
        <ele>105.80000305176</ele>
        <time>2014-02-02T09:31:27Z</time>
      </trkpt>
      <trkpt lat="48.27029" lon="2.62308">
        <ele>105.80000305176</ele>
        <time>2014-02-02T09:31:34Z</time>
      </trkpt>
      <trkpt lat="48.27024" lon="2.62287">
        <ele>105.80000305176</ele>
        <time>2014-02-02T09:31:43Z</time>
      </trkpt>
      <trkpt lat="48.27026" lon="2.62272">
        <ele>105.80000305176</ele>
        <time>2014-02-02T09:31:48Z</time>
      </trkpt>
      <trkpt lat="48.27026" lon="2.62254">
        <ele>105.80000305176</ele>
        <time>2014-02-02T09:31:55Z</time>
      </trkpt>
      <trkpt lat="48.27021" lon="2.62229">
        <ele>105.80000305176</ele>
        <time>2014-02-02T09:32:03Z</time>
      </trkpt>
      <trkpt lat="48.27015" lon="2.62215">
        <ele>105.80000305176</ele>
        <time>2014-02-02T09:32:09Z</time>
      </trkpt>
      <trkpt lat="48.2701" lon="2.62188">
        <ele>105.80000305176</ele>
        <time>2014-02-02T09:32:17Z</time>
      </trkpt>
      <trkpt lat="48.27018" lon="2.62183">
        <ele>105.80000305176</ele>
        <time>2014-02-02T09:32:21Z</time>
      </trkpt>
      <trkpt lat="48.2702" lon="2.62182">
        <ele>105.80000305176</ele>
        <time>2014-02-02T09:32:22Z</time>
      </trkpt>
      <trkpt lat="48.2703" lon="2.62177">
        <ele>105.80000305176</ele>
        <time>2014-02-02T09:32:27Z</time>
      </trkpt>
      <trkpt lat="48.27034" lon="2.62175">
        <ele>105.80000305176</ele>
        <time>2014-02-02T09:32:31Z</time>
      </trkpt>
      <trkpt lat="48.27035" lon="2.62177">
        <ele>105.80000305176</ele>
        <time>2014-02-02T09:32:32Z</time>
      </trkpt>
      <trkpt lat="48.27046" lon="2.62184">
        <ele>105.80000305176</ele>
        <time>2014-02-02T09:32:40Z</time>
      </trkpt>
      <trkpt lat="48.27057" lon="2.62189">
        <ele>105.80000305176</ele>
        <time>2014-02-02T09:32:43Z</time>
      </trkpt>
      <trkpt lat="48.27061" lon="2.62188">
        <ele>105.80000305176</ele>
        <time>2014-02-02T09:32:45Z</time>
      </trkpt>
      <trkpt lat="48.27066" lon="2.62179">
        <ele>105.80000305176</ele>
        <time>2014-02-02T09:32:51Z</time>
      </trkpt>
      <trkpt lat="48.27061" lon="2.62164">
        <ele>105.80000305176</ele>
        <time>2014-02-02T09:32:56Z</time>
      </trkpt>
      <trkpt lat="48.27055" lon="2.62156">
        <ele>105.80000305176</ele>
        <time>2014-02-02T09:33:00Z</time>
      </trkpt>
      <trkpt lat="48.27047" lon="2.6214">
        <ele>105.80000305176</ele>
        <time>2014-02-02T09:33:06Z</time>
      </trkpt>
      <trkpt lat="48.2704" lon="2.62129">
        <ele>105.80000305176</ele>
        <time>2014-02-02T09:33:11Z</time>
      </trkpt>
      <trkpt lat="48.27026" lon="2.62113">
        <ele>105.80000305176</ele>
        <time>2014-02-02T09:33:17Z</time>
      </trkpt>
      <trkpt lat="48.27021" lon="2.62117">
        <ele>105.80000305176</ele>
        <time>2014-02-02T09:33:21Z</time>
      </trkpt>
      <trkpt lat="48.27008" lon="2.62119">
        <ele>105.80000305176</ele>
        <time>2014-02-02T09:33:27Z</time>
      </trkpt>
      <trkpt lat="48.26999" lon="2.62139">
        <ele>105.80000305176</ele>
        <time>2014-02-02T09:33:34Z</time>
      </trkpt>
      <trkpt lat="48.26998" lon="2.62159">
        <ele>105.80000305176</ele>
        <time>2014-02-02T09:33:39Z</time>
      </trkpt>
      <trkpt lat="48.26986" lon="2.62182">
        <ele>105.80000305176</ele>
        <time>2014-02-02T09:33:46Z</time>
      </trkpt>
      <trkpt lat="48.26987" lon="2.62195">
        <ele>105.80000305176</ele>
        <time>2014-02-02T09:33:50Z</time>
      </trkpt>
      <trkpt lat="48.26991" lon="2.62209">
        <ele>105.80000305176</ele>
        <time>2014-02-02T09:33:55Z</time>
      </trkpt>
      <trkpt lat="48.26994" lon="2.62226">
        <ele>105.80000305176</ele>
        <time>2014-02-02T09:34:00Z</time>
      </trkpt>
      <trkpt lat="48.26997" lon="2.62249">
        <ele>105.80000305176</ele>
        <time>2014-02-02T09:34:06Z</time>
      </trkpt>
      <trkpt lat="48.27001" lon="2.62288">
        <ele>105.80000305176</ele>
        <time>2014-02-02T09:34:15Z</time>
      </trkpt>
      <trkpt lat="48.27002" lon="2.62312">
        <ele>105.80000305176</ele>
        <time>2014-02-02T09:34:20Z</time>
      </trkpt>
      <trkpt lat="48.26991" lon="2.62329">
        <ele>105.80000305176</ele>
        <time>2014-02-02T09:34:26Z</time>
      </trkpt>
      <trkpt lat="48.26985" lon="2.62348">
        <ele>105.80000305176</ele>
        <time>2014-02-02T09:34:32Z</time>
      </trkpt>
      <trkpt lat="48.26986" lon="2.62355">
        <ele>105.80000305176</ele>
        <time>2014-02-02T09:34:34Z</time>
      </trkpt>
      <trkpt lat="48.26983" lon="2.62369">
        <ele>105.80000305176</ele>
        <time>2014-02-02T09:34:38Z</time>
      </trkpt>
      <trkpt lat="48.26979" lon="2.62389">
        <ele>105.80000305176</ele>
        <time>2014-02-02T09:34:43Z</time>
      </trkpt>
      <trkpt lat="48.26974" lon="2.62404">
        <ele>105.80000305176</ele>
        <time>2014-02-02T09:34:46Z</time>
      </trkpt>
      <trkpt lat="48.26971" lon="2.62409">
        <ele>105.80000305176</ele>
        <time>2014-02-02T09:34:47Z</time>
      </trkpt>
      <trkpt lat="48.26964" lon="2.62415">
        <ele>105.80000305176</ele>
        <time>2014-02-02T09:34:50Z</time>
      </trkpt>
      <trkpt lat="48.26964" lon="2.62421">
        <ele>105.80000305176</ele>
        <time>2014-02-02T09:34:52Z</time>
      </trkpt>
      <trkpt lat="48.2697" lon="2.62436">
        <ele>105.80000305176</ele>
        <time>2014-02-02T09:34:57Z</time>
      </trkpt>
      <trkpt lat="48.26976" lon="2.6244">
        <ele>105.80000305176</ele>
        <time>2014-02-02T09:35:01Z</time>
      </trkpt>
      <trkpt lat="48.26984" lon="2.6246">
        <ele>106.19999694824</ele>
        <time>2014-02-02T09:35:07Z</time>
      </trkpt>
      <trkpt lat="48.26986" lon="2.62463">
        <ele>106.80000305176</ele>
        <time>2014-02-02T09:35:08Z</time>
      </trkpt>
      <trkpt lat="48.26986" lon="2.62464">
        <ele>107.19999694824</ele>
        <time>2014-02-02T09:35:09Z</time>
      </trkpt>
      <trkpt lat="48.26987" lon="2.62465">
        <ele>107.59999847412</ele>
        <time>2014-02-02T09:35:10Z</time>
      </trkpt>
      <trkpt lat="48.26988" lon="2.62465">
        <ele>108</ele>
        <time>2014-02-02T09:35:11Z</time>
      </trkpt>
      <trkpt lat="48.26989" lon="2.62465">
        <ele>108</ele>
        <time>2014-02-02T09:35:12Z</time>
      </trkpt>
      <trkpt lat="48.26991" lon="2.62469">
        <ele>108</ele>
        <time>2014-02-02T09:35:14Z</time>
      </trkpt>
      <trkpt lat="48.26993" lon="2.62473">
        <ele>107.59999847412</ele>
        <time>2014-02-02T09:35:15Z</time>
      </trkpt>
      <trkpt lat="48.26995" lon="2.62477">
        <ele>107</ele>
        <time>2014-02-02T09:35:16Z</time>
      </trkpt>
      <trkpt lat="48.27002" lon="2.62484">
        <ele>106.59999847412</ele>
        <time>2014-02-02T09:35:17Z</time>
      </trkpt>
      <trkpt lat="48.27007" lon="2.6249">
        <ele>106</ele>
        <time>2014-02-02T09:35:18Z</time>
      </trkpt>
      <trkpt lat="48.27009" lon="2.62494">
        <ele>105.59999847412</ele>
        <time>2014-02-02T09:35:19Z</time>
      </trkpt>
      <trkpt lat="48.2701" lon="2.62496">
        <ele>105.59999847412</ele>
        <time>2014-02-02T09:35:20Z</time>
      </trkpt>
      <trkpt lat="48.27013" lon="2.62516">
        <ele>105.59999847412</ele>
        <time>2014-02-02T09:35:26Z</time>
      </trkpt>
      <trkpt lat="48.27009" lon="2.62528">
        <ele>105.59999847412</ele>
        <time>2014-02-02T09:35:31Z</time>
      </trkpt>
      <trkpt lat="48.27011" lon="2.62535">
        <ele>105.59999847412</ele>
        <time>2014-02-02T09:35:53Z</time>
      </trkpt>
      <trkpt lat="48.27026" lon="2.62542">
        <ele>105.59999847412</ele>
        <time>2014-02-02T09:35:57Z</time>
      </trkpt>
      <trkpt lat="48.27032" lon="2.62545">
        <ele>105.59999847412</ele>
        <time>2014-02-02T09:35:59Z</time>
      </trkpt>
      <trkpt lat="48.27035" lon="2.62546">
        <ele>105.59999847412</ele>
        <time>2014-02-02T09:36:00Z</time>
      </trkpt>
      <trkpt lat="48.2704" lon="2.62543">
        <ele>105.59999847412</ele>
        <time>2014-02-02T09:36:03Z</time>
      </trkpt>
      <trkpt lat="48.27041" lon="2.62541">
        <ele>105.59999847412</ele>
        <time>2014-02-02T09:36:04Z</time>
      </trkpt>
      <trkpt lat="48.27042" lon="2.62535">
        <ele>105.59999847412</ele>
        <time>2014-02-02T09:36:07Z</time>
      </trkpt>
      <trkpt lat="48.27041" lon="2.62534">
        <ele>105.59999847412</ele>
        <time>2014-02-02T09:36:08Z</time>
      </trkpt>
      <trkpt lat="48.27035" lon="2.62533">
        <ele>105.59999847412</ele>
        <time>2014-02-02T09:36:12Z</time>
      </trkpt>
      <trkpt lat="48.27031" lon="2.6253">
        <ele>105.59999847412</ele>
        <time>2014-02-02T09:36:14Z</time>
      </trkpt>
      <trkpt lat="48.27033" lon="2.62517">
        <ele>105.59999847412</ele>
        <time>2014-02-02T09:36:20Z</time>
      </trkpt>
      <trkpt lat="48.27037" lon="2.62517">
        <ele>105.59999847412</ele>
        <time>2014-02-02T09:36:22Z</time>
      </trkpt>
      <trkpt lat="48.27039" lon="2.62516">
        <ele>105.59999847412</ele>
        <time>2014-02-02T09:36:24Z</time>
      </trkpt>
      <trkpt lat="48.27041" lon="2.62513">
        <ele>105.59999847412</ele>
        <time>2014-02-02T09:36:25Z</time>
      </trkpt>
      <trkpt lat="48.27044" lon="2.62505">
        <ele>105.59999847412</ele>
        <time>2014-02-02T09:36:28Z</time>
      </trkpt>
      <trkpt lat="48.27045" lon="2.62502">
        <ele>105.59999847412</ele>
        <time>2014-02-02T09:36:30Z</time>
      </trkpt>
      <trkpt lat="48.27044" lon="2.62496">
        <ele>105.59999847412</ele>
        <time>2014-02-02T09:36:38Z</time>
      </trkpt>
      <trkpt lat="48.27038" lon="2.62489">
        <ele>105.59999847412</ele>
        <time>2014-02-02T09:36:47Z</time>
      </trkpt>
      <trkpt lat="48.27037" lon="2.62484">
        <ele>105.59999847412</ele>
        <time>2014-02-02T09:36:52Z</time>
      </trkpt>
      <trkpt lat="48.27029" lon="2.62468">
        <ele>105.59999847412</ele>
        <time>2014-02-02T09:36:59Z</time>
      </trkpt>
      <trkpt lat="48.27023" lon="2.62452">
        <ele>105.59999847412</ele>
        <time>2014-02-02T09:37:05Z</time>
      </trkpt>
      <trkpt lat="48.27014" lon="2.62433">
        <ele>105.59999847412</ele>
        <time>2014-02-02T09:37:11Z</time>
      </trkpt>
      <trkpt lat="48.27009" lon="2.62423">
        <ele>106</ele>
        <time>2014-02-02T09:37:16Z</time>
      </trkpt>
      <trkpt lat="48.27009" lon="2.6242">
        <ele>106.40000152588</ele>
        <time>2014-02-02T09:37:17Z</time>
      </trkpt>
      <trkpt lat="48.2701" lon="2.62417">
        <ele>107</ele>
        <time>2014-02-02T09:37:18Z</time>
      </trkpt>
      <trkpt lat="48.27011" lon="2.62413">
        <ele>107.40000152588</ele>
        <time>2014-02-02T09:37:19Z</time>
      </trkpt>
      <trkpt lat="48.27012" lon="2.6241">
        <ele>107.80000305176</ele>
        <time>2014-02-02T09:37:20Z</time>
      </trkpt>
      <trkpt lat="48.27013" lon="2.62401">
        <ele>107.80000305176</ele>
        <time>2014-02-02T09:37:24Z</time>
      </trkpt>
      <trkpt lat="48.27011" lon="2.62393">
        <ele>107.80000305176</ele>
        <time>2014-02-02T09:37:29Z</time>
      </trkpt>
      <trkpt lat="48.27011" lon="2.62388">
        <ele>107.80000305176</ele>
        <time>2014-02-02T09:37:41Z</time>
      </trkpt>
      <trkpt lat="48.27019" lon="2.62386">
        <ele>107.80000305176</ele>
        <time>2014-02-02T09:38:02Z</time>
      </trkpt>
      <trkpt lat="48.2702" lon="2.62385">
        <ele>107.80000305176</ele>
        <time>2014-02-02T09:38:03Z</time>
      </trkpt>
      <trkpt lat="48.27034" lon="2.6237">
        <ele>107.80000305176</ele>
        <time>2014-02-02T09:38:12Z</time>
      </trkpt>
      <trkpt lat="48.27035" lon="2.62371">
        <ele>107.80000305176</ele>
        <time>2014-02-02T09:38:13Z</time>
      </trkpt>
      <trkpt lat="48.27039" lon="2.62373">
        <ele>107.80000305176</ele>
        <time>2014-02-02T09:38:16Z</time>
      </trkpt>
      <trkpt lat="48.27045" lon="2.62386">
        <ele>107.80000305176</ele>
        <time>2014-02-02T09:38:23Z</time>
      </trkpt>
      <trkpt lat="48.27049" lon="2.62389">
        <ele>107.40000152588</ele>
        <time>2014-02-02T09:38:26Z</time>
      </trkpt>
      <trkpt lat="48.2705" lon="2.6239">
        <ele>107</ele>
        <time>2014-02-02T09:38:27Z</time>
      </trkpt>
      <trkpt lat="48.27052" lon="2.62392">
        <ele>106.40000152588</ele>
        <time>2014-02-02T09:38:28Z</time>
      </trkpt>
      <trkpt lat="48.27053" lon="2.62393">
        <ele>106</ele>
        <time>2014-02-02T09:38:29Z</time>
      </trkpt>
      <trkpt lat="48.27053" lon="2.62393">
        <ele>105.59999847412</ele>
        <time>2014-02-02T09:38:30Z</time>
      </trkpt>
      <trkpt lat="48.27056" lon="2.6241">
        <ele>105.59999847412</ele>
        <time>2014-02-02T09:38:37Z</time>
      </trkpt>
      <trkpt lat="48.27065" lon="2.62427">
        <ele>105.59999847412</ele>
        <time>2014-02-02T09:38:44Z</time>
      </trkpt>
      <trkpt lat="48.27063" lon="2.62433">
        <ele>105.59999847412</ele>
        <time>2014-02-02T09:38:48Z</time>
      </trkpt>
      <trkpt lat="48.2706" lon="2.62435">
        <ele>105.59999847412</ele>
        <time>2014-02-02T09:38:50Z</time>
      </trkpt>
      <trkpt lat="48.27055" lon="2.62442">
        <ele>105.59999847412</ele>
        <time>2014-02-02T09:38:54Z</time>
      </trkpt>
      <trkpt lat="48.27055" lon="2.62445">
        <ele>105.59999847412</ele>
        <time>2014-02-02T09:38:55Z</time>
      </trkpt>
      <trkpt lat="48.27051" lon="2.62464">
        <ele>105.59999847412</ele>
        <time>2014-02-02T09:39:02Z</time>
      </trkpt>
      <trkpt lat="48.2705" lon="2.6248">
        <ele>105.59999847412</ele>
        <time>2014-02-02T09:39:07Z</time>
      </trkpt>
      <trkpt lat="48.27051" lon="2.62491">
        <ele>105.59999847412</ele>
        <time>2014-02-02T09:39:12Z</time>
      </trkpt>
      <trkpt lat="48.27053" lon="2.62492">
        <ele>105.59999847412</ele>
        <time>2014-02-02T09:39:14Z</time>
      </trkpt>
      <trkpt lat="48.27058" lon="2.62491">
        <ele>105.59999847412</ele>
        <time>2014-02-02T09:39:17Z</time>
      </trkpt>
      <trkpt lat="48.27061" lon="2.62494">
        <ele>105.59999847412</ele>
        <time>2014-02-02T09:39:19Z</time>
      </trkpt>
      <trkpt lat="48.27065" lon="2.62497">
        <ele>105.59999847412</ele>
        <time>2014-02-02T09:39:21Z</time>
      </trkpt>
      <trkpt lat="48.27068" lon="2.62511">
        <ele>105.59999847412</ele>
        <time>2014-02-02T09:39:26Z</time>
      </trkpt>
      <trkpt lat="48.27065" lon="2.6252">
        <ele>105.59999847412</ele>
        <time>2014-02-02T09:39:29Z</time>
      </trkpt>
      <trkpt lat="48.27065" lon="2.62523">
        <ele>105.59999847412</ele>
        <time>2014-02-02T09:39:30Z</time>
      </trkpt>
      <trkpt lat="48.27061" lon="2.62535">
        <ele>105.59999847412</ele>
        <time>2014-02-02T09:39:36Z</time>
      </trkpt>
      <trkpt lat="48.27059" lon="2.62551">
        <ele>105.59999847412</ele>
        <time>2014-02-02T09:39:42Z</time>
      </trkpt>
      <trkpt lat="48.2705" lon="2.62567">
        <ele>105.59999847412</ele>
        <time>2014-02-02T09:39:48Z</time>
      </trkpt>
      <trkpt lat="48.27039" lon="2.62572">
        <ele>105.59999847412</ele>
        <time>2014-02-02T09:39:54Z</time>
      </trkpt>
      <trkpt lat="48.27026" lon="2.62581">
        <ele>105.59999847412</ele>
        <time>2014-02-02T09:40:00Z</time>
      </trkpt>
      <trkpt lat="48.27013" lon="2.62584">
        <ele>105.59999847412</ele>
        <time>2014-02-02T09:40:06Z</time>
      </trkpt>
      <trkpt lat="48.27002" lon="2.6259">
        <ele>105.59999847412</ele>
        <time>2014-02-02T09:40:11Z</time>
      </trkpt>
      <trkpt lat="48.26992" lon="2.62614">
        <ele>105.59999847412</ele>
        <time>2014-02-02T09:40:18Z</time>
      </trkpt>
      <trkpt lat="48.26987" lon="2.62628">
        <ele>105.59999847412</ele>
        <time>2014-02-02T09:40:24Z</time>
      </trkpt>
      <trkpt lat="48.2699" lon="2.62628">
        <ele>105.59999847412</ele>
        <time>2014-02-02T09:40:25Z</time>
      </trkpt>
      <trkpt lat="48.26993" lon="2.6263">
        <ele>105.59999847412</ele>
        <time>2014-02-02T09:40:27Z</time>
      </trkpt>
      <trkpt lat="48.26999" lon="2.62638">
        <ele>105.59999847412</ele>
        <time>2014-02-02T09:40:30Z</time>
      </trkpt>
      <trkpt lat="48.27005" lon="2.62644">
        <ele>105.59999847412</ele>
        <time>2014-02-02T09:40:33Z</time>
      </trkpt>
      <trkpt lat="48.27015" lon="2.62653">
        <ele>105.59999847412</ele>
        <time>2014-02-02T09:40:38Z</time>
      </trkpt>
      <trkpt lat="48.27031" lon="2.62659">
        <ele>105.59999847412</ele>
        <time>2014-02-02T09:40:44Z</time>
      </trkpt>
      <trkpt lat="48.27039" lon="2.62661">
        <ele>106</ele>
        <time>2014-02-02T09:40:47Z</time>
      </trkpt>
      <trkpt lat="48.27041" lon="2.62661">
        <ele>106.40000152588</ele>
        <time>2014-02-02T09:40:48Z</time>
      </trkpt>
      <trkpt lat="48.27043" lon="2.6266">
        <ele>106.80000305176</ele>
        <time>2014-02-02T09:40:49Z</time>
      </trkpt>
      <trkpt lat="48.27045" lon="2.62658">
        <ele>107.19999694824</ele>
        <time>2014-02-02T09:40:50Z</time>
      </trkpt>
      <trkpt lat="48.27046" lon="2.62656">
        <ele>107.59999847412</ele>
        <time>2014-02-02T09:40:51Z</time>
      </trkpt>
      <trkpt lat="48.27052" lon="2.62654">
        <ele>107.59999847412</ele>
        <time>2014-02-02T09:40:54Z</time>
      </trkpt>
      <trkpt lat="48.27054" lon="2.62653">
        <ele>107.59999847412</ele>
        <time>2014-02-02T09:40:56Z</time>
      </trkpt>
      <trkpt lat="48.27057" lon="2.62651">
        <ele>107.59999847412</ele>
        <time>2014-02-02T09:40:57Z</time>
      </trkpt>
      <trkpt lat="48.27066" lon="2.62644">
        <ele>107.59999847412</ele>
        <time>2014-02-02T09:41:01Z</time>
      </trkpt>
      <trkpt lat="48.27071" lon="2.62641">
        <ele>107.59999847412</ele>
        <time>2014-02-02T09:41:04Z</time>
      </trkpt>
      <trkpt lat="48.27074" lon="2.62643">
        <ele>107.59999847412</ele>
        <time>2014-02-02T09:41:06Z</time>
      </trkpt>
      <trkpt lat="48.27085" lon="2.62648">
        <ele>107.59999847412</ele>
        <time>2014-02-02T09:41:11Z</time>
      </trkpt>
      <trkpt lat="48.27089" lon="2.62647">
        <ele>107.59999847412</ele>
        <time>2014-02-02T09:41:12Z</time>
      </trkpt>
      <trkpt lat="48.27098" lon="2.62647">
        <ele>107.59999847412</ele>
        <time>2014-02-02T09:41:16Z</time>
      </trkpt>
      <trkpt lat="48.271" lon="2.62648">
        <ele>107.59999847412</ele>
        <time>2014-02-02T09:41:17Z</time>
      </trkpt>
      <trkpt lat="48.27113" lon="2.62651">
        <ele>107.59999847412</ele>
        <time>2014-02-02T09:41:23Z</time>
      </trkpt>
      <trkpt lat="48.27125" lon="2.62622">
        <ele>107.59999847412</ele>
        <time>2014-02-02T09:41:32Z</time>
      </trkpt>
      <trkpt lat="48.27125" lon="2.62619">
        <ele>107.59999847412</ele>
        <time>2014-02-02T09:41:33Z</time>
      </trkpt>
      <trkpt lat="48.27125" lon="2.62603">
        <ele>107.59999847412</ele>
        <time>2014-02-02T09:41:37Z</time>
      </trkpt>
      <trkpt lat="48.27125" lon="2.62595">
        <ele>107.59999847412</ele>
        <time>2014-02-02T09:41:39Z</time>
      </trkpt>
      <trkpt lat="48.27124" lon="2.6259">
        <ele>107.19999694824</ele>
        <time>2014-02-02T09:41:40Z</time>
      </trkpt>
      <trkpt lat="48.27124" lon="2.62587">
        <ele>106.80000305176</ele>
        <time>2014-02-02T09:41:41Z</time>
      </trkpt>
      <trkpt lat="48.27123" lon="2.62583">
        <ele>106.40000152588</ele>
        <time>2014-02-02T09:41:42Z</time>
      </trkpt>
      <trkpt lat="48.27123" lon="2.62578">
        <ele>106</ele>
        <time>2014-02-02T09:41:43Z</time>
      </trkpt>
      <trkpt lat="48.27124" lon="2.62572">
        <ele>105.59999847412</ele>
        <time>2014-02-02T09:41:44Z</time>
      </trkpt>
      <trkpt lat="48.27124" lon="2.62567">
        <ele>105.59999847412</ele>
        <time>2014-02-02T09:41:45Z</time>
      </trkpt>
      <trkpt lat="48.27123" lon="2.62546">
        <ele>105.59999847412</ele>
        <time>2014-02-02T09:41:49Z</time>
      </trkpt>
      <trkpt lat="48.27123" lon="2.62517">
        <ele>105.59999847412</ele>
        <time>2014-02-02T09:41:55Z</time>
      </trkpt>
      <trkpt lat="48.27121" lon="2.62488">
        <ele>105.59999847412</ele>
        <time>2014-02-02T09:42:02Z</time>
      </trkpt>
      <trkpt lat="48.27119" lon="2.6248">
        <ele>105.59999847412</ele>
        <time>2014-02-02T09:42:07Z</time>
      </trkpt>
      <trkpt lat="48.27118" lon="2.62477">
        <ele>105</ele>
        <time>2014-02-02T09:42:46Z</time>
      </trkpt>
      <trkpt lat="48.27119" lon="2.62478">
        <ele>104.59999847412</ele>
        <time>2014-02-02T09:42:47Z</time>
      </trkpt>
      <trkpt lat="48.27119" lon="2.62481">
        <ele>104.19999694824</ele>
        <time>2014-02-02T09:42:48Z</time>
      </trkpt>
      <trkpt lat="48.2712" lon="2.6248">
        <ele>103.80000305176</ele>
        <time>2014-02-02T09:42:49Z</time>
      </trkpt>
      <trkpt lat="48.27121" lon="2.62479">
        <ele>103.19999694824</ele>
        <time>2014-02-02T09:42:50Z</time>
      </trkpt>
      <trkpt lat="48.27121" lon="2.6248">
        <ele>102.80000305176</ele>
        <time>2014-02-02T09:43:14Z</time>
      </trkpt>
      <trkpt lat="48.27122" lon="2.62479">
        <ele>102.40000152588</ele>
        <time>2014-02-02T09:43:15Z</time>
      </trkpt>
      <trkpt lat="48.27122" lon="2.62478">
        <ele>101.59999847412</ele>
        <time>2014-02-02T09:43:16Z</time>
      </trkpt>
      <trkpt lat="48.27122" lon="2.62475">
        <ele>100.80000305176</ele>
        <time>2014-02-02T09:43:17Z</time>
      </trkpt>
      <trkpt lat="48.27123" lon="2.62473">
        <ele>100</ele>
        <time>2014-02-02T09:43:18Z</time>
      </trkpt>
      <trkpt lat="48.27123" lon="2.62472">
        <ele>99.199996948242</ele>
        <time>2014-02-02T09:43:19Z</time>
      </trkpt>
      <trkpt lat="48.27123" lon="2.62473">
        <ele>98.400001525879</ele>
        <time>2014-02-02T09:43:20Z</time>
      </trkpt>
      <trkpt lat="48.27127" lon="2.62473">
        <ele>98</ele>
        <time>2014-02-02T09:43:25Z</time>
      </trkpt>
      <trkpt lat="48.27129" lon="2.62474">
        <ele>97.599998474121</ele>
        <time>2014-02-02T09:43:26Z</time>
      </trkpt>
      <trkpt lat="48.2713" lon="2.62475">
        <ele>97</ele>
        <time>2014-02-02T09:43:27Z</time>
      </trkpt>
      <trkpt lat="48.27132" lon="2.62475">
        <ele>96.599998474121</ele>
        <time>2014-02-02T09:43:28Z</time>
      </trkpt>
      <trkpt lat="48.27134" lon="2.62476">
        <ele>96</ele>
        <time>2014-02-02T09:43:29Z</time>
      </trkpt>
      <trkpt lat="48.27135" lon="2.62476">
        <ele>95.400001525879</ele>
        <time>2014-02-02T09:43:30Z</time>
      </trkpt>
      <trkpt lat="48.27137" lon="2.62475">
        <ele>94.599998474121</ele>
        <time>2014-02-02T09:43:31Z</time>
      </trkpt>
      <trkpt lat="48.27139" lon="2.62475">
        <ele>94</ele>
        <time>2014-02-02T09:43:32Z</time>
      </trkpt>
      <trkpt lat="48.2714" lon="2.62474">
        <ele>93.199996948242</ele>
        <time>2014-02-02T09:43:33Z</time>
      </trkpt>
      <trkpt lat="48.27141" lon="2.62473">
        <ele>92.400001525879</ele>
        <time>2014-02-02T09:43:34Z</time>
      </trkpt>
      <trkpt lat="48.27142" lon="2.62473">
        <ele>91.599998474121</ele>
        <time>2014-02-02T09:43:35Z</time>
      </trkpt>
      <trkpt lat="48.27142" lon="2.62474">
        <ele>90.800003051758</ele>
        <time>2014-02-02T09:43:36Z</time>
      </trkpt>
      <trkpt lat="48.27143" lon="2.62474">
        <ele>90</ele>
        <time>2014-02-02T09:43:37Z</time>
      </trkpt>
      <trkpt lat="48.27143" lon="2.62474">
        <ele>89.199996948242</ele>
        <time>2014-02-02T09:43:38Z</time>
      </trkpt>
      <trkpt lat="48.27146" lon="2.62475">
        <ele>88.599998474121</ele>
        <time>2014-02-02T09:43:44Z</time>
      </trkpt>
      <trkpt lat="48.27147" lon="2.62476">
        <ele>88.199996948242</ele>
        <time>2014-02-02T09:43:45Z</time>
      </trkpt>
      <trkpt lat="48.27148" lon="2.62476">
        <ele>87.400001525879</ele>
        <time>2014-02-02T09:43:46Z</time>
      </trkpt>
      <trkpt lat="48.2715" lon="2.62477">
        <ele>86.800003051758</ele>
        <time>2014-02-02T09:43:47Z</time>
      </trkpt>
      <trkpt lat="48.27152" lon="2.62477">
        <ele>86</ele>
        <time>2014-02-02T09:43:48Z</time>
      </trkpt>
      <trkpt lat="48.27153" lon="2.62478">
        <ele>85.400001525879</ele>
        <time>2014-02-02T09:43:49Z</time>
      </trkpt>
      <trkpt lat="48.27155" lon="2.62477">
        <ele>84.800003051758</ele>
        <time>2014-02-02T09:43:50Z</time>
      </trkpt>
      <trkpt lat="48.27157" lon="2.62476">
        <ele>84.800003051758</ele>
        <time>2014-02-02T09:43:51Z</time>
      </trkpt>
      <trkpt lat="48.2716" lon="2.62472">
        <ele>84.800003051758</ele>
        <time>2014-02-02T09:43:54Z</time>
      </trkpt>
      <trkpt lat="48.27161" lon="2.62463">
        <ele>84.800003051758</ele>
        <time>2014-02-02T09:44:00Z</time>
      </trkpt>
      <trkpt lat="48.2716" lon="2.62459">
        <ele>84.199996948242</ele>
        <time>2014-02-02T09:44:10Z</time>
      </trkpt>
      <trkpt lat="48.2716" lon="2.62459">
        <ele>83.800003051758</ele>
        <time>2014-02-02T09:44:11Z</time>
      </trkpt>
      <trkpt lat="48.27161" lon="2.62459">
        <ele>83.400001525879</ele>
        <time>2014-02-02T09:44:12Z</time>
      </trkpt>
      <trkpt lat="48.27161" lon="2.62459">
        <ele>83</ele>
        <time>2014-02-02T09:44:13Z</time>
      </trkpt>
      <trkpt lat="48.27161" lon="2.62458">
        <ele>82.599998474121</ele>
        <time>2014-02-02T09:44:14Z</time>
      </trkpt>
      <trkpt lat="48.2716" lon="2.62467">
        <ele>82.599998474121</ele>
        <time>2014-02-02T09:45:35Z</time>
      </trkpt>
      <trkpt lat="48.27162" lon="2.62473">
        <ele>82.599998474121</ele>
        <time>2014-02-02T09:45:45Z</time>
      </trkpt>
      <trkpt lat="48.27161" lon="2.62471">
        <ele>82.599998474121</ele>
        <time>2014-02-02T09:46:03Z</time>
      </trkpt>
      <trkpt lat="48.2716" lon="2.62467">
        <ele>83</ele>
        <time>2014-02-02T09:47:25Z</time>
      </trkpt>
      <trkpt lat="48.2716" lon="2.62467">
        <ele>83.400001525879</ele>
        <time>2014-02-02T09:47:26Z</time>
      </trkpt>
      <trkpt lat="48.2716" lon="2.62467">
        <ele>83.800003051758</ele>
        <time>2014-02-02T09:47:27Z</time>
      </trkpt>
      <trkpt lat="48.2716" lon="2.62467">
        <ele>84.199996948242</ele>
        <time>2014-02-02T09:47:28Z</time>
      </trkpt>
      <trkpt lat="48.2716" lon="2.62467">
        <ele>84.599998474121</ele>
        <time>2014-02-02T09:47:29Z</time>
      </trkpt>
      <trkpt lat="48.27164" lon="2.62449">
        <ele>84.599998474121</ele>
        <time>2014-02-02T09:48:44Z</time>
      </trkpt>
      <trkpt lat="48.27166" lon="2.62417">
        <ele>84.599998474121</ele>
        <time>2014-02-02T09:48:52Z</time>
      </trkpt>
      <trkpt lat="48.27152" lon="2.62401">
        <ele>84.599998474121</ele>
        <time>2014-02-02T09:48:59Z</time>
      </trkpt>
      <trkpt lat="48.27142" lon="2.62389">
        <ele>85.199996948242</ele>
        <time>2014-02-02T09:49:05Z</time>
      </trkpt>
      <trkpt lat="48.27142" lon="2.62387">
        <ele>85.599998474121</ele>
        <time>2014-02-02T09:49:06Z</time>
      </trkpt>
      <trkpt lat="48.2714" lon="2.62386">
        <ele>86</ele>
        <time>2014-02-02T09:49:07Z</time>
      </trkpt>
      <trkpt lat="48.2714" lon="2.62385">
        <ele>86.400001525879</ele>
        <time>2014-02-02T09:49:08Z</time>
      </trkpt>
      <trkpt lat="48.27139" lon="2.62386">
        <ele>86.800003051758</ele>
        <time>2014-02-02T09:49:09Z</time>
      </trkpt>
      <trkpt lat="48.27139" lon="2.62385">
        <ele>86.800003051758</ele>
        <time>2014-02-02T09:49:10Z</time>
      </trkpt>
      <trkpt lat="48.27139" lon="2.62374">
        <ele>86.800003051758</ele>
        <time>2014-02-02T09:49:26Z</time>
      </trkpt>
      <trkpt lat="48.2714" lon="2.62372">
        <ele>87.199996948242</ele>
        <time>2014-02-02T09:49:27Z</time>
      </trkpt>
      <trkpt lat="48.2714" lon="2.62369">
        <ele>87.599998474121</ele>
        <time>2014-02-02T09:49:28Z</time>
      </trkpt>
      <trkpt lat="48.27141" lon="2.62366">
        <ele>88</ele>
        <time>2014-02-02T09:49:29Z</time>
      </trkpt>
      <trkpt lat="48.27142" lon="2.62364">
        <ele>88.400001525879</ele>
        <time>2014-02-02T09:49:30Z</time>
      </trkpt>
      <trkpt lat="48.27142" lon="2.62362">
        <ele>88.800003051758</ele>
        <time>2014-02-02T09:49:31Z</time>
      </trkpt>
      <trkpt lat="48.27141" lon="2.62361">
        <ele>88.800003051758</ele>
        <time>2014-02-02T09:49:33Z</time>
      </trkpt>
      <trkpt lat="48.27143" lon="2.62354">
        <ele>88.800003051758</ele>
        <time>2014-02-02T09:49:42Z</time>
      </trkpt>
      <trkpt lat="48.2714" lon="2.62351">
        <ele>89.199996948242</ele>
        <time>2014-02-02T09:50:17Z</time>
      </trkpt>
      <trkpt lat="48.27141" lon="2.6235">
        <ele>89.599998474121</ele>
        <time>2014-02-02T09:50:18Z</time>
      </trkpt>
      <trkpt lat="48.27141" lon="2.62349">
        <ele>90</ele>
        <time>2014-02-02T09:50:19Z</time>
      </trkpt>
      <trkpt lat="48.2714" lon="2.62347">
        <ele>90.599998474121</ele>
        <time>2014-02-02T09:50:20Z</time>
      </trkpt>
      <trkpt lat="48.27141" lon="2.62345">
        <ele>91</ele>
        <time>2014-02-02T09:50:21Z</time>
      </trkpt>
      <trkpt lat="48.27146" lon="2.6234">
        <ele>91</ele>
        <time>2014-02-02T09:50:24Z</time>
      </trkpt>
      <trkpt lat="48.27148" lon="2.62339">
        <ele>91.400001525879</ele>
        <time>2014-02-02T09:50:25Z</time>
      </trkpt>
      <trkpt lat="48.27149" lon="2.62338">
        <ele>91.800003051758</ele>
        <time>2014-02-02T09:50:26Z</time>
      </trkpt>
      <trkpt lat="48.27151" lon="2.62338">
        <ele>92.400001525879</ele>
        <time>2014-02-02T09:50:27Z</time>
      </trkpt>
      <trkpt lat="48.27152" lon="2.62338">
        <ele>92.800003051758</ele>
        <time>2014-02-02T09:50:28Z</time>
      </trkpt>
      <trkpt lat="48.27153" lon="2.62338">
        <ele>93.199996948242</ele>
        <time>2014-02-02T09:50:29Z</time>
      </trkpt>
      <trkpt lat="48.27157" lon="2.62337">
        <ele>93.199996948242</ele>
        <time>2014-02-02T09:50:32Z</time>
      </trkpt>
      <trkpt lat="48.27162" lon="2.62334">
        <ele>93.199996948242</ele>
        <time>2014-02-02T09:50:41Z</time>
      </trkpt>
      <trkpt lat="48.27158" lon="2.62331">
        <ele>93.199996948242</ele>
        <time>2014-02-02T09:50:49Z</time>
      </trkpt>
      <trkpt lat="48.27148" lon="2.62325">
        <ele>93.199996948242</ele>
        <time>2014-02-02T09:51:32Z</time>
      </trkpt>
      <trkpt lat="48.27147" lon="2.62322">
        <ele>93.599998474121</ele>
        <time>2014-02-02T09:51:34Z</time>
      </trkpt>
      <trkpt lat="48.27145" lon="2.62321">
        <ele>94.199996948242</ele>
        <time>2014-02-02T09:51:35Z</time>
      </trkpt>
      <trkpt lat="48.27145" lon="2.6232">
        <ele>94.599998474121</ele>
        <time>2014-02-02T09:51:36Z</time>
      </trkpt>
      <trkpt lat="48.27143" lon="2.62318">
        <ele>95</ele>
        <time>2014-02-02T09:51:37Z</time>
      </trkpt>
      <trkpt lat="48.27143" lon="2.62316">
        <ele>95.400001525879</ele>
        <time>2014-02-02T09:51:38Z</time>
      </trkpt>
      <trkpt lat="48.2714" lon="2.62313">
        <ele>95.800003051758</ele>
        <time>2014-02-02T09:51:40Z</time>
      </trkpt>
      <trkpt lat="48.2714" lon="2.62312">
        <ele>96.199996948242</ele>
        <time>2014-02-02T09:51:41Z</time>
      </trkpt>
      <trkpt lat="48.27139" lon="2.62311">
        <ele>96.599998474121</ele>
        <time>2014-02-02T09:51:42Z</time>
      </trkpt>
      <trkpt lat="48.27139" lon="2.6231">
        <ele>97</ele>
        <time>2014-02-02T09:51:43Z</time>
      </trkpt>
      <trkpt lat="48.27138" lon="2.6231">
        <ele>97.599998474121</ele>
        <time>2014-02-02T09:51:44Z</time>
      </trkpt>
      <trkpt lat="48.27135" lon="2.62307">
        <ele>98</ele>
        <time>2014-02-02T09:51:51Z</time>
      </trkpt>
      <trkpt lat="48.27134" lon="2.62306">
        <ele>98.400001525879</ele>
        <time>2014-02-02T09:51:52Z</time>
      </trkpt>
      <trkpt lat="48.27134" lon="2.62306">
        <ele>98.800003051758</ele>
        <time>2014-02-02T09:51:53Z</time>
      </trkpt>
      <trkpt lat="48.27133" lon="2.62305">
        <ele>99.400001525879</ele>
        <time>2014-02-02T09:51:54Z</time>
      </trkpt>
      <trkpt lat="48.27132" lon="2.62305">
        <ele>99.800003051758</ele>
        <time>2014-02-02T09:51:55Z</time>
      </trkpt>
      <trkpt lat="48.2713" lon="2.62302">
        <ele>100.19999694824</ele>
        <time>2014-02-02T09:52:02Z</time>
      </trkpt>
      <trkpt lat="48.2713" lon="2.62302">
        <ele>100.59999847412</ele>
        <time>2014-02-02T09:52:03Z</time>
      </trkpt>
      <trkpt lat="48.27129" lon="2.62302">
        <ele>101</ele>
        <time>2014-02-02T09:52:04Z</time>
      </trkpt>
      <trkpt lat="48.27128" lon="2.62301">
        <ele>101.40000152588</ele>
        <time>2014-02-02T09:52:05Z</time>
      </trkpt>
      <trkpt lat="48.27127" lon="2.62301">
        <ele>101.80000305176</ele>
        <time>2014-02-02T09:52:06Z</time>
      </trkpt>
      <trkpt lat="48.27126" lon="2.62299">
        <ele>101.80000305176</ele>
        <time>2014-02-02T09:52:10Z</time>
      </trkpt>
      <trkpt lat="48.27123" lon="2.62298">
        <ele>102.40000152588</ele>
        <time>2014-02-02T09:52:16Z</time>
      </trkpt>
      <trkpt lat="48.27122" lon="2.62297">
        <ele>102.80000305176</ele>
        <time>2014-02-02T09:52:17Z</time>
      </trkpt>
      <trkpt lat="48.27122" lon="2.62297">
        <ele>103.19999694824</ele>
        <time>2014-02-02T09:52:18Z</time>
      </trkpt>
      <trkpt lat="48.27121" lon="2.62296">
        <ele>103.59999847412</ele>
        <time>2014-02-02T09:52:19Z</time>
      </trkpt>
      <trkpt lat="48.27121" lon="2.62296">
        <ele>104</ele>
        <time>2014-02-02T09:52:20Z</time>
      </trkpt>
      <trkpt lat="48.27114" lon="2.62294">
        <ele>104.40000152588</ele>
        <time>2014-02-02T09:52:29Z</time>
      </trkpt>
      <trkpt lat="48.27114" lon="2.62294">
        <ele>104.80000305176</ele>
        <time>2014-02-02T09:52:30Z</time>
      </trkpt>
      <trkpt lat="48.27116" lon="2.62293">
        <ele>105.19999694824</ele>
        <time>2014-02-02T09:52:31Z</time>
      </trkpt>
      <trkpt lat="48.27116" lon="2.62292">
        <ele>105.59999847412</ele>
        <time>2014-02-02T09:52:32Z</time>
      </trkpt>
      <trkpt lat="48.27116" lon="2.62292">
        <ele>106</ele>
        <time>2014-02-02T09:52:33Z</time>
      </trkpt>
      <trkpt lat="48.27117" lon="2.6229">
        <ele>106</ele>
        <time>2014-02-02T09:52:37Z</time>
      </trkpt>
      <trkpt lat="48.27127" lon="2.62285">
        <ele>106</ele>
        <time>2014-02-02T09:52:46Z</time>
      </trkpt>
      <trkpt lat="48.2714" lon="2.62281">
        <ele>106</ele>
        <time>2014-02-02T09:52:53Z</time>
      </trkpt>
      <trkpt lat="48.27152" lon="2.62271">
        <ele>106</ele>
        <time>2014-02-02T09:53:01Z</time>
      </trkpt>
      <trkpt lat="48.27158" lon="2.62272">
        <ele>106</ele>
        <time>2014-02-02T09:53:05Z</time>
      </trkpt>
      <trkpt lat="48.27164" lon="2.6227">
        <ele>106</ele>
        <time>2014-02-02T09:53:09Z</time>
      </trkpt>
      <trkpt lat="48.27169" lon="2.62275">
        <ele>106</ele>
        <time>2014-02-02T09:53:12Z</time>
      </trkpt>
      <trkpt lat="48.27172" lon="2.62275">
        <ele>106</ele>
        <time>2014-02-02T09:53:14Z</time>
      </trkpt>
      <trkpt lat="48.27178" lon="2.62274">
        <ele>106</ele>
        <time>2014-02-02T09:53:17Z</time>
      </trkpt>
      <trkpt lat="48.2718" lon="2.62273">
        <ele>106</ele>
        <time>2014-02-02T09:53:18Z</time>
      </trkpt>
      <trkpt lat="48.27182" lon="2.62272">
        <ele>106</ele>
        <time>2014-02-02T09:53:20Z</time>
      </trkpt>
      <trkpt lat="48.27183" lon="2.62275">
        <ele>106</ele>
        <time>2014-02-02T09:53:22Z</time>
      </trkpt>
      <trkpt lat="48.27184" lon="2.62277">
        <ele>105.59999847412</ele>
        <time>2014-02-02T09:53:23Z</time>
      </trkpt>
      <trkpt lat="48.27184" lon="2.62279">
        <ele>105.19999694824</ele>
        <time>2014-02-02T09:53:24Z</time>
      </trkpt>
      <trkpt lat="48.27184" lon="2.6228">
        <ele>104.80000305176</ele>
        <time>2014-02-02T09:53:25Z</time>
      </trkpt>
      <trkpt lat="48.27184" lon="2.62279">
        <ele>104.40000152588</ele>
        <time>2014-02-02T09:53:26Z</time>
      </trkpt>
      <trkpt lat="48.27185" lon="2.62279">
        <ele>103.80000305176</ele>
        <time>2014-02-02T09:53:27Z</time>
      </trkpt>
      <trkpt lat="48.27186" lon="2.62281">
        <ele>103.40000152588</ele>
        <time>2014-02-02T09:53:56Z</time>
      </trkpt>
      <trkpt lat="48.27185" lon="2.62283">
        <ele>103</ele>
        <time>2014-02-02T09:53:57Z</time>
      </trkpt>
      <trkpt lat="48.27185" lon="2.62283">
        <ele>102.59999847412</ele>
        <time>2014-02-02T09:53:58Z</time>
      </trkpt>
      <trkpt lat="48.27185" lon="2.62284">
        <ele>102.19999694824</ele>
        <time>2014-02-02T09:53:59Z</time>
      </trkpt>
      <trkpt lat="48.27185" lon="2.62285">
        <ele>101.80000305176</ele>
        <time>2014-02-02T09:54:00Z</time>
      </trkpt>
      <trkpt lat="48.27184" lon="2.62288">
        <ele>101.40000152588</ele>
        <time>2014-02-02T09:54:03Z</time>
      </trkpt>
      <trkpt lat="48.27184" lon="2.62289">
        <ele>101</ele>
        <time>2014-02-02T09:54:04Z</time>
      </trkpt>
      <trkpt lat="48.27184" lon="2.62291">
        <ele>100.40000152588</ele>
        <time>2014-02-02T09:54:05Z</time>
      </trkpt>
      <trkpt lat="48.27183" lon="2.62292">
        <ele>100</ele>
        <time>2014-02-02T09:54:06Z</time>
      </trkpt>
      <trkpt lat="48.27182" lon="2.62293">
        <ele>99.599998474121</ele>
        <time>2014-02-02T09:54:07Z</time>
      </trkpt>
      <trkpt lat="48.2718" lon="2.62294">
        <ele>99.599998474121</ele>
        <time>2014-02-02T09:54:11Z</time>
      </trkpt>
      <trkpt lat="48.27177" lon="2.62298">
        <ele>99.199996948242</ele>
        <time>2014-02-02T09:54:19Z</time>
      </trkpt>
      <trkpt lat="48.27177" lon="2.62298">
        <ele>98.800003051758</ele>
        <time>2014-02-02T09:54:20Z</time>
      </trkpt>
      <trkpt lat="48.27177" lon="2.62298">
        <ele>98.400001525879</ele>
        <time>2014-02-02T09:54:21Z</time>
      </trkpt>
      <trkpt lat="48.27176" lon="2.62299">
        <ele>98</ele>
        <time>2014-02-02T09:54:22Z</time>
      </trkpt>
      <trkpt lat="48.27176" lon="2.62299">
        <ele>97.599998474121</ele>
        <time>2014-02-02T09:54:23Z</time>
      </trkpt>
      <trkpt lat="48.27176" lon="2.62307">
        <ele>97.199996948242</ele>
        <time>2014-02-02T09:54:29Z</time>
      </trkpt>
      <trkpt lat="48.27177" lon="2.62308">
        <ele>96.800003051758</ele>
        <time>2014-02-02T09:54:30Z</time>
      </trkpt>
      <trkpt lat="48.27178" lon="2.62309">
        <ele>96.400001525879</ele>
        <time>2014-02-02T09:54:31Z</time>
      </trkpt>
      <trkpt lat="48.27177" lon="2.62309">
        <ele>96</ele>
        <time>2014-02-02T09:54:32Z</time>
      </trkpt>
      <trkpt lat="48.27177" lon="2.6231">
        <ele>95.599998474121</ele>
        <time>2014-02-02T09:54:33Z</time>
      </trkpt>
      <trkpt lat="48.27178" lon="2.62313">
        <ele>95</ele>
        <time>2014-02-02T09:54:37Z</time>
      </trkpt>
      <trkpt lat="48.27178" lon="2.62315">
        <ele>94.599998474121</ele>
        <time>2014-02-02T09:54:38Z</time>
      </trkpt>
      <trkpt lat="48.27179" lon="2.62317">
        <ele>93.800003051758</ele>
        <time>2014-02-02T09:54:39Z</time>
      </trkpt>
      <trkpt lat="48.27181" lon="2.62322">
        <ele>93</ele>
        <time>2014-02-02T09:54:40Z</time>
      </trkpt>
      <trkpt lat="48.27183" lon="2.62327">
        <ele>92.199996948242</ele>
        <time>2014-02-02T09:54:41Z</time>
      </trkpt>
      <trkpt lat="48.27185" lon="2.6233">
        <ele>91.400001525879</ele>
        <time>2014-02-02T09:54:42Z</time>
      </trkpt>
      <trkpt lat="48.27186" lon="2.62334">
        <ele>90.800003051758</ele>
        <time>2014-02-02T09:54:43Z</time>
      </trkpt>
      <trkpt lat="48.27188" lon="2.62337">
        <ele>90.199996948242</ele>
        <time>2014-02-02T09:54:44Z</time>
      </trkpt>
      <trkpt lat="48.27188" lon="2.6234">
        <ele>89.800003051758</ele>
        <time>2014-02-02T09:54:45Z</time>
      </trkpt>
      <trkpt lat="48.27189" lon="2.62343">
        <ele>89.400001525879</ele>
        <time>2014-02-02T09:54:46Z</time>
      </trkpt>
      <trkpt lat="48.2719" lon="2.62345">
        <ele>89</ele>
        <time>2014-02-02T09:54:47Z</time>
      </trkpt>
      <trkpt lat="48.27192" lon="2.62347">
        <ele>88.599998474121</ele>
        <time>2014-02-02T09:54:48Z</time>
      </trkpt>
      <trkpt lat="48.27192" lon="2.62348">
        <ele>88.599998474121</ele>
        <time>2014-02-02T09:54:49Z</time>
      </trkpt>
      <trkpt lat="48.27194" lon="2.62352">
        <ele>88</ele>
        <time>2014-02-02T09:54:51Z</time>
      </trkpt>
      <trkpt lat="48.27195" lon="2.62355">
        <ele>87.599998474121</ele>
        <time>2014-02-02T09:54:52Z</time>
      </trkpt>
      <trkpt lat="48.27197" lon="2.62359">
        <ele>87.199996948242</ele>
        <time>2014-02-02T09:54:53Z</time>
      </trkpt>
      <trkpt lat="48.27198" lon="2.62362">
        <ele>86.800003051758</ele>
        <time>2014-02-02T09:54:54Z</time>
      </trkpt>
      <trkpt lat="48.27199" lon="2.62365">
        <ele>86.199996948242</ele>
        <time>2014-02-02T09:54:55Z</time>
      </trkpt>
      <trkpt lat="48.27201" lon="2.62387">
        <ele>86.199996948242</ele>
        <time>2014-02-02T09:55:00Z</time>
      </trkpt>
      <trkpt lat="48.272" lon="2.62397">
        <ele>85.800003051758</ele>
        <time>2014-02-02T09:55:03Z</time>
      </trkpt>
      <trkpt lat="48.27199" lon="2.62399">
        <ele>85.400001525879</ele>
        <time>2014-02-02T09:55:04Z</time>
      </trkpt>
      <trkpt lat="48.27199" lon="2.62403">
        <ele>85</ele>
        <time>2014-02-02T09:55:05Z</time>
      </trkpt>
      <trkpt lat="48.27198" lon="2.62406">
        <ele>84.599998474121</ele>
        <time>2014-02-02T09:55:06Z</time>
      </trkpt>
      <trkpt lat="48.27198" lon="2.62408">
        <ele>84.199996948242</ele>
        <time>2014-02-02T09:55:07Z</time>
      </trkpt>
      <trkpt lat="48.27197" lon="2.62426">
        <ele>83.599998474121</ele>
        <time>2014-02-02T09:55:13Z</time>
      </trkpt>
      <trkpt lat="48.27197" lon="2.62433">
        <ele>83.599998474121</ele>
        <time>2014-02-02T09:55:14Z</time>
      </trkpt>
      <trkpt lat="48.27198" lon="2.6244">
        <ele>83.199996948242</ele>
        <time>2014-02-02T09:55:15Z</time>
      </trkpt>
      <trkpt lat="48.27199" lon="2.62447">
        <ele>82.599998474121</ele>
        <time>2014-02-02T09:55:16Z</time>
      </trkpt>
      <trkpt lat="48.272" lon="2.62454">
        <ele>81.800003051758</ele>
        <time>2014-02-02T09:55:17Z</time>
      </trkpt>
      <trkpt lat="48.27201" lon="2.62462">
        <ele>81.199996948242</ele>
        <time>2014-02-02T09:55:18Z</time>
      </trkpt>
      <trkpt lat="48.27201" lon="2.62468">
        <ele>80.400001525879</ele>
        <time>2014-02-02T09:55:19Z</time>
      </trkpt>
      <trkpt lat="48.27201" lon="2.62472">
        <ele>79.800003051758</ele>
        <time>2014-02-02T09:55:20Z</time>
      </trkpt>
      <trkpt lat="48.27203" lon="2.62483">
        <ele>79.199996948242</ele>
        <time>2014-02-02T09:55:23Z</time>
      </trkpt>
      <trkpt lat="48.27203" lon="2.62486">
        <ele>78.800003051758</ele>
        <time>2014-02-02T09:55:24Z</time>
      </trkpt>
      <trkpt lat="48.27203" lon="2.62494">
        <ele>78.199996948242</ele>
        <time>2014-02-02T09:55:26Z</time>
      </trkpt>
      <trkpt lat="48.27204" lon="2.62499">
        <ele>77.800003051758</ele>
        <time>2014-02-02T09:55:27Z</time>
      </trkpt>
      <trkpt lat="48.27204" lon="2.62504">
        <ele>77.199996948242</ele>
        <time>2014-02-02T09:55:28Z</time>
      </trkpt>
      <trkpt lat="48.27204" lon="2.62517">
        <ele>77.199996948242</ele>
        <time>2014-02-02T09:55:31Z</time>
      </trkpt>
      <trkpt lat="48.27194" lon="2.62529">
        <ele>77.199996948242</ele>
        <time>2014-02-02T09:55:37Z</time>
      </trkpt>
      <trkpt lat="48.27184" lon="2.62535">
        <ele>77.199996948242</ele>
        <time>2014-02-02T09:55:43Z</time>
      </trkpt>
      <trkpt lat="48.2718" lon="2.62555">
        <ele>77.199996948242</ele>
        <time>2014-02-02T09:55:50Z</time>
      </trkpt>
      <trkpt lat="48.27182" lon="2.6257">
        <ele>77.199996948242</ele>
        <time>2014-02-02T09:55:56Z</time>
      </trkpt>
      <trkpt lat="48.27184" lon="2.62596">
        <ele>77.199996948242</ele>
        <time>2014-02-02T09:56:02Z</time>
      </trkpt>
      <trkpt lat="48.27185" lon="2.62621">
        <ele>77.199996948242</ele>
        <time>2014-02-02T09:56:08Z</time>
      </trkpt>
      <trkpt lat="48.27187" lon="2.62651">
        <ele>77.199996948242</ele>
        <time>2014-02-02T09:56:15Z</time>
      </trkpt>
      <trkpt lat="48.27185" lon="2.62671">
        <ele>77.199996948242</ele>
        <time>2014-02-02T09:56:20Z</time>
      </trkpt>
      <trkpt lat="48.27182" lon="2.62694">
        <ele>77.199996948242</ele>
        <time>2014-02-02T09:56:26Z</time>
      </trkpt>
      <trkpt lat="48.27181" lon="2.62698">
        <ele>77.199996948242</ele>
        <time>2014-02-02T09:56:27Z</time>
      </trkpt>
      <trkpt lat="48.27178" lon="2.62718">
        <ele>77.800003051758</ele>
        <time>2014-02-02T09:56:32Z</time>
      </trkpt>
      <trkpt lat="48.27177" lon="2.62719">
        <ele>78.199996948242</ele>
        <time>2014-02-02T09:56:33Z</time>
      </trkpt>
      <trkpt lat="48.27177" lon="2.62719">
        <ele>78.599998474121</ele>
        <time>2014-02-02T09:56:34Z</time>
      </trkpt>
      <trkpt lat="48.27177" lon="2.6272">
        <ele>79.199996948242</ele>
        <time>2014-02-02T09:56:35Z</time>
      </trkpt>
      <trkpt lat="48.27177" lon="2.62721">
        <ele>79.599998474121</ele>
        <time>2014-02-02T09:56:36Z</time>
      </trkpt>
      <trkpt lat="48.27176" lon="2.62722">
        <ele>79.599998474121</ele>
        <time>2014-02-02T09:56:37Z</time>
      </trkpt>
      <trkpt lat="48.27174" lon="2.62726">
        <ele>79.599998474121</ele>
        <time>2014-02-02T09:56:50Z</time>
      </trkpt>
      <trkpt lat="48.27166" lon="2.62743">
        <ele>79.599998474121</ele>
        <time>2014-02-02T09:56:54Z</time>
      </trkpt>
      <trkpt lat="48.27151" lon="2.62753">
        <ele>79.599998474121</ele>
        <time>2014-02-02T09:57:01Z</time>
      </trkpt>
      <trkpt lat="48.27143" lon="2.62752">
        <ele>79.599998474121</ele>
        <time>2014-02-02T09:57:05Z</time>
      </trkpt>
      <trkpt lat="48.27142" lon="2.62753">
        <ele>80</ele>
        <time>2014-02-02T09:57:06Z</time>
      </trkpt>
      <trkpt lat="48.2714" lon="2.62753">
        <ele>80.400001525879</ele>
        <time>2014-02-02T09:57:07Z</time>
      </trkpt>
      <trkpt lat="48.27139" lon="2.62753">
        <ele>81</ele>
        <time>2014-02-02T09:57:08Z</time>
      </trkpt>
      <trkpt lat="48.27138" lon="2.62754">
        <ele>81.400001525879</ele>
        <time>2014-02-02T09:57:09Z</time>
      </trkpt>
      <trkpt lat="48.27137" lon="2.62755">
        <ele>81.800003051758</ele>
        <time>2014-02-02T09:57:10Z</time>
      </trkpt>
      <trkpt lat="48.27131" lon="2.62757">
        <ele>81.800003051758</ele>
        <time>2014-02-02T09:57:14Z</time>
      </trkpt>
      <trkpt lat="48.27114" lon="2.62758">
        <ele>81.800003051758</ele>
        <time>2014-02-02T09:57:23Z</time>
      </trkpt>
      <trkpt lat="48.2711" lon="2.62756">
        <ele>82.199996948242</ele>
        <time>2014-02-02T09:57:26Z</time>
      </trkpt>
      <trkpt lat="48.27108" lon="2.62756">
        <ele>82.599998474121</ele>
        <time>2014-02-02T09:57:27Z</time>
      </trkpt>
      <trkpt lat="48.27108" lon="2.62755">
        <ele>83</ele>
        <time>2014-02-02T09:57:28Z</time>
      </trkpt>
      <trkpt lat="48.27106" lon="2.62756">
        <ele>83.400001525879</ele>
        <time>2014-02-02T09:57:29Z</time>
      </trkpt>
      <trkpt lat="48.27106" lon="2.62756">
        <ele>83.800003051758</ele>
        <time>2014-02-02T09:57:30Z</time>
      </trkpt>
      <trkpt lat="48.27106" lon="2.62752">
        <ele>83.800003051758</ele>
        <time>2014-02-02T09:57:39Z</time>
      </trkpt>
      <trkpt lat="48.27106" lon="2.62751">
        <ele>84.599998474121</ele>
        <time>2014-02-02T09:57:48Z</time>
      </trkpt>
      <trkpt lat="48.27105" lon="2.62751">
        <ele>84.599998474121</ele>
        <time>2014-02-02T09:57:49Z</time>
      </trkpt>
      <trkpt lat="48.27106" lon="2.62751">
        <ele>84.599998474121</ele>
        <time>2014-02-02T09:57:50Z</time>
      </trkpt>
      <trkpt lat="48.27105" lon="2.62749">
        <ele>84.599998474121</ele>
        <time>2014-02-02T09:57:51Z</time>
      </trkpt>
      <trkpt lat="48.27105" lon="2.62748">
        <ele>84.800003051758</ele>
        <time>2014-02-02T09:57:52Z</time>
      </trkpt>
      <trkpt lat="48.27104" lon="2.62748">
        <ele>84.800003051758</ele>
        <time>2014-02-02T09:57:53Z</time>
      </trkpt>
      <trkpt lat="48.27096" lon="2.6275">
        <ele>84.800003051758</ele>
        <time>2014-02-02T09:58:19Z</time>
      </trkpt>
      <trkpt lat="48.27085" lon="2.62748">
        <ele>85.199996948242</ele>
        <time>2014-02-02T09:58:30Z</time>
      </trkpt>
      <trkpt lat="48.27084" lon="2.62749">
        <ele>85.599998474121</ele>
        <time>2014-02-02T09:58:31Z</time>
      </trkpt>
      <trkpt lat="48.27083" lon="2.62749">
        <ele>86</ele>
        <time>2014-02-02T09:58:32Z</time>
      </trkpt>
      <trkpt lat="48.27083" lon="2.62749">
        <ele>86.400001525879</ele>
        <time>2014-02-02T09:58:33Z</time>
      </trkpt>
      <trkpt lat="48.27082" lon="2.6275">
        <ele>87</ele>
        <time>2014-02-02T09:58:34Z</time>
      </trkpt>
      <trkpt lat="48.27079" lon="2.62749">
        <ele>87</ele>
        <time>2014-02-02T09:58:38Z</time>
      </trkpt>
      <trkpt lat="48.27075" lon="2.6275">
        <ele>87.400001525879</ele>
        <time>2014-02-02T09:58:43Z</time>
      </trkpt>
      <trkpt lat="48.27074" lon="2.6275">
        <ele>87.800003051758</ele>
        <time>2014-02-02T09:58:44Z</time>
      </trkpt>
      <trkpt lat="48.27072" lon="2.6275">
        <ele>88.199996948242</ele>
        <time>2014-02-02T09:58:45Z</time>
      </trkpt>
      <trkpt lat="48.27071" lon="2.6275">
        <ele>88.599998474121</ele>
        <time>2014-02-02T09:58:46Z</time>
      </trkpt>
      <trkpt lat="48.27069" lon="2.62749">
        <ele>89.199996948242</ele>
        <time>2014-02-02T09:58:47Z</time>
      </trkpt>
      <trkpt lat="48.27061" lon="2.62742">
        <ele>89.199996948242</ele>
        <time>2014-02-02T09:58:57Z</time>
      </trkpt>
      <trkpt lat="48.27052" lon="2.62737">
        <ele>89.199996948242</ele>
        <time>2014-02-02T09:59:07Z</time>
      </trkpt>
      <trkpt lat="48.27051" lon="2.62735">
        <ele>89.599998474121</ele>
        <time>2014-02-02T09:59:09Z</time>
      </trkpt>
      <trkpt lat="48.27051" lon="2.62735">
        <ele>90</ele>
        <time>2014-02-02T09:59:10Z</time>
      </trkpt>
      <trkpt lat="48.27052" lon="2.62733">
        <ele>90.400001525879</ele>
        <time>2014-02-02T09:59:11Z</time>
      </trkpt>
      <trkpt lat="48.27052" lon="2.62732">
        <ele>90.800003051758</ele>
        <time>2014-02-02T09:59:12Z</time>
      </trkpt>
      <trkpt lat="48.27053" lon="2.62731">
        <ele>91.199996948242</ele>
        <time>2014-02-02T09:59:13Z</time>
      </trkpt>
      <trkpt lat="48.27056" lon="2.62728">
        <ele>91.599998474121</ele>
        <time>2014-02-02T09:59:17Z</time>
      </trkpt>
      <trkpt lat="48.27056" lon="2.62728">
        <ele>92</ele>
        <time>2014-02-02T09:59:18Z</time>
      </trkpt>
      <trkpt lat="48.27057" lon="2.62727">
        <ele>92.400001525879</ele>
        <time>2014-02-02T09:59:19Z</time>
      </trkpt>
      <trkpt lat="48.27058" lon="2.62726">
        <ele>92.800003051758</ele>
        <time>2014-02-02T09:59:20Z</time>
      </trkpt>
      <trkpt lat="48.27058" lon="2.62726">
        <ele>93.400001525879</ele>
        <time>2014-02-02T09:59:21Z</time>
      </trkpt>
      <trkpt lat="48.2706" lon="2.62725">
        <ele>93.400001525879</ele>
        <time>2014-02-02T09:59:22Z</time>
      </trkpt>
      <trkpt lat="48.27072" lon="2.62721">
        <ele>93.800003051758</ele>
        <time>2014-02-02T09:59:32Z</time>
      </trkpt>
      <trkpt lat="48.27073" lon="2.62722">
        <ele>94.199996948242</ele>
        <time>2014-02-02T09:59:33Z</time>
      </trkpt>
      <trkpt lat="48.27074" lon="2.62723">
        <ele>94.599998474121</ele>
        <time>2014-02-02T09:59:34Z</time>
      </trkpt>
      <trkpt lat="48.27075" lon="2.62723">
        <ele>95</ele>
        <time>2014-02-02T09:59:35Z</time>
      </trkpt>
      <trkpt lat="48.27076" lon="2.62722">
        <ele>95.400001525879</ele>
        <time>2014-02-02T09:59:36Z</time>
      </trkpt>
      <trkpt lat="48.27075" lon="2.62724">
        <ele>95.400001525879</ele>
        <time>2014-02-02T09:59:40Z</time>
      </trkpt>
      <trkpt lat="48.27084" lon="2.62722">
        <ele>95.400001525879</ele>
        <time>2014-02-02T10:00:15Z</time>
      </trkpt>
      <trkpt lat="48.27085" lon="2.62722">
        <ele>95.800003051758</ele>
        <time>2014-02-02T10:00:17Z</time>
      </trkpt>
      <trkpt lat="48.27087" lon="2.62721">
        <ele>96.199996948242</ele>
        <time>2014-02-02T10:00:18Z</time>
      </trkpt>
      <trkpt lat="48.27089" lon="2.62721">
        <ele>96.800003051758</ele>
        <time>2014-02-02T10:00:19Z</time>
      </trkpt>
      <trkpt lat="48.27091" lon="2.6272">
        <ele>97.199996948242</ele>
        <time>2014-02-02T10:00:20Z</time>
      </trkpt>
      <trkpt lat="48.27092" lon="2.6272">
        <ele>97.599998474121</ele>
        <time>2014-02-02T10:00:21Z</time>
      </trkpt>
      <trkpt lat="48.27096" lon="2.62719">
        <ele>97.599998474121</ele>
        <time>2014-02-02T10:00:24Z</time>
      </trkpt>
      <trkpt lat="48.27101" lon="2.62719">
        <ele>98</ele>
        <time>2014-02-02T10:00:28Z</time>
      </trkpt>
      <trkpt lat="48.27102" lon="2.62719">
        <ele>98.400001525879</ele>
        <time>2014-02-02T10:00:29Z</time>
      </trkpt>
      <trkpt lat="48.27103" lon="2.62719">
        <ele>98.800003051758</ele>
        <time>2014-02-02T10:00:30Z</time>
      </trkpt>
      <trkpt lat="48.27105" lon="2.62718">
        <ele>99.199996948242</ele>
        <time>2014-02-02T10:00:31Z</time>
      </trkpt>
      <trkpt lat="48.27106" lon="2.62718">
        <ele>99.599998474121</ele>
        <time>2014-02-02T10:00:32Z</time>
      </trkpt>
      <trkpt lat="48.27113" lon="2.62715">
        <ele>100</ele>
        <time>2014-02-02T10:00:38Z</time>
      </trkpt>
      <trkpt lat="48.27115" lon="2.62714">
        <ele>100.40000152588</ele>
        <time>2014-02-02T10:00:39Z</time>
      </trkpt>
      <trkpt lat="48.27116" lon="2.62713">
        <ele>100.80000305176</ele>
        <time>2014-02-02T10:00:40Z</time>
      </trkpt>
      <trkpt lat="48.27117" lon="2.62712">
        <ele>101.19999694824</ele>
        <time>2014-02-02T10:00:41Z</time>
      </trkpt>
      <trkpt lat="48.27118" lon="2.62711">
        <ele>101.80000305176</ele>
        <time>2014-02-02T10:00:42Z</time>
      </trkpt>
      <trkpt lat="48.27122" lon="2.6271">
        <ele>102.19999694824</ele>
        <time>2014-02-02T10:00:47Z</time>
      </trkpt>
      <trkpt lat="48.27123" lon="2.62709">
        <ele>102.59999847412</ele>
        <time>2014-02-02T10:00:48Z</time>
      </trkpt>
      <trkpt lat="48.27124" lon="2.62708">
        <ele>103.19999694824</ele>
        <time>2014-02-02T10:00:49Z</time>
      </trkpt>
      <trkpt lat="48.27125" lon="2.62708">
        <ele>103.59999847412</ele>
        <time>2014-02-02T10:00:50Z</time>
      </trkpt>
      <trkpt lat="48.27126" lon="2.62706">
        <ele>104</ele>
        <time>2014-02-02T10:00:51Z</time>
      </trkpt>
      <trkpt lat="48.27125" lon="2.62699">
        <ele>104</ele>
        <time>2014-02-02T10:00:55Z</time>
      </trkpt>
      <trkpt lat="48.27126" lon="2.62697">
        <ele>104</ele>
        <time>2014-02-02T10:01:01Z</time>
      </trkpt>
      <trkpt lat="48.27122" lon="2.62694">
        <ele>104.59999847412</ele>
        <time>2014-02-02T10:01:05Z</time>
      </trkpt>
      <trkpt lat="48.27122" lon="2.62693">
        <ele>105</ele>
        <time>2014-02-02T10:01:06Z</time>
      </trkpt>
      <trkpt lat="48.27121" lon="2.62692">
        <ele>105.40000152588</ele>
        <time>2014-02-02T10:01:07Z</time>
      </trkpt>
      <trkpt lat="48.2712" lon="2.6269">
        <ele>105.80000305176</ele>
        <time>2014-02-02T10:01:08Z</time>
      </trkpt>
      <trkpt lat="48.2712" lon="2.62689">
        <ele>106.19999694824</ele>
        <time>2014-02-02T10:01:09Z</time>
      </trkpt>
      <trkpt lat="48.27114" lon="2.6269">
        <ele>106.19999694824</ele>
        <time>2014-02-02T10:01:15Z</time>
      </trkpt>
      <trkpt lat="48.27106" lon="2.62697">
        <ele>106.19999694824</ele>
        <time>2014-02-02T10:01:25Z</time>
      </trkpt>
      <trkpt lat="48.27092" lon="2.62697">
        <ele>106.19999694824</ele>
        <time>2014-02-02T10:01:33Z</time>
      </trkpt>
      <trkpt lat="48.2708" lon="2.62691">
        <ele>106.19999694824</ele>
        <time>2014-02-02T10:01:38Z</time>
      </trkpt>
      <trkpt lat="48.27076" lon="2.62693">
        <ele>106.59999847412</ele>
        <time>2014-02-02T10:01:41Z</time>
      </trkpt>
      <trkpt lat="48.27074" lon="2.62693">
        <ele>107.19999694824</ele>
        <time>2014-02-02T10:01:42Z</time>
      </trkpt>
      <trkpt lat="48.27071" lon="2.62693">
        <ele>107.59999847412</ele>
        <time>2014-02-02T10:01:43Z</time>
      </trkpt>
      <trkpt lat="48.27069" lon="2.62694">
        <ele>108</ele>
        <time>2014-02-02T10:01:44Z</time>
      </trkpt>
      <trkpt lat="48.27067" lon="2.62694">
        <ele>108.40000152588</ele>
        <time>2014-02-02T10:01:45Z</time>
      </trkpt>
      <trkpt lat="48.27054" lon="2.62693">
        <ele>108.40000152588</ele>
        <time>2014-02-02T10:01:51Z</time>
      </trkpt>
      <trkpt lat="48.27045" lon="2.62692">
        <ele>108.40000152588</ele>
        <time>2014-02-02T10:01:55Z</time>
      </trkpt>
      <trkpt lat="48.27039" lon="2.62688">
        <ele>107.80000305176</ele>
        <time>2014-02-02T10:01:57Z</time>
      </trkpt>
      <trkpt lat="48.27036" lon="2.62686">
        <ele>107.40000152588</ele>
        <time>2014-02-02T10:01:58Z</time>
      </trkpt>
      <trkpt lat="48.27033" lon="2.62685">
        <ele>107</ele>
        <time>2014-02-02T10:01:59Z</time>
      </trkpt>
      <trkpt lat="48.27031" lon="2.62684">
        <ele>106.59999847412</ele>
        <time>2014-02-02T10:02:00Z</time>
      </trkpt>
      <trkpt lat="48.27029" lon="2.62682">
        <ele>106</ele>
        <time>2014-02-02T10:02:01Z</time>
      </trkpt>
      <trkpt lat="48.27011" lon="2.62687">
        <ele>106</ele>
        <time>2014-02-02T10:02:08Z</time>
      </trkpt>
      <trkpt lat="48.27002" lon="2.62698">
        <ele>106</ele>
        <time>2014-02-02T10:02:14Z</time>
      </trkpt>
      <trkpt lat="48.27" lon="2.627">
        <ele>106</ele>
        <time>2014-02-02T10:02:19Z</time>
      </trkpt>
      <trkpt lat="48.26995" lon="2.62693">
        <ele>106</ele>
        <time>2014-02-02T10:02:44Z</time>
      </trkpt>
      <trkpt lat="48.26991" lon="2.62686">
        <ele>106</ele>
        <time>2014-02-02T10:02:45Z</time>
      </trkpt>
      <trkpt lat="48.26981" lon="2.62668">
        <ele>106</ele>
        <time>2014-02-02T10:02:50Z</time>
      </trkpt>
      <trkpt lat="48.26971" lon="2.6265">
        <ele>106</ele>
        <time>2014-02-02T10:02:56Z</time>
      </trkpt>
      <trkpt lat="48.26963" lon="2.62623">
        <ele>106</ele>
        <time>2014-02-02T10:03:05Z</time>
      </trkpt>
      <trkpt lat="48.26965" lon="2.62602">
        <ele>106</ele>
        <time>2014-02-02T10:03:11Z</time>
      </trkpt>
      <trkpt lat="48.26959" lon="2.62595">
        <ele>106</ele>
        <time>2014-02-02T10:03:14Z</time>
      </trkpt>
      <trkpt lat="48.2695" lon="2.62586">
        <ele>106</ele>
        <time>2014-02-02T10:03:17Z</time>
      </trkpt>
      <trkpt lat="48.26949" lon="2.62568">
        <ele>106</ele>
        <time>2014-02-02T10:03:23Z</time>
      </trkpt>
      <trkpt lat="48.26953" lon="2.62552">
        <ele>106</ele>
        <time>2014-02-02T10:03:28Z</time>
      </trkpt>
      <trkpt lat="48.26954" lon="2.62531">
        <ele>106</ele>
        <time>2014-02-02T10:03:34Z</time>
      </trkpt>
      <trkpt lat="48.26959" lon="2.62511">
        <ele>106</ele>
        <time>2014-02-02T10:03:40Z</time>
      </trkpt>
      <trkpt lat="48.2695" lon="2.62494">
        <ele>106</ele>
        <time>2014-02-02T10:03:46Z</time>
      </trkpt>
      <trkpt lat="48.26943" lon="2.62476">
        <ele>106</ele>
        <time>2014-02-02T10:03:50Z</time>
      </trkpt>
      <trkpt lat="48.26931" lon="2.62452">
        <ele>106</ele>
        <time>2014-02-02T10:03:56Z</time>
      </trkpt>
      <trkpt lat="48.26917" lon="2.62449">
        <ele>106</ele>
        <time>2014-02-02T10:04:01Z</time>
      </trkpt>
      <trkpt lat="48.26912" lon="2.62447">
        <ele>106</ele>
        <time>2014-02-02T10:04:05Z</time>
      </trkpt>
      <trkpt lat="48.26911" lon="2.6245">
        <ele>106</ele>
        <time>2014-02-02T10:04:17Z</time>
      </trkpt>
      <trkpt lat="48.26907" lon="2.62451">
        <ele>106</ele>
        <time>2014-02-02T10:04:18Z</time>
      </trkpt>
      <trkpt lat="48.26899" lon="2.62458">
        <ele>106</ele>
        <time>2014-02-02T10:04:24Z</time>
      </trkpt>
      <trkpt lat="48.26894" lon="2.62463">
        <ele>106</ele>
        <time>2014-02-02T10:04:27Z</time>
      </trkpt>
      <trkpt lat="48.26894" lon="2.62468">
        <ele>106</ele>
        <time>2014-02-02T10:04:30Z</time>
      </trkpt>
      <trkpt lat="48.26901" lon="2.62472">
        <ele>106</ele>
        <time>2014-02-02T10:04:35Z</time>
      </trkpt>
      <trkpt lat="48.26908" lon="2.62473">
        <ele>106</ele>
        <time>2014-02-02T10:04:40Z</time>
      </trkpt>
      <trkpt lat="48.26909" lon="2.62475">
        <ele>106</ele>
        <time>2014-02-02T10:04:41Z</time>
      </trkpt>
      <trkpt lat="48.26905" lon="2.62482">
        <ele>106</ele>
        <time>2014-02-02T10:04:46Z</time>
      </trkpt>
      <trkpt lat="48.26899" lon="2.62497">
        <ele>106</ele>
        <time>2014-02-02T10:04:52Z</time>
      </trkpt>
      <trkpt lat="48.269" lon="2.6251">
        <ele>106</ele>
        <time>2014-02-02T10:04:57Z</time>
      </trkpt>
      <trkpt lat="48.26906" lon="2.62517">
        <ele>106</ele>
        <time>2014-02-02T10:05:01Z</time>
      </trkpt>
      <trkpt lat="48.26905" lon="2.62519">
        <ele>106</ele>
        <time>2014-02-02T10:05:02Z</time>
      </trkpt>
      <trkpt lat="48.26904" lon="2.62524">
        <ele>106</ele>
        <time>2014-02-02T10:05:04Z</time>
      </trkpt>
      <trkpt lat="48.26905" lon="2.6254">
        <ele>106</ele>
        <time>2014-02-02T10:05:09Z</time>
      </trkpt>
      <trkpt lat="48.2691" lon="2.62549">
        <ele>106</ele>
        <time>2014-02-02T10:05:13Z</time>
      </trkpt>
      <trkpt lat="48.26914" lon="2.62566">
        <ele>105.59999847412</ele>
        <time>2014-02-02T10:05:18Z</time>
      </trkpt>
      <trkpt lat="48.26915" lon="2.62569">
        <ele>105.19999694824</ele>
        <time>2014-02-02T10:05:19Z</time>
      </trkpt>
      <trkpt lat="48.26918" lon="2.62572">
        <ele>104.59999847412</ele>
        <time>2014-02-02T10:05:20Z</time>
      </trkpt>
      <trkpt lat="48.2692" lon="2.62575">
        <ele>104.19999694824</ele>
        <time>2014-02-02T10:05:21Z</time>
      </trkpt>
      <trkpt lat="48.26922" lon="2.6258">
        <ele>103.80000305176</ele>
        <time>2014-02-02T10:05:22Z</time>
      </trkpt>
      <trkpt lat="48.26924" lon="2.62591">
        <ele>103.80000305176</ele>
        <time>2014-02-02T10:05:24Z</time>
      </trkpt>
      <trkpt lat="48.26928" lon="2.6261">
        <ele>103.80000305176</ele>
        <time>2014-02-02T10:05:30Z</time>
      </trkpt>
      <trkpt lat="48.26931" lon="2.62614">
        <ele>103.19999694824</ele>
        <time>2014-02-02T10:05:32Z</time>
      </trkpt>
      <trkpt lat="48.26932" lon="2.62617">
        <ele>102.80000305176</ele>
        <time>2014-02-02T10:05:33Z</time>
      </trkpt>
      <trkpt lat="48.26933" lon="2.62619">
        <ele>102.40000152588</ele>
        <time>2014-02-02T10:05:34Z</time>
      </trkpt>
      <trkpt lat="48.26934" lon="2.62623">
        <ele>101.80000305176</ele>
        <time>2014-02-02T10:05:35Z</time>
      </trkpt>
      <trkpt lat="48.26936" lon="2.62626">
        <ele>101.40000152588</ele>
        <time>2014-02-02T10:05:36Z</time>
      </trkpt>
      <trkpt lat="48.26937" lon="2.62628">
        <ele>100.80000305176</ele>
        <time>2014-02-02T10:05:37Z</time>
      </trkpt>
      <trkpt lat="48.26937" lon="2.6263">
        <ele>100.40000152588</ele>
        <time>2014-02-02T10:05:38Z</time>
      </trkpt>
      <trkpt lat="48.26939" lon="2.62634">
        <ele>99.800003051758</ele>
        <time>2014-02-02T10:05:39Z</time>
      </trkpt>
      <trkpt lat="48.26939" lon="2.62636">
        <ele>99.400001525879</ele>
        <time>2014-02-02T10:05:40Z</time>
      </trkpt>
      <trkpt lat="48.2694" lon="2.62639">
        <ele>99</ele>
        <time>2014-02-02T10:05:41Z</time>
      </trkpt>
      <trkpt lat="48.2694" lon="2.62641">
        <ele>99</ele>
        <time>2014-02-02T10:05:42Z</time>
      </trkpt>
      <trkpt lat="48.26941" lon="2.62645">
        <ele>98.400001525879</ele>
        <time>2014-02-02T10:05:43Z</time>
      </trkpt>
      <trkpt lat="48.26941" lon="2.62648">
        <ele>98</ele>
        <time>2014-02-02T10:05:44Z</time>
      </trkpt>
      <trkpt lat="48.26942" lon="2.62652">
        <ele>97.599998474121</ele>
        <time>2014-02-02T10:05:45Z</time>
      </trkpt>
      <trkpt lat="48.26942" lon="2.62655">
        <ele>97.199996948242</ele>
        <time>2014-02-02T10:05:46Z</time>
      </trkpt>
      <trkpt lat="48.26943" lon="2.62656">
        <ele>96.800003051758</ele>
        <time>2014-02-02T10:05:47Z</time>
      </trkpt>
      <trkpt lat="48.26948" lon="2.62666">
        <ele>96.800003051758</ele>
        <time>2014-02-02T10:05:53Z</time>
      </trkpt>
      <trkpt lat="48.26949" lon="2.6267">
        <ele>96.400001525879</ele>
        <time>2014-02-02T10:05:55Z</time>
      </trkpt>
      <trkpt lat="48.2695" lon="2.62674">
        <ele>95.800003051758</ele>
        <time>2014-02-02T10:05:56Z</time>
      </trkpt>
      <trkpt lat="48.26951" lon="2.62678">
        <ele>95.199996948242</ele>
        <time>2014-02-02T10:05:57Z</time>
      </trkpt>
      <trkpt lat="48.26952" lon="2.62681">
        <ele>94.599998474121</ele>
        <time>2014-02-02T10:05:58Z</time>
      </trkpt>
      <trkpt lat="48.26952" lon="2.62683">
        <ele>94</ele>
        <time>2014-02-02T10:05:59Z</time>
      </trkpt>
      <trkpt lat="48.26954" lon="2.62686">
        <ele>93.400001525879</ele>
        <time>2014-02-02T10:06:00Z</time>
      </trkpt>
      <trkpt lat="48.26955" lon="2.6269">
        <ele>92.800003051758</ele>
        <time>2014-02-02T10:06:01Z</time>
      </trkpt>
      <trkpt lat="48.26956" lon="2.62693">
        <ele>92.199996948242</ele>
        <time>2014-02-02T10:06:02Z</time>
      </trkpt>
      <trkpt lat="48.26964" lon="2.62711">
        <ele>92.199996948242</ele>
        <time>2014-02-02T10:06:08Z</time>
      </trkpt>
      <trkpt lat="48.26973" lon="2.62729">
        <ele>92.199996948242</ele>
        <time>2014-02-02T10:06:13Z</time>
      </trkpt>
      <trkpt lat="48.26987" lon="2.62748">
        <ele>92.199996948242</ele>
        <time>2014-02-02T10:06:19Z</time>
      </trkpt>
      <trkpt lat="48.26993" lon="2.62759">
        <ele>91.800003051758</ele>
        <time>2014-02-02T10:06:22Z</time>
      </trkpt>
      <trkpt lat="48.26997" lon="2.62763">
        <ele>91.199996948242</ele>
        <time>2014-02-02T10:06:23Z</time>
      </trkpt>
      <trkpt lat="48.27" lon="2.62765">
        <ele>90.800003051758</ele>
        <time>2014-02-02T10:06:24Z</time>
      </trkpt>
      <trkpt lat="48.27003" lon="2.62764">
        <ele>90.400001525879</ele>
        <time>2014-02-02T10:06:25Z</time>
      </trkpt>
      <trkpt lat="48.27007" lon="2.62766">
        <ele>90</ele>
        <time>2014-02-02T10:06:26Z</time>
      </trkpt>
      <trkpt lat="48.27017" lon="2.62772">
        <ele>90</ele>
        <time>2014-02-02T10:06:30Z</time>
      </trkpt>
      <trkpt lat="48.27032" lon="2.62784">
        <ele>89.599998474121</ele>
        <time>2014-02-02T10:06:37Z</time>
      </trkpt>
      <trkpt lat="48.27036" lon="2.62785">
        <ele>89.199996948242</ele>
        <time>2014-02-02T10:06:38Z</time>
      </trkpt>
      <trkpt lat="48.27041" lon="2.6279">
        <ele>88.800003051758</ele>
        <time>2014-02-02T10:06:39Z</time>
      </trkpt>
      <trkpt lat="48.27045" lon="2.62792">
        <ele>88.400001525879</ele>
        <time>2014-02-02T10:06:40Z</time>
      </trkpt>
      <trkpt lat="48.27048" lon="2.62794">
        <ele>88</ele>
        <time>2014-02-02T10:06:41Z</time>
      </trkpt>
      <trkpt lat="48.27056" lon="2.62795">
        <ele>88</ele>
        <time>2014-02-02T10:06:44Z</time>
      </trkpt>
      <trkpt lat="48.27061" lon="2.62794">
        <ele>87.599998474121</ele>
        <time>2014-02-02T10:06:46Z</time>
      </trkpt>
      <trkpt lat="48.27062" lon="2.62792">
        <ele>87</ele>
        <time>2014-02-02T10:06:47Z</time>
      </trkpt>
      <trkpt lat="48.27063" lon="2.62791">
        <ele>86.599998474121</ele>
        <time>2014-02-02T10:06:48Z</time>
      </trkpt>
      <trkpt lat="48.27064" lon="2.62791">
        <ele>86.199996948242</ele>
        <time>2014-02-02T10:06:49Z</time>
      </trkpt>
      <trkpt lat="48.27066" lon="2.6279">
        <ele>85.800003051758</ele>
        <time>2014-02-02T10:06:50Z</time>
      </trkpt>
      <trkpt lat="48.27068" lon="2.62788">
        <ele>85.800003051758</ele>
        <time>2014-02-02T10:06:51Z</time>
      </trkpt>
      <trkpt lat="48.27084" lon="2.62784">
        <ele>85.800003051758</ele>
        <time>2014-02-02T10:06:56Z</time>
      </trkpt>
      <trkpt lat="48.2709" lon="2.62785">
        <ele>85.199996948242</ele>
        <time>2014-02-02T10:06:58Z</time>
      </trkpt>
      <trkpt lat="48.27095" lon="2.62787">
        <ele>84.800003051758</ele>
        <time>2014-02-02T10:06:59Z</time>
      </trkpt>
      <trkpt lat="48.27097" lon="2.62789">
        <ele>84.400001525879</ele>
        <time>2014-02-02T10:07:00Z</time>
      </trkpt>
      <trkpt lat="48.271" lon="2.62793">
        <ele>83.800003051758</ele>
        <time>2014-02-02T10:07:01Z</time>
      </trkpt>
      <trkpt lat="48.27101" lon="2.62797">
        <ele>83.199996948242</ele>
        <time>2014-02-02T10:07:02Z</time>
      </trkpt>
      <trkpt lat="48.271" lon="2.62799">
        <ele>82.800003051758</ele>
        <time>2014-02-02T10:07:03Z</time>
      </trkpt>
      <trkpt lat="48.27097" lon="2.62802">
        <ele>82.199996948242</ele>
        <time>2014-02-02T10:07:04Z</time>
      </trkpt>
      <trkpt lat="48.27095" lon="2.62804">
        <ele>81.599998474121</ele>
        <time>2014-02-02T10:07:05Z</time>
      </trkpt>
      <trkpt lat="48.27091" lon="2.62805">
        <ele>81</ele>
        <time>2014-02-02T10:07:06Z</time>
      </trkpt>
      <trkpt lat="48.27088" lon="2.62806">
        <ele>81</ele>
        <time>2014-02-02T10:07:07Z</time>
      </trkpt>
      <trkpt lat="48.27078" lon="2.62812">
        <ele>81</ele>
        <time>2014-02-02T10:07:10Z</time>
      </trkpt>
      <trkpt lat="48.27052" lon="2.62822">
        <ele>81</ele>
        <time>2014-02-02T10:07:17Z</time>
      </trkpt>
      <trkpt lat="48.27024" lon="2.62824">
        <ele>81</ele>
        <time>2014-02-02T10:07:24Z</time>
      </trkpt>
      <trkpt lat="48.27003" lon="2.62817">
        <ele>81</ele>
        <time>2014-02-02T10:07:30Z</time>
      </trkpt>
      <trkpt lat="48.26997" lon="2.62811">
        <ele>81.400001525879</ele>
        <time>2014-02-02T10:07:32Z</time>
      </trkpt>
      <trkpt lat="48.26995" lon="2.62809">
        <ele>81.800003051758</ele>
        <time>2014-02-02T10:07:33Z</time>
      </trkpt>
      <trkpt lat="48.26992" lon="2.62806">
        <ele>82.199996948242</ele>
        <time>2014-02-02T10:07:34Z</time>
      </trkpt>
      <trkpt lat="48.26989" lon="2.62803">
        <ele>82.599998474121</ele>
        <time>2014-02-02T10:07:35Z</time>
      </trkpt>
      <trkpt lat="48.26987" lon="2.628">
        <ele>83</ele>
        <time>2014-02-02T10:07:36Z</time>
      </trkpt>
      <trkpt lat="48.26984" lon="2.62797">
        <ele>83</ele>
        <time>2014-02-02T10:07:37Z</time>
      </trkpt>
      <trkpt lat="48.26972" lon="2.62778">
        <ele>83.599998474121</ele>
        <time>2014-02-02T10:07:43Z</time>
      </trkpt>
      <trkpt lat="48.2697" lon="2.62775">
        <ele>84</ele>
        <time>2014-02-02T10:07:44Z</time>
      </trkpt>
      <trkpt lat="48.26968" lon="2.62773">
        <ele>84.400001525879</ele>
        <time>2014-02-02T10:07:45Z</time>
      </trkpt>
      <trkpt lat="48.26966" lon="2.6277">
        <ele>84.800003051758</ele>
        <time>2014-02-02T10:07:46Z</time>
      </trkpt>
      <trkpt lat="48.26965" lon="2.62767">
        <ele>85.199996948242</ele>
        <time>2014-02-02T10:07:47Z</time>
      </trkpt>
      <trkpt lat="48.26964" lon="2.62764">
        <ele>85.199996948242</ele>
        <time>2014-02-02T10:07:48Z</time>
      </trkpt>
      <trkpt lat="48.26955" lon="2.62745">
        <ele>85.199996948242</ele>
        <time>2014-02-02T10:07:55Z</time>
      </trkpt>
      <trkpt lat="48.26953" lon="2.62738">
        <ele>85.599998474121</ele>
        <time>2014-02-02T10:07:57Z</time>
      </trkpt>
      <trkpt lat="48.26952" lon="2.62736">
        <ele>86</ele>
        <time>2014-02-02T10:07:58Z</time>
      </trkpt>
      <trkpt lat="48.2695" lon="2.62734">
        <ele>86.400001525879</ele>
        <time>2014-02-02T10:07:59Z</time>
      </trkpt>
      <trkpt lat="48.26948" lon="2.62731">
        <ele>86.800003051758</ele>
        <time>2014-02-02T10:08:00Z</time>
      </trkpt>
      <trkpt lat="48.26947" lon="2.62728">
        <ele>87.199996948242</ele>
        <time>2014-02-02T10:08:01Z</time>
      </trkpt>
      <trkpt lat="48.26939" lon="2.62708">
        <ele>87.199996948242</ele>
        <time>2014-02-02T10:08:08Z</time>
      </trkpt>
      <trkpt lat="48.26937" lon="2.62702">
        <ele>87.800003051758</ele>
        <time>2014-02-02T10:08:10Z</time>
      </trkpt>
      <trkpt lat="48.26936" lon="2.627">
        <ele>88.199996948242</ele>
        <time>2014-02-02T10:08:11Z</time>
      </trkpt>
      <trkpt lat="48.26934" lon="2.62696">
        <ele>88.599998474121</ele>
        <time>2014-02-02T10:08:12Z</time>
      </trkpt>
      <trkpt lat="48.26933" lon="2.62693">
        <ele>89.199996948242</ele>
        <time>2014-02-02T10:08:13Z</time>
      </trkpt>
      <trkpt lat="48.26931" lon="2.62689">
        <ele>89.599998474121</ele>
        <time>2014-02-02T10:08:14Z</time>
      </trkpt>
      <trkpt lat="48.26928" lon="2.62683">
        <ele>89.599998474121</ele>
        <time>2014-02-02T10:08:16Z</time>
      </trkpt>
      <trkpt lat="48.26923" lon="2.62676">
        <ele>90</ele>
        <time>2014-02-02T10:08:19Z</time>
      </trkpt>
      <trkpt lat="48.26922" lon="2.62674">
        <ele>90.400001525879</ele>
        <time>2014-02-02T10:08:20Z</time>
      </trkpt>
      <trkpt lat="48.26921" lon="2.62671">
        <ele>91</ele>
        <time>2014-02-02T10:08:21Z</time>
      </trkpt>
      <trkpt lat="48.26919" lon="2.62668">
        <ele>91.400001525879</ele>
        <time>2014-02-02T10:08:22Z</time>
      </trkpt>
      <trkpt lat="48.26918" lon="2.62666">
        <ele>91.800003051758</ele>
        <time>2014-02-02T10:08:23Z</time>
      </trkpt>
      <trkpt lat="48.26917" lon="2.62663">
        <ele>91.800003051758</ele>
        <time>2014-02-02T10:08:24Z</time>
      </trkpt>
      <trkpt lat="48.26907" lon="2.62642">
        <ele>91.800003051758</ele>
        <time>2014-02-02T10:08:32Z</time>
      </trkpt>
      <trkpt lat="48.26905" lon="2.62639">
        <ele>92.199996948242</ele>
        <time>2014-02-02T10:08:33Z</time>
      </trkpt>
      <trkpt lat="48.26905" lon="2.62636">
        <ele>92.599998474121</ele>
        <time>2014-02-02T10:08:34Z</time>
      </trkpt>
      <trkpt lat="48.26904" lon="2.62634">
        <ele>93</ele>
        <time>2014-02-02T10:08:35Z</time>
      </trkpt>
      <trkpt lat="48.26903" lon="2.62631">
        <ele>93.599998474121</ele>
        <time>2014-02-02T10:08:36Z</time>
      </trkpt>
      <trkpt lat="48.26902" lon="2.62628">
        <ele>94</ele>
        <time>2014-02-02T10:08:37Z</time>
      </trkpt>
      <trkpt lat="48.26897" lon="2.62622">
        <ele>94</ele>
        <time>2014-02-02T10:08:40Z</time>
      </trkpt>
      <trkpt lat="48.26894" lon="2.62614">
        <ele>94.400001525879</ele>
        <time>2014-02-02T10:08:43Z</time>
      </trkpt>
      <trkpt lat="48.26893" lon="2.62612">
        <ele>94.800003051758</ele>
        <time>2014-02-02T10:08:44Z</time>
      </trkpt>
      <trkpt lat="48.26892" lon="2.6261">
        <ele>95.400001525879</ele>
        <time>2014-02-02T10:08:45Z</time>
      </trkpt>
      <trkpt lat="48.26891" lon="2.62607">
        <ele>95.800003051758</ele>
        <time>2014-02-02T10:08:46Z</time>
      </trkpt>
      <trkpt lat="48.2689" lon="2.62605">
        <ele>96.199996948242</ele>
        <time>2014-02-02T10:08:47Z</time>
      </trkpt>
      <trkpt lat="48.26888" lon="2.626">
        <ele>96.199996948242</ele>
        <time>2014-02-02T10:08:49Z</time>
      </trkpt>
      <trkpt lat="48.26878" lon="2.62578">
        <ele>96.599998474121</ele>
        <time>2014-02-02T10:08:58Z</time>
      </trkpt>
      <trkpt lat="48.26877" lon="2.62575">
        <ele>97</ele>
        <time>2014-02-02T10:08:59Z</time>
      </trkpt>
      <trkpt lat="48.26876" lon="2.62572">
        <ele>97.400001525879</ele>
        <time>2014-02-02T10:09:00Z</time>
      </trkpt>
      <trkpt lat="48.26876" lon="2.6257">
        <ele>97.800003051758</ele>
        <time>2014-02-02T10:09:01Z</time>
      </trkpt>
      <trkpt lat="48.26875" lon="2.62567">
        <ele>98.199996948242</ele>
        <time>2014-02-02T10:09:02Z</time>
      </trkpt>
      <trkpt lat="48.26872" lon="2.62556">
        <ele>98.199996948242</ele>
        <time>2014-02-02T10:09:06Z</time>
      </trkpt>
      <trkpt lat="48.2687" lon="2.62551">
        <ele>98.599998474121</ele>
        <time>2014-02-02T10:09:08Z</time>
      </trkpt>
      <trkpt lat="48.2687" lon="2.62548">
        <ele>99</ele>
        <time>2014-02-02T10:09:09Z</time>
      </trkpt>
      <trkpt lat="48.26869" lon="2.62546">
        <ele>99.400001525879</ele>
        <time>2014-02-02T10:09:10Z</time>
      </trkpt>
      <trkpt lat="48.26869" lon="2.62543">
        <ele>99.800003051758</ele>
        <time>2014-02-02T10:09:11Z</time>
      </trkpt>
      <trkpt lat="48.26868" lon="2.6254">
        <ele>100.40000152588</ele>
        <time>2014-02-02T10:09:12Z</time>
      </trkpt>
      <trkpt lat="48.26865" lon="2.62526">
        <ele>100.40000152588</ele>
        <time>2014-02-02T10:09:18Z</time>
      </trkpt>
      <trkpt lat="48.26863" lon="2.62518">
        <ele>100.80000305176</ele>
        <time>2014-02-02T10:09:21Z</time>
      </trkpt>
      <trkpt lat="48.26863" lon="2.62515">
        <ele>101.19999694824</ele>
        <time>2014-02-02T10:09:22Z</time>
      </trkpt>
      <trkpt lat="48.26862" lon="2.62513">
        <ele>101.59999847412</ele>
        <time>2014-02-02T10:09:23Z</time>
      </trkpt>
      <trkpt lat="48.26861" lon="2.6251">
        <ele>102</ele>
        <time>2014-02-02T10:09:24Z</time>
      </trkpt>
      <trkpt lat="48.2686" lon="2.62507">
        <ele>102.40000152588</ele>
        <time>2014-02-02T10:09:25Z</time>
      </trkpt>
      <trkpt lat="48.26857" lon="2.62494">
        <ele>102.40000152588</ele>
        <time>2014-02-02T10:09:29Z</time>
      </trkpt>
      <trkpt lat="48.26855" lon="2.62488">
        <ele>102.80000305176</ele>
        <time>2014-02-02T10:09:31Z</time>
      </trkpt>
      <trkpt lat="48.26854" lon="2.62485">
        <ele>103.19999694824</ele>
        <time>2014-02-02T10:09:32Z</time>
      </trkpt>
      <trkpt lat="48.26853" lon="2.62482">
        <ele>103.59999847412</ele>
        <time>2014-02-02T10:09:33Z</time>
      </trkpt>
      <trkpt lat="48.26852" lon="2.62479">
        <ele>104</ele>
        <time>2014-02-02T10:09:34Z</time>
      </trkpt>
      <trkpt lat="48.26852" lon="2.62475">
        <ele>104.40000152588</ele>
        <time>2014-02-02T10:09:35Z</time>
      </trkpt>
      <trkpt lat="48.2685" lon="2.62466">
        <ele>104.40000152588</ele>
        <time>2014-02-02T10:09:38Z</time>
      </trkpt>
      <trkpt lat="48.2683" lon="2.62458">
        <ele>104.40000152588</ele>
        <time>2014-02-02T10:09:45Z</time>
      </trkpt>
      <trkpt lat="48.26816" lon="2.62469">
        <ele>104.40000152588</ele>
        <time>2014-02-02T10:09:51Z</time>
      </trkpt>
      <trkpt lat="48.26813" lon="2.6248">
        <ele>104.40000152588</ele>
        <time>2014-02-02T10:09:57Z</time>
      </trkpt>
      <trkpt lat="48.26815" lon="2.62484">
        <ele>104.40000152588</ele>
        <time>2014-02-02T10:10:01Z</time>
      </trkpt>
      <trkpt lat="48.26815" lon="2.62485">
        <ele>104</ele>
        <time>2014-02-02T10:10:20Z</time>
      </trkpt>
      <trkpt lat="48.26815" lon="2.62485">
        <ele>103.59999847412</ele>
        <time>2014-02-02T10:10:21Z</time>
      </trkpt>
      <trkpt lat="48.26815" lon="2.62486">
        <ele>103.19999694824</ele>
        <time>2014-02-02T10:10:22Z</time>
      </trkpt>
      <trkpt lat="48.26814" lon="2.62488">
        <ele>102.80000305176</ele>
        <time>2014-02-02T10:10:23Z</time>
      </trkpt>
      <trkpt lat="48.26814" lon="2.6249">
        <ele>102.19999694824</ele>
        <time>2014-02-02T10:10:24Z</time>
      </trkpt>
      <trkpt lat="48.26812" lon="2.62499">
        <ele>102.19999694824</ele>
        <time>2014-02-02T10:10:28Z</time>
      </trkpt>
      <trkpt lat="48.2681" lon="2.62509">
        <ele>102.59999847412</ele>
        <time>2014-02-02T10:11:01Z</time>
      </trkpt>
      <trkpt lat="48.2681" lon="2.62509">
        <ele>103.19999694824</ele>
        <time>2014-02-02T10:11:02Z</time>
      </trkpt>
      <trkpt lat="48.2681" lon="2.62509">
        <ele>103.59999847412</ele>
        <time>2014-02-02T10:11:03Z</time>
      </trkpt>
      <trkpt lat="48.2681" lon="2.62509">
        <ele>104</ele>
        <time>2014-02-02T10:11:04Z</time>
      </trkpt>
      <trkpt lat="48.2681" lon="2.62509">
        <ele>104.40000152588</ele>
        <time>2014-02-02T10:11:05Z</time>
      </trkpt>
      <trkpt lat="48.26815" lon="2.62525">
        <ele>104.40000152588</ele>
        <time>2014-02-02T10:11:16Z</time>
      </trkpt>
      <trkpt lat="48.26817" lon="2.6255">
        <ele>104.40000152588</ele>
        <time>2014-02-02T10:11:24Z</time>
      </trkpt>
      <trkpt lat="48.26815" lon="2.62567">
        <ele>104.40000152588</ele>
        <time>2014-02-02T10:11:31Z</time>
      </trkpt>
      <trkpt lat="48.26818" lon="2.6259">
        <ele>104.40000152588</ele>
        <time>2014-02-02T10:11:37Z</time>
      </trkpt>
      <trkpt lat="48.26818" lon="2.62608">
        <ele>104</ele>
        <time>2014-02-02T10:11:42Z</time>
      </trkpt>
      <trkpt lat="48.26819" lon="2.6261">
        <ele>103.59999847412</ele>
        <time>2014-02-02T10:11:43Z</time>
      </trkpt>
      <trkpt lat="48.26819" lon="2.62612">
        <ele>103.19999694824</ele>
        <time>2014-02-02T10:11:44Z</time>
      </trkpt>
      <trkpt lat="48.2682" lon="2.62616">
        <ele>102.80000305176</ele>
        <time>2014-02-02T10:11:45Z</time>
      </trkpt>
      <trkpt lat="48.26819" lon="2.62619">
        <ele>102.19999694824</ele>
        <time>2014-02-02T10:11:46Z</time>
      </trkpt>
      <trkpt lat="48.2682" lon="2.62622">
        <ele>101.59999847412</ele>
        <time>2014-02-02T10:11:47Z</time>
      </trkpt>
      <trkpt lat="48.26818" lon="2.62624">
        <ele>101</ele>
        <time>2014-02-02T10:11:48Z</time>
      </trkpt>
      <trkpt lat="48.26817" lon="2.62627">
        <ele>100.59999847412</ele>
        <time>2014-02-02T10:11:49Z</time>
      </trkpt>
      <trkpt lat="48.26815" lon="2.62631">
        <ele>100</ele>
        <time>2014-02-02T10:11:50Z</time>
      </trkpt>
      <trkpt lat="48.26812" lon="2.62635">
        <ele>99.400001525879</ele>
        <time>2014-02-02T10:11:51Z</time>
      </trkpt>
      <trkpt lat="48.26809" lon="2.62638">
        <ele>98.800003051758</ele>
        <time>2014-02-02T10:11:52Z</time>
      </trkpt>
      <trkpt lat="48.26806" lon="2.6264">
        <ele>98.199996948242</ele>
        <time>2014-02-02T10:11:53Z</time>
      </trkpt>
      <trkpt lat="48.26803" lon="2.62647">
        <ele>97.599998474121</ele>
        <time>2014-02-02T10:11:55Z</time>
      </trkpt>
      <trkpt lat="48.26798" lon="2.62657">
        <ele>96.800003051758</ele>
        <time>2014-02-02T10:11:57Z</time>
      </trkpt>
      <trkpt lat="48.26793" lon="2.62664">
        <ele>95.800003051758</ele>
        <time>2014-02-02T10:11:59Z</time>
      </trkpt>
      <trkpt lat="48.26791" lon="2.62665">
        <ele>95.800003051758</ele>
        <time>2014-02-02T10:12:00Z</time>
      </trkpt>
      <trkpt lat="48.26787" lon="2.62668">
        <ele>95.400001525879</ele>
        <time>2014-02-02T10:12:01Z</time>
      </trkpt>
      <trkpt lat="48.26778" lon="2.62672">
        <ele>95.400001525879</ele>
        <time>2014-02-02T10:12:04Z</time>
      </trkpt>
      <trkpt lat="48.26774" lon="2.62675">
        <ele>95.400001525879</ele>
        <time>2014-02-02T10:12:06Z</time>
      </trkpt>
      <trkpt lat="48.26772" lon="2.62685">
        <ele>95.400001525879</ele>
        <time>2014-02-02T10:12:10Z</time>
      </trkpt>
      <trkpt lat="48.26774" lon="2.6269">
        <ele>95.400001525879</ele>
        <time>2014-02-02T10:12:11Z</time>
      </trkpt>
      <trkpt lat="48.26775" lon="2.62702">
        <ele>95.400001525879</ele>
        <time>2014-02-02T10:12:14Z</time>
      </trkpt>
      <trkpt lat="48.26776" lon="2.62706">
        <ele>95.400001525879</ele>
        <time>2014-02-02T10:12:16Z</time>
      </trkpt>
      <trkpt lat="48.26782" lon="2.62728">
        <ele>95.400001525879</ele>
        <time>2014-02-02T10:12:21Z</time>
      </trkpt>
      <trkpt lat="48.2679" lon="2.62729">
        <ele>95.400001525879</ele>
        <time>2014-02-02T10:12:24Z</time>
      </trkpt>
      <trkpt lat="48.26793" lon="2.62727">
        <ele>95.400001525879</ele>
        <time>2014-02-02T10:12:25Z</time>
      </trkpt>
      <trkpt lat="48.26807" lon="2.62711">
        <ele>95</ele>
        <time>2014-02-02T10:12:31Z</time>
      </trkpt>
      <trkpt lat="48.2681" lon="2.6271">
        <ele>94.599998474121</ele>
        <time>2014-02-02T10:12:32Z</time>
      </trkpt>
      <trkpt lat="48.26812" lon="2.6271">
        <ele>94.199996948242</ele>
        <time>2014-02-02T10:12:33Z</time>
      </trkpt>
      <trkpt lat="48.26815" lon="2.6271">
        <ele>93.599998474121</ele>
        <time>2014-02-02T10:12:34Z</time>
      </trkpt>
      <trkpt lat="48.26819" lon="2.62708">
        <ele>93.199996948242</ele>
        <time>2014-02-02T10:12:36Z</time>
      </trkpt>
      <trkpt lat="48.26836" lon="2.62698">
        <ele>93.199996948242</ele>
        <time>2014-02-02T10:12:42Z</time>
      </trkpt>
      <trkpt lat="48.26846" lon="2.62687">
        <ele>93.199996948242</ele>
        <time>2014-02-02T10:12:47Z</time>
      </trkpt>
      <trkpt lat="48.26851" lon="2.62685">
        <ele>93.199996948242</ele>
        <time>2014-02-02T10:12:52Z</time>
      </trkpt>
      <trkpt lat="48.26852" lon="2.62684">
        <ele>92.800003051758</ele>
        <time>2014-02-02T10:13:13Z</time>
      </trkpt>
      <trkpt lat="48.26852" lon="2.62682">
        <ele>92.199996948242</ele>
        <time>2014-02-02T10:13:14Z</time>
      </trkpt>
      <trkpt lat="48.26853" lon="2.6268">
        <ele>91.800003051758</ele>
        <time>2014-02-02T10:13:15Z</time>
      </trkpt>
      <trkpt lat="48.26856" lon="2.6268">
        <ele>91.199996948242</ele>
        <time>2014-02-02T10:13:16Z</time>
      </trkpt>
      <trkpt lat="48.26859" lon="2.62682">
        <ele>90.599998474121</ele>
        <time>2014-02-02T10:13:17Z</time>
      </trkpt>
      <trkpt lat="48.2686" lon="2.62685">
        <ele>90</ele>
        <time>2014-02-02T10:13:18Z</time>
      </trkpt>
      <trkpt lat="48.26862" lon="2.62687">
        <ele>89.199996948242</ele>
        <time>2014-02-02T10:13:19Z</time>
      </trkpt>
      <trkpt lat="48.26862" lon="2.62687">
        <ele>88.599998474121</ele>
        <time>2014-02-02T10:13:20Z</time>
      </trkpt>
      <trkpt lat="48.26883" lon="2.62691">
        <ele>88.599998474121</ele>
        <time>2014-02-02T10:13:25Z</time>
      </trkpt>
      <trkpt lat="48.26904" lon="2.62702">
        <ele>88.599998474121</ele>
        <time>2014-02-02T10:13:29Z</time>
      </trkpt>
      <trkpt lat="48.26906" lon="2.62716">
        <ele>88.599998474121</ele>
        <time>2014-02-02T10:13:32Z</time>
      </trkpt>
      <trkpt lat="48.26904" lon="2.62719">
        <ele>88.599998474121</ele>
        <time>2014-02-02T10:13:33Z</time>
      </trkpt>
      <trkpt lat="48.26898" lon="2.62723">
        <ele>88.599998474121</ele>
        <time>2014-02-02T10:13:36Z</time>
      </trkpt>
      <trkpt lat="48.26896" lon="2.62725">
        <ele>88.599998474121</ele>
        <time>2014-02-02T10:13:37Z</time>
      </trkpt>
      <trkpt lat="48.26885" lon="2.6274">
        <ele>88.599998474121</ele>
        <time>2014-02-02T10:13:45Z</time>
      </trkpt>
      <trkpt lat="48.26871" lon="2.62753">
        <ele>88.599998474121</ele>
        <time>2014-02-02T10:13:54Z</time>
      </trkpt>
      <trkpt lat="48.26862" lon="2.62763">
        <ele>88.599998474121</ele>
        <time>2014-02-02T10:14:01Z</time>
      </trkpt>
      <trkpt lat="48.26857" lon="2.6277">
        <ele>89</ele>
        <time>2014-02-02T10:14:06Z</time>
      </trkpt>
      <trkpt lat="48.26856" lon="2.62771">
        <ele>89.599998474121</ele>
        <time>2014-02-02T10:14:07Z</time>
      </trkpt>
      <trkpt lat="48.26855" lon="2.62772">
        <ele>90</ele>
        <time>2014-02-02T10:14:08Z</time>
      </trkpt>
      <trkpt lat="48.26855" lon="2.62774">
        <ele>90.400001525879</ele>
        <time>2014-02-02T10:14:09Z</time>
      </trkpt>
      <trkpt lat="48.26854" lon="2.62774">
        <ele>90.800003051758</ele>
        <time>2014-02-02T10:14:10Z</time>
      </trkpt>
      <trkpt lat="48.26852" lon="2.62779">
        <ele>90.800003051758</ele>
        <time>2014-02-02T10:14:17Z</time>
      </trkpt>
      <trkpt lat="48.26852" lon="2.62779">
        <ele>91.400001525879</ele>
        <time>2014-02-02T10:14:34Z</time>
      </trkpt>
      <trkpt lat="48.26851" lon="2.62779">
        <ele>91.800003051758</ele>
        <time>2014-02-02T10:14:35Z</time>
      </trkpt>
      <trkpt lat="48.26851" lon="2.62779">
        <ele>92.400001525879</ele>
        <time>2014-02-02T10:14:36Z</time>
      </trkpt>
      <trkpt lat="48.26851" lon="2.62779">
        <ele>92.800003051758</ele>
        <time>2014-02-02T10:14:37Z</time>
      </trkpt>
      <trkpt lat="48.26851" lon="2.62779">
        <ele>93.400001525879</ele>
        <time>2014-02-02T10:14:38Z</time>
      </trkpt>
      <trkpt lat="48.26851" lon="2.62779">
        <ele>93.400001525879</ele>
        <time>2014-02-02T10:14:40Z</time>
      </trkpt>
      <trkpt lat="48.26851" lon="2.6278">
        <ele>93.800003051758</ele>
        <time>2014-02-02T10:14:56Z</time>
      </trkpt>
      <trkpt lat="48.26851" lon="2.6278">
        <ele>94.199996948242</ele>
        <time>2014-02-02T10:14:57Z</time>
      </trkpt>
      <trkpt lat="48.26851" lon="2.6278">
        <ele>94.599998474121</ele>
        <time>2014-02-02T10:14:58Z</time>
      </trkpt>
      <trkpt lat="48.26851" lon="2.6278">
        <ele>95</ele>
        <time>2014-02-02T10:14:59Z</time>
      </trkpt>
      <trkpt lat="48.26849" lon="2.6278">
        <ele>95.599998474121</ele>
        <time>2014-02-02T10:15:00Z</time>
      </trkpt>
      <trkpt lat="48.26834" lon="2.62799">
        <ele>95.599998474121</ele>
        <time>2014-02-02T10:15:12Z</time>
      </trkpt>
      <trkpt lat="48.26834" lon="2.628">
        <ele>96</ele>
        <time>2014-02-02T10:15:13Z</time>
      </trkpt>
      <trkpt lat="48.26833" lon="2.62801">
        <ele>96.400001525879</ele>
        <time>2014-02-02T10:15:14Z</time>
      </trkpt>
      <trkpt lat="48.26833" lon="2.62803">
        <ele>96.800003051758</ele>
        <time>2014-02-02T10:15:15Z</time>
      </trkpt>
      <trkpt lat="48.26832" lon="2.62804">
        <ele>97.199996948242</ele>
        <time>2014-02-02T10:15:16Z</time>
      </trkpt>
      <trkpt lat="48.26831" lon="2.62806">
        <ele>97.800003051758</ele>
        <time>2014-02-02T10:15:17Z</time>
      </trkpt>
      <trkpt lat="48.26826" lon="2.62813">
        <ele>97.800003051758</ele>
        <time>2014-02-02T10:15:22Z</time>
      </trkpt>
      <trkpt lat="48.26825" lon="2.62812">
        <ele>97.800003051758</ele>
        <time>2014-02-02T10:15:23Z</time>
      </trkpt>
      <trkpt lat="48.2682" lon="2.62813">
        <ele>97.800003051758</ele>
        <time>2014-02-02T10:15:28Z</time>
      </trkpt>
      <trkpt lat="48.26816" lon="2.62816">
        <ele>97.800003051758</ele>
        <time>2014-02-02T10:15:32Z</time>
      </trkpt>
      <trkpt lat="48.26816" lon="2.62818">
        <ele>98.199996948242</ele>
        <time>2014-02-02T10:15:33Z</time>
      </trkpt>
      <trkpt lat="48.26815" lon="2.6282">
        <ele>98.599998474121</ele>
        <time>2014-02-02T10:15:34Z</time>
      </trkpt>
      <trkpt lat="48.26815" lon="2.62821">
        <ele>99</ele>
        <time>2014-02-02T10:15:35Z</time>
      </trkpt>
      <trkpt lat="48.26815" lon="2.62821">
        <ele>99.400001525879</ele>
        <time>2014-02-02T10:15:36Z</time>
      </trkpt>
      <trkpt lat="48.26815" lon="2.62823">
        <ele>100</ele>
        <time>2014-02-02T10:15:37Z</time>
      </trkpt>
      <trkpt lat="48.26815" lon="2.62825">
        <ele>100</ele>
        <time>2014-02-02T10:15:39Z</time>
      </trkpt>
      <trkpt lat="48.26814" lon="2.62829">
        <ele>100.40000152588</ele>
        <time>2014-02-02T10:15:42Z</time>
      </trkpt>
      <trkpt lat="48.26814" lon="2.62829">
        <ele>100.80000305176</ele>
        <time>2014-02-02T10:15:43Z</time>
      </trkpt>
      <trkpt lat="48.26813" lon="2.6283">
        <ele>101.19999694824</ele>
        <time>2014-02-02T10:15:44Z</time>
      </trkpt>
      <trkpt lat="48.26812" lon="2.6283">
        <ele>101.80000305176</ele>
        <time>2014-02-02T10:15:45Z</time>
      </trkpt>
      <trkpt lat="48.26811" lon="2.62831">
        <ele>102.19999694824</ele>
        <time>2014-02-02T10:15:46Z</time>
      </trkpt>
      <trkpt lat="48.26801" lon="2.62843">
        <ele>102.19999694824</ele>
        <time>2014-02-02T10:15:59Z</time>
      </trkpt>
      <trkpt lat="48.26801" lon="2.62845">
        <ele>102.59999847412</ele>
        <time>2014-02-02T10:16:00Z</time>
      </trkpt>
      <trkpt lat="48.26801" lon="2.62846">
        <ele>103</ele>
        <time>2014-02-02T10:16:01Z</time>
      </trkpt>
      <trkpt lat="48.26801" lon="2.62848">
        <ele>103.40000152588</ele>
        <time>2014-02-02T10:16:02Z</time>
      </trkpt>
      <trkpt lat="48.26801" lon="2.62849">
        <ele>103.80000305176</ele>
        <time>2014-02-02T10:16:03Z</time>
      </trkpt>
      <trkpt lat="48.26801" lon="2.6285">
        <ele>104.19999694824</ele>
        <time>2014-02-02T10:16:04Z</time>
      </trkpt>
      <trkpt lat="48.268" lon="2.62852">
        <ele>104.19999694824</ele>
        <time>2014-02-02T10:16:06Z</time>
      </trkpt>
      <trkpt lat="48.26799" lon="2.62859">
        <ele>104.59999847412</ele>
        <time>2014-02-02T10:16:11Z</time>
      </trkpt>
      <trkpt lat="48.26799" lon="2.6286">
        <ele>105</ele>
        <time>2014-02-02T10:16:12Z</time>
      </trkpt>
      <trkpt lat="48.26799" lon="2.62861">
        <ele>105.40000152588</ele>
        <time>2014-02-02T10:16:13Z</time>
      </trkpt>
      <trkpt lat="48.26799" lon="2.62862">
        <ele>105.80000305176</ele>
        <time>2014-02-02T10:16:14Z</time>
      </trkpt>
      <trkpt lat="48.268" lon="2.62863">
        <ele>106.40000152588</ele>
        <time>2014-02-02T10:16:15Z</time>
      </trkpt>
      <trkpt lat="48.26802" lon="2.62869">
        <ele>106.40000152588</ele>
        <time>2014-02-02T10:16:22Z</time>
      </trkpt>
      <trkpt lat="48.26804" lon="2.62869">
        <ele>106.40000152588</ele>
        <time>2014-02-02T10:16:29Z</time>
      </trkpt>
      <trkpt lat="48.26808" lon="2.62875">
        <ele>106.40000152588</ele>
        <time>2014-02-02T10:16:42Z</time>
      </trkpt>
      <trkpt lat="48.26817" lon="2.62883">
        <ele>106.40000152588</ele>
        <time>2014-02-02T10:16:47Z</time>
      </trkpt>
      <trkpt lat="48.2682" lon="2.62885">
        <ele>106.40000152588</ele>
        <time>2014-02-02T10:16:48Z</time>
      </trkpt>
      <trkpt lat="48.26831" lon="2.62893">
        <ele>105.80000305176</ele>
        <time>2014-02-02T10:16:52Z</time>
      </trkpt>
      <trkpt lat="48.26833" lon="2.62894">
        <ele>105.19999694824</ele>
        <time>2014-02-02T10:16:53Z</time>
      </trkpt>
      <trkpt lat="48.26836" lon="2.62893">
        <ele>104.59999847412</ele>
        <time>2014-02-02T10:16:54Z</time>
      </trkpt>
      <trkpt lat="48.26839" lon="2.62892">
        <ele>104</ele>
        <time>2014-02-02T10:16:55Z</time>
      </trkpt>
      <trkpt lat="48.26842" lon="2.62891">
        <ele>103.40000152588</ele>
        <time>2014-02-02T10:16:56Z</time>
      </trkpt>
      <trkpt lat="48.26846" lon="2.62888">
        <ele>102.80000305176</ele>
        <time>2014-02-02T10:16:57Z</time>
      </trkpt>
      <trkpt lat="48.26851" lon="2.62884">
        <ele>102</ele>
        <time>2014-02-02T10:16:58Z</time>
      </trkpt>
      <trkpt lat="48.26855" lon="2.6288">
        <ele>101.40000152588</ele>
        <time>2014-02-02T10:16:59Z</time>
      </trkpt>
      <trkpt lat="48.26859" lon="2.62878">
        <ele>100.59999847412</ele>
        <time>2014-02-02T10:17:00Z</time>
      </trkpt>
      <trkpt lat="48.26863" lon="2.62875">
        <ele>99.800003051758</ele>
        <time>2014-02-02T10:17:01Z</time>
      </trkpt>
      <trkpt lat="48.26867" lon="2.62873">
        <ele>99</ele>
        <time>2014-02-02T10:17:02Z</time>
      </trkpt>
      <trkpt lat="48.26871" lon="2.62871">
        <ele>98.199996948242</ele>
        <time>2014-02-02T10:17:03Z</time>
      </trkpt>
      <trkpt lat="48.26876" lon="2.62871">
        <ele>97.599998474121</ele>
        <time>2014-02-02T10:17:04Z</time>
      </trkpt>
      <trkpt lat="48.2688" lon="2.62872">
        <ele>96.800003051758</ele>
        <time>2014-02-02T10:17:05Z</time>
      </trkpt>
      <trkpt lat="48.26883" lon="2.62874">
        <ele>96</ele>
        <time>2014-02-02T10:17:06Z</time>
      </trkpt>
      <trkpt lat="48.26886" lon="2.62877">
        <ele>95.199996948242</ele>
        <time>2014-02-02T10:17:07Z</time>
      </trkpt>
      <trkpt lat="48.26887" lon="2.62881">
        <ele>94.400001525879</ele>
        <time>2014-02-02T10:17:08Z</time>
      </trkpt>
      <trkpt lat="48.26888" lon="2.62884">
        <ele>93.599998474121</ele>
        <time>2014-02-02T10:17:09Z</time>
      </trkpt>
      <trkpt lat="48.26889" lon="2.62886">
        <ele>92.800003051758</ele>
        <time>2014-02-02T10:17:10Z</time>
      </trkpt>
      <trkpt lat="48.26891" lon="2.62888">
        <ele>92</ele>
        <time>2014-02-02T10:17:11Z</time>
      </trkpt>
      <trkpt lat="48.26899" lon="2.62891">
        <ele>91.400001525879</ele>
        <time>2014-02-02T10:17:14Z</time>
      </trkpt>
      <trkpt lat="48.269" lon="2.62893">
        <ele>91</ele>
        <time>2014-02-02T10:17:15Z</time>
      </trkpt>
      <trkpt lat="48.26901" lon="2.62896">
        <ele>90.400001525879</ele>
        <time>2014-02-02T10:17:16Z</time>
      </trkpt>
      <trkpt lat="48.26902" lon="2.62898">
        <ele>90</ele>
        <time>2014-02-02T10:17:17Z</time>
      </trkpt>
      <trkpt lat="48.26901" lon="2.62899">
        <ele>89.400001525879</ele>
        <time>2014-02-02T10:17:18Z</time>
      </trkpt>
      <trkpt lat="48.26903" lon="2.62899">
        <ele>89.400001525879</ele>
        <time>2014-02-02T10:17:20Z</time>
      </trkpt>
      <trkpt lat="48.26905" lon="2.62902">
        <ele>89.400001525879</ele>
        <time>2014-02-02T10:17:33Z</time>
      </trkpt>
      <trkpt lat="48.26907" lon="2.62905">
        <ele>89.400001525879</ele>
        <time>2014-02-02T10:17:34Z</time>
      </trkpt>
      <trkpt lat="48.26911" lon="2.62913">
        <ele>89</ele>
        <time>2014-02-02T10:17:36Z</time>
      </trkpt>
      <trkpt lat="48.26913" lon="2.62916">
        <ele>88.599998474121</ele>
        <time>2014-02-02T10:17:37Z</time>
      </trkpt>
      <trkpt lat="48.26915" lon="2.62919">
        <ele>88.199996948242</ele>
        <time>2014-02-02T10:17:38Z</time>
      </trkpt>
      <trkpt lat="48.26917" lon="2.62924">
        <ele>87.599998474121</ele>
        <time>2014-02-02T10:17:39Z</time>
      </trkpt>
      <trkpt lat="48.2692" lon="2.62929">
        <ele>87.199996948242</ele>
        <time>2014-02-02T10:17:40Z</time>
      </trkpt>
      <trkpt lat="48.26941" lon="2.62965">
        <ele>87.199996948242</ele>
        <time>2014-02-02T10:17:46Z</time>
      </trkpt>
      <trkpt lat="48.26948" lon="2.62983">
        <ele>86.800003051758</ele>
        <time>2014-02-02T10:17:49Z</time>
      </trkpt>
      <trkpt lat="48.2695" lon="2.62988">
        <ele>86.400001525879</ele>
        <time>2014-02-02T10:17:50Z</time>
      </trkpt>
      <trkpt lat="48.26952" lon="2.62994">
        <ele>86</ele>
        <time>2014-02-02T10:17:51Z</time>
      </trkpt>
      <trkpt lat="48.26954" lon="2.63">
        <ele>85.400001525879</ele>
        <time>2014-02-02T10:17:52Z</time>
      </trkpt>
      <trkpt lat="48.26955" lon="2.63005">
        <ele>85</ele>
        <time>2014-02-02T10:17:53Z</time>
      </trkpt>
      <trkpt lat="48.26958" lon="2.63017">
        <ele>85</ele>
        <time>2014-02-02T10:17:55Z</time>
      </trkpt>
      <trkpt lat="48.2696" lon="2.63041">
        <ele>85</ele>
        <time>2014-02-02T10:17:59Z</time>
      </trkpt>
      <trkpt lat="48.26955" lon="2.6306">
        <ele>85</ele>
        <time>2014-02-02T10:18:04Z</time>
      </trkpt>
      <trkpt lat="48.26953" lon="2.6309">
        <ele>85</ele>
        <time>2014-02-02T10:18:11Z</time>
      </trkpt>
      <trkpt lat="48.26952" lon="2.63096">
        <ele>85.400001525879</ele>
        <time>2014-02-02T10:18:13Z</time>
      </trkpt>
      <trkpt lat="48.26951" lon="2.63098">
        <ele>86</ele>
        <time>2014-02-02T10:18:14Z</time>
      </trkpt>
      <trkpt lat="48.26949" lon="2.63103">
        <ele>86.400001525879</ele>
        <time>2014-02-02T10:18:15Z</time>
      </trkpt>
      <trkpt lat="48.26945" lon="2.63106">
        <ele>86.800003051758</ele>
        <time>2014-02-02T10:18:16Z</time>
      </trkpt>
      <trkpt lat="48.26943" lon="2.63108">
        <ele>87.199996948242</ele>
        <time>2014-02-02T10:18:17Z</time>
      </trkpt>
      <trkpt lat="48.26932" lon="2.63123">
        <ele>87.199996948242</ele>
        <time>2014-02-02T10:18:23Z</time>
      </trkpt>
      <trkpt lat="48.26921" lon="2.63135">
        <ele>87.199996948242</ele>
        <time>2014-02-02T10:18:28Z</time>
      </trkpt>
      <trkpt lat="48.26914" lon="2.63157">
        <ele>87.199996948242</ele>
        <time>2014-02-02T10:18:35Z</time>
      </trkpt>
      <trkpt lat="48.26911" lon="2.63178">
        <ele>87.199996948242</ele>
        <time>2014-02-02T10:18:43Z</time>
      </trkpt>
      <trkpt lat="48.26906" lon="2.63201">
        <ele>87.199996948242</ele>
        <time>2014-02-02T10:18:50Z</time>
      </trkpt>
      <trkpt lat="48.26898" lon="2.6322">
        <ele>87.199996948242</ele>
        <time>2014-02-02T10:18:57Z</time>
      </trkpt>
      <trkpt lat="48.26892" lon="2.63226">
        <ele>87.599998474121</ele>
        <time>2014-02-02T10:19:01Z</time>
      </trkpt>
      <trkpt lat="48.26891" lon="2.63226">
        <ele>88.199996948242</ele>
        <time>2014-02-02T10:19:02Z</time>
      </trkpt>
      <trkpt lat="48.26889" lon="2.63226">
        <ele>88.599998474121</ele>
        <time>2014-02-02T10:19:03Z</time>
      </trkpt>
      <trkpt lat="48.26888" lon="2.63225">
        <ele>89</ele>
        <time>2014-02-02T10:19:04Z</time>
      </trkpt>
      <trkpt lat="48.26886" lon="2.63224">
        <ele>89.400001525879</ele>
        <time>2014-02-02T10:19:05Z</time>
      </trkpt>
      <trkpt lat="48.26876" lon="2.63215">
        <ele>89.400001525879</ele>
        <time>2014-02-02T10:19:13Z</time>
      </trkpt>
      <trkpt lat="48.26871" lon="2.63213">
        <ele>89.800003051758</ele>
        <time>2014-02-02T10:19:17Z</time>
      </trkpt>
      <trkpt lat="48.2687" lon="2.63213">
        <ele>90.199996948242</ele>
        <time>2014-02-02T10:19:18Z</time>
      </trkpt>
      <trkpt lat="48.26868" lon="2.63214">
        <ele>90.599998474121</ele>
        <time>2014-02-02T10:19:19Z</time>
      </trkpt>
      <trkpt lat="48.26866" lon="2.63215">
        <ele>91</ele>
        <time>2014-02-02T10:19:20Z</time>
      </trkpt>
      <trkpt lat="48.26865" lon="2.63216">
        <ele>91.400001525879</ele>
        <time>2014-02-02T10:19:21Z</time>
      </trkpt>
      <trkpt lat="48.26852" lon="2.63232">
        <ele>92</ele>
        <time>2014-02-02T10:19:32Z</time>
      </trkpt>
      <trkpt lat="48.26851" lon="2.63233">
        <ele>92.400001525879</ele>
        <time>2014-02-02T10:19:33Z</time>
      </trkpt>
      <trkpt lat="48.26851" lon="2.63235">
        <ele>92.800003051758</ele>
        <time>2014-02-02T10:19:34Z</time>
      </trkpt>
      <trkpt lat="48.2685" lon="2.63237">
        <ele>93.199996948242</ele>
        <time>2014-02-02T10:19:35Z</time>
      </trkpt>
      <trkpt lat="48.2685" lon="2.63239">
        <ele>93.599998474121</ele>
        <time>2014-02-02T10:19:36Z</time>
      </trkpt>
      <trkpt lat="48.26853" lon="2.63244">
        <ele>93.599998474121</ele>
        <time>2014-02-02T10:19:43Z</time>
      </trkpt>
      <trkpt lat="48.26854" lon="2.63247">
        <ele>93.599998474121</ele>
        <time>2014-02-02T10:19:45Z</time>
      </trkpt>
      <trkpt lat="48.26855" lon="2.63251">
        <ele>93.599998474121</ele>
        <time>2014-02-02T10:19:47Z</time>
      </trkpt>
      <trkpt lat="48.26855" lon="2.63253">
        <ele>94</ele>
        <time>2014-02-02T10:19:48Z</time>
      </trkpt>
      <trkpt lat="48.26855" lon="2.63254">
        <ele>94.400001525879</ele>
        <time>2014-02-02T10:19:49Z</time>
      </trkpt>
      <trkpt lat="48.26857" lon="2.63256">
        <ele>95</ele>
        <time>2014-02-02T10:19:50Z</time>
      </trkpt>
      <trkpt lat="48.26858" lon="2.63257">
        <ele>95.400001525879</ele>
        <time>2014-02-02T10:19:51Z</time>
      </trkpt>
      <trkpt lat="48.26858" lon="2.63258">
        <ele>95.800003051758</ele>
        <time>2014-02-02T10:19:52Z</time>
      </trkpt>
      <trkpt lat="48.26858" lon="2.63259">
        <ele>95.800003051758</ele>
        <time>2014-02-02T10:19:55Z</time>
      </trkpt>
      <trkpt lat="48.26858" lon="2.63259">
        <ele>96.199996948242</ele>
        <time>2014-02-02T10:19:56Z</time>
      </trkpt>
      <trkpt lat="48.26858" lon="2.63259">
        <ele>96.599998474121</ele>
        <time>2014-02-02T10:19:57Z</time>
      </trkpt>
      <trkpt lat="48.26858" lon="2.6326">
        <ele>97</ele>
        <time>2014-02-02T10:19:58Z</time>
      </trkpt>
      <trkpt lat="48.26858" lon="2.6326">
        <ele>97.400001525879</ele>
        <time>2014-02-02T10:19:59Z</time>
      </trkpt>
      <trkpt lat="48.26858" lon="2.6326">
        <ele>97.800003051758</ele>
        <time>2014-02-02T10:20:00Z</time>
      </trkpt>
      <trkpt lat="48.26858" lon="2.63262">
        <ele>98.199996948242</ele>
        <time>2014-02-02T10:20:03Z</time>
      </trkpt>
      <trkpt lat="48.26858" lon="2.63262">
        <ele>98.599998474121</ele>
        <time>2014-02-02T10:20:04Z</time>
      </trkpt>
      <trkpt lat="48.26858" lon="2.63262">
        <ele>99</ele>
        <time>2014-02-02T10:20:05Z</time>
      </trkpt>
      <trkpt lat="48.26858" lon="2.63262">
        <ele>99.400001525879</ele>
        <time>2014-02-02T10:20:06Z</time>
      </trkpt>
      <trkpt lat="48.26858" lon="2.63262">
        <ele>99.800003051758</ele>
        <time>2014-02-02T10:20:07Z</time>
      </trkpt>
      <trkpt lat="48.2686" lon="2.63282">
        <ele>99.800003051758</ele>
        <time>2014-02-02T10:20:21Z</time>
      </trkpt>
      <trkpt lat="48.26852" lon="2.63313">
        <ele>99.800003051758</ele>
        <time>2014-02-02T10:20:28Z</time>
      </trkpt>
      <trkpt lat="48.26851" lon="2.63316">
        <ele>100.40000152588</ele>
        <time>2014-02-02T10:20:29Z</time>
      </trkpt>
      <trkpt lat="48.2685" lon="2.63321">
        <ele>100.80000305176</ele>
        <time>2014-02-02T10:20:30Z</time>
      </trkpt>
      <trkpt lat="48.2685" lon="2.63324">
        <ele>101.19999694824</ele>
        <time>2014-02-02T10:20:31Z</time>
      </trkpt>
      <trkpt lat="48.26849" lon="2.63325">
        <ele>101.59999847412</ele>
        <time>2014-02-02T10:20:32Z</time>
      </trkpt>
      <trkpt lat="48.26847" lon="2.63327">
        <ele>102</ele>
        <time>2014-02-02T10:20:33Z</time>
      </trkpt>
      <trkpt lat="48.26844" lon="2.63333">
        <ele>102</ele>
        <time>2014-02-02T10:20:36Z</time>
      </trkpt>
      <trkpt lat="48.26836" lon="2.6335">
        <ele>102</ele>
        <time>2014-02-02T10:20:42Z</time>
      </trkpt>
      <trkpt lat="48.26842" lon="2.63364">
        <ele>101.59999847412</ele>
        <time>2014-02-02T10:20:46Z</time>
      </trkpt>
      <trkpt lat="48.26845" lon="2.63367">
        <ele>101.19999694824</ele>
        <time>2014-02-02T10:20:47Z</time>
      </trkpt>
      <trkpt lat="48.2685" lon="2.63369">
        <ele>100.40000152588</ele>
        <time>2014-02-02T10:20:48Z</time>
      </trkpt>
      <trkpt lat="48.26855" lon="2.63372">
        <ele>99.800003051758</ele>
        <time>2014-02-02T10:20:49Z</time>
      </trkpt>
      <trkpt lat="48.26859" lon="2.63374">
        <ele>99</ele>
        <time>2014-02-02T10:20:50Z</time>
      </trkpt>
      <trkpt lat="48.26864" lon="2.63377">
        <ele>98.199996948242</ele>
        <time>2014-02-02T10:20:51Z</time>
      </trkpt>
      <trkpt lat="48.26867" lon="2.6338">
        <ele>97.599998474121</ele>
        <time>2014-02-02T10:20:52Z</time>
      </trkpt>
      <trkpt lat="48.2687" lon="2.63381">
        <ele>96.800003051758</ele>
        <time>2014-02-02T10:20:53Z</time>
      </trkpt>
      <trkpt lat="48.26873" lon="2.6338">
        <ele>96.199996948242</ele>
        <time>2014-02-02T10:20:54Z</time>
      </trkpt>
      <trkpt lat="48.26876" lon="2.6338">
        <ele>95.400001525879</ele>
        <time>2014-02-02T10:20:55Z</time>
      </trkpt>
      <trkpt lat="48.2688" lon="2.6338">
        <ele>94.800003051758</ele>
        <time>2014-02-02T10:20:56Z</time>
      </trkpt>
      <trkpt lat="48.26882" lon="2.63382">
        <ele>94</ele>
        <time>2014-02-02T10:20:57Z</time>
      </trkpt>
      <trkpt lat="48.26885" lon="2.63388">
        <ele>93.400001525879</ele>
        <time>2014-02-02T10:20:58Z</time>
      </trkpt>
      <trkpt lat="48.26886" lon="2.63393">
        <ele>92.599998474121</ele>
        <time>2014-02-02T10:20:59Z</time>
      </trkpt>
      <trkpt lat="48.26888" lon="2.63398">
        <ele>92</ele>
        <time>2014-02-02T10:21:00Z</time>
      </trkpt>
      <trkpt lat="48.26891" lon="2.63405">
        <ele>91.199996948242</ele>
        <time>2014-02-02T10:21:01Z</time>
      </trkpt>
      <trkpt lat="48.26893" lon="2.6341">
        <ele>90.400001525879</ele>
        <time>2014-02-02T10:21:02Z</time>
      </trkpt>
      <trkpt lat="48.26896" lon="2.63414">
        <ele>90</ele>
        <time>2014-02-02T10:21:03Z</time>
      </trkpt>
      <trkpt lat="48.269" lon="2.63417">
        <ele>89.599998474121</ele>
        <time>2014-02-02T10:21:04Z</time>
      </trkpt>
      <trkpt lat="48.26903" lon="2.63421">
        <ele>89</ele>
        <time>2014-02-02T10:21:05Z</time>
      </trkpt>
      <trkpt lat="48.26905" lon="2.63423">
        <ele>88.599998474121</ele>
        <time>2014-02-02T10:21:06Z</time>
      </trkpt>
      <trkpt lat="48.26908" lon="2.63423">
        <ele>88</ele>
        <time>2014-02-02T10:21:07Z</time>
      </trkpt>
      <trkpt lat="48.2691" lon="2.63423">
        <ele>87.599998474121</ele>
        <time>2014-02-02T10:21:08Z</time>
      </trkpt>
      <trkpt lat="48.26912" lon="2.63424">
        <ele>87.199996948242</ele>
        <time>2014-02-02T10:21:09Z</time>
      </trkpt>
      <trkpt lat="48.26915" lon="2.63425">
        <ele>86.800003051758</ele>
        <time>2014-02-02T10:21:10Z</time>
      </trkpt>
      <trkpt lat="48.26917" lon="2.63424">
        <ele>86.400001525879</ele>
        <time>2014-02-02T10:21:11Z</time>
      </trkpt>
      <trkpt lat="48.2692" lon="2.63424">
        <ele>86</ele>
        <time>2014-02-02T10:21:12Z</time>
      </trkpt>
      <trkpt lat="48.26926" lon="2.63422">
        <ele>86</ele>
        <time>2014-02-02T10:21:14Z</time>
      </trkpt>
      <trkpt lat="48.26931" lon="2.63422">
        <ele>85.400001525879</ele>
        <time>2014-02-02T10:21:15Z</time>
      </trkpt>
      <trkpt lat="48.26934" lon="2.63423">
        <ele>85</ele>
        <time>2014-02-02T10:21:16Z</time>
      </trkpt>
      <trkpt lat="48.26939" lon="2.63425">
        <ele>84.599998474121</ele>
        <time>2014-02-02T10:21:17Z</time>
      </trkpt>
      <trkpt lat="48.26943" lon="2.63427">
        <ele>84</ele>
        <time>2014-02-02T10:21:18Z</time>
      </trkpt>
      <trkpt lat="48.26948" lon="2.6343">
        <ele>83.400001525879</ele>
        <time>2014-02-02T10:21:19Z</time>
      </trkpt>
      <trkpt lat="48.26952" lon="2.63435">
        <ele>82.800003051758</ele>
        <time>2014-02-02T10:21:20Z</time>
      </trkpt>
      <trkpt lat="48.26957" lon="2.6344">
        <ele>82</ele>
        <time>2014-02-02T10:21:21Z</time>
      </trkpt>
      <trkpt lat="48.26963" lon="2.63445">
        <ele>81.400001525879</ele>
        <time>2014-02-02T10:21:22Z</time>
      </trkpt>
      <trkpt lat="48.26968" lon="2.6345">
        <ele>80.599998474121</ele>
        <time>2014-02-02T10:21:23Z</time>
      </trkpt>
      <trkpt lat="48.26971" lon="2.63457">
        <ele>79.800003051758</ele>
        <time>2014-02-02T10:21:24Z</time>
      </trkpt>
      <trkpt lat="48.26975" lon="2.63464">
        <ele>79.199996948242</ele>
        <time>2014-02-02T10:21:25Z</time>
      </trkpt>
      <trkpt lat="48.26978" lon="2.6347">
        <ele>78.400001525879</ele>
        <time>2014-02-02T10:21:26Z</time>
      </trkpt>
      <trkpt lat="48.26982" lon="2.63476">
        <ele>77.599998474121</ele>
        <time>2014-02-02T10:21:27Z</time>
      </trkpt>
      <trkpt lat="48.26986" lon="2.63482">
        <ele>77</ele>
        <time>2014-02-02T10:21:28Z</time>
      </trkpt>
      <trkpt lat="48.27" lon="2.63506">
        <ele>76.599998474121</ele>
        <time>2014-02-02T10:21:32Z</time>
      </trkpt>
      <trkpt lat="48.27003" lon="2.6351">
        <ele>76</ele>
        <time>2014-02-02T10:21:33Z</time>
      </trkpt>
      <trkpt lat="48.27006" lon="2.63515">
        <ele>75.599998474121</ele>
        <time>2014-02-02T10:21:34Z</time>
      </trkpt>
      <trkpt lat="48.27008" lon="2.63521">
        <ele>75.199996948242</ele>
        <time>2014-02-02T10:21:35Z</time>
      </trkpt>
      <trkpt lat="48.27011" lon="2.63527">
        <ele>74.800003051758</ele>
        <time>2014-02-02T10:21:36Z</time>
      </trkpt>
      <trkpt lat="48.27015" lon="2.6354">
        <ele>74.800003051758</ele>
        <time>2014-02-02T10:21:38Z</time>
      </trkpt>
      <trkpt lat="48.2702" lon="2.63559">
        <ele>74.800003051758</ele>
        <time>2014-02-02T10:21:41Z</time>
      </trkpt>
      <trkpt lat="48.27023" lon="2.63565">
        <ele>74.800003051758</ele>
        <time>2014-02-02T10:21:42Z</time>
      </trkpt>
      <trkpt lat="48.27026" lon="2.63571">
        <ele>74.400001525879</ele>
        <time>2014-02-02T10:21:43Z</time>
      </trkpt>
      <trkpt lat="48.27028" lon="2.63577">
        <ele>74</ele>
        <time>2014-02-02T10:21:44Z</time>
      </trkpt>
      <trkpt lat="48.27029" lon="2.63582">
        <ele>73.400001525879</ele>
        <time>2014-02-02T10:21:45Z</time>
      </trkpt>
      <trkpt lat="48.27031" lon="2.63588">
        <ele>73</ele>
        <time>2014-02-02T10:21:46Z</time>
      </trkpt>
      <trkpt lat="48.27032" lon="2.63594">
        <ele>72.599998474121</ele>
        <time>2014-02-02T10:21:47Z</time>
      </trkpt>
      <trkpt lat="48.27039" lon="2.63608">
        <ele>72.599998474121</ele>
        <time>2014-02-02T10:21:50Z</time>
      </trkpt>
      <trkpt lat="48.27042" lon="2.63611">
        <ele>72.599998474121</ele>
        <time>2014-02-02T10:21:51Z</time>
      </trkpt>
      <trkpt lat="48.27049" lon="2.63629">
        <ele>72.599998474121</ele>
        <time>2014-02-02T10:21:56Z</time>
      </trkpt>
      <trkpt lat="48.27051" lon="2.63646">
        <ele>72.599998474121</ele>
        <time>2014-02-02T10:22:00Z</time>
      </trkpt>
      <trkpt lat="48.27051" lon="2.63651">
        <ele>72.599998474121</ele>
        <time>2014-02-02T10:22:01Z</time>
      </trkpt>
      <trkpt lat="48.27049" lon="2.63679">
        <ele>72.599998474121</ele>
        <time>2014-02-02T10:22:08Z</time>
      </trkpt>
      <trkpt lat="48.27048" lon="2.63706">
        <ele>72.599998474121</ele>
        <time>2014-02-02T10:22:14Z</time>
      </trkpt>
      <trkpt lat="48.27047" lon="2.63748">
        <ele>72.599998474121</ele>
        <time>2014-02-02T10:22:22Z</time>
      </trkpt>
      <trkpt lat="48.27043" lon="2.63794">
        <ele>72.599998474121</ele>
        <time>2014-02-02T10:22:30Z</time>
      </trkpt>
      <trkpt lat="48.27043" lon="2.63832">
        <ele>72.599998474121</ele>
        <time>2014-02-02T10:22:36Z</time>
      </trkpt>
      <trkpt lat="48.2704" lon="2.63869">
        <ele>72.599998474121</ele>
        <time>2014-02-02T10:22:43Z</time>
      </trkpt>
      <trkpt lat="48.27031" lon="2.63872">
        <ele>72.599998474121</ele>
        <time>2014-02-02T10:22:47Z</time>
      </trkpt>
      <trkpt lat="48.27025" lon="2.63871">
        <ele>72.599998474121</ele>
        <time>2014-02-02T10:22:49Z</time>
      </trkpt>
      <trkpt lat="48.27023" lon="2.6387">
        <ele>72.599998474121</ele>
        <time>2014-02-02T10:22:50Z</time>
      </trkpt>
      <trkpt lat="48.27007" lon="2.63869">
        <ele>72.199996948242</ele>
        <time>2014-02-02T10:22:55Z</time>
      </trkpt>
      <trkpt lat="48.27004" lon="2.63869">
        <ele>71.800003051758</ele>
        <time>2014-02-02T10:22:56Z</time>
      </trkpt>
      <trkpt lat="48.27002" lon="2.63867">
        <ele>71.400001525879</ele>
        <time>2014-02-02T10:22:57Z</time>
      </trkpt>
      <trkpt lat="48.26999" lon="2.63865">
        <ele>71</ele>
        <time>2014-02-02T10:22:58Z</time>
      </trkpt>
      <trkpt lat="48.26996" lon="2.63865">
        <ele>70.599998474121</ele>
        <time>2014-02-02T10:22:59Z</time>
      </trkpt>
      <trkpt lat="48.26988" lon="2.63871">
        <ele>70.599998474121</ele>
        <time>2014-02-02T10:23:04Z</time>
      </trkpt>
      <trkpt lat="48.26985" lon="2.63875">
        <ele>70.599998474121</ele>
        <time>2014-02-02T10:23:06Z</time>
      </trkpt>
      <trkpt lat="48.26978" lon="2.63883">
        <ele>70.599998474121</ele>
        <time>2014-02-02T10:23:09Z</time>
      </trkpt>
      <trkpt lat="48.26963" lon="2.63902">
        <ele>70.599998474121</ele>
        <time>2014-02-02T10:23:18Z</time>
      </trkpt>
      <trkpt lat="48.26962" lon="2.63904">
        <ele>71</ele>
        <time>2014-02-02T10:23:19Z</time>
      </trkpt>
      <trkpt lat="48.2696" lon="2.63906">
        <ele>71.400001525879</ele>
        <time>2014-02-02T10:23:20Z</time>
      </trkpt>
      <trkpt lat="48.26957" lon="2.63907">
        <ele>71.800003051758</ele>
        <time>2014-02-02T10:23:21Z</time>
      </trkpt>
      <trkpt lat="48.26955" lon="2.63908">
        <ele>72.199996948242</ele>
        <time>2014-02-02T10:23:22Z</time>
      </trkpt>
      <trkpt lat="48.26954" lon="2.6391">
        <ele>72.599998474121</ele>
        <time>2014-02-02T10:23:23Z</time>
      </trkpt>
      <trkpt lat="48.26952" lon="2.6391">
        <ele>72.599998474121</ele>
        <time>2014-02-02T10:23:24Z</time>
      </trkpt>
      <trkpt lat="48.26943" lon="2.63912">
        <ele>73</ele>
        <time>2014-02-02T10:23:29Z</time>
      </trkpt>
      <trkpt lat="48.26941" lon="2.63912">
        <ele>73.599998474121</ele>
        <time>2014-02-02T10:23:30Z</time>
      </trkpt>
      <trkpt lat="48.26939" lon="2.63912">
        <ele>74</ele>
        <time>2014-02-02T10:23:31Z</time>
      </trkpt>
      <trkpt lat="48.26937" lon="2.63913">
        <ele>74.400001525879</ele>
        <time>2014-02-02T10:23:32Z</time>
      </trkpt>
      <trkpt lat="48.26935" lon="2.63914">
        <ele>74.800003051758</ele>
        <time>2014-02-02T10:23:33Z</time>
      </trkpt>
      <trkpt lat="48.2692" lon="2.63914">
        <ele>74.800003051758</ele>
        <time>2014-02-02T10:23:40Z</time>
      </trkpt>
      <trkpt lat="48.26907" lon="2.63917">
        <ele>75.199996948242</ele>
        <time>2014-02-02T10:23:47Z</time>
      </trkpt>
      <trkpt lat="48.26906" lon="2.63916">
        <ele>75.599998474121</ele>
        <time>2014-02-02T10:23:48Z</time>
      </trkpt>
      <trkpt lat="48.26904" lon="2.63916">
        <ele>76.199996948242</ele>
        <time>2014-02-02T10:23:49Z</time>
      </trkpt>
      <trkpt lat="48.26903" lon="2.63915">
        <ele>76.599998474121</ele>
        <time>2014-02-02T10:23:50Z</time>
      </trkpt>
      <trkpt lat="48.26902" lon="2.63915">
        <ele>77</ele>
        <time>2014-02-02T10:23:51Z</time>
      </trkpt>
      <trkpt lat="48.26896" lon="2.63912">
        <ele>77</ele>
        <time>2014-02-02T10:23:56Z</time>
      </trkpt>
      <trkpt lat="48.26887" lon="2.63907">
        <ele>77.400001525879</ele>
        <time>2014-02-02T10:24:02Z</time>
      </trkpt>
      <trkpt lat="48.26886" lon="2.63906">
        <ele>77.800003051758</ele>
        <time>2014-02-02T10:24:03Z</time>
      </trkpt>
      <trkpt lat="48.26885" lon="2.63905">
        <ele>78.400001525879</ele>
        <time>2014-02-02T10:24:04Z</time>
      </trkpt>
      <trkpt lat="48.26884" lon="2.63904">
        <ele>78.800003051758</ele>
        <time>2014-02-02T10:24:05Z</time>
      </trkpt>
      <trkpt lat="48.26883" lon="2.63903">
        <ele>79.199996948242</ele>
        <time>2014-02-02T10:24:06Z</time>
      </trkpt>
      <trkpt lat="48.26881" lon="2.63902">
        <ele>79.199996948242</ele>
        <time>2014-02-02T10:24:10Z</time>
      </trkpt>
      <trkpt lat="48.2688" lon="2.63902">
        <ele>79.800003051758</ele>
        <time>2014-02-02T10:24:16Z</time>
      </trkpt>
      <trkpt lat="48.2688" lon="2.63902">
        <ele>80.199996948242</ele>
        <time>2014-02-02T10:24:17Z</time>
      </trkpt>
      <trkpt lat="48.2688" lon="2.63902">
        <ele>80.599998474121</ele>
        <time>2014-02-02T10:24:18Z</time>
      </trkpt>
      <trkpt lat="48.2688" lon="2.63902">
        <ele>81.199996948242</ele>
        <time>2014-02-02T10:24:19Z</time>
      </trkpt>
      <trkpt lat="48.2688" lon="2.63902">
        <ele>81.599998474121</ele>
        <time>2014-02-02T10:24:20Z</time>
      </trkpt>
      <trkpt lat="48.2688" lon="2.63902">
        <ele>82</ele>
        <time>2014-02-02T10:24:31Z</time>
      </trkpt>
      <trkpt lat="48.2688" lon="2.63902">
        <ele>82.400001525879</ele>
        <time>2014-02-02T10:24:32Z</time>
      </trkpt>
      <trkpt lat="48.2688" lon="2.63902">
        <ele>82.800003051758</ele>
        <time>2014-02-02T10:24:33Z</time>
      </trkpt>
      <trkpt lat="48.2688" lon="2.63902">
        <ele>83.199996948242</ele>
        <time>2014-02-02T10:24:34Z</time>
      </trkpt>
      <trkpt lat="48.2688" lon="2.63902">
        <ele>83.599998474121</ele>
        <time>2014-02-02T10:24:35Z</time>
      </trkpt>
      <trkpt lat="48.2688" lon="2.63902">
        <ele>84</ele>
        <time>2014-02-02T10:24:55Z</time>
      </trkpt>
      <trkpt lat="48.2688" lon="2.63902">
        <ele>84.599998474121</ele>
        <time>2014-02-02T10:24:56Z</time>
      </trkpt>
      <trkpt lat="48.2688" lon="2.63902">
        <ele>85</ele>
        <time>2014-02-02T10:24:57Z</time>
      </trkpt>
      <trkpt lat="48.2688" lon="2.63902">
        <ele>85.400001525879</ele>
        <time>2014-02-02T10:24:58Z</time>
      </trkpt>
      <trkpt lat="48.2688" lon="2.63902">
        <ele>86</ele>
        <time>2014-02-02T10:24:59Z</time>
      </trkpt>
      <trkpt lat="48.26879" lon="2.63902">
        <ele>86</ele>
        <time>2014-02-02T10:25:06Z</time>
      </trkpt>
      <trkpt lat="48.26879" lon="2.63902">
        <ele>86.400001525879</ele>
        <time>2014-02-02T10:25:17Z</time>
      </trkpt>
      <trkpt lat="48.26879" lon="2.63902">
        <ele>86.800003051758</ele>
        <time>2014-02-02T10:25:18Z</time>
      </trkpt>
      <trkpt lat="48.26879" lon="2.63902">
        <ele>87.199996948242</ele>
        <time>2014-02-02T10:25:19Z</time>
      </trkpt>
      <trkpt lat="48.26879" lon="2.63902">
        <ele>87.599998474121</ele>
        <time>2014-02-02T10:25:20Z</time>
      </trkpt>
      <trkpt lat="48.26879" lon="2.63902">
        <ele>88</ele>
        <time>2014-02-02T10:25:21Z</time>
      </trkpt>
      <trkpt lat="48.26879" lon="2.63902">
        <ele>88.400001525879</ele>
        <time>2014-02-02T10:25:28Z</time>
      </trkpt>
      <trkpt lat="48.26879" lon="2.63902">
        <ele>89</ele>
        <time>2014-02-02T10:25:29Z</time>
      </trkpt>
      <trkpt lat="48.26879" lon="2.63902">
        <ele>89.400001525879</ele>
        <time>2014-02-02T10:25:30Z</time>
      </trkpt>
      <trkpt lat="48.26879" lon="2.63902">
        <ele>89.800003051758</ele>
        <time>2014-02-02T10:25:31Z</time>
      </trkpt>
      <trkpt lat="48.26879" lon="2.63902">
        <ele>90.199996948242</ele>
        <time>2014-02-02T10:25:32Z</time>
      </trkpt>
      <trkpt lat="48.26879" lon="2.63902">
        <ele>90.599998474121</ele>
        <time>2014-02-02T10:25:45Z</time>
      </trkpt>
      <trkpt lat="48.26879" lon="2.63902">
        <ele>91</ele>
        <time>2014-02-02T10:25:46Z</time>
      </trkpt>
      <trkpt lat="48.26879" lon="2.63902">
        <ele>91.400001525879</ele>
        <time>2014-02-02T10:25:47Z</time>
      </trkpt>
      <trkpt lat="48.26879" lon="2.63902">
        <ele>91.800003051758</ele>
        <time>2014-02-02T10:25:48Z</time>
      </trkpt>
      <trkpt lat="48.26879" lon="2.63902">
        <ele>92.199996948242</ele>
        <time>2014-02-02T10:25:49Z</time>
      </trkpt>
      <trkpt lat="48.26879" lon="2.63902">
        <ele>92.599998474121</ele>
        <time>2014-02-02T10:25:59Z</time>
      </trkpt>
      <trkpt lat="48.26879" lon="2.63902">
        <ele>93.199996948242</ele>
        <time>2014-02-02T10:26:00Z</time>
      </trkpt>
      <trkpt lat="48.26879" lon="2.63902">
        <ele>93.599998474121</ele>
        <time>2014-02-02T10:26:01Z</time>
      </trkpt>
      <trkpt lat="48.26879" lon="2.63902">
        <ele>94.199996948242</ele>
        <time>2014-02-02T10:26:02Z</time>
      </trkpt>
      <trkpt lat="48.26879" lon="2.63902">
        <ele>94.599998474121</ele>
        <time>2014-02-02T10:26:03Z</time>
      </trkpt>
      <trkpt lat="48.26879" lon="2.63902">
        <ele>95</ele>
        <time>2014-02-02T10:26:11Z</time>
      </trkpt>
      <trkpt lat="48.26879" lon="2.63902">
        <ele>95.400001525879</ele>
        <time>2014-02-02T10:26:12Z</time>
      </trkpt>
      <trkpt lat="48.26879" lon="2.63902">
        <ele>95.800003051758</ele>
        <time>2014-02-02T10:26:13Z</time>
      </trkpt>
      <trkpt lat="48.26879" lon="2.63902">
        <ele>96.199996948242</ele>
        <time>2014-02-02T10:26:14Z</time>
      </trkpt>
      <trkpt lat="48.26879" lon="2.63902">
        <ele>96.800003051758</ele>
        <time>2014-02-02T10:26:15Z</time>
      </trkpt>
      <trkpt lat="48.26878" lon="2.63902">
        <ele>96.800003051758</ele>
        <time>2014-02-02T10:26:26Z</time>
      </trkpt>
      <trkpt lat="48.26878" lon="2.63902">
        <ele>97.199996948242</ele>
        <time>2014-02-02T10:26:33Z</time>
      </trkpt>
      <trkpt lat="48.26878" lon="2.63902">
        <ele>97.599998474121</ele>
        <time>2014-02-02T10:26:34Z</time>
      </trkpt>
      <trkpt lat="48.26878" lon="2.63902">
        <ele>98</ele>
        <time>2014-02-02T10:26:35Z</time>
      </trkpt>
      <trkpt lat="48.26878" lon="2.63902">
        <ele>98.400001525879</ele>
        <time>2014-02-02T10:26:36Z</time>
      </trkpt>
      <trkpt lat="48.26878" lon="2.63902">
        <ele>98.800003051758</ele>
        <time>2014-02-02T10:26:37Z</time>
      </trkpt>
      <trkpt lat="48.26878" lon="2.63902">
        <ele>99.199996948242</ele>
        <time>2014-02-02T10:26:45Z</time>
      </trkpt>
      <trkpt lat="48.26878" lon="2.63902">
        <ele>99.599998474121</ele>
        <time>2014-02-02T10:26:46Z</time>
      </trkpt>
      <trkpt lat="48.26878" lon="2.63902">
        <ele>100</ele>
        <time>2014-02-02T10:26:47Z</time>
      </trkpt>
      <trkpt lat="48.26878" lon="2.63902">
        <ele>100.40000152588</ele>
        <time>2014-02-02T10:26:48Z</time>
      </trkpt>
      <trkpt lat="48.26878" lon="2.63902">
        <ele>100.80000305176</ele>
        <time>2014-02-02T10:26:49Z</time>
      </trkpt>
      <trkpt lat="48.26879" lon="2.63903">
        <ele>100.19999694824</ele>
        <time>2014-02-02T10:27:08Z</time>
      </trkpt>
      <trkpt lat="48.26879" lon="2.63905">
        <ele>99.800003051758</ele>
        <time>2014-02-02T10:27:09Z</time>
      </trkpt>
      <trkpt lat="48.26878" lon="2.63905">
        <ele>99</ele>
        <time>2014-02-02T10:27:10Z</time>
      </trkpt>
      <trkpt lat="48.26877" lon="2.63905">
        <ele>98.400001525879</ele>
        <time>2014-02-02T10:27:11Z</time>
      </trkpt>
      <trkpt lat="48.26876" lon="2.63907">
        <ele>97.599998474121</ele>
        <time>2014-02-02T10:27:12Z</time>
      </trkpt>
      <trkpt lat="48.26876" lon="2.6391">
        <ele>97</ele>
        <time>2014-02-02T10:27:13Z</time>
      </trkpt>
      <trkpt lat="48.26874" lon="2.6391">
        <ele>96.199996948242</ele>
        <time>2014-02-02T10:27:14Z</time>
      </trkpt>
      <trkpt lat="48.26865" lon="2.63913">
        <ele>96.199996948242</ele>
        <time>2014-02-02T10:27:18Z</time>
      </trkpt>
      <trkpt lat="48.26859" lon="2.6393">
        <ele>96.199996948242</ele>
        <time>2014-02-02T10:27:26Z</time>
      </trkpt>
      <trkpt lat="48.26858" lon="2.63931">
        <ele>95.800003051758</ele>
        <time>2014-02-02T10:27:27Z</time>
      </trkpt>
      <trkpt lat="48.26857" lon="2.63934">
        <ele>95.199996948242</ele>
        <time>2014-02-02T10:27:28Z</time>
      </trkpt>
      <trkpt lat="48.26856" lon="2.63936">
        <ele>94.800003051758</ele>
        <time>2014-02-02T10:27:29Z</time>
      </trkpt>
      <trkpt lat="48.26855" lon="2.63938">
        <ele>94.400001525879</ele>
        <time>2014-02-02T10:27:30Z</time>
      </trkpt>
      <trkpt lat="48.26854" lon="2.6394">
        <ele>93.800003051758</ele>
        <time>2014-02-02T10:27:31Z</time>
      </trkpt>
      <trkpt lat="48.26854" lon="2.63942">
        <ele>93.400001525879</ele>
        <time>2014-02-02T10:27:32Z</time>
      </trkpt>
      <trkpt lat="48.26852" lon="2.63944">
        <ele>92.800003051758</ele>
        <time>2014-02-02T10:27:33Z</time>
      </trkpt>
      <trkpt lat="48.26849" lon="2.63947">
        <ele>92.199996948242</ele>
        <time>2014-02-02T10:27:34Z</time>
      </trkpt>
      <trkpt lat="48.26847" lon="2.63949">
        <ele>91.599998474121</ele>
        <time>2014-02-02T10:27:35Z</time>
      </trkpt>
      <trkpt lat="48.26845" lon="2.6395">
        <ele>91</ele>
        <time>2014-02-02T10:27:36Z</time>
      </trkpt>
      <trkpt lat="48.26843" lon="2.63952">
        <ele>90.400001525879</ele>
        <time>2014-02-02T10:27:37Z</time>
      </trkpt>
      <trkpt lat="48.26841" lon="2.63954">
        <ele>89.800003051758</ele>
        <time>2014-02-02T10:27:38Z</time>
      </trkpt>
      <trkpt lat="48.26838" lon="2.63958">
        <ele>89.800003051758</ele>
        <time>2014-02-02T10:27:41Z</time>
      </trkpt>
      <trkpt lat="48.26829" lon="2.63965">
        <ele>89.800003051758</ele>
        <time>2014-02-02T10:27:48Z</time>
      </trkpt>
      <trkpt lat="48.26818" lon="2.63986">
        <ele>89.800003051758</ele>
        <time>2014-02-02T10:27:55Z</time>
      </trkpt>
      <trkpt lat="48.26818" lon="2.63995">
        <ele>89.800003051758</ele>
        <time>2014-02-02T10:28:00Z</time>
      </trkpt>
      <trkpt lat="48.26819" lon="2.63998">
        <ele>89.800003051758</ele>
        <time>2014-02-02T10:28:01Z</time>
      </trkpt>
      <trkpt lat="48.26822" lon="2.64015">
        <ele>89.800003051758</ele>
        <time>2014-02-02T10:28:08Z</time>
      </trkpt>
      <trkpt lat="48.26826" lon="2.64023">
        <ele>89.400001525879</ele>
        <time>2014-02-02T10:28:13Z</time>
      </trkpt>
      <trkpt lat="48.26827" lon="2.64025">
        <ele>89</ele>
        <time>2014-02-02T10:28:14Z</time>
      </trkpt>
      <trkpt lat="48.26827" lon="2.64027">
        <ele>88.599998474121</ele>
        <time>2014-02-02T10:28:15Z</time>
      </trkpt>
      <trkpt lat="48.26827" lon="2.64029">
        <ele>88</ele>
        <time>2014-02-02T10:28:16Z</time>
      </trkpt>
      <trkpt lat="48.26827" lon="2.64031">
        <ele>87.599998474121</ele>
        <time>2014-02-02T10:28:17Z</time>
      </trkpt>
      <trkpt lat="48.26834" lon="2.64041">
        <ele>87.599998474121</ele>
        <time>2014-02-02T10:28:22Z</time>
      </trkpt>
      <trkpt lat="48.26839" lon="2.64045">
        <ele>87.599998474121</ele>
        <time>2014-02-02T10:28:25Z</time>
      </trkpt>
      <trkpt lat="48.26841" lon="2.64045">
        <ele>87.599998474121</ele>
        <time>2014-02-02T10:28:26Z</time>
      </trkpt>
      <trkpt lat="48.26849" lon="2.64046">
        <ele>87.199996948242</ele>
        <time>2014-02-02T10:28:29Z</time>
      </trkpt>
      <trkpt lat="48.26851" lon="2.64047">
        <ele>86.800003051758</ele>
        <time>2014-02-02T10:28:30Z</time>
      </trkpt>
      <trkpt lat="48.26852" lon="2.64047">
        <ele>86.199996948242</ele>
        <time>2014-02-02T10:28:31Z</time>
      </trkpt>
      <trkpt lat="48.26853" lon="2.64049">
        <ele>85.800003051758</ele>
        <time>2014-02-02T10:28:32Z</time>
      </trkpt>
      <trkpt lat="48.26856" lon="2.6405">
        <ele>85.400001525879</ele>
        <time>2014-02-02T10:28:33Z</time>
      </trkpt>
      <trkpt lat="48.26864" lon="2.64054">
        <ele>84.800003051758</ele>
        <time>2014-02-02T10:28:37Z</time>
      </trkpt>
      <trkpt lat="48.26865" lon="2.64055">
        <ele>84.400001525879</ele>
        <time>2014-02-02T10:28:38Z</time>
      </trkpt>
      <trkpt lat="48.26866" lon="2.64057">
        <ele>84</ele>
        <time>2014-02-02T10:28:39Z</time>
      </trkpt>
      <trkpt lat="48.26867" lon="2.64058">
        <ele>83.599998474121</ele>
        <time>2014-02-02T10:28:40Z</time>
      </trkpt>
      <trkpt lat="48.26867" lon="2.64058">
        <ele>83.199996948242</ele>
        <time>2014-02-02T10:28:41Z</time>
      </trkpt>
      <trkpt lat="48.26868" lon="2.6406">
        <ele>83.199996948242</ele>
        <time>2014-02-02T10:28:43Z</time>
      </trkpt>
      <trkpt lat="48.26875" lon="2.64066">
        <ele>83.199996948242</ele>
        <time>2014-02-02T10:28:52Z</time>
      </trkpt>
      <trkpt lat="48.26888" lon="2.64074">
        <ele>83.199996948242</ele>
        <time>2014-02-02T10:29:01Z</time>
      </trkpt>
      <trkpt lat="48.26895" lon="2.6408">
        <ele>83.199996948242</ele>
        <time>2014-02-02T10:29:04Z</time>
      </trkpt>
      <trkpt lat="48.26898" lon="2.64083">
        <ele>83.199996948242</ele>
        <time>2014-02-02T10:29:07Z</time>
      </trkpt>
      <trkpt lat="48.26901" lon="2.64088">
        <ele>83.599998474121</ele>
        <time>2014-02-02T10:29:11Z</time>
      </trkpt>
      <trkpt lat="48.26902" lon="2.64089">
        <ele>84</ele>
        <time>2014-02-02T10:29:12Z</time>
      </trkpt>
      <trkpt lat="48.26902" lon="2.64091">
        <ele>84.400001525879</ele>
        <time>2014-02-02T10:29:13Z</time>
      </trkpt>
      <trkpt lat="48.26902" lon="2.64093">
        <ele>84.800003051758</ele>
        <time>2014-02-02T10:29:14Z</time>
      </trkpt>
      <trkpt lat="48.26902" lon="2.64094">
        <ele>85.199996948242</ele>
        <time>2014-02-02T10:29:15Z</time>
      </trkpt>
      <trkpt lat="48.26902" lon="2.64095">
        <ele>85.199996948242</ele>
        <time>2014-02-02T10:29:16Z</time>
      </trkpt>
      <trkpt lat="48.26902" lon="2.64102">
        <ele>85.599998474121</ele>
        <time>2014-02-02T10:29:22Z</time>
      </trkpt>
      <trkpt lat="48.26902" lon="2.64103">
        <ele>86.199996948242</ele>
        <time>2014-02-02T10:29:23Z</time>
      </trkpt>
      <trkpt lat="48.26902" lon="2.64103">
        <ele>86.599998474121</ele>
        <time>2014-02-02T10:29:24Z</time>
      </trkpt>
      <trkpt lat="48.26902" lon="2.64104">
        <ele>87</ele>
        <time>2014-02-02T10:29:25Z</time>
      </trkpt>
      <trkpt lat="48.26902" lon="2.64105">
        <ele>87.400001525879</ele>
        <time>2014-02-02T10:29:26Z</time>
      </trkpt>
      <trkpt lat="48.26901" lon="2.6411">
        <ele>87.400001525879</ele>
        <time>2014-02-02T10:29:31Z</time>
      </trkpt>
      <trkpt lat="48.26903" lon="2.64125">
        <ele>87.400001525879</ele>
        <time>2014-02-02T10:29:43Z</time>
      </trkpt>
      <trkpt lat="48.26907" lon="2.64139">
        <ele>87.400001525879</ele>
        <time>2014-02-02T10:29:53Z</time>
      </trkpt>
      <trkpt lat="48.26912" lon="2.64151">
        <ele>87.400001525879</ele>
        <time>2014-02-02T10:30:02Z</time>
      </trkpt>
      <trkpt lat="48.26916" lon="2.64161">
        <ele>87.400001525879</ele>
        <time>2014-02-02T10:30:12Z</time>
      </trkpt>
      <trkpt lat="48.26917" lon="2.64166">
        <ele>87.400001525879</ele>
        <time>2014-02-02T10:30:20Z</time>
      </trkpt>
      <trkpt lat="48.26924" lon="2.64177">
        <ele>87.400001525879</ele>
        <time>2014-02-02T10:30:27Z</time>
      </trkpt>
      <trkpt lat="48.26921" lon="2.64191">
        <ele>87.400001525879</ele>
        <time>2014-02-02T10:30:33Z</time>
      </trkpt>
      <trkpt lat="48.26919" lon="2.64192">
        <ele>87.400001525879</ele>
        <time>2014-02-02T10:30:38Z</time>
      </trkpt>
      <trkpt lat="48.26915" lon="2.64195">
        <ele>87.400001525879</ele>
        <time>2014-02-02T10:30:45Z</time>
      </trkpt>
      <trkpt lat="48.26911" lon="2.64196">
        <ele>87.800003051758</ele>
        <time>2014-02-02T10:30:52Z</time>
      </trkpt>
      <trkpt lat="48.2691" lon="2.64196">
        <ele>88.199996948242</ele>
        <time>2014-02-02T10:30:53Z</time>
      </trkpt>
      <trkpt lat="48.2691" lon="2.64196">
        <ele>88.800003051758</ele>
        <time>2014-02-02T10:30:54Z</time>
      </trkpt>
      <trkpt lat="48.2691" lon="2.64196">
        <ele>89.199996948242</ele>
        <time>2014-02-02T10:30:55Z</time>
      </trkpt>
      <trkpt lat="48.2691" lon="2.64195">
        <ele>89.599998474121</ele>
        <time>2014-02-02T10:30:56Z</time>
      </trkpt>
      <trkpt lat="48.26902" lon="2.64194">
        <ele>89.599998474121</ele>
        <time>2014-02-02T10:31:14Z</time>
      </trkpt>
      <trkpt lat="48.26899" lon="2.64195">
        <ele>89.599998474121</ele>
        <time>2014-02-02T10:31:22Z</time>
      </trkpt>
      <trkpt lat="48.26897" lon="2.64195">
        <ele>90</ele>
        <time>2014-02-02T10:31:24Z</time>
      </trkpt>
      <trkpt lat="48.26897" lon="2.64195">
        <ele>90.400001525879</ele>
        <time>2014-02-02T10:31:25Z</time>
      </trkpt>
      <trkpt lat="48.26897" lon="2.64195">
        <ele>90.800003051758</ele>
        <time>2014-02-02T10:31:26Z</time>
      </trkpt>
      <trkpt lat="48.26896" lon="2.64196">
        <ele>91.199996948242</ele>
        <time>2014-02-02T10:31:27Z</time>
      </trkpt>
      <trkpt lat="48.26895" lon="2.64198">
        <ele>91.599998474121</ele>
        <time>2014-02-02T10:31:28Z</time>
      </trkpt>
      <trkpt lat="48.26892" lon="2.64207">
        <ele>91</ele>
        <time>2014-02-02T10:31:31Z</time>
      </trkpt>
      <trkpt lat="48.26891" lon="2.64208">
        <ele>90.599998474121</ele>
        <time>2014-02-02T10:31:32Z</time>
      </trkpt>
      <trkpt lat="48.26892" lon="2.64209">
        <ele>90</ele>
        <time>2014-02-02T10:31:33Z</time>
      </trkpt>
      <trkpt lat="48.26892" lon="2.64209">
        <ele>89.400001525879</ele>
        <time>2014-02-02T10:31:34Z</time>
      </trkpt>
      <trkpt lat="48.26892" lon="2.64209">
        <ele>88.800003051758</ele>
        <time>2014-02-02T10:31:35Z</time>
      </trkpt>
      <trkpt lat="48.26894" lon="2.64212">
        <ele>88.400001525879</ele>
        <time>2014-02-02T10:31:46Z</time>
      </trkpt>
      <trkpt lat="48.26893" lon="2.64214">
        <ele>88</ele>
        <time>2014-02-02T10:31:47Z</time>
      </trkpt>
      <trkpt lat="48.26893" lon="2.64215">
        <ele>87.599998474121</ele>
        <time>2014-02-02T10:31:48Z</time>
      </trkpt>
      <trkpt lat="48.26893" lon="2.64217">
        <ele>87.199996948242</ele>
        <time>2014-02-02T10:31:49Z</time>
      </trkpt>
      <trkpt lat="48.26892" lon="2.64217">
        <ele>86.800003051758</ele>
        <time>2014-02-02T10:31:50Z</time>
      </trkpt>
      <trkpt lat="48.2689" lon="2.64219">
        <ele>86.800003051758</ele>
        <time>2014-02-02T10:31:53Z</time>
      </trkpt>
      <trkpt lat="48.26884" lon="2.6423">
        <ele>86.800003051758</ele>
        <time>2014-02-02T10:32:04Z</time>
      </trkpt>
      <trkpt lat="48.2688" lon="2.64235">
        <ele>87.199996948242</ele>
        <time>2014-02-02T10:32:12Z</time>
      </trkpt>
      <trkpt lat="48.2688" lon="2.64236">
        <ele>87.599998474121</ele>
        <time>2014-02-02T10:32:13Z</time>
      </trkpt>
      <trkpt lat="48.26879" lon="2.64237">
        <ele>88</ele>
        <time>2014-02-02T10:32:14Z</time>
      </trkpt>
      <trkpt lat="48.26879" lon="2.64237">
        <ele>88.599998474121</ele>
        <time>2014-02-02T10:32:15Z</time>
      </trkpt>
      <trkpt lat="48.26878" lon="2.64237">
        <ele>89</ele>
        <time>2014-02-02T10:32:16Z</time>
      </trkpt>
      <trkpt lat="48.26877" lon="2.64239">
        <ele>89.400001525879</ele>
        <time>2014-02-02T10:32:19Z</time>
      </trkpt>
      <trkpt lat="48.26877" lon="2.64239">
        <ele>89.800003051758</ele>
        <time>2014-02-02T10:32:20Z</time>
      </trkpt>
      <trkpt lat="48.26875" lon="2.64242">
        <ele>90.199996948242</ele>
        <time>2014-02-02T10:32:21Z</time>
      </trkpt>
      <trkpt lat="48.26875" lon="2.64243">
        <ele>90.599998474121</ele>
        <time>2014-02-02T10:32:22Z</time>
      </trkpt>
      <trkpt lat="48.26874" lon="2.64245">
        <ele>91</ele>
        <time>2014-02-02T10:32:23Z</time>
      </trkpt>
      <trkpt lat="48.26873" lon="2.64247">
        <ele>91</ele>
        <time>2014-02-02T10:32:24Z</time>
      </trkpt>
      <trkpt lat="48.26867" lon="2.64256">
        <ele>91</ele>
        <time>2014-02-02T10:32:31Z</time>
      </trkpt>
      <trkpt lat="48.2686" lon="2.64256">
        <ele>91</ele>
        <time>2014-02-02T10:32:40Z</time>
      </trkpt>
      <trkpt lat="48.26859" lon="2.64257">
        <ele>91.400001525879</ele>
        <time>2014-02-02T10:32:42Z</time>
      </trkpt>
      <trkpt lat="48.26859" lon="2.64258">
        <ele>92</ele>
        <time>2014-02-02T10:32:43Z</time>
      </trkpt>
      <trkpt lat="48.26859" lon="2.64259">
        <ele>92.400001525879</ele>
        <time>2014-02-02T10:32:44Z</time>
      </trkpt>
      <trkpt lat="48.26858" lon="2.64259">
        <ele>92.800003051758</ele>
        <time>2014-02-02T10:32:45Z</time>
      </trkpt>
      <trkpt lat="48.26858" lon="2.6426">
        <ele>93.199996948242</ele>
        <time>2014-02-02T10:32:47Z</time>
      </trkpt>
      <trkpt lat="48.26857" lon="2.6426">
        <ele>93.199996948242</ele>
        <time>2014-02-02T10:32:49Z</time>
      </trkpt>
      <trkpt lat="48.26858" lon="2.64268">
        <ele>93.199996948242</ele>
        <time>2014-02-02T10:32:56Z</time>
      </trkpt>
      <trkpt lat="48.26857" lon="2.64287">
        <ele>93.199996948242</ele>
        <time>2014-02-02T10:33:06Z</time>
      </trkpt>
      <trkpt lat="48.26858" lon="2.64296">
        <ele>92.800003051758</ele>
        <time>2014-02-02T10:33:08Z</time>
      </trkpt>
      <trkpt lat="48.26859" lon="2.64299">
        <ele>92.199996948242</ele>
        <time>2014-02-02T10:33:09Z</time>
      </trkpt>
      <trkpt lat="48.2686" lon="2.64301">
        <ele>91.800003051758</ele>
        <time>2014-02-02T10:33:10Z</time>
      </trkpt>
      <trkpt lat="48.26861" lon="2.64304">
        <ele>91.199996948242</ele>
        <time>2014-02-02T10:33:11Z</time>
      </trkpt>
      <trkpt lat="48.26861" lon="2.64307">
        <ele>90.599998474121</ele>
        <time>2014-02-02T10:33:12Z</time>
      </trkpt>
      <trkpt lat="48.26861" lon="2.64309">
        <ele>89.800003051758</ele>
        <time>2014-02-02T10:33:13Z</time>
      </trkpt>
      <trkpt lat="48.26862" lon="2.64312">
        <ele>89</ele>
        <time>2014-02-02T10:33:14Z</time>
      </trkpt>
      <trkpt lat="48.26861" lon="2.64315">
        <ele>88.199996948242</ele>
        <time>2014-02-02T10:33:15Z</time>
      </trkpt>
      <trkpt lat="48.26861" lon="2.64318">
        <ele>87.199996948242</ele>
        <time>2014-02-02T10:33:16Z</time>
      </trkpt>
      <trkpt lat="48.2686" lon="2.64321">
        <ele>86.199996948242</ele>
        <time>2014-02-02T10:33:17Z</time>
      </trkpt>
      <trkpt lat="48.26859" lon="2.64326">
        <ele>85.199996948242</ele>
        <time>2014-02-02T10:33:18Z</time>
      </trkpt>
      <trkpt lat="48.26857" lon="2.6433">
        <ele>84</ele>
        <time>2014-02-02T10:33:19Z</time>
      </trkpt>
      <trkpt lat="48.26856" lon="2.64336">
        <ele>82.599998474121</ele>
        <time>2014-02-02T10:33:20Z</time>
      </trkpt>
      <trkpt lat="48.26854" lon="2.64342">
        <ele>81.400001525879</ele>
        <time>2014-02-02T10:33:21Z</time>
      </trkpt>
      <trkpt lat="48.26851" lon="2.64347">
        <ele>80.199996948242</ele>
        <time>2014-02-02T10:33:22Z</time>
      </trkpt>
      <trkpt lat="48.2685" lon="2.64351">
        <ele>79</ele>
        <time>2014-02-02T10:33:23Z</time>
      </trkpt>
      <trkpt lat="48.26848" lon="2.64355">
        <ele>77.599998474121</ele>
        <time>2014-02-02T10:33:24Z</time>
      </trkpt>
      <trkpt lat="48.26847" lon="2.64357">
        <ele>77.599998474121</ele>
        <time>2014-02-02T10:33:25Z</time>
      </trkpt>
      <trkpt lat="48.26844" lon="2.64358">
        <ele>77.599998474121</ele>
        <time>2014-02-02T10:33:27Z</time>
      </trkpt>
      <trkpt lat="48.26842" lon="2.64357">
        <ele>77.199996948242</ele>
        <time>2014-02-02T10:33:28Z</time>
      </trkpt>
      <trkpt lat="48.26841" lon="2.64356">
        <ele>76.800003051758</ele>
        <time>2014-02-02T10:33:29Z</time>
      </trkpt>
      <trkpt lat="48.2684" lon="2.64355">
        <ele>76.400001525879</ele>
        <time>2014-02-02T10:33:30Z</time>
      </trkpt>
      <trkpt lat="48.26839" lon="2.64354">
        <ele>76</ele>
        <time>2014-02-02T10:33:31Z</time>
      </trkpt>
      <trkpt lat="48.26838" lon="2.64353">
        <ele>75.599998474121</ele>
        <time>2014-02-02T10:33:32Z</time>
      </trkpt>
      <trkpt lat="48.26836" lon="2.6435">
        <ele>75.599998474121</ele>
        <time>2014-02-02T10:33:35Z</time>
      </trkpt>
      <trkpt lat="48.26834" lon="2.64347">
        <ele>76</ele>
        <time>2014-02-02T10:33:38Z</time>
      </trkpt>
      <trkpt lat="48.26833" lon="2.64346">
        <ele>76.400001525879</ele>
        <time>2014-02-02T10:33:39Z</time>
      </trkpt>
      <trkpt lat="48.26833" lon="2.64345">
        <ele>77</ele>
        <time>2014-02-02T10:33:40Z</time>
      </trkpt>
      <trkpt lat="48.26831" lon="2.64344">
        <ele>77.400001525879</ele>
        <time>2014-02-02T10:33:41Z</time>
      </trkpt>
      <trkpt lat="48.2683" lon="2.64343">
        <ele>77.800003051758</ele>
        <time>2014-02-02T10:33:42Z</time>
      </trkpt>
      <trkpt lat="48.26829" lon="2.64341">
        <ele>77.800003051758</ele>
        <time>2014-02-02T10:33:43Z</time>
      </trkpt>
      <trkpt lat="48.26823" lon="2.64335">
        <ele>78.199996948242</ele>
        <time>2014-02-02T10:33:49Z</time>
      </trkpt>
      <trkpt lat="48.26823" lon="2.64333">
        <ele>78.800003051758</ele>
        <time>2014-02-02T10:33:50Z</time>
      </trkpt>
      <trkpt lat="48.26822" lon="2.64332">
        <ele>79.199996948242</ele>
        <time>2014-02-02T10:33:51Z</time>
      </trkpt>
      <trkpt lat="48.26821" lon="2.64331">
        <ele>79.599998474121</ele>
        <time>2014-02-02T10:33:52Z</time>
      </trkpt>
      <trkpt lat="48.2682" lon="2.6433">
        <ele>80</ele>
        <time>2014-02-02T10:33:53Z</time>
      </trkpt>
      <trkpt lat="48.26815" lon="2.64317">
        <ele>80</ele>
        <time>2014-02-02T10:34:03Z</time>
      </trkpt>
      <trkpt lat="48.26815" lon="2.64316">
        <ele>80.400001525879</ele>
        <time>2014-02-02T10:34:05Z</time>
      </trkpt>
      <trkpt lat="48.26815" lon="2.64316">
        <ele>80.800003051758</ele>
        <time>2014-02-02T10:34:06Z</time>
      </trkpt>
      <trkpt lat="48.26815" lon="2.64316">
        <ele>81.199996948242</ele>
        <time>2014-02-02T10:34:07Z</time>
      </trkpt>
      <trkpt lat="48.26815" lon="2.64316">
        <ele>81.800003051758</ele>
        <time>2014-02-02T10:34:08Z</time>
      </trkpt>
      <trkpt lat="48.26815" lon="2.64316">
        <ele>82.199996948242</ele>
        <time>2014-02-02T10:34:09Z</time>
      </trkpt>
      <trkpt lat="48.26815" lon="2.64316">
        <ele>82.199996948242</ele>
        <time>2014-02-02T10:34:11Z</time>
      </trkpt>
      <trkpt lat="48.26815" lon="2.64316">
        <ele>82.599998474121</ele>
        <time>2014-02-02T10:34:19Z</time>
      </trkpt>
      <trkpt lat="48.26815" lon="2.64315">
        <ele>83</ele>
        <time>2014-02-02T10:34:20Z</time>
      </trkpt>
      <trkpt lat="48.26815" lon="2.64315">
        <ele>83.400001525879</ele>
        <time>2014-02-02T10:34:21Z</time>
      </trkpt>
      <trkpt lat="48.26815" lon="2.64315">
        <ele>83.800003051758</ele>
        <time>2014-02-02T10:34:22Z</time>
      </trkpt>
      <trkpt lat="48.26815" lon="2.64315">
        <ele>84.199996948242</ele>
        <time>2014-02-02T10:34:23Z</time>
      </trkpt>
      <trkpt lat="48.26815" lon="2.64315">
        <ele>84.199996948242</ele>
        <time>2014-02-02T10:34:25Z</time>
      </trkpt>
      <trkpt lat="48.26815" lon="2.64315">
        <ele>84.599998474121</ele>
        <time>2014-02-02T10:34:31Z</time>
      </trkpt>
      <trkpt lat="48.26815" lon="2.64315">
        <ele>85</ele>
        <time>2014-02-02T10:34:32Z</time>
      </trkpt>
      <trkpt lat="48.26815" lon="2.64315">
        <ele>85.400001525879</ele>
        <time>2014-02-02T10:34:33Z</time>
      </trkpt>
      <trkpt lat="48.26815" lon="2.64315">
        <ele>85.800003051758</ele>
        <time>2014-02-02T10:34:34Z</time>
      </trkpt>
      <trkpt lat="48.26815" lon="2.64315">
        <ele>86.199996948242</ele>
        <time>2014-02-02T10:34:35Z</time>
      </trkpt>
      <trkpt lat="48.26815" lon="2.64315">
        <ele>86.599998474121</ele>
        <time>2014-02-02T10:34:43Z</time>
      </trkpt>
      <trkpt lat="48.26815" lon="2.64315">
        <ele>87</ele>
        <time>2014-02-02T10:34:44Z</time>
      </trkpt>
      <trkpt lat="48.26815" lon="2.64315">
        <ele>87.400001525879</ele>
        <time>2014-02-02T10:34:45Z</time>
      </trkpt>
      <trkpt lat="48.26815" lon="2.64315">
        <ele>87.800003051758</ele>
        <time>2014-02-02T10:34:46Z</time>
      </trkpt>
      <trkpt lat="48.26815" lon="2.64315">
        <ele>88.199996948242</ele>
        <time>2014-02-02T10:34:47Z</time>
      </trkpt>
      <trkpt lat="48.26815" lon="2.64315">
        <ele>88.199996948242</ele>
        <time>2014-02-02T10:35:13Z</time>
      </trkpt>
      <trkpt lat="48.26815" lon="2.64315">
        <ele>88.599998474121</ele>
        <time>2014-02-02T10:35:14Z</time>
      </trkpt>
      <trkpt lat="48.26815" lon="2.64315">
        <ele>89</ele>
        <time>2014-02-02T10:35:15Z</time>
      </trkpt>
      <trkpt lat="48.26815" lon="2.64315">
        <ele>89.400001525879</ele>
        <time>2014-02-02T10:35:16Z</time>
      </trkpt>
      <trkpt lat="48.26815" lon="2.64315">
        <ele>90</ele>
        <time>2014-02-02T10:35:17Z</time>
      </trkpt>
      <trkpt lat="48.26815" lon="2.64315">
        <ele>90.400001525879</ele>
        <time>2014-02-02T10:35:18Z</time>
      </trkpt>
      <trkpt lat="48.26812" lon="2.64315">
        <ele>90.400001525879</ele>
        <time>2014-02-02T10:35:31Z</time>
      </trkpt>
      <trkpt lat="48.26798" lon="2.64312">
        <ele>90.400001525879</ele>
        <time>2014-02-02T10:35:38Z</time>
      </trkpt>
      <trkpt lat="48.26781" lon="2.64315">
        <ele>90.400001525879</ele>
        <time>2014-02-02T10:35:44Z</time>
      </trkpt>
      <trkpt lat="48.2676" lon="2.64319">
        <ele>90.400001525879</ele>
        <time>2014-02-02T10:35:51Z</time>
      </trkpt>
      <trkpt lat="48.26743" lon="2.64316">
        <ele>90.400001525879</ele>
        <time>2014-02-02T10:35:58Z</time>
      </trkpt>
      <trkpt lat="48.26719" lon="2.64312">
        <ele>90.800003051758</ele>
        <time>2014-02-02T10:36:03Z</time>
      </trkpt>
      <trkpt lat="48.26716" lon="2.64312">
        <ele>91.199996948242</ele>
        <time>2014-02-02T10:36:04Z</time>
      </trkpt>
      <trkpt lat="48.26712" lon="2.64311">
        <ele>91.599998474121</ele>
        <time>2014-02-02T10:36:05Z</time>
      </trkpt>
      <trkpt lat="48.26709" lon="2.64311">
        <ele>92</ele>
        <time>2014-02-02T10:36:06Z</time>
      </trkpt>
      <trkpt lat="48.26704" lon="2.6431">
        <ele>92.400001525879</ele>
        <time>2014-02-02T10:36:07Z</time>
      </trkpt>
      <trkpt lat="48.26691" lon="2.64316">
        <ele>92.400001525879</ele>
        <time>2014-02-02T10:36:13Z</time>
      </trkpt>
      <trkpt lat="48.26691" lon="2.6432">
        <ele>92.800003051758</ele>
        <time>2014-02-02T10:36:15Z</time>
      </trkpt>
      <trkpt lat="48.26691" lon="2.64321">
        <ele>93.400001525879</ele>
        <time>2014-02-02T10:36:16Z</time>
      </trkpt>
      <trkpt lat="48.2669" lon="2.64321">
        <ele>93.800003051758</ele>
        <time>2014-02-02T10:36:17Z</time>
      </trkpt>
      <trkpt lat="48.2669" lon="2.64322">
        <ele>94.199996948242</ele>
        <time>2014-02-02T10:36:18Z</time>
      </trkpt>
      <trkpt lat="48.2669" lon="2.64322">
        <ele>94.599998474121</ele>
        <time>2014-02-02T10:36:19Z</time>
      </trkpt>
      <trkpt lat="48.26691" lon="2.64329">
        <ele>94.599998474121</ele>
        <time>2014-02-02T10:36:27Z</time>
      </trkpt>
      <trkpt lat="48.26691" lon="2.64331">
        <ele>95</ele>
        <time>2014-02-02T10:36:28Z</time>
      </trkpt>
      <trkpt lat="48.26692" lon="2.64332">
        <ele>95.400001525879</ele>
        <time>2014-02-02T10:36:29Z</time>
      </trkpt>
      <trkpt lat="48.26692" lon="2.64333">
        <ele>95.800003051758</ele>
        <time>2014-02-02T10:36:30Z</time>
      </trkpt>
      <trkpt lat="48.26692" lon="2.64334">
        <ele>96.199996948242</ele>
        <time>2014-02-02T10:36:31Z</time>
      </trkpt>
      <trkpt lat="48.26692" lon="2.64335">
        <ele>96.599998474121</ele>
        <time>2014-02-02T10:36:32Z</time>
      </trkpt>
      <trkpt lat="48.26691" lon="2.64338">
        <ele>96.599998474121</ele>
        <time>2014-02-02T10:36:36Z</time>
      </trkpt>
      <trkpt lat="48.26691" lon="2.64343">
        <ele>96.599998474121</ele>
        <time>2014-02-02T10:36:47Z</time>
      </trkpt>
      <trkpt lat="48.26691" lon="2.64343">
        <ele>97</ele>
        <time>2014-02-02T10:36:49Z</time>
      </trkpt>
      <trkpt lat="48.26691" lon="2.64343">
        <ele>97.400001525879</ele>
        <time>2014-02-02T10:36:50Z</time>
      </trkpt>
      <trkpt lat="48.26691" lon="2.64343">
        <ele>97.800003051758</ele>
        <time>2014-02-02T10:36:51Z</time>
      </trkpt>
      <trkpt lat="48.26691" lon="2.64343">
        <ele>98.199996948242</ele>
        <time>2014-02-02T10:36:52Z</time>
      </trkpt>
      <trkpt lat="48.26691" lon="2.64343">
        <ele>98.599998474121</ele>
        <time>2014-02-02T10:36:53Z</time>
      </trkpt>
      <trkpt lat="48.26691" lon="2.6435">
        <ele>98.599998474121</ele>
        <time>2014-02-02T10:38:03Z</time>
      </trkpt>
      <trkpt lat="48.26691" lon="2.6435">
        <ele>99.199996948242</ele>
        <time>2014-02-02T10:38:19Z</time>
      </trkpt>
      <trkpt lat="48.26691" lon="2.6435">
        <ele>99.599998474121</ele>
        <time>2014-02-02T10:38:20Z</time>
      </trkpt>
      <trkpt lat="48.26692" lon="2.6435">
        <ele>100</ele>
        <time>2014-02-02T10:38:21Z</time>
      </trkpt>
      <trkpt lat="48.26692" lon="2.6435">
        <ele>100.40000152588</ele>
        <time>2014-02-02T10:38:22Z</time>
      </trkpt>
      <trkpt lat="48.26692" lon="2.6435">
        <ele>100.80000305176</ele>
        <time>2014-02-02T10:38:23Z</time>
      </trkpt>
      <trkpt lat="48.26693" lon="2.64365">
        <ele>100.80000305176</ele>
        <time>2014-02-02T10:40:44Z</time>
      </trkpt>
      <trkpt lat="48.26697" lon="2.64375">
        <ele>100.80000305176</ele>
        <time>2014-02-02T10:40:56Z</time>
      </trkpt>
      <trkpt lat="48.267" lon="2.64382">
        <ele>100.40000152588</ele>
        <time>2014-02-02T10:40:58Z</time>
      </trkpt>
      <trkpt lat="48.26701" lon="2.64385">
        <ele>99.400001525879</ele>
        <time>2014-02-02T10:40:59Z</time>
      </trkpt>
      <trkpt lat="48.26704" lon="2.6439">
        <ele>98.400001525879</ele>
        <time>2014-02-02T10:41:01Z</time>
      </trkpt>
      <trkpt lat="48.26706" lon="2.64393">
        <ele>97.599998474121</ele>
        <time>2014-02-02T10:41:02Z</time>
      </trkpt>
      <trkpt lat="48.26707" lon="2.64397">
        <ele>96.599998474121</ele>
        <time>2014-02-02T10:41:03Z</time>
      </trkpt>
      <trkpt lat="48.26708" lon="2.644">
        <ele>95.599998474121</ele>
        <time>2014-02-02T10:41:04Z</time>
      </trkpt>
      <trkpt lat="48.26709" lon="2.64404">
        <ele>94.400001525879</ele>
        <time>2014-02-02T10:41:05Z</time>
      </trkpt>
      <trkpt lat="48.26711" lon="2.64408">
        <ele>93.199996948242</ele>
        <time>2014-02-02T10:41:06Z</time>
      </trkpt>
      <trkpt lat="48.26712" lon="2.64412">
        <ele>92</ele>
        <time>2014-02-02T10:41:07Z</time>
      </trkpt>
      <trkpt lat="48.26714" lon="2.64416">
        <ele>90.599998474121</ele>
        <time>2014-02-02T10:41:08Z</time>
      </trkpt>
      <trkpt lat="48.26716" lon="2.64421">
        <ele>89.199996948242</ele>
        <time>2014-02-02T10:41:09Z</time>
      </trkpt>
      <trkpt lat="48.26719" lon="2.64425">
        <ele>87.599998474121</ele>
        <time>2014-02-02T10:41:10Z</time>
      </trkpt>
      <trkpt lat="48.2672" lon="2.6443">
        <ele>86.199996948242</ele>
        <time>2014-02-02T10:41:11Z</time>
      </trkpt>
      <trkpt lat="48.26722" lon="2.64434">
        <ele>85</ele>
        <time>2014-02-02T10:41:12Z</time>
      </trkpt>
      <trkpt lat="48.26723" lon="2.64438">
        <ele>84</ele>
        <time>2014-02-02T10:41:13Z</time>
      </trkpt>
      <trkpt lat="48.26725" lon="2.64441">
        <ele>83</ele>
        <time>2014-02-02T10:41:14Z</time>
      </trkpt>
      <trkpt lat="48.26726" lon="2.64444">
        <ele>81.800003051758</ele>
        <time>2014-02-02T10:41:15Z</time>
      </trkpt>
      <trkpt lat="48.26727" lon="2.64447">
        <ele>80.800003051758</ele>
        <time>2014-02-02T10:41:16Z</time>
      </trkpt>
      <trkpt lat="48.26735" lon="2.64458">
        <ele>80.800003051758</ele>
        <time>2014-02-02T10:41:21Z</time>
      </trkpt>
      <trkpt lat="48.26736" lon="2.64459">
        <ele>80.800003051758</ele>
        <time>2014-02-02T10:41:27Z</time>
      </trkpt>
      <trkpt lat="48.26736" lon="2.64459">
        <ele>81.199996948242</ele>
        <time>2014-02-02T10:49:11Z</time>
      </trkpt>
      <trkpt lat="48.26736" lon="2.64459">
        <ele>81.599998474121</ele>
        <time>2014-02-02T10:49:12Z</time>
      </trkpt>
      <trkpt lat="48.26736" lon="2.64459">
        <ele>82</ele>
        <time>2014-02-02T10:49:13Z</time>
      </trkpt>
      <trkpt lat="48.26736" lon="2.64459">
        <ele>82.400001525879</ele>
        <time>2014-02-02T10:49:14Z</time>
      </trkpt>
      <trkpt lat="48.26736" lon="2.64459">
        <ele>82.800003051758</ele>
        <time>2014-02-02T10:49:15Z</time>
      </trkpt>
      <trkpt lat="48.26737" lon="2.64461">
        <ele>82.800003051758</ele>
        <time>2014-02-02T10:49:39Z</time>
      </trkpt>
      <trkpt lat="48.2674" lon="2.64462">
        <ele>82.800003051758</ele>
        <time>2014-02-02T10:49:41Z</time>
      </trkpt>
      <trkpt lat="48.26747" lon="2.64468">
        <ele>82.800003051758</ele>
        <time>2014-02-02T10:49:46Z</time>
      </trkpt>
      <trkpt lat="48.26752" lon="2.64473">
        <ele>82.800003051758</ele>
        <time>2014-02-02T10:49:49Z</time>
      </trkpt>
      <trkpt lat="48.26756" lon="2.64475">
        <ele>82.800003051758</ele>
        <time>2014-02-02T10:49:51Z</time>
      </trkpt>
      <trkpt lat="48.2676" lon="2.64475">
        <ele>82.800003051758</ele>
        <time>2014-02-02T10:49:53Z</time>
      </trkpt>
      <trkpt lat="48.26764" lon="2.64477">
        <ele>82.800003051758</ele>
        <time>2014-02-02T10:49:55Z</time>
      </trkpt>
      <trkpt lat="48.26769" lon="2.64487">
        <ele>82.800003051758</ele>
        <time>2014-02-02T10:50:00Z</time>
      </trkpt>
      <trkpt lat="48.26779" lon="2.64498">
        <ele>82.199996948242</ele>
        <time>2014-02-02T10:50:04Z</time>
      </trkpt>
      <trkpt lat="48.26783" lon="2.64498">
        <ele>81.800003051758</ele>
        <time>2014-02-02T10:50:05Z</time>
      </trkpt>
      <trkpt lat="48.26786" lon="2.64498">
        <ele>81.400001525879</ele>
        <time>2014-02-02T10:50:06Z</time>
      </trkpt>
      <trkpt lat="48.26789" lon="2.64499">
        <ele>80.800003051758</ele>
        <time>2014-02-02T10:50:07Z</time>
      </trkpt>
      <trkpt lat="48.26793" lon="2.645">
        <ele>80.400001525879</ele>
        <time>2014-02-02T10:50:08Z</time>
      </trkpt>
      <trkpt lat="48.268" lon="2.64509">
        <ele>80.400001525879</ele>
        <time>2014-02-02T10:50:12Z</time>
      </trkpt>
      <trkpt lat="48.26806" lon="2.64524">
        <ele>80.400001525879</ele>
        <time>2014-02-02T10:50:18Z</time>
      </trkpt>
      <trkpt lat="48.26811" lon="2.64539">
        <ele>80.800003051758</ele>
        <time>2014-02-02T10:50:23Z</time>
      </trkpt>
      <trkpt lat="48.26812" lon="2.6454">
        <ele>81.199996948242</ele>
        <time>2014-02-02T10:50:24Z</time>
      </trkpt>
      <trkpt lat="48.26812" lon="2.64542">
        <ele>81.599998474121</ele>
        <time>2014-02-02T10:50:25Z</time>
      </trkpt>
      <trkpt lat="48.26813" lon="2.64544">
        <ele>82.199996948242</ele>
        <time>2014-02-02T10:50:26Z</time>
      </trkpt>
      <trkpt lat="48.26813" lon="2.64547">
        <ele>82.599998474121</ele>
        <time>2014-02-02T10:50:27Z</time>
      </trkpt>
      <trkpt lat="48.26811" lon="2.64553">
        <ele>82.599998474121</ele>
        <time>2014-02-02T10:50:29Z</time>
      </trkpt>
      <trkpt lat="48.26809" lon="2.64579">
        <ele>82.599998474121</ele>
        <time>2014-02-02T10:50:34Z</time>
      </trkpt>
      <trkpt lat="48.26815" lon="2.64603">
        <ele>82.599998474121</ele>
        <time>2014-02-02T10:50:41Z</time>
      </trkpt>
      <trkpt lat="48.2682" lon="2.64626">
        <ele>82.599998474121</ele>
        <time>2014-02-02T10:50:47Z</time>
      </trkpt>
      <trkpt lat="48.26827" lon="2.64645">
        <ele>82.599998474121</ele>
        <time>2014-02-02T10:50:54Z</time>
      </trkpt>
      <trkpt lat="48.26829" lon="2.64646">
        <ele>83</ele>
        <time>2014-02-02T10:50:55Z</time>
      </trkpt>
      <trkpt lat="48.2683" lon="2.64648">
        <ele>83.400001525879</ele>
        <time>2014-02-02T10:50:56Z</time>
      </trkpt>
      <trkpt lat="48.26831" lon="2.64649">
        <ele>83.800003051758</ele>
        <time>2014-02-02T10:50:57Z</time>
      </trkpt>
      <trkpt lat="48.26833" lon="2.64651">
        <ele>84.199996948242</ele>
        <time>2014-02-02T10:50:58Z</time>
      </trkpt>
      <trkpt lat="48.26834" lon="2.64652">
        <ele>84.599998474121</ele>
        <time>2014-02-02T10:50:59Z</time>
      </trkpt>
      <trkpt lat="48.26836" lon="2.64654">
        <ele>84.599998474121</ele>
        <time>2014-02-02T10:51:00Z</time>
      </trkpt>
      <trkpt lat="48.26842" lon="2.64667">
        <ele>84.599998474121</ele>
        <time>2014-02-02T10:51:07Z</time>
      </trkpt>
      <trkpt lat="48.26848" lon="2.6469">
        <ele>84.599998474121</ele>
        <time>2014-02-02T10:51:15Z</time>
      </trkpt>
      <trkpt lat="48.26847" lon="2.64716">
        <ele>84.599998474121</ele>
        <time>2014-02-02T10:51:20Z</time>
      </trkpt>
      <trkpt lat="48.26849" lon="2.64747">
        <ele>84.599998474121</ele>
        <time>2014-02-02T10:51:26Z</time>
      </trkpt>
      <trkpt lat="48.26851" lon="2.64765">
        <ele>84.599998474121</ele>
        <time>2014-02-02T10:51:31Z</time>
      </trkpt>
      <trkpt lat="48.26852" lon="2.64787">
        <ele>84.599998474121</ele>
        <time>2014-02-02T10:51:38Z</time>
      </trkpt>
      <trkpt lat="48.26854" lon="2.64806">
        <ele>84.599998474121</ele>
        <time>2014-02-02T10:51:45Z</time>
      </trkpt>
      <trkpt lat="48.26857" lon="2.64816">
        <ele>85</ele>
        <time>2014-02-02T10:51:47Z</time>
      </trkpt>
      <trkpt lat="48.26858" lon="2.64818">
        <ele>85.400001525879</ele>
        <time>2014-02-02T10:51:48Z</time>
      </trkpt>
      <trkpt lat="48.26857" lon="2.64822">
        <ele>86</ele>
        <time>2014-02-02T10:51:49Z</time>
      </trkpt>
      <trkpt lat="48.26857" lon="2.64826">
        <ele>86.400001525879</ele>
        <time>2014-02-02T10:51:50Z</time>
      </trkpt>
      <trkpt lat="48.26857" lon="2.64829">
        <ele>86.800003051758</ele>
        <time>2014-02-02T10:51:51Z</time>
      </trkpt>
      <trkpt lat="48.26857" lon="2.64836">
        <ele>86.800003051758</ele>
        <time>2014-02-02T10:51:53Z</time>
      </trkpt>
      <trkpt lat="48.26858" lon="2.6485">
        <ele>87.199996948242</ele>
        <time>2014-02-02T10:51:58Z</time>
      </trkpt>
      <trkpt lat="48.26858" lon="2.64853">
        <ele>87.599998474121</ele>
        <time>2014-02-02T10:51:59Z</time>
      </trkpt>
      <trkpt lat="48.26859" lon="2.64855">
        <ele>88.199996948242</ele>
        <time>2014-02-02T10:52:00Z</time>
      </trkpt>
      <trkpt lat="48.26859" lon="2.64858">
        <ele>88.599998474121</ele>
        <time>2014-02-02T10:52:01Z</time>
      </trkpt>
      <trkpt lat="48.26859" lon="2.64861">
        <ele>89</ele>
        <time>2014-02-02T10:52:02Z</time>
      </trkpt>
      <trkpt lat="48.26862" lon="2.64881">
        <ele>89</ele>
        <time>2014-02-02T10:52:07Z</time>
      </trkpt>
      <trkpt lat="48.26863" lon="2.64912">
        <ele>89</ele>
        <time>2014-02-02T10:52:13Z</time>
      </trkpt>
      <trkpt lat="48.26862" lon="2.64933">
        <ele>88.599998474121</ele>
        <time>2014-02-02T10:52:16Z</time>
      </trkpt>
      <trkpt lat="48.26861" lon="2.64943">
        <ele>88</ele>
        <time>2014-02-02T10:52:17Z</time>
      </trkpt>
      <trkpt lat="48.26862" lon="2.64951">
        <ele>87.599998474121</ele>
        <time>2014-02-02T10:52:18Z</time>
      </trkpt>
      <trkpt lat="48.26863" lon="2.6496">
        <ele>86.800003051758</ele>
        <time>2014-02-02T10:52:19Z</time>
      </trkpt>
      <trkpt lat="48.26865" lon="2.64971">
        <ele>86.199996948242</ele>
        <time>2014-02-02T10:52:20Z</time>
      </trkpt>
      <trkpt lat="48.26866" lon="2.6498">
        <ele>85.400001525879</ele>
        <time>2014-02-02T10:52:21Z</time>
      </trkpt>
      <trkpt lat="48.26867" lon="2.6499">
        <ele>84.599998474121</ele>
        <time>2014-02-02T10:52:22Z</time>
      </trkpt>
      <trkpt lat="48.26868" lon="2.64998">
        <ele>83.599998474121</ele>
        <time>2014-02-02T10:52:23Z</time>
      </trkpt>
      <trkpt lat="48.26871" lon="2.65006">
        <ele>82.599998474121</ele>
        <time>2014-02-02T10:52:24Z</time>
      </trkpt>
      <trkpt lat="48.26872" lon="2.65014">
        <ele>81.599998474121</ele>
        <time>2014-02-02T10:52:25Z</time>
      </trkpt>
      <trkpt lat="48.26874" lon="2.65021">
        <ele>80.800003051758</ele>
        <time>2014-02-02T10:52:26Z</time>
      </trkpt>
      <trkpt lat="48.26875" lon="2.65027">
        <ele>79.800003051758</ele>
        <time>2014-02-02T10:52:27Z</time>
      </trkpt>
      <trkpt lat="48.26874" lon="2.65032">
        <ele>79</ele>
        <time>2014-02-02T10:52:28Z</time>
      </trkpt>
      <trkpt lat="48.26874" lon="2.65036">
        <ele>78</ele>
        <time>2014-02-02T10:52:29Z</time>
      </trkpt>
      <trkpt lat="48.26875" lon="2.65039">
        <ele>77.199996948242</ele>
        <time>2014-02-02T10:52:30Z</time>
      </trkpt>
      <trkpt lat="48.26879" lon="2.65047">
        <ele>76.599998474121</ele>
        <time>2014-02-02T10:52:32Z</time>
      </trkpt>
      <trkpt lat="48.26882" lon="2.65051">
        <ele>76.199996948242</ele>
        <time>2014-02-02T10:52:33Z</time>
      </trkpt>
      <trkpt lat="48.26884" lon="2.65055">
        <ele>75.599998474121</ele>
        <time>2014-02-02T10:52:34Z</time>
      </trkpt>
      <trkpt lat="48.26889" lon="2.65058">
        <ele>75.199996948242</ele>
        <time>2014-02-02T10:52:35Z</time>
      </trkpt>
      <trkpt lat="48.26892" lon="2.65059">
        <ele>74.599998474121</ele>
        <time>2014-02-02T10:52:36Z</time>
      </trkpt>
      <trkpt lat="48.269" lon="2.65057">
        <ele>74.599998474121</ele>
        <time>2014-02-02T10:52:38Z</time>
      </trkpt>
      <trkpt lat="48.26907" lon="2.65057">
        <ele>74.599998474121</ele>
        <time>2014-02-02T10:52:40Z</time>
      </trkpt>
      <trkpt lat="48.26925" lon="2.65059">
        <ele>74.599998474121</ele>
        <time>2014-02-02T10:52:45Z</time>
      </trkpt>
      <trkpt lat="48.26952" lon="2.65057">
        <ele>74.599998474121</ele>
        <time>2014-02-02T10:52:51Z</time>
      </trkpt>
      <trkpt lat="48.26969" lon="2.65059">
        <ele>74.599998474121</ele>
        <time>2014-02-02T10:52:56Z</time>
      </trkpt>
      <trkpt lat="48.26999" lon="2.65062">
        <ele>74.599998474121</ele>
        <time>2014-02-02T10:53:03Z</time>
      </trkpt>
      <trkpt lat="48.27019" lon="2.65061">
        <ele>74.599998474121</ele>
        <time>2014-02-02T10:53:08Z</time>
      </trkpt>
      <trkpt lat="48.27037" lon="2.65062">
        <ele>74.599998474121</ele>
        <time>2014-02-02T10:53:13Z</time>
      </trkpt>
      <trkpt lat="48.27059" lon="2.65069">
        <ele>74.599998474121</ele>
        <time>2014-02-02T10:53:19Z</time>
      </trkpt>
      <trkpt lat="48.27088" lon="2.65079">
        <ele>74.599998474121</ele>
        <time>2014-02-02T10:53:26Z</time>
      </trkpt>
      <trkpt lat="48.27105" lon="2.65086">
        <ele>74.599998474121</ele>
        <time>2014-02-02T10:53:31Z</time>
      </trkpt>
      <trkpt lat="48.27121" lon="2.65095">
        <ele>74.599998474121</ele>
        <time>2014-02-02T10:53:36Z</time>
      </trkpt>
      <trkpt lat="48.27142" lon="2.65103">
        <ele>74.599998474121</ele>
        <time>2014-02-02T10:53:42Z</time>
      </trkpt>
      <trkpt lat="48.27165" lon="2.65113">
        <ele>74.599998474121</ele>
        <time>2014-02-02T10:53:48Z</time>
      </trkpt>
      <trkpt lat="48.27191" lon="2.65125">
        <ele>74.599998474121</ele>
        <time>2014-02-02T10:53:54Z</time>
      </trkpt>
      <trkpt lat="48.27212" lon="2.65133">
        <ele>74.599998474121</ele>
        <time>2014-02-02T10:54:00Z</time>
      </trkpt>
      <trkpt lat="48.27229" lon="2.65142">
        <ele>74.599998474121</ele>
        <time>2014-02-02T10:54:05Z</time>
      </trkpt>
      <trkpt lat="48.2725" lon="2.65151">
        <ele>74.599998474121</ele>
        <time>2014-02-02T10:54:11Z</time>
      </trkpt>
      <trkpt lat="48.27278" lon="2.65165">
        <ele>74.599998474121</ele>
        <time>2014-02-02T10:54:19Z</time>
      </trkpt>
      <trkpt lat="48.27292" lon="2.65169">
        <ele>74.599998474121</ele>
        <time>2014-02-02T10:54:22Z</time>
      </trkpt>
      <trkpt lat="48.27296" lon="2.65168">
        <ele>74.599998474121</ele>
        <time>2014-02-02T10:54:23Z</time>
      </trkpt>
      <trkpt lat="48.27306" lon="2.65148">
        <ele>74.599998474121</ele>
        <time>2014-02-02T10:54:28Z</time>
      </trkpt>
      <trkpt lat="48.27311" lon="2.65127">
        <ele>74.599998474121</ele>
        <time>2014-02-02T10:54:32Z</time>
      </trkpt>
      <trkpt lat="48.27311" lon="2.65121">
        <ele>74.599998474121</ele>
        <time>2014-02-02T10:54:33Z</time>
      </trkpt>
      <trkpt lat="48.27318" lon="2.65091">
        <ele>74.599998474121</ele>
        <time>2014-02-02T10:54:39Z</time>
      </trkpt>
      <trkpt lat="48.2732" lon="2.65056">
        <ele>74.599998474121</ele>
        <time>2014-02-02T10:54:46Z</time>
      </trkpt>
      <trkpt lat="48.27318" lon="2.65016">
        <ele>74.599998474121</ele>
        <time>2014-02-02T10:54:53Z</time>
      </trkpt>
      <trkpt lat="48.27317" lon="2.64976">
        <ele>74.599998474121</ele>
        <time>2014-02-02T10:54:59Z</time>
      </trkpt>
      <trkpt lat="48.27314" lon="2.64942">
        <ele>74.599998474121</ele>
        <time>2014-02-02T10:55:05Z</time>
      </trkpt>
      <trkpt lat="48.2731" lon="2.64895">
        <ele>74.599998474121</ele>
        <time>2014-02-02T10:55:12Z</time>
      </trkpt>
      <trkpt lat="48.27308" lon="2.64854">
        <ele>74.599998474121</ele>
        <time>2014-02-02T10:55:19Z</time>
      </trkpt>
      <trkpt lat="48.27304" lon="2.64799">
        <ele>74.599998474121</ele>
        <time>2014-02-02T10:55:27Z</time>
      </trkpt>
      <trkpt lat="48.27303" lon="2.64765">
        <ele>74.599998474121</ele>
        <time>2014-02-02T10:55:33Z</time>
      </trkpt>
      <trkpt lat="48.273" lon="2.64731">
        <ele>74.599998474121</ele>
        <time>2014-02-02T10:55:39Z</time>
      </trkpt>
      <trkpt lat="48.27296" lon="2.64675">
        <ele>74.599998474121</ele>
        <time>2014-02-02T10:55:48Z</time>
      </trkpt>
      <trkpt lat="48.27295" lon="2.64636">
        <ele>74.599998474121</ele>
        <time>2014-02-02T10:55:54Z</time>
      </trkpt>
      <trkpt lat="48.27295" lon="2.64595">
        <ele>74.599998474121</ele>
        <time>2014-02-02T10:56:00Z</time>
      </trkpt>
      <trkpt lat="48.27294" lon="2.64553">
        <ele>74.599998474121</ele>
        <time>2014-02-02T10:56:07Z</time>
      </trkpt>
      <trkpt lat="48.27292" lon="2.64509">
        <ele>74.599998474121</ele>
        <time>2014-02-02T10:56:14Z</time>
      </trkpt>
      <trkpt lat="48.27288" lon="2.64458">
        <ele>74.599998474121</ele>
        <time>2014-02-02T10:56:22Z</time>
      </trkpt>
      <trkpt lat="48.27288" lon="2.64446">
        <ele>73.800003051758</ele>
        <time>2014-02-02T10:56:24Z</time>
      </trkpt>
      <trkpt lat="48.27288" lon="2.64439">
        <ele>73.400001525879</ele>
        <time>2014-02-02T10:56:25Z</time>
      </trkpt>
      <trkpt lat="48.27287" lon="2.64432">
        <ele>73</ele>
        <time>2014-02-02T10:56:26Z</time>
      </trkpt>
      <trkpt lat="48.27286" lon="2.64426">
        <ele>72.599998474121</ele>
        <time>2014-02-02T10:56:27Z</time>
      </trkpt>
      <trkpt lat="48.27284" lon="2.64365">
        <ele>72.599998474121</ele>
        <time>2014-02-02T10:56:37Z</time>
      </trkpt>
      <trkpt lat="48.27286" lon="2.64311">
        <ele>72.599998474121</ele>
        <time>2014-02-02T10:56:46Z</time>
      </trkpt>
      <trkpt lat="48.27293" lon="2.64259">
        <ele>72.599998474121</ele>
        <time>2014-02-02T10:56:55Z</time>
      </trkpt>
      <trkpt lat="48.27296" lon="2.64214">
        <ele>72.599998474121</ele>
        <time>2014-02-02T10:57:03Z</time>
      </trkpt>
      <trkpt lat="48.27296" lon="2.64174">
        <ele>72.599998474121</ele>
        <time>2014-02-02T10:57:10Z</time>
      </trkpt>
      <trkpt lat="48.27299" lon="2.64141">
        <ele>72.599998474121</ele>
        <time>2014-02-02T10:57:16Z</time>
      </trkpt>
      <trkpt lat="48.27301" lon="2.64118">
        <ele>72.599998474121</ele>
        <time>2014-02-02T10:57:21Z</time>
      </trkpt>
      <trkpt lat="48.27304" lon="2.64095">
        <ele>72.599998474121</ele>
        <time>2014-02-02T10:57:27Z</time>
      </trkpt>
      <trkpt lat="48.27311" lon="2.64069">
        <ele>72.599998474121</ele>
        <time>2014-02-02T10:57:32Z</time>
      </trkpt>
      <trkpt lat="48.27314" lon="2.64041">
        <ele>72.599998474121</ele>
        <time>2014-02-02T10:57:37Z</time>
      </trkpt>
      <trkpt lat="48.27319" lon="2.63987">
        <ele>72.599998474121</ele>
        <time>2014-02-02T10:57:45Z</time>
      </trkpt>
      <trkpt lat="48.27325" lon="2.63928">
        <ele>72.599998474121</ele>
        <time>2014-02-02T10:57:54Z</time>
      </trkpt>
      <trkpt lat="48.27326" lon="2.63922">
        <ele>72.599998474121</ele>
        <time>2014-02-02T10:57:55Z</time>
      </trkpt>
      <trkpt lat="48.27335" lon="2.63892">
        <ele>72.599998474121</ele>
        <time>2014-02-02T10:58:00Z</time>
      </trkpt>
      <trkpt lat="48.27343" lon="2.63851">
        <ele>72.599998474121</ele>
        <time>2014-02-02T10:58:07Z</time>
      </trkpt>
      <trkpt lat="48.27348" lon="2.63821">
        <ele>72.599998474121</ele>
        <time>2014-02-02T10:58:12Z</time>
      </trkpt>
      <trkpt lat="48.27351" lon="2.63818">
        <ele>72.599998474121</ele>
        <time>2014-02-02T10:58:13Z</time>
      </trkpt>
      <trkpt lat="48.27364" lon="2.63817">
        <ele>72.599998474121</ele>
        <time>2014-02-02T10:58:16Z</time>
      </trkpt>
      <trkpt lat="48.27368" lon="2.63818">
        <ele>72.599998474121</ele>
        <time>2014-02-02T10:58:17Z</time>
      </trkpt>
      <trkpt lat="48.27388" lon="2.63826">
        <ele>72.599998474121</ele>
        <time>2014-02-02T10:58:22Z</time>
      </trkpt>
      <trkpt lat="48.27423" lon="2.63837">
        <ele>72.599998474121</ele>
        <time>2014-02-02T10:58:31Z</time>
      </trkpt>
      <trkpt lat="48.27455" lon="2.63843">
        <ele>72.599998474121</ele>
        <time>2014-02-02T10:58:39Z</time>
      </trkpt>
      <trkpt lat="48.27492" lon="2.63854">
        <ele>72.599998474121</ele>
        <time>2014-02-02T10:58:48Z</time>
      </trkpt>
      <trkpt lat="48.27512" lon="2.63862">
        <ele>72.599998474121</ele>
        <time>2014-02-02T10:58:53Z</time>
      </trkpt>
      <trkpt lat="48.27518" lon="2.63868">
        <ele>72.599998474121</ele>
        <time>2014-02-02T10:58:55Z</time>
      </trkpt>
      <trkpt lat="48.27547" lon="2.63884">
        <ele>72.599998474121</ele>
        <time>2014-02-02T10:59:03Z</time>
      </trkpt>
      <trkpt lat="48.2757" lon="2.63899">
        <ele>72.599998474121</ele>
        <time>2014-02-02T10:59:09Z</time>
      </trkpt>
      <trkpt lat="48.27585" lon="2.63902">
        <ele>72.599998474121</ele>
        <time>2014-02-02T10:59:14Z</time>
      </trkpt>
      <trkpt lat="48.27591" lon="2.63904">
        <ele>72.599998474121</ele>
        <time>2014-02-02T10:59:19Z</time>
      </trkpt>
      <trkpt lat="48.27603" lon="2.63901">
        <ele>72.599998474121</ele>
        <time>2014-02-02T10:59:23Z</time>
      </trkpt>
      <trkpt lat="48.27628" lon="2.63913">
        <ele>72.599998474121</ele>
        <time>2014-02-02T10:59:30Z</time>
      </trkpt>
      <trkpt lat="48.27647" lon="2.63917">
        <ele>72.599998474121</ele>
        <time>2014-02-02T10:59:35Z</time>
      </trkpt>
      <trkpt lat="48.27663" lon="2.63926">
        <ele>72.599998474121</ele>
        <time>2014-02-02T10:59:40Z</time>
      </trkpt>
      <trkpt lat="48.27683" lon="2.6393">
        <ele>72.599998474121</ele>
        <time>2014-02-02T10:59:46Z</time>
      </trkpt>
      <trkpt lat="48.27705" lon="2.63938">
        <ele>72.599998474121</ele>
        <time>2014-02-02T10:59:54Z</time>
      </trkpt>
      <trkpt lat="48.27724" lon="2.63948">
        <ele>72.599998474121</ele>
        <time>2014-02-02T11:00:01Z</time>
      </trkpt>
      <trkpt lat="48.27729" lon="2.63949">
        <ele>72.599998474121</ele>
        <time>2014-02-02T11:00:03Z</time>
      </trkpt>
      <trkpt lat="48.27734" lon="2.63948">
        <ele>72.599998474121</ele>
        <time>2014-02-02T11:00:05Z</time>
      </trkpt>
      <trkpt lat="48.27747" lon="2.63951">
        <ele>72.599998474121</ele>
        <time>2014-02-02T11:00:11Z</time>
      </trkpt>
      <trkpt lat="48.27762" lon="2.63954">
        <ele>72.599998474121</ele>
        <time>2014-02-02T11:00:17Z</time>
      </trkpt>
      <trkpt lat="48.27784" lon="2.63959">
        <ele>72.599998474121</ele>
        <time>2014-02-02T11:00:25Z</time>
      </trkpt>
      <trkpt lat="48.27794" lon="2.63961">
        <ele>72.599998474121</ele>
        <time>2014-02-02T11:00:30Z</time>
      </trkpt>
      <trkpt lat="48.27797" lon="2.6396">
        <ele>72.599998474121</ele>
        <time>2014-02-02T11:00:31Z</time>
      </trkpt>
      <trkpt lat="48.27811" lon="2.63961">
        <ele>72.599998474121</ele>
        <time>2014-02-02T11:00:34Z</time>
      </trkpt>
      <trkpt lat="48.27822" lon="2.63963">
        <ele>71.800003051758</ele>
        <time>2014-02-02T11:00:37Z</time>
      </trkpt>
      <trkpt lat="48.27825" lon="2.63964">
        <ele>71.400001525879</ele>
        <time>2014-02-02T11:00:38Z</time>
      </trkpt>
      <trkpt lat="48.27828" lon="2.63965">
        <ele>71</ele>
        <time>2014-02-02T11:00:39Z</time>
      </trkpt>
      <trkpt lat="48.27831" lon="2.63965">
        <ele>70.599998474121</ele>
        <time>2014-02-02T11:00:40Z</time>
      </trkpt>
      <trkpt lat="48.27836" lon="2.63966">
        <ele>70.599998474121</ele>
        <time>2014-02-02T11:00:42Z</time>
      </trkpt>
      <trkpt lat="48.27848" lon="2.63969">
        <ele>70.599998474121</ele>
        <time>2014-02-02T11:00:48Z</time>
      </trkpt>
      <trkpt lat="48.27863" lon="2.63974">
        <ele>70.599998474121</ele>
        <time>2014-02-02T11:00:54Z</time>
      </trkpt>
      <trkpt lat="48.2788" lon="2.63979">
        <ele>70.599998474121</ele>
        <time>2014-02-02T11:01:00Z</time>
      </trkpt>
      <trkpt lat="48.27887" lon="2.63978">
        <ele>70.599998474121</ele>
        <time>2014-02-02T11:01:03Z</time>
      </trkpt>
      <trkpt lat="48.27895" lon="2.63983">
        <ele>70.599998474121</ele>
        <time>2014-02-02T11:01:05Z</time>
      </trkpt>
      <trkpt lat="48.27902" lon="2.63988">
        <ele>70.599998474121</ele>
        <time>2014-02-02T11:01:07Z</time>
      </trkpt>
      <trkpt lat="48.2791" lon="2.63995">
        <ele>70.599998474121</ele>
        <time>2014-02-02T11:01:10Z</time>
      </trkpt>
      <trkpt lat="48.27918" lon="2.64004">
        <ele>70.599998474121</ele>
        <time>2014-02-02T11:01:15Z</time>
      </trkpt>
      <trkpt lat="48.2793" lon="2.64012">
        <ele>70.599998474121</ele>
        <time>2014-02-02T11:01:21Z</time>
      </trkpt>
      <trkpt lat="48.27943" lon="2.64021">
        <ele>70.599998474121</ele>
        <time>2014-02-02T11:01:28Z</time>
      </trkpt>
      <trkpt lat="48.2795" lon="2.64023">
        <ele>70.599998474121</ele>
        <time>2014-02-02T11:01:31Z</time>
      </trkpt>
      <trkpt lat="48.27954" lon="2.64025">
        <ele>70.599998474121</ele>
        <time>2014-02-02T11:01:33Z</time>
      </trkpt>
      <trkpt lat="48.27974" lon="2.6404">
        <ele>70.599998474121</ele>
        <time>2014-02-02T11:01:39Z</time>
      </trkpt>
      <trkpt lat="48.27996" lon="2.6406">
        <ele>70.599998474121</ele>
        <time>2014-02-02T11:01:49Z</time>
      </trkpt>
      <trkpt lat="48.28012" lon="2.64074">
        <ele>70.599998474121</ele>
        <time>2014-02-02T11:01:56Z</time>
      </trkpt>
      <trkpt lat="48.28026" lon="2.64088">
        <ele>70.599998474121</ele>
        <time>2014-02-02T11:02:02Z</time>
      </trkpt>
      <trkpt lat="48.2804" lon="2.64107">
        <ele>70.599998474121</ele>
        <time>2014-02-02T11:02:09Z</time>
      </trkpt>
      <trkpt lat="48.28055" lon="2.64124">
        <ele>70.599998474121</ele>
        <time>2014-02-02T11:02:16Z</time>
      </trkpt>
      <trkpt lat="48.28071" lon="2.64143">
        <ele>70.599998474121</ele>
        <time>2014-02-02T11:02:23Z</time>
      </trkpt>
      <trkpt lat="48.2808" lon="2.64151">
        <ele>70.599998474121</ele>
        <time>2014-02-02T11:02:27Z</time>
      </trkpt>
      <trkpt lat="48.28082" lon="2.6415">
        <ele>70.599998474121</ele>
        <time>2014-02-02T11:02:28Z</time>
      </trkpt>
      <trkpt lat="48.28093" lon="2.64138">
        <ele>70.599998474121</ele>
        <time>2014-02-02T11:02:33Z</time>
      </trkpt>
      <trkpt lat="48.281" lon="2.64127">
        <ele>70.599998474121</ele>
        <time>2014-02-02T11:02:37Z</time>
      </trkpt>
      <trkpt lat="48.28105" lon="2.6412">
        <ele>70.599998474121</ele>
        <time>2014-02-02T11:02:39Z</time>
      </trkpt>
      <trkpt lat="48.28119" lon="2.641">
        <ele>70.599998474121</ele>
        <time>2014-02-02T11:02:46Z</time>
      </trkpt>
      <trkpt lat="48.28132" lon="2.64081">
        <ele>71</ele>
        <time>2014-02-02T11:02:52Z</time>
      </trkpt>
      <trkpt lat="48.28135" lon="2.64078">
        <ele>71.400001525879</ele>
        <time>2014-02-02T11:02:53Z</time>
      </trkpt>
      <trkpt lat="48.28137" lon="2.64075">
        <ele>71.800003051758</ele>
        <time>2014-02-02T11:02:54Z</time>
      </trkpt>
      <trkpt lat="48.28139" lon="2.64072">
        <ele>72.199996948242</ele>
        <time>2014-02-02T11:02:55Z</time>
      </trkpt>
      <trkpt lat="48.28141" lon="2.64069">
        <ele>72.599998474121</ele>
        <time>2014-02-02T11:02:56Z</time>
      </trkpt>
      <trkpt lat="48.28152" lon="2.64047">
        <ele>72.599998474121</ele>
        <time>2014-02-02T11:03:02Z</time>
      </trkpt>
      <trkpt lat="48.28164" lon="2.6403">
        <ele>72.599998474121</ele>
        <time>2014-02-02T11:03:07Z</time>
      </trkpt>
      <trkpt lat="48.28176" lon="2.6401">
        <ele>72.599998474121</ele>
        <time>2014-02-02T11:03:13Z</time>
      </trkpt>
      <trkpt lat="48.28186" lon="2.63997">
        <ele>72.599998474121</ele>
        <time>2014-02-02T11:03:20Z</time>
      </trkpt>
      <trkpt lat="48.28194" lon="2.63982">
        <ele>72.599998474121</ele>
        <time>2014-02-02T11:03:27Z</time>
      </trkpt>
      <trkpt lat="48.28204" lon="2.63964">
        <ele>72.599998474121</ele>
        <time>2014-02-02T11:03:33Z</time>
      </trkpt>
      <trkpt lat="48.28217" lon="2.63941">
        <ele>72.599998474121</ele>
        <time>2014-02-02T11:03:40Z</time>
      </trkpt>
      <trkpt lat="48.28229" lon="2.63917">
        <ele>72.599998474121</ele>
        <time>2014-02-02T11:03:46Z</time>
      </trkpt>
      <trkpt lat="48.2823" lon="2.63914">
        <ele>72.599998474121</ele>
        <time>2014-02-02T11:03:47Z</time>
      </trkpt>
      <trkpt lat="48.28243" lon="2.63893">
        <ele>72.599998474121</ele>
        <time>2014-02-02T11:03:53Z</time>
      </trkpt>
      <trkpt lat="48.2826" lon="2.63865">
        <ele>72.599998474121</ele>
        <time>2014-02-02T11:04:01Z</time>
      </trkpt>
      <trkpt lat="48.28273" lon="2.63849">
        <ele>72.599998474121</ele>
        <time>2014-02-02T11:04:06Z</time>
      </trkpt>
      <trkpt lat="48.2829" lon="2.6382">
        <ele>72.599998474121</ele>
        <time>2014-02-02T11:04:13Z</time>
      </trkpt>
      <trkpt lat="48.28307" lon="2.63795">
        <ele>72.599998474121</ele>
        <time>2014-02-02T11:04:20Z</time>
      </trkpt>
      <trkpt lat="48.28321" lon="2.63785">
        <ele>72.599998474121</ele>
        <time>2014-02-02T11:04:26Z</time>
      </trkpt>
      <trkpt lat="48.28337" lon="2.63776">
        <ele>72.599998474121</ele>
        <time>2014-02-02T11:04:32Z</time>
      </trkpt>
      <trkpt lat="48.28352" lon="2.6377">
        <ele>72.599998474121</ele>
        <time>2014-02-02T11:04:37Z</time>
      </trkpt>
      <trkpt lat="48.2836" lon="2.63766">
        <ele>72.599998474121</ele>
        <time>2014-02-02T11:04:40Z</time>
      </trkpt>
      <trkpt lat="48.28365" lon="2.63764">
        <ele>72.599998474121</ele>
        <time>2014-02-02T11:04:41Z</time>
      </trkpt>
      <trkpt lat="48.28385" lon="2.63757">
        <ele>72.599998474121</ele>
        <time>2014-02-02T11:04:47Z</time>
      </trkpt>
      <trkpt lat="48.28404" lon="2.63749">
        <ele>72.599998474121</ele>
        <time>2014-02-02T11:04:54Z</time>
      </trkpt>
      <trkpt lat="48.28416" lon="2.63743">
        <ele>72.599998474121</ele>
        <time>2014-02-02T11:04:59Z</time>
      </trkpt>
      <trkpt lat="48.28421" lon="2.63755">
        <ele>72.599998474121</ele>
        <time>2014-02-02T11:05:04Z</time>
      </trkpt>
      <trkpt lat="48.28424" lon="2.63779">
        <ele>72.599998474121</ele>
        <time>2014-02-02T11:05:10Z</time>
      </trkpt>
      <trkpt lat="48.28431" lon="2.63808">
        <ele>72.599998474121</ele>
        <time>2014-02-02T11:05:16Z</time>
      </trkpt>
      <trkpt lat="48.28437" lon="2.63829">
        <ele>72.599998474121</ele>
        <time>2014-02-02T11:05:21Z</time>
      </trkpt>
      <trkpt lat="48.28442" lon="2.63849">
        <ele>72.599998474121</ele>
        <time>2014-02-02T11:05:27Z</time>
      </trkpt>
      <trkpt lat="48.28445" lon="2.63882">
        <ele>72.599998474121</ele>
        <time>2014-02-02T11:05:35Z</time>
      </trkpt>
      <trkpt lat="48.28459" lon="2.63922">
        <ele>72.599998474121</ele>
        <time>2014-02-02T11:05:44Z</time>
      </trkpt>
      <trkpt lat="48.28466" lon="2.63949">
        <ele>72.599998474121</ele>
        <time>2014-02-02T11:05:51Z</time>
      </trkpt>
      <trkpt lat="48.28466" lon="2.63953">
        <ele>73.199996948242</ele>
        <time>2014-02-02T11:05:52Z</time>
      </trkpt>
      <trkpt lat="48.28467" lon="2.63958">
        <ele>73.599998474121</ele>
        <time>2014-02-02T11:05:53Z</time>
      </trkpt>
      <trkpt lat="48.28468" lon="2.63961">
        <ele>74</ele>
        <time>2014-02-02T11:05:54Z</time>
      </trkpt>
      <trkpt lat="48.28469" lon="2.63965">
        <ele>74.599998474121</ele>
        <time>2014-02-02T11:05:55Z</time>
      </trkpt>
      <trkpt lat="48.28469" lon="2.63969">
        <ele>75</ele>
        <time>2014-02-02T11:05:56Z</time>
      </trkpt>
      <trkpt lat="48.28469" lon="2.63977">
        <ele>75</ele>
        <time>2014-02-02T11:05:58Z</time>
      </trkpt>
      <trkpt lat="48.28476" lon="2.64012">
        <ele>75</ele>
        <time>2014-02-02T11:06:06Z</time>
      </trkpt>
      <trkpt lat="48.28482" lon="2.64035">
        <ele>75</ele>
        <time>2014-02-02T11:06:13Z</time>
      </trkpt>
      <trkpt lat="48.2849" lon="2.6407">
        <ele>75</ele>
        <time>2014-02-02T11:06:19Z</time>
      </trkpt>
      <trkpt lat="48.28495" lon="2.64091">
        <ele>75</ele>
        <time>2014-02-02T11:06:25Z</time>
      </trkpt>
      <trkpt lat="48.28497" lon="2.64115">
        <ele>75</ele>
        <time>2014-02-02T11:06:31Z</time>
      </trkpt>
      <trkpt lat="48.28498" lon="2.64138">
        <ele>75</ele>
        <time>2014-02-02T11:06:37Z</time>
      </trkpt>
      <trkpt lat="48.285" lon="2.6417">
        <ele>75</ele>
        <time>2014-02-02T11:06:44Z</time>
      </trkpt>
      <trkpt lat="48.28506" lon="2.64205">
        <ele>75</ele>
        <time>2014-02-02T11:06:50Z</time>
      </trkpt>
      <trkpt lat="48.28518" lon="2.64214">
        <ele>75</ele>
        <time>2014-02-02T11:06:53Z</time>
      </trkpt>
      <trkpt lat="48.28522" lon="2.64215">
        <ele>75</ele>
        <time>2014-02-02T11:06:54Z</time>
      </trkpt>
      <trkpt lat="48.28548" lon="2.6421">
        <ele>75</ele>
        <time>2014-02-02T11:07:01Z</time>
      </trkpt>
      <trkpt lat="48.28578" lon="2.64205">
        <ele>75</ele>
        <time>2014-02-02T11:07:09Z</time>
      </trkpt>
      <trkpt lat="48.28596" lon="2.64201">
        <ele>75</ele>
        <time>2014-02-02T11:07:14Z</time>
      </trkpt>
      <trkpt lat="48.28621" lon="2.64196">
        <ele>75</ele>
        <time>2014-02-02T11:07:20Z</time>
      </trkpt>
      <trkpt lat="48.28638" lon="2.64189">
        <ele>75</ele>
        <time>2014-02-02T11:07:26Z</time>
      </trkpt>
      <trkpt lat="48.28654" lon="2.64179">
        <ele>75</ele>
        <time>2014-02-02T11:07:31Z</time>
      </trkpt>
      <trkpt lat="48.28657" lon="2.64177">
        <ele>74.599998474121</ele>
        <time>2014-02-02T11:07:32Z</time>
      </trkpt>
      <trkpt lat="48.2866" lon="2.64175">
        <ele>74.199996948242</ele>
        <time>2014-02-02T11:07:33Z</time>
      </trkpt>
      <trkpt lat="48.28663" lon="2.64173">
        <ele>73.800003051758</ele>
        <time>2014-02-02T11:07:34Z</time>
      </trkpt>
      <trkpt lat="48.28666" lon="2.6417">
        <ele>73.400001525879</ele>
        <time>2014-02-02T11:07:35Z</time>
      </trkpt>
      <trkpt lat="48.28669" lon="2.64167">
        <ele>72.800003051758</ele>
        <time>2014-02-02T11:07:36Z</time>
      </trkpt>
      <trkpt lat="48.28682" lon="2.64153">
        <ele>72.800003051758</ele>
        <time>2014-02-02T11:07:40Z</time>
      </trkpt>
      <trkpt lat="48.28687" lon="2.64149">
        <ele>72.800003051758</ele>
        <time>2014-02-02T11:07:41Z</time>
      </trkpt>
      <trkpt lat="48.28701" lon="2.64135">
        <ele>72.800003051758</ele>
        <time>2014-02-02T11:07:45Z</time>
      </trkpt>
      <trkpt lat="48.28722" lon="2.64115">
        <ele>72.800003051758</ele>
        <time>2014-02-02T11:07:50Z</time>
      </trkpt>
      <trkpt lat="48.28745" lon="2.64092">
        <ele>72.800003051758</ele>
        <time>2014-02-02T11:07:56Z</time>
      </trkpt>
      <trkpt lat="48.28762" lon="2.64073">
        <ele>72.800003051758</ele>
        <time>2014-02-02T11:08:01Z</time>
      </trkpt>
      <trkpt lat="48.2878" lon="2.64052">
        <ele>72.800003051758</ele>
        <time>2014-02-02T11:08:06Z</time>
      </trkpt>
      <trkpt lat="48.28799" lon="2.64029">
        <ele>72.800003051758</ele>
        <time>2014-02-02T11:08:12Z</time>
      </trkpt>
      <trkpt lat="48.2882" lon="2.64004">
        <ele>72.800003051758</ele>
        <time>2014-02-02T11:08:19Z</time>
      </trkpt>
      <trkpt lat="48.28839" lon="2.63979">
        <ele>72.800003051758</ele>
        <time>2014-02-02T11:08:25Z</time>
      </trkpt>
      <trkpt lat="48.28862" lon="2.63953">
        <ele>72.800003051758</ele>
        <time>2014-02-02T11:08:34Z</time>
      </trkpt>
      <trkpt lat="48.28883" lon="2.63931">
        <ele>72.800003051758</ele>
        <time>2014-02-02T11:08:41Z</time>
      </trkpt>
      <trkpt lat="48.28897" lon="2.63919">
        <ele>72.800003051758</ele>
        <time>2014-02-02T11:08:46Z</time>
      </trkpt>
      <trkpt lat="48.28898" lon="2.63921">
        <ele>72.800003051758</ele>
        <time>2014-02-02T11:08:47Z</time>
      </trkpt>
      <trkpt lat="48.28901" lon="2.63927">
        <ele>72.800003051758</ele>
        <time>2014-02-02T11:08:50Z</time>
      </trkpt>
      <trkpt lat="48.28902" lon="2.63928">
        <ele>72.800003051758</ele>
        <time>2014-02-02T11:08:51Z</time>
      </trkpt>
      <trkpt lat="48.28905" lon="2.63944">
        <ele>72.800003051758</ele>
        <time>2014-02-02T11:08:56Z</time>
      </trkpt>
      <trkpt lat="48.28906" lon="2.63967">
        <ele>72.800003051758</ele>
        <time>2014-02-02T11:09:02Z</time>
      </trkpt>
      <trkpt lat="48.28908" lon="2.6399">
        <ele>72.800003051758</ele>
        <time>2014-02-02T11:09:07Z</time>
      </trkpt>
      <trkpt lat="48.28912" lon="2.64017">
        <ele>72.800003051758</ele>
        <time>2014-02-02T11:09:13Z</time>
      </trkpt>
      <trkpt lat="48.28914" lon="2.64053">
        <ele>73.199996948242</ele>
        <time>2014-02-02T11:09:20Z</time>
      </trkpt>
      <trkpt lat="48.28914" lon="2.64059">
        <ele>73.800003051758</ele>
        <time>2014-02-02T11:09:21Z</time>
      </trkpt>
      <trkpt lat="48.28914" lon="2.64064">
        <ele>74.199996948242</ele>
        <time>2014-02-02T11:09:22Z</time>
      </trkpt>
      <trkpt lat="48.28914" lon="2.6407">
        <ele>74.599998474121</ele>
        <time>2014-02-02T11:09:23Z</time>
      </trkpt>
      <trkpt lat="48.28915" lon="2.64074">
        <ele>75</ele>
        <time>2014-02-02T11:09:24Z</time>
      </trkpt>
      <trkpt lat="48.28919" lon="2.64087">
        <ele>75</ele>
        <time>2014-02-02T11:09:27Z</time>
      </trkpt>
      <trkpt lat="48.28922" lon="2.64116">
        <ele>75</ele>
        <time>2014-02-02T11:09:33Z</time>
      </trkpt>
      <trkpt lat="48.28922" lon="2.64149">
        <ele>75</ele>
        <time>2014-02-02T11:09:40Z</time>
      </trkpt>
      <trkpt lat="48.28923" lon="2.64181">
        <ele>75</ele>
        <time>2014-02-02T11:09:47Z</time>
      </trkpt>
      <trkpt lat="48.28929" lon="2.64207">
        <ele>75</ele>
        <time>2014-02-02T11:09:53Z</time>
      </trkpt>
      <trkpt lat="48.28934" lon="2.64239">
        <ele>75</ele>
        <time>2014-02-02T11:10:00Z</time>
      </trkpt>
      <trkpt lat="48.28938" lon="2.64261">
        <ele>75</ele>
        <time>2014-02-02T11:10:07Z</time>
      </trkpt>
      <trkpt lat="48.28951" lon="2.64258">
        <ele>75</ele>
        <time>2014-02-02T11:10:13Z</time>
      </trkpt>
      <trkpt lat="48.28967" lon="2.64256">
        <ele>75</ele>
        <time>2014-02-02T11:10:19Z</time>
      </trkpt>
      <trkpt lat="48.28992" lon="2.64255">
        <ele>75</ele>
        <time>2014-02-02T11:10:26Z</time>
      </trkpt>
      <trkpt lat="48.29009" lon="2.64253">
        <ele>75</ele>
        <time>2014-02-02T11:10:31Z</time>
      </trkpt>
      <trkpt lat="48.29026" lon="2.64249">
        <ele>75</ele>
        <time>2014-02-02T11:10:37Z</time>
      </trkpt>
      <trkpt lat="48.29041" lon="2.64244">
        <ele>75</ele>
        <time>2014-02-02T11:10:42Z</time>
      </trkpt>
      <trkpt lat="48.29059" lon="2.6424">
        <ele>75</ele>
        <time>2014-02-02T11:10:48Z</time>
      </trkpt>
      <trkpt lat="48.29077" lon="2.64235">
        <ele>75</ele>
        <time>2014-02-02T11:10:53Z</time>
      </trkpt>
      <trkpt lat="48.29093" lon="2.64232">
        <ele>75</ele>
        <time>2014-02-02T11:10:58Z</time>
      </trkpt>
      <trkpt lat="48.29108" lon="2.64226">
        <ele>75</ele>
        <time>2014-02-02T11:11:03Z</time>
      </trkpt>
      <trkpt lat="48.29117" lon="2.64235">
        <ele>75</ele>
        <time>2014-02-02T11:11:07Z</time>
      </trkpt>
      <trkpt lat="48.29123" lon="2.64249">
        <ele>75</ele>
        <time>2014-02-02T11:11:12Z</time>
      </trkpt>
      <trkpt lat="48.29129" lon="2.64268">
        <ele>75</ele>
        <time>2014-02-02T11:11:18Z</time>
      </trkpt>
      <trkpt lat="48.29146" lon="2.64292">
        <ele>75</ele>
        <time>2014-02-02T11:11:24Z</time>
      </trkpt>
      <trkpt lat="48.29169" lon="2.64317">
        <ele>75</ele>
        <time>2014-02-02T11:11:30Z</time>
      </trkpt>
      <trkpt lat="48.29193" lon="2.64344">
        <ele>75</ele>
        <time>2014-02-02T11:11:37Z</time>
      </trkpt>
      <trkpt lat="48.29208" lon="2.64367">
        <ele>75</ele>
        <time>2014-02-02T11:11:43Z</time>
      </trkpt>
      <trkpt lat="48.29221" lon="2.64388">
        <ele>75</ele>
        <time>2014-02-02T11:11:49Z</time>
      </trkpt>
      <trkpt lat="48.29239" lon="2.64414">
        <ele>75</ele>
        <time>2014-02-02T11:11:56Z</time>
      </trkpt>
      <trkpt lat="48.29253" lon="2.64442">
        <ele>75</ele>
        <time>2014-02-02T11:12:02Z</time>
      </trkpt>
      <trkpt lat="48.29274" lon="2.64465">
        <ele>75</ele>
        <time>2014-02-02T11:12:08Z</time>
      </trkpt>
      <trkpt lat="48.29288" lon="2.64493">
        <ele>75</ele>
        <time>2014-02-02T11:12:14Z</time>
      </trkpt>
      <trkpt lat="48.29303" lon="2.64517">
        <ele>75</ele>
        <time>2014-02-02T11:12:20Z</time>
      </trkpt>
      <trkpt lat="48.29321" lon="2.64539">
        <ele>75</ele>
        <time>2014-02-02T11:12:26Z</time>
      </trkpt>
      <trkpt lat="48.29339" lon="2.64562">
        <ele>75</ele>
        <time>2014-02-02T11:12:32Z</time>
      </trkpt>
      <trkpt lat="48.29353" lon="2.64582">
        <ele>75</ele>
        <time>2014-02-02T11:12:38Z</time>
      </trkpt>
      <trkpt lat="48.29362" lon="2.6461">
        <ele>75</ele>
        <time>2014-02-02T11:12:46Z</time>
      </trkpt>
      <trkpt lat="48.29358" lon="2.64625">
        <ele>75</ele>
        <time>2014-02-02T11:12:51Z</time>
      </trkpt>
      <trkpt lat="48.29354" lon="2.64646">
        <ele>75</ele>
        <time>2014-02-02T11:12:57Z</time>
      </trkpt>
      <trkpt lat="48.29342" lon="2.6467">
        <ele>75</ele>
        <time>2014-02-02T11:13:04Z</time>
      </trkpt>
      <trkpt lat="48.29328" lon="2.64691">
        <ele>75</ele>
        <time>2014-02-02T11:13:10Z</time>
      </trkpt>
      <trkpt lat="48.29311" lon="2.64717">
        <ele>75</ele>
        <time>2014-02-02T11:13:17Z</time>
      </trkpt>
      <trkpt lat="48.29304" lon="2.64738">
        <ele>75</ele>
        <time>2014-02-02T11:13:23Z</time>
      </trkpt>
      <trkpt lat="48.29311" lon="2.64751">
        <ele>75</ele>
        <time>2014-02-02T11:13:28Z</time>
      </trkpt>
      <trkpt lat="48.29316" lon="2.64756">
        <ele>75</ele>
        <time>2014-02-02T11:13:30Z</time>
      </trkpt>
      <trkpt lat="48.29318" lon="2.64763">
        <ele>75</ele>
        <time>2014-02-02T11:13:32Z</time>
      </trkpt>
      <trkpt lat="48.29327" lon="2.64767">
        <ele>75</ele>
        <time>2014-02-02T11:13:36Z</time>
      </trkpt>
      <trkpt lat="48.29342" lon="2.64779">
        <ele>75</ele>
        <time>2014-02-02T11:13:43Z</time>
      </trkpt>
      <trkpt lat="48.29355" lon="2.64793">
        <ele>75</ele>
        <time>2014-02-02T11:13:49Z</time>
      </trkpt>
      <trkpt lat="48.29356" lon="2.64796">
        <ele>75</ele>
        <time>2014-02-02T11:13:50Z</time>
      </trkpt>
      <trkpt lat="48.2936" lon="2.64805">
        <ele>75</ele>
        <time>2014-02-02T11:13:53Z</time>
      </trkpt>
      <trkpt lat="48.29365" lon="2.64807">
        <ele>75</ele>
        <time>2014-02-02T11:13:56Z</time>
      </trkpt>
      <trkpt lat="48.29368" lon="2.64807">
        <ele>75</ele>
        <time>2014-02-02T11:13:57Z</time>
      </trkpt>
      <trkpt lat="48.29394" lon="2.64829">
        <ele>75</ele>
        <time>2014-02-02T11:14:05Z</time>
      </trkpt>
      <trkpt lat="48.29397" lon="2.64836">
        <ele>75</ele>
        <time>2014-02-02T11:14:07Z</time>
      </trkpt>
      <trkpt lat="48.294" lon="2.64844">
        <ele>75</ele>
        <time>2014-02-02T11:14:09Z</time>
      </trkpt>
      <trkpt lat="48.29412" lon="2.64861">
        <ele>75</ele>
        <time>2014-02-02T11:14:15Z</time>
      </trkpt>
      <trkpt lat="48.29422" lon="2.64881">
        <ele>75</ele>
        <time>2014-02-02T11:14:22Z</time>
      </trkpt>
      <trkpt lat="48.29436" lon="2.64909">
        <ele>75</ele>
        <time>2014-02-02T11:14:30Z</time>
      </trkpt>
      <trkpt lat="48.29442" lon="2.64937">
        <ele>75</ele>
        <time>2014-02-02T11:14:36Z</time>
      </trkpt>
      <trkpt lat="48.29449" lon="2.64948">
        <ele>75</ele>
        <time>2014-02-02T11:14:41Z</time>
      </trkpt>
      <trkpt lat="48.29464" lon="2.6496">
        <ele>75</ele>
        <time>2014-02-02T11:14:48Z</time>
      </trkpt>
      <trkpt lat="48.29473" lon="2.64965">
        <ele>75</ele>
        <time>2014-02-02T11:14:52Z</time>
      </trkpt>
      <trkpt lat="48.29477" lon="2.64964">
        <ele>75</ele>
        <time>2014-02-02T11:14:54Z</time>
      </trkpt>
      <trkpt lat="48.29499" lon="2.64966">
        <ele>75</ele>
        <time>2014-02-02T11:15:03Z</time>
      </trkpt>
      <trkpt lat="48.29512" lon="2.64972">
        <ele>75</ele>
        <time>2014-02-02T11:15:09Z</time>
      </trkpt>
      <trkpt lat="48.29515" lon="2.64973">
        <ele>75</ele>
        <time>2014-02-02T11:15:10Z</time>
      </trkpt>
      <trkpt lat="48.2954" lon="2.64989">
        <ele>75</ele>
        <time>2014-02-02T11:15:20Z</time>
      </trkpt>
      <trkpt lat="48.29551" lon="2.65001">
        <ele>75</ele>
        <time>2014-02-02T11:15:26Z</time>
      </trkpt>
      <trkpt lat="48.2956" lon="2.6501">
        <ele>75</ele>
        <time>2014-02-02T11:15:31Z</time>
      </trkpt>
      <trkpt lat="48.29576" lon="2.65028">
        <ele>75</ele>
        <time>2014-02-02T11:15:37Z</time>
      </trkpt>
      <trkpt lat="48.29588" lon="2.65043">
        <ele>75</ele>
        <time>2014-02-02T11:15:43Z</time>
      </trkpt>
      <trkpt lat="48.29591" lon="2.65057">
        <ele>75</ele>
        <time>2014-02-02T11:15:48Z</time>
      </trkpt>
      <trkpt lat="48.29594" lon="2.65073">
        <ele>75</ele>
        <time>2014-02-02T11:15:54Z</time>
      </trkpt>
      <trkpt lat="48.2959" lon="2.65097">
        <ele>75</ele>
        <time>2014-02-02T11:15:59Z</time>
      </trkpt>
      <trkpt lat="48.29585" lon="2.65123">
        <ele>75</ele>
        <time>2014-02-02T11:16:05Z</time>
      </trkpt>
      <trkpt lat="48.29576" lon="2.65144">
        <ele>75</ele>
        <time>2014-02-02T11:16:11Z</time>
      </trkpt>
      <trkpt lat="48.29565" lon="2.65166">
        <ele>75</ele>
        <time>2014-02-02T11:16:18Z</time>
      </trkpt>
      <trkpt lat="48.29552" lon="2.65192">
        <ele>75</ele>
        <time>2014-02-02T11:16:26Z</time>
      </trkpt>
      <trkpt lat="48.29531" lon="2.65228">
        <ele>75</ele>
        <time>2014-02-02T11:16:34Z</time>
      </trkpt>
      <trkpt lat="48.29514" lon="2.65253">
        <ele>75</ele>
        <time>2014-02-02T11:16:41Z</time>
      </trkpt>
      <trkpt lat="48.29498" lon="2.65285">
        <ele>75</ele>
        <time>2014-02-02T11:16:51Z</time>
      </trkpt>
      <trkpt lat="48.29485" lon="2.65305">
        <ele>75</ele>
        <time>2014-02-02T11:16:58Z</time>
      </trkpt>
      <trkpt lat="48.29465" lon="2.65332">
        <ele>75</ele>
        <time>2014-02-02T11:17:05Z</time>
      </trkpt>
      <trkpt lat="48.29454" lon="2.65355">
        <ele>75</ele>
        <time>2014-02-02T11:17:11Z</time>
      </trkpt>
      <trkpt lat="48.29454" lon="2.6536">
        <ele>75</ele>
        <time>2014-02-02T11:17:12Z</time>
      </trkpt>
      <trkpt lat="48.29451" lon="2.65376">
        <ele>75.400001525879</ele>
        <time>2014-02-02T11:17:17Z</time>
      </trkpt>
      <trkpt lat="48.29451" lon="2.65378">
        <ele>76.199996948242</ele>
        <time>2014-02-02T11:17:18Z</time>
      </trkpt>
      <trkpt lat="48.29451" lon="2.65381">
        <ele>76.800003051758</ele>
        <time>2014-02-02T11:17:19Z</time>
      </trkpt>
      <trkpt lat="48.29452" lon="2.65384">
        <ele>76.800003051758</ele>
        <time>2014-02-02T11:17:20Z</time>
      </trkpt>
      <trkpt lat="48.29453" lon="2.65387">
        <ele>77.199996948242</ele>
        <time>2014-02-02T11:17:21Z</time>
      </trkpt>
      <trkpt lat="48.29454" lon="2.6539">
        <ele>77.199996948242</ele>
        <time>2014-02-02T11:17:22Z</time>
      </trkpt>
      <trkpt lat="48.29454" lon="2.65419">
        <ele>77.199996948242</ele>
        <time>2014-02-02T11:17:30Z</time>
      </trkpt>
      <trkpt lat="48.29453" lon="2.65447">
        <ele>77.199996948242</ele>
        <time>2014-02-02T11:17:36Z</time>
      </trkpt>
      <trkpt lat="48.29455" lon="2.65469">
        <ele>77.199996948242</ele>
        <time>2014-02-02T11:17:42Z</time>
      </trkpt>
      <trkpt lat="48.29459" lon="2.65478">
        <ele>77.199996948242</ele>
        <time>2014-02-02T11:17:47Z</time>
      </trkpt>
      <trkpt lat="48.29461" lon="2.65479">
        <ele>77.199996948242</ele>
        <time>2014-02-02T11:17:48Z</time>
      </trkpt>
      <trkpt lat="48.29469" lon="2.65484">
        <ele>77.199996948242</ele>
        <time>2014-02-02T11:17:54Z</time>
      </trkpt>
      <trkpt lat="48.2947" lon="2.65484">
        <ele>77.599998474121</ele>
        <time>2014-02-02T11:17:55Z</time>
      </trkpt>
      <trkpt lat="48.29471" lon="2.65484">
        <ele>78</ele>
        <time>2014-02-02T11:17:56Z</time>
      </trkpt>
      <trkpt lat="48.29472" lon="2.65483">
        <ele>78.400001525879</ele>
        <time>2014-02-02T11:17:57Z</time>
      </trkpt>
      <trkpt lat="48.29473" lon="2.65483">
        <ele>78.800003051758</ele>
        <time>2014-02-02T11:17:58Z</time>
      </trkpt>
      <trkpt lat="48.29475" lon="2.65484">
        <ele>79.199996948242</ele>
        <time>2014-02-02T11:17:59Z</time>
      </trkpt>
      <trkpt lat="48.29478" lon="2.65486">
        <ele>79.199996948242</ele>
        <time>2014-02-02T11:18:01Z</time>
      </trkpt>
      <trkpt lat="48.29485" lon="2.65492">
        <ele>79.199996948242</ele>
        <time>2014-02-02T11:18:06Z</time>
      </trkpt>
      <trkpt lat="48.295" lon="2.65496">
        <ele>79.199996948242</ele>
        <time>2014-02-02T11:18:13Z</time>
      </trkpt>
      <trkpt lat="48.29507" lon="2.65493">
        <ele>79.599998474121</ele>
        <time>2014-02-02T11:18:18Z</time>
      </trkpt>
      <trkpt lat="48.29509" lon="2.65492">
        <ele>80</ele>
        <time>2014-02-02T11:18:19Z</time>
      </trkpt>
      <trkpt lat="48.29512" lon="2.65491">
        <ele>80.400001525879</ele>
        <time>2014-02-02T11:18:20Z</time>
      </trkpt>
      <trkpt lat="48.29514" lon="2.65489">
        <ele>80.800003051758</ele>
        <time>2014-02-02T11:18:21Z</time>
      </trkpt>
      <trkpt lat="48.29515" lon="2.65488">
        <ele>81.199996948242</ele>
        <time>2014-02-02T11:18:22Z</time>
      </trkpt>
      <trkpt lat="48.29532" lon="2.65473">
        <ele>81.199996948242</ele>
        <time>2014-02-02T11:18:29Z</time>
      </trkpt>
      <trkpt lat="48.29547" lon="2.65456">
        <ele>81.199996948242</ele>
        <time>2014-02-02T11:18:37Z</time>
      </trkpt>
      <trkpt lat="48.29567" lon="2.65439">
        <ele>81.199996948242</ele>
        <time>2014-02-02T11:18:44Z</time>
      </trkpt>
      <trkpt lat="48.29579" lon="2.65416">
        <ele>81.199996948242</ele>
        <time>2014-02-02T11:18:50Z</time>
      </trkpt>
      <trkpt lat="48.29582" lon="2.65412">
        <ele>80.800003051758</ele>
        <time>2014-02-02T11:18:52Z</time>
      </trkpt>
      <trkpt lat="48.29584" lon="2.65411">
        <ele>80.400001525879</ele>
        <time>2014-02-02T11:18:53Z</time>
      </trkpt>
      <trkpt lat="48.29585" lon="2.65412">
        <ele>80</ele>
        <time>2014-02-02T11:18:54Z</time>
      </trkpt>
      <trkpt lat="48.29587" lon="2.65414">
        <ele>79.599998474121</ele>
        <time>2014-02-02T11:18:55Z</time>
      </trkpt>
      <trkpt lat="48.29589" lon="2.65416">
        <ele>79.199996948242</ele>
        <time>2014-02-02T11:18:56Z</time>
      </trkpt>
      <trkpt lat="48.29596" lon="2.65427">
        <ele>79.199996948242</ele>
        <time>2014-02-02T11:19:00Z</time>
      </trkpt>
      <trkpt lat="48.29598" lon="2.6543">
        <ele>79.199996948242</ele>
        <time>2014-02-02T11:19:01Z</time>
      </trkpt>
      <trkpt lat="48.296" lon="2.65434">
        <ele>79.199996948242</ele>
        <time>2014-02-02T11:19:02Z</time>
      </trkpt>
      <trkpt lat="48.29603" lon="2.6544">
        <ele>79.199996948242</ele>
        <time>2014-02-02T11:19:04Z</time>
      </trkpt>
      <trkpt lat="48.29615" lon="2.65456">
        <ele>79.199996948242</ele>
        <time>2014-02-02T11:19:10Z</time>
      </trkpt>
      <trkpt lat="48.29633" lon="2.6548">
        <ele>79.199996948242</ele>
        <time>2014-02-02T11:19:16Z</time>
      </trkpt>
      <trkpt lat="48.29647" lon="2.65504">
        <ele>79.199996948242</ele>
        <time>2014-02-02T11:19:23Z</time>
      </trkpt>
      <trkpt lat="48.29659" lon="2.65522">
        <ele>79.199996948242</ele>
        <time>2014-02-02T11:19:29Z</time>
      </trkpt>
      <trkpt lat="48.29668" lon="2.65545">
        <ele>79.199996948242</ele>
        <time>2014-02-02T11:19:36Z</time>
      </trkpt>
      <trkpt lat="48.29681" lon="2.65566">
        <ele>79.199996948242</ele>
        <time>2014-02-02T11:19:43Z</time>
      </trkpt>
      <trkpt lat="48.297" lon="2.65586">
        <ele>79.199996948242</ele>
        <time>2014-02-02T11:19:51Z</time>
      </trkpt>
      <trkpt lat="48.29721" lon="2.65583">
        <ele>79.199996948242</ele>
        <time>2014-02-02T11:19:57Z</time>
      </trkpt>
      <trkpt lat="48.29726" lon="2.65578">
        <ele>79.199996948242</ele>
        <time>2014-02-02T11:19:59Z</time>
      </trkpt>
      <trkpt lat="48.29728" lon="2.65571">
        <ele>79.199996948242</ele>
        <time>2014-02-02T11:20:01Z</time>
      </trkpt>
      <trkpt lat="48.29733" lon="2.65545">
        <ele>79.199996948242</ele>
        <time>2014-02-02T11:20:07Z</time>
      </trkpt>
      <trkpt lat="48.29738" lon="2.65539">
        <ele>79.199996948242</ele>
        <time>2014-02-02T11:20:10Z</time>
      </trkpt>
      <trkpt lat="48.2974" lon="2.65541">
        <ele>79.199996948242</ele>
        <time>2014-02-02T11:20:11Z</time>
      </trkpt>
      <trkpt lat="48.29745" lon="2.65542">
        <ele>79.199996948242</ele>
        <time>2014-02-02T11:20:13Z</time>
      </trkpt>
      <trkpt lat="48.29749" lon="2.65541">
        <ele>78.800003051758</ele>
        <time>2014-02-02T11:20:14Z</time>
      </trkpt>
      <trkpt lat="48.29753" lon="2.6554">
        <ele>78.199996948242</ele>
        <time>2014-02-02T11:20:15Z</time>
      </trkpt>
      <trkpt lat="48.29756" lon="2.65538">
        <ele>77.800003051758</ele>
        <time>2014-02-02T11:20:16Z</time>
      </trkpt>
      <trkpt lat="48.29758" lon="2.65535">
        <ele>77.400001525879</ele>
        <time>2014-02-02T11:20:17Z</time>
      </trkpt>
      <trkpt lat="48.2976" lon="2.65531">
        <ele>77</ele>
        <time>2014-02-02T11:20:18Z</time>
      </trkpt>
      <trkpt lat="48.29763" lon="2.65526">
        <ele>77</ele>
        <time>2014-02-02T11:20:20Z</time>
      </trkpt>
      <trkpt lat="48.29767" lon="2.65525">
        <ele>77</ele>
        <time>2014-02-02T11:20:22Z</time>
      </trkpt>
      <trkpt lat="48.2977" lon="2.65527">
        <ele>77</ele>
        <time>2014-02-02T11:20:24Z</time>
      </trkpt>
      <trkpt lat="48.29774" lon="2.65526">
        <ele>77</ele>
        <time>2014-02-02T11:20:26Z</time>
      </trkpt>
      <trkpt lat="48.2978" lon="2.65524">
        <ele>77</ele>
        <time>2014-02-02T11:20:28Z</time>
      </trkpt>
      <trkpt lat="48.29794" lon="2.65514">
        <ele>76.599998474121</ele>
        <time>2014-02-02T11:20:33Z</time>
      </trkpt>
      <trkpt lat="48.29797" lon="2.65512">
        <ele>76.199996948242</ele>
        <time>2014-02-02T11:20:34Z</time>
      </trkpt>
      <trkpt lat="48.298" lon="2.65511">
        <ele>75.599998474121</ele>
        <time>2014-02-02T11:20:35Z</time>
      </trkpt>
      <trkpt lat="48.29805" lon="2.65511">
        <ele>75.199996948242</ele>
        <time>2014-02-02T11:20:36Z</time>
      </trkpt>
      <trkpt lat="48.29808" lon="2.65511">
        <ele>74.800003051758</ele>
        <time>2014-02-02T11:20:37Z</time>
      </trkpt>
      <trkpt lat="48.29813" lon="2.6551">
        <ele>74.800003051758</ele>
        <time>2014-02-02T11:20:39Z</time>
      </trkpt>
      <trkpt lat="48.2982" lon="2.65497">
        <ele>74.800003051758</ele>
        <time>2014-02-02T11:20:43Z</time>
      </trkpt>
      <trkpt lat="48.29823" lon="2.65494">
        <ele>74.800003051758</ele>
        <time>2014-02-02T11:20:44Z</time>
      </trkpt>
      <trkpt lat="48.29829" lon="2.65492">
        <ele>74.800003051758</ele>
        <time>2014-02-02T11:20:46Z</time>
      </trkpt>
      <trkpt lat="48.29836" lon="2.65496">
        <ele>74.800003051758</ele>
        <time>2014-02-02T11:20:49Z</time>
      </trkpt>
      <trkpt lat="48.29846" lon="2.65501">
        <ele>74.800003051758</ele>
        <time>2014-02-02T11:20:54Z</time>
      </trkpt>
      <trkpt lat="48.29848" lon="2.65501">
        <ele>74.800003051758</ele>
        <time>2014-02-02T11:20:55Z</time>
      </trkpt>
      <trkpt lat="48.29852" lon="2.655">
        <ele>74.800003051758</ele>
        <time>2014-02-02T11:20:57Z</time>
      </trkpt>
      <trkpt lat="48.29861" lon="2.65499">
        <ele>74.800003051758</ele>
        <time>2014-02-02T11:21:01Z</time>
      </trkpt>
      <trkpt lat="48.29875" lon="2.65503">
        <ele>74.800003051758</ele>
        <time>2014-02-02T11:21:08Z</time>
      </trkpt>
      <trkpt lat="48.29881" lon="2.65516">
        <ele>74.400001525879</ele>
        <time>2014-02-02T11:21:13Z</time>
      </trkpt>
      <trkpt lat="48.29885" lon="2.65522">
        <ele>74</ele>
        <time>2014-02-02T11:21:14Z</time>
      </trkpt>
      <trkpt lat="48.29888" lon="2.65526">
        <ele>73.599998474121</ele>
        <time>2014-02-02T11:21:15Z</time>
      </trkpt>
      <trkpt lat="48.29891" lon="2.65529">
        <ele>73.199996948242</ele>
        <time>2014-02-02T11:21:16Z</time>
      </trkpt>
      <trkpt lat="48.29892" lon="2.6553">
        <ele>72.599998474121</ele>
        <time>2014-02-02T11:21:17Z</time>
      </trkpt>
      <trkpt lat="48.299" lon="2.65532">
        <ele>72.599998474121</ele>
        <time>2014-02-02T11:21:19Z</time>
      </trkpt>
      <trkpt lat="48.29917" lon="2.65522">
        <ele>72.599998474121</ele>
        <time>2014-02-02T11:21:25Z</time>
      </trkpt>
      <trkpt lat="48.29927" lon="2.65509">
        <ele>72.599998474121</ele>
        <time>2014-02-02T11:21:30Z</time>
      </trkpt>
      <trkpt lat="48.29942" lon="2.65498">
        <ele>72.599998474121</ele>
        <time>2014-02-02T11:21:36Z</time>
      </trkpt>
      <trkpt lat="48.29956" lon="2.65493">
        <ele>72.599998474121</ele>
        <time>2014-02-02T11:21:42Z</time>
      </trkpt>
      <trkpt lat="48.2998" lon="2.65476">
        <ele>72.599998474121</ele>
        <time>2014-02-02T11:21:48Z</time>
      </trkpt>
      <trkpt lat="48.3" lon="2.65457">
        <ele>72.599998474121</ele>
        <time>2014-02-02T11:21:55Z</time>
      </trkpt>
      <trkpt lat="48.30013" lon="2.65444">
        <ele>72.599998474121</ele>
        <time>2014-02-02T11:22:00Z</time>
      </trkpt>
      <trkpt lat="48.30027" lon="2.65432">
        <ele>72.599998474121</ele>
        <time>2014-02-02T11:22:06Z</time>
      </trkpt>
      <trkpt lat="48.30039" lon="2.65422">
        <ele>72.599998474121</ele>
        <time>2014-02-02T11:22:11Z</time>
      </trkpt>
      <trkpt lat="48.30062" lon="2.65406">
        <ele>72.599998474121</ele>
        <time>2014-02-02T11:22:19Z</time>
      </trkpt>
      <trkpt lat="48.30082" lon="2.65387">
        <ele>72.599998474121</ele>
        <time>2014-02-02T11:22:24Z</time>
      </trkpt>
      <trkpt lat="48.30098" lon="2.65373">
        <ele>72.599998474121</ele>
        <time>2014-02-02T11:22:30Z</time>
      </trkpt>
      <trkpt lat="48.30111" lon="2.65359">
        <ele>72.599998474121</ele>
        <time>2014-02-02T11:22:35Z</time>
      </trkpt>
      <trkpt lat="48.30118" lon="2.6534">
        <ele>72.599998474121</ele>
        <time>2014-02-02T11:22:41Z</time>
      </trkpt>
      <trkpt lat="48.30115" lon="2.65324">
        <ele>73</ele>
        <time>2014-02-02T11:22:46Z</time>
      </trkpt>
      <trkpt lat="48.30115" lon="2.6532">
        <ele>73.599998474121</ele>
        <time>2014-02-02T11:22:47Z</time>
      </trkpt>
      <trkpt lat="48.30116" lon="2.65318">
        <ele>74</ele>
        <time>2014-02-02T11:22:48Z</time>
      </trkpt>
      <trkpt lat="48.30115" lon="2.65316">
        <ele>74.400001525879</ele>
        <time>2014-02-02T11:22:49Z</time>
      </trkpt>
      <trkpt lat="48.30116" lon="2.65314">
        <ele>74.800003051758</ele>
        <time>2014-02-02T11:22:50Z</time>
      </trkpt>
      <trkpt lat="48.30116" lon="2.65312">
        <ele>74.800003051758</ele>
        <time>2014-02-02T11:22:51Z</time>
      </trkpt>
      <trkpt lat="48.30116" lon="2.6531">
        <ele>75.199996948242</ele>
        <time>2014-02-02T11:22:54Z</time>
      </trkpt>
      <trkpt lat="48.30116" lon="2.6531">
        <ele>75.599998474121</ele>
        <time>2014-02-02T11:22:55Z</time>
      </trkpt>
      <trkpt lat="48.30116" lon="2.6531">
        <ele>76</ele>
        <time>2014-02-02T11:22:56Z</time>
      </trkpt>
      <trkpt lat="48.30116" lon="2.6531">
        <ele>76.400001525879</ele>
        <time>2014-02-02T11:22:57Z</time>
      </trkpt>
      <trkpt lat="48.30116" lon="2.6531">
        <ele>76.800003051758</ele>
        <time>2014-02-02T11:22:58Z</time>
      </trkpt>
      <trkpt lat="48.30116" lon="2.65304">
        <ele>76.800003051758</ele>
        <time>2014-02-02T11:23:07Z</time>
      </trkpt>
      <trkpt lat="48.30119" lon="2.65291">
        <ele>76.400001525879</ele>
        <time>2014-02-02T11:23:12Z</time>
      </trkpt>
      <trkpt lat="48.3012" lon="2.65286">
        <ele>76</ele>
        <time>2014-02-02T11:23:13Z</time>
      </trkpt>
      <trkpt lat="48.3012" lon="2.65282">
        <ele>75.599998474121</ele>
        <time>2014-02-02T11:23:14Z</time>
      </trkpt>
      <trkpt lat="48.3012" lon="2.65278">
        <ele>75.199996948242</ele>
        <time>2014-02-02T11:23:15Z</time>
      </trkpt>
      <trkpt lat="48.30119" lon="2.65274">
        <ele>74.599998474121</ele>
        <time>2014-02-02T11:23:16Z</time>
      </trkpt>
      <trkpt lat="48.30122" lon="2.65246">
        <ele>74.599998474121</ele>
        <time>2014-02-02T11:23:23Z</time>
      </trkpt>
      <trkpt lat="48.30121" lon="2.65227">
        <ele>74.599998474121</ele>
        <time>2014-02-02T11:23:30Z</time>
      </trkpt>
      <trkpt lat="48.30123" lon="2.652">
        <ele>74.599998474121</ele>
        <time>2014-02-02T11:23:38Z</time>
      </trkpt>
      <trkpt lat="48.30125" lon="2.65181">
        <ele>74.599998474121</ele>
        <time>2014-02-02T11:23:43Z</time>
      </trkpt>
      <trkpt lat="48.30122" lon="2.65172">
        <ele>74.599998474121</ele>
        <time>2014-02-02T11:23:48Z</time>
      </trkpt>
      <trkpt lat="48.30113" lon="2.65149">
        <ele>74.599998474121</ele>
        <time>2014-02-02T11:23:55Z</time>
      </trkpt>
      <trkpt lat="48.301" lon="2.65133">
        <ele>74.599998474121</ele>
        <time>2014-02-02T11:24:02Z</time>
      </trkpt>
      <trkpt lat="48.301" lon="2.65114">
        <ele>74.599998474121</ele>
        <time>2014-02-02T11:24:09Z</time>
      </trkpt>
      <trkpt lat="48.30096" lon="2.65091">
        <ele>74.599998474121</ele>
        <time>2014-02-02T11:24:16Z</time>
      </trkpt>
      <trkpt lat="48.30097" lon="2.6508">
        <ele>74.599998474121</ele>
        <time>2014-02-02T11:24:19Z</time>
      </trkpt>
      <trkpt lat="48.30099" lon="2.65071">
        <ele>74.599998474121</ele>
        <time>2014-02-02T11:24:21Z</time>
      </trkpt>
      <trkpt lat="48.30106" lon="2.65055">
        <ele>74.599998474121</ele>
        <time>2014-02-02T11:24:25Z</time>
      </trkpt>
      <trkpt lat="48.30109" lon="2.6505">
        <ele>74.599998474121</ele>
        <time>2014-02-02T11:24:27Z</time>
      </trkpt>
      <trkpt lat="48.30111" lon="2.65025">
        <ele>74.599998474121</ele>
        <time>2014-02-02T11:24:34Z</time>
      </trkpt>
      <trkpt lat="48.30114" lon="2.6501">
        <ele>74.599998474121</ele>
        <time>2014-02-02T11:24:39Z</time>
      </trkpt>
      <trkpt lat="48.30118" lon="2.6499">
        <ele>74.599998474121</ele>
        <time>2014-02-02T11:24:45Z</time>
      </trkpt>
      <trkpt lat="48.30126" lon="2.64975">
        <ele>74.599998474121</ele>
        <time>2014-02-02T11:24:52Z</time>
      </trkpt>
      <trkpt lat="48.3014" lon="2.6496">
        <ele>74.599998474121</ele>
        <time>2014-02-02T11:24:58Z</time>
      </trkpt>
      <trkpt lat="48.30152" lon="2.64944">
        <ele>74.599998474121</ele>
        <time>2014-02-02T11:25:04Z</time>
      </trkpt>
      <trkpt lat="48.30162" lon="2.64929">
        <ele>74.599998474121</ele>
        <time>2014-02-02T11:25:10Z</time>
      </trkpt>
      <trkpt lat="48.30167" lon="2.64929">
        <ele>74.599998474121</ele>
        <time>2014-02-02T11:25:12Z</time>
      </trkpt>
      <trkpt lat="48.30171" lon="2.64929">
        <ele>74.599998474121</ele>
        <time>2014-02-02T11:25:14Z</time>
      </trkpt>
      <trkpt lat="48.3018" lon="2.64934">
        <ele>74.599998474121</ele>
        <time>2014-02-02T11:25:20Z</time>
      </trkpt>
      <trkpt lat="48.30182" lon="2.64936">
        <ele>75</ele>
        <time>2014-02-02T11:25:21Z</time>
      </trkpt>
      <trkpt lat="48.30184" lon="2.64937">
        <ele>75.599998474121</ele>
        <time>2014-02-02T11:25:22Z</time>
      </trkpt>
      <trkpt lat="48.30185" lon="2.64937">
        <ele>76</ele>
        <time>2014-02-02T11:25:23Z</time>
      </trkpt>
      <trkpt lat="48.30188" lon="2.64939">
        <ele>76.400001525879</ele>
        <time>2014-02-02T11:25:24Z</time>
      </trkpt>
      <trkpt lat="48.30191" lon="2.64941">
        <ele>76.800003051758</ele>
        <time>2014-02-02T11:25:25Z</time>
      </trkpt>
      <trkpt lat="48.30191" lon="2.64945">
        <ele>76.800003051758</ele>
        <time>2014-02-02T11:25:26Z</time>
      </trkpt>
      <trkpt lat="48.30194" lon="2.64949">
        <ele>76.199996948242</ele>
        <time>2014-02-02T11:25:27Z</time>
      </trkpt>
      <trkpt lat="48.30196" lon="2.64954">
        <ele>75.800003051758</ele>
        <time>2014-02-02T11:25:28Z</time>
      </trkpt>
      <trkpt lat="48.30197" lon="2.64958">
        <ele>75.199996948242</ele>
        <time>2014-02-02T11:25:29Z</time>
      </trkpt>
      <trkpt lat="48.30198" lon="2.6496">
        <ele>74.800003051758</ele>
        <time>2014-02-02T11:25:30Z</time>
      </trkpt>
      <trkpt lat="48.30199" lon="2.64961">
        <ele>74.199996948242</ele>
        <time>2014-02-02T11:25:31Z</time>
      </trkpt>
      <trkpt lat="48.30203" lon="2.64971">
        <ele>74.199996948242</ele>
        <time>2014-02-02T11:25:36Z</time>
      </trkpt>
      <trkpt lat="48.30206" lon="2.6497">
        <ele>74.800003051758</ele>
        <time>2014-02-02T11:25:38Z</time>
      </trkpt>
      <trkpt lat="48.30208" lon="2.6497">
        <ele>75.199996948242</ele>
        <time>2014-02-02T11:25:39Z</time>
      </trkpt>
      <trkpt lat="48.3021" lon="2.64968">
        <ele>75.599998474121</ele>
        <time>2014-02-02T11:25:40Z</time>
      </trkpt>
      <trkpt lat="48.30212" lon="2.64965">
        <ele>76</ele>
        <time>2014-02-02T11:25:41Z</time>
      </trkpt>
      <trkpt lat="48.30212" lon="2.64963">
        <ele>76.400001525879</ele>
        <time>2014-02-02T11:25:42Z</time>
      </trkpt>
      <trkpt lat="48.30215" lon="2.64951">
        <ele>76.400001525879</ele>
        <time>2014-02-02T11:25:48Z</time>
      </trkpt>
      <trkpt lat="48.3021" lon="2.64939">
        <ele>76.400001525879</ele>
        <time>2014-02-02T11:25:53Z</time>
      </trkpt>
      <trkpt lat="48.30222" lon="2.6492">
        <ele>76.400001525879</ele>
        <time>2014-02-02T11:25:59Z</time>
      </trkpt>
      <trkpt lat="48.30228" lon="2.64912">
        <ele>76.400001525879</ele>
        <time>2014-02-02T11:26:02Z</time>
      </trkpt>
      <trkpt lat="48.30228" lon="2.64912">
        <ele>76.400001525879</ele>
        <time>2014-02-02T11:26:03Z</time>
      </trkpt>
      <trkpt lat="48.30233" lon="2.64913">
        <ele>76.400001525879</ele>
        <time>2014-02-02T11:26:09Z</time>
      </trkpt>
      <trkpt lat="48.30233" lon="2.64915">
        <ele>76.400001525879</ele>
        <time>2014-02-02T11:26:15Z</time>
      </trkpt>
      <trkpt lat="48.30243" lon="2.64922">
        <ele>76.400001525879</ele>
        <time>2014-02-02T11:26:33Z</time>
      </trkpt>
      <trkpt lat="48.30246" lon="2.64917">
        <ele>76</ele>
        <time>2014-02-02T11:26:36Z</time>
      </trkpt>
      <trkpt lat="48.30246" lon="2.64916">
        <ele>75.400001525879</ele>
        <time>2014-02-02T11:26:37Z</time>
      </trkpt>
      <trkpt lat="48.30246" lon="2.64915">
        <ele>75</ele>
        <time>2014-02-02T11:26:38Z</time>
      </trkpt>
      <trkpt lat="48.30247" lon="2.64912">
        <ele>74.599998474121</ele>
        <time>2014-02-02T11:26:39Z</time>
      </trkpt>
      <trkpt lat="48.30247" lon="2.64909">
        <ele>74</ele>
        <time>2014-02-02T11:26:40Z</time>
      </trkpt>
      <trkpt lat="48.30255" lon="2.64892">
        <ele>74</ele>
        <time>2014-02-02T11:26:46Z</time>
      </trkpt>
      <trkpt lat="48.30265" lon="2.64876">
        <ele>74</ele>
        <time>2014-02-02T11:26:52Z</time>
      </trkpt>
      <trkpt lat="48.30274" lon="2.64863">
        <ele>73.599998474121</ele>
        <time>2014-02-02T11:26:57Z</time>
      </trkpt>
      <trkpt lat="48.30277" lon="2.64865">
        <ele>73.199996948242</ele>
        <time>2014-02-02T11:26:58Z</time>
      </trkpt>
      <trkpt lat="48.30278" lon="2.64864">
        <ele>72.800003051758</ele>
        <time>2014-02-02T11:26:59Z</time>
      </trkpt>
      <trkpt lat="48.30281" lon="2.64863">
        <ele>72.400001525879</ele>
        <time>2014-02-02T11:27:00Z</time>
      </trkpt>
      <trkpt lat="48.30284" lon="2.6486">
        <ele>72</ele>
        <time>2014-02-02T11:27:01Z</time>
      </trkpt>
      <trkpt lat="48.30296" lon="2.64844">
        <ele>72</ele>
        <time>2014-02-02T11:27:05Z</time>
      </trkpt>
      <trkpt lat="48.30302" lon="2.64822">
        <ele>72</ele>
        <time>2014-02-02T11:27:10Z</time>
      </trkpt>
      <trkpt lat="48.30303" lon="2.648">
        <ele>72</ele>
        <time>2014-02-02T11:27:16Z</time>
      </trkpt>
      <trkpt lat="48.30309" lon="2.64785">
        <ele>72</ele>
        <time>2014-02-02T11:27:21Z</time>
      </trkpt>
      <trkpt lat="48.30321" lon="2.64767">
        <ele>72</ele>
        <time>2014-02-02T11:27:28Z</time>
      </trkpt>
      <trkpt lat="48.30333" lon="2.64743">
        <ele>72</ele>
        <time>2014-02-02T11:27:35Z</time>
      </trkpt>
      <trkpt lat="48.30337" lon="2.64724">
        <ele>72</ele>
        <time>2014-02-02T11:27:41Z</time>
      </trkpt>
      <trkpt lat="48.30348" lon="2.64715">
        <ele>72</ele>
        <time>2014-02-02T11:27:47Z</time>
      </trkpt>
      <trkpt lat="48.30356" lon="2.64707">
        <ele>72</ele>
        <time>2014-02-02T11:27:52Z</time>
      </trkpt>
      <trkpt lat="48.30361" lon="2.64694">
        <ele>72</ele>
        <time>2014-02-02T11:27:58Z</time>
      </trkpt>
      <trkpt lat="48.30359" lon="2.64681">
        <ele>72</ele>
        <time>2014-02-02T11:28:04Z</time>
      </trkpt>
      <trkpt lat="48.30358" lon="2.64657">
        <ele>72</ele>
        <time>2014-02-02T11:28:10Z</time>
      </trkpt>
      <trkpt lat="48.30354" lon="2.64639">
        <ele>72</ele>
        <time>2014-02-02T11:28:16Z</time>
      </trkpt>
      <trkpt lat="48.3036" lon="2.64621">
        <ele>72</ele>
        <time>2014-02-02T11:28:23Z</time>
      </trkpt>
      <trkpt lat="48.30369" lon="2.64599">
        <ele>72</ele>
        <time>2014-02-02T11:28:30Z</time>
      </trkpt>
      <trkpt lat="48.30371" lon="2.64601">
        <ele>72</ele>
        <time>2014-02-02T11:28:31Z</time>
      </trkpt>
      <trkpt lat="48.30374" lon="2.64601">
        <ele>72</ele>
        <time>2014-02-02T11:28:33Z</time>
      </trkpt>
      <trkpt lat="48.30375" lon="2.646">
        <ele>72</ele>
        <time>2014-02-02T11:28:34Z</time>
      </trkpt>
      <trkpt lat="48.30383" lon="2.64591">
        <ele>72</ele>
        <time>2014-02-02T11:28:37Z</time>
      </trkpt>
      <trkpt lat="48.30391" lon="2.64573">
        <ele>72</ele>
        <time>2014-02-02T11:28:43Z</time>
      </trkpt>
      <trkpt lat="48.30398" lon="2.64557">
        <ele>72</ele>
        <time>2014-02-02T11:28:49Z</time>
      </trkpt>
      <trkpt lat="48.30408" lon="2.64535">
        <ele>72</ele>
        <time>2014-02-02T11:28:59Z</time>
      </trkpt>
      <trkpt lat="48.3041" lon="2.64535">
        <ele>72</ele>
        <time>2014-02-02T11:29:00Z</time>
      </trkpt>
      <trkpt lat="48.30412" lon="2.64536">
        <ele>72</ele>
        <time>2014-02-02T11:29:03Z</time>
      </trkpt>
      <trkpt lat="48.3042" lon="2.64538">
        <ele>72</ele>
        <time>2014-02-02T11:29:10Z</time>
      </trkpt>
      <trkpt lat="48.30424" lon="2.64537">
        <ele>72.400001525879</ele>
        <time>2014-02-02T11:29:12Z</time>
      </trkpt>
      <trkpt lat="48.30426" lon="2.64538">
        <ele>72.800003051758</ele>
        <time>2014-02-02T11:29:13Z</time>
      </trkpt>
      <trkpt lat="48.30429" lon="2.64539">
        <ele>73.199996948242</ele>
        <time>2014-02-02T11:29:14Z</time>
      </trkpt>
      <trkpt lat="48.30433" lon="2.6454">
        <ele>73.599998474121</ele>
        <time>2014-02-02T11:29:15Z</time>
      </trkpt>
      <trkpt lat="48.30436" lon="2.64541">
        <ele>74</ele>
        <time>2014-02-02T11:29:16Z</time>
      </trkpt>
      <trkpt lat="48.30445" lon="2.6455">
        <ele>74</ele>
        <time>2014-02-02T11:29:22Z</time>
      </trkpt>
      <trkpt lat="48.30445" lon="2.64563">
        <ele>74</ele>
        <time>2014-02-02T11:29:27Z</time>
      </trkpt>
      <trkpt lat="48.30444" lon="2.64567">
        <ele>73.599998474121</ele>
        <time>2014-02-02T11:29:28Z</time>
      </trkpt>
      <trkpt lat="48.30443" lon="2.6457">
        <ele>73.199996948242</ele>
        <time>2014-02-02T11:29:29Z</time>
      </trkpt>
      <trkpt lat="48.30442" lon="2.64571">
        <ele>72.800003051758</ele>
        <time>2014-02-02T11:29:30Z</time>
      </trkpt>
      <trkpt lat="48.30443" lon="2.64573">
        <ele>72.400001525879</ele>
        <time>2014-02-02T11:29:31Z</time>
      </trkpt>
      <trkpt lat="48.30444" lon="2.64574">
        <ele>72</ele>
        <time>2014-02-02T11:29:32Z</time>
      </trkpt>
      <trkpt lat="48.30442" lon="2.64583">
        <ele>72.400001525879</ele>
        <time>2014-02-02T11:29:39Z</time>
      </trkpt>
      <trkpt lat="48.30443" lon="2.64584">
        <ele>72.800003051758</ele>
        <time>2014-02-02T11:29:40Z</time>
      </trkpt>
      <trkpt lat="48.30443" lon="2.64585">
        <ele>73.199996948242</ele>
        <time>2014-02-02T11:29:41Z</time>
      </trkpt>
      <trkpt lat="48.30444" lon="2.64586">
        <ele>73.599998474121</ele>
        <time>2014-02-02T11:29:42Z</time>
      </trkpt>
      <trkpt lat="48.30444" lon="2.64586">
        <ele>74</ele>
        <time>2014-02-02T11:29:43Z</time>
      </trkpt>
      <trkpt lat="48.30447" lon="2.64597">
        <ele>74</ele>
        <time>2014-02-02T11:29:58Z</time>
      </trkpt>
      <trkpt lat="48.30448" lon="2.64598">
        <ele>73.599998474121</ele>
        <time>2014-02-02T11:30:01Z</time>
      </trkpt>
      <trkpt lat="48.30448" lon="2.64598">
        <ele>73</ele>
        <time>2014-02-02T11:30:02Z</time>
      </trkpt>
      <trkpt lat="48.30448" lon="2.64599">
        <ele>72.599998474121</ele>
        <time>2014-02-02T11:30:03Z</time>
      </trkpt>
      <trkpt lat="48.30448" lon="2.64598">
        <ele>72</ele>
        <time>2014-02-02T11:30:04Z</time>
      </trkpt>
      <trkpt lat="48.30449" lon="2.646">
        <ele>71.599998474121</ele>
        <time>2014-02-02T11:30:05Z</time>
      </trkpt>
      <trkpt lat="48.30452" lon="2.64611">
        <ele>72</ele>
        <time>2014-02-02T11:30:13Z</time>
      </trkpt>
      <trkpt lat="48.30454" lon="2.64613">
        <ele>72.400001525879</ele>
        <time>2014-02-02T11:30:14Z</time>
      </trkpt>
      <trkpt lat="48.30454" lon="2.64614">
        <ele>72.800003051758</ele>
        <time>2014-02-02T11:30:15Z</time>
      </trkpt>
      <trkpt lat="48.30454" lon="2.64615">
        <ele>73.199996948242</ele>
        <time>2014-02-02T11:30:16Z</time>
      </trkpt>
      <trkpt lat="48.30454" lon="2.64615">
        <ele>73.599998474121</ele>
        <time>2014-02-02T11:30:17Z</time>
      </trkpt>
      <trkpt lat="48.30452" lon="2.6463">
        <ele>73.199996948242</ele>
        <time>2014-02-02T11:30:35Z</time>
      </trkpt>
      <trkpt lat="48.3045" lon="2.64635">
        <ele>72.599998474121</ele>
        <time>2014-02-02T11:30:36Z</time>
      </trkpt>
      <trkpt lat="48.30449" lon="2.64638">
        <ele>72</ele>
        <time>2014-02-02T11:30:37Z</time>
      </trkpt>
      <trkpt lat="48.30449" lon="2.64642">
        <ele>71.400001525879</ele>
        <time>2014-02-02T11:30:38Z</time>
      </trkpt>
      <trkpt lat="48.30448" lon="2.64645">
        <ele>70.800003051758</ele>
        <time>2014-02-02T11:30:39Z</time>
      </trkpt>
      <trkpt lat="48.30446" lon="2.64668">
        <ele>70.800003051758</ele>
        <time>2014-02-02T11:30:48Z</time>
      </trkpt>
      <trkpt lat="48.3045" lon="2.64689">
        <ele>70.800003051758</ele>
        <time>2014-02-02T11:30:56Z</time>
      </trkpt>
      <trkpt lat="48.30449" lon="2.64703">
        <ele>70.800003051758</ele>
        <time>2014-02-02T11:31:01Z</time>
      </trkpt>
      <trkpt lat="48.30448" lon="2.64727">
        <ele>70.800003051758</ele>
        <time>2014-02-02T11:31:07Z</time>
      </trkpt>
      <trkpt lat="48.3045" lon="2.64752">
        <ele>70.800003051758</ele>
        <time>2014-02-02T11:31:13Z</time>
      </trkpt>
      <trkpt lat="48.30454" lon="2.64765">
        <ele>70.800003051758</ele>
        <time>2014-02-02T11:31:18Z</time>
      </trkpt>
      <trkpt lat="48.30453" lon="2.64771">
        <ele>70.800003051758</ele>
        <time>2014-02-02T11:31:27Z</time>
      </trkpt>
      <trkpt lat="48.30458" lon="2.64782">
        <ele>71.199996948242</ele>
        <time>2014-02-02T11:31:42Z</time>
      </trkpt>
      <trkpt lat="48.30458" lon="2.64783">
        <ele>71.599998474121</ele>
        <time>2014-02-02T11:31:43Z</time>
      </trkpt>
      <trkpt lat="48.30458" lon="2.64784">
        <ele>72</ele>
        <time>2014-02-02T11:31:44Z</time>
      </trkpt>
      <trkpt lat="48.30459" lon="2.64785">
        <ele>72.400001525879</ele>
        <time>2014-02-02T11:31:45Z</time>
      </trkpt>
      <trkpt lat="48.30459" lon="2.64786">
        <ele>72.800003051758</ele>
        <time>2014-02-02T11:31:46Z</time>
      </trkpt>
      <trkpt lat="48.30462" lon="2.6479">
        <ele>72.800003051758</ele>
        <time>2014-02-02T11:31:54Z</time>
      </trkpt>
      <trkpt lat="48.3046" lon="2.64807">
        <ele>72.800003051758</ele>
        <time>2014-02-02T11:32:29Z</time>
      </trkpt>
      <trkpt lat="48.3046" lon="2.64811">
        <ele>72.400001525879</ele>
        <time>2014-02-02T11:32:30Z</time>
      </trkpt>
      <trkpt lat="48.30461" lon="2.64816">
        <ele>72</ele>
        <time>2014-02-02T11:32:31Z</time>
      </trkpt>
      <trkpt lat="48.30461" lon="2.64819">
        <ele>71.599998474121</ele>
        <time>2014-02-02T11:32:32Z</time>
      </trkpt>
      <trkpt lat="48.30461" lon="2.64822">
        <ele>71.199996948242</ele>
        <time>2014-02-02T11:32:33Z</time>
      </trkpt>
      <trkpt lat="48.3046" lon="2.64826">
        <ele>70.800003051758</ele>
        <time>2014-02-02T11:32:34Z</time>
      </trkpt>
      <trkpt lat="48.3046" lon="2.64829">
        <ele>70.800003051758</ele>
        <time>2014-02-02T11:32:35Z</time>
      </trkpt>
      <trkpt lat="48.3046" lon="2.64844">
        <ele>70.800003051758</ele>
        <time>2014-02-02T11:32:39Z</time>
      </trkpt>
      <trkpt lat="48.30463" lon="2.64851">
        <ele>70.800003051758</ele>
        <time>2014-02-02T11:32:44Z</time>
      </trkpt>
      <trkpt lat="48.30462" lon="2.64854">
        <ele>71.199996948242</ele>
        <time>2014-02-02T11:32:45Z</time>
      </trkpt>
      <trkpt lat="48.30462" lon="2.64855">
        <ele>71.800003051758</ele>
        <time>2014-02-02T11:32:46Z</time>
      </trkpt>
      <trkpt lat="48.30463" lon="2.64857">
        <ele>72.199996948242</ele>
        <time>2014-02-02T11:32:47Z</time>
      </trkpt>
      <trkpt lat="48.30462" lon="2.64857">
        <ele>72.599998474121</ele>
        <time>2014-02-02T11:32:48Z</time>
      </trkpt>
      <trkpt lat="48.30462" lon="2.64858">
        <ele>73</ele>
        <time>2014-02-02T11:32:49Z</time>
      </trkpt>
      <trkpt lat="48.30463" lon="2.64857">
        <ele>73</ele>
        <time>2014-02-02T11:32:53Z</time>
      </trkpt>
      <trkpt lat="48.30472" lon="2.64854">
        <ele>73</ele>
        <time>2014-02-02T11:33:05Z</time>
      </trkpt>
      <trkpt lat="48.30489" lon="2.64848">
        <ele>73</ele>
        <time>2014-02-02T11:33:35Z</time>
      </trkpt>
      <trkpt lat="48.305" lon="2.64845">
        <ele>73</ele>
        <time>2014-02-02T11:33:41Z</time>
      </trkpt>
      <trkpt lat="48.3051" lon="2.6484">
        <ele>73</ele>
        <time>2014-02-02T11:33:47Z</time>
      </trkpt>
      <trkpt lat="48.30526" lon="2.64835">
        <ele>73</ele>
        <time>2014-02-02T11:33:54Z</time>
      </trkpt>
      <trkpt lat="48.30541" lon="2.64828">
        <ele>73</ele>
        <time>2014-02-02T11:34:00Z</time>
      </trkpt>
      <trkpt lat="48.30557" lon="2.64823">
        <ele>73</ele>
        <time>2014-02-02T11:34:07Z</time>
      </trkpt>
      <trkpt lat="48.30584" lon="2.64814">
        <ele>73</ele>
        <time>2014-02-02T11:34:16Z</time>
      </trkpt>
      <trkpt lat="48.30598" lon="2.64807">
        <ele>73</ele>
        <time>2014-02-02T11:34:21Z</time>
      </trkpt>
      <trkpt lat="48.30614" lon="2.64794">
        <ele>73</ele>
        <time>2014-02-02T11:34:27Z</time>
      </trkpt>
      <trkpt lat="48.3063" lon="2.64771">
        <ele>73</ele>
        <time>2014-02-02T11:34:35Z</time>
      </trkpt>
      <trkpt lat="48.30642" lon="2.64739">
        <ele>73</ele>
        <time>2014-02-02T11:34:42Z</time>
      </trkpt>
      <trkpt lat="48.30653" lon="2.64718">
        <ele>73</ele>
        <time>2014-02-02T11:34:48Z</time>
      </trkpt>
      <trkpt lat="48.30657" lon="2.64713">
        <ele>73.400001525879</ele>
        <time>2014-02-02T11:34:50Z</time>
      </trkpt>
      <trkpt lat="48.30658" lon="2.64711">
        <ele>73.800003051758</ele>
        <time>2014-02-02T11:34:51Z</time>
      </trkpt>
      <trkpt lat="48.3066" lon="2.64709">
        <ele>74.199996948242</ele>
        <time>2014-02-02T11:34:52Z</time>
      </trkpt>
      <trkpt lat="48.30662" lon="2.64706">
        <ele>74.800003051758</ele>
        <time>2014-02-02T11:34:53Z</time>
      </trkpt>
      <trkpt lat="48.30664" lon="2.64704">
        <ele>75.199996948242</ele>
        <time>2014-02-02T11:34:54Z</time>
      </trkpt>
      <trkpt lat="48.30679" lon="2.64682">
        <ele>75.199996948242</ele>
        <time>2014-02-02T11:35:03Z</time>
      </trkpt>
      <trkpt lat="48.30695" lon="2.64664">
        <ele>75.199996948242</ele>
        <time>2014-02-02T11:35:09Z</time>
      </trkpt>
      <trkpt lat="48.30706" lon="2.64642">
        <ele>75.199996948242</ele>
        <time>2014-02-02T11:35:15Z</time>
      </trkpt>
      <trkpt lat="48.3072" lon="2.64628">
        <ele>75.199996948242</ele>
        <time>2014-02-02T11:35:22Z</time>
      </trkpt>
      <trkpt lat="48.30722" lon="2.64627">
        <ele>75.199996948242</ele>
        <time>2014-02-02T11:35:23Z</time>
      </trkpt>
      <trkpt lat="48.3073" lon="2.64619">
        <ele>75.199996948242</ele>
        <time>2014-02-02T11:35:27Z</time>
      </trkpt>
      <trkpt lat="48.30743" lon="2.64609">
        <ele>75.199996948242</ele>
        <time>2014-02-02T11:35:33Z</time>
      </trkpt>
      <trkpt lat="48.30754" lon="2.64603">
        <ele>75.199996948242</ele>
        <time>2014-02-02T11:35:39Z</time>
      </trkpt>
      <trkpt lat="48.30756" lon="2.646">
        <ele>75.199996948242</ele>
        <time>2014-02-02T11:35:40Z</time>
      </trkpt>
      <trkpt lat="48.30764" lon="2.64597">
        <ele>75.599998474121</ele>
        <time>2014-02-02T11:35:43Z</time>
      </trkpt>
      <trkpt lat="48.30766" lon="2.64597">
        <ele>76</ele>
        <time>2014-02-02T11:35:44Z</time>
      </trkpt>
      <trkpt lat="48.30768" lon="2.64597">
        <ele>76.400001525879</ele>
        <time>2014-02-02T11:35:45Z</time>
      </trkpt>
      <trkpt lat="48.3077" lon="2.64597">
        <ele>76.800003051758</ele>
        <time>2014-02-02T11:35:46Z</time>
      </trkpt>
      <trkpt lat="48.30773" lon="2.64596">
        <ele>77.199996948242</ele>
        <time>2014-02-02T11:35:47Z</time>
      </trkpt>
      <trkpt lat="48.30788" lon="2.64597">
        <ele>77.199996948242</ele>
        <time>2014-02-02T11:35:53Z</time>
      </trkpt>
      <trkpt lat="48.30801" lon="2.64596">
        <ele>77.199996948242</ele>
        <time>2014-02-02T11:36:00Z</time>
      </trkpt>
      <trkpt lat="48.30816" lon="2.64591">
        <ele>77.199996948242</ele>
        <time>2014-02-02T11:36:07Z</time>
      </trkpt>
      <trkpt lat="48.30843" lon="2.64583">
        <ele>77.199996948242</ele>
        <time>2014-02-02T11:36:15Z</time>
      </trkpt>
      <trkpt lat="48.30862" lon="2.64576">
        <ele>77.199996948242</ele>
        <time>2014-02-02T11:36:22Z</time>
      </trkpt>
      <trkpt lat="48.3087" lon="2.64572">
        <ele>77.599998474121</ele>
        <time>2014-02-02T11:36:26Z</time>
      </trkpt>
      <trkpt lat="48.30872" lon="2.64571">
        <ele>78</ele>
        <time>2014-02-02T11:36:27Z</time>
      </trkpt>
      <trkpt lat="48.30874" lon="2.6457">
        <ele>78.400001525879</ele>
        <time>2014-02-02T11:36:28Z</time>
      </trkpt>
      <trkpt lat="48.30877" lon="2.64569">
        <ele>78.800003051758</ele>
        <time>2014-02-02T11:36:29Z</time>
      </trkpt>
      <trkpt lat="48.30879" lon="2.64568">
        <ele>79.199996948242</ele>
        <time>2014-02-02T11:36:30Z</time>
      </trkpt>
      <trkpt lat="48.30881" lon="2.64566">
        <ele>79.199996948242</ele>
        <time>2014-02-02T11:36:31Z</time>
      </trkpt>
      <trkpt lat="48.30902" lon="2.64556">
        <ele>79.199996948242</ele>
        <time>2014-02-02T11:36:40Z</time>
      </trkpt>
      <trkpt lat="48.30925" lon="2.64543">
        <ele>79.199996948242</ele>
        <time>2014-02-02T11:36:48Z</time>
      </trkpt>
      <trkpt lat="48.30941" lon="2.64538">
        <ele>79.199996948242</ele>
        <time>2014-02-02T11:36:55Z</time>
      </trkpt>
      <trkpt lat="48.30948" lon="2.64534">
        <ele>79.800003051758</ele>
        <time>2014-02-02T11:36:59Z</time>
      </trkpt>
      <trkpt lat="48.3095" lon="2.64533">
        <ele>80.199996948242</ele>
        <time>2014-02-02T11:37:00Z</time>
      </trkpt>
      <trkpt lat="48.30952" lon="2.64533">
        <ele>80.599998474121</ele>
        <time>2014-02-02T11:37:01Z</time>
      </trkpt>
      <trkpt lat="48.30954" lon="2.64533">
        <ele>81</ele>
        <time>2014-02-02T11:37:02Z</time>
      </trkpt>
      <trkpt lat="48.30956" lon="2.64532">
        <ele>81.400001525879</ele>
        <time>2014-02-02T11:37:03Z</time>
      </trkpt>
      <trkpt lat="48.30967" lon="2.64529">
        <ele>81.400001525879</ele>
        <time>2014-02-02T11:37:07Z</time>
      </trkpt>
      <trkpt lat="48.30984" lon="2.64524">
        <ele>81.400001525879</ele>
        <time>2014-02-02T11:37:12Z</time>
      </trkpt>
      <trkpt lat="48.31013" lon="2.64521">
        <ele>81.400001525879</ele>
        <time>2014-02-02T11:37:18Z</time>
      </trkpt>
      <trkpt lat="48.31038" lon="2.64518">
        <ele>81.400001525879</ele>
        <time>2014-02-02T11:37:26Z</time>
      </trkpt>
      <trkpt lat="48.31046" lon="2.64504">
        <ele>81.400001525879</ele>
        <time>2014-02-02T11:37:30Z</time>
      </trkpt>
      <trkpt lat="48.31053" lon="2.64486">
        <ele>81.400001525879</ele>
        <time>2014-02-02T11:37:37Z</time>
      </trkpt>
      <trkpt lat="48.31055" lon="2.64484">
        <ele>81.800003051758</ele>
        <time>2014-02-02T11:37:44Z</time>
      </trkpt>
      <trkpt lat="48.31055" lon="2.64484">
        <ele>82.199996948242</ele>
        <time>2014-02-02T11:37:45Z</time>
      </trkpt>
      <trkpt lat="48.31055" lon="2.64484">
        <ele>82.599998474121</ele>
        <time>2014-02-02T11:37:46Z</time>
      </trkpt>
      <trkpt lat="48.31055" lon="2.64484">
        <ele>83</ele>
        <time>2014-02-02T11:37:47Z</time>
      </trkpt>
      <trkpt lat="48.31055" lon="2.64484">
        <ele>83.400001525879</ele>
        <time>2014-02-02T11:37:48Z</time>
      </trkpt>
      <trkpt lat="48.31055" lon="2.64484">
        <ele>83.400001525879</ele>
        <time>2014-02-02T11:39:31Z</time>
      </trkpt>
      <trkpt lat="48.31058" lon="2.64471">
        <ele>83.400001525879</ele>
        <time>2014-02-02T11:41:40Z</time>
      </trkpt>
      <trkpt lat="48.31068" lon="2.64451">
        <ele>83.800003051758</ele>
        <time>2014-02-02T11:41:45Z</time>
      </trkpt>
      <trkpt lat="48.31068" lon="2.64447">
        <ele>84.199996948242</ele>
        <time>2014-02-02T11:41:46Z</time>
      </trkpt>
      <trkpt lat="48.31069" lon="2.64442">
        <ele>84.599998474121</ele>
        <time>2014-02-02T11:41:47Z</time>
      </trkpt>
      <trkpt lat="48.3107" lon="2.64439">
        <ele>85.199996948242</ele>
        <time>2014-02-02T11:41:48Z</time>
      </trkpt>
      <trkpt lat="48.31072" lon="2.64434">
        <ele>85.599998474121</ele>
        <time>2014-02-02T11:41:49Z</time>
      </trkpt>
      <trkpt lat="48.31076" lon="2.64419">
        <ele>85.599998474121</ele>
        <time>2014-02-02T11:41:53Z</time>
      </trkpt>
      <trkpt lat="48.31083" lon="2.64403">
        <ele>85.599998474121</ele>
        <time>2014-02-02T11:41:59Z</time>
      </trkpt>
      <trkpt lat="48.31087" lon="2.64382">
        <ele>86</ele>
        <time>2014-02-02T11:42:06Z</time>
      </trkpt>
      <trkpt lat="48.31089" lon="2.64379">
        <ele>86.400001525879</ele>
        <time>2014-02-02T11:42:07Z</time>
      </trkpt>
      <trkpt lat="48.3109" lon="2.64376">
        <ele>86.800003051758</ele>
        <time>2014-02-02T11:42:08Z</time>
      </trkpt>
      <trkpt lat="48.31091" lon="2.64374">
        <ele>87.199996948242</ele>
        <time>2014-02-02T11:42:09Z</time>
      </trkpt>
      <trkpt lat="48.31091" lon="2.6437">
        <ele>87.599998474121</ele>
        <time>2014-02-02T11:42:10Z</time>
      </trkpt>
      <trkpt lat="48.31098" lon="2.64354">
        <ele>87.599998474121</ele>
        <time>2014-02-02T11:42:15Z</time>
      </trkpt>
      <trkpt lat="48.31102" lon="2.64339">
        <ele>88</ele>
        <time>2014-02-02T11:42:21Z</time>
      </trkpt>
      <trkpt lat="48.31103" lon="2.64336">
        <ele>88.400001525879</ele>
        <time>2014-02-02T11:42:22Z</time>
      </trkpt>
      <trkpt lat="48.31104" lon="2.64334">
        <ele>89</ele>
        <time>2014-02-02T11:42:23Z</time>
      </trkpt>
      <trkpt lat="48.31105" lon="2.64332">
        <ele>89.400001525879</ele>
        <time>2014-02-02T11:42:24Z</time>
      </trkpt>
      <trkpt lat="48.31106" lon="2.64329">
        <ele>89.800003051758</ele>
        <time>2014-02-02T11:42:25Z</time>
      </trkpt>
      <trkpt lat="48.31112" lon="2.64312">
        <ele>89.800003051758</ele>
        <time>2014-02-02T11:42:32Z</time>
      </trkpt>
      <trkpt lat="48.31113" lon="2.64306">
        <ele>90.199996948242</ele>
        <time>2014-02-02T11:42:34Z</time>
      </trkpt>
      <trkpt lat="48.31114" lon="2.64303">
        <ele>90.599998474121</ele>
        <time>2014-02-02T11:42:35Z</time>
      </trkpt>
      <trkpt lat="48.31116" lon="2.64301">
        <ele>91.199996948242</ele>
        <time>2014-02-02T11:42:36Z</time>
      </trkpt>
      <trkpt lat="48.31117" lon="2.64298">
        <ele>91.599998474121</ele>
        <time>2014-02-02T11:42:37Z</time>
      </trkpt>
      <trkpt lat="48.31118" lon="2.64296">
        <ele>92</ele>
        <time>2014-02-02T11:42:38Z</time>
      </trkpt>
      <trkpt lat="48.31125" lon="2.64279">
        <ele>92</ele>
        <time>2014-02-02T11:42:44Z</time>
      </trkpt>
      <trkpt lat="48.31131" lon="2.64262">
        <ele>92</ele>
        <time>2014-02-02T11:42:50Z</time>
      </trkpt>
      <trkpt lat="48.31133" lon="2.64258">
        <ele>92.400001525879</ele>
        <time>2014-02-02T11:42:52Z</time>
      </trkpt>
      <trkpt lat="48.31135" lon="2.64253">
        <ele>93</ele>
        <time>2014-02-02T11:42:54Z</time>
      </trkpt>
      <trkpt lat="48.31136" lon="2.64252">
        <ele>93.400001525879</ele>
        <time>2014-02-02T11:42:55Z</time>
      </trkpt>
      <trkpt lat="48.31136" lon="2.6425">
        <ele>93.800003051758</ele>
        <time>2014-02-02T11:42:56Z</time>
      </trkpt>
      <trkpt lat="48.31137" lon="2.64247">
        <ele>94.199996948242</ele>
        <time>2014-02-02T11:42:57Z</time>
      </trkpt>
      <trkpt lat="48.31141" lon="2.64225">
        <ele>94.199996948242</ele>
        <time>2014-02-02T11:43:04Z</time>
      </trkpt>
      <trkpt lat="48.31143" lon="2.64202">
        <ele>94.199996948242</ele>
        <time>2014-02-02T11:43:11Z</time>
      </trkpt>
      <trkpt lat="48.31139" lon="2.64185">
        <ele>94.199996948242</ele>
        <time>2014-02-02T11:43:15Z</time>
      </trkpt>
      <trkpt lat="48.31138" lon="2.64181">
        <ele>94.199996948242</ele>
        <time>2014-02-02T11:43:16Z</time>
      </trkpt>
      <trkpt lat="48.31136" lon="2.64163">
        <ele>94.199996948242</ele>
        <time>2014-02-02T11:43:22Z</time>
      </trkpt>
      <trkpt lat="48.31136" lon="2.64143">
        <ele>94.199996948242</ele>
        <time>2014-02-02T11:43:29Z</time>
      </trkpt>
      <trkpt lat="48.31136" lon="2.64141">
        <ele>94.599998474121</ele>
        <time>2014-02-02T11:43:30Z</time>
      </trkpt>
      <trkpt lat="48.31136" lon="2.64139">
        <ele>95</ele>
        <time>2014-02-02T11:43:31Z</time>
      </trkpt>
      <trkpt lat="48.31137" lon="2.64136">
        <ele>95.400001525879</ele>
        <time>2014-02-02T11:43:32Z</time>
      </trkpt>
      <trkpt lat="48.31137" lon="2.64134">
        <ele>95.800003051758</ele>
        <time>2014-02-02T11:43:33Z</time>
      </trkpt>
      <trkpt lat="48.31138" lon="2.64131">
        <ele>96.400001525879</ele>
        <time>2014-02-02T11:43:34Z</time>
      </trkpt>
      <trkpt lat="48.31146" lon="2.64113">
        <ele>96.400001525879</ele>
        <time>2014-02-02T11:43:41Z</time>
      </trkpt>
      <trkpt lat="48.31151" lon="2.64108">
        <ele>96.800003051758</ele>
        <time>2014-02-02T11:43:44Z</time>
      </trkpt>
      <trkpt lat="48.31152" lon="2.64108">
        <ele>97.199996948242</ele>
        <time>2014-02-02T11:43:45Z</time>
      </trkpt>
      <trkpt lat="48.31153" lon="2.64106">
        <ele>97.599998474121</ele>
        <time>2014-02-02T11:43:46Z</time>
      </trkpt>
      <trkpt lat="48.31155" lon="2.64104">
        <ele>98.199996948242</ele>
        <time>2014-02-02T11:43:47Z</time>
      </trkpt>
      <trkpt lat="48.31157" lon="2.64102">
        <ele>98.599998474121</ele>
        <time>2014-02-02T11:43:48Z</time>
      </trkpt>
      <trkpt lat="48.31158" lon="2.64101">
        <ele>98.599998474121</ele>
        <time>2014-02-02T11:43:49Z</time>
      </trkpt>
      <trkpt lat="48.31163" lon="2.64103">
        <ele>98.599998474121</ele>
        <time>2014-02-02T11:43:52Z</time>
      </trkpt>
      <trkpt lat="48.31175" lon="2.64103">
        <ele>99</ele>
        <time>2014-02-02T11:43:58Z</time>
      </trkpt>
      <trkpt lat="48.31177" lon="2.64102">
        <ele>99.400001525879</ele>
        <time>2014-02-02T11:43:59Z</time>
      </trkpt>
      <trkpt lat="48.31179" lon="2.64101">
        <ele>99.800003051758</ele>
        <time>2014-02-02T11:44:00Z</time>
      </trkpt>
      <trkpt lat="48.31179" lon="2.641">
        <ele>100.19999694824</ele>
        <time>2014-02-02T11:44:01Z</time>
      </trkpt>
      <trkpt lat="48.31181" lon="2.64099">
        <ele>100.59999847412</ele>
        <time>2014-02-02T11:44:02Z</time>
      </trkpt>
      <trkpt lat="48.31185" lon="2.64091">
        <ele>100.59999847412</ele>
        <time>2014-02-02T11:44:06Z</time>
      </trkpt>
      <trkpt lat="48.31187" lon="2.64083">
        <ele>100.59999847412</ele>
        <time>2014-02-02T11:44:09Z</time>
      </trkpt>
      <trkpt lat="48.31187" lon="2.64078">
        <ele>101</ele>
        <time>2014-02-02T11:44:11Z</time>
      </trkpt>
      <trkpt lat="48.31187" lon="2.64076">
        <ele>101.40000152588</ele>
        <time>2014-02-02T11:44:12Z</time>
      </trkpt>
      <trkpt lat="48.31188" lon="2.64073">
        <ele>101.80000305176</ele>
        <time>2014-02-02T11:44:13Z</time>
      </trkpt>
      <trkpt lat="48.31188" lon="2.6407">
        <ele>102.19999694824</ele>
        <time>2014-02-02T11:44:14Z</time>
      </trkpt>
      <trkpt lat="48.31189" lon="2.64067">
        <ele>102.59999847412</ele>
        <time>2014-02-02T11:44:15Z</time>
      </trkpt>
      <trkpt lat="48.31191" lon="2.64049">
        <ele>102.59999847412</ele>
        <time>2014-02-02T11:44:22Z</time>
      </trkpt>
      <trkpt lat="48.31192" lon="2.64044">
        <ele>103</ele>
        <time>2014-02-02T11:44:24Z</time>
      </trkpt>
      <trkpt lat="48.31192" lon="2.64041">
        <ele>103.40000152588</ele>
        <time>2014-02-02T11:44:25Z</time>
      </trkpt>
      <trkpt lat="48.31192" lon="2.64036">
        <ele>103.80000305176</ele>
        <time>2014-02-02T11:44:27Z</time>
      </trkpt>
      <trkpt lat="48.31193" lon="2.64033">
        <ele>104.19999694824</ele>
        <time>2014-02-02T11:44:28Z</time>
      </trkpt>
      <trkpt lat="48.31193" lon="2.6403">
        <ele>104.59999847412</ele>
        <time>2014-02-02T11:44:29Z</time>
      </trkpt>
      <trkpt lat="48.31194" lon="2.64024">
        <ele>104.59999847412</ele>
        <time>2014-02-02T11:44:31Z</time>
      </trkpt>
      <trkpt lat="48.31198" lon="2.63992">
        <ele>104.59999847412</ele>
        <time>2014-02-02T11:44:41Z</time>
      </trkpt>
      <trkpt lat="48.31197" lon="2.63965">
        <ele>104.59999847412</ele>
        <time>2014-02-02T11:44:49Z</time>
      </trkpt>
      <trkpt lat="48.31199" lon="2.6394">
        <ele>105</ele>
        <time>2014-02-02T11:44:55Z</time>
      </trkpt>
      <trkpt lat="48.31199" lon="2.63936">
        <ele>105.40000152588</ele>
        <time>2014-02-02T11:44:56Z</time>
      </trkpt>
      <trkpt lat="48.312" lon="2.63932">
        <ele>106</ele>
        <time>2014-02-02T11:44:57Z</time>
      </trkpt>
      <trkpt lat="48.31201" lon="2.63928">
        <ele>106.40000152588</ele>
        <time>2014-02-02T11:44:58Z</time>
      </trkpt>
      <trkpt lat="48.31202" lon="2.63924">
        <ele>106.80000305176</ele>
        <time>2014-02-02T11:44:59Z</time>
      </trkpt>
      <trkpt lat="48.31204" lon="2.63899">
        <ele>106.80000305176</ele>
        <time>2014-02-02T11:45:05Z</time>
      </trkpt>
      <trkpt lat="48.31202" lon="2.63883">
        <ele>106.80000305176</ele>
        <time>2014-02-02T11:45:09Z</time>
      </trkpt>
      <trkpt lat="48.31201" lon="2.63878">
        <ele>106.80000305176</ele>
        <time>2014-02-02T11:45:10Z</time>
      </trkpt>
      <trkpt lat="48.31193" lon="2.63846">
        <ele>106.80000305176</ele>
        <time>2014-02-02T11:45:18Z</time>
      </trkpt>
      <trkpt lat="48.31189" lon="2.63816">
        <ele>106.80000305176</ele>
        <time>2014-02-02T11:45:25Z</time>
      </trkpt>
      <trkpt lat="48.31183" lon="2.63793">
        <ele>106.80000305176</ele>
        <time>2014-02-02T11:45:30Z</time>
      </trkpt>
      <trkpt lat="48.31186" lon="2.6376">
        <ele>106.80000305176</ele>
        <time>2014-02-02T11:45:37Z</time>
      </trkpt>
      <trkpt lat="48.31191" lon="2.63736">
        <ele>106.80000305176</ele>
        <time>2014-02-02T11:45:42Z</time>
      </trkpt>
      <trkpt lat="48.31195" lon="2.63722">
        <ele>107.19999694824</ele>
        <time>2014-02-02T11:45:46Z</time>
      </trkpt>
      <trkpt lat="48.31196" lon="2.63718">
        <ele>107.59999847412</ele>
        <time>2014-02-02T11:45:47Z</time>
      </trkpt>
      <trkpt lat="48.31197" lon="2.63715">
        <ele>108</ele>
        <time>2014-02-02T11:45:48Z</time>
      </trkpt>
      <trkpt lat="48.31197" lon="2.63713">
        <ele>108.40000152588</ele>
        <time>2014-02-02T11:45:49Z</time>
      </trkpt>
      <trkpt lat="48.31197" lon="2.63709">
        <ele>109</ele>
        <time>2014-02-02T11:45:50Z</time>
      </trkpt>
      <trkpt lat="48.31196" lon="2.63698">
        <ele>109</ele>
        <time>2014-02-02T11:45:52Z</time>
      </trkpt>
      <trkpt lat="48.31196" lon="2.63692">
        <ele>109</ele>
        <time>2014-02-02T11:45:53Z</time>
      </trkpt>
      <trkpt lat="48.31198" lon="2.63659">
        <ele>109</ele>
        <time>2014-02-02T11:45:59Z</time>
      </trkpt>
      <trkpt lat="48.31199" lon="2.63654">
        <ele>109</ele>
        <time>2014-02-02T11:46:00Z</time>
      </trkpt>
      <trkpt lat="48.31202" lon="2.63625">
        <ele>109</ele>
        <time>2014-02-02T11:46:06Z</time>
      </trkpt>
      <trkpt lat="48.31207" lon="2.63596">
        <ele>109</ele>
        <time>2014-02-02T11:46:12Z</time>
      </trkpt>
      <trkpt lat="48.31208" lon="2.63592">
        <ele>108.40000152588</ele>
        <time>2014-02-02T11:46:13Z</time>
      </trkpt>
      <trkpt lat="48.31209" lon="2.63587">
        <ele>108</ele>
        <time>2014-02-02T11:46:14Z</time>
      </trkpt>
      <trkpt lat="48.31209" lon="2.63581">
        <ele>107.59999847412</ele>
        <time>2014-02-02T11:46:15Z</time>
      </trkpt>
      <trkpt lat="48.31209" lon="2.63576">
        <ele>107</ele>
        <time>2014-02-02T11:46:16Z</time>
      </trkpt>
      <trkpt lat="48.31209" lon="2.63571">
        <ele>106.59999847412</ele>
        <time>2014-02-02T11:46:17Z</time>
      </trkpt>
      <trkpt lat="48.31215" lon="2.63553">
        <ele>106.19999694824</ele>
        <time>2014-02-02T11:46:21Z</time>
      </trkpt>
      <trkpt lat="48.31216" lon="2.63549">
        <ele>105.80000305176</ele>
        <time>2014-02-02T11:46:22Z</time>
      </trkpt>
      <trkpt lat="48.31218" lon="2.63545">
        <ele>105.40000152588</ele>
        <time>2014-02-02T11:46:23Z</time>
      </trkpt>
      <trkpt lat="48.3122" lon="2.6354">
        <ele>105</ele>
        <time>2014-02-02T11:46:24Z</time>
      </trkpt>
      <trkpt lat="48.31221" lon="2.63536">
        <ele>104.59999847412</ele>
        <time>2014-02-02T11:46:25Z</time>
      </trkpt>
      <trkpt lat="48.3122" lon="2.6353">
        <ele>104</ele>
        <time>2014-02-02T11:46:27Z</time>
      </trkpt>
      <trkpt lat="48.3122" lon="2.63526">
        <ele>103.59999847412</ele>
        <time>2014-02-02T11:46:28Z</time>
      </trkpt>
      <trkpt lat="48.31219" lon="2.63519">
        <ele>103.19999694824</ele>
        <time>2014-02-02T11:46:29Z</time>
      </trkpt>
      <trkpt lat="48.31216" lon="2.63505">
        <ele>102</ele>
        <time>2014-02-02T11:46:31Z</time>
      </trkpt>
      <trkpt lat="48.31215" lon="2.635">
        <ele>101.59999847412</ele>
        <time>2014-02-02T11:46:32Z</time>
      </trkpt>
      <trkpt lat="48.31213" lon="2.63493">
        <ele>101</ele>
        <time>2014-02-02T11:46:33Z</time>
      </trkpt>
      <trkpt lat="48.31212" lon="2.63489">
        <ele>100.40000152588</ele>
        <time>2014-02-02T11:46:34Z</time>
      </trkpt>
      <trkpt lat="48.3121" lon="2.63483">
        <ele>99.800003051758</ele>
        <time>2014-02-02T11:46:35Z</time>
      </trkpt>
      <trkpt lat="48.31205" lon="2.63461">
        <ele>99.400001525879</ele>
        <time>2014-02-02T11:46:38Z</time>
      </trkpt>
      <trkpt lat="48.31205" lon="2.63454">
        <ele>98.800003051758</ele>
        <time>2014-02-02T11:46:39Z</time>
      </trkpt>
      <trkpt lat="48.31205" lon="2.63444">
        <ele>98.400001525879</ele>
        <time>2014-02-02T11:46:40Z</time>
      </trkpt>
      <trkpt lat="48.31205" lon="2.63438">
        <ele>98</ele>
        <time>2014-02-02T11:46:41Z</time>
      </trkpt>
      <trkpt lat="48.31205" lon="2.6343">
        <ele>97.400001525879</ele>
        <time>2014-02-02T11:46:42Z</time>
      </trkpt>
      <trkpt lat="48.31203" lon="2.63414">
        <ele>97.400001525879</ele>
        <time>2014-02-02T11:46:44Z</time>
      </trkpt>
      <trkpt lat="48.312" lon="2.63393">
        <ele>97</ele>
        <time>2014-02-02T11:46:47Z</time>
      </trkpt>
      <trkpt lat="48.312" lon="2.63385">
        <ele>96.599998474121</ele>
        <time>2014-02-02T11:46:48Z</time>
      </trkpt>
      <trkpt lat="48.31201" lon="2.63376">
        <ele>96.199996948242</ele>
        <time>2014-02-02T11:46:49Z</time>
      </trkpt>
      <trkpt lat="48.31202" lon="2.63368">
        <ele>95.800003051758</ele>
        <time>2014-02-02T11:46:50Z</time>
      </trkpt>
      <trkpt lat="48.31203" lon="2.63357">
        <ele>95.400001525879</ele>
        <time>2014-02-02T11:46:51Z</time>
      </trkpt>
      <trkpt lat="48.31204" lon="2.63347">
        <ele>95.400001525879</ele>
        <time>2014-02-02T11:46:52Z</time>
      </trkpt>
      <trkpt lat="48.31211" lon="2.633">
        <ele>95.400001525879</ele>
        <time>2014-02-02T11:46:58Z</time>
      </trkpt>
      <trkpt lat="48.31217" lon="2.6327">
        <ele>95.400001525879</ele>
        <time>2014-02-02T11:47:03Z</time>
      </trkpt>
      <trkpt lat="48.31218" lon="2.63231">
        <ele>95.400001525879</ele>
        <time>2014-02-02T11:47:10Z</time>
      </trkpt>
      <trkpt lat="48.31223" lon="2.63205">
        <ele>95.400001525879</ele>
        <time>2014-02-02T11:47:15Z</time>
      </trkpt>
      <trkpt lat="48.3123" lon="2.63171">
        <ele>95.400001525879</ele>
        <time>2014-02-02T11:47:22Z</time>
      </trkpt>
      <trkpt lat="48.31237" lon="2.63148">
        <ele>95.400001525879</ele>
        <time>2014-02-02T11:47:27Z</time>
      </trkpt>
      <trkpt lat="48.31238" lon="2.63144">
        <ele>95.800003051758</ele>
        <time>2014-02-02T11:47:28Z</time>
      </trkpt>
      <trkpt lat="48.31238" lon="2.6314">
        <ele>96.199996948242</ele>
        <time>2014-02-02T11:47:29Z</time>
      </trkpt>
      <trkpt lat="48.31239" lon="2.63136">
        <ele>96.599998474121</ele>
        <time>2014-02-02T11:47:30Z</time>
      </trkpt>
      <trkpt lat="48.31239" lon="2.63131">
        <ele>97</ele>
        <time>2014-02-02T11:47:31Z</time>
      </trkpt>
      <trkpt lat="48.31239" lon="2.63126">
        <ele>97.400001525879</ele>
        <time>2014-02-02T11:47:32Z</time>
      </trkpt>
      <trkpt lat="48.31239" lon="2.63122">
        <ele>97.400001525879</ele>
        <time>2014-02-02T11:47:33Z</time>
      </trkpt>
      <trkpt lat="48.31238" lon="2.63119">
        <ele>97.400001525879</ele>
        <time>2014-02-02T11:47:34Z</time>
      </trkpt>
      <trkpt lat="48.31239" lon="2.63101">
        <ele>97.400001525879</ele>
        <time>2014-02-02T11:47:38Z</time>
      </trkpt>
      <trkpt lat="48.31242" lon="2.63073">
        <ele>97.400001525879</ele>
        <time>2014-02-02T11:47:45Z</time>
      </trkpt>
      <trkpt lat="48.31243" lon="2.63046">
        <ele>97.400001525879</ele>
        <time>2014-02-02T11:47:52Z</time>
      </trkpt>
      <trkpt lat="48.31242" lon="2.63014">
        <ele>97.400001525879</ele>
        <time>2014-02-02T11:47:58Z</time>
      </trkpt>
      <trkpt lat="48.31243" lon="2.62982">
        <ele>97.400001525879</ele>
        <time>2014-02-02T11:48:03Z</time>
      </trkpt>
      <trkpt lat="48.31246" lon="2.62964">
        <ele>97.400001525879</ele>
        <time>2014-02-02T11:48:07Z</time>
      </trkpt>
      <trkpt lat="48.31253" lon="2.62943">
        <ele>97.400001525879</ele>
        <time>2014-02-02T11:48:12Z</time>
      </trkpt>
      <trkpt lat="48.31254" lon="2.62939">
        <ele>97.400001525879</ele>
        <time>2014-02-02T11:48:13Z</time>
      </trkpt>
      <trkpt lat="48.31259" lon="2.62908">
        <ele>97.400001525879</ele>
        <time>2014-02-02T11:48:18Z</time>
      </trkpt>
      <trkpt lat="48.3126" lon="2.62889">
        <ele>97</ele>
        <time>2014-02-02T11:48:21Z</time>
      </trkpt>
      <trkpt lat="48.3126" lon="2.62884">
        <ele>96.599998474121</ele>
        <time>2014-02-02T11:48:22Z</time>
      </trkpt>
      <trkpt lat="48.3126" lon="2.62877">
        <ele>96</ele>
        <time>2014-02-02T11:48:23Z</time>
      </trkpt>
      <trkpt lat="48.31261" lon="2.62869">
        <ele>95.599998474121</ele>
        <time>2014-02-02T11:48:24Z</time>
      </trkpt>
      <trkpt lat="48.31259" lon="2.62862">
        <ele>95.199996948242</ele>
        <time>2014-02-02T11:48:25Z</time>
      </trkpt>
      <trkpt lat="48.31258" lon="2.62835">
        <ele>95.199996948242</ele>
        <time>2014-02-02T11:48:29Z</time>
      </trkpt>
      <trkpt lat="48.3126" lon="2.62806">
        <ele>95.199996948242</ele>
        <time>2014-02-02T11:48:33Z</time>
      </trkpt>
      <trkpt lat="48.3126" lon="2.62786">
        <ele>94.800003051758</ele>
        <time>2014-02-02T11:48:36Z</time>
      </trkpt>
      <trkpt lat="48.3126" lon="2.62781">
        <ele>94.400001525879</ele>
        <time>2014-02-02T11:48:37Z</time>
      </trkpt>
      <trkpt lat="48.31258" lon="2.62775">
        <ele>94</ele>
        <time>2014-02-02T11:48:38Z</time>
      </trkpt>
      <trkpt lat="48.31259" lon="2.6277">
        <ele>93.599998474121</ele>
        <time>2014-02-02T11:48:39Z</time>
      </trkpt>
      <trkpt lat="48.31259" lon="2.62765">
        <ele>93</ele>
        <time>2014-02-02T11:48:40Z</time>
      </trkpt>
      <trkpt lat="48.31254" lon="2.62727">
        <ele>93</ele>
        <time>2014-02-02T11:48:48Z</time>
      </trkpt>
      <trkpt lat="48.31258" lon="2.62687">
        <ele>93</ele>
        <time>2014-02-02T11:48:56Z</time>
      </trkpt>
      <trkpt lat="48.31256" lon="2.62659">
        <ele>93</ele>
        <time>2014-02-02T11:49:01Z</time>
      </trkpt>
      <trkpt lat="48.31254" lon="2.62636">
        <ele>92.599998474121</ele>
        <time>2014-02-02T11:49:06Z</time>
      </trkpt>
      <trkpt lat="48.31253" lon="2.6263">
        <ele>92.199996948242</ele>
        <time>2014-02-02T11:49:07Z</time>
      </trkpt>
      <trkpt lat="48.3125" lon="2.62624">
        <ele>91.800003051758</ele>
        <time>2014-02-02T11:49:08Z</time>
      </trkpt>
      <trkpt lat="48.31249" lon="2.62619">
        <ele>91.400001525879</ele>
        <time>2014-02-02T11:49:09Z</time>
      </trkpt>
      <trkpt lat="48.31247" lon="2.62614">
        <ele>91</ele>
        <time>2014-02-02T11:49:10Z</time>
      </trkpt>
      <trkpt lat="48.31239" lon="2.62588">
        <ele>91</ele>
        <time>2014-02-02T11:49:15Z</time>
      </trkpt>
      <trkpt lat="48.31241" lon="2.62579">
        <ele>91</ele>
        <time>2014-02-02T11:49:20Z</time>
      </trkpt>
      <trkpt lat="48.31245" lon="2.6258">
        <ele>91</ele>
        <time>2014-02-02T11:49:24Z</time>
      </trkpt>
      <trkpt lat="48.31249" lon="2.6258">
        <ele>91.599998474121</ele>
        <time>2014-02-02T11:49:29Z</time>
      </trkpt>
      <trkpt lat="48.3125" lon="2.6258">
        <ele>92</ele>
        <time>2014-02-02T11:49:30Z</time>
      </trkpt>
      <trkpt lat="48.31251" lon="2.6258">
        <ele>92.400001525879</ele>
        <time>2014-02-02T11:49:31Z</time>
      </trkpt>
      <trkpt lat="48.31253" lon="2.6258">
        <ele>92.800003051758</ele>
        <time>2014-02-02T11:49:32Z</time>
      </trkpt>
      <trkpt lat="48.31253" lon="2.62579">
        <ele>93.199996948242</ele>
        <time>2014-02-02T11:49:33Z</time>
      </trkpt>
      <trkpt lat="48.31263" lon="2.62579">
        <ele>93.599998474121</ele>
        <time>2014-02-02T11:49:41Z</time>
      </trkpt>
      <trkpt lat="48.31265" lon="2.6258">
        <ele>94.199996948242</ele>
        <time>2014-02-02T11:49:42Z</time>
      </trkpt>
      <trkpt lat="48.31267" lon="2.6258">
        <ele>94.599998474121</ele>
        <time>2014-02-02T11:49:43Z</time>
      </trkpt>
      <trkpt lat="48.31268" lon="2.62581">
        <ele>95</ele>
        <time>2014-02-02T11:49:44Z</time>
      </trkpt>
      <trkpt lat="48.3127" lon="2.62581">
        <ele>95.400001525879</ele>
        <time>2014-02-02T11:49:45Z</time>
      </trkpt>
      <trkpt lat="48.31275" lon="2.62581">
        <ele>95.400001525879</ele>
        <time>2014-02-02T11:49:48Z</time>
      </trkpt>
      <trkpt lat="48.31279" lon="2.6258">
        <ele>95.400001525879</ele>
        <time>2014-02-02T11:49:51Z</time>
      </trkpt>
      <trkpt lat="48.31284" lon="2.62579">
        <ele>95.400001525879</ele>
        <time>2014-02-02T11:49:55Z</time>
      </trkpt>
      <trkpt lat="48.31285" lon="2.62578">
        <ele>95.800003051758</ele>
        <time>2014-02-02T11:49:56Z</time>
      </trkpt>
      <trkpt lat="48.31287" lon="2.62577">
        <ele>96.199996948242</ele>
        <time>2014-02-02T11:49:57Z</time>
      </trkpt>
      <trkpt lat="48.31289" lon="2.62577">
        <ele>96.800003051758</ele>
        <time>2014-02-02T11:49:58Z</time>
      </trkpt>
      <trkpt lat="48.31291" lon="2.62577">
        <ele>97.199996948242</ele>
        <time>2014-02-02T11:49:59Z</time>
      </trkpt>
      <trkpt lat="48.31292" lon="2.62577">
        <ele>97.599998474121</ele>
        <time>2014-02-02T11:50:00Z</time>
      </trkpt>
      <trkpt lat="48.31298" lon="2.62577">
        <ele>97.599998474121</ele>
        <time>2014-02-02T11:50:03Z</time>
      </trkpt>
      <trkpt lat="48.31314" lon="2.62575">
        <ele>98</ele>
        <time>2014-02-02T11:50:13Z</time>
      </trkpt>
      <trkpt lat="48.31315" lon="2.62575">
        <ele>98.400001525879</ele>
        <time>2014-02-02T11:50:14Z</time>
      </trkpt>
      <trkpt lat="48.31316" lon="2.62574">
        <ele>98.800003051758</ele>
        <time>2014-02-02T11:50:15Z</time>
      </trkpt>
      <trkpt lat="48.31318" lon="2.62574">
        <ele>99.199996948242</ele>
        <time>2014-02-02T11:50:16Z</time>
      </trkpt>
      <trkpt lat="48.31319" lon="2.62574">
        <ele>99.599998474121</ele>
        <time>2014-02-02T11:50:17Z</time>
      </trkpt>
      <trkpt lat="48.31323" lon="2.62573">
        <ele>99.599998474121</ele>
        <time>2014-02-02T11:50:21Z</time>
      </trkpt>
      <trkpt lat="48.31335" lon="2.62573">
        <ele>99.599998474121</ele>
        <time>2014-02-02T11:50:28Z</time>
      </trkpt>
      <trkpt lat="48.31345" lon="2.62574">
        <ele>100</ele>
        <time>2014-02-02T11:50:34Z</time>
      </trkpt>
      <trkpt lat="48.31347" lon="2.62574">
        <ele>100.40000152588</ele>
        <time>2014-02-02T11:50:35Z</time>
      </trkpt>
      <trkpt lat="48.31348" lon="2.62575">
        <ele>101</ele>
        <time>2014-02-02T11:50:36Z</time>
      </trkpt>
      <trkpt lat="48.31349" lon="2.62574">
        <ele>101.40000152588</ele>
        <time>2014-02-02T11:50:37Z</time>
      </trkpt>
      <trkpt lat="48.3135" lon="2.62574">
        <ele>101.80000305176</ele>
        <time>2014-02-02T11:50:38Z</time>
      </trkpt>
      <trkpt lat="48.31357" lon="2.62576">
        <ele>101.80000305176</ele>
        <time>2014-02-02T11:50:42Z</time>
      </trkpt>
      <trkpt lat="48.31372" lon="2.62574">
        <ele>101.80000305176</ele>
        <time>2014-02-02T11:50:52Z</time>
      </trkpt>
      <trkpt lat="48.31375" lon="2.62573">
        <ele>102.19999694824</ele>
        <time>2014-02-02T11:50:54Z</time>
      </trkpt>
      <trkpt lat="48.31377" lon="2.62573">
        <ele>102.59999847412</ele>
        <time>2014-02-02T11:50:55Z</time>
      </trkpt>
      <trkpt lat="48.31378" lon="2.62573">
        <ele>103</ele>
        <time>2014-02-02T11:50:56Z</time>
      </trkpt>
      <trkpt lat="48.31379" lon="2.62573">
        <ele>103.40000152588</ele>
        <time>2014-02-02T11:50:57Z</time>
      </trkpt>
      <trkpt lat="48.3138" lon="2.62573">
        <ele>103.80000305176</ele>
        <time>2014-02-02T11:50:58Z</time>
      </trkpt>
      <trkpt lat="48.31387" lon="2.62576">
        <ele>104.19999694824</ele>
        <time>2014-02-02T11:51:03Z</time>
      </trkpt>
      <trkpt lat="48.31388" lon="2.62575">
        <ele>104.80000305176</ele>
        <time>2014-02-02T11:51:04Z</time>
      </trkpt>
      <trkpt lat="48.31389" lon="2.62575">
        <ele>105.19999694824</ele>
        <time>2014-02-02T11:51:05Z</time>
      </trkpt>
      <trkpt lat="48.3139" lon="2.62574">
        <ele>105.59999847412</ele>
        <time>2014-02-02T11:51:06Z</time>
      </trkpt>
      <trkpt lat="48.31391" lon="2.62574">
        <ele>106</ele>
        <time>2014-02-02T11:51:07Z</time>
      </trkpt>
      <trkpt lat="48.31395" lon="2.62568">
        <ele>106</ele>
        <time>2014-02-02T11:51:12Z</time>
      </trkpt>
      <trkpt lat="48.31398" lon="2.62561">
        <ele>106.40000152588</ele>
        <time>2014-02-02T11:51:16Z</time>
      </trkpt>
      <trkpt lat="48.31398" lon="2.6256">
        <ele>106.80000305176</ele>
        <time>2014-02-02T11:51:17Z</time>
      </trkpt>
      <trkpt lat="48.31399" lon="2.62559">
        <ele>107.19999694824</ele>
        <time>2014-02-02T11:51:18Z</time>
      </trkpt>
      <trkpt lat="48.31399" lon="2.62558">
        <ele>107.59999847412</ele>
        <time>2014-02-02T11:51:19Z</time>
      </trkpt>
      <trkpt lat="48.314" lon="2.62557">
        <ele>108</ele>
        <time>2014-02-02T11:51:20Z</time>
      </trkpt>
      <trkpt lat="48.314" lon="2.62556">
        <ele>108</ele>
        <time>2014-02-02T11:51:21Z</time>
      </trkpt>
      <trkpt lat="48.314" lon="2.62544">
        <ele>108.59999847412</ele>
        <time>2014-02-02T11:51:27Z</time>
      </trkpt>
      <trkpt lat="48.31399" lon="2.6254">
        <ele>109</ele>
        <time>2014-02-02T11:51:28Z</time>
      </trkpt>
      <trkpt lat="48.31399" lon="2.62538">
        <ele>109.40000152588</ele>
        <time>2014-02-02T11:51:29Z</time>
      </trkpt>
      <trkpt lat="48.31399" lon="2.62536">
        <ele>109.80000305176</ele>
        <time>2014-02-02T11:51:30Z</time>
      </trkpt>
      <trkpt lat="48.314" lon="2.62534">
        <ele>110.19999694824</ele>
        <time>2014-02-02T11:51:31Z</time>
      </trkpt>
      <trkpt lat="48.31405" lon="2.62523">
        <ele>110.59999847412</ele>
        <time>2014-02-02T11:51:39Z</time>
      </trkpt>
      <trkpt lat="48.31406" lon="2.62522">
        <ele>111</ele>
        <time>2014-02-02T11:51:40Z</time>
      </trkpt>
      <trkpt lat="48.31406" lon="2.6252">
        <ele>111.40000152588</ele>
        <time>2014-02-02T11:51:41Z</time>
      </trkpt>
      <trkpt lat="48.31406" lon="2.62519">
        <ele>112</ele>
        <time>2014-02-02T11:51:42Z</time>
      </trkpt>
      <trkpt lat="48.31406" lon="2.62518">
        <ele>112.40000152588</ele>
        <time>2014-02-02T11:51:43Z</time>
      </trkpt>
      <trkpt lat="48.31405" lon="2.62501">
        <ele>112.80000305176</ele>
        <time>2014-02-02T11:51:55Z</time>
      </trkpt>
      <trkpt lat="48.31406" lon="2.625">
        <ele>113.19999694824</ele>
        <time>2014-02-02T11:51:56Z</time>
      </trkpt>
      <trkpt lat="48.31405" lon="2.62499">
        <ele>113.59999847412</ele>
        <time>2014-02-02T11:51:57Z</time>
      </trkpt>
      <trkpt lat="48.31404" lon="2.62499">
        <ele>114</ele>
        <time>2014-02-02T11:51:58Z</time>
      </trkpt>
      <trkpt lat="48.31403" lon="2.62497">
        <ele>114.40000152588</ele>
        <time>2014-02-02T11:51:59Z</time>
      </trkpt>
      <trkpt lat="48.31401" lon="2.62496">
        <ele>114.40000152588</ele>
        <time>2014-02-02T11:52:01Z</time>
      </trkpt>
      <trkpt lat="48.31396" lon="2.62496">
        <ele>114.80000305176</ele>
        <time>2014-02-02T11:52:11Z</time>
      </trkpt>
      <trkpt lat="48.31395" lon="2.62497">
        <ele>115.19999694824</ele>
        <time>2014-02-02T11:52:12Z</time>
      </trkpt>
      <trkpt lat="48.31395" lon="2.62498">
        <ele>115.59999847412</ele>
        <time>2014-02-02T11:52:13Z</time>
      </trkpt>
      <trkpt lat="48.31394" lon="2.62498">
        <ele>116</ele>
        <time>2014-02-02T11:52:14Z</time>
      </trkpt>
      <trkpt lat="48.31393" lon="2.62498">
        <ele>116.40000152588</ele>
        <time>2014-02-02T11:52:15Z</time>
      </trkpt>
      <trkpt lat="48.31379" lon="2.62503">
        <ele>116.40000152588</ele>
        <time>2014-02-02T11:52:24Z</time>
      </trkpt>
      <trkpt lat="48.31376" lon="2.62506">
        <ele>117</ele>
        <time>2014-02-02T11:52:27Z</time>
      </trkpt>
      <trkpt lat="48.31374" lon="2.62506">
        <ele>117.40000152588</ele>
        <time>2014-02-02T11:52:28Z</time>
      </trkpt>
      <trkpt lat="48.31373" lon="2.62505">
        <ele>117.80000305176</ele>
        <time>2014-02-02T11:52:29Z</time>
      </trkpt>
      <trkpt lat="48.31372" lon="2.62505">
        <ele>118.19999694824</ele>
        <time>2014-02-02T11:52:30Z</time>
      </trkpt>
      <trkpt lat="48.31372" lon="2.62505">
        <ele>118.59999847412</ele>
        <time>2014-02-02T11:52:31Z</time>
      </trkpt>
      <trkpt lat="48.31367" lon="2.62504">
        <ele>118.59999847412</ele>
        <time>2014-02-02T11:52:36Z</time>
      </trkpt>
      <trkpt lat="48.31359" lon="2.62489">
        <ele>118.59999847412</ele>
        <time>2014-02-02T11:52:44Z</time>
      </trkpt>
      <trkpt lat="48.31356" lon="2.62479">
        <ele>119.19999694824</ele>
        <time>2014-02-02T11:52:49Z</time>
      </trkpt>
      <trkpt lat="48.31356" lon="2.62477">
        <ele>119.59999847412</ele>
        <time>2014-02-02T11:52:50Z</time>
      </trkpt>
      <trkpt lat="48.31355" lon="2.62475">
        <ele>120</ele>
        <time>2014-02-02T11:52:51Z</time>
      </trkpt>
      <trkpt lat="48.31355" lon="2.62473">
        <ele>120.40000152588</ele>
        <time>2014-02-02T11:52:52Z</time>
      </trkpt>
      <trkpt lat="48.31355" lon="2.62471">
        <ele>120.80000305176</ele>
        <time>2014-02-02T11:52:53Z</time>
      </trkpt>
      <trkpt lat="48.31351" lon="2.62451">
        <ele>120.80000305176</ele>
        <time>2014-02-02T11:53:00Z</time>
      </trkpt>
      <trkpt lat="48.31352" lon="2.6245">
        <ele>121.19999694824</ele>
        <time>2014-02-02T11:53:01Z</time>
      </trkpt>
      <trkpt lat="48.31353" lon="2.62448">
        <ele>121.59999847412</ele>
        <time>2014-02-02T11:53:02Z</time>
      </trkpt>
      <trkpt lat="48.31353" lon="2.62448">
        <ele>122</ele>
        <time>2014-02-02T11:53:03Z</time>
      </trkpt>
      <trkpt lat="48.31355" lon="2.62448">
        <ele>122.40000152588</ele>
        <time>2014-02-02T11:53:04Z</time>
      </trkpt>
      <trkpt lat="48.31355" lon="2.62447">
        <ele>122.80000305176</ele>
        <time>2014-02-02T11:53:05Z</time>
      </trkpt>
      <trkpt lat="48.31356" lon="2.62447">
        <ele>122.80000305176</ele>
        <time>2014-02-02T11:53:06Z</time>
      </trkpt>
      <trkpt lat="48.31364" lon="2.62445">
        <ele>123.19999694824</ele>
        <time>2014-02-02T11:53:13Z</time>
      </trkpt>
      <trkpt lat="48.31365" lon="2.62444">
        <ele>123.80000305176</ele>
        <time>2014-02-02T11:53:14Z</time>
      </trkpt>
      <trkpt lat="48.31366" lon="2.62443">
        <ele>124.19999694824</ele>
        <time>2014-02-02T11:53:15Z</time>
      </trkpt>
      <trkpt lat="48.31366" lon="2.62443">
        <ele>124.59999847412</ele>
        <time>2014-02-02T11:53:16Z</time>
      </trkpt>
      <trkpt lat="48.31367" lon="2.62442">
        <ele>125</ele>
        <time>2014-02-02T11:53:17Z</time>
      </trkpt>
      <trkpt lat="48.3137" lon="2.62438">
        <ele>125</ele>
        <time>2014-02-02T11:53:20Z</time>
      </trkpt>
      <trkpt lat="48.31373" lon="2.62434">
        <ele>125.40000152588</ele>
        <time>2014-02-02T11:53:25Z</time>
      </trkpt>
      <trkpt lat="48.31374" lon="2.62434">
        <ele>125.80000305176</ele>
        <time>2014-02-02T11:53:26Z</time>
      </trkpt>
      <trkpt lat="48.31375" lon="2.62433">
        <ele>126.19999694824</ele>
        <time>2014-02-02T11:53:27Z</time>
      </trkpt>
      <trkpt lat="48.31376" lon="2.62432">
        <ele>126.59999847412</ele>
        <time>2014-02-02T11:53:28Z</time>
      </trkpt>
      <trkpt lat="48.31377" lon="2.62431">
        <ele>127</ele>
        <time>2014-02-02T11:53:29Z</time>
      </trkpt>
      <trkpt lat="48.31384" lon="2.62423">
        <ele>127.40000152588</ele>
        <time>2014-02-02T11:53:35Z</time>
      </trkpt>
      <trkpt lat="48.31385" lon="2.62422">
        <ele>128</ele>
        <time>2014-02-02T11:53:36Z</time>
      </trkpt>
      <trkpt lat="48.31387" lon="2.62421">
        <ele>128.39999389648</ele>
        <time>2014-02-02T11:53:37Z</time>
      </trkpt>
      <trkpt lat="48.3139" lon="2.6242">
        <ele>128.80000305176</ele>
        <time>2014-02-02T11:53:38Z</time>
      </trkpt>
      <trkpt lat="48.31391" lon="2.6242">
        <ele>129.19999694824</ele>
        <time>2014-02-02T11:53:39Z</time>
      </trkpt>
      <trkpt lat="48.31393" lon="2.62418">
        <ele>129.19999694824</ele>
        <time>2014-02-02T11:53:40Z</time>
      </trkpt>
      <trkpt lat="48.31409" lon="2.62413">
        <ele>129.19999694824</ele>
        <time>2014-02-02T11:53:51Z</time>
      </trkpt>
      <trkpt lat="48.31411" lon="2.62413">
        <ele>129.60000610352</ele>
        <time>2014-02-02T11:53:52Z</time>
      </trkpt>
      <trkpt lat="48.31413" lon="2.62412">
        <ele>130</ele>
        <time>2014-02-02T11:53:53Z</time>
      </trkpt>
      <trkpt lat="48.31416" lon="2.62412">
        <ele>130.39999389648</ele>
        <time>2014-02-02T11:53:54Z</time>
      </trkpt>
      <trkpt lat="48.31417" lon="2.62411">
        <ele>130.80000305176</ele>
        <time>2014-02-02T11:53:55Z</time>
      </trkpt>
      <trkpt lat="48.31418" lon="2.6241">
        <ele>131.19999694824</ele>
        <time>2014-02-02T11:53:56Z</time>
      </trkpt>
      <trkpt lat="48.31422" lon="2.62407">
        <ele>131.19999694824</ele>
        <time>2014-02-02T11:53:58Z</time>
      </trkpt>
      <trkpt lat="48.3143" lon="2.62393">
        <ele>131.19999694824</ele>
        <time>2014-02-02T11:54:05Z</time>
      </trkpt>
      <trkpt lat="48.31439" lon="2.62373">
        <ele>131.19999694824</ele>
        <time>2014-02-02T11:54:13Z</time>
      </trkpt>
      <trkpt lat="48.31444" lon="2.62368">
        <ele>131.60000610352</ele>
        <time>2014-02-02T11:54:17Z</time>
      </trkpt>
      <trkpt lat="48.31445" lon="2.62367">
        <ele>132</ele>
        <time>2014-02-02T11:54:18Z</time>
      </trkpt>
      <trkpt lat="48.31446" lon="2.62365">
        <ele>132.39999389648</ele>
        <time>2014-02-02T11:54:19Z</time>
      </trkpt>
      <trkpt lat="48.31447" lon="2.62364">
        <ele>132.80000305176</ele>
        <time>2014-02-02T11:54:20Z</time>
      </trkpt>
      <trkpt lat="48.31448" lon="2.62361">
        <ele>133.19999694824</ele>
        <time>2014-02-02T11:54:21Z</time>
      </trkpt>
      <trkpt lat="48.31451" lon="2.62354">
        <ele>133.19999694824</ele>
        <time>2014-02-02T11:54:24Z</time>
      </trkpt>
      <trkpt lat="48.31451" lon="2.62328">
        <ele>133.19999694824</ele>
        <time>2014-02-02T11:54:31Z</time>
      </trkpt>
      <trkpt lat="48.31452" lon="2.62301">
        <ele>133.19999694824</ele>
        <time>2014-02-02T11:54:37Z</time>
      </trkpt>
      <trkpt lat="48.3145" lon="2.62269">
        <ele>133.19999694824</ele>
        <time>2014-02-02T11:54:44Z</time>
      </trkpt>
      <trkpt lat="48.31451" lon="2.62242">
        <ele>133.19999694824</ele>
        <time>2014-02-02T11:54:50Z</time>
      </trkpt>
      <trkpt lat="48.31446" lon="2.62211">
        <ele>133.19999694824</ele>
        <time>2014-02-02T11:54:56Z</time>
      </trkpt>
      <trkpt lat="48.31443" lon="2.62184">
        <ele>133.60000610352</ele>
        <time>2014-02-02T11:55:01Z</time>
      </trkpt>
      <trkpt lat="48.31442" lon="2.62179">
        <ele>134.19999694824</ele>
        <time>2014-02-02T11:55:02Z</time>
      </trkpt>
      <trkpt lat="48.31442" lon="2.62174">
        <ele>134.60000610352</ele>
        <time>2014-02-02T11:55:03Z</time>
      </trkpt>
      <trkpt lat="48.31442" lon="2.62169">
        <ele>135</ele>
        <time>2014-02-02T11:55:04Z</time>
      </trkpt>
      <trkpt lat="48.31442" lon="2.62163">
        <ele>135.39999389648</ele>
        <time>2014-02-02T11:55:05Z</time>
      </trkpt>
      <trkpt lat="48.31443" lon="2.62143">
        <ele>135.39999389648</ele>
        <time>2014-02-02T11:55:08Z</time>
      </trkpt>
      <trkpt lat="48.31447" lon="2.62089">
        <ele>135.39999389648</ele>
        <time>2014-02-02T11:55:16Z</time>
      </trkpt>
      <trkpt lat="48.31449" lon="2.62042">
        <ele>135.39999389648</ele>
        <time>2014-02-02T11:55:24Z</time>
      </trkpt>
      <trkpt lat="48.31451" lon="2.61999">
        <ele>135.39999389648</ele>
        <time>2014-02-02T11:55:31Z</time>
      </trkpt>
      <trkpt lat="48.31459" lon="2.61987">
        <ele>135.39999389648</ele>
        <time>2014-02-02T11:55:34Z</time>
      </trkpt>
      <trkpt lat="48.31463" lon="2.61983">
        <ele>135.39999389648</ele>
        <time>2014-02-02T11:55:36Z</time>
      </trkpt>
      <trkpt lat="48.31475" lon="2.61971">
        <ele>135.39999389648</ele>
        <time>2014-02-02T11:55:40Z</time>
      </trkpt>
      <trkpt lat="48.31496" lon="2.61945">
        <ele>135.39999389648</ele>
        <time>2014-02-02T11:55:47Z</time>
      </trkpt>
      <trkpt lat="48.31499" lon="2.61913">
        <ele>135.39999389648</ele>
        <time>2014-02-02T11:55:53Z</time>
      </trkpt>
      <trkpt lat="48.31501" lon="2.61885">
        <ele>135.39999389648</ele>
        <time>2014-02-02T11:55:58Z</time>
      </trkpt>
      <trkpt lat="48.3149" lon="2.61867">
        <ele>135.39999389648</ele>
        <time>2014-02-02T11:56:03Z</time>
      </trkpt>
      <trkpt lat="48.3148" lon="2.61859">
        <ele>135.39999389648</ele>
        <time>2014-02-02T11:56:06Z</time>
      </trkpt>
      <trkpt lat="48.31477" lon="2.61856">
        <ele>135</ele>
        <time>2014-02-02T11:56:07Z</time>
      </trkpt>
      <trkpt lat="48.31474" lon="2.61851">
        <ele>134.60000610352</ele>
        <time>2014-02-02T11:56:08Z</time>
      </trkpt>
      <trkpt lat="48.31471" lon="2.61846">
        <ele>134.19999694824</ele>
        <time>2014-02-02T11:56:09Z</time>
      </trkpt>
      <trkpt lat="48.31467" lon="2.6184">
        <ele>133.80000305176</ele>
        <time>2014-02-02T11:56:10Z</time>
      </trkpt>
      <trkpt lat="48.31464" lon="2.61835">
        <ele>133.39999389648</ele>
        <time>2014-02-02T11:56:11Z</time>
      </trkpt>
      <trkpt lat="48.31459" lon="2.6183">
        <ele>133.39999389648</ele>
        <time>2014-02-02T11:56:12Z</time>
      </trkpt>
      <trkpt lat="48.31438" lon="2.61808">
        <ele>132.80000305176</ele>
        <time>2014-02-02T11:56:17Z</time>
      </trkpt>
      <trkpt lat="48.31433" lon="2.61804">
        <ele>132.39999389648</ele>
        <time>2014-02-02T11:56:18Z</time>
      </trkpt>
      <trkpt lat="48.31429" lon="2.618">
        <ele>132</ele>
        <time>2014-02-02T11:56:19Z</time>
      </trkpt>
      <trkpt lat="48.31424" lon="2.61795">
        <ele>131.60000610352</ele>
        <time>2014-02-02T11:56:20Z</time>
      </trkpt>
      <trkpt lat="48.31419" lon="2.61791">
        <ele>131.19999694824</ele>
        <time>2014-02-02T11:56:21Z</time>
      </trkpt>
      <trkpt lat="48.31396" lon="2.61765">
        <ele>131.19999694824</ele>
        <time>2014-02-02T11:56:27Z</time>
      </trkpt>
      <trkpt lat="48.31374" lon="2.61742">
        <ele>131.19999694824</ele>
        <time>2014-02-02T11:56:33Z</time>
      </trkpt>
      <trkpt lat="48.31352" lon="2.6172">
        <ele>131.19999694824</ele>
        <time>2014-02-02T11:56:39Z</time>
      </trkpt>
      <trkpt lat="48.31322" lon="2.6169">
        <ele>131.19999694824</ele>
        <time>2014-02-02T11:56:46Z</time>
      </trkpt>
      <trkpt lat="48.31289" lon="2.61667">
        <ele>131.19999694824</ele>
        <time>2014-02-02T11:56:53Z</time>
      </trkpt>
      <trkpt lat="48.31284" lon="2.61664">
        <ele>130.80000305176</ele>
        <time>2014-02-02T11:56:54Z</time>
      </trkpt>
      <trkpt lat="48.31279" lon="2.61662">
        <ele>130.39999389648</ele>
        <time>2014-02-02T11:56:55Z</time>
      </trkpt>
      <trkpt lat="48.31273" lon="2.61658">
        <ele>130</ele>
        <time>2014-02-02T11:56:56Z</time>
      </trkpt>
      <trkpt lat="48.31268" lon="2.61656">
        <ele>129.60000610352</ele>
        <time>2014-02-02T11:56:57Z</time>
      </trkpt>
      <trkpt lat="48.31263" lon="2.61653">
        <ele>129.19999694824</ele>
        <time>2014-02-02T11:56:58Z</time>
      </trkpt>
      <trkpt lat="48.31248" lon="2.61644">
        <ele>129.19999694824</ele>
        <time>2014-02-02T11:57:01Z</time>
      </trkpt>
      <trkpt lat="48.31245" lon="2.61645">
        <ele>129.19999694824</ele>
        <time>2014-02-02T11:57:02Z</time>
      </trkpt>
      <trkpt lat="48.31237" lon="2.61651">
        <ele>128.60000610352</ele>
        <time>2014-02-02T11:57:05Z</time>
      </trkpt>
      <trkpt lat="48.31234" lon="2.61652">
        <ele>128</ele>
        <time>2014-02-02T11:57:06Z</time>
      </trkpt>
      <trkpt lat="48.31232" lon="2.61653">
        <ele>127.59999847412</ele>
        <time>2014-02-02T11:57:07Z</time>
      </trkpt>
      <trkpt lat="48.31229" lon="2.61655">
        <ele>127</ele>
        <time>2014-02-02T11:57:08Z</time>
      </trkpt>
      <trkpt lat="48.31226" lon="2.61657">
        <ele>126.59999847412</ele>
        <time>2014-02-02T11:57:09Z</time>
      </trkpt>
      <trkpt lat="48.31224" lon="2.61661">
        <ele>126.19999694824</ele>
        <time>2014-02-02T11:57:10Z</time>
      </trkpt>
      <trkpt lat="48.31223" lon="2.61666">
        <ele>125.80000305176</ele>
        <time>2014-02-02T11:57:11Z</time>
      </trkpt>
      <trkpt lat="48.31221" lon="2.61671">
        <ele>125.40000152588</ele>
        <time>2014-02-02T11:57:12Z</time>
      </trkpt>
      <trkpt lat="48.3122" lon="2.61676">
        <ele>124.80000305176</ele>
        <time>2014-02-02T11:57:13Z</time>
      </trkpt>
      <trkpt lat="48.31219" lon="2.6168">
        <ele>124.19999694824</ele>
        <time>2014-02-02T11:57:14Z</time>
      </trkpt>
      <trkpt lat="48.31219" lon="2.61683">
        <ele>123.59999847412</ele>
        <time>2014-02-02T11:57:15Z</time>
      </trkpt>
      <trkpt lat="48.31219" lon="2.61689">
        <ele>123</ele>
        <time>2014-02-02T11:57:16Z</time>
      </trkpt>
      <trkpt lat="48.31219" lon="2.61696">
        <ele>122.40000152588</ele>
        <time>2014-02-02T11:57:17Z</time>
      </trkpt>
      <trkpt lat="48.31219" lon="2.61703">
        <ele>121.80000305176</ele>
        <time>2014-02-02T11:57:18Z</time>
      </trkpt>
      <trkpt lat="48.31221" lon="2.6171">
        <ele>121.19999694824</ele>
        <time>2014-02-02T11:57:19Z</time>
      </trkpt>
      <trkpt lat="48.31221" lon="2.61715">
        <ele>120.59999847412</ele>
        <time>2014-02-02T11:57:20Z</time>
      </trkpt>
      <trkpt lat="48.31223" lon="2.61723">
        <ele>120</ele>
        <time>2014-02-02T11:57:21Z</time>
      </trkpt>
      <trkpt lat="48.31223" lon="2.6173">
        <ele>119.40000152588</ele>
        <time>2014-02-02T11:57:22Z</time>
      </trkpt>
      <trkpt lat="48.31223" lon="2.61737">
        <ele>118.80000305176</ele>
        <time>2014-02-02T11:57:23Z</time>
      </trkpt>
      <trkpt lat="48.31223" lon="2.61743">
        <ele>118.19999694824</ele>
        <time>2014-02-02T11:57:24Z</time>
      </trkpt>
      <trkpt lat="48.31223" lon="2.6175">
        <ele>117.59999847412</ele>
        <time>2014-02-02T11:57:25Z</time>
      </trkpt>
      <trkpt lat="48.31223" lon="2.61758">
        <ele>116.80000305176</ele>
        <time>2014-02-02T11:57:26Z</time>
      </trkpt>
      <trkpt lat="48.31221" lon="2.61765">
        <ele>116.19999694824</ele>
        <time>2014-02-02T11:57:27Z</time>
      </trkpt>
      <trkpt lat="48.31218" lon="2.61773">
        <ele>115.40000152588</ele>
        <time>2014-02-02T11:57:28Z</time>
      </trkpt>
      <trkpt lat="48.31215" lon="2.6178">
        <ele>114.80000305176</ele>
        <time>2014-02-02T11:57:29Z</time>
      </trkpt>
      <trkpt lat="48.31213" lon="2.61786">
        <ele>114</ele>
        <time>2014-02-02T11:57:30Z</time>
      </trkpt>
      <trkpt lat="48.31211" lon="2.61793">
        <ele>113.19999694824</ele>
        <time>2014-02-02T11:57:31Z</time>
      </trkpt>
      <trkpt lat="48.31209" lon="2.61799">
        <ele>112.40000152588</ele>
        <time>2014-02-02T11:57:32Z</time>
      </trkpt>
      <trkpt lat="48.31207" lon="2.61805">
        <ele>111.80000305176</ele>
        <time>2014-02-02T11:57:33Z</time>
      </trkpt>
      <trkpt lat="48.31207" lon="2.61809">
        <ele>111</ele>
        <time>2014-02-02T11:57:34Z</time>
      </trkpt>
      <trkpt lat="48.31206" lon="2.61814">
        <ele>110.19999694824</ele>
        <time>2014-02-02T11:57:35Z</time>
      </trkpt>
      <trkpt lat="48.31203" lon="2.6182">
        <ele>109.80000305176</ele>
        <time>2014-02-02T11:57:36Z</time>
      </trkpt>
      <trkpt lat="48.31202" lon="2.61826">
        <ele>109.40000152588</ele>
        <time>2014-02-02T11:57:37Z</time>
      </trkpt>
      <trkpt lat="48.312" lon="2.6183">
        <ele>108.80000305176</ele>
        <time>2014-02-02T11:57:38Z</time>
      </trkpt>
      <trkpt lat="48.31199" lon="2.61835">
        <ele>108.40000152588</ele>
        <time>2014-02-02T11:57:39Z</time>
      </trkpt>
      <trkpt lat="48.31199" lon="2.6184">
        <ele>108</ele>
        <time>2014-02-02T11:57:40Z</time>
      </trkpt>
      <trkpt lat="48.31199" lon="2.61844">
        <ele>107.59999847412</ele>
        <time>2014-02-02T11:57:41Z</time>
      </trkpt>
      <trkpt lat="48.31199" lon="2.61848">
        <ele>107</ele>
        <time>2014-02-02T11:57:42Z</time>
      </trkpt>
      <trkpt lat="48.31199" lon="2.61854">
        <ele>106.59999847412</ele>
        <time>2014-02-02T11:57:43Z</time>
      </trkpt>
      <trkpt lat="48.31199" lon="2.61858">
        <ele>106.19999694824</ele>
        <time>2014-02-02T11:57:44Z</time>
      </trkpt>
      <trkpt lat="48.312" lon="2.61864">
        <ele>105.59999847412</ele>
        <time>2014-02-02T11:57:45Z</time>
      </trkpt>
      <trkpt lat="48.31199" lon="2.61891">
        <ele>105.19999694824</ele>
        <time>2014-02-02T11:57:48Z</time>
      </trkpt>
      <trkpt lat="48.31197" lon="2.61901">
        <ele>104.80000305176</ele>
        <time>2014-02-02T11:57:49Z</time>
      </trkpt>
      <trkpt lat="48.31196" lon="2.6191">
        <ele>104.19999694824</ele>
        <time>2014-02-02T11:57:50Z</time>
      </trkpt>
      <trkpt lat="48.31194" lon="2.6192">
        <ele>103.80000305176</ele>
        <time>2014-02-02T11:57:51Z</time>
      </trkpt>
      <trkpt lat="48.31194" lon="2.61929">
        <ele>103.19999694824</ele>
        <time>2014-02-02T11:57:52Z</time>
      </trkpt>
      <trkpt lat="48.31194" lon="2.6194">
        <ele>102.59999847412</ele>
        <time>2014-02-02T11:57:53Z</time>
      </trkpt>
      <trkpt lat="48.31195" lon="2.61951">
        <ele>102</ele>
        <time>2014-02-02T11:57:54Z</time>
      </trkpt>
      <trkpt lat="48.31197" lon="2.61961">
        <ele>101.40000152588</ele>
        <time>2014-02-02T11:57:55Z</time>
      </trkpt>
      <trkpt lat="48.31199" lon="2.61971">
        <ele>100.80000305176</ele>
        <time>2014-02-02T11:57:56Z</time>
      </trkpt>
      <trkpt lat="48.31205" lon="2.6199">
        <ele>100.40000152588</ele>
        <time>2014-02-02T11:57:58Z</time>
      </trkpt>
      <trkpt lat="48.31208" lon="2.61999">
        <ele>99.800003051758</ele>
        <time>2014-02-02T11:57:59Z</time>
      </trkpt>
      <trkpt lat="48.31211" lon="2.62009">
        <ele>99.400001525879</ele>
        <time>2014-02-02T11:58:00Z</time>
      </trkpt>
      <trkpt lat="48.31215" lon="2.62019">
        <ele>99</ele>
        <time>2014-02-02T11:58:01Z</time>
      </trkpt>
      <trkpt lat="48.31217" lon="2.62028">
        <ele>98.400001525879</ele>
        <time>2014-02-02T11:58:02Z</time>
      </trkpt>
      <trkpt lat="48.3122" lon="2.62047">
        <ele>98.400001525879</ele>
        <time>2014-02-02T11:58:04Z</time>
      </trkpt>
      <trkpt lat="48.31218" lon="2.62066">
        <ele>98.400001525879</ele>
        <time>2014-02-02T11:58:06Z</time>
      </trkpt>
      <trkpt lat="48.31217" lon="2.62074">
        <ele>98</ele>
        <time>2014-02-02T11:58:07Z</time>
      </trkpt>
      <trkpt lat="48.31215" lon="2.62082">
        <ele>97.599998474121</ele>
        <time>2014-02-02T11:58:08Z</time>
      </trkpt>
      <trkpt lat="48.31215" lon="2.62091">
        <ele>97</ele>
        <time>2014-02-02T11:58:09Z</time>
      </trkpt>
      <trkpt lat="48.31215" lon="2.621">
        <ele>96.599998474121</ele>
        <time>2014-02-02T11:58:10Z</time>
      </trkpt>
      <trkpt lat="48.31213" lon="2.62109">
        <ele>96.199996948242</ele>
        <time>2014-02-02T11:58:11Z</time>
      </trkpt>
      <trkpt lat="48.31211" lon="2.62117">
        <ele>96.199996948242</ele>
        <time>2014-02-02T11:58:12Z</time>
      </trkpt>
      <trkpt lat="48.312" lon="2.62165">
        <ele>96.199996948242</ele>
        <time>2014-02-02T11:58:17Z</time>
      </trkpt>
      <trkpt lat="48.31197" lon="2.62173">
        <ele>95.599998474121</ele>
        <time>2014-02-02T11:58:18Z</time>
      </trkpt>
      <trkpt lat="48.31196" lon="2.62181">
        <ele>95.199996948242</ele>
        <time>2014-02-02T11:58:19Z</time>
      </trkpt>
      <trkpt lat="48.31194" lon="2.62188">
        <ele>94.800003051758</ele>
        <time>2014-02-02T11:58:20Z</time>
      </trkpt>
      <trkpt lat="48.31192" lon="2.62197">
        <ele>94.199996948242</ele>
        <time>2014-02-02T11:58:21Z</time>
      </trkpt>
      <trkpt lat="48.31188" lon="2.62205">
        <ele>93.800003051758</ele>
        <time>2014-02-02T11:58:22Z</time>
      </trkpt>
      <trkpt lat="48.31174" lon="2.62225">
        <ele>93.400001525879</ele>
        <time>2014-02-02T11:58:25Z</time>
      </trkpt>
      <trkpt lat="48.3117" lon="2.62232">
        <ele>93</ele>
        <time>2014-02-02T11:58:26Z</time>
      </trkpt>
      <trkpt lat="48.31166" lon="2.62241">
        <ele>92.599998474121</ele>
        <time>2014-02-02T11:58:27Z</time>
      </trkpt>
      <trkpt lat="48.31163" lon="2.62248">
        <ele>92.199996948242</ele>
        <time>2014-02-02T11:58:28Z</time>
      </trkpt>
      <trkpt lat="48.3116" lon="2.62256">
        <ele>91.800003051758</ele>
        <time>2014-02-02T11:58:29Z</time>
      </trkpt>
      <trkpt lat="48.31154" lon="2.62273">
        <ele>91.800003051758</ele>
        <time>2014-02-02T11:58:31Z</time>
      </trkpt>
      <trkpt lat="48.31148" lon="2.62291">
        <ele>91.199996948242</ele>
        <time>2014-02-02T11:58:33Z</time>
      </trkpt>
      <trkpt lat="48.31144" lon="2.62299">
        <ele>90.800003051758</ele>
        <time>2014-02-02T11:58:34Z</time>
      </trkpt>
      <trkpt lat="48.31141" lon="2.62306">
        <ele>90.400001525879</ele>
        <time>2014-02-02T11:58:35Z</time>
      </trkpt>
      <trkpt lat="48.31137" lon="2.62314">
        <ele>90</ele>
        <time>2014-02-02T11:58:36Z</time>
      </trkpt>
      <trkpt lat="48.31133" lon="2.6232">
        <ele>89.599998474121</ele>
        <time>2014-02-02T11:58:37Z</time>
      </trkpt>
      <trkpt lat="48.31115" lon="2.62361">
        <ele>89.599998474121</ele>
        <time>2014-02-02T11:58:43Z</time>
      </trkpt>
      <trkpt lat="48.31104" lon="2.6241">
        <ele>89.599998474121</ele>
        <time>2014-02-02T11:58:49Z</time>
      </trkpt>
      <trkpt lat="48.31096" lon="2.62457">
        <ele>89.599998474121</ele>
        <time>2014-02-02T11:58:55Z</time>
      </trkpt>
      <trkpt lat="48.31097" lon="2.62465">
        <ele>89.599998474121</ele>
        <time>2014-02-02T11:58:56Z</time>
      </trkpt>
      <trkpt lat="48.31092" lon="2.62479">
        <ele>89.199996948242</ele>
        <time>2014-02-02T11:58:58Z</time>
      </trkpt>
      <trkpt lat="48.31089" lon="2.62485">
        <ele>88.800003051758</ele>
        <time>2014-02-02T11:58:59Z</time>
      </trkpt>
      <trkpt lat="48.31086" lon="2.62489">
        <ele>88.400001525879</ele>
        <time>2014-02-02T11:59:00Z</time>
      </trkpt>
      <trkpt lat="48.31083" lon="2.62491">
        <ele>88</ele>
        <time>2014-02-02T11:59:01Z</time>
      </trkpt>
      <trkpt lat="48.31078" lon="2.62487">
        <ele>87.599998474121</ele>
        <time>2014-02-02T11:59:02Z</time>
      </trkpt>
      <trkpt lat="48.31074" lon="2.62485">
        <ele>87.599998474121</ele>
        <time>2014-02-02T11:59:03Z</time>
      </trkpt>
      <trkpt lat="48.31058" lon="2.62468">
        <ele>87.599998474121</ele>
        <time>2014-02-02T11:59:08Z</time>
      </trkpt>
      <trkpt lat="48.31049" lon="2.62445">
        <ele>87.599998474121</ele>
        <time>2014-02-02T11:59:14Z</time>
      </trkpt>
      <trkpt lat="48.31044" lon="2.6241">
        <ele>87.599998474121</ele>
        <time>2014-02-02T11:59:21Z</time>
      </trkpt>
      <trkpt lat="48.3104" lon="2.62387">
        <ele>88</ele>
        <time>2014-02-02T11:59:27Z</time>
      </trkpt>
      <trkpt lat="48.31039" lon="2.62383">
        <ele>88.400001525879</ele>
        <time>2014-02-02T11:59:28Z</time>
      </trkpt>
      <trkpt lat="48.31038" lon="2.6238">
        <ele>88.800003051758</ele>
        <time>2014-02-02T11:59:29Z</time>
      </trkpt>
      <trkpt lat="48.31038" lon="2.62377">
        <ele>89.199996948242</ele>
        <time>2014-02-02T11:59:30Z</time>
      </trkpt>
      <trkpt lat="48.31037" lon="2.62373">
        <ele>89.599998474121</ele>
        <time>2014-02-02T11:59:31Z</time>
      </trkpt>
      <trkpt lat="48.31036" lon="2.62366">
        <ele>89.599998474121</ele>
        <time>2014-02-02T11:59:33Z</time>
      </trkpt>
      <trkpt lat="48.3103" lon="2.62339">
        <ele>89.599998474121</ele>
        <time>2014-02-02T11:59:40Z</time>
      </trkpt>
      <trkpt lat="48.31028" lon="2.62332">
        <ele>90</ele>
        <time>2014-02-02T11:59:42Z</time>
      </trkpt>
      <trkpt lat="48.31027" lon="2.62329">
        <ele>90.400001525879</ele>
        <time>2014-02-02T11:59:43Z</time>
      </trkpt>
      <trkpt lat="48.31026" lon="2.62326">
        <ele>90.800003051758</ele>
        <time>2014-02-02T11:59:44Z</time>
      </trkpt>
      <trkpt lat="48.31025" lon="2.62322">
        <ele>91.199996948242</ele>
        <time>2014-02-02T11:59:45Z</time>
      </trkpt>
      <trkpt lat="48.31024" lon="2.62316">
        <ele>91.599998474121</ele>
        <time>2014-02-02T11:59:46Z</time>
      </trkpt>
      <trkpt lat="48.31021" lon="2.62309">
        <ele>91.599998474121</ele>
        <time>2014-02-02T11:59:47Z</time>
      </trkpt>
      <trkpt lat="48.31014" lon="2.62283">
        <ele>91.599998474121</ele>
        <time>2014-02-02T11:59:54Z</time>
      </trkpt>
      <trkpt lat="48.31011" lon="2.62261">
        <ele>92.199996948242</ele>
        <time>2014-02-02T12:00:00Z</time>
      </trkpt>
      <trkpt lat="48.3101" lon="2.62258">
        <ele>92.599998474121</ele>
        <time>2014-02-02T12:00:01Z</time>
      </trkpt>
      <trkpt lat="48.31009" lon="2.62254">
        <ele>93</ele>
        <time>2014-02-02T12:00:02Z</time>
      </trkpt>
      <trkpt lat="48.31008" lon="2.6225">
        <ele>93.400001525879</ele>
        <time>2014-02-02T12:00:03Z</time>
      </trkpt>
      <trkpt lat="48.31007" lon="2.62246">
        <ele>93.800003051758</ele>
        <time>2014-02-02T12:00:04Z</time>
      </trkpt>
      <trkpt lat="48.31005" lon="2.62235">
        <ele>93.800003051758</ele>
        <time>2014-02-02T12:00:07Z</time>
      </trkpt>
      <trkpt lat="48.30999" lon="2.62208">
        <ele>93.800003051758</ele>
        <time>2014-02-02T12:00:15Z</time>
      </trkpt>
      <trkpt lat="48.30995" lon="2.62198">
        <ele>94.199996948242</ele>
        <time>2014-02-02T12:00:18Z</time>
      </trkpt>
      <trkpt lat="48.30994" lon="2.62195">
        <ele>94.599998474121</ele>
        <time>2014-02-02T12:00:19Z</time>
      </trkpt>
      <trkpt lat="48.30994" lon="2.62191">
        <ele>95.199996948242</ele>
        <time>2014-02-02T12:00:20Z</time>
      </trkpt>
      <trkpt lat="48.30994" lon="2.62187">
        <ele>95.599998474121</ele>
        <time>2014-02-02T12:00:21Z</time>
      </trkpt>
      <trkpt lat="48.30994" lon="2.62185">
        <ele>96</ele>
        <time>2014-02-02T12:00:22Z</time>
      </trkpt>
      <trkpt lat="48.30986" lon="2.62155">
        <ele>96</ele>
        <time>2014-02-02T12:00:31Z</time>
      </trkpt>
      <trkpt lat="48.30982" lon="2.62141">
        <ele>96.400001525879</ele>
        <time>2014-02-02T12:00:35Z</time>
      </trkpt>
      <trkpt lat="48.30982" lon="2.62139">
        <ele>96.800003051758</ele>
        <time>2014-02-02T12:00:36Z</time>
      </trkpt>
      <trkpt lat="48.30982" lon="2.62137">
        <ele>97.199996948242</ele>
        <time>2014-02-02T12:00:37Z</time>
      </trkpt>
      <trkpt lat="48.30982" lon="2.62135">
        <ele>97.599998474121</ele>
        <time>2014-02-02T12:00:38Z</time>
      </trkpt>
      <trkpt lat="48.30981" lon="2.62134">
        <ele>98</ele>
        <time>2014-02-02T12:00:39Z</time>
      </trkpt>
      <trkpt lat="48.30978" lon="2.62122">
        <ele>98</ele>
        <time>2014-02-02T12:00:43Z</time>
      </trkpt>
      <trkpt lat="48.30975" lon="2.62111">
        <ele>98.400001525879</ele>
        <time>2014-02-02T12:00:48Z</time>
      </trkpt>
      <trkpt lat="48.30975" lon="2.62108">
        <ele>98.800003051758</ele>
        <time>2014-02-02T12:00:49Z</time>
      </trkpt>
      <trkpt lat="48.30973" lon="2.62105">
        <ele>99.199996948242</ele>
        <time>2014-02-02T12:00:50Z</time>
      </trkpt>
      <trkpt lat="48.30966" lon="2.62102">
        <ele>99.599998474121</ele>
        <time>2014-02-02T12:00:51Z</time>
      </trkpt>
      <trkpt lat="48.30964" lon="2.621">
        <ele>100</ele>
        <time>2014-02-02T12:00:52Z</time>
      </trkpt>
      <trkpt lat="48.30953" lon="2.62093">
        <ele>100.59999847412</ele>
        <time>2014-02-02T12:00:56Z</time>
      </trkpt>
      <trkpt lat="48.3095" lon="2.62091">
        <ele>101</ele>
        <time>2014-02-02T12:00:57Z</time>
      </trkpt>
      <trkpt lat="48.30949" lon="2.62091">
        <ele>101.59999847412</ele>
        <time>2014-02-02T12:00:58Z</time>
      </trkpt>
      <trkpt lat="48.30947" lon="2.6209">
        <ele>102</ele>
        <time>2014-02-02T12:00:59Z</time>
      </trkpt>
      <trkpt lat="48.30944" lon="2.6209">
        <ele>102.40000152588</ele>
        <time>2014-02-02T12:01:00Z</time>
      </trkpt>
      <trkpt lat="48.30932" lon="2.62091">
        <ele>102.40000152588</ele>
        <time>2014-02-02T12:01:06Z</time>
      </trkpt>
      <trkpt lat="48.30919" lon="2.6209">
        <ele>102.40000152588</ele>
        <time>2014-02-02T12:01:14Z</time>
      </trkpt>
      <trkpt lat="48.30919" lon="2.6209">
        <ele>102.80000305176</ele>
        <time>2014-02-02T12:01:15Z</time>
      </trkpt>
      <trkpt lat="48.30917" lon="2.62089">
        <ele>103.19999694824</ele>
        <time>2014-02-02T12:01:16Z</time>
      </trkpt>
      <trkpt lat="48.30915" lon="2.62087">
        <ele>103.59999847412</ele>
        <time>2014-02-02T12:01:17Z</time>
      </trkpt>
      <trkpt lat="48.30914" lon="2.62086">
        <ele>104</ele>
        <time>2014-02-02T12:01:18Z</time>
      </trkpt>
      <trkpt lat="48.30913" lon="2.62083">
        <ele>104.40000152588</ele>
        <time>2014-02-02T12:01:19Z</time>
      </trkpt>
      <trkpt lat="48.30912" lon="2.6208">
        <ele>104.40000152588</ele>
        <time>2014-02-02T12:01:20Z</time>
      </trkpt>
      <trkpt lat="48.30909" lon="2.62058">
        <ele>104.40000152588</ele>
        <time>2014-02-02T12:01:28Z</time>
      </trkpt>
      <trkpt lat="48.3091" lon="2.62055">
        <ele>104.40000152588</ele>
        <time>2014-02-02T12:01:29Z</time>
      </trkpt>
      <trkpt lat="48.3091" lon="2.62046">
        <ele>104.40000152588</ele>
        <time>2014-02-02T12:01:32Z</time>
      </trkpt>
      <trkpt lat="48.30909" lon="2.62044">
        <ele>104.40000152588</ele>
        <time>2014-02-02T12:01:33Z</time>
      </trkpt>
      <trkpt lat="48.30906" lon="2.62031">
        <ele>104.40000152588</ele>
        <time>2014-02-02T12:01:37Z</time>
      </trkpt>
      <trkpt lat="48.30901" lon="2.62012">
        <ele>104.40000152588</ele>
        <time>2014-02-02T12:01:44Z</time>
      </trkpt>
      <trkpt lat="48.30901" lon="2.62009">
        <ele>105</ele>
        <time>2014-02-02T12:01:45Z</time>
      </trkpt>
      <trkpt lat="48.309" lon="2.62008">
        <ele>105.40000152588</ele>
        <time>2014-02-02T12:01:46Z</time>
      </trkpt>
      <trkpt lat="48.30899" lon="2.62006">
        <ele>105.80000305176</ele>
        <time>2014-02-02T12:01:47Z</time>
      </trkpt>
      <trkpt lat="48.30898" lon="2.62005">
        <ele>106.19999694824</ele>
        <time>2014-02-02T12:01:48Z</time>
      </trkpt>
      <trkpt lat="48.30898" lon="2.62002">
        <ele>106.59999847412</ele>
        <time>2014-02-02T12:01:49Z</time>
      </trkpt>
      <trkpt lat="48.30898" lon="2.62001">
        <ele>106.59999847412</ele>
        <time>2014-02-02T12:01:50Z</time>
      </trkpt>
      <trkpt lat="48.309" lon="2.61985">
        <ele>107</ele>
        <time>2014-02-02T12:01:56Z</time>
      </trkpt>
      <trkpt lat="48.30901" lon="2.61984">
        <ele>107.40000152588</ele>
        <time>2014-02-02T12:01:57Z</time>
      </trkpt>
      <trkpt lat="48.30901" lon="2.61982">
        <ele>108</ele>
        <time>2014-02-02T12:01:58Z</time>
      </trkpt>
      <trkpt lat="48.309" lon="2.6198">
        <ele>108.40000152588</ele>
        <time>2014-02-02T12:01:59Z</time>
      </trkpt>
      <trkpt lat="48.309" lon="2.61979">
        <ele>108.80000305176</ele>
        <time>2014-02-02T12:02:00Z</time>
      </trkpt>
      <trkpt lat="48.30899" lon="2.61974">
        <ele>108.80000305176</ele>
        <time>2014-02-02T12:02:07Z</time>
      </trkpt>
      <trkpt lat="48.30898" lon="2.61971">
        <ele>109.19999694824</ele>
        <time>2014-02-02T12:02:08Z</time>
      </trkpt>
      <trkpt lat="48.30898" lon="2.61969">
        <ele>109.59999847412</ele>
        <time>2014-02-02T12:02:09Z</time>
      </trkpt>
      <trkpt lat="48.30898" lon="2.61965">
        <ele>110</ele>
        <time>2014-02-02T12:02:10Z</time>
      </trkpt>
      <trkpt lat="48.30897" lon="2.61963">
        <ele>110.59999847412</ele>
        <time>2014-02-02T12:02:11Z</time>
      </trkpt>
      <trkpt lat="48.30897" lon="2.61961">
        <ele>111</ele>
        <time>2014-02-02T12:02:12Z</time>
      </trkpt>
      <trkpt lat="48.30891" lon="2.61948">
        <ele>111</ele>
        <time>2014-02-02T12:02:17Z</time>
      </trkpt>
      <trkpt lat="48.30888" lon="2.61945">
        <ele>111.40000152588</ele>
        <time>2014-02-02T12:02:19Z</time>
      </trkpt>
      <trkpt lat="48.30888" lon="2.61942">
        <ele>112</ele>
        <time>2014-02-02T12:02:20Z</time>
      </trkpt>
      <trkpt lat="48.30888" lon="2.6194">
        <ele>112.40000152588</ele>
        <time>2014-02-02T12:02:21Z</time>
      </trkpt>
      <trkpt lat="48.30887" lon="2.61936">
        <ele>113.40000152588</ele>
        <time>2014-02-02T12:02:23Z</time>
      </trkpt>
      <trkpt lat="48.30883" lon="2.61923">
        <ele>113.80000305176</ele>
        <time>2014-02-02T12:02:29Z</time>
      </trkpt>
      <trkpt lat="48.30882" lon="2.61921">
        <ele>114.40000152588</ele>
        <time>2014-02-02T12:02:30Z</time>
      </trkpt>
      <trkpt lat="48.30883" lon="2.61919">
        <ele>114.80000305176</ele>
        <time>2014-02-02T12:02:31Z</time>
      </trkpt>
      <trkpt lat="48.30882" lon="2.61917">
        <ele>115.19999694824</ele>
        <time>2014-02-02T12:02:32Z</time>
      </trkpt>
      <trkpt lat="48.30882" lon="2.61916">
        <ele>115.80000305176</ele>
        <time>2014-02-02T12:02:33Z</time>
      </trkpt>
      <trkpt lat="48.3088" lon="2.61914">
        <ele>115.80000305176</ele>
        <time>2014-02-02T12:02:34Z</time>
      </trkpt>
      <trkpt lat="48.3088" lon="2.6191">
        <ele>115.80000305176</ele>
        <time>2014-02-02T12:02:37Z</time>
      </trkpt>
      <trkpt lat="48.30874" lon="2.61884">
        <ele>115.80000305176</ele>
        <time>2014-02-02T12:02:45Z</time>
      </trkpt>
      <trkpt lat="48.30869" lon="2.61877">
        <ele>116.19999694824</ele>
        <time>2014-02-02T12:02:49Z</time>
      </trkpt>
      <trkpt lat="48.30867" lon="2.61874">
        <ele>117</ele>
        <time>2014-02-02T12:02:51Z</time>
      </trkpt>
      <trkpt lat="48.30867" lon="2.61872">
        <ele>117.40000152588</ele>
        <time>2014-02-02T12:02:52Z</time>
      </trkpt>
      <trkpt lat="48.30867" lon="2.61871">
        <ele>117.80000305176</ele>
        <time>2014-02-02T12:02:53Z</time>
      </trkpt>
      <trkpt lat="48.30864" lon="2.61864">
        <ele>117.80000305176</ele>
        <time>2014-02-02T12:02:57Z</time>
      </trkpt>
      <trkpt lat="48.3086" lon="2.61849">
        <ele>117.80000305176</ele>
        <time>2014-02-02T12:03:05Z</time>
      </trkpt>
      <trkpt lat="48.30858" lon="2.61844">
        <ele>118.19999694824</ele>
        <time>2014-02-02T12:03:09Z</time>
      </trkpt>
      <trkpt lat="48.30857" lon="2.61842">
        <ele>118.59999847412</ele>
        <time>2014-02-02T12:03:10Z</time>
      </trkpt>
      <trkpt lat="48.30856" lon="2.61839">
        <ele>119.40000152588</ele>
        <time>2014-02-02T12:03:12Z</time>
      </trkpt>
      <trkpt lat="48.30856" lon="2.61838">
        <ele>119.40000152588</ele>
        <time>2014-02-02T12:03:13Z</time>
      </trkpt>
      <trkpt lat="48.30855" lon="2.61835">
        <ele>119.80000305176</ele>
        <time>2014-02-02T12:03:14Z</time>
      </trkpt>
      <trkpt lat="48.30846" lon="2.61825">
        <ele>120.40000152588</ele>
        <time>2014-02-02T12:03:20Z</time>
      </trkpt>
      <trkpt lat="48.30846" lon="2.61823">
        <ele>120.80000305176</ele>
        <time>2014-02-02T12:03:21Z</time>
      </trkpt>
      <trkpt lat="48.30845" lon="2.61822">
        <ele>121.19999694824</ele>
        <time>2014-02-02T12:03:22Z</time>
      </trkpt>
      <trkpt lat="48.30845" lon="2.6182">
        <ele>121.59999847412</ele>
        <time>2014-02-02T12:03:23Z</time>
      </trkpt>
      <trkpt lat="48.30844" lon="2.61818">
        <ele>122.19999694824</ele>
        <time>2014-02-02T12:03:24Z</time>
      </trkpt>
      <trkpt lat="48.30843" lon="2.61814">
        <ele>122.19999694824</ele>
        <time>2014-02-02T12:03:27Z</time>
      </trkpt>
      <trkpt lat="48.30841" lon="2.61794">
        <ele>122.19999694824</ele>
        <time>2014-02-02T12:03:37Z</time>
      </trkpt>
      <trkpt lat="48.30834" lon="2.61772">
        <ele>122.19999694824</ele>
        <time>2014-02-02T12:03:45Z</time>
      </trkpt>
      <trkpt lat="48.30825" lon="2.61757">
        <ele>122.19999694824</ele>
        <time>2014-02-02T12:03:50Z</time>
      </trkpt>
      <trkpt lat="48.3082" lon="2.61752">
        <ele>122.59999847412</ele>
        <time>2014-02-02T12:03:52Z</time>
      </trkpt>
      <trkpt lat="48.30819" lon="2.61749">
        <ele>123</ele>
        <time>2014-02-02T12:03:53Z</time>
      </trkpt>
      <trkpt lat="48.30817" lon="2.61746">
        <ele>123.40000152588</ele>
        <time>2014-02-02T12:03:54Z</time>
      </trkpt>
      <trkpt lat="48.30817" lon="2.61743">
        <ele>123.80000305176</ele>
        <time>2014-02-02T12:03:55Z</time>
      </trkpt>
      <trkpt lat="48.30816" lon="2.61739">
        <ele>124.19999694824</ele>
        <time>2014-02-02T12:03:56Z</time>
      </trkpt>
      <trkpt lat="48.30807" lon="2.61712">
        <ele>124.19999694824</ele>
        <time>2014-02-02T12:04:03Z</time>
      </trkpt>
      <trkpt lat="48.30808" lon="2.61685">
        <ele>124.19999694824</ele>
        <time>2014-02-02T12:04:10Z</time>
      </trkpt>
      <trkpt lat="48.30806" lon="2.61649">
        <ele>124.19999694824</ele>
        <time>2014-02-02T12:04:18Z</time>
      </trkpt>
      <trkpt lat="48.30803" lon="2.61622">
        <ele>124.19999694824</ele>
        <time>2014-02-02T12:04:24Z</time>
      </trkpt>
      <trkpt lat="48.30804" lon="2.61603">
        <ele>124.19999694824</ele>
        <time>2014-02-02T12:04:29Z</time>
      </trkpt>
      <trkpt lat="48.30806" lon="2.61601">
        <ele>124.19999694824</ele>
        <time>2014-02-02T12:04:30Z</time>
      </trkpt>
      <trkpt lat="48.30813" lon="2.61595">
        <ele>124.19999694824</ele>
        <time>2014-02-02T12:04:34Z</time>
      </trkpt>
      <trkpt lat="48.30816" lon="2.61595">
        <ele>124.19999694824</ele>
        <time>2014-02-02T12:04:35Z</time>
      </trkpt>
      <trkpt lat="48.30827" lon="2.61588">
        <ele>124.19999694824</ele>
        <time>2014-02-02T12:04:40Z</time>
      </trkpt>
      <trkpt lat="48.30841" lon="2.61583">
        <ele>124.19999694824</ele>
        <time>2014-02-02T12:04:45Z</time>
      </trkpt>
      <trkpt lat="48.3086" lon="2.61579">
        <ele>124.19999694824</ele>
        <time>2014-02-02T12:04:51Z</time>
      </trkpt>
      <trkpt lat="48.30871" lon="2.6158">
        <ele>124.19999694824</ele>
        <time>2014-02-02T12:04:56Z</time>
      </trkpt>
      <trkpt lat="48.30873" lon="2.6158">
        <ele>124.19999694824</ele>
        <time>2014-02-02T12:04:57Z</time>
      </trkpt>
      <trkpt lat="48.30877" lon="2.61579">
        <ele>124.19999694824</ele>
        <time>2014-02-02T12:04:59Z</time>
      </trkpt>
      <trkpt lat="48.30879" lon="2.6158">
        <ele>124.19999694824</ele>
        <time>2014-02-02T12:05:00Z</time>
      </trkpt>
      <trkpt lat="48.30894" lon="2.61583">
        <ele>124.59999847412</ele>
        <time>2014-02-02T12:05:06Z</time>
      </trkpt>
      <trkpt lat="48.30897" lon="2.61582">
        <ele>125</ele>
        <time>2014-02-02T12:05:07Z</time>
      </trkpt>
      <trkpt lat="48.30899" lon="2.61581">
        <ele>125.40000152588</ele>
        <time>2014-02-02T12:05:08Z</time>
      </trkpt>
      <trkpt lat="48.30901" lon="2.61582">
        <ele>125.80000305176</ele>
        <time>2014-02-02T12:05:09Z</time>
      </trkpt>
      <trkpt lat="48.30902" lon="2.61582">
        <ele>126.19999694824</ele>
        <time>2014-02-02T12:05:10Z</time>
      </trkpt>
      <trkpt lat="48.30906" lon="2.61581">
        <ele>126.19999694824</ele>
        <time>2014-02-02T12:05:12Z</time>
      </trkpt>
      <trkpt lat="48.30928" lon="2.61571">
        <ele>126.19999694824</ele>
        <time>2014-02-02T12:05:21Z</time>
      </trkpt>
      <trkpt lat="48.30945" lon="2.61565">
        <ele>126.19999694824</ele>
        <time>2014-02-02T12:05:27Z</time>
      </trkpt>
      <trkpt lat="48.30952" lon="2.61565">
        <ele>126.19999694824</ele>
        <time>2014-02-02T12:05:30Z</time>
      </trkpt>
      <trkpt lat="48.3096" lon="2.61567">
        <ele>126.19999694824</ele>
        <time>2014-02-02T12:05:33Z</time>
      </trkpt>
      <trkpt lat="48.30967" lon="2.61566">
        <ele>126.59999847412</ele>
        <time>2014-02-02T12:05:36Z</time>
      </trkpt>
      <trkpt lat="48.30968" lon="2.61567">
        <ele>127.19999694824</ele>
        <time>2014-02-02T12:05:37Z</time>
      </trkpt>
      <trkpt lat="48.3097" lon="2.61567">
        <ele>127.59999847412</ele>
        <time>2014-02-02T12:05:38Z</time>
      </trkpt>
      <trkpt lat="48.30972" lon="2.61565">
        <ele>128</ele>
        <time>2014-02-02T12:05:39Z</time>
      </trkpt>
      <trkpt lat="48.30974" lon="2.61564">
        <ele>128.39999389648</ele>
        <time>2014-02-02T12:05:40Z</time>
      </trkpt>
      <trkpt lat="48.30986" lon="2.6155">
        <ele>128.39999389648</ele>
        <time>2014-02-02T12:05:48Z</time>
      </trkpt>
      <trkpt lat="48.30993" lon="2.61533">
        <ele>128.39999389648</ele>
        <time>2014-02-02T12:05:55Z</time>
      </trkpt>
      <trkpt lat="48.30994" lon="2.61519">
        <ele>128.39999389648</ele>
        <time>2014-02-02T12:06:03Z</time>
      </trkpt>
      <trkpt lat="48.30995" lon="2.61517">
        <ele>128.39999389648</ele>
        <time>2014-02-02T12:06:04Z</time>
      </trkpt>
      <trkpt lat="48.31" lon="2.615">
        <ele>128.39999389648</ele>
        <time>2014-02-02T12:06:11Z</time>
      </trkpt>
      <trkpt lat="48.30997" lon="2.61491">
        <ele>128.39999389648</ele>
        <time>2014-02-02T12:06:15Z</time>
      </trkpt>
      <trkpt lat="48.30998" lon="2.61488">
        <ele>128.39999389648</ele>
        <time>2014-02-02T12:06:17Z</time>
      </trkpt>
      <trkpt lat="48.31004" lon="2.61481">
        <ele>128</ele>
        <time>2014-02-02T12:06:21Z</time>
      </trkpt>
      <trkpt lat="48.31005" lon="2.61478">
        <ele>127.59999847412</ele>
        <time>2014-02-02T12:06:22Z</time>
      </trkpt>
      <trkpt lat="48.31005" lon="2.61475">
        <ele>127.19999694824</ele>
        <time>2014-02-02T12:06:23Z</time>
      </trkpt>
      <trkpt lat="48.31005" lon="2.61473">
        <ele>126.59999847412</ele>
        <time>2014-02-02T12:06:24Z</time>
      </trkpt>
      <trkpt lat="48.31005" lon="2.61471">
        <ele>126</ele>
        <time>2014-02-02T12:06:25Z</time>
      </trkpt>
      <trkpt lat="48.31005" lon="2.61469">
        <ele>125.19999694824</ele>
        <time>2014-02-02T12:06:26Z</time>
      </trkpt>
      <trkpt lat="48.31006" lon="2.61466">
        <ele>124.59999847412</ele>
        <time>2014-02-02T12:06:27Z</time>
      </trkpt>
      <trkpt lat="48.31006" lon="2.61465">
        <ele>124</ele>
        <time>2014-02-02T12:06:28Z</time>
      </trkpt>
      <trkpt lat="48.31007" lon="2.61463">
        <ele>123.19999694824</ele>
        <time>2014-02-02T12:06:29Z</time>
      </trkpt>
      <trkpt lat="48.31007" lon="2.61462">
        <ele>122.59999847412</ele>
        <time>2014-02-02T12:06:30Z</time>
      </trkpt>
      <trkpt lat="48.31007" lon="2.61459">
        <ele>122</ele>
        <time>2014-02-02T12:06:31Z</time>
      </trkpt>
      <trkpt lat="48.31008" lon="2.61454">
        <ele>121.40000152588</ele>
        <time>2014-02-02T12:06:33Z</time>
      </trkpt>
      <trkpt lat="48.31009" lon="2.61452">
        <ele>120.59999847412</ele>
        <time>2014-02-02T12:06:34Z</time>
      </trkpt>
      <trkpt lat="48.31009" lon="2.61448">
        <ele>120</ele>
        <time>2014-02-02T12:06:35Z</time>
      </trkpt>
      <trkpt lat="48.31008" lon="2.61443">
        <ele>119.40000152588</ele>
        <time>2014-02-02T12:06:36Z</time>
      </trkpt>
      <trkpt lat="48.31007" lon="2.61441">
        <ele>118.59999847412</ele>
        <time>2014-02-02T12:06:37Z</time>
      </trkpt>
      <trkpt lat="48.31007" lon="2.61438">
        <ele>118</ele>
        <time>2014-02-02T12:06:38Z</time>
      </trkpt>
      <trkpt lat="48.31006" lon="2.61434">
        <ele>117.19999694824</ele>
        <time>2014-02-02T12:06:39Z</time>
      </trkpt>
      <trkpt lat="48.31005" lon="2.61429">
        <ele>116.40000152588</ele>
        <time>2014-02-02T12:06:40Z</time>
      </trkpt>
      <trkpt lat="48.31001" lon="2.61421">
        <ele>116</ele>
        <time>2014-02-02T12:06:42Z</time>
      </trkpt>
      <trkpt lat="48.30999" lon="2.61418">
        <ele>115.59999847412</ele>
        <time>2014-02-02T12:06:43Z</time>
      </trkpt>
      <trkpt lat="48.30998" lon="2.61414">
        <ele>115</ele>
        <time>2014-02-02T12:06:44Z</time>
      </trkpt>
      <trkpt lat="48.30997" lon="2.61411">
        <ele>114.59999847412</ele>
        <time>2014-02-02T12:06:45Z</time>
      </trkpt>
      <trkpt lat="48.30996" lon="2.61408">
        <ele>114.19999694824</ele>
        <time>2014-02-02T12:06:46Z</time>
      </trkpt>
      <trkpt lat="48.30994" lon="2.61405">
        <ele>113.59999847412</ele>
        <time>2014-02-02T12:06:47Z</time>
      </trkpt>
      <trkpt lat="48.30993" lon="2.61403">
        <ele>113.19999694824</ele>
        <time>2014-02-02T12:06:48Z</time>
      </trkpt>
      <trkpt lat="48.30993" lon="2.61399">
        <ele>112.59999847412</ele>
        <time>2014-02-02T12:06:49Z</time>
      </trkpt>
      <trkpt lat="48.30992" lon="2.61396">
        <ele>112</ele>
        <time>2014-02-02T12:06:50Z</time>
      </trkpt>
      <trkpt lat="48.30991" lon="2.61394">
        <ele>111.40000152588</ele>
        <time>2014-02-02T12:06:51Z</time>
      </trkpt>
      <trkpt lat="48.3099" lon="2.61391">
        <ele>110.80000305176</ele>
        <time>2014-02-02T12:06:52Z</time>
      </trkpt>
      <trkpt lat="48.30988" lon="2.61387">
        <ele>110</ele>
        <time>2014-02-02T12:06:53Z</time>
      </trkpt>
      <trkpt lat="48.30985" lon="2.61381">
        <ele>109.40000152588</ele>
        <time>2014-02-02T12:06:54Z</time>
      </trkpt>
      <trkpt lat="48.30983" lon="2.61377">
        <ele>108.59999847412</ele>
        <time>2014-02-02T12:06:55Z</time>
      </trkpt>
      <trkpt lat="48.30982" lon="2.61373">
        <ele>107.80000305176</ele>
        <time>2014-02-02T12:06:56Z</time>
      </trkpt>
      <trkpt lat="48.3098" lon="2.6137">
        <ele>107</ele>
        <time>2014-02-02T12:06:57Z</time>
      </trkpt>
      <trkpt lat="48.30978" lon="2.61367">
        <ele>106.19999694824</ele>
        <time>2014-02-02T12:06:58Z</time>
      </trkpt>
      <trkpt lat="48.30975" lon="2.61366">
        <ele>105.40000152588</ele>
        <time>2014-02-02T12:06:59Z</time>
      </trkpt>
      <trkpt lat="48.30972" lon="2.61363">
        <ele>104.59999847412</ele>
        <time>2014-02-02T12:07:00Z</time>
      </trkpt>
      <trkpt lat="48.30969" lon="2.6136">
        <ele>103.80000305176</ele>
        <time>2014-02-02T12:07:01Z</time>
      </trkpt>
      <trkpt lat="48.30966" lon="2.61356">
        <ele>103</ele>
        <time>2014-02-02T12:07:02Z</time>
      </trkpt>
      <trkpt lat="48.30963" lon="2.61352">
        <ele>102.59999847412</ele>
        <time>2014-02-02T12:07:03Z</time>
      </trkpt>
      <trkpt lat="48.30959" lon="2.61344">
        <ele>102.19999694824</ele>
        <time>2014-02-02T12:07:04Z</time>
      </trkpt>
      <trkpt lat="48.30957" lon="2.6134">
        <ele>101.59999847412</ele>
        <time>2014-02-02T12:07:05Z</time>
      </trkpt>
      <trkpt lat="48.30955" lon="2.6134">
        <ele>101.19999694824</ele>
        <time>2014-02-02T12:07:06Z</time>
      </trkpt>
      <trkpt lat="48.30954" lon="2.6134">
        <ele>100.80000305176</ele>
        <time>2014-02-02T12:07:07Z</time>
      </trkpt>
      <trkpt lat="48.30955" lon="2.61339">
        <ele>101.19999694824</ele>
        <time>2014-02-02T12:07:10Z</time>
      </trkpt>
      <trkpt lat="48.30955" lon="2.61339">
        <ele>101.59999847412</ele>
        <time>2014-02-02T12:07:11Z</time>
      </trkpt>
      <trkpt lat="48.30955" lon="2.61339">
        <ele>102</ele>
        <time>2014-02-02T12:07:12Z</time>
      </trkpt>
      <trkpt lat="48.30955" lon="2.61339">
        <ele>102.40000152588</ele>
        <time>2014-02-02T12:07:13Z</time>
      </trkpt>
      <trkpt lat="48.30955" lon="2.61339">
        <ele>102.80000305176</ele>
        <time>2014-02-02T12:07:14Z</time>
      </trkpt>
      <trkpt lat="48.30957" lon="2.61342">
        <ele>102.80000305176</ele>
        <time>2014-02-02T12:07:24Z</time>
      </trkpt>
      <trkpt lat="48.30961" lon="2.61345">
        <ele>102.80000305176</ele>
        <time>2014-02-02T12:07:25Z</time>
      </trkpt>
      <trkpt lat="48.30971" lon="2.61347">
        <ele>103.19999694824</ele>
        <time>2014-02-02T12:07:33Z</time>
      </trkpt>
      <trkpt lat="48.30972" lon="2.61346">
        <ele>103.80000305176</ele>
        <time>2014-02-02T12:07:34Z</time>
      </trkpt>
      <trkpt lat="48.30973" lon="2.61346">
        <ele>104.19999694824</ele>
        <time>2014-02-02T12:07:35Z</time>
      </trkpt>
      <trkpt lat="48.30975" lon="2.61345">
        <ele>104.59999847412</ele>
        <time>2014-02-02T12:07:36Z</time>
      </trkpt>
      <trkpt lat="48.30975" lon="2.61344">
        <ele>105</ele>
        <time>2014-02-02T12:07:37Z</time>
      </trkpt>
      <trkpt lat="48.30985" lon="2.61344">
        <ele>105</ele>
        <time>2014-02-02T12:07:45Z</time>
      </trkpt>
      <trkpt lat="48.30988" lon="2.61344">
        <ele>105.40000152588</ele>
        <time>2014-02-02T12:07:47Z</time>
      </trkpt>
      <trkpt lat="48.30989" lon="2.61344">
        <ele>105.80000305176</ele>
        <time>2014-02-02T12:07:48Z</time>
      </trkpt>
      <trkpt lat="48.30991" lon="2.61344">
        <ele>106.19999694824</ele>
        <time>2014-02-02T12:07:49Z</time>
      </trkpt>
      <trkpt lat="48.30993" lon="2.61345">
        <ele>106.80000305176</ele>
        <time>2014-02-02T12:07:50Z</time>
      </trkpt>
      <trkpt lat="48.30993" lon="2.61346">
        <ele>107.19999694824</ele>
        <time>2014-02-02T12:07:51Z</time>
      </trkpt>
      <trkpt lat="48.30996" lon="2.61345">
        <ele>107.59999847412</ele>
        <time>2014-02-02T12:07:53Z</time>
      </trkpt>
      <trkpt lat="48.30996" lon="2.61344">
        <ele>108</ele>
        <time>2014-02-02T12:07:54Z</time>
      </trkpt>
      <trkpt lat="48.30997" lon="2.61344">
        <ele>108.40000152588</ele>
        <time>2014-02-02T12:07:55Z</time>
      </trkpt>
      <trkpt lat="48.30998" lon="2.61343">
        <ele>108.80000305176</ele>
        <time>2014-02-02T12:07:56Z</time>
      </trkpt>
      <trkpt lat="48.30999" lon="2.61343">
        <ele>109.19999694824</ele>
        <time>2014-02-02T12:07:57Z</time>
      </trkpt>
      <trkpt lat="48.31015" lon="2.61332">
        <ele>109.19999694824</ele>
        <time>2014-02-02T12:08:12Z</time>
      </trkpt>
      <trkpt lat="48.31025" lon="2.61319">
        <ele>109.59999847412</ele>
        <time>2014-02-02T12:08:22Z</time>
      </trkpt>
      <trkpt lat="48.31026" lon="2.61318">
        <ele>110.19999694824</ele>
        <time>2014-02-02T12:08:23Z</time>
      </trkpt>
      <trkpt lat="48.31028" lon="2.61316">
        <ele>110.59999847412</ele>
        <time>2014-02-02T12:08:24Z</time>
      </trkpt>
      <trkpt lat="48.31028" lon="2.61316">
        <ele>111</ele>
        <time>2014-02-02T12:08:25Z</time>
      </trkpt>
      <trkpt lat="48.31029" lon="2.61315">
        <ele>111.40000152588</ele>
        <time>2014-02-02T12:08:26Z</time>
      </trkpt>
      <trkpt lat="48.31036" lon="2.61316">
        <ele>111.40000152588</ele>
        <time>2014-02-02T12:08:38Z</time>
      </trkpt>
      <trkpt lat="48.31041" lon="2.61318">
        <ele>111.80000305176</ele>
        <time>2014-02-02T12:08:44Z</time>
      </trkpt>
      <trkpt lat="48.31042" lon="2.61318">
        <ele>112.19999694824</ele>
        <time>2014-02-02T12:08:45Z</time>
      </trkpt>
      <trkpt lat="48.31042" lon="2.61319">
        <ele>112.59999847412</ele>
        <time>2014-02-02T12:08:46Z</time>
      </trkpt>
      <trkpt lat="48.31042" lon="2.61319">
        <ele>113</ele>
        <time>2014-02-02T12:08:47Z</time>
      </trkpt>
      <trkpt lat="48.31043" lon="2.6132">
        <ele>113.40000152588</ele>
        <time>2014-02-02T12:08:48Z</time>
      </trkpt>
      <trkpt lat="48.31048" lon="2.61324">
        <ele>113.40000152588</ele>
        <time>2014-02-02T12:08:58Z</time>
      </trkpt>
      <trkpt lat="48.31057" lon="2.61336">
        <ele>113.40000152588</ele>
        <time>2014-02-02T12:09:10Z</time>
      </trkpt>
      <trkpt lat="48.31058" lon="2.61338">
        <ele>114</ele>
        <time>2014-02-02T12:09:11Z</time>
      </trkpt>
      <trkpt lat="48.31058" lon="2.6134">
        <ele>114.40000152588</ele>
        <time>2014-02-02T12:09:12Z</time>
      </trkpt>
      <trkpt lat="48.31059" lon="2.61342">
        <ele>114.80000305176</ele>
        <time>2014-02-02T12:09:13Z</time>
      </trkpt>
      <trkpt lat="48.31059" lon="2.61343">
        <ele>115.19999694824</ele>
        <time>2014-02-02T12:09:14Z</time>
      </trkpt>
      <trkpt lat="48.31059" lon="2.61343">
        <ele>115.59999847412</ele>
        <time>2014-02-02T12:09:15Z</time>
      </trkpt>
      <trkpt lat="48.31058" lon="2.61348">
        <ele>115.59999847412</ele>
        <time>2014-02-02T12:09:20Z</time>
      </trkpt>
      <trkpt lat="48.31058" lon="2.61348">
        <ele>116</ele>
        <time>2014-02-02T12:09:21Z</time>
      </trkpt>
      <trkpt lat="48.31057" lon="2.61349">
        <ele>116.40000152588</ele>
        <time>2014-02-02T12:09:22Z</time>
      </trkpt>
      <trkpt lat="48.31057" lon="2.61349">
        <ele>116.80000305176</ele>
        <time>2014-02-02T12:09:23Z</time>
      </trkpt>
      <trkpt lat="48.31057" lon="2.6135">
        <ele>117.19999694824</ele>
        <time>2014-02-02T12:09:24Z</time>
      </trkpt>
      <trkpt lat="48.31057" lon="2.6135">
        <ele>117.59999847412</ele>
        <time>2014-02-02T12:09:25Z</time>
      </trkpt>
      <trkpt lat="48.31052" lon="2.61352">
        <ele>117.59999847412</ele>
        <time>2014-02-02T12:09:29Z</time>
      </trkpt>
      <trkpt lat="48.31049" lon="2.61356">
        <ele>118</ele>
        <time>2014-02-02T12:09:35Z</time>
      </trkpt>
      <trkpt lat="48.31048" lon="2.61358">
        <ele>118.40000152588</ele>
        <time>2014-02-02T12:09:36Z</time>
      </trkpt>
      <trkpt lat="48.31047" lon="2.61359">
        <ele>119</ele>
        <time>2014-02-02T12:09:37Z</time>
      </trkpt>
      <trkpt lat="48.31047" lon="2.6136">
        <ele>119.40000152588</ele>
        <time>2014-02-02T12:09:38Z</time>
      </trkpt>
      <trkpt lat="48.31046" lon="2.61361">
        <ele>119.80000305176</ele>
        <time>2014-02-02T12:09:39Z</time>
      </trkpt>
      <trkpt lat="48.31045" lon="2.61369">
        <ele>120.40000152588</ele>
        <time>2014-02-02T12:09:47Z</time>
      </trkpt>
      <trkpt lat="48.31045" lon="2.6137">
        <ele>120.80000305176</ele>
        <time>2014-02-02T12:09:48Z</time>
      </trkpt>
      <trkpt lat="48.31045" lon="2.61371">
        <ele>121.19999694824</ele>
        <time>2014-02-02T12:09:49Z</time>
      </trkpt>
      <trkpt lat="48.31044" lon="2.61371">
        <ele>121.80000305176</ele>
        <time>2014-02-02T12:09:50Z</time>
      </trkpt>
      <trkpt lat="48.31044" lon="2.61373">
        <ele>122.19999694824</ele>
        <time>2014-02-02T12:09:51Z</time>
      </trkpt>
      <trkpt lat="48.31046" lon="2.61379">
        <ele>122.19999694824</ele>
        <time>2014-02-02T12:09:59Z</time>
      </trkpt>
      <trkpt lat="48.31044" lon="2.61402">
        <ele>122.19999694824</ele>
        <time>2014-02-02T12:10:08Z</time>
      </trkpt>
      <trkpt lat="48.31047" lon="2.6141">
        <ele>122.19999694824</ele>
        <time>2014-02-02T12:10:11Z</time>
      </trkpt>
      <trkpt lat="48.31049" lon="2.61413">
        <ele>122.19999694824</ele>
        <time>2014-02-02T12:10:13Z</time>
      </trkpt>
      <trkpt lat="48.3105" lon="2.61415">
        <ele>122.59999847412</ele>
        <time>2014-02-02T12:10:14Z</time>
      </trkpt>
      <trkpt lat="48.3105" lon="2.61418">
        <ele>123</ele>
        <time>2014-02-02T12:10:15Z</time>
      </trkpt>
      <trkpt lat="48.31051" lon="2.61419">
        <ele>123.40000152588</ele>
        <time>2014-02-02T12:10:16Z</time>
      </trkpt>
      <trkpt lat="48.31051" lon="2.61421">
        <ele>123.80000305176</ele>
        <time>2014-02-02T12:10:17Z</time>
      </trkpt>
      <trkpt lat="48.31052" lon="2.61422">
        <ele>124.19999694824</ele>
        <time>2014-02-02T12:10:18Z</time>
      </trkpt>
      <trkpt lat="48.31053" lon="2.61427">
        <ele>124.19999694824</ele>
        <time>2014-02-02T12:10:21Z</time>
      </trkpt>
      <trkpt lat="48.31053" lon="2.61429">
        <ele>124.19999694824</ele>
        <time>2014-02-02T12:10:22Z</time>
      </trkpt>
      <trkpt lat="48.31061" lon="2.61434">
        <ele>124.19999694824</ele>
        <time>2014-02-02T12:10:29Z</time>
      </trkpt>
      <trkpt lat="48.31065" lon="2.6143">
        <ele>124.19999694824</ele>
        <time>2014-02-02T12:10:33Z</time>
      </trkpt>
      <trkpt lat="48.31068" lon="2.61431">
        <ele>124.19999694824</ele>
        <time>2014-02-02T12:10:36Z</time>
      </trkpt>
      <trkpt lat="48.31074" lon="2.61432">
        <ele>124.80000305176</ele>
        <time>2014-02-02T12:10:39Z</time>
      </trkpt>
      <trkpt lat="48.31075" lon="2.61431">
        <ele>125.19999694824</ele>
        <time>2014-02-02T12:10:40Z</time>
      </trkpt>
      <trkpt lat="48.31077" lon="2.61431">
        <ele>125.59999847412</ele>
        <time>2014-02-02T12:10:41Z</time>
      </trkpt>
      <trkpt lat="48.31078" lon="2.61431">
        <ele>126.19999694824</ele>
        <time>2014-02-02T12:10:42Z</time>
      </trkpt>
      <trkpt lat="48.31079" lon="2.61429">
        <ele>126.59999847412</ele>
        <time>2014-02-02T12:10:43Z</time>
      </trkpt>
      <trkpt lat="48.3108" lon="2.61428">
        <ele>126.59999847412</ele>
        <time>2014-02-02T12:10:44Z</time>
      </trkpt>
      <trkpt lat="48.31084" lon="2.61414">
        <ele>126.59999847412</ele>
        <time>2014-02-02T12:10:53Z</time>
      </trkpt>
      <trkpt lat="48.31096" lon="2.61398">
        <ele>126.59999847412</ele>
        <time>2014-02-02T12:11:01Z</time>
      </trkpt>
      <trkpt lat="48.31102" lon="2.61392">
        <ele>126.59999847412</ele>
        <time>2014-02-02T12:11:08Z</time>
      </trkpt>
      <trkpt lat="48.31108" lon="2.61381">
        <ele>126.59999847412</ele>
        <time>2014-02-02T12:11:17Z</time>
      </trkpt>
      <trkpt lat="48.31116" lon="2.61363">
        <ele>126.59999847412</ele>
        <time>2014-02-02T12:11:27Z</time>
      </trkpt>
      <trkpt lat="48.31125" lon="2.61336">
        <ele>126.59999847412</ele>
        <time>2014-02-02T12:11:37Z</time>
      </trkpt>
      <trkpt lat="48.3113" lon="2.61313">
        <ele>126.59999847412</ele>
        <time>2014-02-02T12:11:45Z</time>
      </trkpt>
      <trkpt lat="48.31138" lon="2.61291">
        <ele>126.59999847412</ele>
        <time>2014-02-02T12:11:50Z</time>
      </trkpt>
      <trkpt lat="48.31139" lon="2.61286">
        <ele>126.19999694824</ele>
        <time>2014-02-02T12:11:51Z</time>
      </trkpt>
      <trkpt lat="48.31141" lon="2.61283">
        <ele>125.80000305176</ele>
        <time>2014-02-02T12:11:52Z</time>
      </trkpt>
      <trkpt lat="48.31142" lon="2.61279">
        <ele>125.40000152588</ele>
        <time>2014-02-02T12:11:53Z</time>
      </trkpt>
      <trkpt lat="48.31142" lon="2.61276">
        <ele>125</ele>
        <time>2014-02-02T12:11:54Z</time>
      </trkpt>
      <trkpt lat="48.31143" lon="2.61273">
        <ele>124.59999847412</ele>
        <time>2014-02-02T12:11:55Z</time>
      </trkpt>
      <trkpt lat="48.31139" lon="2.61268">
        <ele>124.59999847412</ele>
        <time>2014-02-02T12:11:57Z</time>
      </trkpt>
      <trkpt lat="48.31137" lon="2.61268">
        <ele>124.59999847412</ele>
        <time>2014-02-02T12:11:58Z</time>
      </trkpt>
      <trkpt lat="48.31136" lon="2.61267">
        <ele>124.19999694824</ele>
        <time>2014-02-02T12:11:59Z</time>
      </trkpt>
      <trkpt lat="48.31133" lon="2.61266">
        <ele>123.80000305176</ele>
        <time>2014-02-02T12:12:00Z</time>
      </trkpt>
      <trkpt lat="48.31131" lon="2.61266">
        <ele>123.40000152588</ele>
        <time>2014-02-02T12:12:01Z</time>
      </trkpt>
      <trkpt lat="48.31129" lon="2.61265">
        <ele>122.80000305176</ele>
        <time>2014-02-02T12:12:02Z</time>
      </trkpt>
      <trkpt lat="48.31129" lon="2.61265">
        <ele>122.19999694824</ele>
        <time>2014-02-02T12:12:03Z</time>
      </trkpt>
      <trkpt lat="48.31129" lon="2.61265">
        <ele>121.59999847412</ele>
        <time>2014-02-02T12:12:04Z</time>
      </trkpt>
      <trkpt lat="48.31128" lon="2.61265">
        <ele>121</ele>
        <time>2014-02-02T12:12:05Z</time>
      </trkpt>
      <trkpt lat="48.31127" lon="2.61265">
        <ele>120.40000152588</ele>
        <time>2014-02-02T12:12:06Z</time>
      </trkpt>
      <trkpt lat="48.31124" lon="2.61268">
        <ele>120.40000152588</ele>
        <time>2014-02-02T12:12:10Z</time>
      </trkpt>
      <trkpt lat="48.31126" lon="2.61283">
        <ele>120.40000152588</ele>
        <time>2014-02-02T12:12:17Z</time>
      </trkpt>
      <trkpt lat="48.31117" lon="2.61298">
        <ele>120.40000152588</ele>
        <time>2014-02-02T12:12:24Z</time>
      </trkpt>
      <trkpt lat="48.3111" lon="2.61304">
        <ele>119.80000305176</ele>
        <time>2014-02-02T12:12:27Z</time>
      </trkpt>
      <trkpt lat="48.31107" lon="2.61305">
        <ele>119.40000152588</ele>
        <time>2014-02-02T12:12:28Z</time>
      </trkpt>
      <trkpt lat="48.31105" lon="2.61302">
        <ele>119</ele>
        <time>2014-02-02T12:12:29Z</time>
      </trkpt>
      <trkpt lat="48.31102" lon="2.61301">
        <ele>118.59999847412</ele>
        <time>2014-02-02T12:12:30Z</time>
      </trkpt>
      <trkpt lat="48.311" lon="2.613">
        <ele>118.19999694824</ele>
        <time>2014-02-02T12:12:31Z</time>
      </trkpt>
      <trkpt lat="48.31092" lon="2.6129">
        <ele>117.80000305176</ele>
        <time>2014-02-02T12:12:35Z</time>
      </trkpt>
      <trkpt lat="48.3109" lon="2.61288">
        <ele>117.40000152588</ele>
        <time>2014-02-02T12:12:36Z</time>
      </trkpt>
      <trkpt lat="48.31089" lon="2.61286">
        <ele>117</ele>
        <time>2014-02-02T12:12:37Z</time>
      </trkpt>
      <trkpt lat="48.31088" lon="2.61284">
        <ele>116.59999847412</ele>
        <time>2014-02-02T12:12:38Z</time>
      </trkpt>
      <trkpt lat="48.31087" lon="2.61282">
        <ele>116.19999694824</ele>
        <time>2014-02-02T12:12:39Z</time>
      </trkpt>
      <trkpt lat="48.31084" lon="2.61277">
        <ele>116.19999694824</ele>
        <time>2014-02-02T12:12:41Z</time>
      </trkpt>
      <trkpt lat="48.31082" lon="2.61266">
        <ele>116.19999694824</ele>
        <time>2014-02-02T12:12:47Z</time>
      </trkpt>
      <trkpt lat="48.31082" lon="2.61259">
        <ele>116.59999847412</ele>
        <time>2014-02-02T12:12:50Z</time>
      </trkpt>
      <trkpt lat="48.31081" lon="2.61258">
        <ele>117</ele>
        <time>2014-02-02T12:12:51Z</time>
      </trkpt>
      <trkpt lat="48.31081" lon="2.61256">
        <ele>117.40000152588</ele>
        <time>2014-02-02T12:12:52Z</time>
      </trkpt>
      <trkpt lat="48.3108" lon="2.61254">
        <ele>117.80000305176</ele>
        <time>2014-02-02T12:12:53Z</time>
      </trkpt>
      <trkpt lat="48.31079" lon="2.61253">
        <ele>118.40000152588</ele>
        <time>2014-02-02T12:12:54Z</time>
      </trkpt>
      <trkpt lat="48.31076" lon="2.61239">
        <ele>118.40000152588</ele>
        <time>2014-02-02T12:13:04Z</time>
      </trkpt>
      <trkpt lat="48.31076" lon="2.61237">
        <ele>118.80000305176</ele>
        <time>2014-02-02T12:13:05Z</time>
      </trkpt>
      <trkpt lat="48.31076" lon="2.61236">
        <ele>119.40000152588</ele>
        <time>2014-02-02T12:13:06Z</time>
      </trkpt>
      <trkpt lat="48.31075" lon="2.61234">
        <ele>119.80000305176</ele>
        <time>2014-02-02T12:13:07Z</time>
      </trkpt>
      <trkpt lat="48.31076" lon="2.61233">
        <ele>120.40000152588</ele>
        <time>2014-02-02T12:13:08Z</time>
      </trkpt>
      <trkpt lat="48.31076" lon="2.61231">
        <ele>120.80000305176</ele>
        <time>2014-02-02T12:13:09Z</time>
      </trkpt>
      <trkpt lat="48.31073" lon="2.61225">
        <ele>121.19999694824</ele>
        <time>2014-02-02T12:13:14Z</time>
      </trkpt>
      <trkpt lat="48.31073" lon="2.61224">
        <ele>121.59999847412</ele>
        <time>2014-02-02T12:13:15Z</time>
      </trkpt>
      <trkpt lat="48.31073" lon="2.61223">
        <ele>122</ele>
        <time>2014-02-02T12:13:16Z</time>
      </trkpt>
      <trkpt lat="48.31073" lon="2.61222">
        <ele>122.59999847412</ele>
        <time>2014-02-02T12:13:17Z</time>
      </trkpt>
      <trkpt lat="48.31073" lon="2.61221">
        <ele>123</ele>
        <time>2014-02-02T12:13:18Z</time>
      </trkpt>
      <trkpt lat="48.31075" lon="2.61216">
        <ele>123</ele>
        <time>2014-02-02T12:13:25Z</time>
      </trkpt>
      <trkpt lat="48.31075" lon="2.61211">
        <ele>123.40000152588</ele>
        <time>2014-02-02T12:13:30Z</time>
      </trkpt>
      <trkpt lat="48.31075" lon="2.6121">
        <ele>123.80000305176</ele>
        <time>2014-02-02T12:13:31Z</time>
      </trkpt>
      <trkpt lat="48.31074" lon="2.61209">
        <ele>124.40000152588</ele>
        <time>2014-02-02T12:13:32Z</time>
      </trkpt>
      <trkpt lat="48.31074" lon="2.61208">
        <ele>124.80000305176</ele>
        <time>2014-02-02T12:13:33Z</time>
      </trkpt>
      <trkpt lat="48.31074" lon="2.61206">
        <ele>125.19999694824</ele>
        <time>2014-02-02T12:13:34Z</time>
      </trkpt>
      <trkpt lat="48.31074" lon="2.61193">
        <ele>125.19999694824</ele>
        <time>2014-02-02T12:13:43Z</time>
      </trkpt>
      <trkpt lat="48.31075" lon="2.61186">
        <ele>125.19999694824</ele>
        <time>2014-02-02T12:13:53Z</time>
      </trkpt>
      <trkpt lat="48.31074" lon="2.61177">
        <ele>125.80000305176</ele>
        <time>2014-02-02T12:14:21Z</time>
      </trkpt>
      <trkpt lat="48.31074" lon="2.61175">
        <ele>126.19999694824</ele>
        <time>2014-02-02T12:14:22Z</time>
      </trkpt>
      <trkpt lat="48.31075" lon="2.61174">
        <ele>126.59999847412</ele>
        <time>2014-02-02T12:14:23Z</time>
      </trkpt>
      <trkpt lat="48.31075" lon="2.61172">
        <ele>127</ele>
        <time>2014-02-02T12:14:24Z</time>
      </trkpt>
      <trkpt lat="48.31076" lon="2.61171">
        <ele>127.40000152588</ele>
        <time>2014-02-02T12:14:25Z</time>
      </trkpt>
      <trkpt lat="48.31067" lon="2.61159">
        <ele>127.40000152588</ele>
        <time>2014-02-02T12:14:35Z</time>
      </trkpt>
      <trkpt lat="48.31052" lon="2.61154">
        <ele>127.40000152588</ele>
        <time>2014-02-02T12:14:46Z</time>
      </trkpt>
      <trkpt lat="48.31038" lon="2.61148">
        <ele>127.40000152588</ele>
        <time>2014-02-02T12:14:51Z</time>
      </trkpt>
      <trkpt lat="48.31036" lon="2.61148">
        <ele>127</ele>
        <time>2014-02-02T12:14:52Z</time>
      </trkpt>
      <trkpt lat="48.31034" lon="2.61147">
        <ele>126.59999847412</ele>
        <time>2014-02-02T12:14:53Z</time>
      </trkpt>
      <trkpt lat="48.31032" lon="2.61147">
        <ele>126</ele>
        <time>2014-02-02T12:14:54Z</time>
      </trkpt>
      <trkpt lat="48.31029" lon="2.61147">
        <ele>125.59999847412</ele>
        <time>2014-02-02T12:14:55Z</time>
      </trkpt>
      <trkpt lat="48.31028" lon="2.61148">
        <ele>125.19999694824</ele>
        <time>2014-02-02T12:14:56Z</time>
      </trkpt>
      <trkpt lat="48.31026" lon="2.61148">
        <ele>125.19999694824</ele>
        <time>2014-02-02T12:14:57Z</time>
      </trkpt>
      <trkpt lat="48.31018" lon="2.61147">
        <ele>125.19999694824</ele>
        <time>2014-02-02T12:15:04Z</time>
      </trkpt>
      <trkpt lat="48.31011" lon="2.61138">
        <ele>125.19999694824</ele>
        <time>2014-02-02T12:15:14Z</time>
      </trkpt>
      <trkpt lat="48.31008" lon="2.61133">
        <ele>125.59999847412</ele>
        <time>2014-02-02T12:15:18Z</time>
      </trkpt>
      <trkpt lat="48.31007" lon="2.61131">
        <ele>126</ele>
        <time>2014-02-02T12:15:19Z</time>
      </trkpt>
      <trkpt lat="48.31007" lon="2.6113">
        <ele>126.40000152588</ele>
        <time>2014-02-02T12:15:20Z</time>
      </trkpt>
      <trkpt lat="48.31007" lon="2.61129">
        <ele>126.80000305176</ele>
        <time>2014-02-02T12:15:21Z</time>
      </trkpt>
      <trkpt lat="48.31006" lon="2.61128">
        <ele>127.19999694824</ele>
        <time>2014-02-02T12:15:22Z</time>
      </trkpt>
      <trkpt lat="48.31005" lon="2.61123">
        <ele>127.19999694824</ele>
        <time>2014-02-02T12:15:27Z</time>
      </trkpt>
      <trkpt lat="48.31003" lon="2.61115">
        <ele>127.59999847412</ele>
        <time>2014-02-02T12:15:33Z</time>
      </trkpt>
      <trkpt lat="48.31003" lon="2.61114">
        <ele>128</ele>
        <time>2014-02-02T12:15:34Z</time>
      </trkpt>
      <trkpt lat="48.31002" lon="2.61112">
        <ele>128.60000610352</ele>
        <time>2014-02-02T12:15:35Z</time>
      </trkpt>
      <trkpt lat="48.31003" lon="2.61111">
        <ele>129</ele>
        <time>2014-02-02T12:15:36Z</time>
      </trkpt>
      <trkpt lat="48.31003" lon="2.61111">
        <ele>129.39999389648</ele>
        <time>2014-02-02T12:15:37Z</time>
      </trkpt>
      <trkpt lat="48.31002" lon="2.61104">
        <ele>129.39999389648</ele>
        <time>2014-02-02T12:15:44Z</time>
      </trkpt>
      <trkpt lat="48.31001" lon="2.61082">
        <ele>129.39999389648</ele>
        <time>2014-02-02T12:15:51Z</time>
      </trkpt>
      <trkpt lat="48.30999" lon="2.61066">
        <ele>129.39999389648</ele>
        <time>2014-02-02T12:15:59Z</time>
      </trkpt>
      <trkpt lat="48.3099" lon="2.61058">
        <ele>129.39999389648</ele>
        <time>2014-02-02T12:16:06Z</time>
      </trkpt>
      <trkpt lat="48.30984" lon="2.61057">
        <ele>129.39999389648</ele>
        <time>2014-02-02T12:16:14Z</time>
      </trkpt>
      <trkpt lat="48.30981" lon="2.61049">
        <ele>129.39999389648</ele>
        <time>2014-02-02T12:16:21Z</time>
      </trkpt>
      <trkpt lat="48.30971" lon="2.61046">
        <ele>129.39999389648</ele>
        <time>2014-02-02T12:16:29Z</time>
      </trkpt>
      <trkpt lat="48.30963" lon="2.61042">
        <ele>129.80000305176</ele>
        <time>2014-02-02T12:16:33Z</time>
      </trkpt>
      <trkpt lat="48.30962" lon="2.61041">
        <ele>130.19999694824</ele>
        <time>2014-02-02T12:16:34Z</time>
      </trkpt>
      <trkpt lat="48.30961" lon="2.61039">
        <ele>130.60000610352</ele>
        <time>2014-02-02T12:16:35Z</time>
      </trkpt>
      <trkpt lat="48.30959" lon="2.61039">
        <ele>131</ele>
        <time>2014-02-02T12:16:36Z</time>
      </trkpt>
      <trkpt lat="48.30957" lon="2.61038">
        <ele>131.39999389648</ele>
        <time>2014-02-02T12:16:37Z</time>
      </trkpt>
      <trkpt lat="48.30952" lon="2.61035">
        <ele>131.39999389648</ele>
        <time>2014-02-02T12:16:39Z</time>
      </trkpt>
      <trkpt lat="48.30943" lon="2.61039">
        <ele>131.39999389648</ele>
        <time>2014-02-02T12:16:46Z</time>
      </trkpt>
      <trkpt lat="48.30933" lon="2.61047">
        <ele>131.39999389648</ele>
        <time>2014-02-02T12:16:54Z</time>
      </trkpt>
      <trkpt lat="48.30925" lon="2.61051">
        <ele>131.39999389648</ele>
        <time>2014-02-02T12:17:00Z</time>
      </trkpt>
      <trkpt lat="48.30921" lon="2.61042">
        <ele>131.39999389648</ele>
        <time>2014-02-02T12:17:05Z</time>
      </trkpt>
      <trkpt lat="48.3092" lon="2.61027">
        <ele>131.39999389648</ele>
        <time>2014-02-02T12:17:12Z</time>
      </trkpt>
      <trkpt lat="48.30918" lon="2.61019">
        <ele>131.39999389648</ele>
        <time>2014-02-02T12:17:17Z</time>
      </trkpt>
      <trkpt lat="48.3091" lon="2.61016">
        <ele>131.39999389648</ele>
        <time>2014-02-02T12:17:20Z</time>
      </trkpt>
      <trkpt lat="48.30908" lon="2.61017">
        <ele>131.39999389648</ele>
        <time>2014-02-02T12:17:21Z</time>
      </trkpt>
      <trkpt lat="48.30906" lon="2.61024">
        <ele>131</ele>
        <time>2014-02-02T12:17:24Z</time>
      </trkpt>
      <trkpt lat="48.30906" lon="2.61025">
        <ele>130.60000610352</ele>
        <time>2014-02-02T12:17:25Z</time>
      </trkpt>
      <trkpt lat="48.30904" lon="2.61028">
        <ele>130.19999694824</ele>
        <time>2014-02-02T12:17:26Z</time>
      </trkpt>
      <trkpt lat="48.30903" lon="2.61031">
        <ele>129.80000305176</ele>
        <time>2014-02-02T12:17:27Z</time>
      </trkpt>
      <trkpt lat="48.30902" lon="2.61034">
        <ele>129.39999389648</ele>
        <time>2014-02-02T12:17:28Z</time>
      </trkpt>
      <trkpt lat="48.30896" lon="2.6105">
        <ele>129.39999389648</ele>
        <time>2014-02-02T12:17:33Z</time>
      </trkpt>
      <trkpt lat="48.30884" lon="2.61061">
        <ele>129.39999389648</ele>
        <time>2014-02-02T12:17:40Z</time>
      </trkpt>
      <trkpt lat="48.30871" lon="2.61066">
        <ele>128.80000305176</ele>
        <time>2014-02-02T12:17:45Z</time>
      </trkpt>
      <trkpt lat="48.30867" lon="2.61069">
        <ele>128.39999389648</ele>
        <time>2014-02-02T12:17:46Z</time>
      </trkpt>
      <trkpt lat="48.30864" lon="2.61073">
        <ele>128</ele>
        <time>2014-02-02T12:17:47Z</time>
      </trkpt>
      <trkpt lat="48.30863" lon="2.61078">
        <ele>127.59999847412</ele>
        <time>2014-02-02T12:17:48Z</time>
      </trkpt>
      <trkpt lat="48.30863" lon="2.61082">
        <ele>127.19999694824</ele>
        <time>2014-02-02T12:17:49Z</time>
      </trkpt>
      <trkpt lat="48.30862" lon="2.61094">
        <ele>126.80000305176</ele>
        <time>2014-02-02T12:17:52Z</time>
      </trkpt>
      <trkpt lat="48.30862" lon="2.61098">
        <ele>126.40000152588</ele>
        <time>2014-02-02T12:17:53Z</time>
      </trkpt>
      <trkpt lat="48.30862" lon="2.61102">
        <ele>126</ele>
        <time>2014-02-02T12:17:54Z</time>
      </trkpt>
      <trkpt lat="48.30864" lon="2.61105">
        <ele>125.59999847412</ele>
        <time>2014-02-02T12:17:55Z</time>
      </trkpt>
      <trkpt lat="48.30865" lon="2.61108">
        <ele>125.19999694824</ele>
        <time>2014-02-02T12:17:56Z</time>
      </trkpt>
      <trkpt lat="48.30871" lon="2.61114">
        <ele>125.19999694824</ele>
        <time>2014-02-02T12:17:59Z</time>
      </trkpt>
      <trkpt lat="48.30878" lon="2.61148">
        <ele>125.19999694824</ele>
        <time>2014-02-02T12:18:07Z</time>
      </trkpt>
      <trkpt lat="48.30877" lon="2.61157">
        <ele>124.80000305176</ele>
        <time>2014-02-02T12:18:09Z</time>
      </trkpt>
      <trkpt lat="48.30876" lon="2.61161">
        <ele>124.40000152588</ele>
        <time>2014-02-02T12:18:10Z</time>
      </trkpt>
      <trkpt lat="48.30873" lon="2.61163">
        <ele>124</ele>
        <time>2014-02-02T12:18:11Z</time>
      </trkpt>
      <trkpt lat="48.30872" lon="2.61164">
        <ele>123.40000152588</ele>
        <time>2014-02-02T12:18:12Z</time>
      </trkpt>
      <trkpt lat="48.30869" lon="2.61162">
        <ele>122.80000305176</ele>
        <time>2014-02-02T12:18:13Z</time>
      </trkpt>
      <trkpt lat="48.30866" lon="2.61162">
        <ele>122.19999694824</ele>
        <time>2014-02-02T12:18:14Z</time>
      </trkpt>
      <trkpt lat="48.30864" lon="2.61164">
        <ele>121.40000152588</ele>
        <time>2014-02-02T12:18:15Z</time>
      </trkpt>
      <trkpt lat="48.3086" lon="2.61167">
        <ele>120.59999847412</ele>
        <time>2014-02-02T12:18:16Z</time>
      </trkpt>
      <trkpt lat="48.30858" lon="2.6117">
        <ele>119.80000305176</ele>
        <time>2014-02-02T12:18:17Z</time>
      </trkpt>
      <trkpt lat="48.30855" lon="2.6117">
        <ele>119</ele>
        <time>2014-02-02T12:18:18Z</time>
      </trkpt>
      <trkpt lat="48.30853" lon="2.61168">
        <ele>118.19999694824</ele>
        <time>2014-02-02T12:18:19Z</time>
      </trkpt>
      <trkpt lat="48.30851" lon="2.61165">
        <ele>117.59999847412</ele>
        <time>2014-02-02T12:18:20Z</time>
      </trkpt>
      <trkpt lat="48.3085" lon="2.61164">
        <ele>116.80000305176</ele>
        <time>2014-02-02T12:18:21Z</time>
      </trkpt>
      <trkpt lat="48.30849" lon="2.61163">
        <ele>116</ele>
        <time>2014-02-02T12:18:22Z</time>
      </trkpt>
      <trkpt lat="48.30847" lon="2.61164">
        <ele>115.40000152588</ele>
        <time>2014-02-02T12:18:23Z</time>
      </trkpt>
      <trkpt lat="48.30845" lon="2.61165">
        <ele>114.80000305176</ele>
        <time>2014-02-02T12:18:24Z</time>
      </trkpt>
      <trkpt lat="48.30843" lon="2.61166">
        <ele>114.19999694824</ele>
        <time>2014-02-02T12:18:25Z</time>
      </trkpt>
      <trkpt lat="48.30842" lon="2.61165">
        <ele>113.59999847412</ele>
        <time>2014-02-02T12:18:26Z</time>
      </trkpt>
      <trkpt lat="48.30841" lon="2.61164">
        <ele>112.80000305176</ele>
        <time>2014-02-02T12:18:27Z</time>
      </trkpt>
      <trkpt lat="48.30839" lon="2.61163">
        <ele>112.19999694824</ele>
        <time>2014-02-02T12:18:28Z</time>
      </trkpt>
      <trkpt lat="48.30839" lon="2.61161">
        <ele>111.40000152588</ele>
        <time>2014-02-02T12:18:29Z</time>
      </trkpt>
      <trkpt lat="48.30838" lon="2.6116">
        <ele>110.80000305176</ele>
        <time>2014-02-02T12:18:30Z</time>
      </trkpt>
      <trkpt lat="48.30837" lon="2.6116">
        <ele>110.40000152588</ele>
        <time>2014-02-02T12:18:31Z</time>
      </trkpt>
      <trkpt lat="48.30835" lon="2.6116">
        <ele>109.80000305176</ele>
        <time>2014-02-02T12:18:32Z</time>
      </trkpt>
      <trkpt lat="48.30832" lon="2.6116">
        <ele>109</ele>
        <time>2014-02-02T12:18:33Z</time>
      </trkpt>
      <trkpt lat="48.30828" lon="2.61161">
        <ele>108.40000152588</ele>
        <time>2014-02-02T12:18:34Z</time>
      </trkpt>
      <trkpt lat="48.30825" lon="2.61164">
        <ele>107.40000152588</ele>
        <time>2014-02-02T12:18:35Z</time>
      </trkpt>
      <trkpt lat="48.30823" lon="2.6117">
        <ele>106.40000152588</ele>
        <time>2014-02-02T12:18:36Z</time>
      </trkpt>
      <trkpt lat="48.30822" lon="2.61176">
        <ele>105.40000152588</ele>
        <time>2014-02-02T12:18:37Z</time>
      </trkpt>
      <trkpt lat="48.3082" lon="2.61182">
        <ele>104.40000152588</ele>
        <time>2014-02-02T12:18:38Z</time>
      </trkpt>
      <trkpt lat="48.30819" lon="2.61189">
        <ele>103.40000152588</ele>
        <time>2014-02-02T12:18:39Z</time>
      </trkpt>
      <trkpt lat="48.30819" lon="2.61197">
        <ele>102.59999847412</ele>
        <time>2014-02-02T12:18:40Z</time>
      </trkpt>
      <trkpt lat="48.30817" lon="2.61204">
        <ele>101.59999847412</ele>
        <time>2014-02-02T12:18:41Z</time>
      </trkpt>
      <trkpt lat="48.30815" lon="2.61211">
        <ele>100.80000305176</ele>
        <time>2014-02-02T12:18:42Z</time>
      </trkpt>
      <trkpt lat="48.30812" lon="2.61217">
        <ele>100</ele>
        <time>2014-02-02T12:18:43Z</time>
      </trkpt>
      <trkpt lat="48.3081" lon="2.61224">
        <ele>99.400001525879</ele>
        <time>2014-02-02T12:18:44Z</time>
      </trkpt>
      <trkpt lat="48.30808" lon="2.61228">
        <ele>98.599998474121</ele>
        <time>2014-02-02T12:18:45Z</time>
      </trkpt>
      <trkpt lat="48.30807" lon="2.61228">
        <ele>97.800003051758</ele>
        <time>2014-02-02T12:18:46Z</time>
      </trkpt>
      <trkpt lat="48.30807" lon="2.61229">
        <ele>97</ele>
        <time>2014-02-02T12:18:47Z</time>
      </trkpt>
      <trkpt lat="48.308" lon="2.61227">
        <ele>97</ele>
        <time>2014-02-02T12:18:50Z</time>
      </trkpt>
      <trkpt lat="48.3079" lon="2.61215">
        <ele>97</ele>
        <time>2014-02-02T12:18:55Z</time>
      </trkpt>
      <trkpt lat="48.30791" lon="2.61205">
        <ele>97</ele>
        <time>2014-02-02T12:18:59Z</time>
      </trkpt>
      <trkpt lat="48.30788" lon="2.61192">
        <ele>97</ele>
        <time>2014-02-02T12:19:06Z</time>
      </trkpt>
      <trkpt lat="48.30788" lon="2.61191">
        <ele>97.599998474121</ele>
        <time>2014-02-02T12:19:07Z</time>
      </trkpt>
      <trkpt lat="48.30788" lon="2.6119">
        <ele>98</ele>
        <time>2014-02-02T12:19:08Z</time>
      </trkpt>
      <trkpt lat="48.30788" lon="2.61189">
        <ele>98.400001525879</ele>
        <time>2014-02-02T12:19:09Z</time>
      </trkpt>
      <trkpt lat="48.30789" lon="2.61189">
        <ele>98.800003051758</ele>
        <time>2014-02-02T12:19:10Z</time>
      </trkpt>
      <trkpt lat="48.30789" lon="2.61189">
        <ele>99.199996948242</ele>
        <time>2014-02-02T12:19:11Z</time>
      </trkpt>
      <trkpt lat="48.30789" lon="2.61188">
        <ele>99.199996948242</ele>
        <time>2014-02-02T12:19:14Z</time>
      </trkpt>
      <trkpt lat="48.30789" lon="2.61188">
        <ele>99.800003051758</ele>
        <time>2014-02-02T12:19:22Z</time>
      </trkpt>
      <trkpt lat="48.30789" lon="2.61188">
        <ele>100.19999694824</ele>
        <time>2014-02-02T12:19:23Z</time>
      </trkpt>
      <trkpt lat="48.30789" lon="2.61188">
        <ele>100.59999847412</ele>
        <time>2014-02-02T12:19:24Z</time>
      </trkpt>
      <trkpt lat="48.30789" lon="2.61188">
        <ele>101</ele>
        <time>2014-02-02T12:19:25Z</time>
      </trkpt>
      <trkpt lat="48.30789" lon="2.61188">
        <ele>101.40000152588</ele>
        <time>2014-02-02T12:19:26Z</time>
      </trkpt>
      <trkpt lat="48.30789" lon="2.61188">
        <ele>101.80000305176</ele>
        <time>2014-02-02T12:19:44Z</time>
      </trkpt>
      <trkpt lat="48.30789" lon="2.61188">
        <ele>102.19999694824</ele>
        <time>2014-02-02T12:19:45Z</time>
      </trkpt>
      <trkpt lat="48.30789" lon="2.61188">
        <ele>102.80000305176</ele>
        <time>2014-02-02T12:19:46Z</time>
      </trkpt>
      <trkpt lat="48.30789" lon="2.61188">
        <ele>103.19999694824</ele>
        <time>2014-02-02T12:19:47Z</time>
      </trkpt>
      <trkpt lat="48.30789" lon="2.61188">
        <ele>103.59999847412</ele>
        <time>2014-02-02T12:19:48Z</time>
      </trkpt>
      <trkpt lat="48.30789" lon="2.61188">
        <ele>104</ele>
        <time>2014-02-02T12:20:00Z</time>
      </trkpt>
      <trkpt lat="48.30789" lon="2.61188">
        <ele>104.59999847412</ele>
        <time>2014-02-02T12:20:01Z</time>
      </trkpt>
      <trkpt lat="48.30789" lon="2.61188">
        <ele>105</ele>
        <time>2014-02-02T12:20:02Z</time>
      </trkpt>
      <trkpt lat="48.30789" lon="2.61188">
        <ele>105.40000152588</ele>
        <time>2014-02-02T12:20:03Z</time>
      </trkpt>
      <trkpt lat="48.30789" lon="2.61188">
        <ele>106</ele>
        <time>2014-02-02T12:20:04Z</time>
      </trkpt>
      <trkpt lat="48.30789" lon="2.61188">
        <ele>106.40000152588</ele>
        <time>2014-02-02T12:20:13Z</time>
      </trkpt>
      <trkpt lat="48.30789" lon="2.61188">
        <ele>106.80000305176</ele>
        <time>2014-02-02T12:20:14Z</time>
      </trkpt>
      <trkpt lat="48.30789" lon="2.61188">
        <ele>107.19999694824</ele>
        <time>2014-02-02T12:20:15Z</time>
      </trkpt>
      <trkpt lat="48.30789" lon="2.61188">
        <ele>107.59999847412</ele>
        <time>2014-02-02T12:20:16Z</time>
      </trkpt>
      <trkpt lat="48.30789" lon="2.61188">
        <ele>108</ele>
        <time>2014-02-02T12:20:17Z</time>
      </trkpt>
      <trkpt lat="48.30789" lon="2.61187">
        <ele>108.40000152588</ele>
        <time>2014-02-02T12:20:23Z</time>
      </trkpt>
      <trkpt lat="48.30789" lon="2.61187">
        <ele>109</ele>
        <time>2014-02-02T12:20:24Z</time>
      </trkpt>
      <trkpt lat="48.30789" lon="2.61187">
        <ele>109.40000152588</ele>
        <time>2014-02-02T12:20:25Z</time>
      </trkpt>
      <trkpt lat="48.30789" lon="2.61187">
        <ele>110</ele>
        <time>2014-02-02T12:20:26Z</time>
      </trkpt>
      <trkpt lat="48.30789" lon="2.61187">
        <ele>110.40000152588</ele>
        <time>2014-02-02T12:20:27Z</time>
      </trkpt>
      <trkpt lat="48.30789" lon="2.61187">
        <ele>110.80000305176</ele>
        <time>2014-02-02T12:20:34Z</time>
      </trkpt>
      <trkpt lat="48.30789" lon="2.61187">
        <ele>111.19999694824</ele>
        <time>2014-02-02T12:20:35Z</time>
      </trkpt>
      <trkpt lat="48.30789" lon="2.61187">
        <ele>111.59999847412</ele>
        <time>2014-02-02T12:20:36Z</time>
      </trkpt>
      <trkpt lat="48.30788" lon="2.61187">
        <ele>112</ele>
        <time>2014-02-02T12:20:37Z</time>
      </trkpt>
      <trkpt lat="48.30788" lon="2.61186">
        <ele>112.40000152588</ele>
        <time>2014-02-02T12:20:38Z</time>
      </trkpt>
      <trkpt lat="48.30789" lon="2.61185">
        <ele>112.40000152588</ele>
        <time>2014-02-02T12:20:42Z</time>
      </trkpt>
      <trkpt lat="48.30789" lon="2.61185">
        <ele>113</ele>
        <time>2014-02-02T12:20:45Z</time>
      </trkpt>
      <trkpt lat="48.30789" lon="2.61185">
        <ele>113.40000152588</ele>
        <time>2014-02-02T12:20:46Z</time>
      </trkpt>
      <trkpt lat="48.30789" lon="2.61185">
        <ele>113.80000305176</ele>
        <time>2014-02-02T12:20:47Z</time>
      </trkpt>
      <trkpt lat="48.30789" lon="2.61185">
        <ele>114.19999694824</ele>
        <time>2014-02-02T12:20:48Z</time>
      </trkpt>
      <trkpt lat="48.30789" lon="2.61185">
        <ele>114.59999847412</ele>
        <time>2014-02-02T12:20:49Z</time>
      </trkpt>
      <trkpt lat="48.30789" lon="2.61185">
        <ele>115.19999694824</ele>
        <time>2014-02-02T12:20:58Z</time>
      </trkpt>
      <trkpt lat="48.30789" lon="2.61185">
        <ele>115.59999847412</ele>
        <time>2014-02-02T12:20:59Z</time>
      </trkpt>
      <trkpt lat="48.30789" lon="2.61185">
        <ele>116</ele>
        <time>2014-02-02T12:21:00Z</time>
      </trkpt>
      <trkpt lat="48.30789" lon="2.61185">
        <ele>116.40000152588</ele>
        <time>2014-02-02T12:21:01Z</time>
      </trkpt>
      <trkpt lat="48.30789" lon="2.61185">
        <ele>116.80000305176</ele>
        <time>2014-02-02T12:21:02Z</time>
      </trkpt>
      <trkpt lat="48.30789" lon="2.61185">
        <ele>117.19999694824</ele>
        <time>2014-02-02T12:21:11Z</time>
      </trkpt>
      <trkpt lat="48.30789" lon="2.61185">
        <ele>117.59999847412</ele>
        <time>2014-02-02T12:21:12Z</time>
      </trkpt>
      <trkpt lat="48.30789" lon="2.61185">
        <ele>118</ele>
        <time>2014-02-02T12:21:13Z</time>
      </trkpt>
      <trkpt lat="48.30789" lon="2.61185">
        <ele>118.40000152588</ele>
        <time>2014-02-02T12:21:14Z</time>
      </trkpt>
      <trkpt lat="48.30789" lon="2.61185">
        <ele>118.80000305176</ele>
        <time>2014-02-02T12:21:15Z</time>
      </trkpt>
      <trkpt lat="48.30789" lon="2.61185">
        <ele>119.19999694824</ele>
        <time>2014-02-02T12:21:27Z</time>
      </trkpt>
      <trkpt lat="48.30789" lon="2.61185">
        <ele>119.59999847412</ele>
        <time>2014-02-02T12:21:28Z</time>
      </trkpt>
      <trkpt lat="48.30789" lon="2.61185">
        <ele>120</ele>
        <time>2014-02-02T12:21:29Z</time>
      </trkpt>
      <trkpt lat="48.30789" lon="2.61185">
        <ele>120.40000152588</ele>
        <time>2014-02-02T12:21:30Z</time>
      </trkpt>
      <trkpt lat="48.30789" lon="2.61185">
        <ele>120.80000305176</ele>
        <time>2014-02-02T12:21:31Z</time>
      </trkpt>
      <trkpt lat="48.30789" lon="2.61185">
        <ele>121.19999694824</ele>
        <time>2014-02-02T12:21:40Z</time>
      </trkpt>
      <trkpt lat="48.30789" lon="2.61185">
        <ele>121.59999847412</ele>
        <time>2014-02-02T12:21:41Z</time>
      </trkpt>
      <trkpt lat="48.30789" lon="2.61185">
        <ele>122</ele>
        <time>2014-02-02T12:21:42Z</time>
      </trkpt>
      <trkpt lat="48.30789" lon="2.61185">
        <ele>122.40000152588</ele>
        <time>2014-02-02T12:21:43Z</time>
      </trkpt>
      <trkpt lat="48.30789" lon="2.61185">
        <ele>122.80000305176</ele>
        <time>2014-02-02T12:21:44Z</time>
      </trkpt>
      <trkpt lat="48.30789" lon="2.61185">
        <ele>123.19999694824</ele>
        <time>2014-02-02T12:21:53Z</time>
      </trkpt>
      <trkpt lat="48.30789" lon="2.61185">
        <ele>123.59999847412</ele>
        <time>2014-02-02T12:21:54Z</time>
      </trkpt>
      <trkpt lat="48.30789" lon="2.61185">
        <ele>124</ele>
        <time>2014-02-02T12:21:55Z</time>
      </trkpt>
      <trkpt lat="48.30789" lon="2.61185">
        <ele>124.40000152588</ele>
        <time>2014-02-02T12:21:56Z</time>
      </trkpt>
      <trkpt lat="48.30789" lon="2.61185">
        <ele>124.80000305176</ele>
        <time>2014-02-02T12:21:57Z</time>
      </trkpt>
      <trkpt lat="48.30789" lon="2.61184">
        <ele>125.19999694824</ele>
        <time>2014-02-02T12:22:12Z</time>
      </trkpt>
      <trkpt lat="48.30789" lon="2.61184">
        <ele>125.59999847412</ele>
        <time>2014-02-02T12:22:13Z</time>
      </trkpt>
      <trkpt lat="48.30789" lon="2.61184">
        <ele>126</ele>
        <time>2014-02-02T12:22:14Z</time>
      </trkpt>
      <trkpt lat="48.30789" lon="2.61184">
        <ele>126.59999847412</ele>
        <time>2014-02-02T12:22:15Z</time>
      </trkpt>
      <trkpt lat="48.30789" lon="2.61184">
        <ele>127</ele>
        <time>2014-02-02T12:22:16Z</time>
      </trkpt>
      <trkpt lat="48.30789" lon="2.61184">
        <ele>127.40000152588</ele>
        <time>2014-02-02T12:22:42Z</time>
      </trkpt>
      <trkpt lat="48.30789" lon="2.61184">
        <ele>127.80000305176</ele>
        <time>2014-02-02T12:22:43Z</time>
      </trkpt>
      <trkpt lat="48.30789" lon="2.61184">
        <ele>128.19999694824</ele>
        <time>2014-02-02T12:22:44Z</time>
      </trkpt>
      <trkpt lat="48.30789" lon="2.61184">
        <ele>128.60000610352</ele>
        <time>2014-02-02T12:22:45Z</time>
      </trkpt>
      <trkpt lat="48.30789" lon="2.61184">
        <ele>129</ele>
        <time>2014-02-02T12:22:46Z</time>
      </trkpt>
      <trkpt lat="48.30789" lon="2.61185">
        <ele>129.39999389648</ele>
        <time>2014-02-02T12:22:54Z</time>
      </trkpt>
      <trkpt lat="48.30789" lon="2.61185">
        <ele>129.80000305176</ele>
        <time>2014-02-02T12:22:55Z</time>
      </trkpt>
      <trkpt lat="48.30789" lon="2.61185">
        <ele>130.19999694824</ele>
        <time>2014-02-02T12:22:56Z</time>
      </trkpt>
      <trkpt lat="48.30788" lon="2.61185">
        <ele>130.60000610352</ele>
        <time>2014-02-02T12:22:57Z</time>
      </trkpt>
      <trkpt lat="48.30788" lon="2.61185">
        <ele>131.19999694824</ele>
        <time>2014-02-02T12:22:58Z</time>
      </trkpt>
      <trkpt lat="48.30773" lon="2.61151">
        <ele>131.19999694824</ele>
        <time>2014-02-02T12:23:12Z</time>
      </trkpt>
      <trkpt lat="48.30766" lon="2.61139">
        <ele>131.19999694824</ele>
        <time>2014-02-02T12:23:18Z</time>
      </trkpt>
      <trkpt lat="48.30758" lon="2.61137">
        <ele>130.60000610352</ele>
        <time>2014-02-02T12:23:23Z</time>
      </trkpt>
      <trkpt lat="48.30755" lon="2.61137">
        <ele>130</ele>
        <time>2014-02-02T12:23:24Z</time>
      </trkpt>
      <trkpt lat="48.30751" lon="2.61137">
        <ele>129.60000610352</ele>
        <time>2014-02-02T12:23:25Z</time>
      </trkpt>
      <trkpt lat="48.30749" lon="2.61137">
        <ele>129</ele>
        <time>2014-02-02T12:23:26Z</time>
      </trkpt>
      <trkpt lat="48.30747" lon="2.61137">
        <ele>128.39999389648</ele>
        <time>2014-02-02T12:23:27Z</time>
      </trkpt>
      <trkpt lat="48.30745" lon="2.61138">
        <ele>128.39999389648</ele>
        <time>2014-02-02T12:23:28Z</time>
      </trkpt>
      <trkpt lat="48.3074" lon="2.61149">
        <ele>128.39999389648</ele>
        <time>2014-02-02T12:23:33Z</time>
      </trkpt>
      <trkpt lat="48.30732" lon="2.6116">
        <ele>128</ele>
        <time>2014-02-02T12:23:38Z</time>
      </trkpt>
      <trkpt lat="48.30729" lon="2.6116">
        <ele>127.59999847412</ele>
        <time>2014-02-02T12:23:39Z</time>
      </trkpt>
      <trkpt lat="48.30728" lon="2.61161">
        <ele>127</ele>
        <time>2014-02-02T12:23:40Z</time>
      </trkpt>
      <trkpt lat="48.30726" lon="2.61164">
        <ele>126.40000152588</ele>
        <time>2014-02-02T12:23:41Z</time>
      </trkpt>
      <trkpt lat="48.3072" lon="2.61153">
        <ele>125.59999847412</ele>
        <time>2014-02-02T12:23:42Z</time>
      </trkpt>
      <trkpt lat="48.30719" lon="2.61156">
        <ele>125</ele>
        <time>2014-02-02T12:23:43Z</time>
      </trkpt>
      <trkpt lat="48.30719" lon="2.61159">
        <ele>124.19999694824</ele>
        <time>2014-02-02T12:23:44Z</time>
      </trkpt>
      <trkpt lat="48.30718" lon="2.6116">
        <ele>123.40000152588</ele>
        <time>2014-02-02T12:23:45Z</time>
      </trkpt>
      <trkpt lat="48.30717" lon="2.61163">
        <ele>122.59999847412</ele>
        <time>2014-02-02T12:23:46Z</time>
      </trkpt>
      <trkpt lat="48.30717" lon="2.61167">
        <ele>121.80000305176</ele>
        <time>2014-02-02T12:23:47Z</time>
      </trkpt>
      <trkpt lat="48.30717" lon="2.61171">
        <ele>121</ele>
        <time>2014-02-02T12:23:48Z</time>
      </trkpt>
      <trkpt lat="48.30717" lon="2.61175">
        <ele>120.19999694824</ele>
        <time>2014-02-02T12:23:49Z</time>
      </trkpt>
      <trkpt lat="48.30711" lon="2.61162">
        <ele>119.40000152588</ele>
        <time>2014-02-02T12:23:50Z</time>
      </trkpt>
      <trkpt lat="48.30711" lon="2.61168">
        <ele>118.40000152588</ele>
        <time>2014-02-02T12:23:51Z</time>
      </trkpt>
      <trkpt lat="48.30708" lon="2.61173">
        <ele>117.19999694824</ele>
        <time>2014-02-02T12:23:52Z</time>
      </trkpt>
      <trkpt lat="48.30707" lon="2.61178">
        <ele>116.19999694824</ele>
        <time>2014-02-02T12:23:53Z</time>
      </trkpt>
      <trkpt lat="48.30705" lon="2.61185">
        <ele>115.19999694824</ele>
        <time>2014-02-02T12:23:54Z</time>
      </trkpt>
      <trkpt lat="48.30703" lon="2.61193">
        <ele>114</ele>
        <time>2014-02-02T12:23:55Z</time>
      </trkpt>
      <trkpt lat="48.30702" lon="2.61201">
        <ele>112.80000305176</ele>
        <time>2014-02-02T12:23:56Z</time>
      </trkpt>
      <trkpt lat="48.30701" lon="2.61208">
        <ele>111.40000152588</ele>
        <time>2014-02-02T12:23:57Z</time>
      </trkpt>
      <trkpt lat="48.30699" lon="2.61215">
        <ele>110</ele>
        <time>2014-02-02T12:23:58Z</time>
      </trkpt>
      <trkpt lat="48.30697" lon="2.61222">
        <ele>108.40000152588</ele>
        <time>2014-02-02T12:23:59Z</time>
      </trkpt>
      <trkpt lat="48.30695" lon="2.61229">
        <ele>106.80000305176</ele>
        <time>2014-02-02T12:24:00Z</time>
      </trkpt>
      <trkpt lat="48.30693" lon="2.61236">
        <ele>105.19999694824</ele>
        <time>2014-02-02T12:24:01Z</time>
      </trkpt>
      <trkpt lat="48.3069" lon="2.61243">
        <ele>103.80000305176</ele>
        <time>2014-02-02T12:24:02Z</time>
      </trkpt>
      <trkpt lat="48.30688" lon="2.61252">
        <ele>102.19999694824</ele>
        <time>2014-02-02T12:24:03Z</time>
      </trkpt>
      <trkpt lat="48.30685" lon="2.61261">
        <ele>100.80000305176</ele>
        <time>2014-02-02T12:24:04Z</time>
      </trkpt>
      <trkpt lat="48.30682" lon="2.61272">
        <ele>99.199996948242</ele>
        <time>2014-02-02T12:24:05Z</time>
      </trkpt>
      <trkpt lat="48.3068" lon="2.61281">
        <ele>97.800003051758</ele>
        <time>2014-02-02T12:24:06Z</time>
      </trkpt>
      <trkpt lat="48.30679" lon="2.6129">
        <ele>96.400001525879</ele>
        <time>2014-02-02T12:24:07Z</time>
      </trkpt>
      <trkpt lat="48.30677" lon="2.61298">
        <ele>95.199996948242</ele>
        <time>2014-02-02T12:24:08Z</time>
      </trkpt>
      <trkpt lat="48.30674" lon="2.61305">
        <ele>94</ele>
        <time>2014-02-02T12:24:09Z</time>
      </trkpt>
      <trkpt lat="48.30672" lon="2.61311">
        <ele>93</ele>
        <time>2014-02-02T12:24:10Z</time>
      </trkpt>
      <trkpt lat="48.30671" lon="2.61317">
        <ele>91.800003051758</ele>
        <time>2014-02-02T12:24:11Z</time>
      </trkpt>
      <trkpt lat="48.30669" lon="2.61324">
        <ele>91.199996948242</ele>
        <time>2014-02-02T12:24:12Z</time>
      </trkpt>
      <trkpt lat="48.30666" lon="2.61328">
        <ele>90.400001525879</ele>
        <time>2014-02-02T12:24:13Z</time>
      </trkpt>
      <trkpt lat="48.30664" lon="2.61329">
        <ele>89.800003051758</ele>
        <time>2014-02-02T12:24:14Z</time>
      </trkpt>
      <trkpt lat="48.30662" lon="2.6133">
        <ele>89.199996948242</ele>
        <time>2014-02-02T12:24:15Z</time>
      </trkpt>
      <trkpt lat="48.30661" lon="2.61328">
        <ele>88.599998474121</ele>
        <time>2014-02-02T12:24:16Z</time>
      </trkpt>
      <trkpt lat="48.30661" lon="2.61334">
        <ele>89</ele>
        <time>2014-02-02T12:24:21Z</time>
      </trkpt>
      <trkpt lat="48.30661" lon="2.61335">
        <ele>89.400001525879</ele>
        <time>2014-02-02T12:24:22Z</time>
      </trkpt>
      <trkpt lat="48.30659" lon="2.61336">
        <ele>90</ele>
        <time>2014-02-02T12:24:23Z</time>
      </trkpt>
      <trkpt lat="48.30658" lon="2.61337">
        <ele>90.400001525879</ele>
        <time>2014-02-02T12:24:24Z</time>
      </trkpt>
      <trkpt lat="48.30658" lon="2.61339">
        <ele>90.800003051758</ele>
        <time>2014-02-02T12:24:25Z</time>
      </trkpt>
      <trkpt lat="48.30654" lon="2.61348">
        <ele>91.199996948242</ele>
        <time>2014-02-02T12:24:31Z</time>
      </trkpt>
      <trkpt lat="48.30653" lon="2.61349">
        <ele>91.800003051758</ele>
        <time>2014-02-02T12:24:32Z</time>
      </trkpt>
      <trkpt lat="48.30652" lon="2.6135">
        <ele>92.199996948242</ele>
        <time>2014-02-02T12:24:33Z</time>
      </trkpt>
      <trkpt lat="48.30651" lon="2.61351">
        <ele>92.599998474121</ele>
        <time>2014-02-02T12:24:34Z</time>
      </trkpt>
      <trkpt lat="48.30651" lon="2.61352">
        <ele>93.199996948242</ele>
        <time>2014-02-02T12:24:35Z</time>
      </trkpt>
      <trkpt lat="48.30639" lon="2.61335">
        <ele>93.199996948242</ele>
        <time>2014-02-02T12:24:41Z</time>
      </trkpt>
      <trkpt lat="48.30618" lon="2.61316">
        <ele>92.599998474121</ele>
        <time>2014-02-02T12:24:50Z</time>
      </trkpt>
      <trkpt lat="48.30615" lon="2.61312">
        <ele>92.199996948242</ele>
        <time>2014-02-02T12:24:51Z</time>
      </trkpt>
      <trkpt lat="48.30611" lon="2.6131">
        <ele>91.599998474121</ele>
        <time>2014-02-02T12:24:52Z</time>
      </trkpt>
      <trkpt lat="48.30606" lon="2.61308">
        <ele>91.199996948242</ele>
        <time>2014-02-02T12:24:53Z</time>
      </trkpt>
      <trkpt lat="48.30603" lon="2.61308">
        <ele>90.599998474121</ele>
        <time>2014-02-02T12:24:54Z</time>
      </trkpt>
      <trkpt lat="48.30598" lon="2.61307">
        <ele>90</ele>
        <time>2014-02-02T12:24:55Z</time>
      </trkpt>
      <trkpt lat="48.30593" lon="2.61304">
        <ele>89.199996948242</ele>
        <time>2014-02-02T12:24:56Z</time>
      </trkpt>
      <trkpt lat="48.30589" lon="2.61301">
        <ele>88.599998474121</ele>
        <time>2014-02-02T12:24:57Z</time>
      </trkpt>
      <trkpt lat="48.30584" lon="2.613">
        <ele>88</ele>
        <time>2014-02-02T12:24:58Z</time>
      </trkpt>
      <trkpt lat="48.30577" lon="2.61299">
        <ele>87.199996948242</ele>
        <time>2014-02-02T12:24:59Z</time>
      </trkpt>
      <trkpt lat="48.30572" lon="2.61299">
        <ele>86.400001525879</ele>
        <time>2014-02-02T12:25:00Z</time>
      </trkpt>
      <trkpt lat="48.30565" lon="2.61297">
        <ele>85.800003051758</ele>
        <time>2014-02-02T12:25:01Z</time>
      </trkpt>
      <trkpt lat="48.30558" lon="2.61295">
        <ele>85</ele>
        <time>2014-02-02T12:25:02Z</time>
      </trkpt>
      <trkpt lat="48.30545" lon="2.61287">
        <ele>85</ele>
        <time>2014-02-02T12:25:04Z</time>
      </trkpt>
      <trkpt lat="48.30519" lon="2.61275">
        <ele>84.599998474121</ele>
        <time>2014-02-02T12:25:09Z</time>
      </trkpt>
      <trkpt lat="48.30514" lon="2.61273">
        <ele>84.199996948242</ele>
        <time>2014-02-02T12:25:10Z</time>
      </trkpt>
      <trkpt lat="48.3051" lon="2.61271">
        <ele>83.800003051758</ele>
        <time>2014-02-02T12:25:11Z</time>
      </trkpt>
      <trkpt lat="48.30505" lon="2.6127">
        <ele>83.400001525879</ele>
        <time>2014-02-02T12:25:12Z</time>
      </trkpt>
      <trkpt lat="48.30503" lon="2.61268">
        <ele>83</ele>
        <time>2014-02-02T12:25:13Z</time>
      </trkpt>
      <trkpt lat="48.30493" lon="2.61261">
        <ele>83</ele>
        <time>2014-02-02T12:25:16Z</time>
      </trkpt>
      <trkpt lat="48.30475" lon="2.61256">
        <ele>83</ele>
        <time>2014-02-02T12:25:21Z</time>
      </trkpt>
      <trkpt lat="48.30458" lon="2.61242">
        <ele>83</ele>
        <time>2014-02-02T12:25:26Z</time>
      </trkpt>
      <trkpt lat="48.3046" lon="2.61222">
        <ele>83</ele>
        <time>2014-02-02T12:25:31Z</time>
      </trkpt>
      <trkpt lat="48.30464" lon="2.61219">
        <ele>83</ele>
        <time>2014-02-02T12:25:33Z</time>
      </trkpt>
      <trkpt lat="48.30464" lon="2.61209">
        <ele>83</ele>
        <time>2014-02-02T12:25:34Z</time>
      </trkpt>
      <trkpt lat="48.30469" lon="2.61183">
        <ele>83</ele>
        <time>2014-02-02T12:25:40Z</time>
      </trkpt>
      <trkpt lat="48.3048" lon="2.61156">
        <ele>83.400001525879</ele>
        <time>2014-02-02T12:25:47Z</time>
      </trkpt>
      <trkpt lat="48.30482" lon="2.61153">
        <ele>83.800003051758</ele>
        <time>2014-02-02T12:25:48Z</time>
      </trkpt>
      <trkpt lat="48.30483" lon="2.61151">
        <ele>84.400001525879</ele>
        <time>2014-02-02T12:25:49Z</time>
      </trkpt>
      <trkpt lat="48.3049" lon="2.61147">
        <ele>84.800003051758</ele>
        <time>2014-02-02T12:25:50Z</time>
      </trkpt>
      <trkpt lat="48.30494" lon="2.61143">
        <ele>85.199996948242</ele>
        <time>2014-02-02T12:25:51Z</time>
      </trkpt>
      <trkpt lat="48.30498" lon="2.61137">
        <ele>85.199996948242</ele>
        <time>2014-02-02T12:25:54Z</time>
      </trkpt>
      <trkpt lat="48.30507" lon="2.61126">
        <ele>85.599998474121</ele>
        <time>2014-02-02T12:26:01Z</time>
      </trkpt>
      <trkpt lat="48.30507" lon="2.61124">
        <ele>86</ele>
        <time>2014-02-02T12:26:02Z</time>
      </trkpt>
      <trkpt lat="48.30507" lon="2.61123">
        <ele>86.400001525879</ele>
        <time>2014-02-02T12:26:03Z</time>
      </trkpt>
      <trkpt lat="48.30508" lon="2.6112">
        <ele>86.800003051758</ele>
        <time>2014-02-02T12:26:04Z</time>
      </trkpt>
      <trkpt lat="48.30509" lon="2.61118">
        <ele>87.400001525879</ele>
        <time>2014-02-02T12:26:05Z</time>
      </trkpt>
      <trkpt lat="48.30514" lon="2.61111">
        <ele>87.400001525879</ele>
        <time>2014-02-02T12:26:13Z</time>
      </trkpt>
      <trkpt lat="48.30514" lon="2.6111">
        <ele>87.800003051758</ele>
        <time>2014-02-02T12:26:14Z</time>
      </trkpt>
      <trkpt lat="48.30515" lon="2.6111">
        <ele>88.199996948242</ele>
        <time>2014-02-02T12:26:15Z</time>
      </trkpt>
      <trkpt lat="48.30515" lon="2.6111">
        <ele>88.599998474121</ele>
        <time>2014-02-02T12:26:16Z</time>
      </trkpt>
      <trkpt lat="48.30515" lon="2.61109">
        <ele>89</ele>
        <time>2014-02-02T12:26:17Z</time>
      </trkpt>
      <trkpt lat="48.30515" lon="2.61109">
        <ele>89.400001525879</ele>
        <time>2014-02-02T12:26:18Z</time>
      </trkpt>
      <trkpt lat="48.30516" lon="2.61107">
        <ele>89.800003051758</ele>
        <time>2014-02-02T12:26:29Z</time>
      </trkpt>
      <trkpt lat="48.30516" lon="2.61107">
        <ele>90.199996948242</ele>
        <time>2014-02-02T12:26:30Z</time>
      </trkpt>
      <trkpt lat="48.30516" lon="2.61107">
        <ele>90.599998474121</ele>
        <time>2014-02-02T12:26:31Z</time>
      </trkpt>
      <trkpt lat="48.30516" lon="2.61107">
        <ele>91</ele>
        <time>2014-02-02T12:26:32Z</time>
      </trkpt>
      <trkpt lat="48.30516" lon="2.61107">
        <ele>91.599998474121</ele>
        <time>2014-02-02T12:26:33Z</time>
      </trkpt>
      <trkpt lat="48.30516" lon="2.61106">
        <ele>92</ele>
        <time>2014-02-02T12:26:43Z</time>
      </trkpt>
      <trkpt lat="48.30516" lon="2.61106">
        <ele>92.400001525879</ele>
        <time>2014-02-02T12:26:44Z</time>
      </trkpt>
      <trkpt lat="48.30516" lon="2.61106">
        <ele>92.800003051758</ele>
        <time>2014-02-02T12:26:45Z</time>
      </trkpt>
      <trkpt lat="48.30516" lon="2.61106">
        <ele>93.199996948242</ele>
        <time>2014-02-02T12:26:46Z</time>
      </trkpt>
      <trkpt lat="48.30516" lon="2.61106">
        <ele>93.599998474121</ele>
        <time>2014-02-02T12:26:47Z</time>
      </trkpt>
      <trkpt lat="48.30517" lon="2.61106">
        <ele>94</ele>
        <time>2014-02-02T12:26:59Z</time>
      </trkpt>
      <trkpt lat="48.30517" lon="2.61106">
        <ele>94.400001525879</ele>
        <time>2014-02-02T12:27:00Z</time>
      </trkpt>
      <trkpt lat="48.30517" lon="2.61105">
        <ele>94.800003051758</ele>
        <time>2014-02-02T12:27:01Z</time>
      </trkpt>
      <trkpt lat="48.30517" lon="2.61105">
        <ele>95.199996948242</ele>
        <time>2014-02-02T12:27:02Z</time>
      </trkpt>
      <trkpt lat="48.30517" lon="2.61105">
        <ele>95.599998474121</ele>
        <time>2014-02-02T12:27:03Z</time>
      </trkpt>
      <trkpt lat="48.30517" lon="2.61105">
        <ele>95.599998474121</ele>
        <time>2014-02-02T12:27:05Z</time>
      </trkpt>
      <trkpt lat="48.30517" lon="2.61104">
        <ele>96</ele>
        <time>2014-02-02T12:27:13Z</time>
      </trkpt>
      <trkpt lat="48.30517" lon="2.61104">
        <ele>96.400001525879</ele>
        <time>2014-02-02T12:27:14Z</time>
      </trkpt>
      <trkpt lat="48.30517" lon="2.61104">
        <ele>97</ele>
        <time>2014-02-02T12:27:15Z</time>
      </trkpt>
      <trkpt lat="48.30517" lon="2.61104">
        <ele>97.400001525879</ele>
        <time>2014-02-02T12:27:16Z</time>
      </trkpt>
      <trkpt lat="48.30517" lon="2.61104">
        <ele>97.800003051758</ele>
        <time>2014-02-02T12:27:17Z</time>
      </trkpt>
      <trkpt lat="48.30517" lon="2.61104">
        <ele>98.199996948242</ele>
        <time>2014-02-02T12:27:34Z</time>
      </trkpt>
      <trkpt lat="48.30517" lon="2.61104">
        <ele>98.599998474121</ele>
        <time>2014-02-02T12:27:35Z</time>
      </trkpt>
      <trkpt lat="48.30517" lon="2.61104">
        <ele>99</ele>
        <time>2014-02-02T12:27:36Z</time>
      </trkpt>
      <trkpt lat="48.30517" lon="2.61104">
        <ele>99.400001525879</ele>
        <time>2014-02-02T12:27:37Z</time>
      </trkpt>
      <trkpt lat="48.30517" lon="2.61104">
        <ele>99.800003051758</ele>
        <time>2014-02-02T12:27:38Z</time>
      </trkpt>
      <trkpt lat="48.30517" lon="2.61103">
        <ele>99.800003051758</ele>
        <time>2014-02-02T12:27:53Z</time>
      </trkpt>
      <trkpt lat="48.30517" lon="2.61103">
        <ele>100.19999694824</ele>
        <time>2014-02-02T12:28:03Z</time>
      </trkpt>
      <trkpt lat="48.30517" lon="2.61103">
        <ele>100.59999847412</ele>
        <time>2014-02-02T12:28:04Z</time>
      </trkpt>
      <trkpt lat="48.30517" lon="2.61103">
        <ele>101</ele>
        <time>2014-02-02T12:28:05Z</time>
      </trkpt>
      <trkpt lat="48.30517" lon="2.61103">
        <ele>101.40000152588</ele>
        <time>2014-02-02T12:28:06Z</time>
      </trkpt>
      <trkpt lat="48.30517" lon="2.61103">
        <ele>101.80000305176</ele>
        <time>2014-02-02T12:28:07Z</time>
      </trkpt>
      <trkpt lat="48.30517" lon="2.61103">
        <ele>102.19999694824</ele>
        <time>2014-02-02T12:28:19Z</time>
      </trkpt>
      <trkpt lat="48.30517" lon="2.61103">
        <ele>102.59999847412</ele>
        <time>2014-02-02T12:28:20Z</time>
      </trkpt>
      <trkpt lat="48.30517" lon="2.61103">
        <ele>103.19999694824</ele>
        <time>2014-02-02T12:28:21Z</time>
      </trkpt>
      <trkpt lat="48.30517" lon="2.61103">
        <ele>103.59999847412</ele>
        <time>2014-02-02T12:28:22Z</time>
      </trkpt>
      <trkpt lat="48.30517" lon="2.61103">
        <ele>104</ele>
        <time>2014-02-02T12:28:23Z</time>
      </trkpt>
      <trkpt lat="48.30517" lon="2.61103">
        <ele>104.59999847412</ele>
        <time>2014-02-02T12:28:36Z</time>
      </trkpt>
      <trkpt lat="48.30517" lon="2.61103">
        <ele>105</ele>
        <time>2014-02-02T12:28:37Z</time>
      </trkpt>
      <trkpt lat="48.30517" lon="2.61103">
        <ele>105.40000152588</ele>
        <time>2014-02-02T12:28:38Z</time>
      </trkpt>
      <trkpt lat="48.30517" lon="2.61103">
        <ele>105.80000305176</ele>
        <time>2014-02-02T12:28:39Z</time>
      </trkpt>
      <trkpt lat="48.30517" lon="2.61103">
        <ele>106.40000152588</ele>
        <time>2014-02-02T12:28:40Z</time>
      </trkpt>
      <trkpt lat="48.30517" lon="2.61103">
        <ele>106.80000305176</ele>
        <time>2014-02-02T12:28:50Z</time>
      </trkpt>
      <trkpt lat="48.30517" lon="2.61103">
        <ele>107.19999694824</ele>
        <time>2014-02-02T12:28:51Z</time>
      </trkpt>
      <trkpt lat="48.30517" lon="2.61103">
        <ele>107.59999847412</ele>
        <time>2014-02-02T12:28:52Z</time>
      </trkpt>
      <trkpt lat="48.30517" lon="2.61103">
        <ele>108</ele>
        <time>2014-02-02T12:28:53Z</time>
      </trkpt>
      <trkpt lat="48.30517" lon="2.61103">
        <ele>108.40000152588</ele>
        <time>2014-02-02T12:28:54Z</time>
      </trkpt>
      <trkpt lat="48.30517" lon="2.61103">
        <ele>108.80000305176</ele>
        <time>2014-02-02T12:29:08Z</time>
      </trkpt>
      <trkpt lat="48.30517" lon="2.61103">
        <ele>109.40000152588</ele>
        <time>2014-02-02T12:29:09Z</time>
      </trkpt>
      <trkpt lat="48.30517" lon="2.61103">
        <ele>109.80000305176</ele>
        <time>2014-02-02T12:29:10Z</time>
      </trkpt>
      <trkpt lat="48.30517" lon="2.61103">
        <ele>110.19999694824</ele>
        <time>2014-02-02T12:29:11Z</time>
      </trkpt>
      <trkpt lat="48.30517" lon="2.61103">
        <ele>110.59999847412</ele>
        <time>2014-02-02T12:29:12Z</time>
      </trkpt>
      <trkpt lat="48.30517" lon="2.61103">
        <ele>111</ele>
        <time>2014-02-02T12:29:22Z</time>
      </trkpt>
      <trkpt lat="48.30517" lon="2.61103">
        <ele>111.40000152588</ele>
        <time>2014-02-02T12:29:23Z</time>
      </trkpt>
      <trkpt lat="48.30517" lon="2.61103">
        <ele>111.80000305176</ele>
        <time>2014-02-02T12:29:24Z</time>
      </trkpt>
      <trkpt lat="48.30517" lon="2.61103">
        <ele>112.40000152588</ele>
        <time>2014-02-02T12:29:25Z</time>
      </trkpt>
      <trkpt lat="48.30517" lon="2.61103">
        <ele>112.80000305176</ele>
        <time>2014-02-02T12:29:26Z</time>
      </trkpt>
      <trkpt lat="48.30543" lon="2.6106">
        <ele>113.19999694824</ele>
        <time>2014-02-02T12:29:45Z</time>
      </trkpt>
      <trkpt lat="48.30546" lon="2.61056">
        <ele>113.59999847412</ele>
        <time>2014-02-02T12:29:46Z</time>
      </trkpt>
      <trkpt lat="48.30548" lon="2.61052">
        <ele>114</ele>
        <time>2014-02-02T12:29:47Z</time>
      </trkpt>
      <trkpt lat="48.30551" lon="2.61047">
        <ele>114.40000152588</ele>
        <time>2014-02-02T12:29:48Z</time>
      </trkpt>
      <trkpt lat="48.30556" lon="2.61041">
        <ele>114.80000305176</ele>
        <time>2014-02-02T12:29:49Z</time>
      </trkpt>
      <trkpt lat="48.30576" lon="2.61016">
        <ele>114.80000305176</ele>
        <time>2014-02-02T12:29:56Z</time>
      </trkpt>
      <trkpt lat="48.3059" lon="2.60998">
        <ele>114.80000305176</ele>
        <time>2014-02-02T12:30:02Z</time>
      </trkpt>
      <trkpt lat="48.30599" lon="2.60985">
        <ele>115.19999694824</ele>
        <time>2014-02-02T12:30:06Z</time>
      </trkpt>
      <trkpt lat="48.306" lon="2.60982">
        <ele>115.59999847412</ele>
        <time>2014-02-02T12:30:07Z</time>
      </trkpt>
      <trkpt lat="48.30602" lon="2.6098">
        <ele>116</ele>
        <time>2014-02-02T12:30:08Z</time>
      </trkpt>
      <trkpt lat="48.30603" lon="2.60977">
        <ele>116.40000152588</ele>
        <time>2014-02-02T12:30:09Z</time>
      </trkpt>
      <trkpt lat="48.30605" lon="2.60975">
        <ele>116.80000305176</ele>
        <time>2014-02-02T12:30:10Z</time>
      </trkpt>
      <trkpt lat="48.30608" lon="2.60973">
        <ele>116.80000305176</ele>
        <time>2014-02-02T12:30:12Z</time>
      </trkpt>
      <trkpt lat="48.30617" lon="2.60954">
        <ele>116.80000305176</ele>
        <time>2014-02-02T12:30:19Z</time>
      </trkpt>
      <trkpt lat="48.30621" lon="2.60949">
        <ele>116.80000305176</ele>
        <time>2014-02-02T12:30:21Z</time>
      </trkpt>
      <trkpt lat="48.30627" lon="2.60931">
        <ele>116.80000305176</ele>
        <time>2014-02-02T12:30:26Z</time>
      </trkpt>
      <trkpt lat="48.30629" lon="2.60929">
        <ele>117.19999694824</ele>
        <time>2014-02-02T12:30:27Z</time>
      </trkpt>
      <trkpt lat="48.30629" lon="2.60922">
        <ele>117.59999847412</ele>
        <time>2014-02-02T12:30:28Z</time>
      </trkpt>
      <trkpt lat="48.3063" lon="2.6092">
        <ele>118.19999694824</ele>
        <time>2014-02-02T12:30:29Z</time>
      </trkpt>
      <trkpt lat="48.30632" lon="2.60919">
        <ele>118.59999847412</ele>
        <time>2014-02-02T12:30:30Z</time>
      </trkpt>
      <trkpt lat="48.30635" lon="2.60918">
        <ele>119</ele>
        <time>2014-02-02T12:30:31Z</time>
      </trkpt>
      <trkpt lat="48.30643" lon="2.60908">
        <ele>119</ele>
        <time>2014-02-02T12:30:36Z</time>
      </trkpt>
      <trkpt lat="48.30656" lon="2.60896">
        <ele>119</ele>
        <time>2014-02-02T12:30:44Z</time>
      </trkpt>
      <trkpt lat="48.30658" lon="2.60896">
        <ele>119.40000152588</ele>
        <time>2014-02-02T12:30:45Z</time>
      </trkpt>
      <trkpt lat="48.30659" lon="2.60894">
        <ele>119.80000305176</ele>
        <time>2014-02-02T12:30:46Z</time>
      </trkpt>
      <trkpt lat="48.30661" lon="2.60893">
        <ele>120.19999694824</ele>
        <time>2014-02-02T12:30:47Z</time>
      </trkpt>
      <trkpt lat="48.30661" lon="2.6089">
        <ele>120.59999847412</ele>
        <time>2014-02-02T12:30:48Z</time>
      </trkpt>
      <trkpt lat="48.30662" lon="2.60886">
        <ele>121</ele>
        <time>2014-02-02T12:30:49Z</time>
      </trkpt>
      <trkpt lat="48.30664" lon="2.6087">
        <ele>121</ele>
        <time>2014-02-02T12:30:52Z</time>
      </trkpt>
      <trkpt lat="48.30672" lon="2.60851">
        <ele>121.40000152588</ele>
        <time>2014-02-02T12:30:58Z</time>
      </trkpt>
      <trkpt lat="48.30672" lon="2.60848">
        <ele>122</ele>
        <time>2014-02-02T12:30:59Z</time>
      </trkpt>
      <trkpt lat="48.30673" lon="2.60845">
        <ele>122.40000152588</ele>
        <time>2014-02-02T12:31:00Z</time>
      </trkpt>
      <trkpt lat="48.30674" lon="2.60844">
        <ele>122.80000305176</ele>
        <time>2014-02-02T12:31:01Z</time>
      </trkpt>
      <trkpt lat="48.30674" lon="2.60839">
        <ele>123.19999694824</ele>
        <time>2014-02-02T12:31:02Z</time>
      </trkpt>
      <trkpt lat="48.30685" lon="2.60818">
        <ele>123.19999694824</ele>
        <time>2014-02-02T12:31:11Z</time>
      </trkpt>
      <trkpt lat="48.30693" lon="2.60794">
        <ele>123.19999694824</ele>
        <time>2014-02-02T12:31:19Z</time>
      </trkpt>
      <trkpt lat="48.30693" lon="2.6076">
        <ele>123.19999694824</ele>
        <time>2014-02-02T12:31:27Z</time>
      </trkpt>
      <trkpt lat="48.30693" lon="2.60752">
        <ele>123.59999847412</ele>
        <time>2014-02-02T12:31:29Z</time>
      </trkpt>
      <trkpt lat="48.30693" lon="2.60749">
        <ele>124</ele>
        <time>2014-02-02T12:31:30Z</time>
      </trkpt>
      <trkpt lat="48.30693" lon="2.60745">
        <ele>124.40000152588</ele>
        <time>2014-02-02T12:31:31Z</time>
      </trkpt>
      <trkpt lat="48.30693" lon="2.60743">
        <ele>124.80000305176</ele>
        <time>2014-02-02T12:31:32Z</time>
      </trkpt>
      <trkpt lat="48.30693" lon="2.60738">
        <ele>125.19999694824</ele>
        <time>2014-02-02T12:31:33Z</time>
      </trkpt>
      <trkpt lat="48.30693" lon="2.60736">
        <ele>125.19999694824</ele>
        <time>2014-02-02T12:31:34Z</time>
      </trkpt>
      <trkpt lat="48.30692" lon="2.60706">
        <ele>125.19999694824</ele>
        <time>2014-02-02T12:31:44Z</time>
      </trkpt>
      <trkpt lat="48.30691" lon="2.60688">
        <ele>125.59999847412</ele>
        <time>2014-02-02T12:31:51Z</time>
      </trkpt>
      <trkpt lat="48.30692" lon="2.60685">
        <ele>126</ele>
        <time>2014-02-02T12:31:52Z</time>
      </trkpt>
      <trkpt lat="48.30692" lon="2.60684">
        <ele>126.40000152588</ele>
        <time>2014-02-02T12:31:53Z</time>
      </trkpt>
      <trkpt lat="48.30693" lon="2.60681">
        <ele>126.80000305176</ele>
        <time>2014-02-02T12:31:54Z</time>
      </trkpt>
      <trkpt lat="48.30693" lon="2.60678">
        <ele>127.19999694824</ele>
        <time>2014-02-02T12:31:55Z</time>
      </trkpt>
      <trkpt lat="48.30695" lon="2.60673">
        <ele>127.19999694824</ele>
        <time>2014-02-02T12:31:57Z</time>
      </trkpt>
      <trkpt lat="48.30701" lon="2.60636">
        <ele>127.19999694824</ele>
        <time>2014-02-02T12:32:03Z</time>
      </trkpt>
      <trkpt lat="48.30713" lon="2.60619">
        <ele>127.59999847412</ele>
        <time>2014-02-02T12:32:10Z</time>
      </trkpt>
      <trkpt lat="48.30714" lon="2.60617">
        <ele>128.19999694824</ele>
        <time>2014-02-02T12:32:11Z</time>
      </trkpt>
      <trkpt lat="48.30716" lon="2.60615">
        <ele>128.60000610352</ele>
        <time>2014-02-02T12:32:12Z</time>
      </trkpt>
      <trkpt lat="48.30718" lon="2.60612">
        <ele>129</ele>
        <time>2014-02-02T12:32:13Z</time>
      </trkpt>
      <trkpt lat="48.3072" lon="2.60611">
        <ele>129.39999389648</ele>
        <time>2014-02-02T12:32:14Z</time>
      </trkpt>
      <trkpt lat="48.30726" lon="2.60606">
        <ele>129.39999389648</ele>
        <time>2014-02-02T12:32:17Z</time>
      </trkpt>
      <trkpt lat="48.30741" lon="2.60597">
        <ele>129.39999389648</ele>
        <time>2014-02-02T12:32:24Z</time>
      </trkpt>
      <trkpt lat="48.30761" lon="2.60586">
        <ele>129.39999389648</ele>
        <time>2014-02-02T12:32:30Z</time>
      </trkpt>
      <trkpt lat="48.30779" lon="2.60575">
        <ele>129.39999389648</ele>
        <time>2014-02-02T12:32:36Z</time>
      </trkpt>
      <trkpt lat="48.30798" lon="2.60563">
        <ele>129.39999389648</ele>
        <time>2014-02-02T12:32:43Z</time>
      </trkpt>
      <trkpt lat="48.30817" lon="2.60541">
        <ele>129.39999389648</ele>
        <time>2014-02-02T12:32:51Z</time>
      </trkpt>
      <trkpt lat="48.30818" lon="2.60533">
        <ele>129.39999389648</ele>
        <time>2014-02-02T12:32:53Z</time>
      </trkpt>
      <trkpt lat="48.30818" lon="2.60523">
        <ele>129.39999389648</ele>
        <time>2014-02-02T12:32:55Z</time>
      </trkpt>
      <trkpt lat="48.30814" lon="2.60516">
        <ele>129.39999389648</ele>
        <time>2014-02-02T12:32:57Z</time>
      </trkpt>
      <trkpt lat="48.30811" lon="2.605">
        <ele>129.39999389648</ele>
        <time>2014-02-02T12:33:02Z</time>
      </trkpt>
      <trkpt lat="48.30804" lon="2.60485">
        <ele>129.39999389648</ele>
        <time>2014-02-02T12:33:07Z</time>
      </trkpt>
      <trkpt lat="48.3079" lon="2.60466">
        <ele>129.39999389648</ele>
        <time>2014-02-02T12:33:11Z</time>
      </trkpt>
      <trkpt lat="48.30782" lon="2.60458">
        <ele>129</ele>
        <time>2014-02-02T12:33:13Z</time>
      </trkpt>
      <trkpt lat="48.30778" lon="2.60455">
        <ele>128.39999389648</ele>
        <time>2014-02-02T12:33:14Z</time>
      </trkpt>
      <trkpt lat="48.30774" lon="2.60451">
        <ele>128</ele>
        <time>2014-02-02T12:33:15Z</time>
      </trkpt>
      <trkpt lat="48.30772" lon="2.60447">
        <ele>127.59999847412</ele>
        <time>2014-02-02T12:33:16Z</time>
      </trkpt>
      <trkpt lat="48.3077" lon="2.60442">
        <ele>127</ele>
        <time>2014-02-02T12:33:17Z</time>
      </trkpt>
      <trkpt lat="48.30767" lon="2.60437">
        <ele>126.59999847412</ele>
        <time>2014-02-02T12:33:18Z</time>
      </trkpt>
      <trkpt lat="48.30764" lon="2.60431">
        <ele>126</ele>
        <time>2014-02-02T12:33:19Z</time>
      </trkpt>
      <trkpt lat="48.30761" lon="2.60425">
        <ele>125.59999847412</ele>
        <time>2014-02-02T12:33:20Z</time>
      </trkpt>
      <trkpt lat="48.30759" lon="2.60419">
        <ele>125</ele>
        <time>2014-02-02T12:33:21Z</time>
      </trkpt>
      <trkpt lat="48.30758" lon="2.60416">
        <ele>124.40000152588</ele>
        <time>2014-02-02T12:33:22Z</time>
      </trkpt>
      <trkpt lat="48.30756" lon="2.60411">
        <ele>123.59999847412</ele>
        <time>2014-02-02T12:33:23Z</time>
      </trkpt>
      <trkpt lat="48.30754" lon="2.60407">
        <ele>123</ele>
        <time>2014-02-02T12:33:24Z</time>
      </trkpt>
      <trkpt lat="48.3075" lon="2.60401">
        <ele>122.40000152588</ele>
        <time>2014-02-02T12:33:25Z</time>
      </trkpt>
      <trkpt lat="48.30747" lon="2.60394">
        <ele>121.59999847412</ele>
        <time>2014-02-02T12:33:26Z</time>
      </trkpt>
      <trkpt lat="48.30747" lon="2.60386">
        <ele>120.80000305176</ele>
        <time>2014-02-02T12:33:27Z</time>
      </trkpt>
      <trkpt lat="48.30746" lon="2.60377">
        <ele>120</ele>
        <time>2014-02-02T12:33:28Z</time>
      </trkpt>
      <trkpt lat="48.30746" lon="2.60369">
        <ele>119.19999694824</ele>
        <time>2014-02-02T12:33:29Z</time>
      </trkpt>
      <trkpt lat="48.30746" lon="2.60361">
        <ele>118.40000152588</ele>
        <time>2014-02-02T12:33:30Z</time>
      </trkpt>
      <trkpt lat="48.30745" lon="2.60354">
        <ele>117.80000305176</ele>
        <time>2014-02-02T12:33:31Z</time>
      </trkpt>
      <trkpt lat="48.30744" lon="2.60347">
        <ele>117</ele>
        <time>2014-02-02T12:33:32Z</time>
      </trkpt>
      <trkpt lat="48.30743" lon="2.6034">
        <ele>116.19999694824</ele>
        <time>2014-02-02T12:33:33Z</time>
      </trkpt>
      <trkpt lat="48.30742" lon="2.60333">
        <ele>115.59999847412</ele>
        <time>2014-02-02T12:33:34Z</time>
      </trkpt>
      <trkpt lat="48.3074" lon="2.60326">
        <ele>115</ele>
        <time>2014-02-02T12:33:35Z</time>
      </trkpt>
      <trkpt lat="48.30738" lon="2.60315">
        <ele>115</ele>
        <time>2014-02-02T12:33:37Z</time>
      </trkpt>
      <trkpt lat="48.30737" lon="2.60305">
        <ele>114.40000152588</ele>
        <time>2014-02-02T12:33:38Z</time>
      </trkpt>
      <trkpt lat="48.30736" lon="2.60296">
        <ele>113.59999847412</ele>
        <time>2014-02-02T12:33:39Z</time>
      </trkpt>
      <trkpt lat="48.30735" lon="2.60288">
        <ele>113</ele>
        <time>2014-02-02T12:33:40Z</time>
      </trkpt>
      <trkpt lat="48.30734" lon="2.60279">
        <ele>112.40000152588</ele>
        <time>2014-02-02T12:33:41Z</time>
      </trkpt>
      <trkpt lat="48.30734" lon="2.6027">
        <ele>111.59999847412</ele>
        <time>2014-02-02T12:33:42Z</time>
      </trkpt>
      <trkpt lat="48.30733" lon="2.60262">
        <ele>111</ele>
        <time>2014-02-02T12:33:43Z</time>
      </trkpt>
      <trkpt lat="48.30734" lon="2.60254">
        <ele>110.59999847412</ele>
        <time>2014-02-02T12:33:44Z</time>
      </trkpt>
      <trkpt lat="48.30735" lon="2.60247">
        <ele>110.19999694824</ele>
        <time>2014-02-02T12:33:45Z</time>
      </trkpt>
      <trkpt lat="48.30735" lon="2.60239">
        <ele>109.59999847412</ele>
        <time>2014-02-02T12:33:46Z</time>
      </trkpt>
      <trkpt lat="48.30734" lon="2.60231">
        <ele>109.19999694824</ele>
        <time>2014-02-02T12:33:47Z</time>
      </trkpt>
      <trkpt lat="48.30733" lon="2.60223">
        <ele>108.59999847412</ele>
        <time>2014-02-02T12:33:48Z</time>
      </trkpt>
      <trkpt lat="48.30732" lon="2.60217">
        <ele>108.19999694824</ele>
        <time>2014-02-02T12:33:49Z</time>
      </trkpt>
      <trkpt lat="48.30729" lon="2.6021">
        <ele>107.59999847412</ele>
        <time>2014-02-02T12:33:50Z</time>
      </trkpt>
      <trkpt lat="48.30727" lon="2.60204">
        <ele>107</ele>
        <time>2014-02-02T12:33:51Z</time>
      </trkpt>
      <trkpt lat="48.30724" lon="2.60197">
        <ele>106.59999847412</ele>
        <time>2014-02-02T12:33:52Z</time>
      </trkpt>
      <trkpt lat="48.3072" lon="2.60184">
        <ele>106</ele>
        <time>2014-02-02T12:33:54Z</time>
      </trkpt>
      <trkpt lat="48.30718" lon="2.60179">
        <ele>105.59999847412</ele>
        <time>2014-02-02T12:33:55Z</time>
      </trkpt>
      <trkpt lat="48.30713" lon="2.60171">
        <ele>105.19999694824</ele>
        <time>2014-02-02T12:33:56Z</time>
      </trkpt>
      <trkpt lat="48.30711" lon="2.60167">
        <ele>104.80000305176</ele>
        <time>2014-02-02T12:33:57Z</time>
      </trkpt>
      <trkpt lat="48.30707" lon="2.60162">
        <ele>104.40000152588</ele>
        <time>2014-02-02T12:33:58Z</time>
      </trkpt>
      <trkpt lat="48.30703" lon="2.60158">
        <ele>104.40000152588</ele>
        <time>2014-02-02T12:33:59Z</time>
      </trkpt>
      <trkpt lat="48.30687" lon="2.60134">
        <ele>103.80000305176</ele>
        <time>2014-02-02T12:34:05Z</time>
      </trkpt>
      <trkpt lat="48.30684" lon="2.60131">
        <ele>103.40000152588</ele>
        <time>2014-02-02T12:34:06Z</time>
      </trkpt>
      <trkpt lat="48.30681" lon="2.60127">
        <ele>102.80000305176</ele>
        <time>2014-02-02T12:34:07Z</time>
      </trkpt>
      <trkpt lat="48.30679" lon="2.60124">
        <ele>102.40000152588</ele>
        <time>2014-02-02T12:34:08Z</time>
      </trkpt>
      <trkpt lat="48.30676" lon="2.60121">
        <ele>101.80000305176</ele>
        <time>2014-02-02T12:34:09Z</time>
      </trkpt>
      <trkpt lat="48.30668" lon="2.60112">
        <ele>101.80000305176</ele>
        <time>2014-02-02T12:34:12Z</time>
      </trkpt>
      <trkpt lat="48.30664" lon="2.60107">
        <ele>101.40000152588</ele>
        <time>2014-02-02T12:34:13Z</time>
      </trkpt>
      <trkpt lat="48.30661" lon="2.60104">
        <ele>101</ele>
        <time>2014-02-02T12:34:14Z</time>
      </trkpt>
      <trkpt lat="48.30658" lon="2.60101">
        <ele>100.59999847412</ele>
        <time>2014-02-02T12:34:15Z</time>
      </trkpt>
      <trkpt lat="48.30656" lon="2.60097">
        <ele>100.19999694824</ele>
        <time>2014-02-02T12:34:16Z</time>
      </trkpt>
      <trkpt lat="48.30653" lon="2.60093">
        <ele>99.800003051758</ele>
        <time>2014-02-02T12:34:17Z</time>
      </trkpt>
      <trkpt lat="48.30645" lon="2.60089">
        <ele>99.800003051758</ele>
        <time>2014-02-02T12:34:19Z</time>
      </trkpt>
      <trkpt lat="48.30641" lon="2.6009">
        <ele>99.800003051758</ele>
        <time>2014-02-02T12:34:21Z</time>
      </trkpt>
      <trkpt lat="48.30629" lon="2.60087">
        <ele>99.800003051758</ele>
        <time>2014-02-02T12:34:27Z</time>
      </trkpt>
      <trkpt lat="48.30618" lon="2.60082">
        <ele>99.800003051758</ele>
        <time>2014-02-02T12:34:32Z</time>
      </trkpt>
      <trkpt lat="48.30616" lon="2.60081">
        <ele>100.19999694824</ele>
        <time>2014-02-02T12:34:33Z</time>
      </trkpt>
      <trkpt lat="48.30615" lon="2.60081">
        <ele>100.80000305176</ele>
        <time>2014-02-02T12:34:34Z</time>
      </trkpt>
      <trkpt lat="48.30614" lon="2.6008">
        <ele>101.19999694824</ele>
        <time>2014-02-02T12:34:35Z</time>
      </trkpt>
      <trkpt lat="48.30613" lon="2.60079">
        <ele>101.59999847412</ele>
        <time>2014-02-02T12:34:36Z</time>
      </trkpt>
      <trkpt lat="48.30611" lon="2.60077">
        <ele>102.19999694824</ele>
        <time>2014-02-02T12:34:37Z</time>
      </trkpt>
      <trkpt lat="48.30608" lon="2.60075">
        <ele>102.59999847412</ele>
        <time>2014-02-02T12:34:39Z</time>
      </trkpt>
      <trkpt lat="48.30607" lon="2.60074">
        <ele>103</ele>
        <time>2014-02-02T12:34:40Z</time>
      </trkpt>
      <trkpt lat="48.30605" lon="2.60072">
        <ele>103.40000152588</ele>
        <time>2014-02-02T12:34:41Z</time>
      </trkpt>
      <trkpt lat="48.30604" lon="2.60071">
        <ele>103.80000305176</ele>
        <time>2014-02-02T12:34:42Z</time>
      </trkpt>
      <trkpt lat="48.30601" lon="2.60069">
        <ele>104.19999694824</ele>
        <time>2014-02-02T12:34:43Z</time>
      </trkpt>
      <trkpt lat="48.30594" lon="2.60062">
        <ele>104.19999694824</ele>
        <time>2014-02-02T12:34:47Z</time>
      </trkpt>
      <trkpt lat="48.30583" lon="2.60053">
        <ele>104.19999694824</ele>
        <time>2014-02-02T12:34:52Z</time>
      </trkpt>
      <trkpt lat="48.3058" lon="2.6005">
        <ele>103.80000305176</ele>
        <time>2014-02-02T12:34:53Z</time>
      </trkpt>
      <trkpt lat="48.30577" lon="2.60048">
        <ele>103.40000152588</ele>
        <time>2014-02-02T12:34:54Z</time>
      </trkpt>
      <trkpt lat="48.30574" lon="2.60045">
        <ele>102.80000305176</ele>
        <time>2014-02-02T12:34:55Z</time>
      </trkpt>
      <trkpt lat="48.30572" lon="2.60043">
        <ele>102.40000152588</ele>
        <time>2014-02-02T12:34:56Z</time>
      </trkpt>
      <trkpt lat="48.30569" lon="2.60041">
        <ele>102</ele>
        <time>2014-02-02T12:34:57Z</time>
      </trkpt>
      <trkpt lat="48.30566" lon="2.6004">
        <ele>102</ele>
        <time>2014-02-02T12:34:58Z</time>
      </trkpt>
      <trkpt lat="48.30553" lon="2.60027">
        <ele>102</ele>
        <time>2014-02-02T12:35:03Z</time>
      </trkpt>
      <trkpt lat="48.30546" lon="2.60015">
        <ele>102</ele>
        <time>2014-02-02T12:35:09Z</time>
      </trkpt>
      <trkpt lat="48.30545" lon="2.60013">
        <ele>101.59999847412</ele>
        <time>2014-02-02T12:35:10Z</time>
      </trkpt>
      <trkpt lat="48.30543" lon="2.60012">
        <ele>101</ele>
        <time>2014-02-02T12:35:11Z</time>
      </trkpt>
      <trkpt lat="48.30541" lon="2.60011">
        <ele>100.59999847412</ele>
        <time>2014-02-02T12:35:12Z</time>
      </trkpt>
      <trkpt lat="48.3054" lon="2.60008">
        <ele>100.19999694824</ele>
        <time>2014-02-02T12:35:13Z</time>
      </trkpt>
      <trkpt lat="48.30539" lon="2.60006">
        <ele>99.599998474121</ele>
        <time>2014-02-02T12:35:14Z</time>
      </trkpt>
      <trkpt lat="48.30536" lon="2.60003">
        <ele>99</ele>
        <time>2014-02-02T12:35:15Z</time>
      </trkpt>
      <trkpt lat="48.30534" lon="2.60001">
        <ele>98.599998474121</ele>
        <time>2014-02-02T12:35:16Z</time>
      </trkpt>
      <trkpt lat="48.30532" lon="2.59998">
        <ele>98</ele>
        <time>2014-02-02T12:35:17Z</time>
      </trkpt>
      <trkpt lat="48.3053" lon="2.59995">
        <ele>97.599998474121</ele>
        <time>2014-02-02T12:35:18Z</time>
      </trkpt>
      <trkpt lat="48.30528" lon="2.59992">
        <ele>97</ele>
        <time>2014-02-02T12:35:19Z</time>
      </trkpt>
      <trkpt lat="48.30526" lon="2.5999">
        <ele>96.599998474121</ele>
        <time>2014-02-02T12:35:20Z</time>
      </trkpt>
      <trkpt lat="48.30525" lon="2.59988">
        <ele>95.800003051758</ele>
        <time>2014-02-02T12:35:21Z</time>
      </trkpt>
      <trkpt lat="48.30523" lon="2.59985">
        <ele>95.199996948242</ele>
        <time>2014-02-02T12:35:22Z</time>
      </trkpt>
      <trkpt lat="48.30522" lon="2.59981">
        <ele>94.599998474121</ele>
        <time>2014-02-02T12:35:23Z</time>
      </trkpt>
      <trkpt lat="48.30521" lon="2.59977">
        <ele>93.800003051758</ele>
        <time>2014-02-02T12:35:24Z</time>
      </trkpt>
      <trkpt lat="48.30519" lon="2.59975">
        <ele>93.199996948242</ele>
        <time>2014-02-02T12:35:25Z</time>
      </trkpt>
      <trkpt lat="48.30516" lon="2.59972">
        <ele>92.400001525879</ele>
        <time>2014-02-02T12:35:26Z</time>
      </trkpt>
      <trkpt lat="48.30513" lon="2.59971">
        <ele>91.800003051758</ele>
        <time>2014-02-02T12:35:27Z</time>
      </trkpt>
      <trkpt lat="48.3051" lon="2.5997">
        <ele>91</ele>
        <time>2014-02-02T12:35:28Z</time>
      </trkpt>
      <trkpt lat="48.30504" lon="2.5997">
        <ele>90.199996948242</ele>
        <time>2014-02-02T12:35:29Z</time>
      </trkpt>
      <trkpt lat="48.30497" lon="2.59971">
        <ele>89.800003051758</ele>
        <time>2014-02-02T12:35:31Z</time>
      </trkpt>
      <trkpt lat="48.30494" lon="2.59972">
        <ele>89.400001525879</ele>
        <time>2014-02-02T12:35:32Z</time>
      </trkpt>
      <trkpt lat="48.30491" lon="2.59974">
        <ele>89</ele>
        <time>2014-02-02T12:35:33Z</time>
      </trkpt>
      <trkpt lat="48.30488" lon="2.59976">
        <ele>88.599998474121</ele>
        <time>2014-02-02T12:35:34Z</time>
      </trkpt>
      <trkpt lat="48.30484" lon="2.59978">
        <ele>88.199996948242</ele>
        <time>2014-02-02T12:35:35Z</time>
      </trkpt>
      <trkpt lat="48.30478" lon="2.59981">
        <ele>88.199996948242</ele>
        <time>2014-02-02T12:35:37Z</time>
      </trkpt>
      <trkpt lat="48.30474" lon="2.59973">
        <ele>88.199996948242</ele>
        <time>2014-02-02T12:35:40Z</time>
      </trkpt>
      <trkpt lat="48.30473" lon="2.59968">
        <ele>88.199996948242</ele>
        <time>2014-02-02T12:35:41Z</time>
      </trkpt>
      <trkpt lat="48.3047" lon="2.59955">
        <ele>88.199996948242</ele>
        <time>2014-02-02T12:35:45Z</time>
      </trkpt>
      <trkpt lat="48.30465" lon="2.59938">
        <ele>88.199996948242</ele>
        <time>2014-02-02T12:35:49Z</time>
      </trkpt>
      <trkpt lat="48.30461" lon="2.59926">
        <ele>88.199996948242</ele>
        <time>2014-02-02T12:35:56Z</time>
      </trkpt>
      <trkpt lat="48.30462" lon="2.5992">
        <ele>88.199996948242</ele>
        <time>2014-02-02T12:36:00Z</time>
      </trkpt>
      <trkpt lat="48.30465" lon="2.59919">
        <ele>88.199996948242</ele>
        <time>2014-02-02T12:36:01Z</time>
      </trkpt>
      <trkpt lat="48.30477" lon="2.59913">
        <ele>88.199996948242</ele>
        <time>2014-02-02T12:36:06Z</time>
      </trkpt>
      <trkpt lat="48.30491" lon="2.59905">
        <ele>88.199996948242</ele>
        <time>2014-02-02T12:36:11Z</time>
      </trkpt>
      <trkpt lat="48.30511" lon="2.59893">
        <ele>88.199996948242</ele>
        <time>2014-02-02T12:36:19Z</time>
      </trkpt>
      <trkpt lat="48.30523" lon="2.59881">
        <ele>88.199996948242</ele>
        <time>2014-02-02T12:36:25Z</time>
      </trkpt>
      <trkpt lat="48.30531" lon="2.59876">
        <ele>88.599998474121</ele>
        <time>2014-02-02T12:36:29Z</time>
      </trkpt>
      <trkpt lat="48.30532" lon="2.59874">
        <ele>89</ele>
        <time>2014-02-02T12:36:30Z</time>
      </trkpt>
      <trkpt lat="48.30534" lon="2.59873">
        <ele>89.599998474121</ele>
        <time>2014-02-02T12:36:31Z</time>
      </trkpt>
      <trkpt lat="48.30537" lon="2.59872">
        <ele>90</ele>
        <time>2014-02-02T12:36:32Z</time>
      </trkpt>
      <trkpt lat="48.30538" lon="2.59871">
        <ele>90.599998474121</ele>
        <time>2014-02-02T12:36:33Z</time>
      </trkpt>
      <trkpt lat="48.30552" lon="2.59865">
        <ele>90.599998474121</ele>
        <time>2014-02-02T12:36:39Z</time>
      </trkpt>
      <trkpt lat="48.30565" lon="2.59857">
        <ele>91</ele>
        <time>2014-02-02T12:36:46Z</time>
      </trkpt>
      <trkpt lat="48.30566" lon="2.59856">
        <ele>91.400001525879</ele>
        <time>2014-02-02T12:36:47Z</time>
      </trkpt>
      <trkpt lat="48.30568" lon="2.59856">
        <ele>91.800003051758</ele>
        <time>2014-02-02T12:36:48Z</time>
      </trkpt>
      <trkpt lat="48.30568" lon="2.59855">
        <ele>92.199996948242</ele>
        <time>2014-02-02T12:36:49Z</time>
      </trkpt>
      <trkpt lat="48.30569" lon="2.59853">
        <ele>92.599998474121</ele>
        <time>2014-02-02T12:36:50Z</time>
      </trkpt>
      <trkpt lat="48.30571" lon="2.59848">
        <ele>92.599998474121</ele>
        <time>2014-02-02T12:36:52Z</time>
      </trkpt>
      <trkpt lat="48.30572" lon="2.5983">
        <ele>92.599998474121</ele>
        <time>2014-02-02T12:36:59Z</time>
      </trkpt>
      <trkpt lat="48.30573" lon="2.59823">
        <ele>93</ele>
        <time>2014-02-02T12:37:02Z</time>
      </trkpt>
      <trkpt lat="48.30575" lon="2.5982">
        <ele>93.400001525879</ele>
        <time>2014-02-02T12:37:03Z</time>
      </trkpt>
      <trkpt lat="48.30576" lon="2.59817">
        <ele>93.800003051758</ele>
        <time>2014-02-02T12:37:04Z</time>
      </trkpt>
      <trkpt lat="48.30576" lon="2.59814">
        <ele>94.199996948242</ele>
        <time>2014-02-02T12:37:05Z</time>
      </trkpt>
      <trkpt lat="48.30577" lon="2.59812">
        <ele>94.599998474121</ele>
        <time>2014-02-02T12:37:06Z</time>
      </trkpt>
      <trkpt lat="48.30583" lon="2.59798">
        <ele>94.599998474121</ele>
        <time>2014-02-02T12:37:13Z</time>
      </trkpt>
      <trkpt lat="48.30586" lon="2.59784">
        <ele>94.599998474121</ele>
        <time>2014-02-02T12:37:20Z</time>
      </trkpt>
      <trkpt lat="48.30587" lon="2.59782">
        <ele>95</ele>
        <time>2014-02-02T12:37:21Z</time>
      </trkpt>
      <trkpt lat="48.30587" lon="2.5978">
        <ele>95.400001525879</ele>
        <time>2014-02-02T12:37:22Z</time>
      </trkpt>
      <trkpt lat="48.30587" lon="2.59778">
        <ele>95.800003051758</ele>
        <time>2014-02-02T12:37:23Z</time>
      </trkpt>
      <trkpt lat="48.30587" lon="2.59776">
        <ele>96.199996948242</ele>
        <time>2014-02-02T12:37:24Z</time>
      </trkpt>
      <trkpt lat="48.30588" lon="2.59774">
        <ele>96.599998474121</ele>
        <time>2014-02-02T12:37:25Z</time>
      </trkpt>
      <trkpt lat="48.30589" lon="2.59768">
        <ele>96.599998474121</ele>
        <time>2014-02-02T12:37:29Z</time>
      </trkpt>
      <trkpt lat="48.3059" lon="2.59759">
        <ele>97</ele>
        <time>2014-02-02T12:37:33Z</time>
      </trkpt>
      <trkpt lat="48.30592" lon="2.59756">
        <ele>97.400001525879</ele>
        <time>2014-02-02T12:37:34Z</time>
      </trkpt>
      <trkpt lat="48.30593" lon="2.59753">
        <ele>98</ele>
        <time>2014-02-02T12:37:35Z</time>
      </trkpt>
      <trkpt lat="48.30593" lon="2.5975">
        <ele>98.400001525879</ele>
        <time>2014-02-02T12:37:36Z</time>
      </trkpt>
      <trkpt lat="48.30593" lon="2.59749">
        <ele>98.800003051758</ele>
        <time>2014-02-02T12:37:37Z</time>
      </trkpt>
      <trkpt lat="48.30594" lon="2.5974">
        <ele>98.800003051758</ele>
        <time>2014-02-02T12:37:41Z</time>
      </trkpt>
      <trkpt lat="48.30596" lon="2.59732">
        <ele>99.199996948242</ele>
        <time>2014-02-02T12:37:45Z</time>
      </trkpt>
      <trkpt lat="48.30597" lon="2.59731">
        <ele>99.599998474121</ele>
        <time>2014-02-02T12:37:46Z</time>
      </trkpt>
      <trkpt lat="48.30597" lon="2.59729">
        <ele>100</ele>
        <time>2014-02-02T12:37:47Z</time>
      </trkpt>
      <trkpt lat="48.30598" lon="2.59726">
        <ele>100.40000152588</ele>
        <time>2014-02-02T12:37:48Z</time>
      </trkpt>
      <trkpt lat="48.30598" lon="2.59725">
        <ele>100.80000305176</ele>
        <time>2014-02-02T12:37:49Z</time>
      </trkpt>
      <trkpt lat="48.306" lon="2.5971">
        <ele>100.80000305176</ele>
        <time>2014-02-02T12:37:57Z</time>
      </trkpt>
      <trkpt lat="48.30601" lon="2.59699">
        <ele>100.80000305176</ele>
        <time>2014-02-02T12:38:03Z</time>
      </trkpt>
      <trkpt lat="48.30602" lon="2.59697">
        <ele>101.19999694824</ele>
        <time>2014-02-02T12:38:04Z</time>
      </trkpt>
      <trkpt lat="48.30603" lon="2.59695">
        <ele>101.80000305176</ele>
        <time>2014-02-02T12:38:05Z</time>
      </trkpt>
      <trkpt lat="48.30603" lon="2.59693">
        <ele>102.19999694824</ele>
        <time>2014-02-02T12:38:06Z</time>
      </trkpt>
      <trkpt lat="48.30603" lon="2.5969">
        <ele>102.59999847412</ele>
        <time>2014-02-02T12:38:07Z</time>
      </trkpt>
      <trkpt lat="48.30602" lon="2.59688">
        <ele>103</ele>
        <time>2014-02-02T12:38:08Z</time>
      </trkpt>
      <trkpt lat="48.30603" lon="2.59679">
        <ele>103</ele>
        <time>2014-02-02T12:38:11Z</time>
      </trkpt>
      <trkpt lat="48.30605" lon="2.59654">
        <ele>103.40000152588</ele>
        <time>2014-02-02T12:38:24Z</time>
      </trkpt>
      <trkpt lat="48.30605" lon="2.59652">
        <ele>104</ele>
        <time>2014-02-02T12:38:25Z</time>
      </trkpt>
      <trkpt lat="48.30605" lon="2.5965">
        <ele>104.40000152588</ele>
        <time>2014-02-02T12:38:26Z</time>
      </trkpt>
      <trkpt lat="48.30606" lon="2.59649">
        <ele>104.80000305176</ele>
        <time>2014-02-02T12:38:27Z</time>
      </trkpt>
      <trkpt lat="48.30606" lon="2.59647">
        <ele>105.40000152588</ele>
        <time>2014-02-02T12:38:28Z</time>
      </trkpt>
      <trkpt lat="48.30608" lon="2.59637">
        <ele>105.80000305176</ele>
        <time>2014-02-02T12:38:35Z</time>
      </trkpt>
      <trkpt lat="48.30608" lon="2.59634">
        <ele>106.19999694824</ele>
        <time>2014-02-02T12:38:36Z</time>
      </trkpt>
      <trkpt lat="48.30608" lon="2.59632">
        <ele>106.59999847412</ele>
        <time>2014-02-02T12:38:37Z</time>
      </trkpt>
      <trkpt lat="48.30608" lon="2.59629">
        <ele>107</ele>
        <time>2014-02-02T12:38:38Z</time>
      </trkpt>
      <trkpt lat="48.30608" lon="2.59625">
        <ele>107.40000152588</ele>
        <time>2014-02-02T12:38:39Z</time>
      </trkpt>
      <trkpt lat="48.30609" lon="2.59618">
        <ele>107.40000152588</ele>
        <time>2014-02-02T12:38:42Z</time>
      </trkpt>
      <trkpt lat="48.30612" lon="2.59602">
        <ele>108</ele>
        <time>2014-02-02T12:38:50Z</time>
      </trkpt>
      <trkpt lat="48.30613" lon="2.59601">
        <ele>108.40000152588</ele>
        <time>2014-02-02T12:38:51Z</time>
      </trkpt>
      <trkpt lat="48.30614" lon="2.596">
        <ele>108.80000305176</ele>
        <time>2014-02-02T12:38:52Z</time>
      </trkpt>
      <trkpt lat="48.30618" lon="2.59599">
        <ele>109.59999847412</ele>
        <time>2014-02-02T12:38:54Z</time>
      </trkpt>
      <trkpt lat="48.30619" lon="2.59598">
        <ele>109.59999847412</ele>
        <time>2014-02-02T12:38:55Z</time>
      </trkpt>
      <trkpt lat="48.30628" lon="2.59593">
        <ele>109.59999847412</ele>
        <time>2014-02-02T12:39:03Z</time>
      </trkpt>
      <trkpt lat="48.3063" lon="2.5959">
        <ele>110</ele>
        <time>2014-02-02T12:39:05Z</time>
      </trkpt>
      <trkpt lat="48.30631" lon="2.59589">
        <ele>110.40000152588</ele>
        <time>2014-02-02T12:39:06Z</time>
      </trkpt>
      <trkpt lat="48.30633" lon="2.59588">
        <ele>110.80000305176</ele>
        <time>2014-02-02T12:39:07Z</time>
      </trkpt>
      <trkpt lat="48.30634" lon="2.59586">
        <ele>111.19999694824</ele>
        <time>2014-02-02T12:39:08Z</time>
      </trkpt>
      <trkpt lat="48.30634" lon="2.59584">
        <ele>111.59999847412</ele>
        <time>2014-02-02T12:39:09Z</time>
      </trkpt>
      <trkpt lat="48.30635" lon="2.5958">
        <ele>111.59999847412</ele>
        <time>2014-02-02T12:39:11Z</time>
      </trkpt>
      <trkpt lat="48.30637" lon="2.59571">
        <ele>111.59999847412</ele>
        <time>2014-02-02T12:39:18Z</time>
      </trkpt>
      <trkpt lat="48.30637" lon="2.59568">
        <ele>112.19999694824</ele>
        <time>2014-02-02T12:39:21Z</time>
      </trkpt>
      <trkpt lat="48.30637" lon="2.59567">
        <ele>112.59999847412</ele>
        <time>2014-02-02T12:39:22Z</time>
      </trkpt>
      <trkpt lat="48.30637" lon="2.59567">
        <ele>113</ele>
        <time>2014-02-02T12:39:23Z</time>
      </trkpt>
      <trkpt lat="48.30637" lon="2.59567">
        <ele>113.59999847412</ele>
        <time>2014-02-02T12:39:24Z</time>
      </trkpt>
      <trkpt lat="48.30637" lon="2.59567">
        <ele>114</ele>
        <time>2014-02-02T12:39:25Z</time>
      </trkpt>
      <trkpt lat="48.30637" lon="2.59567">
        <ele>114</ele>
        <time>2014-02-02T12:39:26Z</time>
      </trkpt>
      <trkpt lat="48.30637" lon="2.59566">
        <ele>114.40000152588</ele>
        <time>2014-02-02T12:39:32Z</time>
      </trkpt>
      <trkpt lat="48.30637" lon="2.59566">
        <ele>114.80000305176</ele>
        <time>2014-02-02T12:39:33Z</time>
      </trkpt>
      <trkpt lat="48.30637" lon="2.59566">
        <ele>115.19999694824</ele>
        <time>2014-02-02T12:39:34Z</time>
      </trkpt>
      <trkpt lat="48.30637" lon="2.59566">
        <ele>115.59999847412</ele>
        <time>2014-02-02T12:39:35Z</time>
      </trkpt>
      <trkpt lat="48.30637" lon="2.59566">
        <ele>116</ele>
        <time>2014-02-02T12:39:36Z</time>
      </trkpt>
      <trkpt lat="48.30637" lon="2.59565">
        <ele>116</ele>
        <time>2014-02-02T12:39:43Z</time>
      </trkpt>
      <trkpt lat="48.30637" lon="2.59564">
        <ele>116.40000152588</ele>
        <time>2014-02-02T12:39:54Z</time>
      </trkpt>
      <trkpt lat="48.30637" lon="2.59564">
        <ele>116.80000305176</ele>
        <time>2014-02-02T12:39:55Z</time>
      </trkpt>
      <trkpt lat="48.30637" lon="2.59563">
        <ele>117.19999694824</ele>
        <time>2014-02-02T12:39:56Z</time>
      </trkpt>
      <trkpt lat="48.30638" lon="2.59562">
        <ele>117.59999847412</ele>
        <time>2014-02-02T12:39:57Z</time>
      </trkpt>
      <trkpt lat="48.30638" lon="2.59562">
        <ele>118</ele>
        <time>2014-02-02T12:39:58Z</time>
      </trkpt>
      <trkpt lat="48.30638" lon="2.59559">
        <ele>118.40000152588</ele>
        <time>2014-02-02T12:40:09Z</time>
      </trkpt>
      <trkpt lat="48.30638" lon="2.59559">
        <ele>118.80000305176</ele>
        <time>2014-02-02T12:40:10Z</time>
      </trkpt>
      <trkpt lat="48.30638" lon="2.59558">
        <ele>119.19999694824</ele>
        <time>2014-02-02T12:40:11Z</time>
      </trkpt>
      <trkpt lat="48.30638" lon="2.59558">
        <ele>119.59999847412</ele>
        <time>2014-02-02T12:40:12Z</time>
      </trkpt>
      <trkpt lat="48.30638" lon="2.59558">
        <ele>120</ele>
        <time>2014-02-02T12:40:13Z</time>
      </trkpt>
      <trkpt lat="48.30639" lon="2.59534">
        <ele>120.40000152588</ele>
        <time>2014-02-02T12:40:22Z</time>
      </trkpt>
      <trkpt lat="48.30639" lon="2.5953">
        <ele>120.80000305176</ele>
        <time>2014-02-02T12:40:23Z</time>
      </trkpt>
      <trkpt lat="48.3064" lon="2.59526">
        <ele>121.19999694824</ele>
        <time>2014-02-02T12:40:24Z</time>
      </trkpt>
      <trkpt lat="48.3064" lon="2.59523">
        <ele>121.59999847412</ele>
        <time>2014-02-02T12:40:25Z</time>
      </trkpt>
      <trkpt lat="48.30643" lon="2.5952">
        <ele>122</ele>
        <time>2014-02-02T12:40:26Z</time>
      </trkpt>
      <trkpt lat="48.3065" lon="2.59499">
        <ele>122.40000152588</ele>
        <time>2014-02-02T12:40:34Z</time>
      </trkpt>
      <trkpt lat="48.30651" lon="2.59496">
        <ele>123</ele>
        <time>2014-02-02T12:40:35Z</time>
      </trkpt>
      <trkpt lat="48.30652" lon="2.59494">
        <ele>123.40000152588</ele>
        <time>2014-02-02T12:40:36Z</time>
      </trkpt>
      <trkpt lat="48.30653" lon="2.59491">
        <ele>123.80000305176</ele>
        <time>2014-02-02T12:40:37Z</time>
      </trkpt>
      <trkpt lat="48.30654" lon="2.59489">
        <ele>124.19999694824</ele>
        <time>2014-02-02T12:40:38Z</time>
      </trkpt>
      <trkpt lat="48.30674" lon="2.59466">
        <ele>124.59999847412</ele>
        <time>2014-02-02T12:40:45Z</time>
      </trkpt>
      <trkpt lat="48.30677" lon="2.59461">
        <ele>125</ele>
        <time>2014-02-02T12:40:46Z</time>
      </trkpt>
      <trkpt lat="48.30678" lon="2.59458">
        <ele>125.40000152588</ele>
        <time>2014-02-02T12:40:47Z</time>
      </trkpt>
      <trkpt lat="48.30678" lon="2.59455">
        <ele>125.80000305176</ele>
        <time>2014-02-02T12:40:48Z</time>
      </trkpt>
      <trkpt lat="48.30679" lon="2.59452">
        <ele>126.19999694824</ele>
        <time>2014-02-02T12:40:49Z</time>
      </trkpt>
      <trkpt lat="48.30685" lon="2.59433">
        <ele>126.19999694824</ele>
        <time>2014-02-02T12:40:56Z</time>
      </trkpt>
      <trkpt lat="48.30689" lon="2.59425">
        <ele>126.59999847412</ele>
        <time>2014-02-02T12:41:01Z</time>
      </trkpt>
      <trkpt lat="48.30689" lon="2.59424">
        <ele>127.19999694824</ele>
        <time>2014-02-02T12:41:02Z</time>
      </trkpt>
      <trkpt lat="48.30689" lon="2.59422">
        <ele>127.59999847412</ele>
        <time>2014-02-02T12:41:03Z</time>
      </trkpt>
      <trkpt lat="48.3069" lon="2.5942">
        <ele>128</ele>
        <time>2014-02-02T12:41:04Z</time>
      </trkpt>
      <trkpt lat="48.3069" lon="2.59417">
        <ele>128.39999389648</ele>
        <time>2014-02-02T12:41:05Z</time>
      </trkpt>
      <trkpt lat="48.30692" lon="2.59409">
        <ele>128.39999389648</ele>
        <time>2014-02-02T12:41:08Z</time>
      </trkpt>
      <trkpt lat="48.30689" lon="2.59382">
        <ele>128.39999389648</ele>
        <time>2014-02-02T12:41:16Z</time>
      </trkpt>
      <trkpt lat="48.30683" lon="2.59363">
        <ele>128.39999389648</ele>
        <time>2014-02-02T12:41:22Z</time>
      </trkpt>
      <trkpt lat="48.30666" lon="2.59348">
        <ele>128.39999389648</ele>
        <time>2014-02-02T12:41:28Z</time>
      </trkpt>
      <trkpt lat="48.30661" lon="2.59349">
        <ele>128.39999389648</ele>
        <time>2014-02-02T12:41:29Z</time>
      </trkpt>
      <trkpt lat="48.30655" lon="2.59346">
        <ele>128.39999389648</ele>
        <time>2014-02-02T12:41:31Z</time>
      </trkpt>
      <trkpt lat="48.30642" lon="2.59345">
        <ele>128</ele>
        <time>2014-02-02T12:41:35Z</time>
      </trkpt>
      <trkpt lat="48.30639" lon="2.59345">
        <ele>127.59999847412</ele>
        <time>2014-02-02T12:41:36Z</time>
      </trkpt>
      <trkpt lat="48.30635" lon="2.59348">
        <ele>127.19999694824</ele>
        <time>2014-02-02T12:41:37Z</time>
      </trkpt>
      <trkpt lat="48.30632" lon="2.59349">
        <ele>126.80000305176</ele>
        <time>2014-02-02T12:41:38Z</time>
      </trkpt>
      <trkpt lat="48.30629" lon="2.59348">
        <ele>126.40000152588</ele>
        <time>2014-02-02T12:41:39Z</time>
      </trkpt>
      <trkpt lat="48.30625" lon="2.5933">
        <ele>126.40000152588</ele>
        <time>2014-02-02T12:41:43Z</time>
      </trkpt>
      <trkpt lat="48.30624" lon="2.59308">
        <ele>126.40000152588</ele>
        <time>2014-02-02T12:41:48Z</time>
      </trkpt>
      <trkpt lat="48.30625" lon="2.59305">
        <ele>126.40000152588</ele>
        <time>2014-02-02T12:41:49Z</time>
      </trkpt>
      <trkpt lat="48.30624" lon="2.59297">
        <ele>126.40000152588</ele>
        <time>2014-02-02T12:41:52Z</time>
      </trkpt>
      <trkpt lat="48.30622" lon="2.59278">
        <ele>126.40000152588</ele>
        <time>2014-02-02T12:41:57Z</time>
      </trkpt>
      <trkpt lat="48.30618" lon="2.59257">
        <ele>126.40000152588</ele>
        <time>2014-02-02T12:42:03Z</time>
      </trkpt>
      <trkpt lat="48.30611" lon="2.5924">
        <ele>126.40000152588</ele>
        <time>2014-02-02T12:42:08Z</time>
      </trkpt>
      <trkpt lat="48.30602" lon="2.59212">
        <ele>126.40000152588</ele>
        <time>2014-02-02T12:42:14Z</time>
      </trkpt>
      <trkpt lat="48.30599" lon="2.59194">
        <ele>126.40000152588</ele>
        <time>2014-02-02T12:42:19Z</time>
      </trkpt>
      <trkpt lat="48.30594" lon="2.59168">
        <ele>126.40000152588</ele>
        <time>2014-02-02T12:42:25Z</time>
      </trkpt>
      <trkpt lat="48.30588" lon="2.59145">
        <ele>126.40000152588</ele>
        <time>2014-02-02T12:42:31Z</time>
      </trkpt>
      <trkpt lat="48.30594" lon="2.59136">
        <ele>126.40000152588</ele>
        <time>2014-02-02T12:42:35Z</time>
      </trkpt>
      <trkpt lat="48.30603" lon="2.59114">
        <ele>126.40000152588</ele>
        <time>2014-02-02T12:42:42Z</time>
      </trkpt>
      <trkpt lat="48.30616" lon="2.59097">
        <ele>126.40000152588</ele>
        <time>2014-02-02T12:42:48Z</time>
      </trkpt>
      <trkpt lat="48.30623" lon="2.59082">
        <ele>126.40000152588</ele>
        <time>2014-02-02T12:42:52Z</time>
      </trkpt>
      <trkpt lat="48.30631" lon="2.59072">
        <ele>126.40000152588</ele>
        <time>2014-02-02T12:42:56Z</time>
      </trkpt>
      <trkpt lat="48.30636" lon="2.59059">
        <ele>126.40000152588</ele>
        <time>2014-02-02T12:43:01Z</time>
      </trkpt>
      <trkpt lat="48.30639" lon="2.59053">
        <ele>125.80000305176</ele>
        <time>2014-02-02T12:43:04Z</time>
      </trkpt>
      <trkpt lat="48.3064" lon="2.59051">
        <ele>125.40000152588</ele>
        <time>2014-02-02T12:43:05Z</time>
      </trkpt>
      <trkpt lat="48.30641" lon="2.59047">
        <ele>125</ele>
        <time>2014-02-02T12:43:06Z</time>
      </trkpt>
      <trkpt lat="48.30642" lon="2.59043">
        <ele>124.40000152588</ele>
        <time>2014-02-02T12:43:07Z</time>
      </trkpt>
      <trkpt lat="48.30641" lon="2.59041">
        <ele>123.80000305176</ele>
        <time>2014-02-02T12:43:08Z</time>
      </trkpt>
      <trkpt lat="48.3064" lon="2.59037">
        <ele>123.19999694824</ele>
        <time>2014-02-02T12:43:09Z</time>
      </trkpt>
      <trkpt lat="48.30639" lon="2.59034">
        <ele>122.59999847412</ele>
        <time>2014-02-02T12:43:10Z</time>
      </trkpt>
      <trkpt lat="48.30637" lon="2.59031">
        <ele>122</ele>
        <time>2014-02-02T12:43:11Z</time>
      </trkpt>
      <trkpt lat="48.30635" lon="2.59028">
        <ele>121.40000152588</ele>
        <time>2014-02-02T12:43:12Z</time>
      </trkpt>
      <trkpt lat="48.30634" lon="2.59024">
        <ele>120.80000305176</ele>
        <time>2014-02-02T12:43:13Z</time>
      </trkpt>
      <trkpt lat="48.30632" lon="2.59021">
        <ele>120.19999694824</ele>
        <time>2014-02-02T12:43:14Z</time>
      </trkpt>
      <trkpt lat="48.30629" lon="2.59018">
        <ele>119.40000152588</ele>
        <time>2014-02-02T12:43:15Z</time>
      </trkpt>
      <trkpt lat="48.30626" lon="2.59016">
        <ele>118.80000305176</ele>
        <time>2014-02-02T12:43:16Z</time>
      </trkpt>
      <trkpt lat="48.30622" lon="2.59011">
        <ele>118.19999694824</ele>
        <time>2014-02-02T12:43:17Z</time>
      </trkpt>
      <trkpt lat="48.30618" lon="2.59008">
        <ele>117.59999847412</ele>
        <time>2014-02-02T12:43:18Z</time>
      </trkpt>
      <trkpt lat="48.30616" lon="2.59005">
        <ele>117</ele>
        <time>2014-02-02T12:43:19Z</time>
      </trkpt>
      <trkpt lat="48.30615" lon="2.59002">
        <ele>116.19999694824</ele>
        <time>2014-02-02T12:43:20Z</time>
      </trkpt>
      <trkpt lat="48.30615" lon="2.58999">
        <ele>115.59999847412</ele>
        <time>2014-02-02T12:43:21Z</time>
      </trkpt>
      <trkpt lat="48.30616" lon="2.58999">
        <ele>114.80000305176</ele>
        <time>2014-02-02T12:43:22Z</time>
      </trkpt>
      <trkpt lat="48.30618" lon="2.58995">
        <ele>114.80000305176</ele>
        <time>2014-02-02T12:43:24Z</time>
      </trkpt>
      <trkpt lat="48.30621" lon="2.58994">
        <ele>114.80000305176</ele>
        <time>2014-02-02T12:43:25Z</time>
      </trkpt>
      <trkpt lat="48.30621" lon="2.58995">
        <ele>114.80000305176</ele>
        <time>2014-02-02T12:43:27Z</time>
      </trkpt>
      <trkpt lat="48.30632" lon="2.59003">
        <ele>115.19999694824</ele>
        <time>2014-02-02T12:43:42Z</time>
      </trkpt>
      <trkpt lat="48.30633" lon="2.59003">
        <ele>115.80000305176</ele>
        <time>2014-02-02T12:43:43Z</time>
      </trkpt>
      <trkpt lat="48.30634" lon="2.59004">
        <ele>116.19999694824</ele>
        <time>2014-02-02T12:43:44Z</time>
      </trkpt>
      <trkpt lat="48.30634" lon="2.59004">
        <ele>116.59999847412</ele>
        <time>2014-02-02T12:43:45Z</time>
      </trkpt>
      <trkpt lat="48.30636" lon="2.59002">
        <ele>117</ele>
        <time>2014-02-02T12:43:46Z</time>
      </trkpt>
      <trkpt lat="48.3064" lon="2.58997">
        <ele>117</ele>
        <time>2014-02-02T12:43:50Z</time>
      </trkpt>
      <trkpt lat="48.30644" lon="2.5899">
        <ele>117.40000152588</ele>
        <time>2014-02-02T12:43:58Z</time>
      </trkpt>
      <trkpt lat="48.30645" lon="2.58989">
        <ele>118</ele>
        <time>2014-02-02T12:43:59Z</time>
      </trkpt>
      <trkpt lat="48.30645" lon="2.58989">
        <ele>118.40000152588</ele>
        <time>2014-02-02T12:44:00Z</time>
      </trkpt>
      <trkpt lat="48.30645" lon="2.58989">
        <ele>118.80000305176</ele>
        <time>2014-02-02T12:44:01Z</time>
      </trkpt>
      <trkpt lat="48.30647" lon="2.58988">
        <ele>119.40000152588</ele>
        <time>2014-02-02T12:44:02Z</time>
      </trkpt>
      <trkpt lat="48.30652" lon="2.58986">
        <ele>119.80000305176</ele>
        <time>2014-02-02T12:44:10Z</time>
      </trkpt>
      <trkpt lat="48.30653" lon="2.58985">
        <ele>120.19999694824</ele>
        <time>2014-02-02T12:44:11Z</time>
      </trkpt>
      <trkpt lat="48.30653" lon="2.58984">
        <ele>120.59999847412</ele>
        <time>2014-02-02T12:44:12Z</time>
      </trkpt>
      <trkpt lat="48.30652" lon="2.58983">
        <ele>121</ele>
        <time>2014-02-02T12:44:13Z</time>
      </trkpt>
      <trkpt lat="48.30652" lon="2.58982">
        <ele>121.40000152588</ele>
        <time>2014-02-02T12:44:14Z</time>
      </trkpt>
      <trkpt lat="48.30651" lon="2.58976">
        <ele>121.40000152588</ele>
        <time>2014-02-02T12:44:20Z</time>
      </trkpt>
      <trkpt lat="48.30652" lon="2.58973">
        <ele>122</ele>
        <time>2014-02-02T12:44:23Z</time>
      </trkpt>
      <trkpt lat="48.30653" lon="2.58973">
        <ele>122.40000152588</ele>
        <time>2014-02-02T12:44:24Z</time>
      </trkpt>
      <trkpt lat="48.30653" lon="2.58972">
        <ele>122.80000305176</ele>
        <time>2014-02-02T12:44:25Z</time>
      </trkpt>
      <trkpt lat="48.30653" lon="2.58972">
        <ele>123.19999694824</ele>
        <time>2014-02-02T12:44:26Z</time>
      </trkpt>
      <trkpt lat="48.30653" lon="2.58972">
        <ele>123.80000305176</ele>
        <time>2014-02-02T12:44:27Z</time>
      </trkpt>
      <trkpt lat="48.30654" lon="2.58971">
        <ele>123.80000305176</ele>
        <time>2014-02-02T12:44:29Z</time>
      </trkpt>
      <trkpt lat="48.30656" lon="2.58968">
        <ele>123.80000305176</ele>
        <time>2014-02-02T12:44:36Z</time>
      </trkpt>
      <trkpt lat="48.30659" lon="2.58967">
        <ele>124.19999694824</ele>
        <time>2014-02-02T12:44:38Z</time>
      </trkpt>
      <trkpt lat="48.30659" lon="2.58966">
        <ele>124.59999847412</ele>
        <time>2014-02-02T12:44:39Z</time>
      </trkpt>
      <trkpt lat="48.30659" lon="2.58966">
        <ele>125</ele>
        <time>2014-02-02T12:44:40Z</time>
      </trkpt>
      <trkpt lat="48.3066" lon="2.58965">
        <ele>125.40000152588</ele>
        <time>2014-02-02T12:44:41Z</time>
      </trkpt>
      <trkpt lat="48.3066" lon="2.58964">
        <ele>125.80000305176</ele>
        <time>2014-02-02T12:44:42Z</time>
      </trkpt>
      <trkpt lat="48.30662" lon="2.58953">
        <ele>125.80000305176</ele>
        <time>2014-02-02T12:44:51Z</time>
      </trkpt>
      <trkpt lat="48.30662" lon="2.58942">
        <ele>125.80000305176</ele>
        <time>2014-02-02T12:45:00Z</time>
      </trkpt>
      <trkpt lat="48.30665" lon="2.58928">
        <ele>125.80000305176</ele>
        <time>2014-02-02T12:45:07Z</time>
      </trkpt>
      <trkpt lat="48.30669" lon="2.58916">
        <ele>125.80000305176</ele>
        <time>2014-02-02T12:45:13Z</time>
      </trkpt>
      <trkpt lat="48.30676" lon="2.58906">
        <ele>125.80000305176</ele>
        <time>2014-02-02T12:45:18Z</time>
      </trkpt>
      <trkpt lat="48.30676" lon="2.58904">
        <ele>125.80000305176</ele>
        <time>2014-02-02T12:45:19Z</time>
      </trkpt>
      <trkpt lat="48.30675" lon="2.58893">
        <ele>125.40000152588</ele>
        <time>2014-02-02T12:45:22Z</time>
      </trkpt>
      <trkpt lat="48.30674" lon="2.58886">
        <ele>124.80000305176</ele>
        <time>2014-02-02T12:45:23Z</time>
      </trkpt>
      <trkpt lat="48.30675" lon="2.58878">
        <ele>124.40000152588</ele>
        <time>2014-02-02T12:45:24Z</time>
      </trkpt>
      <trkpt lat="48.30676" lon="2.58871">
        <ele>124</ele>
        <time>2014-02-02T12:45:25Z</time>
      </trkpt>
      <trkpt lat="48.30675" lon="2.58864">
        <ele>123.40000152588</ele>
        <time>2014-02-02T12:45:26Z</time>
      </trkpt>
      <trkpt lat="48.30674" lon="2.58858">
        <ele>122.80000305176</ele>
        <time>2014-02-02T12:45:27Z</time>
      </trkpt>
      <trkpt lat="48.30674" lon="2.58853">
        <ele>122.40000152588</ele>
        <time>2014-02-02T12:45:28Z</time>
      </trkpt>
      <trkpt lat="48.30674" lon="2.58849">
        <ele>121.80000305176</ele>
        <time>2014-02-02T12:45:29Z</time>
      </trkpt>
      <trkpt lat="48.30673" lon="2.58846">
        <ele>121.40000152588</ele>
        <time>2014-02-02T12:45:30Z</time>
      </trkpt>
      <trkpt lat="48.30672" lon="2.58843">
        <ele>121.40000152588</ele>
        <time>2014-02-02T12:45:31Z</time>
      </trkpt>
      <trkpt lat="48.30664" lon="2.58832">
        <ele>121.40000152588</ele>
        <time>2014-02-02T12:45:37Z</time>
      </trkpt>
      <trkpt lat="48.30655" lon="2.58827">
        <ele>121.40000152588</ele>
        <time>2014-02-02T12:45:43Z</time>
      </trkpt>
      <trkpt lat="48.30648" lon="2.58821">
        <ele>121.40000152588</ele>
        <time>2014-02-02T12:45:50Z</time>
      </trkpt>
      <trkpt lat="48.30648" lon="2.58819">
        <ele>121.80000305176</ele>
        <time>2014-02-02T12:46:01Z</time>
      </trkpt>
      <trkpt lat="48.30648" lon="2.58819">
        <ele>122.19999694824</ele>
        <time>2014-02-02T12:46:02Z</time>
      </trkpt>
      <trkpt lat="48.30648" lon="2.58819">
        <ele>122.59999847412</ele>
        <time>2014-02-02T12:46:03Z</time>
      </trkpt>
      <trkpt lat="48.30648" lon="2.58819">
        <ele>123</ele>
        <time>2014-02-02T12:46:04Z</time>
      </trkpt>
      <trkpt lat="48.30647" lon="2.58818">
        <ele>123.40000152588</ele>
        <time>2014-02-02T12:46:05Z</time>
      </trkpt>
      <trkpt lat="48.30647" lon="2.58817">
        <ele>123.80000305176</ele>
        <time>2014-02-02T12:46:11Z</time>
      </trkpt>
      <trkpt lat="48.30647" lon="2.58817">
        <ele>124.19999694824</ele>
        <time>2014-02-02T12:46:12Z</time>
      </trkpt>
      <trkpt lat="48.30647" lon="2.58817">
        <ele>124.59999847412</ele>
        <time>2014-02-02T12:46:13Z</time>
      </trkpt>
      <trkpt lat="48.30647" lon="2.58817">
        <ele>125</ele>
        <time>2014-02-02T12:46:14Z</time>
      </trkpt>
      <trkpt lat="48.30647" lon="2.58817">
        <ele>125.40000152588</ele>
        <time>2014-02-02T12:46:15Z</time>
      </trkpt>
      <trkpt lat="48.30647" lon="2.58817">
        <ele>125.40000152588</ele>
        <time>2014-02-02T12:46:27Z</time>
      </trkpt>
      <trkpt lat="48.30647" lon="2.58816">
        <ele>125.40000152588</ele>
        <time>2014-02-02T12:46:34Z</time>
      </trkpt>
      <trkpt lat="48.30647" lon="2.58816">
        <ele>125.80000305176</ele>
        <time>2014-02-02T12:46:43Z</time>
      </trkpt>
      <trkpt lat="48.30647" lon="2.58816">
        <ele>126.19999694824</ele>
        <time>2014-02-02T12:46:44Z</time>
      </trkpt>
      <trkpt lat="48.30647" lon="2.58816">
        <ele>126.59999847412</ele>
        <time>2014-02-02T12:46:45Z</time>
      </trkpt>
      <trkpt lat="48.30646" lon="2.58814">
        <ele>127</ele>
        <time>2014-02-02T12:46:46Z</time>
      </trkpt>
      <trkpt lat="48.30646" lon="2.58814">
        <ele>127.40000152588</ele>
        <time>2014-02-02T12:46:47Z</time>
      </trkpt>
      <trkpt lat="48.30645" lon="2.58811">
        <ele>127.40000152588</ele>
        <time>2014-02-02T12:46:49Z</time>
      </trkpt>
      <trkpt lat="48.30637" lon="2.5879">
        <ele>127.40000152588</ele>
        <time>2014-02-02T12:46:55Z</time>
      </trkpt>
      <trkpt lat="48.30632" lon="2.58767">
        <ele>127.80000305176</ele>
        <time>2014-02-02T12:47:02Z</time>
      </trkpt>
      <trkpt lat="48.30632" lon="2.58765">
        <ele>128.39999389648</ele>
        <time>2014-02-02T12:47:03Z</time>
      </trkpt>
      <trkpt lat="48.30632" lon="2.58762">
        <ele>128.80000305176</ele>
        <time>2014-02-02T12:47:04Z</time>
      </trkpt>
      <trkpt lat="48.30631" lon="2.5876">
        <ele>129.19999694824</ele>
        <time>2014-02-02T12:47:05Z</time>
      </trkpt>
      <trkpt lat="48.3063" lon="2.5876">
        <ele>129.80000305176</ele>
        <time>2014-02-02T12:47:06Z</time>
      </trkpt>
      <trkpt lat="48.30627" lon="2.58751">
        <ele>129.80000305176</ele>
        <time>2014-02-02T12:47:14Z</time>
      </trkpt>
      <trkpt lat="48.30628" lon="2.58745">
        <ele>129.80000305176</ele>
        <time>2014-02-02T12:47:16Z</time>
      </trkpt>
      <trkpt lat="48.30632" lon="2.5874">
        <ele>129.80000305176</ele>
        <time>2014-02-02T12:47:19Z</time>
      </trkpt>
      <trkpt lat="48.30634" lon="2.5874">
        <ele>129.80000305176</ele>
        <time>2014-02-02T12:47:23Z</time>
      </trkpt>
      <trkpt lat="48.30635" lon="2.58732">
        <ele>129.19999694824</ele>
        <time>2014-02-02T12:47:30Z</time>
      </trkpt>
      <trkpt lat="48.30635" lon="2.58731">
        <ele>128.60000610352</ele>
        <time>2014-02-02T12:47:31Z</time>
      </trkpt>
      <trkpt lat="48.30637" lon="2.58729">
        <ele>127.80000305176</ele>
        <time>2014-02-02T12:47:32Z</time>
      </trkpt>
      <trkpt lat="48.30639" lon="2.58726">
        <ele>127</ele>
        <time>2014-02-02T12:47:33Z</time>
      </trkpt>
      <trkpt lat="48.3064" lon="2.58724">
        <ele>126.19999694824</ele>
        <time>2014-02-02T12:47:34Z</time>
      </trkpt>
      <trkpt lat="48.30641" lon="2.58722">
        <ele>125.59999847412</ele>
        <time>2014-02-02T12:47:35Z</time>
      </trkpt>
      <trkpt lat="48.30642" lon="2.58721">
        <ele>124.80000305176</ele>
        <time>2014-02-02T12:47:36Z</time>
      </trkpt>
      <trkpt lat="48.30642" lon="2.58718">
        <ele>124.80000305176</ele>
        <time>2014-02-02T12:47:41Z</time>
      </trkpt>
      <trkpt lat="48.30648" lon="2.58713">
        <ele>125.19999694824</ele>
        <time>2014-02-02T12:47:46Z</time>
      </trkpt>
      <trkpt lat="48.30648" lon="2.58713">
        <ele>125.59999847412</ele>
        <time>2014-02-02T12:47:47Z</time>
      </trkpt>
      <trkpt lat="48.30649" lon="2.58712">
        <ele>126</ele>
        <time>2014-02-02T12:47:48Z</time>
      </trkpt>
      <trkpt lat="48.3065" lon="2.58711">
        <ele>126.40000152588</ele>
        <time>2014-02-02T12:47:49Z</time>
      </trkpt>
      <trkpt lat="48.30651" lon="2.5871">
        <ele>127</ele>
        <time>2014-02-02T12:47:50Z</time>
      </trkpt>
      <trkpt lat="48.30657" lon="2.58701">
        <ele>127.40000152588</ele>
        <time>2014-02-02T12:47:58Z</time>
      </trkpt>
      <trkpt lat="48.30658" lon="2.587">
        <ele>127.80000305176</ele>
        <time>2014-02-02T12:47:59Z</time>
      </trkpt>
      <trkpt lat="48.30658" lon="2.587">
        <ele>128.19999694824</ele>
        <time>2014-02-02T12:48:00Z</time>
      </trkpt>
      <trkpt lat="48.30659" lon="2.58699">
        <ele>128.60000610352</ele>
        <time>2014-02-02T12:48:01Z</time>
      </trkpt>
      <trkpt lat="48.30659" lon="2.58697">
        <ele>129</ele>
        <time>2014-02-02T12:48:02Z</time>
      </trkpt>
      <trkpt lat="48.30661" lon="2.5869">
        <ele>129</ele>
        <time>2014-02-02T12:48:12Z</time>
      </trkpt>
      <trkpt lat="48.30663" lon="2.58675">
        <ele>129</ele>
        <time>2014-02-02T12:48:36Z</time>
      </trkpt>
      <trkpt lat="48.30668" lon="2.58658">
        <ele>129</ele>
        <time>2014-02-02T12:48:43Z</time>
      </trkpt>
      <trkpt lat="48.30664" lon="2.58642">
        <ele>129</ele>
        <time>2014-02-02T12:48:49Z</time>
      </trkpt>
      <trkpt lat="48.30662" lon="2.58643">
        <ele>129</ele>
        <time>2014-02-02T12:48:50Z</time>
      </trkpt>
      <trkpt lat="48.30659" lon="2.58645">
        <ele>129</ele>
        <time>2014-02-02T12:48:52Z</time>
      </trkpt>
      <trkpt lat="48.30656" lon="2.58645">
        <ele>128.39999389648</ele>
        <time>2014-02-02T12:48:54Z</time>
      </trkpt>
      <trkpt lat="48.30655" lon="2.58644">
        <ele>128</ele>
        <time>2014-02-02T12:48:55Z</time>
      </trkpt>
      <trkpt lat="48.30655" lon="2.58644">
        <ele>127.59999847412</ele>
        <time>2014-02-02T12:48:56Z</time>
      </trkpt>
      <trkpt lat="48.30653" lon="2.58644">
        <ele>127</ele>
        <time>2014-02-02T12:48:57Z</time>
      </trkpt>
      <trkpt lat="48.30652" lon="2.58643">
        <ele>126.59999847412</ele>
        <time>2014-02-02T12:48:58Z</time>
      </trkpt>
      <trkpt lat="48.30651" lon="2.58642">
        <ele>126</ele>
        <time>2014-02-02T12:48:59Z</time>
      </trkpt>
      <trkpt lat="48.3065" lon="2.5864">
        <ele>125.59999847412</ele>
        <time>2014-02-02T12:49:00Z</time>
      </trkpt>
      <trkpt lat="48.30647" lon="2.58638">
        <ele>125</ele>
        <time>2014-02-02T12:49:01Z</time>
      </trkpt>
      <trkpt lat="48.30645" lon="2.58636">
        <ele>124.40000152588</ele>
        <time>2014-02-02T12:49:02Z</time>
      </trkpt>
      <trkpt lat="48.30644" lon="2.58634">
        <ele>124</ele>
        <time>2014-02-02T12:49:03Z</time>
      </trkpt>
      <trkpt lat="48.30642" lon="2.58632">
        <ele>123.40000152588</ele>
        <time>2014-02-02T12:49:04Z</time>
      </trkpt>
      <trkpt lat="48.3064" lon="2.58628">
        <ele>122.80000305176</ele>
        <time>2014-02-02T12:49:05Z</time>
      </trkpt>
      <trkpt lat="48.30638" lon="2.58625">
        <ele>122.19999694824</ele>
        <time>2014-02-02T12:49:06Z</time>
      </trkpt>
      <trkpt lat="48.30637" lon="2.58621">
        <ele>121.40000152588</ele>
        <time>2014-02-02T12:49:07Z</time>
      </trkpt>
      <trkpt lat="48.30635" lon="2.58618">
        <ele>120.80000305176</ele>
        <time>2014-02-02T12:49:08Z</time>
      </trkpt>
      <trkpt lat="48.30635" lon="2.58617">
        <ele>120.19999694824</ele>
        <time>2014-02-02T12:49:09Z</time>
      </trkpt>
      <trkpt lat="48.30635" lon="2.58616">
        <ele>120.19999694824</ele>
        <time>2014-02-02T12:49:11Z</time>
      </trkpt>
      <trkpt lat="48.30635" lon="2.58613">
        <ele>120.19999694824</ele>
        <time>2014-02-02T12:49:40Z</time>
      </trkpt>
      <trkpt lat="48.3063" lon="2.5861">
        <ele>119.59999847412</ele>
        <time>2014-02-02T12:50:10Z</time>
      </trkpt>
      <trkpt lat="48.30629" lon="2.58608">
        <ele>119.19999694824</ele>
        <time>2014-02-02T12:50:11Z</time>
      </trkpt>
      <trkpt lat="48.30628" lon="2.58608">
        <ele>118.40000152588</ele>
        <time>2014-02-02T12:50:12Z</time>
      </trkpt>
      <trkpt lat="48.30627" lon="2.58607">
        <ele>117.59999847412</ele>
        <time>2014-02-02T12:50:13Z</time>
      </trkpt>
      <trkpt lat="48.30626" lon="2.58608">
        <ele>116.80000305176</ele>
        <time>2014-02-02T12:50:14Z</time>
      </trkpt>
      <trkpt lat="48.30625" lon="2.5861">
        <ele>116</ele>
        <time>2014-02-02T12:50:15Z</time>
      </trkpt>
      <trkpt lat="48.30623" lon="2.58611">
        <ele>115.19999694824</ele>
        <time>2014-02-02T12:50:16Z</time>
      </trkpt>
      <trkpt lat="48.30622" lon="2.58612">
        <ele>114.40000152588</ele>
        <time>2014-02-02T12:50:17Z</time>
      </trkpt>
      <trkpt lat="48.30621" lon="2.58614">
        <ele>113.59999847412</ele>
        <time>2014-02-02T12:50:18Z</time>
      </trkpt>
      <trkpt lat="48.30618" lon="2.58616">
        <ele>112.59999847412</ele>
        <time>2014-02-02T12:50:19Z</time>
      </trkpt>
      <trkpt lat="48.30616" lon="2.58618">
        <ele>111.59999847412</ele>
        <time>2014-02-02T12:50:20Z</time>
      </trkpt>
      <trkpt lat="48.30613" lon="2.58618">
        <ele>110.59999847412</ele>
        <time>2014-02-02T12:50:21Z</time>
      </trkpt>
      <trkpt lat="48.30611" lon="2.58618">
        <ele>109.80000305176</ele>
        <time>2014-02-02T12:50:22Z</time>
      </trkpt>
      <trkpt lat="48.30609" lon="2.58619">
        <ele>109.80000305176</ele>
        <time>2014-02-02T12:50:23Z</time>
      </trkpt>
      <trkpt lat="48.30598" lon="2.58623">
        <ele>109.80000305176</ele>
        <time>2014-02-02T12:50:29Z</time>
      </trkpt>
      <trkpt lat="48.30587" lon="2.58628">
        <ele>109.80000305176</ele>
        <time>2014-02-02T12:50:36Z</time>
      </trkpt>
      <trkpt lat="48.30579" lon="2.58639">
        <ele>109.80000305176</ele>
        <time>2014-02-02T12:50:44Z</time>
      </trkpt>
      <trkpt lat="48.30577" lon="2.58659">
        <ele>109.80000305176</ele>
        <time>2014-02-02T12:50:51Z</time>
      </trkpt>
      <trkpt lat="48.30568" lon="2.58673">
        <ele>109.80000305176</ele>
        <time>2014-02-02T12:50:57Z</time>
      </trkpt>
      <trkpt lat="48.30558" lon="2.58689">
        <ele>109.80000305176</ele>
        <time>2014-02-02T12:51:05Z</time>
      </trkpt>
      <trkpt lat="48.30556" lon="2.58697">
        <ele>110.19999694824</ele>
        <time>2014-02-02T12:51:09Z</time>
      </trkpt>
      <trkpt lat="48.30555" lon="2.587">
        <ele>110.59999847412</ele>
        <time>2014-02-02T12:51:10Z</time>
      </trkpt>
      <trkpt lat="48.30555" lon="2.58702">
        <ele>111</ele>
        <time>2014-02-02T12:51:11Z</time>
      </trkpt>
      <trkpt lat="48.30555" lon="2.58704">
        <ele>111.40000152588</ele>
        <time>2014-02-02T12:51:12Z</time>
      </trkpt>
      <trkpt lat="48.30555" lon="2.58706">
        <ele>111.80000305176</ele>
        <time>2014-02-02T12:51:13Z</time>
      </trkpt>
      <trkpt lat="48.30552" lon="2.58716">
        <ele>111.80000305176</ele>
        <time>2014-02-02T12:51:20Z</time>
      </trkpt>
      <trkpt lat="48.30551" lon="2.58717">
        <ele>111.80000305176</ele>
        <time>2014-02-02T12:53:05Z</time>
      </trkpt>
      <trkpt lat="48.30551" lon="2.58717">
        <ele>111.40000152588</ele>
        <time>2014-02-02T13:01:52Z</time>
      </trkpt>
      <trkpt lat="48.30551" lon="2.58717">
        <ele>111</ele>
        <time>2014-02-02T13:01:53Z</time>
      </trkpt>
      <trkpt lat="48.30551" lon="2.58717">
        <ele>110.59999847412</ele>
        <time>2014-02-02T13:01:54Z</time>
      </trkpt>
      <trkpt lat="48.30551" lon="2.58717">
        <ele>110.19999694824</ele>
        <time>2014-02-02T13:01:55Z</time>
      </trkpt>
      <trkpt lat="48.30551" lon="2.58717">
        <ele>109.80000305176</ele>
        <time>2014-02-02T13:01:56Z</time>
      </trkpt>
      <trkpt lat="48.3055" lon="2.5872">
        <ele>109.80000305176</ele>
        <time>2014-02-02T13:03:08Z</time>
      </trkpt>
      <trkpt lat="48.30545" lon="2.58733">
        <ele>109.80000305176</ele>
        <time>2014-02-02T13:03:14Z</time>
      </trkpt>
      <trkpt lat="48.30542" lon="2.58737">
        <ele>110.19999694824</ele>
        <time>2014-02-02T13:03:16Z</time>
      </trkpt>
      <trkpt lat="48.30541" lon="2.58738">
        <ele>110.59999847412</ele>
        <time>2014-02-02T13:03:17Z</time>
      </trkpt>
      <trkpt lat="48.30539" lon="2.5874">
        <ele>111</ele>
        <time>2014-02-02T13:03:18Z</time>
      </trkpt>
      <trkpt lat="48.30538" lon="2.58742">
        <ele>111.40000152588</ele>
        <time>2014-02-02T13:03:19Z</time>
      </trkpt>
      <trkpt lat="48.30537" lon="2.58744">
        <ele>111.80000305176</ele>
        <time>2014-02-02T13:03:20Z</time>
      </trkpt>
      <trkpt lat="48.30534" lon="2.5875">
        <ele>111.80000305176</ele>
        <time>2014-02-02T13:03:23Z</time>
      </trkpt>
      <trkpt lat="48.30531" lon="2.58756">
        <ele>111.80000305176</ele>
        <time>2014-02-02T13:03:29Z</time>
      </trkpt>
      <trkpt lat="48.30529" lon="2.58763">
        <ele>111.40000152588</ele>
        <time>2014-02-02T13:03:34Z</time>
      </trkpt>
      <trkpt lat="48.30528" lon="2.58765">
        <ele>110.80000305176</ele>
        <time>2014-02-02T13:03:35Z</time>
      </trkpt>
      <trkpt lat="48.30527" lon="2.58766">
        <ele>110.40000152588</ele>
        <time>2014-02-02T13:03:36Z</time>
      </trkpt>
      <trkpt lat="48.30527" lon="2.58767">
        <ele>110</ele>
        <time>2014-02-02T13:03:37Z</time>
      </trkpt>
      <trkpt lat="48.30527" lon="2.58768">
        <ele>109.40000152588</ele>
        <time>2014-02-02T13:03:38Z</time>
      </trkpt>
      <trkpt lat="48.30525" lon="2.5877">
        <ele>109.40000152588</ele>
        <time>2014-02-02T13:03:43Z</time>
      </trkpt>
      <trkpt lat="48.30525" lon="2.58771">
        <ele>109</ele>
        <time>2014-02-02T13:03:45Z</time>
      </trkpt>
      <trkpt lat="48.30525" lon="2.58772">
        <ele>108.59999847412</ele>
        <time>2014-02-02T13:03:46Z</time>
      </trkpt>
      <trkpt lat="48.30525" lon="2.58772">
        <ele>108.19999694824</ele>
        <time>2014-02-02T13:03:47Z</time>
      </trkpt>
      <trkpt lat="48.30525" lon="2.58772">
        <ele>107.80000305176</ele>
        <time>2014-02-02T13:03:48Z</time>
      </trkpt>
      <trkpt lat="48.30525" lon="2.58772">
        <ele>107.40000152588</ele>
        <time>2014-02-02T13:03:49Z</time>
      </trkpt>
      <trkpt lat="48.30521" lon="2.58782">
        <ele>107</ele>
        <time>2014-02-02T13:03:59Z</time>
      </trkpt>
      <trkpt lat="48.3052" lon="2.58782">
        <ele>106.59999847412</ele>
        <time>2014-02-02T13:04:00Z</time>
      </trkpt>
      <trkpt lat="48.3052" lon="2.58784">
        <ele>106</ele>
        <time>2014-02-02T13:04:01Z</time>
      </trkpt>
      <trkpt lat="48.3052" lon="2.58785">
        <ele>105.59999847412</ele>
        <time>2014-02-02T13:04:02Z</time>
      </trkpt>
      <trkpt lat="48.30519" lon="2.58786">
        <ele>105.19999694824</ele>
        <time>2014-02-02T13:04:03Z</time>
      </trkpt>
      <trkpt lat="48.30516" lon="2.58789">
        <ele>104.80000305176</ele>
        <time>2014-02-02T13:04:06Z</time>
      </trkpt>
      <trkpt lat="48.30514" lon="2.5879">
        <ele>104.19999694824</ele>
        <time>2014-02-02T13:04:07Z</time>
      </trkpt>
      <trkpt lat="48.30511" lon="2.58791">
        <ele>103.59999847412</ele>
        <time>2014-02-02T13:04:08Z</time>
      </trkpt>
      <trkpt lat="48.30509" lon="2.58791">
        <ele>102.80000305176</ele>
        <time>2014-02-02T13:04:09Z</time>
      </trkpt>
      <trkpt lat="48.30507" lon="2.58792">
        <ele>102</ele>
        <time>2014-02-02T13:04:10Z</time>
      </trkpt>
      <trkpt lat="48.30505" lon="2.58795">
        <ele>101.40000152588</ele>
        <time>2014-02-02T13:04:11Z</time>
      </trkpt>
      <trkpt lat="48.30503" lon="2.58797">
        <ele>100.59999847412</ele>
        <time>2014-02-02T13:04:12Z</time>
      </trkpt>
      <trkpt lat="48.30502" lon="2.58799">
        <ele>100.59999847412</ele>
        <time>2014-02-02T13:04:13Z</time>
      </trkpt>
      <trkpt lat="48.30495" lon="2.58795">
        <ele>100.19999694824</ele>
        <time>2014-02-02T13:04:18Z</time>
      </trkpt>
      <trkpt lat="48.30495" lon="2.58792">
        <ele>99.800003051758</ele>
        <time>2014-02-02T13:04:19Z</time>
      </trkpt>
      <trkpt lat="48.30496" lon="2.58789">
        <ele>99.400001525879</ele>
        <time>2014-02-02T13:04:20Z</time>
      </trkpt>
      <trkpt lat="48.30497" lon="2.58786">
        <ele>99</ele>
        <time>2014-02-02T13:04:21Z</time>
      </trkpt>
      <trkpt lat="48.30498" lon="2.58783">
        <ele>98.599998474121</ele>
        <time>2014-02-02T13:04:22Z</time>
      </trkpt>
      <trkpt lat="48.30501" lon="2.58766">
        <ele>98.599998474121</ele>
        <time>2014-02-02T13:04:27Z</time>
      </trkpt>
      <trkpt lat="48.30509" lon="2.58735">
        <ele>98.599998474121</ele>
        <time>2014-02-02T13:04:35Z</time>
      </trkpt>
      <trkpt lat="48.30506" lon="2.58728">
        <ele>98.599998474121</ele>
        <time>2014-02-02T13:04:38Z</time>
      </trkpt>
      <trkpt lat="48.30503" lon="2.58726">
        <ele>98.599998474121</ele>
        <time>2014-02-02T13:04:39Z</time>
      </trkpt>
      <trkpt lat="48.30487" lon="2.58713">
        <ele>98.599998474121</ele>
        <time>2014-02-02T13:04:46Z</time>
      </trkpt>
      <trkpt lat="48.3048" lon="2.58704">
        <ele>98.599998474121</ele>
        <time>2014-02-02T13:04:52Z</time>
      </trkpt>
      <trkpt lat="48.30481" lon="2.58703">
        <ele>98.599998474121</ele>
        <time>2014-02-02T13:04:53Z</time>
      </trkpt>
      <trkpt lat="48.30484" lon="2.58688">
        <ele>98.599998474121</ele>
        <time>2014-02-02T13:05:00Z</time>
      </trkpt>
      <trkpt lat="48.30486" lon="2.58678">
        <ele>98.599998474121</ele>
        <time>2014-02-02T13:05:06Z</time>
      </trkpt>
      <trkpt lat="48.30487" lon="2.58667">
        <ele>98.599998474121</ele>
        <time>2014-02-02T13:05:10Z</time>
      </trkpt>
      <trkpt lat="48.30486" lon="2.5866">
        <ele>98.599998474121</ele>
        <time>2014-02-02T13:05:12Z</time>
      </trkpt>
      <trkpt lat="48.30488" lon="2.58647">
        <ele>99</ele>
        <time>2014-02-02T13:05:17Z</time>
      </trkpt>
      <trkpt lat="48.30488" lon="2.58645">
        <ele>99.400001525879</ele>
        <time>2014-02-02T13:05:18Z</time>
      </trkpt>
      <trkpt lat="48.30487" lon="2.58643">
        <ele>99.800003051758</ele>
        <time>2014-02-02T13:05:19Z</time>
      </trkpt>
      <trkpt lat="48.30487" lon="2.58641">
        <ele>100.19999694824</ele>
        <time>2014-02-02T13:05:20Z</time>
      </trkpt>
      <trkpt lat="48.30487" lon="2.58639">
        <ele>100.59999847412</ele>
        <time>2014-02-02T13:05:21Z</time>
      </trkpt>
      <trkpt lat="48.3049" lon="2.58628">
        <ele>100.59999847412</ele>
        <time>2014-02-02T13:05:27Z</time>
      </trkpt>
      <trkpt lat="48.30494" lon="2.58609">
        <ele>101</ele>
        <time>2014-02-02T13:05:37Z</time>
      </trkpt>
      <trkpt lat="48.30495" lon="2.58606">
        <ele>101.40000152588</ele>
        <time>2014-02-02T13:05:38Z</time>
      </trkpt>
      <trkpt lat="48.30496" lon="2.58604">
        <ele>101.80000305176</ele>
        <time>2014-02-02T13:05:39Z</time>
      </trkpt>
      <trkpt lat="48.30497" lon="2.58602">
        <ele>102.19999694824</ele>
        <time>2014-02-02T13:05:40Z</time>
      </trkpt>
      <trkpt lat="48.30499" lon="2.58597">
        <ele>102.59999847412</ele>
        <time>2014-02-02T13:05:41Z</time>
      </trkpt>
      <trkpt lat="48.30501" lon="2.58594">
        <ele>102.59999847412</ele>
        <time>2014-02-02T13:05:42Z</time>
      </trkpt>
      <trkpt lat="48.30503" lon="2.58588">
        <ele>102.59999847412</ele>
        <time>2014-02-02T13:05:45Z</time>
      </trkpt>
      <trkpt lat="48.3051" lon="2.58585">
        <ele>102.59999847412</ele>
        <time>2014-02-02T13:05:53Z</time>
      </trkpt>
      <trkpt lat="48.30519" lon="2.58583">
        <ele>102.59999847412</ele>
        <time>2014-02-02T13:06:02Z</time>
      </trkpt>
      <trkpt lat="48.3052" lon="2.5858">
        <ele>103.19999694824</ele>
        <time>2014-02-02T13:06:04Z</time>
      </trkpt>
      <trkpt lat="48.30521" lon="2.58578">
        <ele>103.59999847412</ele>
        <time>2014-02-02T13:06:05Z</time>
      </trkpt>
      <trkpt lat="48.30522" lon="2.58576">
        <ele>104</ele>
        <time>2014-02-02T13:06:06Z</time>
      </trkpt>
      <trkpt lat="48.30523" lon="2.58573">
        <ele>104.40000152588</ele>
        <time>2014-02-02T13:06:07Z</time>
      </trkpt>
      <trkpt lat="48.30524" lon="2.58572">
        <ele>104.80000305176</ele>
        <time>2014-02-02T13:06:08Z</time>
      </trkpt>
      <trkpt lat="48.30527" lon="2.58572">
        <ele>104.80000305176</ele>
        <time>2014-02-02T13:06:10Z</time>
      </trkpt>
      <trkpt lat="48.30528" lon="2.58573">
        <ele>104.80000305176</ele>
        <time>2014-02-02T13:06:11Z</time>
      </trkpt>
      <trkpt lat="48.30536" lon="2.58569">
        <ele>104.80000305176</ele>
        <time>2014-02-02T13:06:15Z</time>
      </trkpt>
      <trkpt lat="48.30546" lon="2.58556">
        <ele>104.80000305176</ele>
        <time>2014-02-02T13:06:24Z</time>
      </trkpt>
      <trkpt lat="48.3055" lon="2.5855">
        <ele>105.19999694824</ele>
        <time>2014-02-02T13:06:29Z</time>
      </trkpt>
      <trkpt lat="48.3055" lon="2.58549">
        <ele>105.59999847412</ele>
        <time>2014-02-02T13:06:30Z</time>
      </trkpt>
      <trkpt lat="48.30551" lon="2.58548">
        <ele>106</ele>
        <time>2014-02-02T13:06:31Z</time>
      </trkpt>
      <trkpt lat="48.30552" lon="2.58547">
        <ele>106.40000152588</ele>
        <time>2014-02-02T13:06:32Z</time>
      </trkpt>
      <trkpt lat="48.30553" lon="2.58545">
        <ele>106.80000305176</ele>
        <time>2014-02-02T13:06:33Z</time>
      </trkpt>
      <trkpt lat="48.30558" lon="2.58536">
        <ele>106.80000305176</ele>
        <time>2014-02-02T13:06:39Z</time>
      </trkpt>
      <trkpt lat="48.30559" lon="2.58531">
        <ele>107.40000152588</ele>
        <time>2014-02-02T13:06:42Z</time>
      </trkpt>
      <trkpt lat="48.30559" lon="2.5853">
        <ele>107.80000305176</ele>
        <time>2014-02-02T13:06:43Z</time>
      </trkpt>
      <trkpt lat="48.3056" lon="2.58529">
        <ele>108.19999694824</ele>
        <time>2014-02-02T13:06:44Z</time>
      </trkpt>
      <trkpt lat="48.30561" lon="2.58527">
        <ele>108.59999847412</ele>
        <time>2014-02-02T13:06:45Z</time>
      </trkpt>
      <trkpt lat="48.30562" lon="2.58526">
        <ele>109</ele>
        <time>2014-02-02T13:06:46Z</time>
      </trkpt>
      <trkpt lat="48.30568" lon="2.58513">
        <ele>109</ele>
        <time>2014-02-02T13:06:57Z</time>
      </trkpt>
      <trkpt lat="48.3057" lon="2.58511">
        <ele>109.40000152588</ele>
        <time>2014-02-02T13:06:59Z</time>
      </trkpt>
      <trkpt lat="48.30571" lon="2.5851">
        <ele>109.80000305176</ele>
        <time>2014-02-02T13:07:00Z</time>
      </trkpt>
      <trkpt lat="48.30572" lon="2.58509">
        <ele>110.19999694824</ele>
        <time>2014-02-02T13:07:01Z</time>
      </trkpt>
      <trkpt lat="48.30572" lon="2.58508">
        <ele>110.59999847412</ele>
        <time>2014-02-02T13:07:02Z</time>
      </trkpt>
      <trkpt lat="48.30573" lon="2.58508">
        <ele>111</ele>
        <time>2014-02-02T13:07:03Z</time>
      </trkpt>
      <trkpt lat="48.30573" lon="2.58503">
        <ele>111</ele>
        <time>2014-02-02T13:07:06Z</time>
      </trkpt>
      <trkpt lat="48.30573" lon="2.58488">
        <ele>111</ele>
        <time>2014-02-02T13:07:16Z</time>
      </trkpt>
      <trkpt lat="48.30574" lon="2.58479">
        <ele>111</ele>
        <time>2014-02-02T13:07:26Z</time>
      </trkpt>
      <trkpt lat="48.30576" lon="2.58473">
        <ele>111</ele>
        <time>2014-02-02T13:07:30Z</time>
      </trkpt>
      <trkpt lat="48.30576" lon="2.5847">
        <ele>111</ele>
        <time>2014-02-02T13:07:32Z</time>
      </trkpt>
      <trkpt lat="48.30576" lon="2.58468">
        <ele>111.59999847412</ele>
        <time>2014-02-02T13:07:34Z</time>
      </trkpt>
      <trkpt lat="48.30576" lon="2.58467">
        <ele>112</ele>
        <time>2014-02-02T13:07:35Z</time>
      </trkpt>
      <trkpt lat="48.30576" lon="2.58465">
        <ele>112.40000152588</ele>
        <time>2014-02-02T13:07:36Z</time>
      </trkpt>
      <trkpt lat="48.30577" lon="2.58464">
        <ele>112.80000305176</ele>
        <time>2014-02-02T13:07:37Z</time>
      </trkpt>
      <trkpt lat="48.30577" lon="2.58464">
        <ele>113.19999694824</ele>
        <time>2014-02-02T13:07:38Z</time>
      </trkpt>
      <trkpt lat="48.30577" lon="2.58458">
        <ele>113.19999694824</ele>
        <time>2014-02-02T13:07:43Z</time>
      </trkpt>
      <trkpt lat="48.30574" lon="2.58457">
        <ele>113.19999694824</ele>
        <time>2014-02-02T13:07:49Z</time>
      </trkpt>
      <trkpt lat="48.30564" lon="2.58453">
        <ele>113.19999694824</ele>
        <time>2014-02-02T13:07:57Z</time>
      </trkpt>
      <trkpt lat="48.3056" lon="2.58449">
        <ele>113.59999847412</ele>
        <time>2014-02-02T13:08:03Z</time>
      </trkpt>
      <trkpt lat="48.30558" lon="2.58448">
        <ele>114</ele>
        <time>2014-02-02T13:08:04Z</time>
      </trkpt>
      <trkpt lat="48.30557" lon="2.58447">
        <ele>114.40000152588</ele>
        <time>2014-02-02T13:08:05Z</time>
      </trkpt>
      <trkpt lat="48.30555" lon="2.58447">
        <ele>115</ele>
        <time>2014-02-02T13:08:06Z</time>
      </trkpt>
      <trkpt lat="48.30554" lon="2.58448">
        <ele>115.40000152588</ele>
        <time>2014-02-02T13:08:07Z</time>
      </trkpt>
      <trkpt lat="48.30547" lon="2.58456">
        <ele>115.40000152588</ele>
        <time>2014-02-02T13:08:13Z</time>
      </trkpt>
      <trkpt lat="48.30543" lon="2.58477">
        <ele>115.40000152588</ele>
        <time>2014-02-02T13:08:18Z</time>
      </trkpt>
      <trkpt lat="48.30542" lon="2.58481">
        <ele>114.40000152588</ele>
        <time>2014-02-02T13:08:19Z</time>
      </trkpt>
      <trkpt lat="48.30538" lon="2.58491">
        <ele>113.40000152588</ele>
        <time>2014-02-02T13:08:21Z</time>
      </trkpt>
      <trkpt lat="48.30534" lon="2.58501">
        <ele>112.19999694824</ele>
        <time>2014-02-02T13:08:23Z</time>
      </trkpt>
      <trkpt lat="48.30531" lon="2.58507">
        <ele>111.59999847412</ele>
        <time>2014-02-02T13:08:24Z</time>
      </trkpt>
      <trkpt lat="48.30529" lon="2.58511">
        <ele>111</ele>
        <time>2014-02-02T13:08:25Z</time>
      </trkpt>
      <trkpt lat="48.30522" lon="2.58514">
        <ele>111</ele>
        <time>2014-02-02T13:08:29Z</time>
      </trkpt>
      <trkpt lat="48.30511" lon="2.58517">
        <ele>111</ele>
        <time>2014-02-02T13:08:35Z</time>
      </trkpt>
      <trkpt lat="48.305" lon="2.58522">
        <ele>111</ele>
        <time>2014-02-02T13:08:42Z</time>
      </trkpt>
      <trkpt lat="48.30496" lon="2.58527">
        <ele>111</ele>
        <time>2014-02-02T13:08:45Z</time>
      </trkpt>
      <trkpt lat="48.30496" lon="2.5853">
        <ele>111</ele>
        <time>2014-02-02T13:08:46Z</time>
      </trkpt>
      <trkpt lat="48.30497" lon="2.58536">
        <ele>110.59999847412</ele>
        <time>2014-02-02T13:08:48Z</time>
      </trkpt>
      <trkpt lat="48.30496" lon="2.58538">
        <ele>110.19999694824</ele>
        <time>2014-02-02T13:08:49Z</time>
      </trkpt>
      <trkpt lat="48.30495" lon="2.58542">
        <ele>109.80000305176</ele>
        <time>2014-02-02T13:08:50Z</time>
      </trkpt>
      <trkpt lat="48.30493" lon="2.58544">
        <ele>109.40000152588</ele>
        <time>2014-02-02T13:08:51Z</time>
      </trkpt>
      <trkpt lat="48.30492" lon="2.58546">
        <ele>109</ele>
        <time>2014-02-02T13:08:52Z</time>
      </trkpt>
      <trkpt lat="48.30484" lon="2.58563">
        <ele>109</ele>
        <time>2014-02-02T13:08:57Z</time>
      </trkpt>
      <trkpt lat="48.3048" lon="2.5857">
        <ele>108.40000152588</ele>
        <time>2014-02-02T13:09:02Z</time>
      </trkpt>
      <trkpt lat="48.30479" lon="2.58571">
        <ele>108</ele>
        <time>2014-02-02T13:09:03Z</time>
      </trkpt>
      <trkpt lat="48.30477" lon="2.58571">
        <ele>107.40000152588</ele>
        <time>2014-02-02T13:09:04Z</time>
      </trkpt>
      <trkpt lat="48.30475" lon="2.58571">
        <ele>107</ele>
        <time>2014-02-02T13:09:05Z</time>
      </trkpt>
      <trkpt lat="48.30474" lon="2.58571">
        <ele>106.40000152588</ele>
        <time>2014-02-02T13:09:06Z</time>
      </trkpt>
      <trkpt lat="48.30473" lon="2.58571">
        <ele>106.40000152588</ele>
        <time>2014-02-02T13:09:07Z</time>
      </trkpt>
      <trkpt lat="48.30465" lon="2.58581">
        <ele>106.40000152588</ele>
        <time>2014-02-02T13:09:11Z</time>
      </trkpt>
      <trkpt lat="48.30464" lon="2.58585">
        <ele>106</ele>
        <time>2014-02-02T13:09:12Z</time>
      </trkpt>
      <trkpt lat="48.30463" lon="2.58588">
        <ele>105.40000152588</ele>
        <time>2014-02-02T13:09:13Z</time>
      </trkpt>
      <trkpt lat="48.30461" lon="2.58591">
        <ele>105</ele>
        <time>2014-02-02T13:09:14Z</time>
      </trkpt>
      <trkpt lat="48.30458" lon="2.58594">
        <ele>104.40000152588</ele>
        <time>2014-02-02T13:09:15Z</time>
      </trkpt>
      <trkpt lat="48.30456" lon="2.58596">
        <ele>104</ele>
        <time>2014-02-02T13:09:16Z</time>
      </trkpt>
      <trkpt lat="48.30453" lon="2.58597">
        <ele>104</ele>
        <time>2014-02-02T13:09:17Z</time>
      </trkpt>
      <trkpt lat="48.3044" lon="2.58603">
        <ele>104</ele>
        <time>2014-02-02T13:09:23Z</time>
      </trkpt>
      <trkpt lat="48.30428" lon="2.5861">
        <ele>103.59999847412</ele>
        <time>2014-02-02T13:09:26Z</time>
      </trkpt>
      <trkpt lat="48.30424" lon="2.58613">
        <ele>103</ele>
        <time>2014-02-02T13:09:27Z</time>
      </trkpt>
      <trkpt lat="48.30421" lon="2.58618">
        <ele>102.59999847412</ele>
        <time>2014-02-02T13:09:28Z</time>
      </trkpt>
      <trkpt lat="48.3042" lon="2.58622">
        <ele>102.19999694824</ele>
        <time>2014-02-02T13:09:29Z</time>
      </trkpt>
      <trkpt lat="48.30418" lon="2.58627">
        <ele>101.80000305176</ele>
        <time>2014-02-02T13:09:30Z</time>
      </trkpt>
      <trkpt lat="48.30413" lon="2.58643">
        <ele>101.40000152588</ele>
        <time>2014-02-02T13:09:33Z</time>
      </trkpt>
      <trkpt lat="48.30412" lon="2.58647">
        <ele>100.80000305176</ele>
        <time>2014-02-02T13:09:34Z</time>
      </trkpt>
      <trkpt lat="48.3041" lon="2.58651">
        <ele>100.40000152588</ele>
        <time>2014-02-02T13:09:35Z</time>
      </trkpt>
      <trkpt lat="48.30409" lon="2.58656">
        <ele>100</ele>
        <time>2014-02-02T13:09:36Z</time>
      </trkpt>
      <trkpt lat="48.30408" lon="2.5866">
        <ele>99.599998474121</ele>
        <time>2014-02-02T13:09:37Z</time>
      </trkpt>
      <trkpt lat="48.30399" lon="2.58674">
        <ele>99.599998474121</ele>
        <time>2014-02-02T13:09:40Z</time>
      </trkpt>
      <trkpt lat="48.30397" lon="2.58679">
        <ele>99.199996948242</ele>
        <time>2014-02-02T13:09:41Z</time>
      </trkpt>
      <trkpt lat="48.30396" lon="2.58684">
        <ele>98.800003051758</ele>
        <time>2014-02-02T13:09:42Z</time>
      </trkpt>
      <trkpt lat="48.30394" lon="2.58687">
        <ele>98.400001525879</ele>
        <time>2014-02-02T13:09:43Z</time>
      </trkpt>
      <trkpt lat="48.30392" lon="2.58691">
        <ele>98</ele>
        <time>2014-02-02T13:09:44Z</time>
      </trkpt>
      <trkpt lat="48.30391" lon="2.58694">
        <ele>97.599998474121</ele>
        <time>2014-02-02T13:09:45Z</time>
      </trkpt>
      <trkpt lat="48.30389" lon="2.58696">
        <ele>97.599998474121</ele>
        <time>2014-02-02T13:09:46Z</time>
      </trkpt>
      <trkpt lat="48.30388" lon="2.58697">
        <ele>97</ele>
        <time>2014-02-02T13:09:47Z</time>
      </trkpt>
      <trkpt lat="48.30386" lon="2.58697">
        <ele>96.599998474121</ele>
        <time>2014-02-02T13:09:48Z</time>
      </trkpt>
      <trkpt lat="48.30384" lon="2.58697">
        <ele>96.199996948242</ele>
        <time>2014-02-02T13:09:49Z</time>
      </trkpt>
      <trkpt lat="48.30381" lon="2.58698">
        <ele>95.800003051758</ele>
        <time>2014-02-02T13:09:50Z</time>
      </trkpt>
      <trkpt lat="48.30378" lon="2.58697">
        <ele>95.400001525879</ele>
        <time>2014-02-02T13:09:51Z</time>
      </trkpt>
      <trkpt lat="48.30372" lon="2.58688">
        <ele>94.800003051758</ele>
        <time>2014-02-02T13:09:54Z</time>
      </trkpt>
      <trkpt lat="48.30371" lon="2.58683">
        <ele>94.400001525879</ele>
        <time>2014-02-02T13:09:55Z</time>
      </trkpt>
      <trkpt lat="48.3037" lon="2.5868">
        <ele>94</ele>
        <time>2014-02-02T13:09:56Z</time>
      </trkpt>
      <trkpt lat="48.30368" lon="2.58676">
        <ele>93.599998474121</ele>
        <time>2014-02-02T13:09:57Z</time>
      </trkpt>
      <trkpt lat="48.30365" lon="2.58672">
        <ele>93.199996948242</ele>
        <time>2014-02-02T13:09:58Z</time>
      </trkpt>
      <trkpt lat="48.3036" lon="2.5866">
        <ele>93.199996948242</ele>
        <time>2014-02-02T13:10:01Z</time>
      </trkpt>
      <trkpt lat="48.30355" lon="2.58634">
        <ele>93.199996948242</ele>
        <time>2014-02-02T13:10:06Z</time>
      </trkpt>
      <trkpt lat="48.30349" lon="2.58601">
        <ele>93.199996948242</ele>
        <time>2014-02-02T13:10:12Z</time>
      </trkpt>
      <trkpt lat="48.30345" lon="2.58583">
        <ele>93.199996948242</ele>
        <time>2014-02-02T13:10:16Z</time>
      </trkpt>
      <trkpt lat="48.30338" lon="2.58562">
        <ele>93.199996948242</ele>
        <time>2014-02-02T13:10:21Z</time>
      </trkpt>
      <trkpt lat="48.30328" lon="2.58546">
        <ele>93.199996948242</ele>
        <time>2014-02-02T13:10:25Z</time>
      </trkpt>
      <trkpt lat="48.30317" lon="2.58531">
        <ele>93.199996948242</ele>
        <time>2014-02-02T13:10:29Z</time>
      </trkpt>
      <trkpt lat="48.30316" lon="2.58507">
        <ele>93.199996948242</ele>
        <time>2014-02-02T13:10:35Z</time>
      </trkpt>
      <trkpt lat="48.30311" lon="2.5849">
        <ele>93.199996948242</ele>
        <time>2014-02-02T13:10:42Z</time>
      </trkpt>
      <trkpt lat="48.3031" lon="2.58487">
        <ele>93.599998474121</ele>
        <time>2014-02-02T13:10:43Z</time>
      </trkpt>
      <trkpt lat="48.30308" lon="2.58484">
        <ele>94.199996948242</ele>
        <time>2014-02-02T13:10:44Z</time>
      </trkpt>
      <trkpt lat="48.30307" lon="2.58483">
        <ele>94.599998474121</ele>
        <time>2014-02-02T13:10:45Z</time>
      </trkpt>
      <trkpt lat="48.30306" lon="2.58479">
        <ele>95</ele>
        <time>2014-02-02T13:10:46Z</time>
      </trkpt>
      <trkpt lat="48.30305" lon="2.58475">
        <ele>95.400001525879</ele>
        <time>2014-02-02T13:10:47Z</time>
      </trkpt>
      <trkpt lat="48.30303" lon="2.58472">
        <ele>95.400001525879</ele>
        <time>2014-02-02T13:10:48Z</time>
      </trkpt>
      <trkpt lat="48.3029" lon="2.58451">
        <ele>95.400001525879</ele>
        <time>2014-02-02T13:10:54Z</time>
      </trkpt>
      <trkpt lat="48.3028" lon="2.58433">
        <ele>95</ele>
        <time>2014-02-02T13:11:00Z</time>
      </trkpt>
      <trkpt lat="48.30277" lon="2.58427">
        <ele>94.599998474121</ele>
        <time>2014-02-02T13:11:01Z</time>
      </trkpt>
      <trkpt lat="48.30276" lon="2.58423">
        <ele>94.199996948242</ele>
        <time>2014-02-02T13:11:02Z</time>
      </trkpt>
      <trkpt lat="48.30275" lon="2.5842">
        <ele>93.800003051758</ele>
        <time>2014-02-02T13:11:03Z</time>
      </trkpt>
      <trkpt lat="48.30273" lon="2.58416">
        <ele>93.400001525879</ele>
        <time>2014-02-02T13:11:04Z</time>
      </trkpt>
      <trkpt lat="48.3027" lon="2.58408">
        <ele>93.400001525879</ele>
        <time>2014-02-02T13:11:06Z</time>
      </trkpt>
      <trkpt lat="48.30262" lon="2.58384">
        <ele>93.400001525879</ele>
        <time>2014-02-02T13:11:12Z</time>
      </trkpt>
      <trkpt lat="48.30257" lon="2.58364">
        <ele>93.400001525879</ele>
        <time>2014-02-02T13:11:19Z</time>
      </trkpt>
      <trkpt lat="48.30259" lon="2.58358">
        <ele>93.400001525879</ele>
        <time>2014-02-02T13:11:22Z</time>
      </trkpt>
      <trkpt lat="48.3026" lon="2.58358">
        <ele>93.400001525879</ele>
        <time>2014-02-02T13:11:23Z</time>
      </trkpt>
      <trkpt lat="48.30262" lon="2.58358">
        <ele>93.800003051758</ele>
        <time>2014-02-02T13:11:26Z</time>
      </trkpt>
      <trkpt lat="48.30263" lon="2.58358">
        <ele>94.199996948242</ele>
        <time>2014-02-02T13:11:27Z</time>
      </trkpt>
      <trkpt lat="48.30264" lon="2.58358">
        <ele>94.599998474121</ele>
        <time>2014-02-02T13:11:28Z</time>
      </trkpt>
      <trkpt lat="48.30264" lon="2.58358">
        <ele>95</ele>
        <time>2014-02-02T13:11:29Z</time>
      </trkpt>
      <trkpt lat="48.30266" lon="2.58357">
        <ele>95.400001525879</ele>
        <time>2014-02-02T13:11:30Z</time>
      </trkpt>
      <trkpt lat="48.30286" lon="2.58361">
        <ele>95.400001525879</ele>
        <time>2014-02-02T13:11:44Z</time>
      </trkpt>
      <trkpt lat="48.30292" lon="2.58364">
        <ele>95.800003051758</ele>
        <time>2014-02-02T13:11:48Z</time>
      </trkpt>
      <trkpt lat="48.30294" lon="2.58365">
        <ele>96.199996948242</ele>
        <time>2014-02-02T13:11:49Z</time>
      </trkpt>
      <trkpt lat="48.30295" lon="2.58366">
        <ele>96.599998474121</ele>
        <time>2014-02-02T13:11:50Z</time>
      </trkpt>
      <trkpt lat="48.30296" lon="2.58366">
        <ele>97</ele>
        <time>2014-02-02T13:11:51Z</time>
      </trkpt>
      <trkpt lat="48.30298" lon="2.58367">
        <ele>97.400001525879</ele>
        <time>2014-02-02T13:11:52Z</time>
      </trkpt>
      <trkpt lat="48.30301" lon="2.58369">
        <ele>97.800003051758</ele>
        <time>2014-02-02T13:11:54Z</time>
      </trkpt>
      <trkpt lat="48.30302" lon="2.58369">
        <ele>98.199996948242</ele>
        <time>2014-02-02T13:11:55Z</time>
      </trkpt>
      <trkpt lat="48.30303" lon="2.58368">
        <ele>98.800003051758</ele>
        <time>2014-02-02T13:11:56Z</time>
      </trkpt>
      <trkpt lat="48.30304" lon="2.58368">
        <ele>99.199996948242</ele>
        <time>2014-02-02T13:11:57Z</time>
      </trkpt>
      <trkpt lat="48.30305" lon="2.58368">
        <ele>99.599998474121</ele>
        <time>2014-02-02T13:11:58Z</time>
      </trkpt>
      <trkpt lat="48.30306" lon="2.58367">
        <ele>99.599998474121</ele>
        <time>2014-02-02T13:12:06Z</time>
      </trkpt>
      <trkpt lat="48.30306" lon="2.58367">
        <ele>100</ele>
        <time>2014-02-02T13:12:11Z</time>
      </trkpt>
      <trkpt lat="48.30306" lon="2.58367">
        <ele>100.40000152588</ele>
        <time>2014-02-02T13:12:12Z</time>
      </trkpt>
      <trkpt lat="48.30306" lon="2.58367">
        <ele>100.80000305176</ele>
        <time>2014-02-02T13:12:13Z</time>
      </trkpt>
      <trkpt lat="48.30306" lon="2.58367">
        <ele>101.19999694824</ele>
        <time>2014-02-02T13:12:14Z</time>
      </trkpt>
      <trkpt lat="48.30306" lon="2.58367">
        <ele>101.59999847412</ele>
        <time>2014-02-02T13:12:15Z</time>
      </trkpt>
      <trkpt lat="48.3031" lon="2.58372">
        <ele>101.59999847412</ele>
        <time>2014-02-02T13:12:28Z</time>
      </trkpt>
      <trkpt lat="48.3032" lon="2.58383">
        <ele>101.59999847412</ele>
        <time>2014-02-02T13:12:30Z</time>
      </trkpt>
      <trkpt lat="48.30342" lon="2.58402">
        <ele>101.59999847412</ele>
        <time>2014-02-02T13:12:39Z</time>
      </trkpt>
      <trkpt lat="48.30353" lon="2.5841">
        <ele>102</ele>
        <time>2014-02-02T13:12:46Z</time>
      </trkpt>
      <trkpt lat="48.30354" lon="2.5841">
        <ele>102.40000152588</ele>
        <time>2014-02-02T13:12:47Z</time>
      </trkpt>
      <trkpt lat="48.30355" lon="2.58411">
        <ele>102.80000305176</ele>
        <time>2014-02-02T13:12:48Z</time>
      </trkpt>
      <trkpt lat="48.30356" lon="2.58413">
        <ele>103.19999694824</ele>
        <time>2014-02-02T13:12:49Z</time>
      </trkpt>
      <trkpt lat="48.30357" lon="2.58414">
        <ele>103.59999847412</ele>
        <time>2014-02-02T13:12:50Z</time>
      </trkpt>
      <trkpt lat="48.30366" lon="2.5842">
        <ele>103.59999847412</ele>
        <time>2014-02-02T13:12:58Z</time>
      </trkpt>
      <trkpt lat="48.30381" lon="2.58437">
        <ele>104</ele>
        <time>2014-02-02T13:13:09Z</time>
      </trkpt>
      <trkpt lat="48.30382" lon="2.58437">
        <ele>104.40000152588</ele>
        <time>2014-02-02T13:13:10Z</time>
      </trkpt>
      <trkpt lat="48.30383" lon="2.58436">
        <ele>104.80000305176</ele>
        <time>2014-02-02T13:13:11Z</time>
      </trkpt>
      <trkpt lat="48.30384" lon="2.58437">
        <ele>105.40000152588</ele>
        <time>2014-02-02T13:13:12Z</time>
      </trkpt>
      <trkpt lat="48.30385" lon="2.58437">
        <ele>105.80000305176</ele>
        <time>2014-02-02T13:13:13Z</time>
      </trkpt>
      <trkpt lat="48.30389" lon="2.58445">
        <ele>105.80000305176</ele>
        <time>2014-02-02T13:13:18Z</time>
      </trkpt>
      <trkpt lat="48.30398" lon="2.58463">
        <ele>105.80000305176</ele>
        <time>2014-02-02T13:13:23Z</time>
      </trkpt>
      <trkpt lat="48.30409" lon="2.58477">
        <ele>105.80000305176</ele>
        <time>2014-02-02T13:13:29Z</time>
      </trkpt>
      <trkpt lat="48.30419" lon="2.58491">
        <ele>105.80000305176</ele>
        <time>2014-02-02T13:13:35Z</time>
      </trkpt>
      <trkpt lat="48.30426" lon="2.585">
        <ele>105.80000305176</ele>
        <time>2014-02-02T13:13:40Z</time>
      </trkpt>
      <trkpt lat="48.3043" lon="2.58498">
        <ele>106.19999694824</ele>
        <time>2014-02-02T13:13:43Z</time>
      </trkpt>
      <trkpt lat="48.3043" lon="2.58498">
        <ele>106.59999847412</ele>
        <time>2014-02-02T13:13:44Z</time>
      </trkpt>
      <trkpt lat="48.3043" lon="2.58496">
        <ele>107</ele>
        <time>2014-02-02T13:13:45Z</time>
      </trkpt>
      <trkpt lat="48.30429" lon="2.58494">
        <ele>107.40000152588</ele>
        <time>2014-02-02T13:13:46Z</time>
      </trkpt>
      <trkpt lat="48.30429" lon="2.58492">
        <ele>107.80000305176</ele>
        <time>2014-02-02T13:13:47Z</time>
      </trkpt>
      <trkpt lat="48.30429" lon="2.58489">
        <ele>107.80000305176</ele>
        <time>2014-02-02T13:13:53Z</time>
      </trkpt>
      <trkpt lat="48.30436" lon="2.58474">
        <ele>107.80000305176</ele>
        <time>2014-02-02T13:14:07Z</time>
      </trkpt>
      <trkpt lat="48.30437" lon="2.58473">
        <ele>107.80000305176</ele>
        <time>2014-02-02T13:14:08Z</time>
      </trkpt>
      <trkpt lat="48.30441" lon="2.58471">
        <ele>108.19999694824</ele>
        <time>2014-02-02T13:14:13Z</time>
      </trkpt>
      <trkpt lat="48.30442" lon="2.58471">
        <ele>108.59999847412</ele>
        <time>2014-02-02T13:14:14Z</time>
      </trkpt>
      <trkpt lat="48.30443" lon="2.58472">
        <ele>109</ele>
        <time>2014-02-02T13:14:15Z</time>
      </trkpt>
      <trkpt lat="48.30444" lon="2.58472">
        <ele>109.40000152588</ele>
        <time>2014-02-02T13:14:16Z</time>
      </trkpt>
      <trkpt lat="48.30445" lon="2.58472">
        <ele>109.80000305176</ele>
        <time>2014-02-02T13:14:17Z</time>
      </trkpt>
      <trkpt lat="48.30455" lon="2.5847">
        <ele>109.80000305176</ele>
        <time>2014-02-02T13:14:25Z</time>
      </trkpt>
      <trkpt lat="48.3046" lon="2.58473">
        <ele>110.19999694824</ele>
        <time>2014-02-02T13:14:31Z</time>
      </trkpt>
      <trkpt lat="48.30461" lon="2.58474">
        <ele>110.59999847412</ele>
        <time>2014-02-02T13:14:32Z</time>
      </trkpt>
      <trkpt lat="48.30461" lon="2.58474">
        <ele>111</ele>
        <time>2014-02-02T13:14:33Z</time>
      </trkpt>
      <trkpt lat="48.30463" lon="2.58473">
        <ele>111.59999847412</ele>
        <time>2014-02-02T13:14:34Z</time>
      </trkpt>
      <trkpt lat="48.30465" lon="2.58473">
        <ele>112</ele>
        <time>2014-02-02T13:14:35Z</time>
      </trkpt>
      <trkpt lat="48.30465" lon="2.58472">
        <ele>112</ele>
        <time>2014-02-02T13:14:36Z</time>
      </trkpt>
      <trkpt lat="48.30474" lon="2.58466">
        <ele>112.40000152588</ele>
        <time>2014-02-02T13:14:43Z</time>
      </trkpt>
      <trkpt lat="48.30474" lon="2.58466">
        <ele>112.80000305176</ele>
        <time>2014-02-02T13:14:44Z</time>
      </trkpt>
      <trkpt lat="48.30474" lon="2.58465">
        <ele>113.19999694824</ele>
        <time>2014-02-02T13:14:45Z</time>
      </trkpt>
      <trkpt lat="48.30474" lon="2.58464">
        <ele>113.59999847412</ele>
        <time>2014-02-02T13:14:46Z</time>
      </trkpt>
      <trkpt lat="48.30475" lon="2.5846">
        <ele>114</ele>
        <time>2014-02-02T13:14:48Z</time>
      </trkpt>
      <trkpt lat="48.30473" lon="2.58441">
        <ele>114</ele>
        <time>2014-02-02T13:14:58Z</time>
      </trkpt>
      <trkpt lat="48.30473" lon="2.58439">
        <ele>114.40000152588</ele>
        <time>2014-02-02T13:14:59Z</time>
      </trkpt>
      <trkpt lat="48.30473" lon="2.58437">
        <ele>114.80000305176</ele>
        <time>2014-02-02T13:15:00Z</time>
      </trkpt>
      <trkpt lat="48.30473" lon="2.58436">
        <ele>115.19999694824</ele>
        <time>2014-02-02T13:15:01Z</time>
      </trkpt>
      <trkpt lat="48.30473" lon="2.58434">
        <ele>115.59999847412</ele>
        <time>2014-02-02T13:15:02Z</time>
      </trkpt>
      <trkpt lat="48.30472" lon="2.58432">
        <ele>116</ele>
        <time>2014-02-02T13:15:03Z</time>
      </trkpt>
      <trkpt lat="48.30466" lon="2.58421">
        <ele>116</ele>
        <time>2014-02-02T13:15:09Z</time>
      </trkpt>
      <trkpt lat="48.30452" lon="2.58406">
        <ele>116</ele>
        <time>2014-02-02T13:15:19Z</time>
      </trkpt>
      <trkpt lat="48.30444" lon="2.58398">
        <ele>116.40000152588</ele>
        <time>2014-02-02T13:15:25Z</time>
      </trkpt>
      <trkpt lat="48.30442" lon="2.58397">
        <ele>116.80000305176</ele>
        <time>2014-02-02T13:15:26Z</time>
      </trkpt>
      <trkpt lat="48.3044" lon="2.58395">
        <ele>117.19999694824</ele>
        <time>2014-02-02T13:15:27Z</time>
      </trkpt>
      <trkpt lat="48.30438" lon="2.58394">
        <ele>117.59999847412</ele>
        <time>2014-02-02T13:15:28Z</time>
      </trkpt>
      <trkpt lat="48.30435" lon="2.58394">
        <ele>118</ele>
        <time>2014-02-02T13:15:29Z</time>
      </trkpt>
      <trkpt lat="48.30422" lon="2.58383">
        <ele>118</ele>
        <time>2014-02-02T13:15:37Z</time>
      </trkpt>
      <trkpt lat="48.3041" lon="2.58379">
        <ele>118.40000152588</ele>
        <time>2014-02-02T13:15:43Z</time>
      </trkpt>
      <trkpt lat="48.30409" lon="2.58378">
        <ele>118.80000305176</ele>
        <time>2014-02-02T13:15:44Z</time>
      </trkpt>
      <trkpt lat="48.30408" lon="2.58376">
        <ele>119.19999694824</ele>
        <time>2014-02-02T13:15:45Z</time>
      </trkpt>
      <trkpt lat="48.30408" lon="2.58374">
        <ele>119.59999847412</ele>
        <time>2014-02-02T13:15:46Z</time>
      </trkpt>
      <trkpt lat="48.30408" lon="2.58373">
        <ele>120</ele>
        <time>2014-02-02T13:15:47Z</time>
      </trkpt>
      <trkpt lat="48.30405" lon="2.58365">
        <ele>120</ele>
        <time>2014-02-02T13:15:53Z</time>
      </trkpt>
      <trkpt lat="48.30402" lon="2.58363">
        <ele>120.59999847412</ele>
        <time>2014-02-02T13:15:59Z</time>
      </trkpt>
      <trkpt lat="48.30402" lon="2.58363">
        <ele>121</ele>
        <time>2014-02-02T13:16:00Z</time>
      </trkpt>
      <trkpt lat="48.30401" lon="2.58362">
        <ele>121.40000152588</ele>
        <time>2014-02-02T13:16:01Z</time>
      </trkpt>
      <trkpt lat="48.304" lon="2.58361">
        <ele>121.80000305176</ele>
        <time>2014-02-02T13:16:02Z</time>
      </trkpt>
      <trkpt lat="48.304" lon="2.5836">
        <ele>122.19999694824</ele>
        <time>2014-02-02T13:16:03Z</time>
      </trkpt>
      <trkpt lat="48.30402" lon="2.58353">
        <ele>122.19999694824</ele>
        <time>2014-02-02T13:16:11Z</time>
      </trkpt>
      <trkpt lat="48.30404" lon="2.5835">
        <ele>122.59999847412</ele>
        <time>2014-02-02T13:16:14Z</time>
      </trkpt>
      <trkpt lat="48.30403" lon="2.58349">
        <ele>123</ele>
        <time>2014-02-02T13:16:15Z</time>
      </trkpt>
      <trkpt lat="48.30402" lon="2.58348">
        <ele>123.40000152588</ele>
        <time>2014-02-02T13:16:16Z</time>
      </trkpt>
      <trkpt lat="48.30402" lon="2.58346">
        <ele>123.80000305176</ele>
        <time>2014-02-02T13:16:17Z</time>
      </trkpt>
      <trkpt lat="48.30401" lon="2.58344">
        <ele>124.19999694824</ele>
        <time>2014-02-02T13:16:18Z</time>
      </trkpt>
      <trkpt lat="48.30397" lon="2.58339">
        <ele>124.19999694824</ele>
        <time>2014-02-02T13:16:25Z</time>
      </trkpt>
      <trkpt lat="48.30395" lon="2.58326">
        <ele>124.19999694824</ele>
        <time>2014-02-02T13:16:32Z</time>
      </trkpt>
      <trkpt lat="48.30392" lon="2.58324">
        <ele>124.19999694824</ele>
        <time>2014-02-02T13:16:33Z</time>
      </trkpt>
      <trkpt lat="48.30388" lon="2.58329">
        <ele>123.19999694824</ele>
        <time>2014-02-02T13:16:35Z</time>
      </trkpt>
      <trkpt lat="48.30387" lon="2.58333">
        <ele>122.80000305176</ele>
        <time>2014-02-02T13:16:37Z</time>
      </trkpt>
      <trkpt lat="48.30385" lon="2.58334">
        <ele>122.40000152588</ele>
        <time>2014-02-02T13:16:38Z</time>
      </trkpt>
      <trkpt lat="48.30384" lon="2.58336">
        <ele>121.80000305176</ele>
        <time>2014-02-02T13:16:39Z</time>
      </trkpt>
      <trkpt lat="48.30383" lon="2.58337">
        <ele>121.40000152588</ele>
        <time>2014-02-02T13:16:40Z</time>
      </trkpt>
      <trkpt lat="48.30382" lon="2.5834">
        <ele>120.80000305176</ele>
        <time>2014-02-02T13:16:41Z</time>
      </trkpt>
      <trkpt lat="48.30381" lon="2.58343">
        <ele>120</ele>
        <time>2014-02-02T13:16:42Z</time>
      </trkpt>
      <trkpt lat="48.30379" lon="2.58345">
        <ele>119.40000152588</ele>
        <time>2014-02-02T13:16:43Z</time>
      </trkpt>
      <trkpt lat="48.30378" lon="2.58346">
        <ele>118.59999847412</ele>
        <time>2014-02-02T13:16:44Z</time>
      </trkpt>
      <trkpt lat="48.30378" lon="2.58347">
        <ele>117.80000305176</ele>
        <time>2014-02-02T13:16:45Z</time>
      </trkpt>
      <trkpt lat="48.30378" lon="2.58346">
        <ele>117</ele>
        <time>2014-02-02T13:16:46Z</time>
      </trkpt>
      <trkpt lat="48.30378" lon="2.58346">
        <ele>116.40000152588</ele>
        <time>2014-02-02T13:16:47Z</time>
      </trkpt>
      <trkpt lat="48.30378" lon="2.58345">
        <ele>115.59999847412</ele>
        <time>2014-02-02T13:16:48Z</time>
      </trkpt>
      <trkpt lat="48.30378" lon="2.58345">
        <ele>114.80000305176</ele>
        <time>2014-02-02T13:16:49Z</time>
      </trkpt>
      <trkpt lat="48.3037" lon="2.58336">
        <ele>114.80000305176</ele>
        <time>2014-02-02T13:16:56Z</time>
      </trkpt>
      <trkpt lat="48.30364" lon="2.58321">
        <ele>114.80000305176</ele>
        <time>2014-02-02T13:17:05Z</time>
      </trkpt>
      <trkpt lat="48.30363" lon="2.58318">
        <ele>115.19999694824</ele>
        <time>2014-02-02T13:17:07Z</time>
      </trkpt>
      <trkpt lat="48.30362" lon="2.58317">
        <ele>115.59999847412</ele>
        <time>2014-02-02T13:17:08Z</time>
      </trkpt>
      <trkpt lat="48.30361" lon="2.58316">
        <ele>116</ele>
        <time>2014-02-02T13:17:09Z</time>
      </trkpt>
      <trkpt lat="48.3036" lon="2.58315">
        <ele>116.40000152588</ele>
        <time>2014-02-02T13:17:10Z</time>
      </trkpt>
      <trkpt lat="48.3036" lon="2.58314">
        <ele>116.80000305176</ele>
        <time>2014-02-02T13:17:11Z</time>
      </trkpt>
      <trkpt lat="48.30356" lon="2.58309">
        <ele>116.80000305176</ele>
        <time>2014-02-02T13:17:14Z</time>
      </trkpt>
      <trkpt lat="48.30349" lon="2.58298">
        <ele>116.80000305176</ele>
        <time>2014-02-02T13:17:21Z</time>
      </trkpt>
      <trkpt lat="48.30344" lon="2.58287">
        <ele>116.80000305176</ele>
        <time>2014-02-02T13:17:28Z</time>
      </trkpt>
      <trkpt lat="48.30342" lon="2.58285">
        <ele>116.80000305176</ele>
        <time>2014-02-02T13:17:29Z</time>
      </trkpt>
      <trkpt lat="48.30339" lon="2.58279">
        <ele>117.40000152588</ele>
        <time>2014-02-02T13:17:32Z</time>
      </trkpt>
      <trkpt lat="48.30339" lon="2.58277">
        <ele>117.80000305176</ele>
        <time>2014-02-02T13:17:33Z</time>
      </trkpt>
      <trkpt lat="48.30338" lon="2.58276">
        <ele>118.19999694824</ele>
        <time>2014-02-02T13:17:34Z</time>
      </trkpt>
      <trkpt lat="48.30338" lon="2.58274">
        <ele>118.59999847412</ele>
        <time>2014-02-02T13:17:35Z</time>
      </trkpt>
      <trkpt lat="48.30338" lon="2.58272">
        <ele>119</ele>
        <time>2014-02-02T13:17:36Z</time>
      </trkpt>
      <trkpt lat="48.30336" lon="2.58264">
        <ele>119</ele>
        <time>2014-02-02T13:17:40Z</time>
      </trkpt>
      <trkpt lat="48.30323" lon="2.58262">
        <ele>119</ele>
        <time>2014-02-02T13:17:45Z</time>
      </trkpt>
      <trkpt lat="48.30305" lon="2.58254">
        <ele>119</ele>
        <time>2014-02-02T13:17:51Z</time>
      </trkpt>
      <trkpt lat="48.30293" lon="2.58236">
        <ele>119</ele>
        <time>2014-02-02T13:17:57Z</time>
      </trkpt>
      <trkpt lat="48.30287" lon="2.5823">
        <ele>119</ele>
        <time>2014-02-02T13:18:00Z</time>
      </trkpt>
      <trkpt lat="48.30284" lon="2.58219">
        <ele>119</ele>
        <time>2014-02-02T13:18:03Z</time>
      </trkpt>
      <trkpt lat="48.30264" lon="2.58199">
        <ele>119</ele>
        <time>2014-02-02T13:18:11Z</time>
      </trkpt>
      <trkpt lat="48.30256" lon="2.58197">
        <ele>119</ele>
        <time>2014-02-02T13:18:14Z</time>
      </trkpt>
      <trkpt lat="48.30253" lon="2.58198">
        <ele>119</ele>
        <time>2014-02-02T13:18:15Z</time>
      </trkpt>
      <trkpt lat="48.30234" lon="2.58198">
        <ele>119</ele>
        <time>2014-02-02T13:18:22Z</time>
      </trkpt>
      <trkpt lat="48.30228" lon="2.5818">
        <ele>119</ele>
        <time>2014-02-02T13:18:29Z</time>
      </trkpt>
      <trkpt lat="48.30226" lon="2.58171">
        <ele>119</ele>
        <time>2014-02-02T13:18:32Z</time>
      </trkpt>
      <trkpt lat="48.30222" lon="2.58167">
        <ele>119</ele>
        <time>2014-02-02T13:18:34Z</time>
      </trkpt>
      <trkpt lat="48.30214" lon="2.58138">
        <ele>119</ele>
        <time>2014-02-02T13:18:42Z</time>
      </trkpt>
      <trkpt lat="48.30214" lon="2.58118">
        <ele>119</ele>
        <time>2014-02-02T13:18:49Z</time>
      </trkpt>
      <trkpt lat="48.30215" lon="2.58105">
        <ele>119</ele>
        <time>2014-02-02T13:18:54Z</time>
      </trkpt>
      <trkpt lat="48.30215" lon="2.58093">
        <ele>119.40000152588</ele>
        <time>2014-02-02T13:19:00Z</time>
      </trkpt>
      <trkpt lat="48.30216" lon="2.5809">
        <ele>119.80000305176</ele>
        <time>2014-02-02T13:19:01Z</time>
      </trkpt>
      <trkpt lat="48.30216" lon="2.58088">
        <ele>120.19999694824</ele>
        <time>2014-02-02T13:19:02Z</time>
      </trkpt>
      <trkpt lat="48.30216" lon="2.58087">
        <ele>120.59999847412</ele>
        <time>2014-02-02T13:19:03Z</time>
      </trkpt>
      <trkpt lat="48.30217" lon="2.58085">
        <ele>121</ele>
        <time>2014-02-02T13:19:04Z</time>
      </trkpt>
      <trkpt lat="48.30216" lon="2.58077">
        <ele>121</ele>
        <time>2014-02-02T13:19:08Z</time>
      </trkpt>
      <trkpt lat="48.30214" lon="2.58063">
        <ele>121</ele>
        <time>2014-02-02T13:19:16Z</time>
      </trkpt>
      <trkpt lat="48.30214" lon="2.58054">
        <ele>121</ele>
        <time>2014-02-02T13:19:21Z</time>
      </trkpt>
      <trkpt lat="48.30207" lon="2.58033">
        <ele>121</ele>
        <time>2014-02-02T13:19:29Z</time>
      </trkpt>
      <trkpt lat="48.30205" lon="2.58019">
        <ele>121</ele>
        <time>2014-02-02T13:19:34Z</time>
      </trkpt>
      <trkpt lat="48.30203" lon="2.58012">
        <ele>121.59999847412</ele>
        <time>2014-02-02T13:19:37Z</time>
      </trkpt>
      <trkpt lat="48.30203" lon="2.5801">
        <ele>122</ele>
        <time>2014-02-02T13:19:38Z</time>
      </trkpt>
      <trkpt lat="48.30202" lon="2.58007">
        <ele>122.40000152588</ele>
        <time>2014-02-02T13:19:39Z</time>
      </trkpt>
      <trkpt lat="48.30202" lon="2.58005">
        <ele>122.80000305176</ele>
        <time>2014-02-02T13:19:40Z</time>
      </trkpt>
      <trkpt lat="48.30201" lon="2.58003">
        <ele>123.19999694824</ele>
        <time>2014-02-02T13:19:41Z</time>
      </trkpt>
      <trkpt lat="48.30199" lon="2.57999">
        <ele>123.19999694824</ele>
        <time>2014-02-02T13:19:43Z</time>
      </trkpt>
      <trkpt lat="48.30199" lon="2.57988">
        <ele>123.19999694824</ele>
        <time>2014-02-02T13:19:48Z</time>
      </trkpt>
      <trkpt lat="48.30198" lon="2.57969">
        <ele>123.19999694824</ele>
        <time>2014-02-02T13:19:55Z</time>
      </trkpt>
      <trkpt lat="48.30194" lon="2.5795">
        <ele>123.19999694824</ele>
        <time>2014-02-02T13:20:01Z</time>
      </trkpt>
      <trkpt lat="48.30189" lon="2.57934">
        <ele>123.19999694824</ele>
        <time>2014-02-02T13:20:06Z</time>
      </trkpt>
      <trkpt lat="48.30185" lon="2.5792">
        <ele>123.19999694824</ele>
        <time>2014-02-02T13:20:11Z</time>
      </trkpt>
      <trkpt lat="48.30181" lon="2.57905">
        <ele>123.19999694824</ele>
        <time>2014-02-02T13:20:17Z</time>
      </trkpt>
      <trkpt lat="48.30166" lon="2.57891">
        <ele>123.19999694824</ele>
        <time>2014-02-02T13:20:25Z</time>
      </trkpt>
      <trkpt lat="48.30158" lon="2.57878">
        <ele>123.19999694824</ele>
        <time>2014-02-02T13:20:32Z</time>
      </trkpt>
      <trkpt lat="48.30155" lon="2.57872">
        <ele>123.19999694824</ele>
        <time>2014-02-02T13:20:34Z</time>
      </trkpt>
      <trkpt lat="48.30152" lon="2.57869">
        <ele>123.59999847412</ele>
        <time>2014-02-02T13:20:36Z</time>
      </trkpt>
      <trkpt lat="48.3015" lon="2.57868">
        <ele>124.19999694824</ele>
        <time>2014-02-02T13:20:37Z</time>
      </trkpt>
      <trkpt lat="48.30149" lon="2.57869">
        <ele>124.59999847412</ele>
        <time>2014-02-02T13:20:38Z</time>
      </trkpt>
      <trkpt lat="48.30149" lon="2.57872">
        <ele>125</ele>
        <time>2014-02-02T13:20:39Z</time>
      </trkpt>
      <trkpt lat="48.30148" lon="2.57874">
        <ele>125.40000152588</ele>
        <time>2014-02-02T13:20:40Z</time>
      </trkpt>
      <trkpt lat="48.30147" lon="2.57875">
        <ele>125.40000152588</ele>
        <time>2014-02-02T13:20:41Z</time>
      </trkpt>
      <trkpt lat="48.30149" lon="2.57883">
        <ele>125.40000152588</ele>
        <time>2014-02-02T13:20:46Z</time>
      </trkpt>
      <trkpt lat="48.3015" lon="2.57888">
        <ele>125.40000152588</ele>
        <time>2014-02-02T13:20:51Z</time>
      </trkpt>
      <trkpt lat="48.30151" lon="2.57892">
        <ele>125</ele>
        <time>2014-02-02T13:20:53Z</time>
      </trkpt>
      <trkpt lat="48.30154" lon="2.57897">
        <ele>124</ele>
        <time>2014-02-02T13:20:55Z</time>
      </trkpt>
      <trkpt lat="48.30155" lon="2.57897">
        <ele>123.40000152588</ele>
        <time>2014-02-02T13:20:56Z</time>
      </trkpt>
      <trkpt lat="48.30156" lon="2.57897">
        <ele>122.80000305176</ele>
        <time>2014-02-02T13:20:57Z</time>
      </trkpt>
      <trkpt lat="48.30157" lon="2.57899">
        <ele>122.40000152588</ele>
        <time>2014-02-02T13:20:58Z</time>
      </trkpt>
      <trkpt lat="48.30157" lon="2.579">
        <ele>121.80000305176</ele>
        <time>2014-02-02T13:20:59Z</time>
      </trkpt>
      <trkpt lat="48.30157" lon="2.57903">
        <ele>121.19999694824</ele>
        <time>2014-02-02T13:21:00Z</time>
      </trkpt>
      <trkpt lat="48.30156" lon="2.57904">
        <ele>120.80000305176</ele>
        <time>2014-02-02T13:21:01Z</time>
      </trkpt>
      <trkpt lat="48.30155" lon="2.57905">
        <ele>120.19999694824</ele>
        <time>2014-02-02T13:21:02Z</time>
      </trkpt>
      <trkpt lat="48.30155" lon="2.57907">
        <ele>119.59999847412</ele>
        <time>2014-02-02T13:21:03Z</time>
      </trkpt>
      <trkpt lat="48.30156" lon="2.5791">
        <ele>119.19999694824</ele>
        <time>2014-02-02T13:21:04Z</time>
      </trkpt>
      <trkpt lat="48.30159" lon="2.57911">
        <ele>118.59999847412</ele>
        <time>2014-02-02T13:21:05Z</time>
      </trkpt>
      <trkpt lat="48.3016" lon="2.57914">
        <ele>118.19999694824</ele>
        <time>2014-02-02T13:21:06Z</time>
      </trkpt>
      <trkpt lat="48.30158" lon="2.57918">
        <ele>117.80000305176</ele>
        <time>2014-02-02T13:21:09Z</time>
      </trkpt>
      <trkpt lat="48.30157" lon="2.57919">
        <ele>117.40000152588</ele>
        <time>2014-02-02T13:21:10Z</time>
      </trkpt>
      <trkpt lat="48.30155" lon="2.5792">
        <ele>117</ele>
        <time>2014-02-02T13:21:11Z</time>
      </trkpt>
      <trkpt lat="48.30154" lon="2.57922">
        <ele>116.40000152588</ele>
        <time>2014-02-02T13:21:12Z</time>
      </trkpt>
      <trkpt lat="48.30153" lon="2.57924">
        <ele>115.59999847412</ele>
        <time>2014-02-02T13:21:13Z</time>
      </trkpt>
      <trkpt lat="48.30151" lon="2.57929">
        <ele>115</ele>
        <time>2014-02-02T13:21:14Z</time>
      </trkpt>
      <trkpt lat="48.30152" lon="2.57934">
        <ele>114.19999694824</ele>
        <time>2014-02-02T13:21:15Z</time>
      </trkpt>
      <trkpt lat="48.30152" lon="2.57938">
        <ele>113.59999847412</ele>
        <time>2014-02-02T13:21:16Z</time>
      </trkpt>
      <trkpt lat="48.30151" lon="2.57942">
        <ele>112.80000305176</ele>
        <time>2014-02-02T13:21:17Z</time>
      </trkpt>
      <trkpt lat="48.30148" lon="2.57946">
        <ele>112</ele>
        <time>2014-02-02T13:21:18Z</time>
      </trkpt>
      <trkpt lat="48.30145" lon="2.57949">
        <ele>111.19999694824</ele>
        <time>2014-02-02T13:21:19Z</time>
      </trkpt>
      <trkpt lat="48.30142" lon="2.57952">
        <ele>110.40000152588</ele>
        <time>2014-02-02T13:21:20Z</time>
      </trkpt>
      <trkpt lat="48.30139" lon="2.57956">
        <ele>109.40000152588</ele>
        <time>2014-02-02T13:21:21Z</time>
      </trkpt>
      <trkpt lat="48.30135" lon="2.57959">
        <ele>108.59999847412</ele>
        <time>2014-02-02T13:21:22Z</time>
      </trkpt>
      <trkpt lat="48.30132" lon="2.57962">
        <ele>107.80000305176</ele>
        <time>2014-02-02T13:21:23Z</time>
      </trkpt>
      <trkpt lat="48.30129" lon="2.57965">
        <ele>107</ele>
        <time>2014-02-02T13:21:24Z</time>
      </trkpt>
      <trkpt lat="48.30127" lon="2.57968">
        <ele>106</ele>
        <time>2014-02-02T13:21:25Z</time>
      </trkpt>
      <trkpt lat="48.30125" lon="2.5797">
        <ele>105.19999694824</ele>
        <time>2014-02-02T13:21:26Z</time>
      </trkpt>
      <trkpt lat="48.30124" lon="2.57972">
        <ele>104.40000152588</ele>
        <time>2014-02-02T13:21:27Z</time>
      </trkpt>
      <trkpt lat="48.30123" lon="2.57973">
        <ele>103.40000152588</ele>
        <time>2014-02-02T13:21:28Z</time>
      </trkpt>
      <trkpt lat="48.30116" lon="2.57989">
        <ele>103.40000152588</ele>
        <time>2014-02-02T13:21:34Z</time>
      </trkpt>
      <trkpt lat="48.30116" lon="2.57994">
        <ele>103</ele>
        <time>2014-02-02T13:21:35Z</time>
      </trkpt>
      <trkpt lat="48.30117" lon="2.58">
        <ele>102.59999847412</ele>
        <time>2014-02-02T13:21:36Z</time>
      </trkpt>
      <trkpt lat="48.30117" lon="2.58006">
        <ele>102.19999694824</ele>
        <time>2014-02-02T13:21:37Z</time>
      </trkpt>
      <trkpt lat="48.30119" lon="2.58012">
        <ele>101.80000305176</ele>
        <time>2014-02-02T13:21:38Z</time>
      </trkpt>
      <trkpt lat="48.3012" lon="2.58016">
        <ele>101.19999694824</ele>
        <time>2014-02-02T13:21:39Z</time>
      </trkpt>
      <trkpt lat="48.30121" lon="2.5802">
        <ele>100.80000305176</ele>
        <time>2014-02-02T13:21:40Z</time>
      </trkpt>
      <trkpt lat="48.30121" lon="2.58026">
        <ele>100.19999694824</ele>
        <time>2014-02-02T13:21:41Z</time>
      </trkpt>
      <trkpt lat="48.30122" lon="2.58031">
        <ele>99.800003051758</ele>
        <time>2014-02-02T13:21:42Z</time>
      </trkpt>
      <trkpt lat="48.30122" lon="2.58037">
        <ele>99.199996948242</ele>
        <time>2014-02-02T13:21:43Z</time>
      </trkpt>
      <trkpt lat="48.3012" lon="2.58042">
        <ele>99.199996948242</ele>
        <time>2014-02-02T13:21:44Z</time>
      </trkpt>
      <trkpt lat="48.30118" lon="2.58044">
        <ele>99.199996948242</ele>
        <time>2014-02-02T13:21:45Z</time>
      </trkpt>
      <trkpt lat="48.30116" lon="2.58047">
        <ele>98.800003051758</ele>
        <time>2014-02-02T13:21:46Z</time>
      </trkpt>
      <trkpt lat="48.30114" lon="2.58052">
        <ele>98.400001525879</ele>
        <time>2014-02-02T13:21:47Z</time>
      </trkpt>
      <trkpt lat="48.30114" lon="2.58057">
        <ele>98</ele>
        <time>2014-02-02T13:21:48Z</time>
      </trkpt>
      <trkpt lat="48.30113" lon="2.58063">
        <ele>97.599998474121</ele>
        <time>2014-02-02T13:21:49Z</time>
      </trkpt>
      <trkpt lat="48.30114" lon="2.5807">
        <ele>97</ele>
        <time>2014-02-02T13:21:50Z</time>
      </trkpt>
      <trkpt lat="48.30113" lon="2.58076">
        <ele>96.599998474121</ele>
        <time>2014-02-02T13:21:51Z</time>
      </trkpt>
      <trkpt lat="48.30112" lon="2.58083">
        <ele>96.199996948242</ele>
        <time>2014-02-02T13:21:52Z</time>
      </trkpt>
      <trkpt lat="48.3011" lon="2.5809">
        <ele>95.800003051758</ele>
        <time>2014-02-02T13:21:53Z</time>
      </trkpt>
      <trkpt lat="48.30108" lon="2.58096">
        <ele>95.400001525879</ele>
        <time>2014-02-02T13:21:54Z</time>
      </trkpt>
      <trkpt lat="48.30105" lon="2.581">
        <ele>95</ele>
        <time>2014-02-02T13:21:55Z</time>
      </trkpt>
      <trkpt lat="48.30101" lon="2.58103">
        <ele>95</ele>
        <time>2014-02-02T13:21:56Z</time>
      </trkpt>
      <trkpt lat="48.30099" lon="2.58108">
        <ele>95</ele>
        <time>2014-02-02T13:21:57Z</time>
      </trkpt>
      <trkpt lat="48.30096" lon="2.58113">
        <ele>94.599998474121</ele>
        <time>2014-02-02T13:21:58Z</time>
      </trkpt>
      <trkpt lat="48.30094" lon="2.58118">
        <ele>94</ele>
        <time>2014-02-02T13:21:59Z</time>
      </trkpt>
      <trkpt lat="48.30091" lon="2.58121">
        <ele>93.599998474121</ele>
        <time>2014-02-02T13:22:00Z</time>
      </trkpt>
      <trkpt lat="48.30087" lon="2.58122">
        <ele>93</ele>
        <time>2014-02-02T13:22:01Z</time>
      </trkpt>
      <trkpt lat="48.30085" lon="2.58123">
        <ele>92.599998474121</ele>
        <time>2014-02-02T13:22:02Z</time>
      </trkpt>
      <trkpt lat="48.30083" lon="2.58124">
        <ele>92.599998474121</ele>
        <time>2014-02-02T13:22:03Z</time>
      </trkpt>
      <trkpt lat="48.30073" lon="2.58146">
        <ele>92.599998474121</ele>
        <time>2014-02-02T13:22:10Z</time>
      </trkpt>
      <trkpt lat="48.30059" lon="2.58149">
        <ele>92.599998474121</ele>
        <time>2014-02-02T13:22:16Z</time>
      </trkpt>
      <trkpt lat="48.30049" lon="2.58166">
        <ele>92.599998474121</ele>
        <time>2014-02-02T13:22:23Z</time>
      </trkpt>
      <trkpt lat="48.30044" lon="2.58193">
        <ele>92.599998474121</ele>
        <time>2014-02-02T13:22:28Z</time>
      </trkpt>
      <trkpt lat="48.30038" lon="2.582">
        <ele>92.599998474121</ele>
        <time>2014-02-02T13:22:33Z</time>
      </trkpt>
      <trkpt lat="48.30024" lon="2.58221">
        <ele>92.199996948242</ele>
        <time>2014-02-02T13:22:48Z</time>
      </trkpt>
      <trkpt lat="48.30023" lon="2.58228">
        <ele>91.599998474121</ele>
        <time>2014-02-02T13:22:49Z</time>
      </trkpt>
      <trkpt lat="48.30008" lon="2.58251">
        <ele>91.199996948242</ele>
        <time>2014-02-02T13:22:53Z</time>
      </trkpt>
      <trkpt lat="48.30003" lon="2.58258">
        <ele>90.599998474121</ele>
        <time>2014-02-02T13:22:54Z</time>
      </trkpt>
      <trkpt lat="48.29998" lon="2.58265">
        <ele>89.800003051758</ele>
        <time>2014-02-02T13:22:55Z</time>
      </trkpt>
      <trkpt lat="48.29992" lon="2.58272">
        <ele>89.199996948242</ele>
        <time>2014-02-02T13:22:56Z</time>
      </trkpt>
      <trkpt lat="48.29987" lon="2.58278">
        <ele>88.599998474121</ele>
        <time>2014-02-02T13:22:57Z</time>
      </trkpt>
      <trkpt lat="48.29984" lon="2.58283">
        <ele>88</ele>
        <time>2014-02-02T13:22:58Z</time>
      </trkpt>
      <trkpt lat="48.29982" lon="2.58288">
        <ele>87.199996948242</ele>
        <time>2014-02-02T13:22:59Z</time>
      </trkpt>
      <trkpt lat="48.2998" lon="2.58294">
        <ele>86.599998474121</ele>
        <time>2014-02-02T13:23:00Z</time>
      </trkpt>
      <trkpt lat="48.29978" lon="2.583">
        <ele>86</ele>
        <time>2014-02-02T13:23:01Z</time>
      </trkpt>
      <trkpt lat="48.29967" lon="2.58327">
        <ele>86</ele>
        <time>2014-02-02T13:23:05Z</time>
      </trkpt>
      <trkpt lat="48.29964" lon="2.58333">
        <ele>85.400001525879</ele>
        <time>2014-02-02T13:23:06Z</time>
      </trkpt>
      <trkpt lat="48.29961" lon="2.58333">
        <ele>85</ele>
        <time>2014-02-02T13:23:07Z</time>
      </trkpt>
      <trkpt lat="48.29958" lon="2.58332">
        <ele>84.599998474121</ele>
        <time>2014-02-02T13:23:08Z</time>
      </trkpt>
      <trkpt lat="48.29955" lon="2.5833">
        <ele>84.199996948242</ele>
        <time>2014-02-02T13:23:09Z</time>
      </trkpt>
      <trkpt lat="48.29952" lon="2.58328">
        <ele>83.599998474121</ele>
        <time>2014-02-02T13:23:10Z</time>
      </trkpt>
      <trkpt lat="48.29943" lon="2.58317">
        <ele>83.599998474121</ele>
        <time>2014-02-02T13:23:14Z</time>
      </trkpt>
      <trkpt lat="48.29943" lon="2.58309">
        <ele>83.599998474121</ele>
        <time>2014-02-02T13:23:16Z</time>
      </trkpt>
      <trkpt lat="48.29943" lon="2.58307">
        <ele>83.599998474121</ele>
        <time>2014-02-02T13:23:17Z</time>
      </trkpt>
      <trkpt lat="48.29942" lon="2.58305">
        <ele>84</ele>
        <time>2014-02-02T13:23:18Z</time>
      </trkpt>
      <trkpt lat="48.29941" lon="2.58302">
        <ele>84.400001525879</ele>
        <time>2014-02-02T13:23:19Z</time>
      </trkpt>
      <trkpt lat="48.2994" lon="2.583">
        <ele>84.800003051758</ele>
        <time>2014-02-02T13:23:20Z</time>
      </trkpt>
      <trkpt lat="48.2994" lon="2.58298">
        <ele>85.199996948242</ele>
        <time>2014-02-02T13:23:21Z</time>
      </trkpt>
      <trkpt lat="48.29939" lon="2.58296">
        <ele>85.599998474121</ele>
        <time>2014-02-02T13:23:22Z</time>
      </trkpt>
      <trkpt lat="48.29937" lon="2.58285">
        <ele>85.599998474121</ele>
        <time>2014-02-02T13:23:26Z</time>
      </trkpt>
      <trkpt lat="48.29933" lon="2.58266">
        <ele>86.199996948242</ele>
        <time>2014-02-02T13:23:31Z</time>
      </trkpt>
      <trkpt lat="48.29932" lon="2.5826">
        <ele>86.599998474121</ele>
        <time>2014-02-02T13:23:32Z</time>
      </trkpt>
      <trkpt lat="48.29932" lon="2.58257">
        <ele>87</ele>
        <time>2014-02-02T13:23:33Z</time>
      </trkpt>
      <trkpt lat="48.29931" lon="2.58255">
        <ele>87.400001525879</ele>
        <time>2014-02-02T13:23:34Z</time>
      </trkpt>
      <trkpt lat="48.29931" lon="2.58251">
        <ele>88</ele>
        <time>2014-02-02T13:23:35Z</time>
      </trkpt>
      <trkpt lat="48.29927" lon="2.58242">
        <ele>88</ele>
        <time>2014-02-02T13:23:39Z</time>
      </trkpt>
      <trkpt lat="48.29926" lon="2.58238">
        <ele>88.400001525879</ele>
        <time>2014-02-02T13:23:41Z</time>
      </trkpt>
      <trkpt lat="48.29926" lon="2.58235">
        <ele>88.800003051758</ele>
        <time>2014-02-02T13:23:42Z</time>
      </trkpt>
      <trkpt lat="48.29926" lon="2.58233">
        <ele>89.199996948242</ele>
        <time>2014-02-02T13:23:43Z</time>
      </trkpt>
      <trkpt lat="48.29925" lon="2.58232">
        <ele>89.599998474121</ele>
        <time>2014-02-02T13:23:44Z</time>
      </trkpt>
      <trkpt lat="48.29924" lon="2.58231">
        <ele>90</ele>
        <time>2014-02-02T13:23:45Z</time>
      </trkpt>
      <trkpt lat="48.2992" lon="2.58217">
        <ele>90</ele>
        <time>2014-02-02T13:23:51Z</time>
      </trkpt>
      <trkpt lat="48.29916" lon="2.58198">
        <ele>90</ele>
        <time>2014-02-02T13:23:59Z</time>
      </trkpt>
      <trkpt lat="48.2991" lon="2.58174">
        <ele>90</ele>
        <time>2014-02-02T13:24:09Z</time>
      </trkpt>
      <trkpt lat="48.29906" lon="2.58166">
        <ele>90.400001525879</ele>
        <time>2014-02-02T13:24:16Z</time>
      </trkpt>
      <trkpt lat="48.29905" lon="2.58165">
        <ele>90.800003051758</ele>
        <time>2014-02-02T13:24:17Z</time>
      </trkpt>
      <trkpt lat="48.29905" lon="2.58163">
        <ele>91.400001525879</ele>
        <time>2014-02-02T13:24:18Z</time>
      </trkpt>
      <trkpt lat="48.29903" lon="2.5816">
        <ele>91.800003051758</ele>
        <time>2014-02-02T13:24:19Z</time>
      </trkpt>
      <trkpt lat="48.29903" lon="2.58157">
        <ele>92.199996948242</ele>
        <time>2014-02-02T13:24:20Z</time>
      </trkpt>
      <trkpt lat="48.29899" lon="2.58149">
        <ele>92.199996948242</ele>
        <time>2014-02-02T13:24:25Z</time>
      </trkpt>
      <trkpt lat="48.29897" lon="2.58147">
        <ele>92.599998474121</ele>
        <time>2014-02-02T13:24:27Z</time>
      </trkpt>
      <trkpt lat="48.29897" lon="2.58145">
        <ele>93</ele>
        <time>2014-02-02T13:24:28Z</time>
      </trkpt>
      <trkpt lat="48.29896" lon="2.58142">
        <ele>93.599998474121</ele>
        <time>2014-02-02T13:24:29Z</time>
      </trkpt>
      <trkpt lat="48.29896" lon="2.5814">
        <ele>94</ele>
        <time>2014-02-02T13:24:30Z</time>
      </trkpt>
      <trkpt lat="48.29896" lon="2.58139">
        <ele>94.400001525879</ele>
        <time>2014-02-02T13:24:31Z</time>
      </trkpt>
      <trkpt lat="48.29895" lon="2.58133">
        <ele>94.400001525879</ele>
        <time>2014-02-02T13:24:34Z</time>
      </trkpt>
      <trkpt lat="48.29893" lon="2.58115">
        <ele>94.400001525879</ele>
        <time>2014-02-02T13:24:42Z</time>
      </trkpt>
      <trkpt lat="48.29893" lon="2.58113">
        <ele>94.800003051758</ele>
        <time>2014-02-02T13:24:43Z</time>
      </trkpt>
      <trkpt lat="48.29892" lon="2.58111">
        <ele>95.199996948242</ele>
        <time>2014-02-02T13:24:44Z</time>
      </trkpt>
      <trkpt lat="48.29891" lon="2.58109">
        <ele>95.599998474121</ele>
        <time>2014-02-02T13:24:45Z</time>
      </trkpt>
      <trkpt lat="48.2989" lon="2.58107">
        <ele>96</ele>
        <time>2014-02-02T13:24:46Z</time>
      </trkpt>
      <trkpt lat="48.2989" lon="2.58105">
        <ele>96.400001525879</ele>
        <time>2014-02-02T13:24:47Z</time>
      </trkpt>
      <trkpt lat="48.29888" lon="2.58091">
        <ele>96.400001525879</ele>
        <time>2014-02-02T13:24:51Z</time>
      </trkpt>
      <trkpt lat="48.29883" lon="2.58074">
        <ele>97</ele>
        <time>2014-02-02T13:24:57Z</time>
      </trkpt>
      <trkpt lat="48.29882" lon="2.58072">
        <ele>97.400001525879</ele>
        <time>2014-02-02T13:24:58Z</time>
      </trkpt>
      <trkpt lat="48.29882" lon="2.58069">
        <ele>97.800003051758</ele>
        <time>2014-02-02T13:24:59Z</time>
      </trkpt>
      <trkpt lat="48.29881" lon="2.58067">
        <ele>98.199996948242</ele>
        <time>2014-02-02T13:25:00Z</time>
      </trkpt>
      <trkpt lat="48.2988" lon="2.58065">
        <ele>98.800003051758</ele>
        <time>2014-02-02T13:25:01Z</time>
      </trkpt>
      <trkpt lat="48.29876" lon="2.58047">
        <ele>98.800003051758</ele>
        <time>2014-02-02T13:25:09Z</time>
      </trkpt>
      <trkpt lat="48.29872" lon="2.58039">
        <ele>99.199996948242</ele>
        <time>2014-02-02T13:25:13Z</time>
      </trkpt>
      <trkpt lat="48.29871" lon="2.58037">
        <ele>99.599998474121</ele>
        <time>2014-02-02T13:25:14Z</time>
      </trkpt>
      <trkpt lat="48.29871" lon="2.58035">
        <ele>100</ele>
        <time>2014-02-02T13:25:15Z</time>
      </trkpt>
      <trkpt lat="48.2987" lon="2.58033">
        <ele>100.40000152588</ele>
        <time>2014-02-02T13:25:16Z</time>
      </trkpt>
      <trkpt lat="48.29869" lon="2.58031">
        <ele>100.80000305176</ele>
        <time>2014-02-02T13:25:17Z</time>
      </trkpt>
      <trkpt lat="48.29868" lon="2.58028">
        <ele>100.80000305176</ele>
        <time>2014-02-02T13:25:18Z</time>
      </trkpt>
      <trkpt lat="48.29868" lon="2.58016">
        <ele>100.80000305176</ele>
        <time>2014-02-02T13:25:26Z</time>
      </trkpt>
      <trkpt lat="48.2987" lon="2.58007">
        <ele>101.19999694824</ele>
        <time>2014-02-02T13:25:32Z</time>
      </trkpt>
      <trkpt lat="48.29871" lon="2.58005">
        <ele>101.59999847412</ele>
        <time>2014-02-02T13:25:33Z</time>
      </trkpt>
      <trkpt lat="48.29871" lon="2.58004">
        <ele>102</ele>
        <time>2014-02-02T13:25:34Z</time>
      </trkpt>
      <trkpt lat="48.29871" lon="2.58002">
        <ele>102.40000152588</ele>
        <time>2014-02-02T13:25:35Z</time>
      </trkpt>
      <trkpt lat="48.29871" lon="2.58001">
        <ele>102.80000305176</ele>
        <time>2014-02-02T13:25:36Z</time>
      </trkpt>
      <trkpt lat="48.29873" lon="2.57992">
        <ele>103.19999694824</ele>
        <time>2014-02-02T13:25:42Z</time>
      </trkpt>
      <trkpt lat="48.29873" lon="2.57991">
        <ele>103.59999847412</ele>
        <time>2014-02-02T13:25:43Z</time>
      </trkpt>
      <trkpt lat="48.29874" lon="2.5799">
        <ele>104.19999694824</ele>
        <time>2014-02-02T13:25:44Z</time>
      </trkpt>
      <trkpt lat="48.29874" lon="2.57989">
        <ele>104.59999847412</ele>
        <time>2014-02-02T13:25:45Z</time>
      </trkpt>
      <trkpt lat="48.29874" lon="2.57989">
        <ele>105</ele>
        <time>2014-02-02T13:25:46Z</time>
      </trkpt>
      <trkpt lat="48.29874" lon="2.57989">
        <ele>105</ele>
        <time>2014-02-02T13:25:49Z</time>
      </trkpt>
      <trkpt lat="48.29875" lon="2.57988">
        <ele>105.40000152588</ele>
        <time>2014-02-02T13:25:53Z</time>
      </trkpt>
      <trkpt lat="48.29875" lon="2.57988">
        <ele>105.80000305176</ele>
        <time>2014-02-02T13:25:54Z</time>
      </trkpt>
      <trkpt lat="48.29875" lon="2.57988">
        <ele>106.19999694824</ele>
        <time>2014-02-02T13:25:55Z</time>
      </trkpt>
      <trkpt lat="48.29875" lon="2.57988">
        <ele>106.59999847412</ele>
        <time>2014-02-02T13:25:56Z</time>
      </trkpt>
      <trkpt lat="48.29875" lon="2.57988">
        <ele>107</ele>
        <time>2014-02-02T13:25:57Z</time>
      </trkpt>
      <trkpt lat="48.29875" lon="2.57987">
        <ele>107.40000152588</ele>
        <time>2014-02-02T13:26:04Z</time>
      </trkpt>
      <trkpt lat="48.29875" lon="2.57987">
        <ele>107.80000305176</ele>
        <time>2014-02-02T13:26:05Z</time>
      </trkpt>
      <trkpt lat="48.29875" lon="2.57987">
        <ele>108.19999694824</ele>
        <time>2014-02-02T13:26:06Z</time>
      </trkpt>
      <trkpt lat="48.29875" lon="2.57987">
        <ele>108.59999847412</ele>
        <time>2014-02-02T13:26:07Z</time>
      </trkpt>
      <trkpt lat="48.29875" lon="2.57987">
        <ele>109</ele>
        <time>2014-02-02T13:26:08Z</time>
      </trkpt>
      <trkpt lat="48.29876" lon="2.57986">
        <ele>109.40000152588</ele>
        <time>2014-02-02T13:26:16Z</time>
      </trkpt>
      <trkpt lat="48.29876" lon="2.57986">
        <ele>110</ele>
        <time>2014-02-02T13:26:17Z</time>
      </trkpt>
      <trkpt lat="48.29876" lon="2.57986">
        <ele>110.40000152588</ele>
        <time>2014-02-02T13:26:18Z</time>
      </trkpt>
      <trkpt lat="48.29876" lon="2.57986">
        <ele>110.80000305176</ele>
        <time>2014-02-02T13:26:19Z</time>
      </trkpt>
      <trkpt lat="48.29876" lon="2.57985">
        <ele>111.19999694824</ele>
        <time>2014-02-02T13:26:20Z</time>
      </trkpt>
      <trkpt lat="48.29877" lon="2.57983">
        <ele>111.59999847412</ele>
        <time>2014-02-02T13:26:33Z</time>
      </trkpt>
      <trkpt lat="48.29877" lon="2.57982">
        <ele>112</ele>
        <time>2014-02-02T13:26:34Z</time>
      </trkpt>
      <trkpt lat="48.29877" lon="2.57982">
        <ele>112.40000152588</ele>
        <time>2014-02-02T13:26:35Z</time>
      </trkpt>
      <trkpt lat="48.29877" lon="2.57981">
        <ele>112.80000305176</ele>
        <time>2014-02-02T13:26:36Z</time>
      </trkpt>
      <trkpt lat="48.29877" lon="2.57981">
        <ele>113.40000152588</ele>
        <time>2014-02-02T13:26:37Z</time>
      </trkpt>
      <trkpt lat="48.2988" lon="2.57962">
        <ele>113.80000305176</ele>
        <time>2014-02-02T13:26:50Z</time>
      </trkpt>
      <trkpt lat="48.29881" lon="2.57957">
        <ele>114.19999694824</ele>
        <time>2014-02-02T13:26:51Z</time>
      </trkpt>
      <trkpt lat="48.29881" lon="2.5795">
        <ele>114.80000305176</ele>
        <time>2014-02-02T13:26:52Z</time>
      </trkpt>
      <trkpt lat="48.29881" lon="2.57943">
        <ele>115.19999694824</ele>
        <time>2014-02-02T13:26:53Z</time>
      </trkpt>
      <trkpt lat="48.2988" lon="2.57937">
        <ele>115.59999847412</ele>
        <time>2014-02-02T13:26:54Z</time>
      </trkpt>
      <trkpt lat="48.29883" lon="2.57922">
        <ele>116</ele>
        <time>2014-02-02T13:26:58Z</time>
      </trkpt>
      <trkpt lat="48.29884" lon="2.57919">
        <ele>116.59999847412</ele>
        <time>2014-02-02T13:26:59Z</time>
      </trkpt>
      <trkpt lat="48.29884" lon="2.57915">
        <ele>117</ele>
        <time>2014-02-02T13:27:00Z</time>
      </trkpt>
      <trkpt lat="48.29885" lon="2.57912">
        <ele>117.40000152588</ele>
        <time>2014-02-02T13:27:01Z</time>
      </trkpt>
      <trkpt lat="48.29884" lon="2.57912">
        <ele>117.80000305176</ele>
        <time>2014-02-02T13:27:02Z</time>
      </trkpt>
      <trkpt lat="48.29882" lon="2.57906">
        <ele>117.80000305176</ele>
        <time>2014-02-02T13:27:04Z</time>
      </trkpt>
      <trkpt lat="48.29885" lon="2.57893">
        <ele>117.80000305176</ele>
        <time>2014-02-02T13:27:10Z</time>
      </trkpt>
      <trkpt lat="48.29885" lon="2.57888">
        <ele>118.40000152588</ele>
        <time>2014-02-02T13:27:13Z</time>
      </trkpt>
      <trkpt lat="48.29885" lon="2.57887">
        <ele>118.80000305176</ele>
        <time>2014-02-02T13:27:14Z</time>
      </trkpt>
      <trkpt lat="48.29885" lon="2.57885">
        <ele>119.19999694824</ele>
        <time>2014-02-02T13:27:15Z</time>
      </trkpt>
      <trkpt lat="48.29885" lon="2.57884">
        <ele>119.59999847412</ele>
        <time>2014-02-02T13:27:16Z</time>
      </trkpt>
      <trkpt lat="48.29885" lon="2.57882">
        <ele>120</ele>
        <time>2014-02-02T13:27:17Z</time>
      </trkpt>
      <trkpt lat="48.29885" lon="2.57878">
        <ele>120</ele>
        <time>2014-02-02T13:27:20Z</time>
      </trkpt>
      <trkpt lat="48.29888" lon="2.57868">
        <ele>120.40000152588</ele>
        <time>2014-02-02T13:27:30Z</time>
      </trkpt>
      <trkpt lat="48.29888" lon="2.57866">
        <ele>120.80000305176</ele>
        <time>2014-02-02T13:27:31Z</time>
      </trkpt>
      <trkpt lat="48.29889" lon="2.57865">
        <ele>121.40000152588</ele>
        <time>2014-02-02T13:27:32Z</time>
      </trkpt>
      <trkpt lat="48.29889" lon="2.57864">
        <ele>121.80000305176</ele>
        <time>2014-02-02T13:27:33Z</time>
      </trkpt>
      <trkpt lat="48.29889" lon="2.57862">
        <ele>122.19999694824</ele>
        <time>2014-02-02T13:27:34Z</time>
      </trkpt>
      <trkpt lat="48.2989" lon="2.57855">
        <ele>122.19999694824</ele>
        <time>2014-02-02T13:27:40Z</time>
      </trkpt>
      <trkpt lat="48.29889" lon="2.57839">
        <ele>122.59999847412</ele>
        <time>2014-02-02T13:27:53Z</time>
      </trkpt>
      <trkpt lat="48.29889" lon="2.57838">
        <ele>123</ele>
        <time>2014-02-02T13:27:54Z</time>
      </trkpt>
      <trkpt lat="48.29889" lon="2.57837">
        <ele>123.40000152588</ele>
        <time>2014-02-02T13:27:55Z</time>
      </trkpt>
      <trkpt lat="48.29889" lon="2.57836">
        <ele>123.80000305176</ele>
        <time>2014-02-02T13:27:56Z</time>
      </trkpt>
      <trkpt lat="48.29889" lon="2.57835">
        <ele>124.19999694824</ele>
        <time>2014-02-02T13:27:57Z</time>
      </trkpt>
      <trkpt lat="48.29889" lon="2.57831">
        <ele>124.19999694824</ele>
        <time>2014-02-02T13:28:03Z</time>
      </trkpt>
      <trkpt lat="48.29886" lon="2.57821">
        <ele>124.19999694824</ele>
        <time>2014-02-02T13:28:12Z</time>
      </trkpt>
      <trkpt lat="48.29885" lon="2.57821">
        <ele>124.59999847412</ele>
        <time>2014-02-02T13:28:14Z</time>
      </trkpt>
      <trkpt lat="48.29884" lon="2.5782">
        <ele>125</ele>
        <time>2014-02-02T13:28:15Z</time>
      </trkpt>
      <trkpt lat="48.29884" lon="2.57819">
        <ele>125.40000152588</ele>
        <time>2014-02-02T13:28:16Z</time>
      </trkpt>
      <trkpt lat="48.29884" lon="2.57819">
        <ele>125.80000305176</ele>
        <time>2014-02-02T13:28:17Z</time>
      </trkpt>
      <trkpt lat="48.29883" lon="2.57818">
        <ele>126.19999694824</ele>
        <time>2014-02-02T13:28:18Z</time>
      </trkpt>
      <trkpt lat="48.29881" lon="2.57817">
        <ele>126.19999694824</ele>
        <time>2014-02-02T13:28:21Z</time>
      </trkpt>
      <trkpt lat="48.29879" lon="2.57815">
        <ele>126.19999694824</ele>
        <time>2014-02-02T13:28:28Z</time>
      </trkpt>
      <trkpt lat="48.29874" lon="2.57815">
        <ele>126.19999694824</ele>
        <time>2014-02-02T13:28:31Z</time>
      </trkpt>
      <trkpt lat="48.29871" lon="2.57815">
        <ele>126.19999694824</ele>
        <time>2014-02-02T13:28:34Z</time>
      </trkpt>
      <trkpt lat="48.29862" lon="2.57809">
        <ele>126.19999694824</ele>
        <time>2014-02-02T13:28:40Z</time>
      </trkpt>
      <trkpt lat="48.29851" lon="2.57803">
        <ele>126.19999694824</ele>
        <time>2014-02-02T13:28:46Z</time>
      </trkpt>
      <trkpt lat="48.29841" lon="2.57803">
        <ele>126.19999694824</ele>
        <time>2014-02-02T13:28:53Z</time>
      </trkpt>
      <trkpt lat="48.2984" lon="2.57796">
        <ele>126.19999694824</ele>
        <time>2014-02-02T13:28:57Z</time>
      </trkpt>
      <trkpt lat="48.29835" lon="2.57787">
        <ele>126.19999694824</ele>
        <time>2014-02-02T13:29:03Z</time>
      </trkpt>
      <trkpt lat="48.29828" lon="2.5778">
        <ele>126.19999694824</ele>
        <time>2014-02-02T13:29:08Z</time>
      </trkpt>
      <trkpt lat="48.29823" lon="2.5777">
        <ele>126.19999694824</ele>
        <time>2014-02-02T13:29:14Z</time>
      </trkpt>
      <trkpt lat="48.29812" lon="2.57766">
        <ele>126.19999694824</ele>
        <time>2014-02-02T13:29:22Z</time>
      </trkpt>
      <trkpt lat="48.29803" lon="2.57774">
        <ele>126.19999694824</ele>
        <time>2014-02-02T13:29:28Z</time>
      </trkpt>
      <trkpt lat="48.29803" lon="2.57776">
        <ele>126.19999694824</ele>
        <time>2014-02-02T13:29:29Z</time>
      </trkpt>
      <trkpt lat="48.29791" lon="2.57784">
        <ele>126.19999694824</ele>
        <time>2014-02-02T13:29:36Z</time>
      </trkpt>
      <trkpt lat="48.29777" lon="2.57786">
        <ele>126.19999694824</ele>
        <time>2014-02-02T13:29:43Z</time>
      </trkpt>
      <trkpt lat="48.29765" lon="2.57793">
        <ele>126.19999694824</ele>
        <time>2014-02-02T13:29:49Z</time>
      </trkpt>
      <trkpt lat="48.29752" lon="2.57802">
        <ele>126.19999694824</ele>
        <time>2014-02-02T13:29:56Z</time>
      </trkpt>
      <trkpt lat="48.29745" lon="2.57791">
        <ele>126.19999694824</ele>
        <time>2014-02-02T13:30:02Z</time>
      </trkpt>
      <trkpt lat="48.29736" lon="2.57789">
        <ele>125.80000305176</ele>
        <time>2014-02-02T13:30:05Z</time>
      </trkpt>
      <trkpt lat="48.29732" lon="2.57786">
        <ele>125.40000152588</ele>
        <time>2014-02-02T13:30:06Z</time>
      </trkpt>
      <trkpt lat="48.29729" lon="2.57785">
        <ele>124.80000305176</ele>
        <time>2014-02-02T13:30:07Z</time>
      </trkpt>
      <trkpt lat="48.29726" lon="2.57784">
        <ele>124.40000152588</ele>
        <time>2014-02-02T13:30:08Z</time>
      </trkpt>
      <trkpt lat="48.29724" lon="2.57784">
        <ele>124</ele>
        <time>2014-02-02T13:30:09Z</time>
      </trkpt>
      <trkpt lat="48.29721" lon="2.57783">
        <ele>123.40000152588</ele>
        <time>2014-02-02T13:30:10Z</time>
      </trkpt>
      <trkpt lat="48.29718" lon="2.57782">
        <ele>123</ele>
        <time>2014-02-02T13:30:11Z</time>
      </trkpt>
      <trkpt lat="48.29717" lon="2.57782">
        <ele>122.40000152588</ele>
        <time>2014-02-02T13:30:12Z</time>
      </trkpt>
      <trkpt lat="48.29716" lon="2.57782">
        <ele>121.80000305176</ele>
        <time>2014-02-02T13:30:13Z</time>
      </trkpt>
      <trkpt lat="48.29708" lon="2.57779">
        <ele>121.80000305176</ele>
        <time>2014-02-02T13:30:17Z</time>
      </trkpt>
      <trkpt lat="48.29701" lon="2.57774">
        <ele>122.19999694824</ele>
        <time>2014-02-02T13:30:21Z</time>
      </trkpt>
      <trkpt lat="48.297" lon="2.57773">
        <ele>122.80000305176</ele>
        <time>2014-02-02T13:30:22Z</time>
      </trkpt>
      <trkpt lat="48.29697" lon="2.57771">
        <ele>123.19999694824</ele>
        <time>2014-02-02T13:30:23Z</time>
      </trkpt>
      <trkpt lat="48.29695" lon="2.5777">
        <ele>123.59999847412</ele>
        <time>2014-02-02T13:30:24Z</time>
      </trkpt>
      <trkpt lat="48.29691" lon="2.57767">
        <ele>124</ele>
        <time>2014-02-02T13:30:25Z</time>
      </trkpt>
      <trkpt lat="48.29685" lon="2.57759">
        <ele>124</ele>
        <time>2014-02-02T13:30:28Z</time>
      </trkpt>
      <trkpt lat="48.2968" lon="2.57753">
        <ele>124</ele>
        <time>2014-02-02T13:30:33Z</time>
      </trkpt>
      <trkpt lat="48.29678" lon="2.57739">
        <ele>124</ele>
        <time>2014-02-02T13:30:40Z</time>
      </trkpt>
      <trkpt lat="48.29678" lon="2.57737">
        <ele>124.40000152588</ele>
        <time>2014-02-02T13:30:41Z</time>
      </trkpt>
      <trkpt lat="48.29678" lon="2.57735">
        <ele>124.80000305176</ele>
        <time>2014-02-02T13:30:42Z</time>
      </trkpt>
      <trkpt lat="48.29677" lon="2.57733">
        <ele>125.19999694824</ele>
        <time>2014-02-02T13:30:43Z</time>
      </trkpt>
      <trkpt lat="48.29677" lon="2.5773">
        <ele>125.59999847412</ele>
        <time>2014-02-02T13:30:44Z</time>
      </trkpt>
      <trkpt lat="48.29677" lon="2.57727">
        <ele>126</ele>
        <time>2014-02-02T13:30:45Z</time>
      </trkpt>
      <trkpt lat="48.29679" lon="2.57723">
        <ele>126</ele>
        <time>2014-02-02T13:30:47Z</time>
      </trkpt>
      <trkpt lat="48.29681" lon="2.57711">
        <ele>126</ele>
        <time>2014-02-02T13:30:54Z</time>
      </trkpt>
      <trkpt lat="48.29681" lon="2.57707">
        <ele>126</ele>
        <time>2014-02-02T13:31:14Z</time>
      </trkpt>
      <trkpt lat="48.29681" lon="2.57707">
        <ele>125.59999847412</ele>
        <time>2014-02-02T13:31:15Z</time>
      </trkpt>
      <trkpt lat="48.29681" lon="2.57707">
        <ele>125</ele>
        <time>2014-02-02T13:31:16Z</time>
      </trkpt>
      <trkpt lat="48.29681" lon="2.57707">
        <ele>124.59999847412</ele>
        <time>2014-02-02T13:31:17Z</time>
      </trkpt>
      <trkpt lat="48.29681" lon="2.57707">
        <ele>124.19999694824</ele>
        <time>2014-02-02T13:31:18Z</time>
      </trkpt>
      <trkpt lat="48.2968" lon="2.57706">
        <ele>123.80000305176</ele>
        <time>2014-02-02T13:31:19Z</time>
      </trkpt>
      <trkpt lat="48.29679" lon="2.57685">
        <ele>123.80000305176</ele>
        <time>2014-02-02T13:31:23Z</time>
      </trkpt>
      <trkpt lat="48.29679" lon="2.57672">
        <ele>123.80000305176</ele>
        <time>2014-02-02T13:31:30Z</time>
      </trkpt>
      <trkpt lat="48.29672" lon="2.57667">
        <ele>123.40000152588</ele>
        <time>2014-02-02T13:31:38Z</time>
      </trkpt>
      <trkpt lat="48.2967" lon="2.57667">
        <ele>123</ele>
        <time>2014-02-02T13:31:39Z</time>
      </trkpt>
      <trkpt lat="48.29668" lon="2.57667">
        <ele>122.59999847412</ele>
        <time>2014-02-02T13:31:40Z</time>
      </trkpt>
      <trkpt lat="48.29665" lon="2.57667">
        <ele>122</ele>
        <time>2014-02-02T13:31:41Z</time>
      </trkpt>
      <trkpt lat="48.29663" lon="2.57667">
        <ele>121.59999847412</ele>
        <time>2014-02-02T13:31:42Z</time>
      </trkpt>
      <trkpt lat="48.29658" lon="2.57669">
        <ele>121.59999847412</ele>
        <time>2014-02-02T13:31:44Z</time>
      </trkpt>
      <trkpt lat="48.29647" lon="2.57671">
        <ele>121.59999847412</ele>
        <time>2014-02-02T13:31:50Z</time>
      </trkpt>
      <trkpt lat="48.29644" lon="2.57669">
        <ele>121.59999847412</ele>
        <time>2014-02-02T13:31:57Z</time>
      </trkpt>
      <trkpt lat="48.29638" lon="2.57668">
        <ele>121.59999847412</ele>
        <time>2014-02-02T13:32:08Z</time>
      </trkpt>
      <trkpt lat="48.29628" lon="2.57664">
        <ele>121.59999847412</ele>
        <time>2014-02-02T13:32:16Z</time>
      </trkpt>
      <trkpt lat="48.2962" lon="2.57658">
        <ele>121.59999847412</ele>
        <time>2014-02-02T13:32:21Z</time>
      </trkpt>
      <trkpt lat="48.2962" lon="2.57656">
        <ele>121.59999847412</ele>
        <time>2014-02-02T13:32:26Z</time>
      </trkpt>
      <trkpt lat="48.29615" lon="2.57655">
        <ele>121.59999847412</ele>
        <time>2014-02-02T13:32:35Z</time>
      </trkpt>
      <trkpt lat="48.29606" lon="2.57651">
        <ele>121.59999847412</ele>
        <time>2014-02-02T13:32:43Z</time>
      </trkpt>
      <trkpt lat="48.29602" lon="2.57649">
        <ele>121.59999847412</ele>
        <time>2014-02-02T13:32:50Z</time>
      </trkpt>
      <trkpt lat="48.29597" lon="2.57649">
        <ele>122</ele>
        <time>2014-02-02T13:32:57Z</time>
      </trkpt>
      <trkpt lat="48.29595" lon="2.57649">
        <ele>122.40000152588</ele>
        <time>2014-02-02T13:32:58Z</time>
      </trkpt>
      <trkpt lat="48.29592" lon="2.5765">
        <ele>122.80000305176</ele>
        <time>2014-02-02T13:32:59Z</time>
      </trkpt>
      <trkpt lat="48.29589" lon="2.57649">
        <ele>123.19999694824</ele>
        <time>2014-02-02T13:33:00Z</time>
      </trkpt>
      <trkpt lat="48.29587" lon="2.57648">
        <ele>123.59999847412</ele>
        <time>2014-02-02T13:33:01Z</time>
      </trkpt>
      <trkpt lat="48.29582" lon="2.57646">
        <ele>123.59999847412</ele>
        <time>2014-02-02T13:33:04Z</time>
      </trkpt>
      <trkpt lat="48.29568" lon="2.57637">
        <ele>123.59999847412</ele>
        <time>2014-02-02T13:33:10Z</time>
      </trkpt>
      <trkpt lat="48.2956" lon="2.57636">
        <ele>123.19999694824</ele>
        <time>2014-02-02T13:33:14Z</time>
      </trkpt>
      <trkpt lat="48.29558" lon="2.57636">
        <ele>122.80000305176</ele>
        <time>2014-02-02T13:33:15Z</time>
      </trkpt>
      <trkpt lat="48.29556" lon="2.57635">
        <ele>122.40000152588</ele>
        <time>2014-02-02T13:33:16Z</time>
      </trkpt>
      <trkpt lat="48.29554" lon="2.57636">
        <ele>122</ele>
        <time>2014-02-02T13:33:17Z</time>
      </trkpt>
      <trkpt lat="48.29552" lon="2.57637">
        <ele>121.59999847412</ele>
        <time>2014-02-02T13:33:18Z</time>
      </trkpt>
      <trkpt lat="48.29543" lon="2.57644">
        <ele>121.19999694824</ele>
        <time>2014-02-02T13:33:21Z</time>
      </trkpt>
      <trkpt lat="48.29539" lon="2.57648">
        <ele>120.80000305176</ele>
        <time>2014-02-02T13:33:22Z</time>
      </trkpt>
      <trkpt lat="48.29538" lon="2.57652">
        <ele>120.40000152588</ele>
        <time>2014-02-02T13:33:23Z</time>
      </trkpt>
      <trkpt lat="48.29535" lon="2.57656">
        <ele>120</ele>
        <time>2014-02-02T13:33:24Z</time>
      </trkpt>
      <trkpt lat="48.29532" lon="2.57659">
        <ele>119.59999847412</ele>
        <time>2014-02-02T13:33:25Z</time>
      </trkpt>
      <trkpt lat="48.2953" lon="2.57659">
        <ele>119.59999847412</ele>
        <time>2014-02-02T13:33:26Z</time>
      </trkpt>
      <trkpt lat="48.29517" lon="2.57664">
        <ele>119.59999847412</ele>
        <time>2014-02-02T13:33:32Z</time>
      </trkpt>
      <trkpt lat="48.295" lon="2.57658">
        <ele>119.59999847412</ele>
        <time>2014-02-02T13:33:38Z</time>
      </trkpt>
      <trkpt lat="48.29495" lon="2.57653">
        <ele>119.19999694824</ele>
        <time>2014-02-02T13:33:40Z</time>
      </trkpt>
      <trkpt lat="48.29493" lon="2.57652">
        <ele>118.80000305176</ele>
        <time>2014-02-02T13:33:41Z</time>
      </trkpt>
      <trkpt lat="48.2949" lon="2.57652">
        <ele>118.40000152588</ele>
        <time>2014-02-02T13:33:42Z</time>
      </trkpt>
      <trkpt lat="48.29488" lon="2.57653">
        <ele>117.80000305176</ele>
        <time>2014-02-02T13:33:43Z</time>
      </trkpt>
      <trkpt lat="48.29486" lon="2.57656">
        <ele>117.40000152588</ele>
        <time>2014-02-02T13:33:44Z</time>
      </trkpt>
      <trkpt lat="48.29485" lon="2.57659">
        <ele>116.80000305176</ele>
        <time>2014-02-02T13:33:45Z</time>
      </trkpt>
      <trkpt lat="48.29483" lon="2.57663">
        <ele>116.19999694824</ele>
        <time>2014-02-02T13:33:46Z</time>
      </trkpt>
      <trkpt lat="48.2948" lon="2.57668">
        <ele>115.59999847412</ele>
        <time>2014-02-02T13:33:47Z</time>
      </trkpt>
      <trkpt lat="48.29478" lon="2.57673">
        <ele>115</ele>
        <time>2014-02-02T13:33:48Z</time>
      </trkpt>
      <trkpt lat="48.29478" lon="2.57679">
        <ele>114.40000152588</ele>
        <time>2014-02-02T13:33:49Z</time>
      </trkpt>
      <trkpt lat="48.29478" lon="2.57685">
        <ele>113.80000305176</ele>
        <time>2014-02-02T13:33:50Z</time>
      </trkpt>
      <trkpt lat="48.29478" lon="2.57691">
        <ele>113.19999694824</ele>
        <time>2014-02-02T13:33:51Z</time>
      </trkpt>
      <trkpt lat="48.29479" lon="2.57697">
        <ele>112.59999847412</ele>
        <time>2014-02-02T13:33:52Z</time>
      </trkpt>
      <trkpt lat="48.29474" lon="2.57713">
        <ele>112.59999847412</ele>
        <time>2014-02-02T13:33:57Z</time>
      </trkpt>
      <trkpt lat="48.29464" lon="2.57726">
        <ele>112.59999847412</ele>
        <time>2014-02-02T13:34:03Z</time>
      </trkpt>
      <trkpt lat="48.29448" lon="2.5774">
        <ele>112.19999694824</ele>
        <time>2014-02-02T13:34:08Z</time>
      </trkpt>
      <trkpt lat="48.29446" lon="2.57744">
        <ele>111.80000305176</ele>
        <time>2014-02-02T13:34:09Z</time>
      </trkpt>
      <trkpt lat="48.29443" lon="2.57748">
        <ele>111.40000152588</ele>
        <time>2014-02-02T13:34:10Z</time>
      </trkpt>
      <trkpt lat="48.2944" lon="2.57752">
        <ele>111</ele>
        <time>2014-02-02T13:34:11Z</time>
      </trkpt>
      <trkpt lat="48.29437" lon="2.57756">
        <ele>110.59999847412</ele>
        <time>2014-02-02T13:34:12Z</time>
      </trkpt>
      <trkpt lat="48.2943" lon="2.57768">
        <ele>110.59999847412</ele>
        <time>2014-02-02T13:34:16Z</time>
      </trkpt>
      <trkpt lat="48.29429" lon="2.57772">
        <ele>110.19999694824</ele>
        <time>2014-02-02T13:34:17Z</time>
      </trkpt>
      <trkpt lat="48.29427" lon="2.57776">
        <ele>109.80000305176</ele>
        <time>2014-02-02T13:34:18Z</time>
      </trkpt>
      <trkpt lat="48.29425" lon="2.5778">
        <ele>109.19999694824</ele>
        <time>2014-02-02T13:34:19Z</time>
      </trkpt>
      <trkpt lat="48.29423" lon="2.57784">
        <ele>108.80000305176</ele>
        <time>2014-02-02T13:34:20Z</time>
      </trkpt>
      <trkpt lat="48.29419" lon="2.57787">
        <ele>108.40000152588</ele>
        <time>2014-02-02T13:34:21Z</time>
      </trkpt>
      <trkpt lat="48.29417" lon="2.5779">
        <ele>107.80000305176</ele>
        <time>2014-02-02T13:34:22Z</time>
      </trkpt>
      <trkpt lat="48.29414" lon="2.57792">
        <ele>107.19999694824</ele>
        <time>2014-02-02T13:34:23Z</time>
      </trkpt>
      <trkpt lat="48.29412" lon="2.57793">
        <ele>106.59999847412</ele>
        <time>2014-02-02T13:34:24Z</time>
      </trkpt>
      <trkpt lat="48.29408" lon="2.57796">
        <ele>106.19999694824</ele>
        <time>2014-02-02T13:34:25Z</time>
      </trkpt>
      <trkpt lat="48.29396" lon="2.57802">
        <ele>106.19999694824</ele>
        <time>2014-02-02T13:34:28Z</time>
      </trkpt>
      <trkpt lat="48.29376" lon="2.57805">
        <ele>106.19999694824</ele>
        <time>2014-02-02T13:34:33Z</time>
      </trkpt>
      <trkpt lat="48.29358" lon="2.5781">
        <ele>105.80000305176</ele>
        <time>2014-02-02T13:34:39Z</time>
      </trkpt>
      <trkpt lat="48.29354" lon="2.57813">
        <ele>105.19999694824</ele>
        <time>2014-02-02T13:34:40Z</time>
      </trkpt>
      <trkpt lat="48.2935" lon="2.57815">
        <ele>104.80000305176</ele>
        <time>2014-02-02T13:34:41Z</time>
      </trkpt>
      <trkpt lat="48.29347" lon="2.57814">
        <ele>104.40000152588</ele>
        <time>2014-02-02T13:34:42Z</time>
      </trkpt>
      <trkpt lat="48.29344" lon="2.57816">
        <ele>104</ele>
        <time>2014-02-02T13:34:43Z</time>
      </trkpt>
      <trkpt lat="48.29342" lon="2.57817">
        <ele>104</ele>
        <time>2014-02-02T13:34:44Z</time>
      </trkpt>
      <trkpt lat="48.29334" lon="2.57829">
        <ele>104</ele>
        <time>2014-02-02T13:34:48Z</time>
      </trkpt>
      <trkpt lat="48.29322" lon="2.57838">
        <ele>104</ele>
        <time>2014-02-02T13:34:53Z</time>
      </trkpt>
      <trkpt lat="48.29314" lon="2.57843">
        <ele>104.40000152588</ele>
        <time>2014-02-02T13:34:56Z</time>
      </trkpt>
      <trkpt lat="48.29312" lon="2.57843">
        <ele>104.80000305176</ele>
        <time>2014-02-02T13:34:57Z</time>
      </trkpt>
      <trkpt lat="48.2931" lon="2.57843">
        <ele>105.19999694824</ele>
        <time>2014-02-02T13:34:58Z</time>
      </trkpt>
      <trkpt lat="48.29308" lon="2.57843">
        <ele>105.59999847412</ele>
        <time>2014-02-02T13:34:59Z</time>
      </trkpt>
      <trkpt lat="48.29307" lon="2.57843">
        <ele>106</ele>
        <time>2014-02-02T13:35:00Z</time>
      </trkpt>
      <trkpt lat="48.29288" lon="2.57851">
        <ele>106</ele>
        <time>2014-02-02T13:35:05Z</time>
      </trkpt>
      <trkpt lat="48.29277" lon="2.57859">
        <ele>106</ele>
        <time>2014-02-02T13:35:09Z</time>
      </trkpt>
      <trkpt lat="48.29268" lon="2.57867">
        <ele>106</ele>
        <time>2014-02-02T13:35:15Z</time>
      </trkpt>
      <trkpt lat="48.29252" lon="2.57873">
        <ele>106</ele>
        <time>2014-02-02T13:35:21Z</time>
      </trkpt>
      <trkpt lat="48.29237" lon="2.57875">
        <ele>106</ele>
        <time>2014-02-02T13:35:27Z</time>
      </trkpt>
      <trkpt lat="48.29228" lon="2.57864">
        <ele>106</ele>
        <time>2014-02-02T13:35:33Z</time>
      </trkpt>
      <trkpt lat="48.2922" lon="2.57854">
        <ele>106.40000152588</ele>
        <time>2014-02-02T13:35:38Z</time>
      </trkpt>
      <trkpt lat="48.29218" lon="2.57852">
        <ele>107</ele>
        <time>2014-02-02T13:35:39Z</time>
      </trkpt>
      <trkpt lat="48.29217" lon="2.57851">
        <ele>107.40000152588</ele>
        <time>2014-02-02T13:35:40Z</time>
      </trkpt>
      <trkpt lat="48.29216" lon="2.57849">
        <ele>107.80000305176</ele>
        <time>2014-02-02T13:35:41Z</time>
      </trkpt>
      <trkpt lat="48.29215" lon="2.57848">
        <ele>108.19999694824</ele>
        <time>2014-02-02T13:35:42Z</time>
      </trkpt>
      <trkpt lat="48.29206" lon="2.57836">
        <ele>108.19999694824</ele>
        <time>2014-02-02T13:35:51Z</time>
      </trkpt>
      <trkpt lat="48.29204" lon="2.57834">
        <ele>108.59999847412</ele>
        <time>2014-02-02T13:35:54Z</time>
      </trkpt>
      <trkpt lat="48.29203" lon="2.57833">
        <ele>109</ele>
        <time>2014-02-02T13:35:55Z</time>
      </trkpt>
      <trkpt lat="48.29202" lon="2.57832">
        <ele>109.40000152588</ele>
        <time>2014-02-02T13:35:56Z</time>
      </trkpt>
      <trkpt lat="48.29201" lon="2.57832">
        <ele>109.80000305176</ele>
        <time>2014-02-02T13:35:57Z</time>
      </trkpt>
      <trkpt lat="48.29201" lon="2.57831">
        <ele>110.19999694824</ele>
        <time>2014-02-02T13:35:58Z</time>
      </trkpt>
      <trkpt lat="48.292" lon="2.5783">
        <ele>110.19999694824</ele>
        <time>2014-02-02T13:35:59Z</time>
      </trkpt>
      <trkpt lat="48.29191" lon="2.57817">
        <ele>110.19999694824</ele>
        <time>2014-02-02T13:36:08Z</time>
      </trkpt>
      <trkpt lat="48.29191" lon="2.57809">
        <ele>110.19999694824</ele>
        <time>2014-02-02T13:36:14Z</time>
      </trkpt>
      <trkpt lat="48.29189" lon="2.57802">
        <ele>110.19999694824</ele>
        <time>2014-02-02T13:36:20Z</time>
      </trkpt>
      <trkpt lat="48.29187" lon="2.57795">
        <ele>110.59999847412</ele>
        <time>2014-02-02T13:36:27Z</time>
      </trkpt>
      <trkpt lat="48.29186" lon="2.57795">
        <ele>111</ele>
        <time>2014-02-02T13:36:28Z</time>
      </trkpt>
      <trkpt lat="48.29185" lon="2.57796">
        <ele>111.40000152588</ele>
        <time>2014-02-02T13:36:29Z</time>
      </trkpt>
      <trkpt lat="48.29184" lon="2.57796">
        <ele>111.80000305176</ele>
        <time>2014-02-02T13:36:30Z</time>
      </trkpt>
      <trkpt lat="48.29184" lon="2.57797">
        <ele>112.19999694824</ele>
        <time>2014-02-02T13:36:31Z</time>
      </trkpt>
      <trkpt lat="48.29184" lon="2.578">
        <ele>112.19999694824</ele>
        <time>2014-02-02T13:36:33Z</time>
      </trkpt>
      <trkpt lat="48.29181" lon="2.57801">
        <ele>112.19999694824</ele>
        <time>2014-02-02T13:36:36Z</time>
      </trkpt>
      <trkpt lat="48.29178" lon="2.57802">
        <ele>112.19999694824</ele>
        <time>2014-02-02T13:36:43Z</time>
      </trkpt>
      <trkpt lat="48.29173" lon="2.57807">
        <ele>112.19999694824</ele>
        <time>2014-02-02T13:36:52Z</time>
      </trkpt>
      <trkpt lat="48.29173" lon="2.57808">
        <ele>112.80000305176</ele>
        <time>2014-02-02T13:36:54Z</time>
      </trkpt>
      <trkpt lat="48.29172" lon="2.57807">
        <ele>113.19999694824</ele>
        <time>2014-02-02T13:36:55Z</time>
      </trkpt>
      <trkpt lat="48.29171" lon="2.57808">
        <ele>113.59999847412</ele>
        <time>2014-02-02T13:36:56Z</time>
      </trkpt>
      <trkpt lat="48.29171" lon="2.57808">
        <ele>114</ele>
        <time>2014-02-02T13:36:57Z</time>
      </trkpt>
      <trkpt lat="48.2917" lon="2.57809">
        <ele>114.40000152588</ele>
        <time>2014-02-02T13:36:58Z</time>
      </trkpt>
      <trkpt lat="48.29169" lon="2.57809">
        <ele>114.40000152588</ele>
        <time>2014-02-02T13:36:59Z</time>
      </trkpt>
      <trkpt lat="48.29164" lon="2.57814">
        <ele>114.80000305176</ele>
        <time>2014-02-02T13:37:11Z</time>
      </trkpt>
      <trkpt lat="48.29163" lon="2.57814">
        <ele>115.40000152588</ele>
        <time>2014-02-02T13:37:12Z</time>
      </trkpt>
      <trkpt lat="48.29163" lon="2.57815">
        <ele>115.80000305176</ele>
        <time>2014-02-02T13:37:13Z</time>
      </trkpt>
      <trkpt lat="48.29162" lon="2.57815">
        <ele>116.19999694824</ele>
        <time>2014-02-02T13:37:14Z</time>
      </trkpt>
      <trkpt lat="48.29162" lon="2.57816">
        <ele>116.59999847412</ele>
        <time>2014-02-02T13:37:15Z</time>
      </trkpt>
      <trkpt lat="48.29158" lon="2.57819">
        <ele>116.59999847412</ele>
        <time>2014-02-02T13:37:21Z</time>
      </trkpt>
      <trkpt lat="48.29152" lon="2.57824">
        <ele>116.59999847412</ele>
        <time>2014-02-02T13:37:29Z</time>
      </trkpt>
      <trkpt lat="48.29146" lon="2.57824">
        <ele>117</ele>
        <time>2014-02-02T13:37:35Z</time>
      </trkpt>
      <trkpt lat="48.29145" lon="2.57824">
        <ele>117.40000152588</ele>
        <time>2014-02-02T13:37:36Z</time>
      </trkpt>
      <trkpt lat="48.29145" lon="2.57824">
        <ele>117.80000305176</ele>
        <time>2014-02-02T13:37:37Z</time>
      </trkpt>
      <trkpt lat="48.29144" lon="2.57824">
        <ele>118.19999694824</ele>
        <time>2014-02-02T13:37:38Z</time>
      </trkpt>
      <trkpt lat="48.29143" lon="2.57825">
        <ele>118.80000305176</ele>
        <time>2014-02-02T13:37:39Z</time>
      </trkpt>
      <trkpt lat="48.29141" lon="2.57829">
        <ele>118.80000305176</ele>
        <time>2014-02-02T13:37:44Z</time>
      </trkpt>
      <trkpt lat="48.29134" lon="2.57843">
        <ele>118.80000305176</ele>
        <time>2014-02-02T13:37:52Z</time>
      </trkpt>
      <trkpt lat="48.29132" lon="2.57849">
        <ele>119.19999694824</ele>
        <time>2014-02-02T13:37:55Z</time>
      </trkpt>
      <trkpt lat="48.29131" lon="2.57851">
        <ele>119.59999847412</ele>
        <time>2014-02-02T13:37:56Z</time>
      </trkpt>
      <trkpt lat="48.2913" lon="2.57852">
        <ele>120</ele>
        <time>2014-02-02T13:37:57Z</time>
      </trkpt>
      <trkpt lat="48.29129" lon="2.57854">
        <ele>120.40000152588</ele>
        <time>2014-02-02T13:37:58Z</time>
      </trkpt>
      <trkpt lat="48.29128" lon="2.57855">
        <ele>121</ele>
        <time>2014-02-02T13:37:59Z</time>
      </trkpt>
      <trkpt lat="48.29126" lon="2.5786">
        <ele>121</ele>
        <time>2014-02-02T13:38:02Z</time>
      </trkpt>
      <trkpt lat="48.29119" lon="2.57873">
        <ele>121</ele>
        <time>2014-02-02T13:38:10Z</time>
      </trkpt>
      <trkpt lat="48.29115" lon="2.57881">
        <ele>121.40000152588</ele>
        <time>2014-02-02T13:38:16Z</time>
      </trkpt>
      <trkpt lat="48.29115" lon="2.57883">
        <ele>121.80000305176</ele>
        <time>2014-02-02T13:38:17Z</time>
      </trkpt>
      <trkpt lat="48.29114" lon="2.57885">
        <ele>122.19999694824</ele>
        <time>2014-02-02T13:38:18Z</time>
      </trkpt>
      <trkpt lat="48.29113" lon="2.57886">
        <ele>122.59999847412</ele>
        <time>2014-02-02T13:38:19Z</time>
      </trkpt>
      <trkpt lat="48.29112" lon="2.57888">
        <ele>123</ele>
        <time>2014-02-02T13:38:20Z</time>
      </trkpt>
      <trkpt lat="48.29108" lon="2.57899">
        <ele>123</ele>
        <time>2014-02-02T13:38:26Z</time>
      </trkpt>
      <trkpt lat="48.291" lon="2.57916">
        <ele>123</ele>
        <time>2014-02-02T13:38:34Z</time>
      </trkpt>
      <trkpt lat="48.29095" lon="2.57932">
        <ele>123.40000152588</ele>
        <time>2014-02-02T13:38:42Z</time>
      </trkpt>
      <trkpt lat="48.29094" lon="2.57934">
        <ele>124</ele>
        <time>2014-02-02T13:38:43Z</time>
      </trkpt>
      <trkpt lat="48.29093" lon="2.57936">
        <ele>124.40000152588</ele>
        <time>2014-02-02T13:38:44Z</time>
      </trkpt>
      <trkpt lat="48.29093" lon="2.57938">
        <ele>124.80000305176</ele>
        <time>2014-02-02T13:38:45Z</time>
      </trkpt>
      <trkpt lat="48.29092" lon="2.5794">
        <ele>125.40000152588</ele>
        <time>2014-02-02T13:38:46Z</time>
      </trkpt>
      <trkpt lat="48.29086" lon="2.57961">
        <ele>125.40000152588</ele>
        <time>2014-02-02T13:38:56Z</time>
      </trkpt>
      <trkpt lat="48.29081" lon="2.57976">
        <ele>125.40000152588</ele>
        <time>2014-02-02T13:39:02Z</time>
      </trkpt>
      <trkpt lat="48.29077" lon="2.5799">
        <ele>125.40000152588</ele>
        <time>2014-02-02T13:39:08Z</time>
      </trkpt>
      <trkpt lat="48.2907" lon="2.58015">
        <ele>125.40000152588</ele>
        <time>2014-02-02T13:39:16Z</time>
      </trkpt>
      <trkpt lat="48.29068" lon="2.58038">
        <ele>125.40000152588</ele>
        <time>2014-02-02T13:39:23Z</time>
      </trkpt>
      <trkpt lat="48.29067" lon="2.58053">
        <ele>125.40000152588</ele>
        <time>2014-02-02T13:39:29Z</time>
      </trkpt>
      <trkpt lat="48.29065" lon="2.58072">
        <ele>125.40000152588</ele>
        <time>2014-02-02T13:39:35Z</time>
      </trkpt>
      <trkpt lat="48.29065" lon="2.58082">
        <ele>125.40000152588</ele>
        <time>2014-02-02T13:39:39Z</time>
      </trkpt>
      <trkpt lat="48.29067" lon="2.58085">
        <ele>125.40000152588</ele>
        <time>2014-02-02T13:39:46Z</time>
      </trkpt>
      <trkpt lat="48.29068" lon="2.58086">
        <ele>125.40000152588</ele>
        <time>2014-02-02T13:39:48Z</time>
      </trkpt>
      <trkpt lat="48.29069" lon="2.58097">
        <ele>125.40000152588</ele>
        <time>2014-02-02T13:39:56Z</time>
      </trkpt>
      <trkpt lat="48.2907" lon="2.58104">
        <ele>125.40000152588</ele>
        <time>2014-02-02T13:40:04Z</time>
      </trkpt>
      <trkpt lat="48.29069" lon="2.58119">
        <ele>125.40000152588</ele>
        <time>2014-02-02T13:40:19Z</time>
      </trkpt>
      <trkpt lat="48.2907" lon="2.58138">
        <ele>125.40000152588</ele>
        <time>2014-02-02T13:40:26Z</time>
      </trkpt>
      <trkpt lat="48.29071" lon="2.58167">
        <ele>125.40000152588</ele>
        <time>2014-02-02T13:40:36Z</time>
      </trkpt>
      <trkpt lat="48.29074" lon="2.58189">
        <ele>125.40000152588</ele>
        <time>2014-02-02T13:40:43Z</time>
      </trkpt>
      <trkpt lat="48.29077" lon="2.58214">
        <ele>125.40000152588</ele>
        <time>2014-02-02T13:40:48Z</time>
      </trkpt>
      <trkpt lat="48.29077" lon="2.58218">
        <ele>124.80000305176</ele>
        <time>2014-02-02T13:40:49Z</time>
      </trkpt>
      <trkpt lat="48.29076" lon="2.58223">
        <ele>124.40000152588</ele>
        <time>2014-02-02T13:40:50Z</time>
      </trkpt>
      <trkpt lat="48.29076" lon="2.58228">
        <ele>124</ele>
        <time>2014-02-02T13:40:51Z</time>
      </trkpt>
      <trkpt lat="48.29076" lon="2.58232">
        <ele>123.40000152588</ele>
        <time>2014-02-02T13:40:52Z</time>
      </trkpt>
      <trkpt lat="48.29076" lon="2.58236">
        <ele>123</ele>
        <time>2014-02-02T13:40:53Z</time>
      </trkpt>
      <trkpt lat="48.29075" lon="2.58242">
        <ele>122.40000152588</ele>
        <time>2014-02-02T13:40:55Z</time>
      </trkpt>
      <trkpt lat="48.29074" lon="2.58246">
        <ele>122</ele>
        <time>2014-02-02T13:40:56Z</time>
      </trkpt>
      <trkpt lat="48.29074" lon="2.58248">
        <ele>121.59999847412</ele>
        <time>2014-02-02T13:40:57Z</time>
      </trkpt>
      <trkpt lat="48.29072" lon="2.58253">
        <ele>120.80000305176</ele>
        <time>2014-02-02T13:40:58Z</time>
      </trkpt>
      <trkpt lat="48.29071" lon="2.58257">
        <ele>120.19999694824</ele>
        <time>2014-02-02T13:40:59Z</time>
      </trkpt>
      <trkpt lat="48.29071" lon="2.5826">
        <ele>119.40000152588</ele>
        <time>2014-02-02T13:41:00Z</time>
      </trkpt>
      <trkpt lat="48.29071" lon="2.58264">
        <ele>118.59999847412</ele>
        <time>2014-02-02T13:41:01Z</time>
      </trkpt>
      <trkpt lat="48.29072" lon="2.58269">
        <ele>117.59999847412</ele>
        <time>2014-02-02T13:41:02Z</time>
      </trkpt>
      <trkpt lat="48.29072" lon="2.58273">
        <ele>116.80000305176</ele>
        <time>2014-02-02T13:41:03Z</time>
      </trkpt>
      <trkpt lat="48.29071" lon="2.58276">
        <ele>116</ele>
        <time>2014-02-02T13:41:04Z</time>
      </trkpt>
      <trkpt lat="48.29071" lon="2.58279">
        <ele>115.19999694824</ele>
        <time>2014-02-02T13:41:05Z</time>
      </trkpt>
      <trkpt lat="48.2907" lon="2.58283">
        <ele>114.19999694824</ele>
        <time>2014-02-02T13:41:06Z</time>
      </trkpt>
      <trkpt lat="48.2907" lon="2.58287">
        <ele>113.40000152588</ele>
        <time>2014-02-02T13:41:07Z</time>
      </trkpt>
      <trkpt lat="48.29069" lon="2.58293">
        <ele>112.40000152588</ele>
        <time>2014-02-02T13:41:08Z</time>
      </trkpt>
      <trkpt lat="48.29068" lon="2.58298">
        <ele>111.19999694824</ele>
        <time>2014-02-02T13:41:09Z</time>
      </trkpt>
      <trkpt lat="48.29066" lon="2.58303">
        <ele>110.19999694824</ele>
        <time>2014-02-02T13:41:11Z</time>
      </trkpt>
      <trkpt lat="48.29065" lon="2.58308">
        <ele>109.19999694824</ele>
        <time>2014-02-02T13:41:12Z</time>
      </trkpt>
      <trkpt lat="48.29064" lon="2.58314">
        <ele>108</ele>
        <time>2014-02-02T13:41:13Z</time>
      </trkpt>
      <trkpt lat="48.29064" lon="2.58319">
        <ele>107</ele>
        <time>2014-02-02T13:41:14Z</time>
      </trkpt>
      <trkpt lat="48.29065" lon="2.58323">
        <ele>105.80000305176</ele>
        <time>2014-02-02T13:41:15Z</time>
      </trkpt>
      <trkpt lat="48.29065" lon="2.58327">
        <ele>105.19999694824</ele>
        <time>2014-02-02T13:41:16Z</time>
      </trkpt>
      <trkpt lat="48.29066" lon="2.58333">
        <ele>104.40000152588</ele>
        <time>2014-02-02T13:41:17Z</time>
      </trkpt>
      <trkpt lat="48.29066" lon="2.58338">
        <ele>103.59999847412</ele>
        <time>2014-02-02T13:41:18Z</time>
      </trkpt>
      <trkpt lat="48.29066" lon="2.58342">
        <ele>103</ele>
        <time>2014-02-02T13:41:19Z</time>
      </trkpt>
      <trkpt lat="48.29067" lon="2.58347">
        <ele>102.19999694824</ele>
        <time>2014-02-02T13:41:20Z</time>
      </trkpt>
      <trkpt lat="48.29066" lon="2.58353">
        <ele>101.59999847412</ele>
        <time>2014-02-02T13:41:21Z</time>
      </trkpt>
      <trkpt lat="48.29065" lon="2.58356">
        <ele>100.80000305176</ele>
        <time>2014-02-02T13:41:22Z</time>
      </trkpt>
      <trkpt lat="48.29064" lon="2.5836">
        <ele>100.19999694824</ele>
        <time>2014-02-02T13:41:23Z</time>
      </trkpt>
      <trkpt lat="48.29055" lon="2.58363">
        <ele>100.19999694824</ele>
        <time>2014-02-02T13:41:31Z</time>
      </trkpt>
      <trkpt lat="48.29054" lon="2.58363">
        <ele>100.19999694824</ele>
        <time>2014-02-02T13:41:32Z</time>
      </trkpt>
      <trkpt lat="48.29045" lon="2.5836">
        <ele>100.19999694824</ele>
        <time>2014-02-02T13:41:41Z</time>
      </trkpt>
      <trkpt lat="48.29044" lon="2.58359">
        <ele>100.59999847412</ele>
        <time>2014-02-02T13:41:42Z</time>
      </trkpt>
      <trkpt lat="48.29042" lon="2.58358">
        <ele>101</ele>
        <time>2014-02-02T13:41:43Z</time>
      </trkpt>
      <trkpt lat="48.29041" lon="2.58358">
        <ele>101.59999847412</ele>
        <time>2014-02-02T13:41:44Z</time>
      </trkpt>
      <trkpt lat="48.29039" lon="2.58357">
        <ele>102</ele>
        <time>2014-02-02T13:41:45Z</time>
      </trkpt>
      <trkpt lat="48.29039" lon="2.58356">
        <ele>102.59999847412</ele>
        <time>2014-02-02T13:41:46Z</time>
      </trkpt>
      <trkpt lat="48.29035" lon="2.58352">
        <ele>102.59999847412</ele>
        <time>2014-02-02T13:41:50Z</time>
      </trkpt>
      <trkpt lat="48.29032" lon="2.58351">
        <ele>103</ele>
        <time>2014-02-02T13:41:53Z</time>
      </trkpt>
      <trkpt lat="48.29031" lon="2.5835">
        <ele>103.40000152588</ele>
        <time>2014-02-02T13:41:54Z</time>
      </trkpt>
      <trkpt lat="48.2903" lon="2.5835">
        <ele>103.80000305176</ele>
        <time>2014-02-02T13:41:55Z</time>
      </trkpt>
      <trkpt lat="48.29029" lon="2.58349">
        <ele>104.19999694824</ele>
        <time>2014-02-02T13:41:56Z</time>
      </trkpt>
      <trkpt lat="48.29028" lon="2.58348">
        <ele>104.59999847412</ele>
        <time>2014-02-02T13:41:57Z</time>
      </trkpt>
      <trkpt lat="48.29021" lon="2.58343">
        <ele>104.59999847412</ele>
        <time>2014-02-02T13:42:06Z</time>
      </trkpt>
      <trkpt lat="48.29021" lon="2.58343">
        <ele>105</ele>
        <time>2014-02-02T13:42:09Z</time>
      </trkpt>
      <trkpt lat="48.29021" lon="2.58343">
        <ele>105.40000152588</ele>
        <time>2014-02-02T13:42:10Z</time>
      </trkpt>
      <trkpt lat="48.29021" lon="2.58343">
        <ele>105.80000305176</ele>
        <time>2014-02-02T13:42:11Z</time>
      </trkpt>
      <trkpt lat="48.29021" lon="2.58343">
        <ele>106.19999694824</ele>
        <time>2014-02-02T13:42:12Z</time>
      </trkpt>
      <trkpt lat="48.29021" lon="2.58343">
        <ele>106.59999847412</ele>
        <time>2014-02-02T13:42:13Z</time>
      </trkpt>
      <trkpt lat="48.29021" lon="2.58343">
        <ele>106.59999847412</ele>
        <time>2014-02-02T13:42:19Z</time>
      </trkpt>
      <trkpt lat="48.29021" lon="2.58343">
        <ele>107</ele>
        <time>2014-02-02T13:42:25Z</time>
      </trkpt>
      <trkpt lat="48.29021" lon="2.58343">
        <ele>107.40000152588</ele>
        <time>2014-02-02T13:42:26Z</time>
      </trkpt>
      <trkpt lat="48.29021" lon="2.58343">
        <ele>107.80000305176</ele>
        <time>2014-02-02T13:42:27Z</time>
      </trkpt>
      <trkpt lat="48.29021" lon="2.58343">
        <ele>108.19999694824</ele>
        <time>2014-02-02T13:42:28Z</time>
      </trkpt>
      <trkpt lat="48.29021" lon="2.58343">
        <ele>108.59999847412</ele>
        <time>2014-02-02T13:42:29Z</time>
      </trkpt>
      <trkpt lat="48.29005" lon="2.58331">
        <ele>108.59999847412</ele>
        <time>2014-02-02T13:46:12Z</time>
      </trkpt>
      <trkpt lat="48.28996" lon="2.58335">
        <ele>109</ele>
        <time>2014-02-02T13:46:19Z</time>
      </trkpt>
      <trkpt lat="48.28994" lon="2.58335">
        <ele>109.40000152588</ele>
        <time>2014-02-02T13:46:20Z</time>
      </trkpt>
      <trkpt lat="48.28991" lon="2.58335">
        <ele>109.80000305176</ele>
        <time>2014-02-02T13:46:21Z</time>
      </trkpt>
      <trkpt lat="48.28989" lon="2.58336">
        <ele>110.19999694824</ele>
        <time>2014-02-02T13:46:22Z</time>
      </trkpt>
      <trkpt lat="48.28986" lon="2.58336">
        <ele>110.80000305176</ele>
        <time>2014-02-02T13:46:23Z</time>
      </trkpt>
      <trkpt lat="48.28979" lon="2.58338">
        <ele>111.19999694824</ele>
        <time>2014-02-02T13:46:26Z</time>
      </trkpt>
      <trkpt lat="48.28976" lon="2.58339">
        <ele>111.59999847412</ele>
        <time>2014-02-02T13:46:27Z</time>
      </trkpt>
      <trkpt lat="48.28975" lon="2.5834">
        <ele>112</ele>
        <time>2014-02-02T13:46:28Z</time>
      </trkpt>
      <trkpt lat="48.28974" lon="2.5834">
        <ele>112.40000152588</ele>
        <time>2014-02-02T13:46:29Z</time>
      </trkpt>
      <trkpt lat="48.28973" lon="2.5834">
        <ele>112.80000305176</ele>
        <time>2014-02-02T13:46:30Z</time>
      </trkpt>
      <trkpt lat="48.2897" lon="2.58341">
        <ele>112.80000305176</ele>
        <time>2014-02-02T13:46:32Z</time>
      </trkpt>
      <trkpt lat="48.28962" lon="2.58342">
        <ele>112.80000305176</ele>
        <time>2014-02-02T13:46:40Z</time>
      </trkpt>
      <trkpt lat="48.28962" lon="2.58342">
        <ele>113.19999694824</ele>
        <time>2014-02-02T13:46:41Z</time>
      </trkpt>
      <trkpt lat="48.2896" lon="2.58342">
        <ele>113.59999847412</ele>
        <time>2014-02-02T13:46:42Z</time>
      </trkpt>
      <trkpt lat="48.28959" lon="2.58342">
        <ele>114.19999694824</ele>
        <time>2014-02-02T13:46:43Z</time>
      </trkpt>
      <trkpt lat="48.28958" lon="2.58342">
        <ele>114.59999847412</ele>
        <time>2014-02-02T13:46:44Z</time>
      </trkpt>
      <trkpt lat="48.28957" lon="2.58342">
        <ele>115</ele>
        <time>2014-02-02T13:46:45Z</time>
      </trkpt>
      <trkpt lat="48.28949" lon="2.58342">
        <ele>115</ele>
        <time>2014-02-02T13:46:51Z</time>
      </trkpt>
      <trkpt lat="48.28944" lon="2.58341">
        <ele>115.40000152588</ele>
        <time>2014-02-02T13:46:56Z</time>
      </trkpt>
      <trkpt lat="48.28943" lon="2.58341">
        <ele>115.80000305176</ele>
        <time>2014-02-02T13:46:57Z</time>
      </trkpt>
      <trkpt lat="48.28942" lon="2.5834">
        <ele>116.19999694824</ele>
        <time>2014-02-02T13:46:58Z</time>
      </trkpt>
      <trkpt lat="48.28941" lon="2.5834">
        <ele>116.59999847412</ele>
        <time>2014-02-02T13:46:59Z</time>
      </trkpt>
      <trkpt lat="48.28941" lon="2.58339">
        <ele>117</ele>
        <time>2014-02-02T13:47:00Z</time>
      </trkpt>
      <trkpt lat="48.28938" lon="2.5834">
        <ele>117</ele>
        <time>2014-02-02T13:47:02Z</time>
      </trkpt>
      <trkpt lat="48.28933" lon="2.58339">
        <ele>117.59999847412</ele>
        <time>2014-02-02T13:47:08Z</time>
      </trkpt>
      <trkpt lat="48.28932" lon="2.58339">
        <ele>118</ele>
        <time>2014-02-02T13:47:09Z</time>
      </trkpt>
      <trkpt lat="48.28931" lon="2.58339">
        <ele>118.40000152588</ele>
        <time>2014-02-02T13:47:10Z</time>
      </trkpt>
      <trkpt lat="48.2893" lon="2.58339">
        <ele>118.80000305176</ele>
        <time>2014-02-02T13:47:11Z</time>
      </trkpt>
      <trkpt lat="48.28928" lon="2.58339">
        <ele>119.19999694824</ele>
        <time>2014-02-02T13:47:12Z</time>
      </trkpt>
      <trkpt lat="48.28918" lon="2.58338">
        <ele>119.59999847412</ele>
        <time>2014-02-02T13:47:23Z</time>
      </trkpt>
      <trkpt lat="48.28917" lon="2.58339">
        <ele>120</ele>
        <time>2014-02-02T13:47:24Z</time>
      </trkpt>
      <trkpt lat="48.28916" lon="2.58339">
        <ele>120.40000152588</ele>
        <time>2014-02-02T13:47:25Z</time>
      </trkpt>
      <trkpt lat="48.28915" lon="2.5834">
        <ele>120.80000305176</ele>
        <time>2014-02-02T13:47:26Z</time>
      </trkpt>
      <trkpt lat="48.28914" lon="2.5834">
        <ele>121.19999694824</ele>
        <time>2014-02-02T13:47:27Z</time>
      </trkpt>
      <trkpt lat="48.28911" lon="2.58334">
        <ele>121.19999694824</ele>
        <time>2014-02-02T13:47:33Z</time>
      </trkpt>
      <trkpt lat="48.28907" lon="2.58329">
        <ele>121.59999847412</ele>
        <time>2014-02-02T13:47:38Z</time>
      </trkpt>
      <trkpt lat="48.28907" lon="2.58328">
        <ele>122</ele>
        <time>2014-02-02T13:47:39Z</time>
      </trkpt>
      <trkpt lat="48.28906" lon="2.58327">
        <ele>122.40000152588</ele>
        <time>2014-02-02T13:47:40Z</time>
      </trkpt>
      <trkpt lat="48.28905" lon="2.58326">
        <ele>122.80000305176</ele>
        <time>2014-02-02T13:47:41Z</time>
      </trkpt>
      <trkpt lat="48.28904" lon="2.58325">
        <ele>123.19999694824</ele>
        <time>2014-02-02T13:47:43Z</time>
      </trkpt>
      <trkpt lat="48.28901" lon="2.58322">
        <ele>123.19999694824</ele>
        <time>2014-02-02T13:47:46Z</time>
      </trkpt>
      <trkpt lat="48.28898" lon="2.58318">
        <ele>123.19999694824</ele>
        <time>2014-02-02T13:47:53Z</time>
      </trkpt>
      <trkpt lat="48.28896" lon="2.58315">
        <ele>123.80000305176</ele>
        <time>2014-02-02T13:47:56Z</time>
      </trkpt>
      <trkpt lat="48.28894" lon="2.58314">
        <ele>124.19999694824</ele>
        <time>2014-02-02T13:47:58Z</time>
      </trkpt>
      <trkpt lat="48.28893" lon="2.58314">
        <ele>124.80000305176</ele>
        <time>2014-02-02T13:47:59Z</time>
      </trkpt>
      <trkpt lat="48.28893" lon="2.58313">
        <ele>125.19999694824</ele>
        <time>2014-02-02T13:48:00Z</time>
      </trkpt>
      <trkpt lat="48.28892" lon="2.58313">
        <ele>125.80000305176</ele>
        <time>2014-02-02T13:48:01Z</time>
      </trkpt>
      <trkpt lat="48.2889" lon="2.58316">
        <ele>125.80000305176</ele>
        <time>2014-02-02T13:48:03Z</time>
      </trkpt>
      <trkpt lat="48.28889" lon="2.58319">
        <ele>125.80000305176</ele>
        <time>2014-02-02T13:48:06Z</time>
      </trkpt>
      <trkpt lat="48.28889" lon="2.58323">
        <ele>125.80000305176</ele>
        <time>2014-02-02T13:48:14Z</time>
      </trkpt>
      <trkpt lat="48.2889" lon="2.58332">
        <ele>125.80000305176</ele>
        <time>2014-02-02T13:48:23Z</time>
      </trkpt>
      <trkpt lat="48.28898" lon="2.58346">
        <ele>125.80000305176</ele>
        <time>2014-02-02T13:48:31Z</time>
      </trkpt>
      <trkpt lat="48.28908" lon="2.58353">
        <ele>125.80000305176</ele>
        <time>2014-02-02T13:48:36Z</time>
      </trkpt>
      <trkpt lat="48.28912" lon="2.58361">
        <ele>125.80000305176</ele>
        <time>2014-02-02T13:48:42Z</time>
      </trkpt>
      <trkpt lat="48.28913" lon="2.58363">
        <ele>125.80000305176</ele>
        <time>2014-02-02T13:48:44Z</time>
      </trkpt>
      <trkpt lat="48.2892" lon="2.58372">
        <ele>125.80000305176</ele>
        <time>2014-02-02T13:48:48Z</time>
      </trkpt>
      <trkpt lat="48.28929" lon="2.58382">
        <ele>125.40000152588</ele>
        <time>2014-02-02T13:48:54Z</time>
      </trkpt>
      <trkpt lat="48.28931" lon="2.58384">
        <ele>124.80000305176</ele>
        <time>2014-02-02T13:48:55Z</time>
      </trkpt>
      <trkpt lat="48.28933" lon="2.58385">
        <ele>124.40000152588</ele>
        <time>2014-02-02T13:48:56Z</time>
      </trkpt>
      <trkpt lat="48.28935" lon="2.58387">
        <ele>124</ele>
        <time>2014-02-02T13:48:57Z</time>
      </trkpt>
      <trkpt lat="48.28937" lon="2.58388">
        <ele>123.59999847412</ele>
        <time>2014-02-02T13:48:58Z</time>
      </trkpt>
      <trkpt lat="48.28943" lon="2.58392">
        <ele>123.59999847412</ele>
        <time>2014-02-02T13:49:01Z</time>
      </trkpt>
      <trkpt lat="48.28953" lon="2.58391">
        <ele>123.59999847412</ele>
        <time>2014-02-02T13:49:04Z</time>
      </trkpt>
      <trkpt lat="48.28963" lon="2.58389">
        <ele>123.59999847412</ele>
        <time>2014-02-02T13:49:06Z</time>
      </trkpt>
      <trkpt lat="48.28967" lon="2.58392">
        <ele>123.59999847412</ele>
        <time>2014-02-02T13:49:07Z</time>
      </trkpt>
      <trkpt lat="48.28969" lon="2.58394">
        <ele>123.59999847412</ele>
        <time>2014-02-02T13:49:09Z</time>
      </trkpt>
      <trkpt lat="48.28972" lon="2.584">
        <ele>123.59999847412</ele>
        <time>2014-02-02T13:49:12Z</time>
      </trkpt>
      <trkpt lat="48.28973" lon="2.58414">
        <ele>123.59999847412</ele>
        <time>2014-02-02T13:49:18Z</time>
      </trkpt>
      <trkpt lat="48.28982" lon="2.58424">
        <ele>123.59999847412</ele>
        <time>2014-02-02T13:49:25Z</time>
      </trkpt>
      <trkpt lat="48.28988" lon="2.58429">
        <ele>124</ele>
        <time>2014-02-02T13:49:28Z</time>
      </trkpt>
      <trkpt lat="48.28989" lon="2.58431">
        <ele>124.40000152588</ele>
        <time>2014-02-02T13:49:29Z</time>
      </trkpt>
      <trkpt lat="48.2899" lon="2.58434">
        <ele>125</ele>
        <time>2014-02-02T13:49:30Z</time>
      </trkpt>
      <trkpt lat="48.28991" lon="2.58436">
        <ele>125.40000152588</ele>
        <time>2014-02-02T13:49:31Z</time>
      </trkpt>
      <trkpt lat="48.28991" lon="2.58439">
        <ele>125.80000305176</ele>
        <time>2014-02-02T13:49:32Z</time>
      </trkpt>
      <trkpt lat="48.28995" lon="2.58455">
        <ele>125.80000305176</ele>
        <time>2014-02-02T13:49:36Z</time>
      </trkpt>
      <trkpt lat="48.28997" lon="2.58482">
        <ele>125.80000305176</ele>
        <time>2014-02-02T13:49:42Z</time>
      </trkpt>
      <trkpt lat="48.28997" lon="2.58487">
        <ele>125.80000305176</ele>
        <time>2014-02-02T13:49:46Z</time>
      </trkpt>
      <trkpt lat="48.28998" lon="2.58496">
        <ele>125.19999694824</ele>
        <time>2014-02-02T13:49:57Z</time>
      </trkpt>
      <trkpt lat="48.28998" lon="2.58501">
        <ele>124.80000305176</ele>
        <time>2014-02-02T13:49:58Z</time>
      </trkpt>
      <trkpt lat="48.28998" lon="2.58504">
        <ele>124.40000152588</ele>
        <time>2014-02-02T13:49:59Z</time>
      </trkpt>
      <trkpt lat="48.28998" lon="2.58507">
        <ele>124</ele>
        <time>2014-02-02T13:50:00Z</time>
      </trkpt>
      <trkpt lat="48.28998" lon="2.5851">
        <ele>123.59999847412</ele>
        <time>2014-02-02T13:50:01Z</time>
      </trkpt>
      <trkpt lat="48.29005" lon="2.58528">
        <ele>123.59999847412</ele>
        <time>2014-02-02T13:50:07Z</time>
      </trkpt>
      <trkpt lat="48.29015" lon="2.58542">
        <ele>123.59999847412</ele>
        <time>2014-02-02T13:50:14Z</time>
      </trkpt>
      <trkpt lat="48.29025" lon="2.58558">
        <ele>123.59999847412</ele>
        <time>2014-02-02T13:50:21Z</time>
      </trkpt>
      <trkpt lat="48.29029" lon="2.58565">
        <ele>123.59999847412</ele>
        <time>2014-02-02T13:50:24Z</time>
      </trkpt>
      <trkpt lat="48.29032" lon="2.58579">
        <ele>123.59999847412</ele>
        <time>2014-02-02T13:50:28Z</time>
      </trkpt>
      <trkpt lat="48.29037" lon="2.58599">
        <ele>123.59999847412</ele>
        <time>2014-02-02T13:50:34Z</time>
      </trkpt>
      <trkpt lat="48.2904" lon="2.58616">
        <ele>123.59999847412</ele>
        <time>2014-02-02T13:50:40Z</time>
      </trkpt>
      <trkpt lat="48.2905" lon="2.5863">
        <ele>123.59999847412</ele>
        <time>2014-02-02T13:50:47Z</time>
      </trkpt>
      <trkpt lat="48.29062" lon="2.58636">
        <ele>123</ele>
        <time>2014-02-02T13:50:53Z</time>
      </trkpt>
      <trkpt lat="48.29066" lon="2.58637">
        <ele>122.40000152588</ele>
        <time>2014-02-02T13:50:54Z</time>
      </trkpt>
      <trkpt lat="48.2907" lon="2.58638">
        <ele>122</ele>
        <time>2014-02-02T13:50:55Z</time>
      </trkpt>
      <trkpt lat="48.29073" lon="2.58636">
        <ele>121.40000152588</ele>
        <time>2014-02-02T13:50:56Z</time>
      </trkpt>
      <trkpt lat="48.29076" lon="2.58637">
        <ele>121</ele>
        <time>2014-02-02T13:50:57Z</time>
      </trkpt>
      <trkpt lat="48.29082" lon="2.58638">
        <ele>121</ele>
        <time>2014-02-02T13:51:00Z</time>
      </trkpt>
      <trkpt lat="48.29088" lon="2.58639">
        <ele>121</ele>
        <time>2014-02-02T13:51:02Z</time>
      </trkpt>
      <trkpt lat="48.29104" lon="2.58644">
        <ele>121</ele>
        <time>2014-02-02T13:51:08Z</time>
      </trkpt>
      <trkpt lat="48.29115" lon="2.58656">
        <ele>121</ele>
        <time>2014-02-02T13:51:12Z</time>
      </trkpt>
      <trkpt lat="48.29115" lon="2.58659">
        <ele>121</ele>
        <time>2014-02-02T13:51:13Z</time>
      </trkpt>
      <trkpt lat="48.29115" lon="2.58672">
        <ele>121</ele>
        <time>2014-02-02T13:51:16Z</time>
      </trkpt>
      <trkpt lat="48.29112" lon="2.58682">
        <ele>121</ele>
        <time>2014-02-02T13:51:19Z</time>
      </trkpt>
      <trkpt lat="48.29111" lon="2.58692">
        <ele>121</ele>
        <time>2014-02-02T13:51:22Z</time>
      </trkpt>
      <trkpt lat="48.29118" lon="2.58702">
        <ele>121</ele>
        <time>2014-02-02T13:51:26Z</time>
      </trkpt>
      <trkpt lat="48.29119" lon="2.58704">
        <ele>121</ele>
        <time>2014-02-02T13:51:27Z</time>
      </trkpt>
      <trkpt lat="48.29129" lon="2.58729">
        <ele>121</ele>
        <time>2014-02-02T13:51:33Z</time>
      </trkpt>
      <trkpt lat="48.29137" lon="2.58742">
        <ele>120.59999847412</ele>
        <time>2014-02-02T13:51:37Z</time>
      </trkpt>
      <trkpt lat="48.2914" lon="2.58745">
        <ele>120.19999694824</ele>
        <time>2014-02-02T13:51:38Z</time>
      </trkpt>
      <trkpt lat="48.29143" lon="2.58748">
        <ele>119.80000305176</ele>
        <time>2014-02-02T13:51:39Z</time>
      </trkpt>
      <trkpt lat="48.29145" lon="2.58753">
        <ele>119.19999694824</ele>
        <time>2014-02-02T13:51:40Z</time>
      </trkpt>
      <trkpt lat="48.29146" lon="2.58758">
        <ele>118.80000305176</ele>
        <time>2014-02-02T13:51:41Z</time>
      </trkpt>
      <trkpt lat="48.29148" lon="2.58766">
        <ele>118.80000305176</ele>
        <time>2014-02-02T13:51:43Z</time>
      </trkpt>
      <trkpt lat="48.29154" lon="2.58768">
        <ele>118.80000305176</ele>
        <time>2014-02-02T13:51:48Z</time>
      </trkpt>
      <trkpt lat="48.29155" lon="2.58766">
        <ele>118.40000152588</ele>
        <time>2014-02-02T13:51:53Z</time>
      </trkpt>
      <trkpt lat="48.29155" lon="2.58766">
        <ele>118</ele>
        <time>2014-02-02T13:51:54Z</time>
      </trkpt>
      <trkpt lat="48.29155" lon="2.58766">
        <ele>117.59999847412</ele>
        <time>2014-02-02T13:51:55Z</time>
      </trkpt>
      <trkpt lat="48.29155" lon="2.58765">
        <ele>117.19999694824</ele>
        <time>2014-02-02T13:51:56Z</time>
      </trkpt>
      <trkpt lat="48.29155" lon="2.58765">
        <ele>116.80000305176</ele>
        <time>2014-02-02T13:51:57Z</time>
      </trkpt>
      <trkpt lat="48.29155" lon="2.58765">
        <ele>116</ele>
        <time>2014-02-02T13:52:00Z</time>
      </trkpt>
      <trkpt lat="48.29155" lon="2.58765">
        <ele>115.59999847412</ele>
        <time>2014-02-02T13:52:01Z</time>
      </trkpt>
      <trkpt lat="48.29156" lon="2.58766">
        <ele>114.59999847412</ele>
        <time>2014-02-02T13:52:03Z</time>
      </trkpt>
      <trkpt lat="48.29156" lon="2.58767">
        <ele>114.19999694824</ele>
        <time>2014-02-02T13:52:07Z</time>
      </trkpt>
      <trkpt lat="48.29156" lon="2.58768">
        <ele>113.59999847412</ele>
        <time>2014-02-02T13:52:08Z</time>
      </trkpt>
      <trkpt lat="48.29158" lon="2.5877">
        <ele>112.59999847412</ele>
        <time>2014-02-02T13:52:09Z</time>
      </trkpt>
      <trkpt lat="48.29163" lon="2.5878">
        <ele>112</ele>
        <time>2014-02-02T13:52:11Z</time>
      </trkpt>
      <trkpt lat="48.29167" lon="2.58784">
        <ele>111.40000152588</ele>
        <time>2014-02-02T13:52:12Z</time>
      </trkpt>
      <trkpt lat="48.29169" lon="2.58787">
        <ele>110.80000305176</ele>
        <time>2014-02-02T13:52:13Z</time>
      </trkpt>
      <trkpt lat="48.29171" lon="2.58789">
        <ele>109.59999847412</ele>
        <time>2014-02-02T13:52:14Z</time>
      </trkpt>
      <trkpt lat="48.29171" lon="2.58792">
        <ele>109</ele>
        <time>2014-02-02T13:52:15Z</time>
      </trkpt>
      <trkpt lat="48.29173" lon="2.58795">
        <ele>108.40000152588</ele>
        <time>2014-02-02T13:52:17Z</time>
      </trkpt>
      <trkpt lat="48.29173" lon="2.58795">
        <ele>107.80000305176</ele>
        <time>2014-02-02T13:52:18Z</time>
      </trkpt>
      <trkpt lat="48.29174" lon="2.58795">
        <ele>107.40000152588</ele>
        <time>2014-02-02T13:52:19Z</time>
      </trkpt>
      <trkpt lat="48.29176" lon="2.58806">
        <ele>106.40000152588</ele>
        <time>2014-02-02T13:52:30Z</time>
      </trkpt>
      <trkpt lat="48.29176" lon="2.58807">
        <ele>105.80000305176</ele>
        <time>2014-02-02T13:52:31Z</time>
      </trkpt>
      <trkpt lat="48.29177" lon="2.58809">
        <ele>104.80000305176</ele>
        <time>2014-02-02T13:52:33Z</time>
      </trkpt>
      <trkpt lat="48.29178" lon="2.5881">
        <ele>104.80000305176</ele>
        <time>2014-02-02T13:52:36Z</time>
      </trkpt>
      <trkpt lat="48.29181" lon="2.58814">
        <ele>104.40000152588</ele>
        <time>2014-02-02T13:52:40Z</time>
      </trkpt>
      <trkpt lat="48.29184" lon="2.58818">
        <ele>103.80000305176</ele>
        <time>2014-02-02T13:52:42Z</time>
      </trkpt>
      <trkpt lat="48.29186" lon="2.58819">
        <ele>102.80000305176</ele>
        <time>2014-02-02T13:52:43Z</time>
      </trkpt>
      <trkpt lat="48.29188" lon="2.5882">
        <ele>102.19999694824</ele>
        <time>2014-02-02T13:52:44Z</time>
      </trkpt>
      <trkpt lat="48.2919" lon="2.58822">
        <ele>101.59999847412</ele>
        <time>2014-02-02T13:52:45Z</time>
      </trkpt>
      <trkpt lat="48.29193" lon="2.58828">
        <ele>101</ele>
        <time>2014-02-02T13:52:47Z</time>
      </trkpt>
      <trkpt lat="48.29193" lon="2.58829">
        <ele>100</ele>
        <time>2014-02-02T13:52:48Z</time>
      </trkpt>
      <trkpt lat="48.29194" lon="2.58832">
        <ele>100</ele>
        <time>2014-02-02T13:52:49Z</time>
      </trkpt>
      <trkpt lat="48.29196" lon="2.58835">
        <ele>99.400001525879</ele>
        <time>2014-02-02T13:52:50Z</time>
      </trkpt>
      <trkpt lat="48.29198" lon="2.58838">
        <ele>98.800003051758</ele>
        <time>2014-02-02T13:52:51Z</time>
      </trkpt>
      <trkpt lat="48.292" lon="2.58839">
        <ele>98.199996948242</ele>
        <time>2014-02-02T13:52:52Z</time>
      </trkpt>
      <trkpt lat="48.29203" lon="2.5884">
        <ele>97.599998474121</ele>
        <time>2014-02-02T13:52:53Z</time>
      </trkpt>
      <trkpt lat="48.29205" lon="2.58841">
        <ele>96.800003051758</ele>
        <time>2014-02-02T13:52:54Z</time>
      </trkpt>
      <trkpt lat="48.29206" lon="2.58839">
        <ele>96.199996948242</ele>
        <time>2014-02-02T13:52:55Z</time>
      </trkpt>
      <trkpt lat="48.2921" lon="2.58838">
        <ele>95.599998474121</ele>
        <time>2014-02-02T13:52:56Z</time>
      </trkpt>
      <trkpt lat="48.29213" lon="2.5884">
        <ele>95</ele>
        <time>2014-02-02T13:52:57Z</time>
      </trkpt>
      <trkpt lat="48.29214" lon="2.58841">
        <ele>94.400001525879</ele>
        <time>2014-02-02T13:52:58Z</time>
      </trkpt>
      <trkpt lat="48.29215" lon="2.58842">
        <ele>93.800003051758</ele>
        <time>2014-02-02T13:52:59Z</time>
      </trkpt>
      <trkpt lat="48.29216" lon="2.58842">
        <ele>93.199996948242</ele>
        <time>2014-02-02T13:53:00Z</time>
      </trkpt>
      <trkpt lat="48.29219" lon="2.5884">
        <ele>93.199996948242</ele>
        <time>2014-02-02T13:53:06Z</time>
      </trkpt>
      <trkpt lat="48.29221" lon="2.58852">
        <ele>92.599998474121</ele>
        <time>2014-02-02T13:53:19Z</time>
      </trkpt>
      <trkpt lat="48.29224" lon="2.58861">
        <ele>92</ele>
        <time>2014-02-02T13:53:20Z</time>
      </trkpt>
      <trkpt lat="48.29224" lon="2.58868">
        <ele>91</ele>
        <time>2014-02-02T13:53:21Z</time>
      </trkpt>
      <trkpt lat="48.29225" lon="2.58875">
        <ele>90</ele>
        <time>2014-02-02T13:53:22Z</time>
      </trkpt>
      <trkpt lat="48.29225" lon="2.5888">
        <ele>89</ele>
        <time>2014-02-02T13:53:23Z</time>
      </trkpt>
      <trkpt lat="48.29225" lon="2.58884">
        <ele>88</ele>
        <time>2014-02-02T13:53:24Z</time>
      </trkpt>
      <trkpt lat="48.29225" lon="2.58887">
        <ele>87</ele>
        <time>2014-02-02T13:53:25Z</time>
      </trkpt>
      <trkpt lat="48.29225" lon="2.58903">
        <ele>87</ele>
        <time>2014-02-02T13:53:29Z</time>
      </trkpt>
      <trkpt lat="48.29224" lon="2.58921">
        <ele>87</ele>
        <time>2014-02-02T13:53:35Z</time>
      </trkpt>
      <trkpt lat="48.29213" lon="2.5893">
        <ele>87</ele>
        <time>2014-02-02T13:53:39Z</time>
      </trkpt>
      <trkpt lat="48.29202" lon="2.58933">
        <ele>87</ele>
        <time>2014-02-02T13:53:46Z</time>
      </trkpt>
      <trkpt lat="48.29192" lon="2.58916">
        <ele>87</ele>
        <time>2014-02-02T13:53:53Z</time>
      </trkpt>
      <trkpt lat="48.29191" lon="2.58912">
        <ele>87.400001525879</ele>
        <time>2014-02-02T13:53:55Z</time>
      </trkpt>
      <trkpt lat="48.2919" lon="2.58911">
        <ele>87.800003051758</ele>
        <time>2014-02-02T13:53:56Z</time>
      </trkpt>
      <trkpt lat="48.29189" lon="2.58909">
        <ele>88.199996948242</ele>
        <time>2014-02-02T13:53:57Z</time>
      </trkpt>
      <trkpt lat="48.29188" lon="2.58908">
        <ele>88.800003051758</ele>
        <time>2014-02-02T13:53:58Z</time>
      </trkpt>
      <trkpt lat="48.29187" lon="2.58906">
        <ele>89.199996948242</ele>
        <time>2014-02-02T13:53:59Z</time>
      </trkpt>
      <trkpt lat="48.29186" lon="2.589">
        <ele>89.199996948242</ele>
        <time>2014-02-02T13:54:02Z</time>
      </trkpt>
      <trkpt lat="48.29179" lon="2.58888">
        <ele>89.199996948242</ele>
        <time>2014-02-02T13:54:08Z</time>
      </trkpt>
      <trkpt lat="48.29173" lon="2.5888">
        <ele>89.599998474121</ele>
        <time>2014-02-02T13:54:13Z</time>
      </trkpt>
      <trkpt lat="48.29172" lon="2.58879">
        <ele>90</ele>
        <time>2014-02-02T13:54:14Z</time>
      </trkpt>
      <trkpt lat="48.29171" lon="2.58877">
        <ele>90.400001525879</ele>
        <time>2014-02-02T13:54:15Z</time>
      </trkpt>
      <trkpt lat="48.2917" lon="2.58876">
        <ele>91</ele>
        <time>2014-02-02T13:54:16Z</time>
      </trkpt>
      <trkpt lat="48.29169" lon="2.58875">
        <ele>91.400001525879</ele>
        <time>2014-02-02T13:54:17Z</time>
      </trkpt>
      <trkpt lat="48.29167" lon="2.58861">
        <ele>91.400001525879</ele>
        <time>2014-02-02T13:54:23Z</time>
      </trkpt>
      <trkpt lat="48.29163" lon="2.5885">
        <ele>91.800003051758</ele>
        <time>2014-02-02T13:54:29Z</time>
      </trkpt>
      <trkpt lat="48.29163" lon="2.58848">
        <ele>92.199996948242</ele>
        <time>2014-02-02T13:54:30Z</time>
      </trkpt>
      <trkpt lat="48.29163" lon="2.58847">
        <ele>92.800003051758</ele>
        <time>2014-02-02T13:54:31Z</time>
      </trkpt>
      <trkpt lat="48.29163" lon="2.58845">
        <ele>93.199996948242</ele>
        <time>2014-02-02T13:54:32Z</time>
      </trkpt>
      <trkpt lat="48.29163" lon="2.58845">
        <ele>93.599998474121</ele>
        <time>2014-02-02T13:54:33Z</time>
      </trkpt>
      <trkpt lat="48.29157" lon="2.5884">
        <ele>93.599998474121</ele>
        <time>2014-02-02T13:54:39Z</time>
      </trkpt>
      <trkpt lat="48.29153" lon="2.58842">
        <ele>93.599998474121</ele>
        <time>2014-02-02T13:54:46Z</time>
      </trkpt>
      <trkpt lat="48.29148" lon="2.58837">
        <ele>94</ele>
        <time>2014-02-02T13:54:50Z</time>
      </trkpt>
      <trkpt lat="48.29148" lon="2.58836">
        <ele>94.400001525879</ele>
        <time>2014-02-02T13:54:51Z</time>
      </trkpt>
      <trkpt lat="48.29147" lon="2.58836">
        <ele>94.800003051758</ele>
        <time>2014-02-02T13:54:52Z</time>
      </trkpt>
      <trkpt lat="48.29147" lon="2.58835">
        <ele>95.199996948242</ele>
        <time>2014-02-02T13:54:53Z</time>
      </trkpt>
      <trkpt lat="48.29147" lon="2.58835">
        <ele>95.599998474121</ele>
        <time>2014-02-02T13:54:54Z</time>
      </trkpt>
      <trkpt lat="48.29142" lon="2.5883">
        <ele>96.199996948242</ele>
        <time>2014-02-02T13:55:03Z</time>
      </trkpt>
      <trkpt lat="48.29142" lon="2.5883">
        <ele>96.599998474121</ele>
        <time>2014-02-02T13:55:04Z</time>
      </trkpt>
      <trkpt lat="48.29141" lon="2.5883">
        <ele>97</ele>
        <time>2014-02-02T13:55:05Z</time>
      </trkpt>
      <trkpt lat="48.2914" lon="2.58829">
        <ele>97.400001525879</ele>
        <time>2014-02-02T13:55:06Z</time>
      </trkpt>
      <trkpt lat="48.29139" lon="2.58829">
        <ele>97.800003051758</ele>
        <time>2014-02-02T13:55:07Z</time>
      </trkpt>
      <trkpt lat="48.29137" lon="2.58824">
        <ele>97.800003051758</ele>
        <time>2014-02-02T13:55:15Z</time>
      </trkpt>
      <trkpt lat="48.29136" lon="2.58819">
        <ele>98.199996948242</ele>
        <time>2014-02-02T13:55:18Z</time>
      </trkpt>
      <trkpt lat="48.29136" lon="2.58818">
        <ele>98.599998474121</ele>
        <time>2014-02-02T13:55:19Z</time>
      </trkpt>
      <trkpt lat="48.29136" lon="2.58818">
        <ele>99</ele>
        <time>2014-02-02T13:55:20Z</time>
      </trkpt>
      <trkpt lat="48.29135" lon="2.58818">
        <ele>99.400001525879</ele>
        <time>2014-02-02T13:55:21Z</time>
      </trkpt>
      <trkpt lat="48.29134" lon="2.58817">
        <ele>99.800003051758</ele>
        <time>2014-02-02T13:55:22Z</time>
      </trkpt>
      <trkpt lat="48.29131" lon="2.58813">
        <ele>99.800003051758</ele>
        <time>2014-02-02T13:55:28Z</time>
      </trkpt>
      <trkpt lat="48.2913" lon="2.58811">
        <ele>100.19999694824</ele>
        <time>2014-02-02T13:55:29Z</time>
      </trkpt>
      <trkpt lat="48.2913" lon="2.58809">
        <ele>100.59999847412</ele>
        <time>2014-02-02T13:55:30Z</time>
      </trkpt>
      <trkpt lat="48.29129" lon="2.58807">
        <ele>101</ele>
        <time>2014-02-02T13:55:31Z</time>
      </trkpt>
      <trkpt lat="48.29129" lon="2.58806">
        <ele>101.40000152588</ele>
        <time>2014-02-02T13:55:32Z</time>
      </trkpt>
      <trkpt lat="48.29128" lon="2.58805">
        <ele>101.80000305176</ele>
        <time>2014-02-02T13:55:33Z</time>
      </trkpt>
      <trkpt lat="48.29128" lon="2.58801">
        <ele>101.80000305176</ele>
        <time>2014-02-02T13:55:35Z</time>
      </trkpt>
      <trkpt lat="48.29118" lon="2.58797">
        <ele>102.40000152588</ele>
        <time>2014-02-02T13:55:46Z</time>
      </trkpt>
      <trkpt lat="48.29117" lon="2.58796">
        <ele>102.80000305176</ele>
        <time>2014-02-02T13:55:47Z</time>
      </trkpt>
      <trkpt lat="48.29116" lon="2.58795">
        <ele>103.19999694824</ele>
        <time>2014-02-02T13:55:48Z</time>
      </trkpt>
      <trkpt lat="48.29116" lon="2.58794">
        <ele>103.80000305176</ele>
        <time>2014-02-02T13:55:49Z</time>
      </trkpt>
      <trkpt lat="48.29115" lon="2.58793">
        <ele>104.19999694824</ele>
        <time>2014-02-02T13:55:50Z</time>
      </trkpt>
      <trkpt lat="48.29111" lon="2.58785">
        <ele>104.19999694824</ele>
        <time>2014-02-02T13:55:59Z</time>
      </trkpt>
      <trkpt lat="48.29108" lon="2.58781">
        <ele>104.59999847412</ele>
        <time>2014-02-02T13:56:03Z</time>
      </trkpt>
      <trkpt lat="48.29108" lon="2.58781">
        <ele>105</ele>
        <time>2014-02-02T13:56:04Z</time>
      </trkpt>
      <trkpt lat="48.29107" lon="2.5878">
        <ele>105.40000152588</ele>
        <time>2014-02-02T13:56:05Z</time>
      </trkpt>
      <trkpt lat="48.29106" lon="2.58779">
        <ele>105.80000305176</ele>
        <time>2014-02-02T13:56:06Z</time>
      </trkpt>
      <trkpt lat="48.29105" lon="2.58779">
        <ele>106.19999694824</ele>
        <time>2014-02-02T13:56:07Z</time>
      </trkpt>
      <trkpt lat="48.29101" lon="2.58775">
        <ele>106.19999694824</ele>
        <time>2014-02-02T13:56:14Z</time>
      </trkpt>
      <trkpt lat="48.291" lon="2.58775">
        <ele>106.80000305176</ele>
        <time>2014-02-02T13:56:15Z</time>
      </trkpt>
      <trkpt lat="48.291" lon="2.58775">
        <ele>107.19999694824</ele>
        <time>2014-02-02T13:56:16Z</time>
      </trkpt>
      <trkpt lat="48.29099" lon="2.58775">
        <ele>107.59999847412</ele>
        <time>2014-02-02T13:56:17Z</time>
      </trkpt>
      <trkpt lat="48.29099" lon="2.58775">
        <ele>108</ele>
        <time>2014-02-02T13:56:18Z</time>
      </trkpt>
      <trkpt lat="48.29097" lon="2.58775">
        <ele>108.40000152588</ele>
        <time>2014-02-02T13:56:19Z</time>
      </trkpt>
      <trkpt lat="48.29091" lon="2.58779">
        <ele>108.40000152588</ele>
        <time>2014-02-02T13:56:25Z</time>
      </trkpt>
      <trkpt lat="48.2909" lon="2.58774">
        <ele>108.40000152588</ele>
        <time>2014-02-02T13:56:28Z</time>
      </trkpt>
      <trkpt lat="48.29087" lon="2.58769">
        <ele>108.80000305176</ele>
        <time>2014-02-02T13:56:33Z</time>
      </trkpt>
      <trkpt lat="48.29086" lon="2.58768">
        <ele>109.19999694824</ele>
        <time>2014-02-02T13:56:34Z</time>
      </trkpt>
      <trkpt lat="48.29086" lon="2.58768">
        <ele>109.59999847412</ele>
        <time>2014-02-02T13:56:35Z</time>
      </trkpt>
      <trkpt lat="48.29085" lon="2.58767">
        <ele>110</ele>
        <time>2014-02-02T13:56:36Z</time>
      </trkpt>
      <trkpt lat="48.29084" lon="2.58766">
        <ele>110.40000152588</ele>
        <time>2014-02-02T13:56:37Z</time>
      </trkpt>
      <trkpt lat="48.2908" lon="2.5876">
        <ele>110.40000152588</ele>
        <time>2014-02-02T13:56:45Z</time>
      </trkpt>
      <trkpt lat="48.29078" lon="2.58757">
        <ele>111</ele>
        <time>2014-02-02T13:56:49Z</time>
      </trkpt>
      <trkpt lat="48.29077" lon="2.58757">
        <ele>111.40000152588</ele>
        <time>2014-02-02T13:56:50Z</time>
      </trkpt>
      <trkpt lat="48.29077" lon="2.58757">
        <ele>111.80000305176</ele>
        <time>2014-02-02T13:56:51Z</time>
      </trkpt>
      <trkpt lat="48.29076" lon="2.58756">
        <ele>112.40000152588</ele>
        <time>2014-02-02T13:56:52Z</time>
      </trkpt>
      <trkpt lat="48.29076" lon="2.58755">
        <ele>112.80000305176</ele>
        <time>2014-02-02T13:56:53Z</time>
      </trkpt>
      <trkpt lat="48.29075" lon="2.5875">
        <ele>112.80000305176</ele>
        <time>2014-02-02T13:56:58Z</time>
      </trkpt>
      <trkpt lat="48.29074" lon="2.58745">
        <ele>113.19999694824</ele>
        <time>2014-02-02T13:57:02Z</time>
      </trkpt>
      <trkpt lat="48.29074" lon="2.58744">
        <ele>113.59999847412</ele>
        <time>2014-02-02T13:57:03Z</time>
      </trkpt>
      <trkpt lat="48.29073" lon="2.58744">
        <ele>114</ele>
        <time>2014-02-02T13:57:04Z</time>
      </trkpt>
      <trkpt lat="48.29073" lon="2.58743">
        <ele>114.59999847412</ele>
        <time>2014-02-02T13:57:05Z</time>
      </trkpt>
      <trkpt lat="48.29072" lon="2.58743">
        <ele>115</ele>
        <time>2014-02-02T13:57:06Z</time>
      </trkpt>
      <trkpt lat="48.29071" lon="2.58742">
        <ele>115</ele>
        <time>2014-02-02T13:57:08Z</time>
      </trkpt>
      <trkpt lat="48.2906" lon="2.58741">
        <ele>115</ele>
        <time>2014-02-02T13:57:16Z</time>
      </trkpt>
      <trkpt lat="48.29056" lon="2.58735">
        <ele>115.40000152588</ele>
        <time>2014-02-02T13:57:21Z</time>
      </trkpt>
      <trkpt lat="48.29055" lon="2.58734">
        <ele>115.80000305176</ele>
        <time>2014-02-02T13:57:22Z</time>
      </trkpt>
      <trkpt lat="48.29055" lon="2.58733">
        <ele>116.19999694824</ele>
        <time>2014-02-02T13:57:23Z</time>
      </trkpt>
      <trkpt lat="48.29054" lon="2.58731">
        <ele>116.59999847412</ele>
        <time>2014-02-02T13:57:24Z</time>
      </trkpt>
      <trkpt lat="48.29053" lon="2.58731">
        <ele>117</ele>
        <time>2014-02-02T13:57:25Z</time>
      </trkpt>
      <trkpt lat="48.29045" lon="2.58728">
        <ele>117</ele>
        <time>2014-02-02T13:57:36Z</time>
      </trkpt>
      <trkpt lat="48.29043" lon="2.58727">
        <ele>117.40000152588</ele>
        <time>2014-02-02T13:57:39Z</time>
      </trkpt>
      <trkpt lat="48.29041" lon="2.58725">
        <ele>117.80000305176</ele>
        <time>2014-02-02T13:57:40Z</time>
      </trkpt>
      <trkpt lat="48.2904" lon="2.58725">
        <ele>118.19999694824</ele>
        <time>2014-02-02T13:57:41Z</time>
      </trkpt>
      <trkpt lat="48.29039" lon="2.58724">
        <ele>118.59999847412</ele>
        <time>2014-02-02T13:57:42Z</time>
      </trkpt>
      <trkpt lat="48.29038" lon="2.58723">
        <ele>119</ele>
        <time>2014-02-02T13:57:43Z</time>
      </trkpt>
      <trkpt lat="48.29034" lon="2.58721">
        <ele>119</ele>
        <time>2014-02-02T13:57:46Z</time>
      </trkpt>
      <trkpt lat="48.29025" lon="2.58716">
        <ele>119.40000152588</ele>
        <time>2014-02-02T13:57:54Z</time>
      </trkpt>
      <trkpt lat="48.29023" lon="2.58717">
        <ele>119.80000305176</ele>
        <time>2014-02-02T13:57:56Z</time>
      </trkpt>
      <trkpt lat="48.29021" lon="2.58718">
        <ele>120.19999694824</ele>
        <time>2014-02-02T13:57:57Z</time>
      </trkpt>
      <trkpt lat="48.29021" lon="2.58719">
        <ele>120.59999847412</ele>
        <time>2014-02-02T13:57:58Z</time>
      </trkpt>
      <trkpt lat="48.2902" lon="2.58719">
        <ele>121.19999694824</ele>
        <time>2014-02-02T13:57:59Z</time>
      </trkpt>
      <trkpt lat="48.2901" lon="2.58723">
        <ele>121.19999694824</ele>
        <time>2014-02-02T13:58:09Z</time>
      </trkpt>
      <trkpt lat="48.29009" lon="2.58725">
        <ele>121.59999847412</ele>
        <time>2014-02-02T13:58:15Z</time>
      </trkpt>
      <trkpt lat="48.29008" lon="2.58723">
        <ele>122</ele>
        <time>2014-02-02T13:58:16Z</time>
      </trkpt>
      <trkpt lat="48.29007" lon="2.58725">
        <ele>122.40000152588</ele>
        <time>2014-02-02T13:58:17Z</time>
      </trkpt>
      <trkpt lat="48.29006" lon="2.58727">
        <ele>122.80000305176</ele>
        <time>2014-02-02T13:58:18Z</time>
      </trkpt>
      <trkpt lat="48.29006" lon="2.58728">
        <ele>123.19999694824</ele>
        <time>2014-02-02T13:58:19Z</time>
      </trkpt>
      <trkpt lat="48.29001" lon="2.58745">
        <ele>123.19999694824</ele>
        <time>2014-02-02T13:58:25Z</time>
      </trkpt>
      <trkpt lat="48.28995" lon="2.5877">
        <ele>123.19999694824</ele>
        <time>2014-02-02T13:58:33Z</time>
      </trkpt>
      <trkpt lat="48.28986" lon="2.58794">
        <ele>123.19999694824</ele>
        <time>2014-02-02T13:58:42Z</time>
      </trkpt>
      <trkpt lat="48.2898" lon="2.5881">
        <ele>123.59999847412</ele>
        <time>2014-02-02T13:58:49Z</time>
      </trkpt>
      <trkpt lat="48.28979" lon="2.58812">
        <ele>124</ele>
        <time>2014-02-02T13:58:50Z</time>
      </trkpt>
      <trkpt lat="48.28979" lon="2.58815">
        <ele>124.40000152588</ele>
        <time>2014-02-02T13:58:51Z</time>
      </trkpt>
      <trkpt lat="48.28978" lon="2.58817">
        <ele>125</ele>
        <time>2014-02-02T13:58:52Z</time>
      </trkpt>
      <trkpt lat="48.28979" lon="2.5882">
        <ele>125.40000152588</ele>
        <time>2014-02-02T13:58:53Z</time>
      </trkpt>
      <trkpt lat="48.28991" lon="2.58833">
        <ele>125.40000152588</ele>
        <time>2014-02-02T13:58:59Z</time>
      </trkpt>
      <trkpt lat="48.29009" lon="2.58843">
        <ele>125.40000152588</ele>
        <time>2014-02-02T13:59:06Z</time>
      </trkpt>
      <trkpt lat="48.29015" lon="2.58845">
        <ele>125</ele>
        <time>2014-02-02T13:59:08Z</time>
      </trkpt>
      <trkpt lat="48.29019" lon="2.58847">
        <ele>124.59999847412</ele>
        <time>2014-02-02T13:59:09Z</time>
      </trkpt>
      <trkpt lat="48.29022" lon="2.58849">
        <ele>124</ele>
        <time>2014-02-02T13:59:10Z</time>
      </trkpt>
      <trkpt lat="48.29026" lon="2.58851">
        <ele>123.59999847412</ele>
        <time>2014-02-02T13:59:11Z</time>
      </trkpt>
      <trkpt lat="48.29029" lon="2.58854">
        <ele>123.19999694824</ele>
        <time>2014-02-02T13:59:12Z</time>
      </trkpt>
      <trkpt lat="48.29036" lon="2.58862">
        <ele>123.19999694824</ele>
        <time>2014-02-02T13:59:16Z</time>
      </trkpt>
      <trkpt lat="48.29041" lon="2.58867">
        <ele>122.80000305176</ele>
        <time>2014-02-02T13:59:19Z</time>
      </trkpt>
      <trkpt lat="48.29042" lon="2.58869">
        <ele>122.40000152588</ele>
        <time>2014-02-02T13:59:20Z</time>
      </trkpt>
      <trkpt lat="48.29043" lon="2.58871">
        <ele>122</ele>
        <time>2014-02-02T13:59:21Z</time>
      </trkpt>
      <trkpt lat="48.29046" lon="2.58873">
        <ele>121.59999847412</ele>
        <time>2014-02-02T13:59:22Z</time>
      </trkpt>
      <trkpt lat="48.29047" lon="2.58875">
        <ele>121.19999694824</ele>
        <time>2014-02-02T13:59:23Z</time>
      </trkpt>
      <trkpt lat="48.29057" lon="2.58875">
        <ele>120.59999847412</ele>
        <time>2014-02-02T13:59:29Z</time>
      </trkpt>
      <trkpt lat="48.29058" lon="2.58871">
        <ele>120</ele>
        <time>2014-02-02T13:59:30Z</time>
      </trkpt>
      <trkpt lat="48.29058" lon="2.58868">
        <ele>119.59999847412</ele>
        <time>2014-02-02T13:59:31Z</time>
      </trkpt>
      <trkpt lat="48.29058" lon="2.58861">
        <ele>119</ele>
        <time>2014-02-02T13:59:32Z</time>
      </trkpt>
      <trkpt lat="48.29059" lon="2.58857">
        <ele>118.59999847412</ele>
        <time>2014-02-02T13:59:33Z</time>
      </trkpt>
      <trkpt lat="48.29059" lon="2.58851">
        <ele>118.59999847412</ele>
        <time>2014-02-02T13:59:36Z</time>
      </trkpt>
      <trkpt lat="48.29062" lon="2.5885">
        <ele>118</ele>
        <time>2014-02-02T13:59:54Z</time>
      </trkpt>
      <trkpt lat="48.29064" lon="2.58851">
        <ele>117.59999847412</ele>
        <time>2014-02-02T13:59:55Z</time>
      </trkpt>
      <trkpt lat="48.29065" lon="2.58853">
        <ele>117.19999694824</ele>
        <time>2014-02-02T13:59:56Z</time>
      </trkpt>
      <trkpt lat="48.29069" lon="2.58856">
        <ele>116.40000152588</ele>
        <time>2014-02-02T13:59:57Z</time>
      </trkpt>
      <trkpt lat="48.2907" lon="2.58859">
        <ele>115.80000305176</ele>
        <time>2014-02-02T13:59:58Z</time>
      </trkpt>
      <trkpt lat="48.29072" lon="2.58861">
        <ele>115</ele>
        <time>2014-02-02T13:59:59Z</time>
      </trkpt>
      <trkpt lat="48.29073" lon="2.58864">
        <ele>114.19999694824</ele>
        <time>2014-02-02T14:00:00Z</time>
      </trkpt>
      <trkpt lat="48.29074" lon="2.58869">
        <ele>113.40000152588</ele>
        <time>2014-02-02T14:00:01Z</time>
      </trkpt>
      <trkpt lat="48.29077" lon="2.58872">
        <ele>112.59999847412</ele>
        <time>2014-02-02T14:00:02Z</time>
      </trkpt>
      <trkpt lat="48.2908" lon="2.58875">
        <ele>112</ele>
        <time>2014-02-02T14:00:03Z</time>
      </trkpt>
      <trkpt lat="48.29082" lon="2.58878">
        <ele>111.19999694824</ele>
        <time>2014-02-02T14:00:04Z</time>
      </trkpt>
      <trkpt lat="48.29084" lon="2.58881">
        <ele>110.40000152588</ele>
        <time>2014-02-02T14:00:05Z</time>
      </trkpt>
      <trkpt lat="48.29087" lon="2.58885">
        <ele>109.80000305176</ele>
        <time>2014-02-02T14:00:06Z</time>
      </trkpt>
      <trkpt lat="48.29088" lon="2.58888">
        <ele>109.19999694824</ele>
        <time>2014-02-02T14:00:07Z</time>
      </trkpt>
      <trkpt lat="48.29092" lon="2.5889">
        <ele>108.40000152588</ele>
        <time>2014-02-02T14:00:08Z</time>
      </trkpt>
      <trkpt lat="48.29094" lon="2.58891">
        <ele>107.80000305176</ele>
        <time>2014-02-02T14:00:09Z</time>
      </trkpt>
      <trkpt lat="48.29096" lon="2.58893">
        <ele>107</ele>
        <time>2014-02-02T14:00:10Z</time>
      </trkpt>
      <trkpt lat="48.29098" lon="2.58894">
        <ele>106.19999694824</ele>
        <time>2014-02-02T14:00:11Z</time>
      </trkpt>
      <trkpt lat="48.291" lon="2.58899">
        <ele>105.40000152588</ele>
        <time>2014-02-02T14:00:12Z</time>
      </trkpt>
      <trkpt lat="48.29116" lon="2.58917">
        <ele>103.19999694824</ele>
        <time>2014-02-02T14:00:18Z</time>
      </trkpt>
      <trkpt lat="48.29121" lon="2.58919">
        <ele>101.59999847412</ele>
        <time>2014-02-02T14:00:19Z</time>
      </trkpt>
      <trkpt lat="48.29126" lon="2.58921">
        <ele>99.800003051758</ele>
        <time>2014-02-02T14:00:20Z</time>
      </trkpt>
      <trkpt lat="48.29131" lon="2.58924">
        <ele>98.199996948242</ele>
        <time>2014-02-02T14:00:21Z</time>
      </trkpt>
      <trkpt lat="48.29136" lon="2.58927">
        <ele>96.400001525879</ele>
        <time>2014-02-02T14:00:22Z</time>
      </trkpt>
      <trkpt lat="48.2914" lon="2.58931">
        <ele>94.800003051758</ele>
        <time>2014-02-02T14:00:23Z</time>
      </trkpt>
      <trkpt lat="48.29145" lon="2.58935">
        <ele>93</ele>
        <time>2014-02-02T14:00:24Z</time>
      </trkpt>
      <trkpt lat="48.29147" lon="2.58939">
        <ele>92.599998474121</ele>
        <time>2014-02-02T14:00:25Z</time>
      </trkpt>
      <trkpt lat="48.29149" lon="2.58942">
        <ele>92</ele>
        <time>2014-02-02T14:00:26Z</time>
      </trkpt>
      <trkpt lat="48.29158" lon="2.58945">
        <ele>91.400001525879</ele>
        <time>2014-02-02T14:00:27Z</time>
      </trkpt>
      <trkpt lat="48.2916" lon="2.58947">
        <ele>91</ele>
        <time>2014-02-02T14:00:28Z</time>
      </trkpt>
      <trkpt lat="48.29158" lon="2.58948">
        <ele>90.400001525879</ele>
        <time>2014-02-02T14:00:29Z</time>
      </trkpt>
      <trkpt lat="48.29158" lon="2.5895">
        <ele>90.400001525879</ele>
        <time>2014-02-02T14:00:30Z</time>
      </trkpt>
      <trkpt lat="48.2915" lon="2.58955">
        <ele>90.400001525879</ele>
        <time>2014-02-02T14:00:36Z</time>
      </trkpt>
      <trkpt lat="48.29144" lon="2.58968">
        <ele>90.400001525879</ele>
        <time>2014-02-02T14:00:43Z</time>
      </trkpt>
      <trkpt lat="48.29143" lon="2.58973">
        <ele>90.800003051758</ele>
        <time>2014-02-02T14:00:46Z</time>
      </trkpt>
      <trkpt lat="48.29142" lon="2.58974">
        <ele>91.199996948242</ele>
        <time>2014-02-02T14:00:47Z</time>
      </trkpt>
      <trkpt lat="48.29142" lon="2.58975">
        <ele>91.599998474121</ele>
        <time>2014-02-02T14:00:48Z</time>
      </trkpt>
      <trkpt lat="48.29142" lon="2.58976">
        <ele>92</ele>
        <time>2014-02-02T14:00:49Z</time>
      </trkpt>
      <trkpt lat="48.29141" lon="2.58978">
        <ele>92.599998474121</ele>
        <time>2014-02-02T14:00:50Z</time>
      </trkpt>
      <trkpt lat="48.29136" lon="2.58988">
        <ele>93</ele>
        <time>2014-02-02T14:00:56Z</time>
      </trkpt>
      <trkpt lat="48.29135" lon="2.5899">
        <ele>93.400001525879</ele>
        <time>2014-02-02T14:00:57Z</time>
      </trkpt>
      <trkpt lat="48.29134" lon="2.58993">
        <ele>93.800003051758</ele>
        <time>2014-02-02T14:00:58Z</time>
      </trkpt>
      <trkpt lat="48.29134" lon="2.58996">
        <ele>94.199996948242</ele>
        <time>2014-02-02T14:00:59Z</time>
      </trkpt>
      <trkpt lat="48.29134" lon="2.59">
        <ele>94.599998474121</ele>
        <time>2014-02-02T14:01:00Z</time>
      </trkpt>
      <trkpt lat="48.29131" lon="2.59006">
        <ele>94.599998474121</ele>
        <time>2014-02-02T14:01:03Z</time>
      </trkpt>
      <trkpt lat="48.29125" lon="2.59016">
        <ele>95</ele>
        <time>2014-02-02T14:01:10Z</time>
      </trkpt>
      <trkpt lat="48.29124" lon="2.59017">
        <ele>95.400001525879</ele>
        <time>2014-02-02T14:01:11Z</time>
      </trkpt>
      <trkpt lat="48.29124" lon="2.59018">
        <ele>96</ele>
        <time>2014-02-02T14:01:12Z</time>
      </trkpt>
      <trkpt lat="48.29124" lon="2.59018">
        <ele>96.400001525879</ele>
        <time>2014-02-02T14:01:13Z</time>
      </trkpt>
      <trkpt lat="48.29124" lon="2.5902">
        <ele>96.800003051758</ele>
        <time>2014-02-02T14:01:14Z</time>
      </trkpt>
      <trkpt lat="48.29126" lon="2.59021">
        <ele>96.800003051758</ele>
        <time>2014-02-02T14:01:18Z</time>
      </trkpt>
      <trkpt lat="48.29129" lon="2.59016">
        <ele>97.199996948242</ele>
        <time>2014-02-02T14:01:23Z</time>
      </trkpt>
      <trkpt lat="48.2913" lon="2.59015">
        <ele>97.800003051758</ele>
        <time>2014-02-02T14:01:24Z</time>
      </trkpt>
      <trkpt lat="48.29131" lon="2.59014">
        <ele>98.199996948242</ele>
        <time>2014-02-02T14:01:25Z</time>
      </trkpt>
      <trkpt lat="48.29132" lon="2.59014">
        <ele>98.599998474121</ele>
        <time>2014-02-02T14:01:26Z</time>
      </trkpt>
      <trkpt lat="48.29133" lon="2.59014">
        <ele>99</ele>
        <time>2014-02-02T14:01:27Z</time>
      </trkpt>
      <trkpt lat="48.29138" lon="2.59015">
        <ele>99</ele>
        <time>2014-02-02T14:01:35Z</time>
      </trkpt>
      <trkpt lat="48.29139" lon="2.59016">
        <ele>99.400001525879</ele>
        <time>2014-02-02T14:01:37Z</time>
      </trkpt>
      <trkpt lat="48.29141" lon="2.59016">
        <ele>100.19999694824</ele>
        <time>2014-02-02T14:01:39Z</time>
      </trkpt>
      <trkpt lat="48.29142" lon="2.59016">
        <ele>100.59999847412</ele>
        <time>2014-02-02T14:01:40Z</time>
      </trkpt>
      <trkpt lat="48.29142" lon="2.59015">
        <ele>101</ele>
        <time>2014-02-02T14:01:41Z</time>
      </trkpt>
      <trkpt lat="48.29147" lon="2.59018">
        <ele>101</ele>
        <time>2014-02-02T14:01:47Z</time>
      </trkpt>
      <trkpt lat="48.29148" lon="2.59023">
        <ele>101</ele>
        <time>2014-02-02T14:01:58Z</time>
      </trkpt>
      <trkpt lat="48.29149" lon="2.59044">
        <ele>101</ele>
        <time>2014-02-02T14:02:08Z</time>
      </trkpt>
      <trkpt lat="48.29144" lon="2.59049">
        <ele>101.40000152588</ele>
        <time>2014-02-02T14:02:13Z</time>
      </trkpt>
      <trkpt lat="48.29144" lon="2.5905">
        <ele>102</ele>
        <time>2014-02-02T14:02:14Z</time>
      </trkpt>
      <trkpt lat="48.29143" lon="2.59052">
        <ele>102.40000152588</ele>
        <time>2014-02-02T14:02:15Z</time>
      </trkpt>
      <trkpt lat="48.29142" lon="2.59053">
        <ele>102.80000305176</ele>
        <time>2014-02-02T14:02:16Z</time>
      </trkpt>
      <trkpt lat="48.2914" lon="2.59054">
        <ele>103.19999694824</ele>
        <time>2014-02-02T14:02:17Z</time>
      </trkpt>
      <trkpt lat="48.29133" lon="2.59058">
        <ele>103.19999694824</ele>
        <time>2014-02-02T14:02:26Z</time>
      </trkpt>
      <trkpt lat="48.29129" lon="2.59058">
        <ele>103.59999847412</ele>
        <time>2014-02-02T14:02:31Z</time>
      </trkpt>
      <trkpt lat="48.29128" lon="2.59059">
        <ele>104</ele>
        <time>2014-02-02T14:02:32Z</time>
      </trkpt>
      <trkpt lat="48.29126" lon="2.5906">
        <ele>104.40000152588</ele>
        <time>2014-02-02T14:02:33Z</time>
      </trkpt>
      <trkpt lat="48.29126" lon="2.5906">
        <ele>104.80000305176</ele>
        <time>2014-02-02T14:02:34Z</time>
      </trkpt>
      <trkpt lat="48.29124" lon="2.59061">
        <ele>105.19999694824</ele>
        <time>2014-02-02T14:02:35Z</time>
      </trkpt>
      <trkpt lat="48.29122" lon="2.59064">
        <ele>105.59999847412</ele>
        <time>2014-02-02T14:02:39Z</time>
      </trkpt>
      <trkpt lat="48.29121" lon="2.59064">
        <ele>106</ele>
        <time>2014-02-02T14:02:40Z</time>
      </trkpt>
      <trkpt lat="48.29121" lon="2.59065">
        <ele>106.59999847412</ele>
        <time>2014-02-02T14:02:41Z</time>
      </trkpt>
      <trkpt lat="48.29119" lon="2.59067">
        <ele>107</ele>
        <time>2014-02-02T14:02:42Z</time>
      </trkpt>
      <trkpt lat="48.29119" lon="2.59067">
        <ele>107.40000152588</ele>
        <time>2014-02-02T14:02:43Z</time>
      </trkpt>
      <trkpt lat="48.29113" lon="2.59069">
        <ele>107.40000152588</ele>
        <time>2014-02-02T14:02:51Z</time>
      </trkpt>
      <trkpt lat="48.29112" lon="2.5907">
        <ele>107.80000305176</ele>
        <time>2014-02-02T14:02:52Z</time>
      </trkpt>
      <trkpt lat="48.29112" lon="2.5907">
        <ele>108.19999694824</ele>
        <time>2014-02-02T14:02:53Z</time>
      </trkpt>
      <trkpt lat="48.29111" lon="2.59071">
        <ele>108.59999847412</ele>
        <time>2014-02-02T14:02:54Z</time>
      </trkpt>
      <trkpt lat="48.29111" lon="2.59072">
        <ele>109</ele>
        <time>2014-02-02T14:02:55Z</time>
      </trkpt>
      <trkpt lat="48.29111" lon="2.59073">
        <ele>109.40000152588</ele>
        <time>2014-02-02T14:02:56Z</time>
      </trkpt>
      <trkpt lat="48.29109" lon="2.59076">
        <ele>109.40000152588</ele>
        <time>2014-02-02T14:03:00Z</time>
      </trkpt>
      <trkpt lat="48.29107" lon="2.5908">
        <ele>109.80000305176</ele>
        <time>2014-02-02T14:03:07Z</time>
      </trkpt>
      <trkpt lat="48.29107" lon="2.59081">
        <ele>110.40000152588</ele>
        <time>2014-02-02T14:03:08Z</time>
      </trkpt>
      <trkpt lat="48.29107" lon="2.59082">
        <ele>110.80000305176</ele>
        <time>2014-02-02T14:03:09Z</time>
      </trkpt>
      <trkpt lat="48.29106" lon="2.59082">
        <ele>111.19999694824</ele>
        <time>2014-02-02T14:03:10Z</time>
      </trkpt>
      <trkpt lat="48.29105" lon="2.59083">
        <ele>111.59999847412</ele>
        <time>2014-02-02T14:03:11Z</time>
      </trkpt>
      <trkpt lat="48.291" lon="2.59091">
        <ele>112.19999694824</ele>
        <time>2014-02-02T14:03:21Z</time>
      </trkpt>
      <trkpt lat="48.29099" lon="2.59092">
        <ele>112.59999847412</ele>
        <time>2014-02-02T14:03:22Z</time>
      </trkpt>
      <trkpt lat="48.29098" lon="2.59092">
        <ele>113</ele>
        <time>2014-02-02T14:03:23Z</time>
      </trkpt>
      <trkpt lat="48.29097" lon="2.59093">
        <ele>113.40000152588</ele>
        <time>2014-02-02T14:03:25Z</time>
      </trkpt>
      <trkpt lat="48.29097" lon="2.59094">
        <ele>114</ele>
        <time>2014-02-02T14:03:26Z</time>
      </trkpt>
      <trkpt lat="48.29095" lon="2.59095">
        <ele>114</ele>
        <time>2014-02-02T14:03:31Z</time>
      </trkpt>
      <trkpt lat="48.29094" lon="2.59092">
        <ele>114</ele>
        <time>2014-02-02T14:03:39Z</time>
      </trkpt>
      <trkpt lat="48.29094" lon="2.59088">
        <ele>114.40000152588</ele>
        <time>2014-02-02T14:03:44Z</time>
      </trkpt>
      <trkpt lat="48.29093" lon="2.59087">
        <ele>114.80000305176</ele>
        <time>2014-02-02T14:03:45Z</time>
      </trkpt>
      <trkpt lat="48.29092" lon="2.59087">
        <ele>115.19999694824</ele>
        <time>2014-02-02T14:03:46Z</time>
      </trkpt>
      <trkpt lat="48.29092" lon="2.59086">
        <ele>115.59999847412</ele>
        <time>2014-02-02T14:03:47Z</time>
      </trkpt>
      <trkpt lat="48.2909" lon="2.59086">
        <ele>116</ele>
        <time>2014-02-02T14:03:48Z</time>
      </trkpt>
      <trkpt lat="48.29085" lon="2.59082">
        <ele>116</ele>
        <time>2014-02-02T14:03:55Z</time>
      </trkpt>
      <trkpt lat="48.29085" lon="2.59082">
        <ele>116.40000152588</ele>
        <time>2014-02-02T14:03:56Z</time>
      </trkpt>
      <trkpt lat="48.29084" lon="2.59081">
        <ele>116.80000305176</ele>
        <time>2014-02-02T14:03:57Z</time>
      </trkpt>
      <trkpt lat="48.29083" lon="2.5908">
        <ele>117.19999694824</ele>
        <time>2014-02-02T14:03:58Z</time>
      </trkpt>
      <trkpt lat="48.29082" lon="2.5908">
        <ele>117.59999847412</ele>
        <time>2014-02-02T14:03:59Z</time>
      </trkpt>
      <trkpt lat="48.29082" lon="2.59079">
        <ele>118</ele>
        <time>2014-02-02T14:04:00Z</time>
      </trkpt>
      <trkpt lat="48.29078" lon="2.59079">
        <ele>118</ele>
        <time>2014-02-02T14:04:07Z</time>
      </trkpt>
      <trkpt lat="48.29075" lon="2.59076">
        <ele>118</ele>
        <time>2014-02-02T14:04:17Z</time>
      </trkpt>
      <trkpt lat="48.29073" lon="2.59074">
        <ele>118</ele>
        <time>2014-02-02T14:04:20Z</time>
      </trkpt>
      <trkpt lat="48.2907" lon="2.59071">
        <ele>118</ele>
        <time>2014-02-02T14:04:27Z</time>
      </trkpt>
      <trkpt lat="48.29064" lon="2.5907">
        <ele>118</ele>
        <time>2014-02-02T14:04:37Z</time>
      </trkpt>
      <trkpt lat="48.2906" lon="2.59066">
        <ele>118</ele>
        <time>2014-02-02T14:04:42Z</time>
      </trkpt>
      <trkpt lat="48.29053" lon="2.59061">
        <ele>118</ele>
        <time>2014-02-02T14:04:47Z</time>
      </trkpt>
      <trkpt lat="48.2905" lon="2.59061">
        <ele>118</ele>
        <time>2014-02-02T14:04:49Z</time>
      </trkpt>
      <trkpt lat="48.29044" lon="2.59065">
        <ele>118</ele>
        <time>2014-02-02T14:04:55Z</time>
      </trkpt>
      <trkpt lat="48.2904" lon="2.59068">
        <ele>118.40000152588</ele>
        <time>2014-02-02T14:04:59Z</time>
      </trkpt>
      <trkpt lat="48.2904" lon="2.59069">
        <ele>119</ele>
        <time>2014-02-02T14:05:00Z</time>
      </trkpt>
      <trkpt lat="48.29039" lon="2.5907">
        <ele>119.40000152588</ele>
        <time>2014-02-02T14:05:01Z</time>
      </trkpt>
      <trkpt lat="48.29039" lon="2.59071">
        <ele>119.80000305176</ele>
        <time>2014-02-02T14:05:02Z</time>
      </trkpt>
      <trkpt lat="48.29039" lon="2.59072">
        <ele>120.19999694824</ele>
        <time>2014-02-02T14:05:03Z</time>
      </trkpt>
      <trkpt lat="48.29038" lon="2.59085">
        <ele>120.19999694824</ele>
        <time>2014-02-02T14:05:12Z</time>
      </trkpt>
      <trkpt lat="48.29039" lon="2.59091">
        <ele>120.59999847412</ele>
        <time>2014-02-02T14:05:16Z</time>
      </trkpt>
      <trkpt lat="48.29039" lon="2.59094">
        <ele>121</ele>
        <time>2014-02-02T14:05:17Z</time>
      </trkpt>
      <trkpt lat="48.29039" lon="2.59095">
        <ele>121.59999847412</ele>
        <time>2014-02-02T14:05:18Z</time>
      </trkpt>
      <trkpt lat="48.29038" lon="2.59096">
        <ele>122</ele>
        <time>2014-02-02T14:05:19Z</time>
      </trkpt>
      <trkpt lat="48.29038" lon="2.59097">
        <ele>122.40000152588</ele>
        <time>2014-02-02T14:05:20Z</time>
      </trkpt>
      <trkpt lat="48.29037" lon="2.59098">
        <ele>122.40000152588</ele>
        <time>2014-02-02T14:05:21Z</time>
      </trkpt>
      <trkpt lat="48.29034" lon="2.59111">
        <ele>122.40000152588</ele>
        <time>2014-02-02T14:05:29Z</time>
      </trkpt>
      <trkpt lat="48.29033" lon="2.59116">
        <ele>122.80000305176</ele>
        <time>2014-02-02T14:05:32Z</time>
      </trkpt>
      <trkpt lat="48.29032" lon="2.59117">
        <ele>123.19999694824</ele>
        <time>2014-02-02T14:05:33Z</time>
      </trkpt>
      <trkpt lat="48.29031" lon="2.59118">
        <ele>123.59999847412</ele>
        <time>2014-02-02T14:05:34Z</time>
      </trkpt>
      <trkpt lat="48.2903" lon="2.59119">
        <ele>124</ele>
        <time>2014-02-02T14:05:35Z</time>
      </trkpt>
      <trkpt lat="48.29029" lon="2.5912">
        <ele>124.40000152588</ele>
        <time>2014-02-02T14:05:36Z</time>
      </trkpt>
      <trkpt lat="48.29029" lon="2.59121">
        <ele>124.40000152588</ele>
        <time>2014-02-02T14:05:37Z</time>
      </trkpt>
      <trkpt lat="48.29026" lon="2.59133">
        <ele>124.40000152588</ele>
        <time>2014-02-02T14:05:47Z</time>
      </trkpt>
      <trkpt lat="48.29028" lon="2.59151">
        <ele>124.40000152588</ele>
        <time>2014-02-02T14:05:54Z</time>
      </trkpt>
      <trkpt lat="48.29034" lon="2.59171">
        <ele>124.40000152588</ele>
        <time>2014-02-02T14:06:02Z</time>
      </trkpt>
      <trkpt lat="48.29029" lon="2.59194">
        <ele>124.40000152588</ele>
        <time>2014-02-02T14:06:11Z</time>
      </trkpt>
      <trkpt lat="48.29025" lon="2.5921">
        <ele>124.40000152588</ele>
        <time>2014-02-02T14:06:18Z</time>
      </trkpt>
      <trkpt lat="48.29028" lon="2.59237">
        <ele>124.40000152588</ele>
        <time>2014-02-02T14:06:26Z</time>
      </trkpt>
      <trkpt lat="48.29029" lon="2.59266">
        <ele>124.40000152588</ele>
        <time>2014-02-02T14:06:33Z</time>
      </trkpt>
      <trkpt lat="48.29028" lon="2.59292">
        <ele>124.40000152588</ele>
        <time>2014-02-02T14:06:40Z</time>
      </trkpt>
      <trkpt lat="48.2903" lon="2.59312">
        <ele>124.40000152588</ele>
        <time>2014-02-02T14:06:46Z</time>
      </trkpt>
      <trkpt lat="48.29035" lon="2.59329">
        <ele>124</ele>
        <time>2014-02-02T14:06:52Z</time>
      </trkpt>
      <trkpt lat="48.29037" lon="2.59329">
        <ele>123.40000152588</ele>
        <time>2014-02-02T14:06:53Z</time>
      </trkpt>
      <trkpt lat="48.29039" lon="2.59331">
        <ele>123</ele>
        <time>2014-02-02T14:06:54Z</time>
      </trkpt>
      <trkpt lat="48.2904" lon="2.59333">
        <ele>122.40000152588</ele>
        <time>2014-02-02T14:06:55Z</time>
      </trkpt>
      <trkpt lat="48.29042" lon="2.59335">
        <ele>121.59999847412</ele>
        <time>2014-02-02T14:06:56Z</time>
      </trkpt>
      <trkpt lat="48.29043" lon="2.59337">
        <ele>120.80000305176</ele>
        <time>2014-02-02T14:06:57Z</time>
      </trkpt>
      <trkpt lat="48.29046" lon="2.59341">
        <ele>120.19999694824</ele>
        <time>2014-02-02T14:06:58Z</time>
      </trkpt>
      <trkpt lat="48.29049" lon="2.59346">
        <ele>119.40000152588</ele>
        <time>2014-02-02T14:06:59Z</time>
      </trkpt>
      <trkpt lat="48.2905" lon="2.59351">
        <ele>118.80000305176</ele>
        <time>2014-02-02T14:07:00Z</time>
      </trkpt>
      <trkpt lat="48.29052" lon="2.59355">
        <ele>118</ele>
        <time>2014-02-02T14:07:01Z</time>
      </trkpt>
      <trkpt lat="48.29054" lon="2.5936">
        <ele>117.40000152588</ele>
        <time>2014-02-02T14:07:02Z</time>
      </trkpt>
      <trkpt lat="48.29056" lon="2.59365">
        <ele>116.80000305176</ele>
        <time>2014-02-02T14:07:03Z</time>
      </trkpt>
      <trkpt lat="48.29058" lon="2.5937">
        <ele>116.19999694824</ele>
        <time>2014-02-02T14:07:04Z</time>
      </trkpt>
      <trkpt lat="48.2906" lon="2.59374">
        <ele>115.59999847412</ele>
        <time>2014-02-02T14:07:05Z</time>
      </trkpt>
      <trkpt lat="48.29062" lon="2.5938">
        <ele>115</ele>
        <time>2014-02-02T14:07:06Z</time>
      </trkpt>
      <trkpt lat="48.29063" lon="2.59384">
        <ele>114.40000152588</ele>
        <time>2014-02-02T14:07:07Z</time>
      </trkpt>
      <trkpt lat="48.29064" lon="2.59388">
        <ele>113.80000305176</ele>
        <time>2014-02-02T14:07:08Z</time>
      </trkpt>
      <trkpt lat="48.29066" lon="2.59393">
        <ele>113.40000152588</ele>
        <time>2014-02-02T14:07:09Z</time>
      </trkpt>
      <trkpt lat="48.29066" lon="2.59396">
        <ele>112.80000305176</ele>
        <time>2014-02-02T14:07:10Z</time>
      </trkpt>
      <trkpt lat="48.29069" lon="2.59404">
        <ele>112.80000305176</ele>
        <time>2014-02-02T14:07:12Z</time>
      </trkpt>
      <trkpt lat="48.29073" lon="2.5943">
        <ele>112.80000305176</ele>
        <time>2014-02-02T14:07:18Z</time>
      </trkpt>
      <trkpt lat="48.29075" lon="2.59447">
        <ele>112.80000305176</ele>
        <time>2014-02-02T14:07:22Z</time>
      </trkpt>
      <trkpt lat="48.29076" lon="2.5946">
        <ele>113.19999694824</ele>
        <time>2014-02-02T14:07:25Z</time>
      </trkpt>
      <trkpt lat="48.29077" lon="2.59464">
        <ele>113.59999847412</ele>
        <time>2014-02-02T14:07:26Z</time>
      </trkpt>
      <trkpt lat="48.29078" lon="2.59466">
        <ele>114</ele>
        <time>2014-02-02T14:07:27Z</time>
      </trkpt>
      <trkpt lat="48.2908" lon="2.59469">
        <ele>114.59999847412</ele>
        <time>2014-02-02T14:07:28Z</time>
      </trkpt>
      <trkpt lat="48.29082" lon="2.59478">
        <ele>115</ele>
        <time>2014-02-02T14:07:29Z</time>
      </trkpt>
      <trkpt lat="48.29086" lon="2.595">
        <ele>115</ele>
        <time>2014-02-02T14:07:34Z</time>
      </trkpt>
      <trkpt lat="48.29092" lon="2.59506">
        <ele>115</ele>
        <time>2014-02-02T14:07:41Z</time>
      </trkpt>
      <trkpt lat="48.29092" lon="2.59507">
        <ele>115</ele>
        <time>2014-02-02T14:07:58Z</time>
      </trkpt>
      <trkpt lat="48.29092" lon="2.59507">
        <ele>114.59999847412</ele>
        <time>2014-02-02T14:08:02Z</time>
      </trkpt>
      <trkpt lat="48.29093" lon="2.59509">
        <ele>114.19999694824</ele>
        <time>2014-02-02T14:08:03Z</time>
      </trkpt>
      <trkpt lat="48.29093" lon="2.59511">
        <ele>113.80000305176</ele>
        <time>2014-02-02T14:08:04Z</time>
      </trkpt>
      <trkpt lat="48.29096" lon="2.59516">
        <ele>113</ele>
        <time>2014-02-02T14:08:05Z</time>
      </trkpt>
      <trkpt lat="48.29102" lon="2.59524">
        <ele>112.19999694824</ele>
        <time>2014-02-02T14:08:06Z</time>
      </trkpt>
      <trkpt lat="48.29104" lon="2.5953">
        <ele>111.40000152588</ele>
        <time>2014-02-02T14:08:07Z</time>
      </trkpt>
      <trkpt lat="48.29105" lon="2.59533">
        <ele>110.59999847412</ele>
        <time>2014-02-02T14:08:08Z</time>
      </trkpt>
      <trkpt lat="48.29107" lon="2.59537">
        <ele>109.80000305176</ele>
        <time>2014-02-02T14:08:09Z</time>
      </trkpt>
      <trkpt lat="48.29108" lon="2.59539">
        <ele>109.19999694824</ele>
        <time>2014-02-02T14:08:10Z</time>
      </trkpt>
      <trkpt lat="48.2911" lon="2.59543">
        <ele>108.40000152588</ele>
        <time>2014-02-02T14:08:11Z</time>
      </trkpt>
      <trkpt lat="48.29112" lon="2.59545">
        <ele>107.59999847412</ele>
        <time>2014-02-02T14:08:12Z</time>
      </trkpt>
      <trkpt lat="48.29113" lon="2.59549">
        <ele>106.59999847412</ele>
        <time>2014-02-02T14:08:13Z</time>
      </trkpt>
      <trkpt lat="48.29115" lon="2.59551">
        <ele>105.80000305176</ele>
        <time>2014-02-02T14:08:14Z</time>
      </trkpt>
      <trkpt lat="48.29116" lon="2.59553">
        <ele>104.80000305176</ele>
        <time>2014-02-02T14:08:15Z</time>
      </trkpt>
      <trkpt lat="48.29118" lon="2.59556">
        <ele>104</ele>
        <time>2014-02-02T14:08:16Z</time>
      </trkpt>
      <trkpt lat="48.29121" lon="2.59559">
        <ele>103.19999694824</ele>
        <time>2014-02-02T14:08:17Z</time>
      </trkpt>
      <trkpt lat="48.29124" lon="2.59562">
        <ele>102</ele>
        <time>2014-02-02T14:08:18Z</time>
      </trkpt>
      <trkpt lat="48.29126" lon="2.59564">
        <ele>100.80000305176</ele>
        <time>2014-02-02T14:08:19Z</time>
      </trkpt>
      <trkpt lat="48.29128" lon="2.59566">
        <ele>99.599998474121</ele>
        <time>2014-02-02T14:08:20Z</time>
      </trkpt>
      <trkpt lat="48.29128" lon="2.59566">
        <ele>98.400001525879</ele>
        <time>2014-02-02T14:08:21Z</time>
      </trkpt>
      <trkpt lat="48.29129" lon="2.59565">
        <ele>97.199996948242</ele>
        <time>2014-02-02T14:08:22Z</time>
      </trkpt>
      <trkpt lat="48.2913" lon="2.59565">
        <ele>96</ele>
        <time>2014-02-02T14:08:23Z</time>
      </trkpt>
      <trkpt lat="48.29132" lon="2.59566">
        <ele>94.800003051758</ele>
        <time>2014-02-02T14:08:24Z</time>
      </trkpt>
      <trkpt lat="48.29134" lon="2.59568">
        <ele>94.400001525879</ele>
        <time>2014-02-02T14:08:26Z</time>
      </trkpt>
      <trkpt lat="48.29135" lon="2.5957">
        <ele>94</ele>
        <time>2014-02-02T14:08:27Z</time>
      </trkpt>
      <trkpt lat="48.29135" lon="2.59572">
        <ele>93.400001525879</ele>
        <time>2014-02-02T14:08:28Z</time>
      </trkpt>
      <trkpt lat="48.29135" lon="2.59576">
        <ele>93</ele>
        <time>2014-02-02T14:08:29Z</time>
      </trkpt>
      <trkpt lat="48.29137" lon="2.59578">
        <ele>92.199996948242</ele>
        <time>2014-02-02T14:08:30Z</time>
      </trkpt>
      <trkpt lat="48.29138" lon="2.5958">
        <ele>91.599998474121</ele>
        <time>2014-02-02T14:08:31Z</time>
      </trkpt>
      <trkpt lat="48.2914" lon="2.59582">
        <ele>90.800003051758</ele>
        <time>2014-02-02T14:08:32Z</time>
      </trkpt>
      <trkpt lat="48.29142" lon="2.59585">
        <ele>90.199996948242</ele>
        <time>2014-02-02T14:08:33Z</time>
      </trkpt>
      <trkpt lat="48.29143" lon="2.5959">
        <ele>89.400001525879</ele>
        <time>2014-02-02T14:08:34Z</time>
      </trkpt>
      <trkpt lat="48.29143" lon="2.59595">
        <ele>88.800003051758</ele>
        <time>2014-02-02T14:08:35Z</time>
      </trkpt>
      <trkpt lat="48.29144" lon="2.59601">
        <ele>88.199996948242</ele>
        <time>2014-02-02T14:08:36Z</time>
      </trkpt>
      <trkpt lat="48.29144" lon="2.59605">
        <ele>87.599998474121</ele>
        <time>2014-02-02T14:08:37Z</time>
      </trkpt>
      <trkpt lat="48.29144" lon="2.5961">
        <ele>87</ele>
        <time>2014-02-02T14:08:38Z</time>
      </trkpt>
      <trkpt lat="48.29143" lon="2.59615">
        <ele>86.400001525879</ele>
        <time>2014-02-02T14:08:40Z</time>
      </trkpt>
      <trkpt lat="48.29142" lon="2.59617">
        <ele>86</ele>
        <time>2014-02-02T14:08:41Z</time>
      </trkpt>
      <trkpt lat="48.29141" lon="2.59619">
        <ele>85.599998474121</ele>
        <time>2014-02-02T14:08:42Z</time>
      </trkpt>
      <trkpt lat="48.2914" lon="2.59621">
        <ele>85.199996948242</ele>
        <time>2014-02-02T14:08:43Z</time>
      </trkpt>
      <trkpt lat="48.2914" lon="2.59624">
        <ele>84.599998474121</ele>
        <time>2014-02-02T14:08:44Z</time>
      </trkpt>
      <trkpt lat="48.29133" lon="2.59637">
        <ele>84.599998474121</ele>
        <time>2014-02-02T14:08:49Z</time>
      </trkpt>
      <trkpt lat="48.29122" lon="2.59655">
        <ele>84.599998474121</ele>
        <time>2014-02-02T14:08:56Z</time>
      </trkpt>
      <trkpt lat="48.2911" lon="2.59665">
        <ele>84.599998474121</ele>
        <time>2014-02-02T14:09:03Z</time>
      </trkpt>
      <trkpt lat="48.29099" lon="2.59671">
        <ele>84.599998474121</ele>
        <time>2014-02-02T14:09:08Z</time>
      </trkpt>
      <trkpt lat="48.29085" lon="2.59675">
        <ele>84.599998474121</ele>
        <time>2014-02-02T14:09:13Z</time>
      </trkpt>
      <trkpt lat="48.29082" lon="2.59674">
        <ele>84.199996948242</ele>
        <time>2014-02-02T14:09:14Z</time>
      </trkpt>
      <trkpt lat="48.29081" lon="2.59674">
        <ele>83.800003051758</ele>
        <time>2014-02-02T14:09:15Z</time>
      </trkpt>
      <trkpt lat="48.29078" lon="2.59674">
        <ele>83.400001525879</ele>
        <time>2014-02-02T14:09:16Z</time>
      </trkpt>
      <trkpt lat="48.29076" lon="2.59674">
        <ele>83</ele>
        <time>2014-02-02T14:09:17Z</time>
      </trkpt>
      <trkpt lat="48.29074" lon="2.59675">
        <ele>82.599998474121</ele>
        <time>2014-02-02T14:09:18Z</time>
      </trkpt>
      <trkpt lat="48.29066" lon="2.59675">
        <ele>82.599998474121</ele>
        <time>2014-02-02T14:09:24Z</time>
      </trkpt>
      <trkpt lat="48.29059" lon="2.59675">
        <ele>83</ele>
        <time>2014-02-02T14:09:29Z</time>
      </trkpt>
      <trkpt lat="48.29058" lon="2.59675">
        <ele>83.400001525879</ele>
        <time>2014-02-02T14:09:30Z</time>
      </trkpt>
      <trkpt lat="48.29057" lon="2.59675">
        <ele>83.800003051758</ele>
        <time>2014-02-02T14:09:31Z</time>
      </trkpt>
      <trkpt lat="48.29057" lon="2.59675">
        <ele>84.199996948242</ele>
        <time>2014-02-02T14:09:32Z</time>
      </trkpt>
      <trkpt lat="48.29056" lon="2.59674">
        <ele>84.800003051758</ele>
        <time>2014-02-02T14:09:33Z</time>
      </trkpt>
      <trkpt lat="48.29052" lon="2.59672">
        <ele>85.199996948242</ele>
        <time>2014-02-02T14:09:41Z</time>
      </trkpt>
      <trkpt lat="48.29052" lon="2.59671">
        <ele>85.599998474121</ele>
        <time>2014-02-02T14:09:42Z</time>
      </trkpt>
      <trkpt lat="48.29052" lon="2.59671">
        <ele>86</ele>
        <time>2014-02-02T14:09:43Z</time>
      </trkpt>
      <trkpt lat="48.29051" lon="2.5967">
        <ele>86.599998474121</ele>
        <time>2014-02-02T14:09:44Z</time>
      </trkpt>
      <trkpt lat="48.2905" lon="2.5967">
        <ele>87</ele>
        <time>2014-02-02T14:09:45Z</time>
      </trkpt>
      <trkpt lat="48.29047" lon="2.5967">
        <ele>87</ele>
        <time>2014-02-02T14:09:51Z</time>
      </trkpt>
      <trkpt lat="48.29044" lon="2.59667">
        <ele>87.400001525879</ele>
        <time>2014-02-02T14:09:55Z</time>
      </trkpt>
      <trkpt lat="48.29044" lon="2.59667">
        <ele>87.800003051758</ele>
        <time>2014-02-02T14:09:56Z</time>
      </trkpt>
      <trkpt lat="48.29043" lon="2.59667">
        <ele>88.199996948242</ele>
        <time>2014-02-02T14:09:57Z</time>
      </trkpt>
      <trkpt lat="48.29042" lon="2.59667">
        <ele>88.599998474121</ele>
        <time>2014-02-02T14:09:58Z</time>
      </trkpt>
      <trkpt lat="48.29041" lon="2.59667">
        <ele>89</ele>
        <time>2014-02-02T14:09:59Z</time>
      </trkpt>
      <trkpt lat="48.29035" lon="2.59663">
        <ele>89.400001525879</ele>
        <time>2014-02-02T14:10:08Z</time>
      </trkpt>
      <trkpt lat="48.29034" lon="2.59663">
        <ele>89.800003051758</ele>
        <time>2014-02-02T14:10:09Z</time>
      </trkpt>
      <trkpt lat="48.29033" lon="2.59664">
        <ele>90.199996948242</ele>
        <time>2014-02-02T14:10:10Z</time>
      </trkpt>
      <trkpt lat="48.29033" lon="2.59665">
        <ele>90.800003051758</ele>
        <time>2014-02-02T14:10:11Z</time>
      </trkpt>
      <trkpt lat="48.29032" lon="2.59665">
        <ele>91.199996948242</ele>
        <time>2014-02-02T14:10:12Z</time>
      </trkpt>
      <trkpt lat="48.29029" lon="2.59659">
        <ele>91.599998474121</ele>
        <time>2014-02-02T14:10:19Z</time>
      </trkpt>
      <trkpt lat="48.29028" lon="2.59658">
        <ele>92</ele>
        <time>2014-02-02T14:10:20Z</time>
      </trkpt>
      <trkpt lat="48.29028" lon="2.59658">
        <ele>92.400001525879</ele>
        <time>2014-02-02T14:10:21Z</time>
      </trkpt>
      <trkpt lat="48.29027" lon="2.59657">
        <ele>92.800003051758</ele>
        <time>2014-02-02T14:10:22Z</time>
      </trkpt>
      <trkpt lat="48.29026" lon="2.59657">
        <ele>93.199996948242</ele>
        <time>2014-02-02T14:10:23Z</time>
      </trkpt>
      <trkpt lat="48.29016" lon="2.59651">
        <ele>93.199996948242</ele>
        <time>2014-02-02T14:10:36Z</time>
      </trkpt>
      <trkpt lat="48.29014" lon="2.59651">
        <ele>93.599998474121</ele>
        <time>2014-02-02T14:10:39Z</time>
      </trkpt>
      <trkpt lat="48.29013" lon="2.5965">
        <ele>94.199996948242</ele>
        <time>2014-02-02T14:10:40Z</time>
      </trkpt>
      <trkpt lat="48.29012" lon="2.5965">
        <ele>94.599998474121</ele>
        <time>2014-02-02T14:10:41Z</time>
      </trkpt>
      <trkpt lat="48.29011" lon="2.5965">
        <ele>95</ele>
        <time>2014-02-02T14:10:42Z</time>
      </trkpt>
      <trkpt lat="48.2901" lon="2.5965">
        <ele>95.400001525879</ele>
        <time>2014-02-02T14:10:43Z</time>
      </trkpt>
      <trkpt lat="48.29008" lon="2.59649">
        <ele>95.400001525879</ele>
        <time>2014-02-02T14:10:49Z</time>
      </trkpt>
      <trkpt lat="48.28998" lon="2.59643">
        <ele>95.400001525879</ele>
        <time>2014-02-02T14:10:55Z</time>
      </trkpt>
      <trkpt lat="48.28987" lon="2.59632">
        <ele>95</ele>
        <time>2014-02-02T14:11:01Z</time>
      </trkpt>
      <trkpt lat="48.28984" lon="2.59629">
        <ele>94.599998474121</ele>
        <time>2014-02-02T14:11:02Z</time>
      </trkpt>
      <trkpt lat="48.28983" lon="2.59627">
        <ele>94.199996948242</ele>
        <time>2014-02-02T14:11:03Z</time>
      </trkpt>
      <trkpt lat="48.28982" lon="2.59625">
        <ele>93.800003051758</ele>
        <time>2014-02-02T14:11:04Z</time>
      </trkpt>
      <trkpt lat="48.28981" lon="2.59624">
        <ele>93.199996948242</ele>
        <time>2014-02-02T14:11:05Z</time>
      </trkpt>
      <trkpt lat="48.2898" lon="2.59623">
        <ele>93.199996948242</ele>
        <time>2014-02-02T14:11:06Z</time>
      </trkpt>
      <trkpt lat="48.28972" lon="2.59621">
        <ele>93.199996948242</ele>
        <time>2014-02-02T14:11:13Z</time>
      </trkpt>
      <trkpt lat="48.28967" lon="2.59621">
        <ele>93.199996948242</ele>
        <time>2014-02-02T14:11:37Z</time>
      </trkpt>
      <trkpt lat="48.28966" lon="2.59618">
        <ele>93.800003051758</ele>
        <time>2014-02-02T14:11:40Z</time>
      </trkpt>
      <trkpt lat="48.28965" lon="2.59617">
        <ele>94.199996948242</ele>
        <time>2014-02-02T14:11:41Z</time>
      </trkpt>
      <trkpt lat="48.28965" lon="2.59615">
        <ele>94.599998474121</ele>
        <time>2014-02-02T14:11:43Z</time>
      </trkpt>
      <trkpt lat="48.28965" lon="2.59614">
        <ele>95</ele>
        <time>2014-02-02T14:11:44Z</time>
      </trkpt>
      <trkpt lat="48.28965" lon="2.59613">
        <ele>95.599998474121</ele>
        <time>2014-02-02T14:11:45Z</time>
      </trkpt>
      <trkpt lat="48.28963" lon="2.59609">
        <ele>95.599998474121</ele>
        <time>2014-02-02T14:11:52Z</time>
      </trkpt>
      <trkpt lat="48.2896" lon="2.59596">
        <ele>95.599998474121</ele>
        <time>2014-02-02T14:12:03Z</time>
      </trkpt>
      <trkpt lat="48.28957" lon="2.59581">
        <ele>95.599998474121</ele>
        <time>2014-02-02T14:12:14Z</time>
      </trkpt>
      <trkpt lat="48.28949" lon="2.5957">
        <ele>95.599998474121</ele>
        <time>2014-02-02T14:12:23Z</time>
      </trkpt>
      <trkpt lat="48.28947" lon="2.59561">
        <ele>95.599998474121</ele>
        <time>2014-02-02T14:12:30Z</time>
      </trkpt>
      <trkpt lat="48.28947" lon="2.5956">
        <ele>96</ele>
        <time>2014-02-02T14:12:31Z</time>
      </trkpt>
      <trkpt lat="48.28947" lon="2.5956">
        <ele>96.400001525879</ele>
        <time>2014-02-02T14:12:32Z</time>
      </trkpt>
      <trkpt lat="48.28947" lon="2.59558">
        <ele>96.800003051758</ele>
        <time>2014-02-02T14:12:33Z</time>
      </trkpt>
      <trkpt lat="48.28947" lon="2.59556">
        <ele>97.199996948242</ele>
        <time>2014-02-02T14:12:34Z</time>
      </trkpt>
      <trkpt lat="48.28948" lon="2.59555">
        <ele>97.599998474121</ele>
        <time>2014-02-02T14:12:35Z</time>
      </trkpt>
      <trkpt lat="48.2895" lon="2.59554">
        <ele>98</ele>
        <time>2014-02-02T14:12:38Z</time>
      </trkpt>
      <trkpt lat="48.28951" lon="2.59554">
        <ele>98.400001525879</ele>
        <time>2014-02-02T14:12:39Z</time>
      </trkpt>
      <trkpt lat="48.28952" lon="2.59553">
        <ele>98.800003051758</ele>
        <time>2014-02-02T14:12:40Z</time>
      </trkpt>
      <trkpt lat="48.28952" lon="2.59552">
        <ele>99.199996948242</ele>
        <time>2014-02-02T14:12:41Z</time>
      </trkpt>
      <trkpt lat="48.28953" lon="2.59552">
        <ele>99.599998474121</ele>
        <time>2014-02-02T14:12:42Z</time>
      </trkpt>
      <trkpt lat="48.28958" lon="2.5955">
        <ele>99.599998474121</ele>
        <time>2014-02-02T14:12:50Z</time>
      </trkpt>
      <trkpt lat="48.28959" lon="2.59549">
        <ele>100.19999694824</ele>
        <time>2014-02-02T14:12:52Z</time>
      </trkpt>
      <trkpt lat="48.2896" lon="2.59549">
        <ele>100.59999847412</ele>
        <time>2014-02-02T14:12:53Z</time>
      </trkpt>
      <trkpt lat="48.2896" lon="2.59549">
        <ele>101</ele>
        <time>2014-02-02T14:12:54Z</time>
      </trkpt>
      <trkpt lat="48.28961" lon="2.59549">
        <ele>101.40000152588</ele>
        <time>2014-02-02T14:12:55Z</time>
      </trkpt>
      <trkpt lat="48.28962" lon="2.59549">
        <ele>101.80000305176</ele>
        <time>2014-02-02T14:12:56Z</time>
      </trkpt>
      <trkpt lat="48.28966" lon="2.59547">
        <ele>101.80000305176</ele>
        <time>2014-02-02T14:13:02Z</time>
      </trkpt>
      <trkpt lat="48.28968" lon="2.59543">
        <ele>101.80000305176</ele>
        <time>2014-02-02T14:13:11Z</time>
      </trkpt>
      <trkpt lat="48.28975" lon="2.59527">
        <ele>101.80000305176</ele>
        <time>2014-02-02T14:13:18Z</time>
      </trkpt>
      <trkpt lat="48.28976" lon="2.59514">
        <ele>102.19999694824</ele>
        <time>2014-02-02T14:13:24Z</time>
      </trkpt>
      <trkpt lat="48.28977" lon="2.59511">
        <ele>102.59999847412</ele>
        <time>2014-02-02T14:13:25Z</time>
      </trkpt>
      <trkpt lat="48.28978" lon="2.59509">
        <ele>103</ele>
        <time>2014-02-02T14:13:26Z</time>
      </trkpt>
      <trkpt lat="48.28978" lon="2.59507">
        <ele>103.40000152588</ele>
        <time>2014-02-02T14:13:27Z</time>
      </trkpt>
      <trkpt lat="48.28979" lon="2.59505">
        <ele>103.80000305176</ele>
        <time>2014-02-02T14:13:28Z</time>
      </trkpt>
      <trkpt lat="48.28983" lon="2.59499">
        <ele>103.80000305176</ele>
        <time>2014-02-02T14:13:33Z</time>
      </trkpt>
      <trkpt lat="48.28988" lon="2.59494">
        <ele>104.19999694824</ele>
        <time>2014-02-02T14:13:39Z</time>
      </trkpt>
      <trkpt lat="48.28988" lon="2.59493">
        <ele>104.80000305176</ele>
        <time>2014-02-02T14:13:40Z</time>
      </trkpt>
      <trkpt lat="48.28989" lon="2.59493">
        <ele>105.19999694824</ele>
        <time>2014-02-02T14:13:41Z</time>
      </trkpt>
      <trkpt lat="48.2899" lon="2.59492">
        <ele>105.59999847412</ele>
        <time>2014-02-02T14:13:42Z</time>
      </trkpt>
      <trkpt lat="48.28991" lon="2.59491">
        <ele>106</ele>
        <time>2014-02-02T14:13:43Z</time>
      </trkpt>
      <trkpt lat="48.28995" lon="2.59476">
        <ele>106</ele>
        <time>2014-02-02T14:13:54Z</time>
      </trkpt>
      <trkpt lat="48.28995" lon="2.59475">
        <ele>106.40000152588</ele>
        <time>2014-02-02T14:13:55Z</time>
      </trkpt>
      <trkpt lat="48.28996" lon="2.59473">
        <ele>106.80000305176</ele>
        <time>2014-02-02T14:13:56Z</time>
      </trkpt>
      <trkpt lat="48.28996" lon="2.59472">
        <ele>107.19999694824</ele>
        <time>2014-02-02T14:13:57Z</time>
      </trkpt>
      <trkpt lat="48.28996" lon="2.5947">
        <ele>107.59999847412</ele>
        <time>2014-02-02T14:13:58Z</time>
      </trkpt>
      <trkpt lat="48.28996" lon="2.59469">
        <ele>108</ele>
        <time>2014-02-02T14:13:59Z</time>
      </trkpt>
      <trkpt lat="48.28995" lon="2.59465">
        <ele>108</ele>
        <time>2014-02-02T14:14:03Z</time>
      </trkpt>
      <trkpt lat="48.28992" lon="2.59446">
        <ele>108</ele>
        <time>2014-02-02T14:14:12Z</time>
      </trkpt>
      <trkpt lat="48.28986" lon="2.59438">
        <ele>108</ele>
        <time>2014-02-02T14:14:19Z</time>
      </trkpt>
      <trkpt lat="48.28986" lon="2.5943">
        <ele>108.40000152588</ele>
        <time>2014-02-02T14:14:25Z</time>
      </trkpt>
      <trkpt lat="48.28986" lon="2.59428">
        <ele>109</ele>
        <time>2014-02-02T14:14:26Z</time>
      </trkpt>
      <trkpt lat="48.28985" lon="2.59427">
        <ele>109.40000152588</ele>
        <time>2014-02-02T14:14:27Z</time>
      </trkpt>
      <trkpt lat="48.28985" lon="2.59426">
        <ele>109.80000305176</ele>
        <time>2014-02-02T14:14:28Z</time>
      </trkpt>
      <trkpt lat="48.28985" lon="2.59425">
        <ele>110.19999694824</ele>
        <time>2014-02-02T14:14:29Z</time>
      </trkpt>
      <trkpt lat="48.28984" lon="2.59423">
        <ele>110.19999694824</ele>
        <time>2014-02-02T14:14:30Z</time>
      </trkpt>
      <trkpt lat="48.28982" lon="2.59409">
        <ele>110.19999694824</ele>
        <time>2014-02-02T14:14:42Z</time>
      </trkpt>
      <trkpt lat="48.28982" lon="2.59401">
        <ele>110.59999847412</ele>
        <time>2014-02-02T14:14:48Z</time>
      </trkpt>
      <trkpt lat="48.28983" lon="2.594">
        <ele>111</ele>
        <time>2014-02-02T14:14:49Z</time>
      </trkpt>
      <trkpt lat="48.28983" lon="2.59398">
        <ele>111.59999847412</ele>
        <time>2014-02-02T14:14:50Z</time>
      </trkpt>
      <trkpt lat="48.28983" lon="2.59397">
        <ele>112</ele>
        <time>2014-02-02T14:14:51Z</time>
      </trkpt>
      <trkpt lat="48.28983" lon="2.59396">
        <ele>112.40000152588</ele>
        <time>2014-02-02T14:14:52Z</time>
      </trkpt>
      <trkpt lat="48.28983" lon="2.59387">
        <ele>112.40000152588</ele>
        <time>2014-02-02T14:15:00Z</time>
      </trkpt>
      <trkpt lat="48.28983" lon="2.59385">
        <ele>112.80000305176</ele>
        <time>2014-02-02T14:15:02Z</time>
      </trkpt>
      <trkpt lat="48.28983" lon="2.59385">
        <ele>113.19999694824</ele>
        <time>2014-02-02T14:15:03Z</time>
      </trkpt>
      <trkpt lat="48.28983" lon="2.59384">
        <ele>113.59999847412</ele>
        <time>2014-02-02T14:15:04Z</time>
      </trkpt>
      <trkpt lat="48.28984" lon="2.59383">
        <ele>114</ele>
        <time>2014-02-02T14:15:05Z</time>
      </trkpt>
      <trkpt lat="48.28984" lon="2.59381">
        <ele>114.40000152588</ele>
        <time>2014-02-02T14:15:06Z</time>
      </trkpt>
      <trkpt lat="48.28985" lon="2.59379">
        <ele>114.40000152588</ele>
        <time>2014-02-02T14:15:08Z</time>
      </trkpt>
      <trkpt lat="48.28989" lon="2.59371">
        <ele>114.80000305176</ele>
        <time>2014-02-02T14:15:17Z</time>
      </trkpt>
      <trkpt lat="48.28989" lon="2.5937">
        <ele>115.19999694824</ele>
        <time>2014-02-02T14:15:18Z</time>
      </trkpt>
      <trkpt lat="48.2899" lon="2.59369">
        <ele>115.59999847412</ele>
        <time>2014-02-02T14:15:19Z</time>
      </trkpt>
      <trkpt lat="48.2899" lon="2.59368">
        <ele>116</ele>
        <time>2014-02-02T14:15:20Z</time>
      </trkpt>
      <trkpt lat="48.28991" lon="2.59367">
        <ele>116.40000152588</ele>
        <time>2014-02-02T14:15:21Z</time>
      </trkpt>
      <trkpt lat="48.28993" lon="2.59362">
        <ele>116.80000305176</ele>
        <time>2014-02-02T14:15:27Z</time>
      </trkpt>
      <trkpt lat="48.28993" lon="2.59362">
        <ele>117.19999694824</ele>
        <time>2014-02-02T14:15:28Z</time>
      </trkpt>
      <trkpt lat="48.28993" lon="2.5936">
        <ele>117.80000305176</ele>
        <time>2014-02-02T14:15:29Z</time>
      </trkpt>
      <trkpt lat="48.28993" lon="2.59358">
        <ele>118.19999694824</ele>
        <time>2014-02-02T14:15:30Z</time>
      </trkpt>
      <trkpt lat="48.28993" lon="2.59357">
        <ele>118.59999847412</ele>
        <time>2014-02-02T14:15:31Z</time>
      </trkpt>
      <trkpt lat="48.28994" lon="2.59343">
        <ele>119</ele>
        <time>2014-02-02T14:15:41Z</time>
      </trkpt>
      <trkpt lat="48.28995" lon="2.59341">
        <ele>119.40000152588</ele>
        <time>2014-02-02T14:15:42Z</time>
      </trkpt>
      <trkpt lat="48.28995" lon="2.5934">
        <ele>119.80000305176</ele>
        <time>2014-02-02T14:15:43Z</time>
      </trkpt>
      <trkpt lat="48.28996" lon="2.59339">
        <ele>120.19999694824</ele>
        <time>2014-02-02T14:15:44Z</time>
      </trkpt>
      <trkpt lat="48.28996" lon="2.59338">
        <ele>120.59999847412</ele>
        <time>2014-02-02T14:15:45Z</time>
      </trkpt>
      <trkpt lat="48.28996" lon="2.5933">
        <ele>120.59999847412</ele>
        <time>2014-02-02T14:15:53Z</time>
      </trkpt>
      <trkpt lat="48.28994" lon="2.59325">
        <ele>120.59999847412</ele>
        <time>2014-02-02T14:15:59Z</time>
      </trkpt>
      <trkpt lat="48.28992" lon="2.5932">
        <ele>120.59999847412</ele>
        <time>2014-02-02T14:16:02Z</time>
      </trkpt>
      <trkpt lat="48.28992" lon="2.59314">
        <ele>120.59999847412</ele>
        <time>2014-02-02T14:16:05Z</time>
      </trkpt>
      <trkpt lat="48.2899" lon="2.59302">
        <ele>120.59999847412</ele>
        <time>2014-02-02T14:16:09Z</time>
      </trkpt>
      <trkpt lat="48.28986" lon="2.59287">
        <ele>120.59999847412</ele>
        <time>2014-02-02T14:16:15Z</time>
      </trkpt>
      <trkpt lat="48.28978" lon="2.59269">
        <ele>120.59999847412</ele>
        <time>2014-02-02T14:16:21Z</time>
      </trkpt>
      <trkpt lat="48.28963" lon="2.59264">
        <ele>120.59999847412</ele>
        <time>2014-02-02T14:16:28Z</time>
      </trkpt>
      <trkpt lat="48.28962" lon="2.59267">
        <ele>120.59999847412</ele>
        <time>2014-02-02T14:16:29Z</time>
      </trkpt>
      <trkpt lat="48.28962" lon="2.59274">
        <ele>120.59999847412</ele>
        <time>2014-02-02T14:16:31Z</time>
      </trkpt>
      <trkpt lat="48.28959" lon="2.59293">
        <ele>120.19999694824</ele>
        <time>2014-02-02T14:16:36Z</time>
      </trkpt>
      <trkpt lat="48.28957" lon="2.59296">
        <ele>119.80000305176</ele>
        <time>2014-02-02T14:16:37Z</time>
      </trkpt>
      <trkpt lat="48.28956" lon="2.593">
        <ele>119.19999694824</ele>
        <time>2014-02-02T14:16:38Z</time>
      </trkpt>
      <trkpt lat="48.28954" lon="2.59302">
        <ele>118.80000305176</ele>
        <time>2014-02-02T14:16:39Z</time>
      </trkpt>
      <trkpt lat="48.28951" lon="2.59306">
        <ele>118.19999694824</ele>
        <time>2014-02-02T14:16:40Z</time>
      </trkpt>
      <trkpt lat="48.28948" lon="2.59308">
        <ele>117.80000305176</ele>
        <time>2014-02-02T14:16:41Z</time>
      </trkpt>
      <trkpt lat="48.28943" lon="2.5931">
        <ele>117.19999694824</ele>
        <time>2014-02-02T14:16:42Z</time>
      </trkpt>
      <trkpt lat="48.28939" lon="2.59311">
        <ele>116.59999847412</ele>
        <time>2014-02-02T14:16:43Z</time>
      </trkpt>
      <trkpt lat="48.28934" lon="2.59311">
        <ele>116</ele>
        <time>2014-02-02T14:16:44Z</time>
      </trkpt>
      <trkpt lat="48.28928" lon="2.59307">
        <ele>116</ele>
        <time>2014-02-02T14:16:46Z</time>
      </trkpt>
      <trkpt lat="48.28913" lon="2.59295">
        <ele>116</ele>
        <time>2014-02-02T14:16:52Z</time>
      </trkpt>
      <trkpt lat="48.2891" lon="2.59285">
        <ele>116</ele>
        <time>2014-02-02T14:16:55Z</time>
      </trkpt>
      <trkpt lat="48.28912" lon="2.59282">
        <ele>116</ele>
        <time>2014-02-02T14:16:56Z</time>
      </trkpt>
      <trkpt lat="48.28914" lon="2.59271">
        <ele>116</ele>
        <time>2014-02-02T14:17:01Z</time>
      </trkpt>
      <trkpt lat="48.28915" lon="2.5926">
        <ele>116.40000152588</ele>
        <time>2014-02-02T14:17:05Z</time>
      </trkpt>
      <trkpt lat="48.28916" lon="2.59258">
        <ele>116.80000305176</ele>
        <time>2014-02-02T14:17:06Z</time>
      </trkpt>
      <trkpt lat="48.28917" lon="2.59256">
        <ele>117.19999694824</ele>
        <time>2014-02-02T14:17:07Z</time>
      </trkpt>
      <trkpt lat="48.28917" lon="2.59253">
        <ele>117.80000305176</ele>
        <time>2014-02-02T14:17:08Z</time>
      </trkpt>
      <trkpt lat="48.28918" lon="2.5925">
        <ele>118.19999694824</ele>
        <time>2014-02-02T14:17:09Z</time>
      </trkpt>
      <trkpt lat="48.28922" lon="2.59239">
        <ele>118.19999694824</ele>
        <time>2014-02-02T14:17:13Z</time>
      </trkpt>
      <trkpt lat="48.28933" lon="2.59216">
        <ele>118.19999694824</ele>
        <time>2014-02-02T14:17:19Z</time>
      </trkpt>
      <trkpt lat="48.28946" lon="2.5919">
        <ele>118.19999694824</ele>
        <time>2014-02-02T14:17:25Z</time>
      </trkpt>
      <trkpt lat="48.28951" lon="2.59176">
        <ele>118.19999694824</ele>
        <time>2014-02-02T14:17:30Z</time>
      </trkpt>
      <trkpt lat="48.28952" lon="2.59155">
        <ele>118.19999694824</ele>
        <time>2014-02-02T14:17:37Z</time>
      </trkpt>
      <trkpt lat="48.28951" lon="2.59148">
        <ele>118.59999847412</ele>
        <time>2014-02-02T14:17:40Z</time>
      </trkpt>
      <trkpt lat="48.28952" lon="2.59145">
        <ele>119</ele>
        <time>2014-02-02T14:17:41Z</time>
      </trkpt>
      <trkpt lat="48.28952" lon="2.59142">
        <ele>119.40000152588</ele>
        <time>2014-02-02T14:17:42Z</time>
      </trkpt>
      <trkpt lat="48.28952" lon="2.59139">
        <ele>119.80000305176</ele>
        <time>2014-02-02T14:17:43Z</time>
      </trkpt>
      <trkpt lat="48.28953" lon="2.59136">
        <ele>120.40000152588</ele>
        <time>2014-02-02T14:17:44Z</time>
      </trkpt>
      <trkpt lat="48.28957" lon="2.59116">
        <ele>120.40000152588</ele>
        <time>2014-02-02T14:17:51Z</time>
      </trkpt>
      <trkpt lat="48.28965" lon="2.59096">
        <ele>120.40000152588</ele>
        <time>2014-02-02T14:17:57Z</time>
      </trkpt>
      <trkpt lat="48.28971" lon="2.59069">
        <ele>120.40000152588</ele>
        <time>2014-02-02T14:18:03Z</time>
      </trkpt>
      <trkpt lat="48.28969" lon="2.59048">
        <ele>120.40000152588</ele>
        <time>2014-02-02T14:18:09Z</time>
      </trkpt>
      <trkpt lat="48.28964" lon="2.59038">
        <ele>120.80000305176</ele>
        <time>2014-02-02T14:18:13Z</time>
      </trkpt>
      <trkpt lat="48.28963" lon="2.59036">
        <ele>121.19999694824</ele>
        <time>2014-02-02T14:18:14Z</time>
      </trkpt>
      <trkpt lat="48.28961" lon="2.59034">
        <ele>121.59999847412</ele>
        <time>2014-02-02T14:18:15Z</time>
      </trkpt>
      <trkpt lat="48.2896" lon="2.59033">
        <ele>122</ele>
        <time>2014-02-02T14:18:16Z</time>
      </trkpt>
      <trkpt lat="48.28959" lon="2.59032">
        <ele>122.40000152588</ele>
        <time>2014-02-02T14:18:17Z</time>
      </trkpt>
      <trkpt lat="48.28945" lon="2.59019">
        <ele>122.40000152588</ele>
        <time>2014-02-02T14:18:25Z</time>
      </trkpt>
      <trkpt lat="48.2893" lon="2.59006">
        <ele>122.40000152588</ele>
        <time>2014-02-02T14:18:33Z</time>
      </trkpt>
      <trkpt lat="48.28921" lon="2.58988">
        <ele>122.40000152588</ele>
        <time>2014-02-02T14:18:39Z</time>
      </trkpt>
      <trkpt lat="48.28915" lon="2.58971">
        <ele>122.80000305176</ele>
        <time>2014-02-02T14:18:44Z</time>
      </trkpt>
      <trkpt lat="48.28914" lon="2.58968">
        <ele>123.19999694824</ele>
        <time>2014-02-02T14:18:45Z</time>
      </trkpt>
      <trkpt lat="48.28914" lon="2.58964">
        <ele>123.59999847412</ele>
        <time>2014-02-02T14:18:46Z</time>
      </trkpt>
      <trkpt lat="48.28913" lon="2.58961">
        <ele>124</ele>
        <time>2014-02-02T14:18:47Z</time>
      </trkpt>
      <trkpt lat="48.28913" lon="2.58956">
        <ele>124.40000152588</ele>
        <time>2014-02-02T14:18:48Z</time>
      </trkpt>
      <trkpt lat="48.28909" lon="2.58936">
        <ele>124.40000152588</ele>
        <time>2014-02-02T14:18:53Z</time>
      </trkpt>
      <trkpt lat="48.28909" lon="2.58923">
        <ele>124.40000152588</ele>
        <time>2014-02-02T14:18:58Z</time>
      </trkpt>
      <trkpt lat="48.2891" lon="2.58916">
        <ele>124.40000152588</ele>
        <time>2014-02-02T14:19:00Z</time>
      </trkpt>
      <trkpt lat="48.28909" lon="2.58907">
        <ele>124.80000305176</ele>
        <time>2014-02-02T14:19:04Z</time>
      </trkpt>
      <trkpt lat="48.28908" lon="2.58904">
        <ele>125.19999694824</ele>
        <time>2014-02-02T14:19:05Z</time>
      </trkpt>
      <trkpt lat="48.28908" lon="2.58899">
        <ele>125.80000305176</ele>
        <time>2014-02-02T14:19:06Z</time>
      </trkpt>
      <trkpt lat="48.28908" lon="2.58895">
        <ele>126.19999694824</ele>
        <time>2014-02-02T14:19:07Z</time>
      </trkpt>
      <trkpt lat="48.28907" lon="2.58891">
        <ele>126.59999847412</ele>
        <time>2014-02-02T14:19:08Z</time>
      </trkpt>
      <trkpt lat="48.28901" lon="2.58867">
        <ele>126.59999847412</ele>
        <time>2014-02-02T14:19:14Z</time>
      </trkpt>
      <trkpt lat="48.28902" lon="2.58834">
        <ele>126.59999847412</ele>
        <time>2014-02-02T14:19:21Z</time>
      </trkpt>
      <trkpt lat="48.289" lon="2.58805">
        <ele>126.59999847412</ele>
        <time>2014-02-02T14:19:28Z</time>
      </trkpt>
      <trkpt lat="48.28892" lon="2.58792">
        <ele>126.59999847412</ele>
        <time>2014-02-02T14:19:33Z</time>
      </trkpt>
      <trkpt lat="48.28873" lon="2.5878">
        <ele>126.59999847412</ele>
        <time>2014-02-02T14:19:42Z</time>
      </trkpt>
      <trkpt lat="48.28851" lon="2.58766">
        <ele>126.59999847412</ele>
        <time>2014-02-02T14:19:52Z</time>
      </trkpt>
      <trkpt lat="48.28833" lon="2.58755">
        <ele>126.59999847412</ele>
        <time>2014-02-02T14:19:59Z</time>
      </trkpt>
      <trkpt lat="48.28821" lon="2.58747">
        <ele>126.59999847412</ele>
        <time>2014-02-02T14:20:05Z</time>
      </trkpt>
      <trkpt lat="48.28802" lon="2.5875">
        <ele>126.59999847412</ele>
        <time>2014-02-02T14:20:13Z</time>
      </trkpt>
      <trkpt lat="48.28791" lon="2.58768">
        <ele>126.59999847412</ele>
        <time>2014-02-02T14:20:17Z</time>
      </trkpt>
      <trkpt lat="48.28787" lon="2.58768">
        <ele>126.59999847412</ele>
        <time>2014-02-02T14:20:18Z</time>
      </trkpt>
      <trkpt lat="48.28772" lon="2.58764">
        <ele>126.59999847412</ele>
        <time>2014-02-02T14:20:22Z</time>
      </trkpt>
      <trkpt lat="48.28756" lon="2.58751">
        <ele>126.59999847412</ele>
        <time>2014-02-02T14:20:28Z</time>
      </trkpt>
      <trkpt lat="48.28741" lon="2.58741">
        <ele>126.59999847412</ele>
        <time>2014-02-02T14:20:34Z</time>
      </trkpt>
      <trkpt lat="48.28721" lon="2.58725">
        <ele>126.59999847412</ele>
        <time>2014-02-02T14:20:42Z</time>
      </trkpt>
      <trkpt lat="48.28703" lon="2.58712">
        <ele>126.59999847412</ele>
        <time>2014-02-02T14:20:49Z</time>
      </trkpt>
      <trkpt lat="48.28675" lon="2.58717">
        <ele>126.59999847412</ele>
        <time>2014-02-02T14:20:58Z</time>
      </trkpt>
      <trkpt lat="48.28648" lon="2.58723">
        <ele>126.59999847412</ele>
        <time>2014-02-02T14:21:06Z</time>
      </trkpt>
      <trkpt lat="48.28627" lon="2.58714">
        <ele>126.59999847412</ele>
        <time>2014-02-02T14:21:12Z</time>
      </trkpt>
      <trkpt lat="48.286" lon="2.58699">
        <ele>126.59999847412</ele>
        <time>2014-02-02T14:21:21Z</time>
      </trkpt>
      <trkpt lat="48.28582" lon="2.5869">
        <ele>126.59999847412</ele>
        <time>2014-02-02T14:21:28Z</time>
      </trkpt>
      <trkpt lat="48.28579" lon="2.58698">
        <ele>126</ele>
        <time>2014-02-02T14:21:32Z</time>
      </trkpt>
      <trkpt lat="48.28579" lon="2.58699">
        <ele>125.59999847412</ele>
        <time>2014-02-02T14:21:33Z</time>
      </trkpt>
      <trkpt lat="48.28578" lon="2.587">
        <ele>125.19999694824</ele>
        <time>2014-02-02T14:21:34Z</time>
      </trkpt>
      <trkpt lat="48.28576" lon="2.58702">
        <ele>124.40000152588</ele>
        <time>2014-02-02T14:21:35Z</time>
      </trkpt>
      <trkpt lat="48.28575" lon="2.58704">
        <ele>123.59999847412</ele>
        <time>2014-02-02T14:21:36Z</time>
      </trkpt>
      <trkpt lat="48.28574" lon="2.58707">
        <ele>122.80000305176</ele>
        <time>2014-02-02T14:21:37Z</time>
      </trkpt>
      <trkpt lat="48.28573" lon="2.5871">
        <ele>122</ele>
        <time>2014-02-02T14:21:38Z</time>
      </trkpt>
      <trkpt lat="48.28572" lon="2.58714">
        <ele>121</ele>
        <time>2014-02-02T14:21:39Z</time>
      </trkpt>
      <trkpt lat="48.28571" lon="2.58717">
        <ele>120.19999694824</ele>
        <time>2014-02-02T14:21:40Z</time>
      </trkpt>
      <trkpt lat="48.28571" lon="2.58719">
        <ele>119.19999694824</ele>
        <time>2014-02-02T14:21:41Z</time>
      </trkpt>
      <trkpt lat="48.28571" lon="2.58722">
        <ele>118.40000152588</ele>
        <time>2014-02-02T14:21:42Z</time>
      </trkpt>
      <trkpt lat="48.2857" lon="2.58726">
        <ele>117.40000152588</ele>
        <time>2014-02-02T14:21:43Z</time>
      </trkpt>
      <trkpt lat="48.28569" lon="2.58729">
        <ele>116.59999847412</ele>
        <time>2014-02-02T14:21:44Z</time>
      </trkpt>
      <trkpt lat="48.28568" lon="2.58731">
        <ele>115.80000305176</ele>
        <time>2014-02-02T14:21:45Z</time>
      </trkpt>
      <trkpt lat="48.28567" lon="2.58733">
        <ele>115</ele>
        <time>2014-02-02T14:21:46Z</time>
      </trkpt>
      <trkpt lat="48.28565" lon="2.58737">
        <ele>114.19999694824</ele>
        <time>2014-02-02T14:21:47Z</time>
      </trkpt>
      <trkpt lat="48.28563" lon="2.58743">
        <ele>113.40000152588</ele>
        <time>2014-02-02T14:21:48Z</time>
      </trkpt>
      <trkpt lat="48.28563" lon="2.58752">
        <ele>112.59999847412</ele>
        <time>2014-02-02T14:21:49Z</time>
      </trkpt>
      <trkpt lat="48.28563" lon="2.5876">
        <ele>111.80000305176</ele>
        <time>2014-02-02T14:21:50Z</time>
      </trkpt>
      <trkpt lat="48.28562" lon="2.58773">
        <ele>111.19999694824</ele>
        <time>2014-02-02T14:21:51Z</time>
      </trkpt>
      <trkpt lat="48.28562" lon="2.58784">
        <ele>110.40000152588</ele>
        <time>2014-02-02T14:21:52Z</time>
      </trkpt>
      <trkpt lat="48.28562" lon="2.58793">
        <ele>109.40000152588</ele>
        <time>2014-02-02T14:21:53Z</time>
      </trkpt>
      <trkpt lat="48.28564" lon="2.58802">
        <ele>108.59999847412</ele>
        <time>2014-02-02T14:21:54Z</time>
      </trkpt>
      <trkpt lat="48.28565" lon="2.58807">
        <ele>107.80000305176</ele>
        <time>2014-02-02T14:21:55Z</time>
      </trkpt>
      <trkpt lat="48.28566" lon="2.5881">
        <ele>107</ele>
        <time>2014-02-02T14:21:56Z</time>
      </trkpt>
      <trkpt lat="48.28564" lon="2.58814">
        <ele>106.19999694824</ele>
        <time>2014-02-02T14:21:57Z</time>
      </trkpt>
      <trkpt lat="48.28565" lon="2.58815">
        <ele>105.40000152588</ele>
        <time>2014-02-02T14:21:58Z</time>
      </trkpt>
      <trkpt lat="48.28565" lon="2.58816">
        <ele>104.80000305176</ele>
        <time>2014-02-02T14:21:59Z</time>
      </trkpt>
      <trkpt lat="48.28569" lon="2.58815">
        <ele>104.80000305176</ele>
        <time>2014-02-02T14:22:01Z</time>
      </trkpt>
      <trkpt lat="48.28574" lon="2.58813">
        <ele>104.80000305176</ele>
        <time>2014-02-02T14:22:03Z</time>
      </trkpt>
      <trkpt lat="48.28582" lon="2.58818">
        <ele>104.80000305176</ele>
        <time>2014-02-02T14:22:11Z</time>
      </trkpt>
      <trkpt lat="48.28582" lon="2.58818">
        <ele>104</ele>
        <time>2014-02-02T14:22:15Z</time>
      </trkpt>
      <trkpt lat="48.28586" lon="2.58818">
        <ele>103.40000152588</ele>
        <time>2014-02-02T14:22:16Z</time>
      </trkpt>
      <trkpt lat="48.28589" lon="2.58818">
        <ele>102.80000305176</ele>
        <time>2014-02-02T14:22:17Z</time>
      </trkpt>
      <trkpt lat="48.2859" lon="2.58817">
        <ele>102.19999694824</ele>
        <time>2014-02-02T14:22:18Z</time>
      </trkpt>
      <trkpt lat="48.28591" lon="2.58818">
        <ele>101.59999847412</ele>
        <time>2014-02-02T14:22:19Z</time>
      </trkpt>
      <trkpt lat="48.28596" lon="2.58816">
        <ele>101.59999847412</ele>
        <time>2014-02-02T14:22:25Z</time>
      </trkpt>
      <trkpt lat="48.28609" lon="2.58812">
        <ele>101.59999847412</ele>
        <time>2014-02-02T14:22:44Z</time>
      </trkpt>
      <trkpt lat="48.28625" lon="2.58815">
        <ele>101.59999847412</ele>
        <time>2014-02-02T14:22:51Z</time>
      </trkpt>
      <trkpt lat="48.28642" lon="2.58824">
        <ele>101.59999847412</ele>
        <time>2014-02-02T14:22:57Z</time>
      </trkpt>
      <trkpt lat="48.28656" lon="2.58831">
        <ele>101.59999847412</ele>
        <time>2014-02-02T14:23:04Z</time>
      </trkpt>
      <trkpt lat="48.28661" lon="2.58831">
        <ele>101.59999847412</ele>
        <time>2014-02-02T14:23:06Z</time>
      </trkpt>
      <trkpt lat="48.28663" lon="2.58831">
        <ele>101.59999847412</ele>
        <time>2014-02-02T14:23:08Z</time>
      </trkpt>
      <trkpt lat="48.28669" lon="2.58834">
        <ele>101.59999847412</ele>
        <time>2014-02-02T14:23:14Z</time>
      </trkpt>
      <trkpt lat="48.28672" lon="2.58835">
        <ele>102</ele>
        <time>2014-02-02T14:23:20Z</time>
      </trkpt>
      <trkpt lat="48.28674" lon="2.58834">
        <ele>102.40000152588</ele>
        <time>2014-02-02T14:23:21Z</time>
      </trkpt>
      <trkpt lat="48.28675" lon="2.58834">
        <ele>102.80000305176</ele>
        <time>2014-02-02T14:23:22Z</time>
      </trkpt>
      <trkpt lat="48.28676" lon="2.58833">
        <ele>103.19999694824</ele>
        <time>2014-02-02T14:23:23Z</time>
      </trkpt>
      <trkpt lat="48.28677" lon="2.58834">
        <ele>103.59999847412</ele>
        <time>2014-02-02T14:23:24Z</time>
      </trkpt>
      <trkpt lat="48.2869" lon="2.58836">
        <ele>103.59999847412</ele>
        <time>2014-02-02T14:23:32Z</time>
      </trkpt>
      <trkpt lat="48.28705" lon="2.58837">
        <ele>103.59999847412</ele>
        <time>2014-02-02T14:23:44Z</time>
      </trkpt>
      <trkpt lat="48.28707" lon="2.58834">
        <ele>104</ele>
        <time>2014-02-02T14:23:46Z</time>
      </trkpt>
      <trkpt lat="48.28707" lon="2.58834">
        <ele>104.40000152588</ele>
        <time>2014-02-02T14:23:47Z</time>
      </trkpt>
      <trkpt lat="48.28708" lon="2.58833">
        <ele>104.80000305176</ele>
        <time>2014-02-02T14:23:48Z</time>
      </trkpt>
      <trkpt lat="48.28708" lon="2.58833">
        <ele>105.19999694824</ele>
        <time>2014-02-02T14:23:49Z</time>
      </trkpt>
      <trkpt lat="48.28709" lon="2.58833">
        <ele>105.59999847412</ele>
        <time>2014-02-02T14:23:50Z</time>
      </trkpt>
      <trkpt lat="48.28711" lon="2.58834">
        <ele>105.59999847412</ele>
        <time>2014-02-02T14:23:53Z</time>
      </trkpt>
      <trkpt lat="48.28716" lon="2.58837">
        <ele>106</ele>
        <time>2014-02-02T14:24:01Z</time>
      </trkpt>
      <trkpt lat="48.28717" lon="2.58837">
        <ele>106.40000152588</ele>
        <time>2014-02-02T14:24:02Z</time>
      </trkpt>
      <trkpt lat="48.28717" lon="2.58837">
        <ele>106.80000305176</ele>
        <time>2014-02-02T14:24:03Z</time>
      </trkpt>
      <trkpt lat="48.28717" lon="2.58837">
        <ele>107.40000152588</ele>
        <time>2014-02-02T14:24:04Z</time>
      </trkpt>
      <trkpt lat="48.28717" lon="2.58837">
        <ele>107.80000305176</ele>
        <time>2014-02-02T14:24:05Z</time>
      </trkpt>
      <trkpt lat="48.28719" lon="2.58838">
        <ele>107.80000305176</ele>
        <time>2014-02-02T14:24:09Z</time>
      </trkpt>
      <trkpt lat="48.28729" lon="2.58848">
        <ele>107.80000305176</ele>
        <time>2014-02-02T14:24:21Z</time>
      </trkpt>
      <trkpt lat="48.28731" lon="2.5885">
        <ele>107.80000305176</ele>
        <time>2014-02-02T14:24:29Z</time>
      </trkpt>
      <trkpt lat="48.28737" lon="2.58853">
        <ele>107.80000305176</ele>
        <time>2014-02-02T14:24:36Z</time>
      </trkpt>
      <trkpt lat="48.2874" lon="2.58859">
        <ele>107.19999694824</ele>
        <time>2014-02-02T14:24:40Z</time>
      </trkpt>
      <trkpt lat="48.28741" lon="2.58861">
        <ele>106.80000305176</ele>
        <time>2014-02-02T14:24:41Z</time>
      </trkpt>
      <trkpt lat="48.28741" lon="2.58864">
        <ele>106.40000152588</ele>
        <time>2014-02-02T14:24:42Z</time>
      </trkpt>
      <trkpt lat="48.28743" lon="2.58869">
        <ele>105.80000305176</ele>
        <time>2014-02-02T14:24:43Z</time>
      </trkpt>
      <trkpt lat="48.28744" lon="2.58873">
        <ele>105.19999694824</ele>
        <time>2014-02-02T14:24:44Z</time>
      </trkpt>
      <trkpt lat="48.28744" lon="2.58878">
        <ele>104.59999847412</ele>
        <time>2014-02-02T14:24:45Z</time>
      </trkpt>
      <trkpt lat="48.28744" lon="2.5888">
        <ele>104</ele>
        <time>2014-02-02T14:24:46Z</time>
      </trkpt>
      <trkpt lat="48.28743" lon="2.58881">
        <ele>103.40000152588</ele>
        <time>2014-02-02T14:24:47Z</time>
      </trkpt>
      <trkpt lat="48.28745" lon="2.58882">
        <ele>103.40000152588</ele>
        <time>2014-02-02T14:24:48Z</time>
      </trkpt>
      <trkpt lat="48.28746" lon="2.58884">
        <ele>103.80000305176</ele>
        <time>2014-02-02T14:24:59Z</time>
      </trkpt>
      <trkpt lat="48.28746" lon="2.58884">
        <ele>104.19999694824</ele>
        <time>2014-02-02T14:25:00Z</time>
      </trkpt>
      <trkpt lat="48.28746" lon="2.58884">
        <ele>104.59999847412</ele>
        <time>2014-02-02T14:25:01Z</time>
      </trkpt>
      <trkpt lat="48.28746" lon="2.58884">
        <ele>105</ele>
        <time>2014-02-02T14:25:02Z</time>
      </trkpt>
      <trkpt lat="48.28746" lon="2.58884">
        <ele>105.40000152588</ele>
        <time>2014-02-02T14:25:03Z</time>
      </trkpt>
      <trkpt lat="48.28745" lon="2.58889">
        <ele>105.40000152588</ele>
        <time>2014-02-02T14:25:11Z</time>
      </trkpt>
      <trkpt lat="48.28743" lon="2.5889">
        <ele>105</ele>
        <time>2014-02-02T14:25:16Z</time>
      </trkpt>
      <trkpt lat="48.28742" lon="2.58893">
        <ele>104.40000152588</ele>
        <time>2014-02-02T14:25:17Z</time>
      </trkpt>
      <trkpt lat="48.28741" lon="2.58895">
        <ele>103.40000152588</ele>
        <time>2014-02-02T14:25:18Z</time>
      </trkpt>
      <trkpt lat="48.28741" lon="2.589">
        <ele>102.59999847412</ele>
        <time>2014-02-02T14:25:19Z</time>
      </trkpt>
      <trkpt lat="48.28741" lon="2.58906">
        <ele>102</ele>
        <time>2014-02-02T14:25:20Z</time>
      </trkpt>
      <trkpt lat="48.28741" lon="2.5891">
        <ele>101.40000152588</ele>
        <time>2014-02-02T14:25:21Z</time>
      </trkpt>
      <trkpt lat="48.28739" lon="2.58916">
        <ele>101.40000152588</ele>
        <time>2014-02-02T14:25:22Z</time>
      </trkpt>
      <trkpt lat="48.28738" lon="2.58921">
        <ele>100.80000305176</ele>
        <time>2014-02-02T14:25:23Z</time>
      </trkpt>
      <trkpt lat="48.28741" lon="2.58927">
        <ele>100.80000305176</ele>
        <time>2014-02-02T14:25:27Z</time>
      </trkpt>
      <trkpt lat="48.28746" lon="2.58933">
        <ele>100.80000305176</ele>
        <time>2014-02-02T14:25:33Z</time>
      </trkpt>
      <trkpt lat="48.28746" lon="2.58951">
        <ele>100.80000305176</ele>
        <time>2014-02-02T14:25:41Z</time>
      </trkpt>
      <trkpt lat="48.28745" lon="2.58954">
        <ele>100.80000305176</ele>
        <time>2014-02-02T14:25:42Z</time>
      </trkpt>
      <trkpt lat="48.28737" lon="2.58964">
        <ele>100.80000305176</ele>
        <time>2014-02-02T14:25:46Z</time>
      </trkpt>
      <trkpt lat="48.28726" lon="2.58976">
        <ele>100.80000305176</ele>
        <time>2014-02-02T14:25:49Z</time>
      </trkpt>
      <trkpt lat="48.28724" lon="2.58983">
        <ele>100.19999694824</ele>
        <time>2014-02-02T14:25:50Z</time>
      </trkpt>
      <trkpt lat="48.28721" lon="2.5899">
        <ele>99.800003051758</ele>
        <time>2014-02-02T14:25:51Z</time>
      </trkpt>
      <trkpt lat="48.28718" lon="2.58998">
        <ele>99.400001525879</ele>
        <time>2014-02-02T14:25:52Z</time>
      </trkpt>
      <trkpt lat="48.28714" lon="2.59006">
        <ele>99</ele>
        <time>2014-02-02T14:25:53Z</time>
      </trkpt>
      <trkpt lat="48.28711" lon="2.59015">
        <ele>98.400001525879</ele>
        <time>2014-02-02T14:25:54Z</time>
      </trkpt>
      <trkpt lat="48.28708" lon="2.59024">
        <ele>97.800003051758</ele>
        <time>2014-02-02T14:25:55Z</time>
      </trkpt>
      <trkpt lat="48.28705" lon="2.59034">
        <ele>97.400001525879</ele>
        <time>2014-02-02T14:25:56Z</time>
      </trkpt>
      <trkpt lat="48.28702" lon="2.59044">
        <ele>96.800003051758</ele>
        <time>2014-02-02T14:25:57Z</time>
      </trkpt>
      <trkpt lat="48.28699" lon="2.59054">
        <ele>96.400001525879</ele>
        <time>2014-02-02T14:25:58Z</time>
      </trkpt>
      <trkpt lat="48.28696" lon="2.59062">
        <ele>95.800003051758</ele>
        <time>2014-02-02T14:25:59Z</time>
      </trkpt>
      <trkpt lat="48.28692" lon="2.59072">
        <ele>95.400001525879</ele>
        <time>2014-02-02T14:26:00Z</time>
      </trkpt>
      <trkpt lat="48.28689" lon="2.59081">
        <ele>95</ele>
        <time>2014-02-02T14:26:01Z</time>
      </trkpt>
      <trkpt lat="48.28686" lon="2.5909">
        <ele>94.400001525879</ele>
        <time>2014-02-02T14:26:02Z</time>
      </trkpt>
      <trkpt lat="48.28682" lon="2.59099">
        <ele>94</ele>
        <time>2014-02-02T14:26:03Z</time>
      </trkpt>
      <trkpt lat="48.28677" lon="2.59118">
        <ele>93.599998474121</ele>
        <time>2014-02-02T14:26:05Z</time>
      </trkpt>
      <trkpt lat="48.28674" lon="2.59128">
        <ele>93.199996948242</ele>
        <time>2014-02-02T14:26:06Z</time>
      </trkpt>
      <trkpt lat="48.28671" lon="2.59137">
        <ele>92.800003051758</ele>
        <time>2014-02-02T14:26:07Z</time>
      </trkpt>
      <trkpt lat="48.28668" lon="2.59146">
        <ele>92.400001525879</ele>
        <time>2014-02-02T14:26:08Z</time>
      </trkpt>
      <trkpt lat="48.28665" lon="2.59156">
        <ele>92</ele>
        <time>2014-02-02T14:26:09Z</time>
      </trkpt>
      <trkpt lat="48.28662" lon="2.59165">
        <ele>91.599998474121</ele>
        <time>2014-02-02T14:26:10Z</time>
      </trkpt>
      <trkpt lat="48.28659" lon="2.59174">
        <ele>91.199996948242</ele>
        <time>2014-02-02T14:26:11Z</time>
      </trkpt>
      <trkpt lat="48.28656" lon="2.59183">
        <ele>90.800003051758</ele>
        <time>2014-02-02T14:26:12Z</time>
      </trkpt>
      <trkpt lat="48.28653" lon="2.59189">
        <ele>90.400001525879</ele>
        <time>2014-02-02T14:26:13Z</time>
      </trkpt>
      <trkpt lat="48.2865" lon="2.59193">
        <ele>90</ele>
        <time>2014-02-02T14:26:14Z</time>
      </trkpt>
      <trkpt lat="48.28647" lon="2.59194">
        <ele>90</ele>
        <time>2014-02-02T14:26:15Z</time>
      </trkpt>
      <trkpt lat="48.2864" lon="2.59188">
        <ele>90</ele>
        <time>2014-02-02T14:26:18Z</time>
      </trkpt>
      <trkpt lat="48.28637" lon="2.59181">
        <ele>90</ele>
        <time>2014-02-02T14:26:20Z</time>
      </trkpt>
      <trkpt lat="48.2863" lon="2.59167">
        <ele>90</ele>
        <time>2014-02-02T14:26:24Z</time>
      </trkpt>
      <trkpt lat="48.28616" lon="2.59146">
        <ele>90</ele>
        <time>2014-02-02T14:26:31Z</time>
      </trkpt>
      <trkpt lat="48.28601" lon="2.59117">
        <ele>90</ele>
        <time>2014-02-02T14:26:40Z</time>
      </trkpt>
      <trkpt lat="48.28586" lon="2.59081">
        <ele>90</ele>
        <time>2014-02-02T14:26:51Z</time>
      </trkpt>
      <trkpt lat="48.28577" lon="2.59062">
        <ele>90</ele>
        <time>2014-02-02T14:26:57Z</time>
      </trkpt>
      <trkpt lat="48.28574" lon="2.59054">
        <ele>90.400001525879</ele>
        <time>2014-02-02T14:27:00Z</time>
      </trkpt>
      <trkpt lat="48.28573" lon="2.59052">
        <ele>90.800003051758</ele>
        <time>2014-02-02T14:27:01Z</time>
      </trkpt>
      <trkpt lat="48.28571" lon="2.59049">
        <ele>91.199996948242</ele>
        <time>2014-02-02T14:27:02Z</time>
      </trkpt>
      <trkpt lat="48.2857" lon="2.59047">
        <ele>91.599998474121</ele>
        <time>2014-02-02T14:27:03Z</time>
      </trkpt>
      <trkpt lat="48.28569" lon="2.59044">
        <ele>92</ele>
        <time>2014-02-02T14:27:04Z</time>
      </trkpt>
      <trkpt lat="48.28557" lon="2.59028">
        <ele>92</ele>
        <time>2014-02-02T14:27:12Z</time>
      </trkpt>
      <trkpt lat="48.28547" lon="2.59007">
        <ele>92.400001525879</ele>
        <time>2014-02-02T14:27:21Z</time>
      </trkpt>
      <trkpt lat="48.28546" lon="2.59005">
        <ele>92.800003051758</ele>
        <time>2014-02-02T14:27:22Z</time>
      </trkpt>
      <trkpt lat="48.28545" lon="2.59002">
        <ele>93.400001525879</ele>
        <time>2014-02-02T14:27:23Z</time>
      </trkpt>
      <trkpt lat="48.28544" lon="2.58999">
        <ele>93.800003051758</ele>
        <time>2014-02-02T14:27:24Z</time>
      </trkpt>
      <trkpt lat="48.28543" lon="2.58996">
        <ele>94.400001525879</ele>
        <time>2014-02-02T14:27:25Z</time>
      </trkpt>
      <trkpt lat="48.2854" lon="2.58987">
        <ele>94.400001525879</ele>
        <time>2014-02-02T14:27:29Z</time>
      </trkpt>
      <trkpt lat="48.28537" lon="2.5897">
        <ele>94.400001525879</ele>
        <time>2014-02-02T14:27:36Z</time>
      </trkpt>
      <trkpt lat="48.28531" lon="2.58956">
        <ele>94.800003051758</ele>
        <time>2014-02-02T14:27:43Z</time>
      </trkpt>
      <trkpt lat="48.2853" lon="2.58954">
        <ele>95.199996948242</ele>
        <time>2014-02-02T14:27:44Z</time>
      </trkpt>
      <trkpt lat="48.28529" lon="2.58952">
        <ele>95.599998474121</ele>
        <time>2014-02-02T14:27:45Z</time>
      </trkpt>
      <trkpt lat="48.28529" lon="2.58949">
        <ele>96</ele>
        <time>2014-02-02T14:27:46Z</time>
      </trkpt>
      <trkpt lat="48.28529" lon="2.58948">
        <ele>96.400001525879</ele>
        <time>2014-02-02T14:27:47Z</time>
      </trkpt>
      <trkpt lat="48.28525" lon="2.58941">
        <ele>96.400001525879</ele>
        <time>2014-02-02T14:27:52Z</time>
      </trkpt>
      <trkpt lat="48.28519" lon="2.58922">
        <ele>96.400001525879</ele>
        <time>2014-02-02T14:28:01Z</time>
      </trkpt>
      <trkpt lat="48.28511" lon="2.5891">
        <ele>96.400001525879</ele>
        <time>2014-02-02T14:28:09Z</time>
      </trkpt>
      <trkpt lat="48.28508" lon="2.58907">
        <ele>96.800003051758</ele>
        <time>2014-02-02T14:28:12Z</time>
      </trkpt>
      <trkpt lat="48.28508" lon="2.58907">
        <ele>97.199996948242</ele>
        <time>2014-02-02T14:28:13Z</time>
      </trkpt>
      <trkpt lat="48.28506" lon="2.58906">
        <ele>97.599998474121</ele>
        <time>2014-02-02T14:28:14Z</time>
      </trkpt>
      <trkpt lat="48.28505" lon="2.58904">
        <ele>98</ele>
        <time>2014-02-02T14:28:15Z</time>
      </trkpt>
      <trkpt lat="48.28505" lon="2.58902">
        <ele>98.400001525879</ele>
        <time>2014-02-02T14:28:16Z</time>
      </trkpt>
      <trkpt lat="48.28503" lon="2.589">
        <ele>98.400001525879</ele>
        <time>2014-02-02T14:28:17Z</time>
      </trkpt>
      <trkpt lat="48.285" lon="2.58892">
        <ele>98.800003051758</ele>
        <time>2014-02-02T14:28:22Z</time>
      </trkpt>
      <trkpt lat="48.28499" lon="2.58891">
        <ele>99.400001525879</ele>
        <time>2014-02-02T14:28:23Z</time>
      </trkpt>
      <trkpt lat="48.28498" lon="2.58889">
        <ele>99.800003051758</ele>
        <time>2014-02-02T14:28:24Z</time>
      </trkpt>
      <trkpt lat="48.28497" lon="2.58888">
        <ele>100.19999694824</ele>
        <time>2014-02-02T14:28:25Z</time>
      </trkpt>
      <trkpt lat="48.28496" lon="2.58886">
        <ele>100.59999847412</ele>
        <time>2014-02-02T14:28:26Z</time>
      </trkpt>
      <trkpt lat="48.28494" lon="2.58884">
        <ele>100.59999847412</ele>
        <time>2014-02-02T14:28:28Z</time>
      </trkpt>
      <trkpt lat="48.2849" lon="2.58888">
        <ele>100.59999847412</ele>
        <time>2014-02-02T14:28:37Z</time>
      </trkpt>
      <trkpt lat="48.28482" lon="2.58891">
        <ele>100.19999694824</ele>
        <time>2014-02-02T14:28:44Z</time>
      </trkpt>
      <trkpt lat="48.28481" lon="2.5889">
        <ele>99.800003051758</ele>
        <time>2014-02-02T14:28:45Z</time>
      </trkpt>
      <trkpt lat="48.28479" lon="2.58889">
        <ele>99.199996948242</ele>
        <time>2014-02-02T14:28:46Z</time>
      </trkpt>
      <trkpt lat="48.28477" lon="2.58888">
        <ele>98.800003051758</ele>
        <time>2014-02-02T14:28:47Z</time>
      </trkpt>
      <trkpt lat="48.28475" lon="2.58888">
        <ele>98.400001525879</ele>
        <time>2014-02-02T14:28:48Z</time>
      </trkpt>
      <trkpt lat="48.28469" lon="2.58882">
        <ele>98.400001525879</ele>
        <time>2014-02-02T14:28:54Z</time>
      </trkpt>
      <trkpt lat="48.28458" lon="2.58868">
        <ele>98.800003051758</ele>
        <time>2014-02-02T14:29:02Z</time>
      </trkpt>
      <trkpt lat="48.28457" lon="2.58866">
        <ele>99.199996948242</ele>
        <time>2014-02-02T14:29:03Z</time>
      </trkpt>
      <trkpt lat="48.28457" lon="2.58864">
        <ele>99.599998474121</ele>
        <time>2014-02-02T14:29:04Z</time>
      </trkpt>
      <trkpt lat="48.28456" lon="2.58862">
        <ele>100</ele>
        <time>2014-02-02T14:29:05Z</time>
      </trkpt>
      <trkpt lat="48.28456" lon="2.58861">
        <ele>100.40000152588</ele>
        <time>2014-02-02T14:29:06Z</time>
      </trkpt>
      <trkpt lat="48.28449" lon="2.58853">
        <ele>100.40000152588</ele>
        <time>2014-02-02T14:29:12Z</time>
      </trkpt>
      <trkpt lat="48.28441" lon="2.58854">
        <ele>100.40000152588</ele>
        <time>2014-02-02T14:29:16Z</time>
      </trkpt>
      <trkpt lat="48.28439" lon="2.5886">
        <ele>100.40000152588</ele>
        <time>2014-02-02T14:29:18Z</time>
      </trkpt>
      <trkpt lat="48.28435" lon="2.58867">
        <ele>100.40000152588</ele>
        <time>2014-02-02T14:29:20Z</time>
      </trkpt>
      <trkpt lat="48.28432" lon="2.5887">
        <ele>100</ele>
        <time>2014-02-02T14:29:21Z</time>
      </trkpt>
      <trkpt lat="48.28429" lon="2.58874">
        <ele>99.400001525879</ele>
        <time>2014-02-02T14:29:22Z</time>
      </trkpt>
      <trkpt lat="48.28425" lon="2.58877">
        <ele>99</ele>
        <time>2014-02-02T14:29:23Z</time>
      </trkpt>
      <trkpt lat="48.2842" lon="2.58883">
        <ele>98.400001525879</ele>
        <time>2014-02-02T14:29:24Z</time>
      </trkpt>
      <trkpt lat="48.28415" lon="2.58889">
        <ele>98</ele>
        <time>2014-02-02T14:29:25Z</time>
      </trkpt>
      <trkpt lat="48.28404" lon="2.58904">
        <ele>97.599998474121</ele>
        <time>2014-02-02T14:29:27Z</time>
      </trkpt>
      <trkpt lat="48.28397" lon="2.58911">
        <ele>97.199996948242</ele>
        <time>2014-02-02T14:29:28Z</time>
      </trkpt>
      <trkpt lat="48.28391" lon="2.58918">
        <ele>96.800003051758</ele>
        <time>2014-02-02T14:29:29Z</time>
      </trkpt>
      <trkpt lat="48.28386" lon="2.58926">
        <ele>96.199996948242</ele>
        <time>2014-02-02T14:29:30Z</time>
      </trkpt>
      <trkpt lat="48.28381" lon="2.58933">
        <ele>96.199996948242</ele>
        <time>2014-02-02T14:29:31Z</time>
      </trkpt>
      <trkpt lat="48.28376" lon="2.5894">
        <ele>95.800003051758</ele>
        <time>2014-02-02T14:29:32Z</time>
      </trkpt>
      <trkpt lat="48.28372" lon="2.58948">
        <ele>95.400001525879</ele>
        <time>2014-02-02T14:29:33Z</time>
      </trkpt>
      <trkpt lat="48.28368" lon="2.58955">
        <ele>95</ele>
        <time>2014-02-02T14:29:34Z</time>
      </trkpt>
      <trkpt lat="48.28363" lon="2.58963">
        <ele>94.599998474121</ele>
        <time>2014-02-02T14:29:35Z</time>
      </trkpt>
      <trkpt lat="48.28358" lon="2.58971">
        <ele>94.199996948242</ele>
        <time>2014-02-02T14:29:36Z</time>
      </trkpt>
      <trkpt lat="48.28353" lon="2.58978">
        <ele>93.800003051758</ele>
        <time>2014-02-02T14:29:37Z</time>
      </trkpt>
      <trkpt lat="48.28348" lon="2.58985">
        <ele>93.800003051758</ele>
        <time>2014-02-02T14:29:38Z</time>
      </trkpt>
      <trkpt lat="48.28313" lon="2.59037">
        <ele>93.800003051758</ele>
        <time>2014-02-02T14:29:46Z</time>
      </trkpt>
      <trkpt lat="48.28292" lon="2.59068">
        <ele>93.800003051758</ele>
        <time>2014-02-02T14:29:52Z</time>
      </trkpt>
      <trkpt lat="48.28273" lon="2.59094">
        <ele>93.800003051758</ele>
        <time>2014-02-02T14:29:59Z</time>
      </trkpt>
      <trkpt lat="48.28259" lon="2.59117">
        <ele>93.800003051758</ele>
        <time>2014-02-02T14:30:06Z</time>
      </trkpt>
      <trkpt lat="48.28249" lon="2.59133">
        <ele>94.199996948242</ele>
        <time>2014-02-02T14:30:11Z</time>
      </trkpt>
      <trkpt lat="48.28247" lon="2.59134">
        <ele>94.800003051758</ele>
        <time>2014-02-02T14:30:12Z</time>
      </trkpt>
      <trkpt lat="48.28246" lon="2.59136">
        <ele>95.199996948242</ele>
        <time>2014-02-02T14:30:13Z</time>
      </trkpt>
      <trkpt lat="48.28244" lon="2.59139">
        <ele>95.199996948242</ele>
        <time>2014-02-02T14:30:14Z</time>
      </trkpt>
      <trkpt lat="48.28243" lon="2.59142">
        <ele>96.199996948242</ele>
        <time>2014-02-02T14:30:15Z</time>
      </trkpt>
      <trkpt lat="48.28234" lon="2.59155">
        <ele>96.199996948242</ele>
        <time>2014-02-02T14:30:21Z</time>
      </trkpt>
      <trkpt lat="48.28231" lon="2.59161">
        <ele>96.599998474121</ele>
        <time>2014-02-02T14:30:23Z</time>
      </trkpt>
      <trkpt lat="48.2823" lon="2.59163">
        <ele>97</ele>
        <time>2014-02-02T14:30:24Z</time>
      </trkpt>
      <trkpt lat="48.28229" lon="2.59164">
        <ele>97.400001525879</ele>
        <time>2014-02-02T14:30:25Z</time>
      </trkpt>
      <trkpt lat="48.28227" lon="2.59166">
        <ele>98</ele>
        <time>2014-02-02T14:30:26Z</time>
      </trkpt>
      <trkpt lat="48.28226" lon="2.59168">
        <ele>98.400001525879</ele>
        <time>2014-02-02T14:30:27Z</time>
      </trkpt>
      <trkpt lat="48.28225" lon="2.59169">
        <ele>98.400001525879</ele>
        <time>2014-02-02T14:30:28Z</time>
      </trkpt>
      <trkpt lat="48.28215" lon="2.59187">
        <ele>98.400001525879</ele>
        <time>2014-02-02T14:30:36Z</time>
      </trkpt>
      <trkpt lat="48.2821" lon="2.59182">
        <ele>98.400001525879</ele>
        <time>2014-02-02T14:30:39Z</time>
      </trkpt>
      <trkpt lat="48.28209" lon="2.59179">
        <ele>98.400001525879</ele>
        <time>2014-02-02T14:30:40Z</time>
      </trkpt>
      <trkpt lat="48.28197" lon="2.59158">
        <ele>98.400001525879</ele>
        <time>2014-02-02T14:30:49Z</time>
      </trkpt>
      <trkpt lat="48.28194" lon="2.59153">
        <ele>98.800003051758</ele>
        <time>2014-02-02T14:30:51Z</time>
      </trkpt>
      <trkpt lat="48.28193" lon="2.59151">
        <ele>99.199996948242</ele>
        <time>2014-02-02T14:30:52Z</time>
      </trkpt>
      <trkpt lat="48.28192" lon="2.59149">
        <ele>99.599998474121</ele>
        <time>2014-02-02T14:30:53Z</time>
      </trkpt>
      <trkpt lat="48.2819" lon="2.59148">
        <ele>100</ele>
        <time>2014-02-02T14:30:54Z</time>
      </trkpt>
      <trkpt lat="48.28189" lon="2.59147">
        <ele>100.40000152588</ele>
        <time>2014-02-02T14:30:55Z</time>
      </trkpt>
      <trkpt lat="48.28186" lon="2.59144">
        <ele>100.40000152588</ele>
        <time>2014-02-02T14:30:57Z</time>
      </trkpt>
      <trkpt lat="48.28178" lon="2.59129">
        <ele>100.80000305176</ele>
        <time>2014-02-02T14:31:05Z</time>
      </trkpt>
      <trkpt lat="48.28178" lon="2.59128">
        <ele>101.19999694824</ele>
        <time>2014-02-02T14:31:06Z</time>
      </trkpt>
      <trkpt lat="48.28177" lon="2.59126">
        <ele>101.59999847412</ele>
        <time>2014-02-02T14:31:07Z</time>
      </trkpt>
      <trkpt lat="48.28175" lon="2.59125">
        <ele>102.19999694824</ele>
        <time>2014-02-02T14:31:08Z</time>
      </trkpt>
      <trkpt lat="48.28175" lon="2.59124">
        <ele>102.59999847412</ele>
        <time>2014-02-02T14:31:09Z</time>
      </trkpt>
      <trkpt lat="48.28172" lon="2.59122">
        <ele>102.59999847412</ele>
        <time>2014-02-02T14:31:12Z</time>
      </trkpt>
      <trkpt lat="48.28167" lon="2.59116">
        <ele>103</ele>
        <time>2014-02-02T14:31:17Z</time>
      </trkpt>
      <trkpt lat="48.28167" lon="2.59114">
        <ele>103.40000152588</ele>
        <time>2014-02-02T14:31:18Z</time>
      </trkpt>
      <trkpt lat="48.28166" lon="2.59113">
        <ele>103.80000305176</ele>
        <time>2014-02-02T14:31:19Z</time>
      </trkpt>
      <trkpt lat="48.28166" lon="2.59111">
        <ele>104.19999694824</ele>
        <time>2014-02-02T14:31:20Z</time>
      </trkpt>
      <trkpt lat="48.28166" lon="2.59109">
        <ele>104.80000305176</ele>
        <time>2014-02-02T14:31:21Z</time>
      </trkpt>
      <trkpt lat="48.2816" lon="2.59098">
        <ele>104.80000305176</ele>
        <time>2014-02-02T14:31:30Z</time>
      </trkpt>
      <trkpt lat="48.28158" lon="2.59094">
        <ele>104.80000305176</ele>
        <time>2014-02-02T14:31:37Z</time>
      </trkpt>
      <trkpt lat="48.28158" lon="2.59094">
        <ele>104.80000305176</ele>
        <time>2014-02-02T14:31:38Z</time>
      </trkpt>
      <trkpt lat="48.28157" lon="2.59093">
        <ele>105.19999694824</ele>
        <time>2014-02-02T14:31:40Z</time>
      </trkpt>
      <trkpt lat="48.28157" lon="2.59093">
        <ele>105.59999847412</ele>
        <time>2014-02-02T14:31:41Z</time>
      </trkpt>
      <trkpt lat="48.28157" lon="2.59093">
        <ele>106</ele>
        <time>2014-02-02T14:31:42Z</time>
      </trkpt>
      <trkpt lat="48.28157" lon="2.59093">
        <ele>106.40000152588</ele>
        <time>2014-02-02T14:31:43Z</time>
      </trkpt>
      <trkpt lat="48.28157" lon="2.59093">
        <ele>106.80000305176</ele>
        <time>2014-02-02T14:31:44Z</time>
      </trkpt>
      <trkpt lat="48.28157" lon="2.59091">
        <ele>106.80000305176</ele>
        <time>2014-02-02T14:31:55Z</time>
      </trkpt>
      <trkpt lat="48.28157" lon="2.59091">
        <ele>107.19999694824</ele>
        <time>2014-02-02T14:31:57Z</time>
      </trkpt>
      <trkpt lat="48.28157" lon="2.59091">
        <ele>107.59999847412</ele>
        <time>2014-02-02T14:31:58Z</time>
      </trkpt>
      <trkpt lat="48.28157" lon="2.59091">
        <ele>108</ele>
        <time>2014-02-02T14:31:59Z</time>
      </trkpt>
      <trkpt lat="48.28157" lon="2.59091">
        <ele>108.40000152588</ele>
        <time>2014-02-02T14:32:00Z</time>
      </trkpt>
      <trkpt lat="48.28156" lon="2.59091">
        <ele>108.80000305176</ele>
        <time>2014-02-02T14:32:01Z</time>
      </trkpt>
      <trkpt lat="48.28156" lon="2.59089">
        <ele>109.19999694824</ele>
        <time>2014-02-02T14:32:16Z</time>
      </trkpt>
      <trkpt lat="48.28156" lon="2.59089">
        <ele>109.59999847412</ele>
        <time>2014-02-02T14:32:17Z</time>
      </trkpt>
      <trkpt lat="48.28156" lon="2.59089">
        <ele>110.19999694824</ele>
        <time>2014-02-02T14:32:18Z</time>
      </trkpt>
      <trkpt lat="48.28155" lon="2.59089">
        <ele>110.59999847412</ele>
        <time>2014-02-02T14:32:19Z</time>
      </trkpt>
      <trkpt lat="48.28155" lon="2.59089">
        <ele>111</ele>
        <time>2014-02-02T14:32:20Z</time>
      </trkpt>
      <trkpt lat="48.28154" lon="2.59086">
        <ele>111.40000152588</ele>
        <time>2014-02-02T14:32:30Z</time>
      </trkpt>
      <trkpt lat="48.28154" lon="2.59086">
        <ele>111.80000305176</ele>
        <time>2014-02-02T14:32:31Z</time>
      </trkpt>
      <trkpt lat="48.28154" lon="2.59086">
        <ele>112.19999694824</ele>
        <time>2014-02-02T14:32:32Z</time>
      </trkpt>
      <trkpt lat="48.28154" lon="2.59086">
        <ele>112.80000305176</ele>
        <time>2014-02-02T14:32:33Z</time>
      </trkpt>
      <trkpt lat="48.28154" lon="2.59086">
        <ele>113.19999694824</ele>
        <time>2014-02-02T14:32:34Z</time>
      </trkpt>
      <trkpt lat="48.28153" lon="2.59081">
        <ele>113.59999847412</ele>
        <time>2014-02-02T14:32:49Z</time>
      </trkpt>
      <trkpt lat="48.28153" lon="2.59081">
        <ele>114</ele>
        <time>2014-02-02T14:32:50Z</time>
      </trkpt>
      <trkpt lat="48.28153" lon="2.5908">
        <ele>114.40000152588</ele>
        <time>2014-02-02T14:32:51Z</time>
      </trkpt>
      <trkpt lat="48.28153" lon="2.5908">
        <ele>114.80000305176</ele>
        <time>2014-02-02T14:32:52Z</time>
      </trkpt>
      <trkpt lat="48.28152" lon="2.59079">
        <ele>115.19999694824</ele>
        <time>2014-02-02T14:32:53Z</time>
      </trkpt>
      <trkpt lat="48.28151" lon="2.59075">
        <ele>115.59999847412</ele>
        <time>2014-02-02T14:33:03Z</time>
      </trkpt>
      <trkpt lat="48.28151" lon="2.59075">
        <ele>116</ele>
        <time>2014-02-02T14:33:04Z</time>
      </trkpt>
      <trkpt lat="48.28151" lon="2.59075">
        <ele>116.40000152588</ele>
        <time>2014-02-02T14:33:05Z</time>
      </trkpt>
      <trkpt lat="48.28151" lon="2.59075">
        <ele>116.80000305176</ele>
        <time>2014-02-02T14:33:06Z</time>
      </trkpt>
      <trkpt lat="48.28151" lon="2.59075">
        <ele>117.19999694824</ele>
        <time>2014-02-02T14:33:07Z</time>
      </trkpt>
      <trkpt lat="48.28148" lon="2.59076">
        <ele>117.19999694824</ele>
        <time>2014-02-02T14:33:19Z</time>
      </trkpt>
      <trkpt lat="48.28144" lon="2.59079">
        <ele>117.19999694824</ele>
        <time>2014-02-02T14:33:21Z</time>
      </trkpt>
      <trkpt lat="48.2814" lon="2.59098">
        <ele>116.80000305176</ele>
        <time>2014-02-02T14:33:25Z</time>
      </trkpt>
      <trkpt lat="48.28139" lon="2.59105">
        <ele>116.40000152588</ele>
        <time>2014-02-02T14:33:26Z</time>
      </trkpt>
      <trkpt lat="48.28138" lon="2.5911">
        <ele>116</ele>
        <time>2014-02-02T14:33:27Z</time>
      </trkpt>
      <trkpt lat="48.28137" lon="2.59117">
        <ele>115.59999847412</ele>
        <time>2014-02-02T14:33:28Z</time>
      </trkpt>
      <trkpt lat="48.28136" lon="2.59124">
        <ele>115.19999694824</ele>
        <time>2014-02-02T14:33:29Z</time>
      </trkpt>
      <trkpt lat="48.28135" lon="2.59141">
        <ele>114.59999847412</ele>
        <time>2014-02-02T14:33:31Z</time>
      </trkpt>
      <trkpt lat="48.28133" lon="2.59149">
        <ele>114.19999694824</ele>
        <time>2014-02-02T14:33:32Z</time>
      </trkpt>
      <trkpt lat="48.2813" lon="2.59157">
        <ele>113.80000305176</ele>
        <time>2014-02-02T14:33:33Z</time>
      </trkpt>
      <trkpt lat="48.28126" lon="2.59167">
        <ele>113.19999694824</ele>
        <time>2014-02-02T14:33:34Z</time>
      </trkpt>
      <trkpt lat="48.28123" lon="2.59173">
        <ele>112.80000305176</ele>
        <time>2014-02-02T14:33:35Z</time>
      </trkpt>
      <trkpt lat="48.28122" lon="2.59178">
        <ele>112.80000305176</ele>
        <time>2014-02-02T14:33:36Z</time>
      </trkpt>
      <trkpt lat="48.28114" lon="2.59199">
        <ele>112.80000305176</ele>
        <time>2014-02-02T14:33:41Z</time>
      </trkpt>
      <trkpt lat="48.28114" lon="2.59218">
        <ele>112.80000305176</ele>
        <time>2014-02-02T14:33:47Z</time>
      </trkpt>
      <trkpt lat="48.28115" lon="2.59225">
        <ele>113.19999694824</ele>
        <time>2014-02-02T14:33:50Z</time>
      </trkpt>
      <trkpt lat="48.28115" lon="2.59228">
        <ele>113.59999847412</ele>
        <time>2014-02-02T14:33:51Z</time>
      </trkpt>
      <trkpt lat="48.28116" lon="2.59231">
        <ele>114</ele>
        <time>2014-02-02T14:33:52Z</time>
      </trkpt>
      <trkpt lat="48.28117" lon="2.59234">
        <ele>114.59999847412</ele>
        <time>2014-02-02T14:33:53Z</time>
      </trkpt>
      <trkpt lat="48.28117" lon="2.59237">
        <ele>115</ele>
        <time>2014-02-02T14:33:54Z</time>
      </trkpt>
      <trkpt lat="48.28117" lon="2.59256">
        <ele>115.40000152588</ele>
        <time>2014-02-02T14:34:00Z</time>
      </trkpt>
      <trkpt lat="48.28116" lon="2.59259">
        <ele>115.80000305176</ele>
        <time>2014-02-02T14:34:01Z</time>
      </trkpt>
      <trkpt lat="48.28114" lon="2.59261">
        <ele>116.19999694824</ele>
        <time>2014-02-02T14:34:02Z</time>
      </trkpt>
      <trkpt lat="48.28113" lon="2.59263">
        <ele>116.59999847412</ele>
        <time>2014-02-02T14:34:03Z</time>
      </trkpt>
      <trkpt lat="48.28111" lon="2.59265">
        <ele>117</ele>
        <time>2014-02-02T14:34:04Z</time>
      </trkpt>
      <trkpt lat="48.2811" lon="2.59266">
        <ele>117</ele>
        <time>2014-02-02T14:34:05Z</time>
      </trkpt>
      <trkpt lat="48.28101" lon="2.59277">
        <ele>117</ele>
        <time>2014-02-02T14:34:11Z</time>
      </trkpt>
      <trkpt lat="48.281" lon="2.59278">
        <ele>117.59999847412</ele>
        <time>2014-02-02T14:34:12Z</time>
      </trkpt>
      <trkpt lat="48.28099" lon="2.5928">
        <ele>118</ele>
        <time>2014-02-02T14:34:13Z</time>
      </trkpt>
      <trkpt lat="48.28098" lon="2.59281">
        <ele>118.40000152588</ele>
        <time>2014-02-02T14:34:14Z</time>
      </trkpt>
      <trkpt lat="48.28095" lon="2.59283">
        <ele>118.80000305176</ele>
        <time>2014-02-02T14:34:16Z</time>
      </trkpt>
      <trkpt lat="48.28093" lon="2.59284">
        <ele>119.19999694824</ele>
        <time>2014-02-02T14:34:17Z</time>
      </trkpt>
      <trkpt lat="48.28092" lon="2.59285">
        <ele>119.19999694824</ele>
        <time>2014-02-02T14:34:18Z</time>
      </trkpt>
      <trkpt lat="48.28082" lon="2.59298">
        <ele>119.80000305176</ele>
        <time>2014-02-02T14:34:26Z</time>
      </trkpt>
      <trkpt lat="48.28082" lon="2.593">
        <ele>120.19999694824</ele>
        <time>2014-02-02T14:34:27Z</time>
      </trkpt>
      <trkpt lat="48.28081" lon="2.59302">
        <ele>120.59999847412</ele>
        <time>2014-02-02T14:34:28Z</time>
      </trkpt>
      <trkpt lat="48.2808" lon="2.59304">
        <ele>121.19999694824</ele>
        <time>2014-02-02T14:34:29Z</time>
      </trkpt>
      <trkpt lat="48.28079" lon="2.59306">
        <ele>121.59999847412</ele>
        <time>2014-02-02T14:34:30Z</time>
      </trkpt>
      <trkpt lat="48.2807" lon="2.59321">
        <ele>121.59999847412</ele>
        <time>2014-02-02T14:34:38Z</time>
      </trkpt>
      <trkpt lat="48.28068" lon="2.59324">
        <ele>122</ele>
        <time>2014-02-02T14:34:40Z</time>
      </trkpt>
      <trkpt lat="48.28067" lon="2.59326">
        <ele>122.40000152588</ele>
        <time>2014-02-02T14:34:41Z</time>
      </trkpt>
      <trkpt lat="48.28067" lon="2.59331">
        <ele>123.19999694824</ele>
        <time>2014-02-02T14:34:43Z</time>
      </trkpt>
      <trkpt lat="48.28068" lon="2.59333">
        <ele>123.59999847412</ele>
        <time>2014-02-02T14:34:44Z</time>
      </trkpt>
      <trkpt lat="48.28069" lon="2.59333">
        <ele>123.59999847412</ele>
        <time>2014-02-02T14:34:45Z</time>
      </trkpt>
      <trkpt lat="48.28072" lon="2.59333">
        <ele>123.59999847412</ele>
        <time>2014-02-02T14:34:46Z</time>
      </trkpt>
      <trkpt lat="48.28077" lon="2.5933">
        <ele>123.19999694824</ele>
        <time>2014-02-02T14:34:48Z</time>
      </trkpt>
      <trkpt lat="48.2808" lon="2.59328">
        <ele>122.59999847412</ele>
        <time>2014-02-02T14:34:49Z</time>
      </trkpt>
      <trkpt lat="48.28082" lon="2.59326">
        <ele>122.19999694824</ele>
        <time>2014-02-02T14:34:50Z</time>
      </trkpt>
      <trkpt lat="48.28085" lon="2.59323">
        <ele>121.59999847412</ele>
        <time>2014-02-02T14:34:51Z</time>
      </trkpt>
      <trkpt lat="48.28088" lon="2.59319">
        <ele>121</ele>
        <time>2014-02-02T14:34:52Z</time>
      </trkpt>
      <trkpt lat="48.2809" lon="2.59316">
        <ele>120.40000152588</ele>
        <time>2014-02-02T14:34:53Z</time>
      </trkpt>
      <trkpt lat="48.28093" lon="2.59313">
        <ele>119.59999847412</ele>
        <time>2014-02-02T14:34:54Z</time>
      </trkpt>
      <trkpt lat="48.28095" lon="2.5931">
        <ele>119</ele>
        <time>2014-02-02T14:34:55Z</time>
      </trkpt>
      <trkpt lat="48.28098" lon="2.59309">
        <ele>118.40000152588</ele>
        <time>2014-02-02T14:34:56Z</time>
      </trkpt>
      <trkpt lat="48.281" lon="2.59308">
        <ele>117.80000305176</ele>
        <time>2014-02-02T14:34:57Z</time>
      </trkpt>
      <trkpt lat="48.28102" lon="2.59309">
        <ele>117.19999694824</ele>
        <time>2014-02-02T14:34:58Z</time>
      </trkpt>
      <trkpt lat="48.28104" lon="2.59309">
        <ele>116.40000152588</ele>
        <time>2014-02-02T14:34:59Z</time>
      </trkpt>
      <trkpt lat="48.28107" lon="2.59309">
        <ele>115.80000305176</ele>
        <time>2014-02-02T14:35:00Z</time>
      </trkpt>
      <trkpt lat="48.28109" lon="2.59309">
        <ele>114.80000305176</ele>
        <time>2014-02-02T14:35:01Z</time>
      </trkpt>
      <trkpt lat="48.28112" lon="2.59308">
        <ele>114</ele>
        <time>2014-02-02T14:35:02Z</time>
      </trkpt>
      <trkpt lat="48.28115" lon="2.59306">
        <ele>113.19999694824</ele>
        <time>2014-02-02T14:35:03Z</time>
      </trkpt>
      <trkpt lat="48.28119" lon="2.59304">
        <ele>112.40000152588</ele>
        <time>2014-02-02T14:35:04Z</time>
      </trkpt>
      <trkpt lat="48.28122" lon="2.59302">
        <ele>111.59999847412</ele>
        <time>2014-02-02T14:35:05Z</time>
      </trkpt>
      <trkpt lat="48.28126" lon="2.59299">
        <ele>110.80000305176</ele>
        <time>2014-02-02T14:35:06Z</time>
      </trkpt>
      <trkpt lat="48.28129" lon="2.59296">
        <ele>109.80000305176</ele>
        <time>2014-02-02T14:35:07Z</time>
      </trkpt>
      <trkpt lat="48.28131" lon="2.59292">
        <ele>109.40000152588</ele>
        <time>2014-02-02T14:35:08Z</time>
      </trkpt>
      <trkpt lat="48.28133" lon="2.59289">
        <ele>108.80000305176</ele>
        <time>2014-02-02T14:35:09Z</time>
      </trkpt>
      <trkpt lat="48.28136" lon="2.59285">
        <ele>108.19999694824</ele>
        <time>2014-02-02T14:35:10Z</time>
      </trkpt>
      <trkpt lat="48.28139" lon="2.59283">
        <ele>107.59999847412</ele>
        <time>2014-02-02T14:35:11Z</time>
      </trkpt>
      <trkpt lat="48.28142" lon="2.59283">
        <ele>107</ele>
        <time>2014-02-02T14:35:12Z</time>
      </trkpt>
      <trkpt lat="48.28144" lon="2.59286">
        <ele>107</ele>
        <time>2014-02-02T14:35:13Z</time>
      </trkpt>
      <trkpt lat="48.28148" lon="2.5929">
        <ele>106.59999847412</ele>
        <time>2014-02-02T14:35:14Z</time>
      </trkpt>
      <trkpt lat="48.28151" lon="2.59293">
        <ele>106.19999694824</ele>
        <time>2014-02-02T14:35:15Z</time>
      </trkpt>
      <trkpt lat="48.28154" lon="2.59296">
        <ele>105.59999847412</ele>
        <time>2014-02-02T14:35:16Z</time>
      </trkpt>
      <trkpt lat="48.28158" lon="2.59299">
        <ele>105.19999694824</ele>
        <time>2014-02-02T14:35:17Z</time>
      </trkpt>
      <trkpt lat="48.28163" lon="2.59302">
        <ele>104.80000305176</ele>
        <time>2014-02-02T14:35:18Z</time>
      </trkpt>
      <trkpt lat="48.28168" lon="2.59305">
        <ele>104.19999694824</ele>
        <time>2014-02-02T14:35:19Z</time>
      </trkpt>
      <trkpt lat="48.28174" lon="2.59309">
        <ele>103.80000305176</ele>
        <time>2014-02-02T14:35:20Z</time>
      </trkpt>
      <trkpt lat="48.28181" lon="2.59312">
        <ele>103.19999694824</ele>
        <time>2014-02-02T14:35:21Z</time>
      </trkpt>
      <trkpt lat="48.28188" lon="2.59315">
        <ele>102.59999847412</ele>
        <time>2014-02-02T14:35:22Z</time>
      </trkpt>
      <trkpt lat="48.28194" lon="2.59317">
        <ele>102</ele>
        <time>2014-02-02T14:35:23Z</time>
      </trkpt>
      <trkpt lat="48.28201" lon="2.5932">
        <ele>101.40000152588</ele>
        <time>2014-02-02T14:35:24Z</time>
      </trkpt>
      <trkpt lat="48.28207" lon="2.59323">
        <ele>100.80000305176</ele>
        <time>2014-02-02T14:35:25Z</time>
      </trkpt>
      <trkpt lat="48.28212" lon="2.59327">
        <ele>100.19999694824</ele>
        <time>2014-02-02T14:35:26Z</time>
      </trkpt>
      <trkpt lat="48.28223" lon="2.59336">
        <ele>99.800003051758</ele>
        <time>2014-02-02T14:35:29Z</time>
      </trkpt>
      <trkpt lat="48.28223" lon="2.59339">
        <ele>99.199996948242</ele>
        <time>2014-02-02T14:35:30Z</time>
      </trkpt>
      <trkpt lat="48.28223" lon="2.59343">
        <ele>98.800003051758</ele>
        <time>2014-02-02T14:35:31Z</time>
      </trkpt>
      <trkpt lat="48.28222" lon="2.59347">
        <ele>98.400001525879</ele>
        <time>2014-02-02T14:35:32Z</time>
      </trkpt>
      <trkpt lat="48.2822" lon="2.5935">
        <ele>98</ele>
        <time>2014-02-02T14:35:33Z</time>
      </trkpt>
      <trkpt lat="48.28204" lon="2.59381">
        <ele>98</ele>
        <time>2014-02-02T14:35:40Z</time>
      </trkpt>
      <trkpt lat="48.28185" lon="2.59424">
        <ele>98</ele>
        <time>2014-02-02T14:35:48Z</time>
      </trkpt>
      <trkpt lat="48.28183" lon="2.5943">
        <ele>97.599998474121</ele>
        <time>2014-02-02T14:35:49Z</time>
      </trkpt>
      <trkpt lat="48.28181" lon="2.59437">
        <ele>97.199996948242</ele>
        <time>2014-02-02T14:35:50Z</time>
      </trkpt>
      <trkpt lat="48.28179" lon="2.59443">
        <ele>96.800003051758</ele>
        <time>2014-02-02T14:35:51Z</time>
      </trkpt>
      <trkpt lat="48.28177" lon="2.59449">
        <ele>96.400001525879</ele>
        <time>2014-02-02T14:35:52Z</time>
      </trkpt>
      <trkpt lat="48.28175" lon="2.59455">
        <ele>96</ele>
        <time>2014-02-02T14:35:53Z</time>
      </trkpt>
      <trkpt lat="48.28171" lon="2.59472">
        <ele>96</ele>
        <time>2014-02-02T14:35:56Z</time>
      </trkpt>
      <trkpt lat="48.28159" lon="2.5952">
        <ele>96</ele>
        <time>2014-02-02T14:36:04Z</time>
      </trkpt>
      <trkpt lat="48.28158" lon="2.59526">
        <ele>96</ele>
        <time>2014-02-02T14:36:05Z</time>
      </trkpt>
      <trkpt lat="48.2816" lon="2.59543">
        <ele>96</ele>
        <time>2014-02-02T14:36:08Z</time>
      </trkpt>
      <trkpt lat="48.28168" lon="2.5955">
        <ele>96</ele>
        <time>2014-02-02T14:36:11Z</time>
      </trkpt>
      <trkpt lat="48.28182" lon="2.59569">
        <ele>95.400001525879</ele>
        <time>2014-02-02T14:36:16Z</time>
      </trkpt>
      <trkpt lat="48.28186" lon="2.59574">
        <ele>95</ele>
        <time>2014-02-02T14:36:17Z</time>
      </trkpt>
      <trkpt lat="48.28189" lon="2.59579">
        <ele>94.599998474121</ele>
        <time>2014-02-02T14:36:18Z</time>
      </trkpt>
      <trkpt lat="48.28193" lon="2.59583">
        <ele>94.199996948242</ele>
        <time>2014-02-02T14:36:19Z</time>
      </trkpt>
      <trkpt lat="48.28197" lon="2.59588">
        <ele>93.599998474121</ele>
        <time>2014-02-02T14:36:20Z</time>
      </trkpt>
      <trkpt lat="48.28201" lon="2.59592">
        <ele>93.199996948242</ele>
        <time>2014-02-02T14:36:21Z</time>
      </trkpt>
      <trkpt lat="48.28204" lon="2.59598">
        <ele>92.800003051758</ele>
        <time>2014-02-02T14:36:22Z</time>
      </trkpt>
      <trkpt lat="48.28208" lon="2.59604">
        <ele>92.400001525879</ele>
        <time>2014-02-02T14:36:23Z</time>
      </trkpt>
      <trkpt lat="48.28211" lon="2.59608">
        <ele>92</ele>
        <time>2014-02-02T14:36:24Z</time>
      </trkpt>
      <trkpt lat="48.28215" lon="2.59613">
        <ele>91.599998474121</ele>
        <time>2014-02-02T14:36:25Z</time>
      </trkpt>
      <trkpt lat="48.28226" lon="2.59627">
        <ele>91.199996948242</ele>
        <time>2014-02-02T14:36:28Z</time>
      </trkpt>
      <trkpt lat="48.2823" lon="2.59631">
        <ele>90.599998474121</ele>
        <time>2014-02-02T14:36:29Z</time>
      </trkpt>
      <trkpt lat="48.28234" lon="2.59636">
        <ele>90.199996948242</ele>
        <time>2014-02-02T14:36:30Z</time>
      </trkpt>
      <trkpt lat="48.28238" lon="2.5964">
        <ele>89.800003051758</ele>
        <time>2014-02-02T14:36:31Z</time>
      </trkpt>
      <trkpt lat="48.28242" lon="2.59645">
        <ele>89.400001525879</ele>
        <time>2014-02-02T14:36:32Z</time>
      </trkpt>
      <trkpt lat="48.28262" lon="2.59669">
        <ele>88.800003051758</ele>
        <time>2014-02-02T14:36:37Z</time>
      </trkpt>
      <trkpt lat="48.28266" lon="2.59674">
        <ele>88.400001525879</ele>
        <time>2014-02-02T14:36:38Z</time>
      </trkpt>
      <trkpt lat="48.2827" lon="2.59679">
        <ele>88</ele>
        <time>2014-02-02T14:36:39Z</time>
      </trkpt>
      <trkpt lat="48.28275" lon="2.59684">
        <ele>87.599998474121</ele>
        <time>2014-02-02T14:36:40Z</time>
      </trkpt>
      <trkpt lat="48.28279" lon="2.59689">
        <ele>87.199996948242</ele>
        <time>2014-02-02T14:36:41Z</time>
      </trkpt>
      <trkpt lat="48.28291" lon="2.59702">
        <ele>86.800003051758</ele>
        <time>2014-02-02T14:36:44Z</time>
      </trkpt>
      <trkpt lat="48.28295" lon="2.59707">
        <ele>86.199996948242</ele>
        <time>2014-02-02T14:36:45Z</time>
      </trkpt>
      <trkpt lat="48.28299" lon="2.59711">
        <ele>85.800003051758</ele>
        <time>2014-02-02T14:36:46Z</time>
      </trkpt>
      <trkpt lat="48.28302" lon="2.59714">
        <ele>85.400001525879</ele>
        <time>2014-02-02T14:36:47Z</time>
      </trkpt>
      <trkpt lat="48.28306" lon="2.59719">
        <ele>85</ele>
        <time>2014-02-02T14:36:48Z</time>
      </trkpt>
      <trkpt lat="48.28316" lon="2.59732">
        <ele>85</ele>
        <time>2014-02-02T14:36:51Z</time>
      </trkpt>
      <trkpt lat="48.28323" lon="2.59745">
        <ele>84.599998474121</ele>
        <time>2014-02-02T14:36:53Z</time>
      </trkpt>
      <trkpt lat="48.28326" lon="2.59752">
        <ele>84.199996948242</ele>
        <time>2014-02-02T14:36:54Z</time>
      </trkpt>
      <trkpt lat="48.28329" lon="2.59758">
        <ele>83.599998474121</ele>
        <time>2014-02-02T14:36:55Z</time>
      </trkpt>
      <trkpt lat="48.28332" lon="2.59764">
        <ele>83.199996948242</ele>
        <time>2014-02-02T14:36:56Z</time>
      </trkpt>
      <trkpt lat="48.28333" lon="2.59769">
        <ele>82.800003051758</ele>
        <time>2014-02-02T14:36:57Z</time>
      </trkpt>
      <trkpt lat="48.28333" lon="2.59774">
        <ele>82.800003051758</ele>
        <time>2014-02-02T14:36:58Z</time>
      </trkpt>
      <trkpt lat="48.28327" lon="2.59782">
        <ele>82.800003051758</ele>
        <time>2014-02-02T14:37:01Z</time>
      </trkpt>
      <trkpt lat="48.28325" lon="2.59783">
        <ele>82.800003051758</ele>
        <time>2014-02-02T14:37:02Z</time>
      </trkpt>
      <trkpt lat="48.28318" lon="2.59787">
        <ele>82.800003051758</ele>
        <time>2014-02-02T14:37:07Z</time>
      </trkpt>
      <trkpt lat="48.28319" lon="2.59786">
        <ele>82.800003051758</ele>
        <time>2014-02-02T14:37:23Z</time>
      </trkpt>
      <trkpt lat="48.2832" lon="2.59787">
        <ele>82.800003051758</ele>
        <time>2014-02-02T14:38:06Z</time>
      </trkpt>
      <trkpt lat="48.2832" lon="2.59787">
        <ele>82.800003051758</ele>
        <time>2014-02-02T14:38:27Z</time>
      </trkpt>
      <trkpt lat="48.2832" lon="2.59787">
        <ele>82.800003051758</ele>
        <time>2014-02-02T14:39:23Z</time>
      </trkpt>
      <trkpt lat="48.28318" lon="2.59786">
        <ele>82.800003051758</ele>
        <time>2014-02-02T14:39:38Z</time>
      </trkpt>
      <trkpt lat="48.28318" lon="2.59785">
        <ele>82.800003051758</ele>
        <time>2014-02-02T14:41:05Z</time>
      </trkpt>
      <trkpt lat="48.28345" lon="2.59772">
        <ele>82.800003051758</ele>
        <time>2014-02-02T14:41:33Z</time>
      </trkpt>
      <trkpt lat="48.28354" lon="2.59769">
        <ele>82.800003051758</ele>
        <time>2014-02-02T14:41:46Z</time>
      </trkpt>
      <trkpt lat="48.2835" lon="2.59783">
        <ele>82.800003051758</ele>
        <time>2014-02-02T14:41:59Z</time>
      </trkpt>
      <trkpt lat="48.28345" lon="2.59778">
        <ele>82.800003051758</ele>
        <time>2014-02-02T14:43:25Z</time>
      </trkpt>
      <trkpt lat="48.28333" lon="2.59769">
        <ele>82.800003051758</ele>
        <time>2014-02-02T14:47:08Z</time>
      </trkpt>
      <trkpt lat="48.28326" lon="2.59772">
        <ele>82.800003051758</ele>
        <time>2014-02-02T14:51:02Z</time>
      </trkpt>
      <trkpt lat="48.28324" lon="2.59773">
        <ele>82.800003051758</ele>
        <time>2014-02-02T14:51:13Z</time>
      </trkpt>
      <trkpt lat="48.28321" lon="2.59772">
        <ele>82.800003051758</ele>
        <time>2014-02-02T14:53:19Z</time>
      </trkpt>
      <trkpt lat="48.2832" lon="2.59771">
        <ele>82.800003051758</ele>
        <time>2014-02-02T15:05:47Z</time>
      </trkpt>
      <trkpt lat="48.28316" lon="2.59771">
        <ele>82.800003051758</ele>
        <time>2014-02-02T15:17:09Z</time>
      </trkpt>
    </trkseg>
  </trk>
</gpx>